<?xml version="1.0" encoding="UTF-8" standalone="no" ?>
<gpx xmlns="http://www.topografix.com/GPX/1/1" xmlns:xsi="http://www.w3.org/2001/XMLSchema-instance" xsi:schemaLocation="http://www.topografix.com/GPX/1/1 http://www.topografix.com/GPX/1/1/gpx.xsd" version="1.1" creator="VisuGPX - https://www.visugpx.com">
  <metadata>
    <name>Ponte di Legno al Lago Mortirolo -- 2º part Adamello ultra trail</name>
    <desc><![CDATA[2º part adamello ultra trail.............]]></desc>
  </metadata>
  <trk>
    <name><![CDATA[Move]]></name>
    <trkseg>
      <trkpt lat="46.25603" lon="10.51671">
        <ele>1256.1999511719</ele>
        <time>2018-09-22T04:25:22.000Z</time>
      </trkpt>
      <trkpt lat="46.25596" lon="10.51672">
        <ele>1261.2</ele>
        <time>2018-09-22T04:25:28.000Z</time>
      </trkpt>
      <trkpt lat="46.25591" lon="10.51672">
        <ele>1261.2</ele>
        <time>2018-09-22T04:25:30.000Z</time>
      </trkpt>
      <trkpt lat="46.25588" lon="10.51674">
        <ele>1298</ele>
        <time>2018-09-22T04:25:32.000Z</time>
      </trkpt>
      <trkpt lat="46.25585" lon="10.51676">
        <ele>1298</ele>
        <time>2018-09-22T04:25:34.000Z</time>
      </trkpt>
      <trkpt lat="46.25583" lon="10.51678">
        <ele>1298</ele>
        <time>2018-09-22T04:25:36.000Z</time>
      </trkpt>
      <trkpt lat="46.25582" lon="10.5168">
        <ele>1298</ele>
        <time>2018-09-22T04:25:38.000Z</time>
      </trkpt>
      <trkpt lat="46.2558" lon="10.51682">
        <ele>1298</ele>
        <time>2018-09-22T04:25:40.000Z</time>
      </trkpt>
      <trkpt lat="46.25578" lon="10.51685">
        <ele>1298</ele>
        <time>2018-09-22T04:25:42.000Z</time>
      </trkpt>
      <trkpt lat="46.25577" lon="10.51687">
        <ele>1298</ele>
        <time>2018-09-22T04:25:44.000Z</time>
      </trkpt>
      <trkpt lat="46.25575" lon="10.51689">
        <ele>1298</ele>
        <time>2018-09-22T04:25:46.000Z</time>
      </trkpt>
      <trkpt lat="46.25574" lon="10.51691">
        <ele>1298</ele>
        <time>2018-09-22T04:25:48.000Z</time>
      </trkpt>
      <trkpt lat="46.25572" lon="10.51693">
        <ele>1298</ele>
        <time>2018-09-22T04:25:50.000Z</time>
      </trkpt>
      <trkpt lat="46.2557" lon="10.51695">
        <ele>1298</ele>
        <time>2018-09-22T04:25:52.000Z</time>
      </trkpt>
      <trkpt lat="46.25567" lon="10.51695">
        <ele>1298</ele>
        <time>2018-09-22T04:25:54.000Z</time>
      </trkpt>
      <trkpt lat="46.25564" lon="10.51693">
        <ele>1298</ele>
        <time>2018-09-22T04:25:56.000Z</time>
      </trkpt>
      <trkpt lat="46.25562" lon="10.51692">
        <ele>1298</ele>
        <time>2018-09-22T04:25:58.000Z</time>
      </trkpt>
      <trkpt lat="46.2556" lon="10.51691">
        <ele>1298</ele>
        <time>2018-09-22T04:26:00.000Z</time>
      </trkpt>
      <trkpt lat="46.25558" lon="10.5169">
        <ele>1298</ele>
        <time>2018-09-22T04:26:02.000Z</time>
      </trkpt>
      <trkpt lat="46.25555" lon="10.51688">
        <ele>1298</ele>
        <time>2018-09-22T04:26:04.000Z</time>
      </trkpt>
      <trkpt lat="46.25553" lon="10.51686">
        <ele>1298</ele>
        <time>2018-09-22T04:26:06.000Z</time>
      </trkpt>
      <trkpt lat="46.25551" lon="10.51684">
        <ele>1298</ele>
        <time>2018-09-22T04:26:08.000Z</time>
      </trkpt>
      <trkpt lat="46.25549" lon="10.51681">
        <ele>1298</ele>
        <time>2018-09-22T04:26:10.000Z</time>
      </trkpt>
      <trkpt lat="46.25547" lon="10.5168">
        <ele>1298</ele>
        <time>2018-09-22T04:26:12.000Z</time>
      </trkpt>
      <trkpt lat="46.25545" lon="10.51677">
        <ele>1298</ele>
        <time>2018-09-22T04:26:14.000Z</time>
      </trkpt>
      <trkpt lat="46.25543" lon="10.51675">
        <ele>1298</ele>
        <time>2018-09-22T04:26:16.000Z</time>
      </trkpt>
      <trkpt lat="46.25541" lon="10.51673">
        <ele>1298</ele>
        <time>2018-09-22T04:26:18.000Z</time>
      </trkpt>
      <trkpt lat="46.25539" lon="10.51672">
        <ele>1298</ele>
        <time>2018-09-22T04:26:20.000Z</time>
      </trkpt>
      <trkpt lat="46.25538" lon="10.5167">
        <ele>1298</ele>
        <time>2018-09-22T04:26:22.000Z</time>
      </trkpt>
      <trkpt lat="46.25535" lon="10.51669">
        <ele>1298</ele>
        <time>2018-09-22T04:26:24.000Z</time>
      </trkpt>
      <trkpt lat="46.25533" lon="10.51667">
        <ele>1298</ele>
        <time>2018-09-22T04:26:26.000Z</time>
      </trkpt>
      <trkpt lat="46.25531" lon="10.51665">
        <ele>1298</ele>
        <time>2018-09-22T04:26:28.000Z</time>
      </trkpt>
      <trkpt lat="46.25528" lon="10.51664">
        <ele>1298</ele>
        <time>2018-09-22T04:26:30.000Z</time>
      </trkpt>
      <trkpt lat="46.25526" lon="10.51663">
        <ele>1298</ele>
        <time>2018-09-22T04:26:32.000Z</time>
      </trkpt>
      <trkpt lat="46.25524" lon="10.51662">
        <ele>1298</ele>
        <time>2018-09-22T04:26:34.000Z</time>
      </trkpt>
      <trkpt lat="46.25522" lon="10.5166">
        <ele>1298</ele>
        <time>2018-09-22T04:26:36.000Z</time>
      </trkpt>
      <trkpt lat="46.25519" lon="10.51658">
        <ele>1298</ele>
        <time>2018-09-22T04:26:38.000Z</time>
      </trkpt>
      <trkpt lat="46.25517" lon="10.51657">
        <ele>1298</ele>
        <time>2018-09-22T04:26:40.000Z</time>
      </trkpt>
      <trkpt lat="46.25515" lon="10.51655">
        <ele>1298.0939066432</ele>
        <time>2018-09-22T04:26:42.000Z</time>
      </trkpt>
      <trkpt lat="46.25513" lon="10.51654">
        <ele>1298.2937066514</ele>
        <time>2018-09-22T04:26:44.000Z</time>
      </trkpt>
      <trkpt lat="46.25511" lon="10.51653">
        <ele>1298.4935066596</ele>
        <time>2018-09-22T04:26:46.000Z</time>
      </trkpt>
      <trkpt lat="46.25509" lon="10.51652">
        <ele>1298.6933066678</ele>
        <time>2018-09-22T04:26:48.000Z</time>
      </trkpt>
      <trkpt lat="46.25506" lon="10.51651">
        <ele>1298.8931066759</ele>
        <time>2018-09-22T04:26:50.000Z</time>
      </trkpt>
      <trkpt lat="46.25504" lon="10.51651">
        <ele>1299</ele>
        <time>2018-09-22T04:26:52.000Z</time>
      </trkpt>
      <trkpt lat="46.25502" lon="10.51649">
        <ele>1299</ele>
        <time>2018-09-22T04:26:55.000Z</time>
      </trkpt>
      <trkpt lat="46.255" lon="10.51649">
        <ele>1299</ele>
        <time>2018-09-22T04:26:57.000Z</time>
      </trkpt>
      <trkpt lat="46.25497" lon="10.51647">
        <ele>1299</ele>
        <time>2018-09-22T04:27:00.000Z</time>
      </trkpt>
      <trkpt lat="46.25495" lon="10.51645">
        <ele>1299.09400064</ele>
        <time>2018-09-22T04:27:02.000Z</time>
      </trkpt>
      <trkpt lat="46.25493" lon="10.51643">
        <ele>1299.29400064</ele>
        <time>2018-09-22T04:27:04.000Z</time>
      </trkpt>
      <trkpt lat="46.25491" lon="10.51641">
        <ele>1299.49400064</ele>
        <time>2018-09-22T04:27:06.000Z</time>
      </trkpt>
      <trkpt lat="46.25489" lon="10.51639">
        <ele>1299.69400064</ele>
        <time>2018-09-22T04:27:08.000Z</time>
      </trkpt>
      <trkpt lat="46.25487" lon="10.51637">
        <ele>1299.89400064</ele>
        <time>2018-09-22T04:27:10.000Z</time>
      </trkpt>
      <trkpt lat="46.25485" lon="10.51635">
        <ele>1300</ele>
        <time>2018-09-22T04:27:12.000Z</time>
      </trkpt>
      <trkpt lat="46.25483" lon="10.51634">
        <ele>1300</ele>
        <time>2018-09-22T04:27:14.000Z</time>
      </trkpt>
      <trkpt lat="46.25481" lon="10.51633">
        <ele>1300</ele>
        <time>2018-09-22T04:27:16.000Z</time>
      </trkpt>
      <trkpt lat="46.25478" lon="10.51631">
        <ele>1300</ele>
        <time>2018-09-22T04:27:18.000Z</time>
      </trkpt>
      <trkpt lat="46.25476" lon="10.5163">
        <ele>1300</ele>
        <time>2018-09-22T04:27:20.000Z</time>
      </trkpt>
      <trkpt lat="46.25473" lon="10.5163">
        <ele>1299.90599936</ele>
        <time>2018-09-22T04:27:22.000Z</time>
      </trkpt>
      <trkpt lat="46.2547" lon="10.51631">
        <ele>1299.70599936</ele>
        <time>2018-09-22T04:27:24.000Z</time>
      </trkpt>
      <trkpt lat="46.25468" lon="10.51631">
        <ele>1299.50599936</ele>
        <time>2018-09-22T04:27:26.000Z</time>
      </trkpt>
      <trkpt lat="46.25459" lon="10.51637">
        <ele>1299</ele>
        <time>2018-09-22T04:27:34.000Z</time>
      </trkpt>
      <trkpt lat="46.25458" lon="10.5164">
        <ele>1299</ele>
        <time>2018-09-22T04:27:37.000Z</time>
      </trkpt>
      <trkpt lat="46.25459" lon="10.51643">
        <ele>1299</ele>
        <time>2018-09-22T04:27:39.000Z</time>
      </trkpt>
      <trkpt lat="46.25458" lon="10.51646">
        <ele>1299</ele>
        <time>2018-09-22T04:27:41.000Z</time>
      </trkpt>
      <trkpt lat="46.25458" lon="10.5165">
        <ele>1299.19400064</ele>
        <time>2018-09-22T04:27:43.000Z</time>
      </trkpt>
      <trkpt lat="46.25456" lon="10.51653">
        <ele>1299.39400064</ele>
        <time>2018-09-22T04:27:45.000Z</time>
      </trkpt>
      <trkpt lat="46.25455" lon="10.51656">
        <ele>1299.59400064</ele>
        <time>2018-09-22T04:27:47.000Z</time>
      </trkpt>
      <trkpt lat="46.25455" lon="10.5166">
        <ele>1299.79400064</ele>
        <time>2018-09-22T04:27:49.000Z</time>
      </trkpt>
      <trkpt lat="46.25453" lon="10.51662">
        <ele>1299.99400064</ele>
        <time>2018-09-22T04:27:51.000Z</time>
      </trkpt>
      <trkpt lat="46.25452" lon="10.51665">
        <ele>1300</ele>
        <time>2018-09-22T04:27:53.000Z</time>
      </trkpt>
      <trkpt lat="46.25451" lon="10.51668">
        <ele>1300</ele>
        <time>2018-09-22T04:27:55.000Z</time>
      </trkpt>
      <trkpt lat="46.25451" lon="10.51671">
        <ele>1300</ele>
        <time>2018-09-22T04:27:57.000Z</time>
      </trkpt>
      <trkpt lat="46.2545" lon="10.51673">
        <ele>1300</ele>
        <time>2018-09-22T04:27:59.000Z</time>
      </trkpt>
      <trkpt lat="46.25449" lon="10.51676">
        <ele>1300</ele>
        <time>2018-09-22T04:28:01.000Z</time>
      </trkpt>
      <trkpt lat="46.25448" lon="10.51679">
        <ele>1300.3684202344</ele>
        <time>2018-09-22T04:28:03.000Z</time>
      </trkpt>
      <trkpt lat="46.25446" lon="10.51681">
        <ele>1300.7732790585</ele>
        <time>2018-09-22T04:28:05.000Z</time>
      </trkpt>
      <trkpt lat="46.25445" lon="10.51683">
        <ele>1301.1781378826</ele>
        <time>2018-09-22T04:28:07.000Z</time>
      </trkpt>
      <trkpt lat="46.25444" lon="10.51686">
        <ele>1301.5829967067</ele>
        <time>2018-09-22T04:28:09.000Z</time>
      </trkpt>
      <trkpt lat="46.25443" lon="10.51688">
        <ele>1301.9878555308</ele>
        <time>2018-09-22T04:28:11.000Z</time>
      </trkpt>
      <trkpt lat="46.25442" lon="10.51691">
        <ele>1302</ele>
        <time>2018-09-22T04:28:13.000Z</time>
      </trkpt>
      <trkpt lat="46.25441" lon="10.51693">
        <ele>1302</ele>
        <time>2018-09-22T04:28:15.000Z</time>
      </trkpt>
      <trkpt lat="46.25435" lon="10.51705">
        <ele>1302</ele>
        <time>2018-09-22T04:28:23.996Z</time>
      </trkpt>
      <trkpt lat="46.25428" lon="10.51715">
        <ele>1302.0927214859</ele>
        <time>2018-09-22T04:28:32.000Z</time>
      </trkpt>
      <trkpt lat="46.25422" lon="10.51727">
        <ele>1302.8893317203</ele>
        <time>2018-09-22T04:28:39.990Z</time>
      </trkpt>
      <trkpt lat="46.25416" lon="10.51738">
        <ele>1303</ele>
        <time>2018-09-22T04:28:48.991Z</time>
      </trkpt>
      <trkpt lat="46.2541" lon="10.51748">
        <ele>1303.580413084</ele>
        <time>2018-09-22T04:28:56.990Z</time>
      </trkpt>
      <trkpt lat="46.25404" lon="10.5176">
        <ele>1304</ele>
        <time>2018-09-22T04:29:05.990Z</time>
      </trkpt>
      <trkpt lat="46.25397" lon="10.51771">
        <ele>1304.39300096</ele>
        <time>2018-09-22T04:29:14.990Z</time>
      </trkpt>
      <trkpt lat="46.25392" lon="10.51782">
        <ele>1305</ele>
        <time>2018-09-22T04:29:23.990Z</time>
      </trkpt>
      <trkpt lat="46.25385" lon="10.51793">
        <ele>1305</ele>
        <time>2018-09-22T04:29:31.989Z</time>
      </trkpt>
      <trkpt lat="46.25379" lon="10.51804">
        <ele>1305</ele>
        <time>2018-09-22T04:29:39.986Z</time>
      </trkpt>
      <trkpt lat="46.25374" lon="10.51814">
        <ele>1305.69410048</ele>
        <time>2018-09-22T04:29:48.001Z</time>
      </trkpt>
      <trkpt lat="46.25369" lon="10.51826">
        <ele>1306</ele>
        <time>2018-09-22T04:29:56.990Z</time>
      </trkpt>
      <trkpt lat="46.25365" lon="10.51838">
        <ele>1306.3715943972</ele>
        <time>2018-09-22T04:30:04.986Z</time>
      </trkpt>
      <trkpt lat="46.2536" lon="10.5185">
        <ele>1307.0518286485</ele>
        <time>2018-09-22T04:30:11.986Z</time>
      </trkpt>
      <trkpt lat="46.25355" lon="10.51862">
        <ele>1307.9927908022</ele>
        <time>2018-09-22T04:30:20.991Z</time>
      </trkpt>
      <trkpt lat="46.25351" lon="10.51876">
        <ele>1308</ele>
        <time>2018-09-22T04:30:29.991Z</time>
      </trkpt>
      <trkpt lat="46.25348" lon="10.51889">
        <ele>1308.79300096</ele>
        <time>2018-09-22T04:30:38.990Z</time>
      </trkpt>
      <trkpt lat="46.25341" lon="10.51901">
        <ele>1309</ele>
        <time>2018-09-22T04:30:47.996Z</time>
      </trkpt>
      <trkpt lat="46.25336" lon="10.51912">
        <ele>1308.50739968</ele>
        <time>2018-09-22T04:30:55.986Z</time>
      </trkpt>
      <trkpt lat="46.25329" lon="10.51922">
        <ele>1308.29300096</ele>
        <time>2018-09-22T04:31:03.990Z</time>
      </trkpt>
      <trkpt lat="46.25323" lon="10.51933">
        <ele>1308.99300096</ele>
        <time>2018-09-22T04:31:10.990Z</time>
      </trkpt>
      <trkpt lat="46.25317" lon="10.51942">
        <ele>1309</ele>
        <time>2018-09-22T04:31:18.990Z</time>
      </trkpt>
      <trkpt lat="46.25312" lon="10.51954">
        <ele>1309.6927146074</ele>
        <time>2018-09-22T04:31:28.001Z</time>
      </trkpt>
      <trkpt lat="46.25306" lon="10.51965">
        <ele>1310</ele>
        <time>2018-09-22T04:31:35.986Z</time>
      </trkpt>
      <trkpt lat="46.253" lon="10.51977">
        <ele>1310</ele>
        <time>2018-09-22T04:31:44.956Z</time>
      </trkpt>
      <trkpt lat="46.25294" lon="10.51989">
        <ele>1310</ele>
        <time>2018-09-22T04:31:53.000Z</time>
      </trkpt>
      <trkpt lat="46.25289" lon="10.52001">
        <ele>1310</ele>
        <time>2018-09-22T04:32:00.990Z</time>
      </trkpt>
      <trkpt lat="46.25285" lon="10.52013">
        <ele>1310.7778801314</ele>
        <time>2018-09-22T04:32:08.991Z</time>
      </trkpt>
      <trkpt lat="46.25278" lon="10.52024">
        <ele>1311.6905971092</ele>
        <time>2018-09-22T04:32:18.000Z</time>
      </trkpt>
      <trkpt lat="46.25272" lon="10.52034">
        <ele>1312</ele>
        <time>2018-09-22T04:32:25.990Z</time>
      </trkpt>
      <trkpt lat="46.25267" lon="10.52045">
        <ele>1312</ele>
        <time>2018-09-22T04:32:34.991Z</time>
      </trkpt>
      <trkpt lat="46.2526" lon="10.52055">
        <ele>1312</ele>
        <time>2018-09-22T04:32:43.001Z</time>
      </trkpt>
      <trkpt lat="46.25252" lon="10.52064">
        <ele>1312</ele>
        <time>2018-09-22T04:32:50.986Z</time>
      </trkpt>
      <trkpt lat="46.25245" lon="10.52074">
        <ele>1312.79300096</ele>
        <time>2018-09-22T04:32:58.990Z</time>
      </trkpt>
      <trkpt lat="46.25235" lon="10.52076">
        <ele>1313.69400064</ele>
        <time>2018-09-22T04:33:08.000Z</time>
      </trkpt>
      <trkpt lat="46.25233" lon="10.52063">
        <ele>1315.4935066596</ele>
        <time>2018-09-22T04:33:26.000Z</time>
      </trkpt>
      <trkpt lat="46.25229" lon="10.52051">
        <ele>1317.1871876874</ele>
        <time>2018-09-22T04:33:37.000Z</time>
      </trkpt>
      <trkpt lat="46.2523" lon="10.52037">
        <ele>1319.3868128158</ele>
        <time>2018-09-22T04:33:48.001Z</time>
      </trkpt>
      <trkpt lat="46.25233" lon="10.52024">
        <ele>1322.7895796647</ele>
        <time>2018-09-22T04:34:10.000Z</time>
      </trkpt>
      <trkpt lat="46.25235" lon="10.52037">
        <ele>1328.4866999845</ele>
        <time>2018-09-22T04:34:55.990Z</time>
      </trkpt>
      <trkpt lat="46.25231" lon="10.5205">
        <ele>1330.3385826772</ele>
        <time>2018-09-22T04:35:08.000Z</time>
      </trkpt>
      <trkpt lat="46.25224" lon="10.52058">
        <ele>1331</ele>
        <time>2018-09-22T04:35:18.986Z</time>
      </trkpt>
      <trkpt lat="46.25217" lon="10.52067">
        <ele>1331</ele>
        <time>2018-09-22T04:35:27.986Z</time>
      </trkpt>
      <trkpt lat="46.25214" lon="10.52082">
        <ele>1332.99000064</ele>
        <time>2018-09-22T04:35:41.000Z</time>
      </trkpt>
      <trkpt lat="46.25211" lon="10.52096">
        <ele>1333.885262153</ele>
        <time>2018-09-22T04:35:50.000Z</time>
      </trkpt>
      <trkpt lat="46.25204" lon="10.52087">
        <ele>1334.7847845334</ele>
        <time>2018-09-22T04:35:59.000Z</time>
      </trkpt>
      <trkpt lat="46.25204" lon="10.52073">
        <ele>1336.5858589646</ele>
        <time>2018-09-22T04:36:09.000Z</time>
      </trkpt>
      <trkpt lat="46.25204" lon="10.52059">
        <ele>1337.8932133217</ele>
        <time>2018-09-22T04:36:20.000Z</time>
      </trkpt>
      <trkpt lat="46.25208" lon="10.52046">
        <ele>1338</ele>
        <time>2018-09-22T04:36:31.000Z</time>
      </trkpt>
      <trkpt lat="46.25213" lon="10.52034">
        <ele>1339</ele>
        <time>2018-09-22T04:36:43.000Z</time>
      </trkpt>
      <trkpt lat="46.25213" lon="10.52021">
        <ele>1339.0304361739</ele>
        <time>2018-09-22T04:36:52.000Z</time>
      </trkpt>
      <trkpt lat="46.25205" lon="10.52029">
        <ele>1349.3936066555</ele>
        <time>2018-09-22T04:38:05.000Z</time>
      </trkpt>
      <trkpt lat="46.25198" lon="10.52039">
        <ele>1351.3469385724</ele>
        <time>2018-09-22T04:38:18.000Z</time>
      </trkpt>
      <trkpt lat="46.25188" lon="10.52037">
        <ele>1352.6761706387</ele>
        <time>2018-09-22T04:38:28.000Z</time>
      </trkpt>
      <trkpt lat="46.25181" lon="10.52028">
        <ele>1354.5829967067</ele>
        <time>2018-09-22T04:38:39.000Z</time>
      </trkpt>
      <trkpt lat="46.2518" lon="10.52015">
        <ele>1358.7917093765</ele>
        <time>2018-09-22T04:39:09.000Z</time>
      </trkpt>
      <trkpt lat="46.25171" lon="10.52013">
        <ele>1360.1868133273</ele>
        <time>2018-09-22T04:39:17.000Z</time>
      </trkpt>
      <trkpt lat="46.25178" lon="10.51996">
        <ele>1362.18599936</ele>
        <time>2018-09-22T04:39:27.000Z</time>
      </trkpt>
      <trkpt lat="46.25184" lon="10.51987">
        <ele>1364.6905971092</ele>
        <time>2018-09-22T04:39:48.000Z</time>
      </trkpt>
      <trkpt lat="46.25188" lon="10.51973">
        <ele>1367.1948055768</ele>
        <time>2018-09-22T04:40:03.000Z</time>
      </trkpt>
      <trkpt lat="46.25189" lon="10.51959">
        <ele>1368</ele>
        <time>2018-09-22T04:40:17.000Z</time>
      </trkpt>
      <trkpt lat="46.25182" lon="10.51949">
        <ele>1368</ele>
        <time>2018-09-22T04:40:25.000Z</time>
      </trkpt>
      <trkpt lat="46.25192" lon="10.51943">
        <ele>1368</ele>
        <time>2018-09-22T04:40:30.988Z</time>
      </trkpt>
      <trkpt lat="46.25204" lon="10.51941">
        <ele>1365.9283582774</ele>
        <time>2018-09-22T04:40:38.000Z</time>
      </trkpt>
      <trkpt lat="46.25203" lon="10.51928">
        <ele>1364.9079210506</ele>
        <time>2018-09-22T04:40:52.000Z</time>
      </trkpt>
      <trkpt lat="46.25204" lon="10.5191">
        <ele>1364.1630653592</ele>
        <time>2018-09-22T04:41:02.000Z</time>
      </trkpt>
      <trkpt lat="46.25211" lon="10.51902">
        <ele>1365.9312371356</ele>
        <time>2018-09-22T04:41:11.000Z</time>
      </trkpt>
      <trkpt lat="46.25214" lon="10.51889">
        <ele>1366</ele>
        <time>2018-09-22T04:41:24.988Z</time>
      </trkpt>
      <trkpt lat="46.25217" lon="10.51902">
        <ele>1372.0564684639</ele>
        <time>2018-09-22T04:42:02.000Z</time>
      </trkpt>
      <trkpt lat="46.2521" lon="10.51909">
        <ele>1372.7751538233</ele>
        <time>2018-09-22T04:42:09.000Z</time>
      </trkpt>
      <trkpt lat="46.25202" lon="10.51918">
        <ele>1373</ele>
        <time>2018-09-22T04:42:20.000Z</time>
      </trkpt>
      <trkpt lat="46.25199" lon="10.51931">
        <ele>1375.6810602768</ele>
        <time>2018-09-22T04:42:38.000Z</time>
      </trkpt>
      <trkpt lat="46.25195" lon="10.51943">
        <ele>1376.7852077697</ele>
        <time>2018-09-22T04:42:49.000Z</time>
      </trkpt>
      <trkpt lat="46.25199" lon="10.51955">
        <ele>1377</ele>
        <time>2018-09-22T04:43:10.000Z</time>
      </trkpt>
      <trkpt lat="46.25204" lon="10.51966">
        <ele>1377</ele>
        <time>2018-09-22T04:43:17.000Z</time>
      </trkpt>
      <trkpt lat="46.25199" lon="10.51951">
        <ele>1377</ele>
        <time>2018-09-22T04:43:35.000Z</time>
      </trkpt>
      <trkpt lat="46.25192" lon="10.5194">
        <ele>1377</ele>
        <time>2018-09-22T04:43:39.000Z</time>
      </trkpt>
      <trkpt lat="46.25182" lon="10.51933">
        <ele>1377</ele>
        <time>2018-09-22T04:43:49.000Z</time>
      </trkpt>
      <trkpt lat="46.25175" lon="10.51923">
        <ele>1380.5786748961</ele>
        <time>2018-09-22T04:44:47.000Z</time>
      </trkpt>
      <trkpt lat="46.25171" lon="10.51911">
        <ele>1383.0516522314</ele>
        <time>2018-09-22T04:45:02.000Z</time>
      </trkpt>
      <trkpt lat="46.25166" lon="10.51899">
        <ele>1384.7686108772</ele>
        <time>2018-09-22T04:45:15.000Z</time>
      </trkpt>
      <trkpt lat="46.25162" lon="10.51887">
        <ele>1387.3843067263</ele>
        <time>2018-09-22T04:45:28.000Z</time>
      </trkpt>
      <trkpt lat="46.25168" lon="10.51875">
        <ele>1391.9828804779</ele>
        <time>2018-09-22T04:45:56.000Z</time>
      </trkpt>
      <trkpt lat="46.2516" lon="10.51868">
        <ele>1393.389221947</ele>
        <time>2018-09-22T04:46:03.000Z</time>
      </trkpt>
      <trkpt lat="46.25155" lon="10.51855">
        <ele>1395.69369404</ele>
        <time>2018-09-22T04:46:18.000Z</time>
      </trkpt>
      <trkpt lat="46.2515" lon="10.51844">
        <ele>1403.69400064</ele>
        <time>2018-09-22T04:46:58.000Z</time>
      </trkpt>
      <trkpt lat="46.2514" lon="10.51847">
        <ele>1406.207408888</ele>
        <time>2018-09-22T04:47:17.101Z</time>
      </trkpt>
      <trkpt lat="46.25136" lon="10.51834">
        <ele>1408.3765892063</ele>
        <time>2018-09-22T04:47:27.998Z</time>
      </trkpt>
      <trkpt lat="46.25128" lon="10.5184">
        <ele>1411.3749010116</ele>
        <time>2018-09-22T04:47:43.027Z</time>
      </trkpt>
      <trkpt lat="46.25117" lon="10.51835">
        <ele>1416.98599936</ele>
        <time>2018-09-22T04:48:11.000Z</time>
      </trkpt>
      <trkpt lat="46.25113" lon="10.51823">
        <ele>1420.78540032</ele>
        <time>2018-09-22T04:48:34.987Z</time>
      </trkpt>
      <trkpt lat="46.25104" lon="10.51825">
        <ele>1425.7817473016</ele>
        <time>2018-09-22T04:49:05.000Z</time>
      </trkpt>
      <trkpt lat="46.25098" lon="10.51814">
        <ele>1428.3704144636</ele>
        <time>2018-09-22T04:49:23.018Z</time>
      </trkpt>
      <trkpt lat="46.25089" lon="10.51818">
        <ele>1435</ele>
        <time>2018-09-22T04:49:54.000Z</time>
      </trkpt>
      <trkpt lat="46.25084" lon="10.5183">
        <ele>1443.40840192</ele>
        <time>2018-09-22T04:50:43.102Z</time>
      </trkpt>
      <trkpt lat="46.25076" lon="10.51837">
        <ele>1448.5773199685</ele>
        <time>2018-09-22T04:51:09.000Z</time>
      </trkpt>
      <trkpt lat="46.25069" lon="10.51826">
        <ele>1451.7932066718</ele>
        <time>2018-09-22T04:51:29.000Z</time>
      </trkpt>
      <trkpt lat="46.25059" lon="10.51818">
        <ele>1454.1668347604</ele>
        <time>2018-09-22T04:51:45.000Z</time>
      </trkpt>
      <trkpt lat="46.25059" lon="10.51831">
        <ele>1459.1761930159</ele>
        <time>2018-09-22T04:52:06.988Z</time>
      </trkpt>
      <trkpt lat="46.2505" lon="10.51833">
        <ele>1463.583418753</ele>
        <time>2018-09-22T04:52:29.000Z</time>
      </trkpt>
      <trkpt lat="46.25045" lon="10.51822">
        <ele>1467.5814199419</ele>
        <time>2018-09-22T04:52:53.000Z</time>
      </trkpt>
      <trkpt lat="46.25038" lon="10.51831">
        <ele>1477.7755717099</ele>
        <time>2018-09-22T04:53:50.000Z</time>
      </trkpt>
      <trkpt lat="46.25032" lon="10.51841">
        <ele>1481.5804123181</ele>
        <time>2018-09-22T04:54:17.000Z</time>
      </trkpt>
      <trkpt lat="46.25025" lon="10.51831">
        <ele>1483.9451517948</ele>
        <time>2018-09-22T04:54:31.000Z</time>
      </trkpt>
      <trkpt lat="46.25021" lon="10.51819">
        <ele>1488.1755102041</ele>
        <time>2018-09-22T04:54:53.000Z</time>
      </trkpt>
      <trkpt lat="46.25014" lon="10.51828">
        <ele>1492.383686891</ele>
        <time>2018-09-22T04:55:18.000Z</time>
      </trkpt>
      <trkpt lat="46.25009" lon="10.51816">
        <ele>1495.3852291482</ele>
        <time>2018-09-22T04:55:33.000Z</time>
      </trkpt>
      <trkpt lat="46.25" lon="10.51813">
        <ele>1501.58599936</ele>
        <time>2018-09-22T04:56:09.000Z</time>
      </trkpt>
      <trkpt lat="46.2499" lon="10.51816">
        <ele>1506.7921683534</ele>
        <time>2018-09-22T04:56:39.000Z</time>
      </trkpt>
      <trkpt lat="46.24981" lon="10.51816">
        <ele>1510.18599936</ele>
        <time>2018-09-22T04:57:07.000Z</time>
      </trkpt>
      <trkpt lat="46.24973" lon="10.51804">
        <ele>1511.9535783078</ele>
        <time>2018-09-22T04:57:16.000Z</time>
      </trkpt>
      <trkpt lat="46.24974" lon="10.51791">
        <ele>1515</ele>
        <time>2018-09-22T04:57:35.988Z</time>
      </trkpt>
      <trkpt lat="46.24973" lon="10.51808">
        <ele>1516.4909459902</ele>
        <time>2018-09-22T04:57:56.000Z</time>
      </trkpt>
      <trkpt lat="46.24966" lon="10.51799">
        <ele>1518.78800128</ele>
        <time>2018-09-22T04:58:10.000Z</time>
      </trkpt>
      <trkpt lat="46.24959" lon="10.5179">
        <ele>1520.98820096</ele>
        <time>2018-09-22T04:58:21.001Z</time>
      </trkpt>
      <trkpt lat="46.24953" lon="10.51777">
        <ele>1525.7900496334</ele>
        <time>2018-09-22T04:58:49.000Z</time>
      </trkpt>
      <trkpt lat="46.2495" lon="10.51762">
        <ele>1529.8920279662</ele>
        <time>2018-09-22T04:59:10.000Z</time>
      </trkpt>
      <trkpt lat="46.24949" lon="10.51749">
        <ele>1530.8867929805</ele>
        <time>2018-09-22T04:59:20.000Z</time>
      </trkpt>
      <trkpt lat="46.24948" lon="10.51736">
        <ele>1531</ele>
        <time>2018-09-22T04:59:30.988Z</time>
      </trkpt>
      <trkpt lat="46.24948" lon="10.5172">
        <ele>1531.9908906419</ele>
        <time>2018-09-22T04:59:40.991Z</time>
      </trkpt>
      <trkpt lat="46.24956" lon="10.51713">
        <ele>1532.6933872182</ele>
        <time>2018-09-22T04:59:48.000Z</time>
      </trkpt>
      <trkpt lat="46.24965" lon="10.517">
        <ele>1533</ele>
        <time>2018-09-22T04:59:54.000Z</time>
      </trkpt>
      <trkpt lat="46.24974" lon="10.5169">
        <ele>1533</ele>
        <time>2018-09-22T04:59:58.000Z</time>
      </trkpt>
      <trkpt lat="46.2499" lon="10.51691">
        <ele>1533</ele>
        <time>2018-09-22T05:00:12.000Z</time>
      </trkpt>
      <trkpt lat="46.25002" lon="10.51687">
        <ele>1533</ele>
        <time>2018-09-22T05:00:14.000Z</time>
      </trkpt>
      <trkpt lat="46.2499" lon="10.51713">
        <ele>1533</ele>
        <time>2018-09-22T05:00:21.000Z</time>
      </trkpt>
      <trkpt lat="46.24973" lon="10.51718">
        <ele>1532.8223938224</ele>
        <time>2018-09-22T05:00:22.000Z</time>
      </trkpt>
      <trkpt lat="46.24963" lon="10.5172">
        <ele>1532.4362934363</ele>
        <time>2018-09-22T05:00:24.000Z</time>
      </trkpt>
      <trkpt lat="46.24957" lon="10.51709">
        <ele>1530.2016626705</ele>
        <time>2018-09-22T05:00:34.000Z</time>
      </trkpt>
      <trkpt lat="46.24953" lon="10.51696">
        <ele>1527.212786689</ele>
        <time>2018-09-22T05:00:45.000Z</time>
      </trkpt>
      <trkpt lat="46.24951" lon="10.51682">
        <ele>1526</ele>
        <time>2018-09-22T05:00:54.000Z</time>
      </trkpt>
      <trkpt lat="46.24958" lon="10.51673">
        <ele>1527.3791042799</ele>
        <time>2018-09-22T05:01:08.000Z</time>
      </trkpt>
      <trkpt lat="46.24963" lon="10.51661">
        <ele>1529.59299968</ele>
        <time>2018-09-22T05:01:27.000Z</time>
      </trkpt>
      <trkpt lat="46.24971" lon="10.51653">
        <ele>1530.39299968</ele>
        <time>2018-09-22T05:01:35.000Z</time>
      </trkpt>
      <trkpt lat="46.24979" lon="10.51647">
        <ele>1531.5865865096</ele>
        <time>2018-09-22T05:01:44.000Z</time>
      </trkpt>
      <trkpt lat="46.24986" lon="10.51638">
        <ele>1534.5722774988</ele>
        <time>2018-09-22T05:01:59.000Z</time>
      </trkpt>
      <trkpt lat="46.24997" lon="10.51638">
        <ele>1535</ele>
        <time>2018-09-22T05:02:09.000Z</time>
      </trkpt>
      <trkpt lat="46.25007" lon="10.51637">
        <ele>1535</ele>
        <time>2018-09-22T05:02:18.000Z</time>
      </trkpt>
      <trkpt lat="46.25014" lon="10.51627">
        <ele>1534.5078081356</ele>
        <time>2018-09-22T05:02:25.987Z</time>
      </trkpt>
      <trkpt lat="46.25022" lon="10.51619">
        <ele>1533.2143559037</ele>
        <time>2018-09-22T05:02:35.000Z</time>
      </trkpt>
      <trkpt lat="46.25031" lon="10.51616">
        <ele>1530.8246490904</ele>
        <time>2018-09-22T05:02:45.000Z</time>
      </trkpt>
      <trkpt lat="46.25038" lon="10.51605">
        <ele>1528.0400375159</ele>
        <time>2018-09-22T05:02:52.988Z</time>
      </trkpt>
      <trkpt lat="46.25048" lon="10.51598">
        <ele>1524.5305278371</ele>
        <time>2018-09-22T05:03:00.000Z</time>
      </trkpt>
      <trkpt lat="46.25053" lon="10.51583">
        <ele>1524</ele>
        <time>2018-09-22T05:03:08.000Z</time>
      </trkpt>
      <trkpt lat="46.25055" lon="10.51569">
        <ele>1524</ele>
        <time>2018-09-22T05:03:18.000Z</time>
      </trkpt>
      <trkpt lat="46.2506" lon="10.51558">
        <ele>1524</ele>
        <time>2018-09-22T05:03:26.988Z</time>
      </trkpt>
      <trkpt lat="46.25057" lon="10.51545">
        <ele>1524.570736124</ele>
        <time>2018-09-22T05:03:37.000Z</time>
      </trkpt>
      <trkpt lat="46.25055" lon="10.51532">
        <ele>1525</ele>
        <time>2018-09-22T05:03:42.001Z</time>
      </trkpt>
      <trkpt lat="46.25056" lon="10.51519">
        <ele>1525</ele>
        <time>2018-09-22T05:03:49.000Z</time>
      </trkpt>
      <trkpt lat="46.25059" lon="10.51505">
        <ele>1525</ele>
        <time>2018-09-22T05:03:57.000Z</time>
      </trkpt>
      <trkpt lat="46.25058" lon="10.51487">
        <ele>1525.69369404</ele>
        <time>2018-09-22T05:04:08.000Z</time>
      </trkpt>
      <trkpt lat="46.25052" lon="10.51478">
        <ele>1526</ele>
        <time>2018-09-22T05:04:12.000Z</time>
      </trkpt>
      <trkpt lat="46.25052" lon="10.51463">
        <ele>1526</ele>
        <time>2018-09-22T05:04:20.000Z</time>
      </trkpt>
      <trkpt lat="46.25045" lon="10.51452">
        <ele>1526.69400064</ele>
        <time>2018-09-22T05:04:28.000Z</time>
      </trkpt>
      <trkpt lat="46.25048" lon="10.51439">
        <ele>1527</ele>
        <time>2018-09-22T05:04:36.000Z</time>
      </trkpt>
      <trkpt lat="46.25043" lon="10.51429">
        <ele>1527</ele>
        <time>2018-09-22T05:04:43.000Z</time>
      </trkpt>
      <trkpt lat="46.25042" lon="10.51414">
        <ele>1527.19400064</ele>
        <time>2018-09-22T05:04:53.000Z</time>
      </trkpt>
      <trkpt lat="46.25043" lon="10.51401">
        <ele>1527.89400064</ele>
        <time>2018-09-22T05:05:00.000Z</time>
      </trkpt>
      <trkpt lat="46.25041" lon="10.51388">
        <ele>1528</ele>
        <time>2018-09-22T05:05:08.000Z</time>
      </trkpt>
      <trkpt lat="46.25039" lon="10.51372">
        <ele>1528</ele>
        <time>2018-09-22T05:05:17.000Z</time>
      </trkpt>
      <trkpt lat="46.25036" lon="10.51359">
        <ele>1528.49400064</ele>
        <time>2018-09-22T05:05:26.000Z</time>
      </trkpt>
      <trkpt lat="46.2504" lon="10.51346">
        <ele>1529.4935066596</ele>
        <time>2018-09-22T05:05:36.000Z</time>
      </trkpt>
      <trkpt lat="46.25035" lon="10.51332">
        <ele>1530.39299968</ele>
        <time>2018-09-22T05:05:45.000Z</time>
      </trkpt>
      <trkpt lat="46.25032" lon="10.51317">
        <ele>1531.091896917</ele>
        <time>2018-09-22T05:05:52.000Z</time>
      </trkpt>
      <trkpt lat="46.25028" lon="10.51305">
        <ele>1531.882410751</ele>
        <time>2018-09-22T05:06:00.000Z</time>
      </trkpt>
      <trkpt lat="46.25024" lon="10.51293">
        <ele>1532</ele>
        <time>2018-09-22T05:06:08.000Z</time>
      </trkpt>
      <trkpt lat="46.2502" lon="10.51281">
        <ele>1532.4910464329</ele>
        <time>2018-09-22T05:06:16.001Z</time>
      </trkpt>
      <trkpt lat="46.25019" lon="10.51268">
        <ele>1533</ele>
        <time>2018-09-22T05:06:23.000Z</time>
      </trkpt>
      <trkpt lat="46.25018" lon="10.51254">
        <ele>1533</ele>
        <time>2018-09-22T05:06:30.000Z</time>
      </trkpt>
      <trkpt lat="46.25022" lon="10.5124">
        <ele>1533</ele>
        <time>2018-09-22T05:06:35.986Z</time>
      </trkpt>
      <trkpt lat="46.25023" lon="10.51226">
        <ele>1533</ele>
        <time>2018-09-22T05:06:42.000Z</time>
      </trkpt>
      <trkpt lat="46.25018" lon="10.51215">
        <ele>1533</ele>
        <time>2018-09-22T05:06:53.000Z</time>
      </trkpt>
      <trkpt lat="46.2501" lon="10.51206">
        <ele>1533.3915661257</ele>
        <time>2018-09-22T05:07:05.000Z</time>
      </trkpt>
      <trkpt lat="46.25005" lon="10.51194">
        <ele>1534</ele>
        <time>2018-09-22T05:07:12.000Z</time>
      </trkpt>
      <trkpt lat="46.25007" lon="10.51179">
        <ele>1534</ele>
        <time>2018-09-22T05:07:18.000Z</time>
      </trkpt>
      <trkpt lat="46.25007" lon="10.51165">
        <ele>1533.6145743995</ele>
        <time>2018-09-22T05:07:24.988Z</time>
      </trkpt>
      <trkpt lat="46.25007" lon="10.51152">
        <ele>1533</ele>
        <time>2018-09-22T05:07:33.000Z</time>
      </trkpt>
      <trkpt lat="46.25007" lon="10.51139">
        <ele>1533</ele>
        <time>2018-09-22T05:07:40.000Z</time>
      </trkpt>
      <trkpt lat="46.25001" lon="10.51128">
        <ele>1533.69369404</ele>
        <time>2018-09-22T05:07:48.000Z</time>
      </trkpt>
      <trkpt lat="46.24991" lon="10.51122">
        <ele>1533.0349514346</ele>
        <time>2018-09-22T05:08:01.000Z</time>
      </trkpt>
      <trkpt lat="46.24983" lon="10.51115">
        <ele>1533</ele>
        <time>2018-09-22T05:08:08.000Z</time>
      </trkpt>
      <trkpt lat="46.24976" lon="10.51107">
        <ele>1533</ele>
        <time>2018-09-22T05:08:14.000Z</time>
      </trkpt>
      <trkpt lat="46.24969" lon="10.51098">
        <ele>1533</ele>
        <time>2018-09-22T05:08:20.000Z</time>
      </trkpt>
      <trkpt lat="46.24965" lon="10.51084">
        <ele>1532.5240844553</ele>
        <time>2018-09-22T05:08:26.000Z</time>
      </trkpt>
      <trkpt lat="46.24959" lon="10.51072">
        <ele>1532.0423891839</ele>
        <time>2018-09-22T05:08:31.000Z</time>
      </trkpt>
      <trkpt lat="46.24955" lon="10.51059">
        <ele>1532</ele>
        <time>2018-09-22T05:08:37.988Z</time>
      </trkpt>
      <trkpt lat="46.24952" lon="10.51046">
        <ele>1532.89289984</ele>
        <time>2018-09-22T05:08:49.999Z</time>
      </trkpt>
      <trkpt lat="46.24949" lon="10.51033">
        <ele>1533.7926936146</ele>
        <time>2018-09-22T05:08:58.989Z</time>
      </trkpt>
      <trkpt lat="46.24946" lon="10.5102">
        <ele>1534</ele>
        <time>2018-09-22T05:09:06.989Z</time>
      </trkpt>
      <trkpt lat="46.24948" lon="10.51006">
        <ele>1534</ele>
        <time>2018-09-22T05:09:14.000Z</time>
      </trkpt>
      <trkpt lat="46.24948" lon="10.50991">
        <ele>1533.9066528201</ele>
        <time>2018-09-22T05:09:22.000Z</time>
      </trkpt>
      <trkpt lat="46.24945" lon="10.50978">
        <ele>1533.1122141451</ele>
        <time>2018-09-22T05:09:30.000Z</time>
      </trkpt>
      <trkpt lat="46.24937" lon="10.5097">
        <ele>1533.6911467582</ele>
        <time>2018-09-22T05:09:38.000Z</time>
      </trkpt>
      <trkpt lat="46.24929" lon="10.50965">
        <ele>1534</ele>
        <time>2018-09-22T05:09:47.000Z</time>
      </trkpt>
      <trkpt lat="46.2492" lon="10.50959">
        <ele>1534</ele>
        <time>2018-09-22T05:09:55.000Z</time>
      </trkpt>
      <trkpt lat="46.24911" lon="10.50964">
        <ele>1534</ele>
        <time>2018-09-22T05:10:01.989Z</time>
      </trkpt>
      <trkpt lat="46.24901" lon="10.50964">
        <ele>1534</ele>
        <time>2018-09-22T05:10:12.000Z</time>
      </trkpt>
      <trkpt lat="46.24891" lon="10.50961">
        <ele>1534</ele>
        <time>2018-09-22T05:10:21.000Z</time>
      </trkpt>
      <trkpt lat="46.24883" lon="10.50953">
        <ele>1534</ele>
        <time>2018-09-22T05:10:26.000Z</time>
      </trkpt>
      <trkpt lat="46.24876" lon="10.50945">
        <ele>1534</ele>
        <time>2018-09-22T05:10:32.000Z</time>
      </trkpt>
      <trkpt lat="46.24866" lon="10.50935">
        <ele>1534</ele>
        <time>2018-09-22T05:10:42.000Z</time>
      </trkpt>
      <trkpt lat="46.24859" lon="10.50927">
        <ele>1534.0939066432</ele>
        <time>2018-09-22T05:10:52.000Z</time>
      </trkpt>
      <trkpt lat="46.24851" lon="10.5092">
        <ele>1534.6933066678</ele>
        <time>2018-09-22T05:10:58.000Z</time>
      </trkpt>
      <trkpt lat="46.24845" lon="10.50909">
        <ele>1535</ele>
        <time>2018-09-22T05:11:02.987Z</time>
      </trkpt>
      <trkpt lat="46.24842" lon="10.50894">
        <ele>1535</ele>
        <time>2018-09-22T05:11:09.000Z</time>
      </trkpt>
      <trkpt lat="46.24838" lon="10.50882">
        <ele>1536.5753980952</ele>
        <time>2018-09-22T05:11:19.000Z</time>
      </trkpt>
      <trkpt lat="46.24827" lon="10.50877">
        <ele>1537.0932546032</ele>
        <time>2018-09-22T05:11:32.000Z</time>
      </trkpt>
      <trkpt lat="46.24818" lon="10.50871">
        <ele>1537.8859136508</ele>
        <time>2018-09-22T05:11:39.990Z</time>
      </trkpt>
      <trkpt lat="46.24813" lon="10.5086">
        <ele>1538</ele>
        <time>2018-09-22T05:11:48.990Z</time>
      </trkpt>
      <trkpt lat="46.24807" lon="10.50851">
        <ele>1537.4086909598</ele>
        <time>2018-09-22T05:11:56.989Z</time>
      </trkpt>
      <trkpt lat="46.24799" lon="10.50844">
        <ele>1537</ele>
        <time>2018-09-22T05:12:04.990Z</time>
      </trkpt>
      <trkpt lat="46.24794" lon="10.5083">
        <ele>1536.8160155189</ele>
        <time>2018-09-22T05:12:11.989Z</time>
      </trkpt>
      <trkpt lat="46.24794" lon="10.50814">
        <ele>1535.8128123126</ele>
        <time>2018-09-22T05:12:17.000Z</time>
      </trkpt>
      <trkpt lat="46.24797" lon="10.508">
        <ele>1535</ele>
        <time>2018-09-22T05:12:24.989Z</time>
      </trkpt>
      <trkpt lat="46.2479" lon="10.50792">
        <ele>1535</ele>
        <time>2018-09-22T05:12:35.989Z</time>
      </trkpt>
      <trkpt lat="46.2478" lon="10.50788">
        <ele>1535</ele>
        <time>2018-09-22T05:12:44.000Z</time>
      </trkpt>
      <trkpt lat="46.24771" lon="10.50789">
        <ele>1535</ele>
        <time>2018-09-22T05:12:50.989Z</time>
      </trkpt>
      <trkpt lat="46.24761" lon="10.50788">
        <ele>1535</ele>
        <time>2018-09-22T05:12:58.999Z</time>
      </trkpt>
      <trkpt lat="46.24751" lon="10.50785">
        <ele>1535.4640718333</ele>
        <time>2018-09-22T05:13:06.000Z</time>
      </trkpt>
      <trkpt lat="46.24742" lon="10.50787">
        <ele>1536</ele>
        <time>2018-09-22T05:13:12.989Z</time>
      </trkpt>
      <trkpt lat="46.24733" lon="10.50782">
        <ele>1536</ele>
        <time>2018-09-22T05:13:21.998Z</time>
      </trkpt>
      <trkpt lat="46.24724" lon="10.50778">
        <ele>1536</ele>
        <time>2018-09-22T05:13:27.989Z</time>
      </trkpt>
      <trkpt lat="46.24715" lon="10.50771">
        <ele>1537.162023748</ele>
        <time>2018-09-22T05:13:37.000Z</time>
      </trkpt>
      <trkpt lat="46.24708" lon="10.50762">
        <ele>1538</ele>
        <time>2018-09-22T05:13:43.000Z</time>
      </trkpt>
      <trkpt lat="46.24698" lon="10.50757">
        <ele>1538</ele>
        <time>2018-09-22T05:13:50.000Z</time>
      </trkpt>
      <trkpt lat="46.2469" lon="10.50749">
        <ele>1538</ele>
        <time>2018-09-22T05:13:56.999Z</time>
      </trkpt>
      <trkpt lat="46.24682" lon="10.50738">
        <ele>1538</ele>
        <time>2018-09-22T05:14:07.000Z</time>
      </trkpt>
      <trkpt lat="46.24674" lon="10.5073">
        <ele>1538.29400064</ele>
        <time>2018-09-22T05:14:14.000Z</time>
      </trkpt>
      <trkpt lat="46.24666" lon="10.50722">
        <ele>1539.1938066473</ele>
        <time>2018-09-22T05:14:23.000Z</time>
      </trkpt>
      <trkpt lat="46.24659" lon="10.50713">
        <ele>1539.8887104364</ele>
        <time>2018-09-22T05:14:29.956Z</time>
      </trkpt>
      <trkpt lat="46.24651" lon="10.50706">
        <ele>1540</ele>
        <time>2018-09-22T05:14:38.989Z</time>
      </trkpt>
      <trkpt lat="46.24643" lon="10.50697">
        <ele>1541.5830833702</ele>
        <time>2018-09-22T05:14:48.990Z</time>
      </trkpt>
      <trkpt lat="46.24637" lon="10.50687">
        <ele>1542</ele>
        <time>2018-09-22T05:14:54.990Z</time>
      </trkpt>
      <trkpt lat="46.24628" lon="10.50681">
        <ele>1542.2778305529</ele>
        <time>2018-09-22T05:15:03.990Z</time>
      </trkpt>
      <trkpt lat="46.24621" lon="10.50672">
        <ele>1543.0440245159</ele>
        <time>2018-09-22T05:15:12.000Z</time>
      </trkpt>
      <trkpt lat="46.24613" lon="10.50663">
        <ele>1543.8814469645</ele>
        <time>2018-09-22T05:15:19.989Z</time>
      </trkpt>
      <trkpt lat="46.24606" lon="10.50655">
        <ele>1544</ele>
        <time>2018-09-22T05:15:27.990Z</time>
      </trkpt>
      <trkpt lat="46.24597" lon="10.50648">
        <ele>1544</ele>
        <time>2018-09-22T05:15:36.999Z</time>
      </trkpt>
      <trkpt lat="46.24588" lon="10.50646">
        <ele>1544</ele>
        <time>2018-09-22T05:15:46.999Z</time>
      </trkpt>
      <trkpt lat="46.24578" lon="10.50649">
        <ele>1544.4879961905</ele>
        <time>2018-09-22T05:15:55.989Z</time>
      </trkpt>
      <trkpt lat="46.24569" lon="10.50644">
        <ele>1545</ele>
        <time>2018-09-22T05:16:03.989Z</time>
      </trkpt>
      <trkpt lat="46.24561" lon="10.50636">
        <ele>1545.0486296199</ele>
        <time>2018-09-22T05:16:11.999Z</time>
      </trkpt>
      <trkpt lat="46.24554" lon="10.50626">
        <ele>1545.6566493098</ele>
        <time>2018-09-22T05:16:17.988Z</time>
      </trkpt>
      <trkpt lat="46.24548" lon="10.50616">
        <ele>1546</ele>
        <time>2018-09-22T05:16:25.990Z</time>
      </trkpt>
      <trkpt lat="46.2454" lon="10.50608">
        <ele>1546</ele>
        <time>2018-09-22T05:16:33.000Z</time>
      </trkpt>
      <trkpt lat="46.24532" lon="10.50604">
        <ele>1546</ele>
        <time>2018-09-22T05:16:38.989Z</time>
      </trkpt>
      <trkpt lat="46.24521" lon="10.50603">
        <ele>1546.49299968</ele>
        <time>2018-09-22T05:16:46.000Z</time>
      </trkpt>
      <trkpt lat="46.24512" lon="10.50602">
        <ele>1547.192</ele>
        <time>2018-09-22T05:16:52.990Z</time>
      </trkpt>
      <trkpt lat="46.24503" lon="10.50598">
        <ele>1547.99299968</ele>
        <time>2018-09-22T05:17:01.000Z</time>
      </trkpt>
      <trkpt lat="46.24494" lon="10.50598">
        <ele>1548.8928937509</ele>
        <time>2018-09-22T05:17:09.990Z</time>
      </trkpt>
      <trkpt lat="46.24485" lon="10.50602">
        <ele>1549</ele>
        <time>2018-09-22T05:17:17.000Z</time>
      </trkpt>
      <trkpt lat="46.24475" lon="10.50605">
        <ele>1549</ele>
        <time>2018-09-22T05:17:25.989Z</time>
      </trkpt>
      <trkpt lat="46.24466" lon="10.50612">
        <ele>1549.3765430473</ele>
        <time>2018-09-22T05:17:35.000Z</time>
      </trkpt>
      <trkpt lat="46.24456" lon="10.50618">
        <ele>1550</ele>
        <time>2018-09-22T05:17:43.000Z</time>
      </trkpt>
      <trkpt lat="46.24448" lon="10.50629">
        <ele>1550</ele>
        <time>2018-09-22T05:17:50.000Z</time>
      </trkpt>
      <trkpt lat="46.24441" lon="10.50637">
        <ele>1550</ele>
        <time>2018-09-22T05:17:57.000Z</time>
      </trkpt>
      <trkpt lat="46.24431" lon="10.50642">
        <ele>1550.78800128</ele>
        <time>2018-09-22T05:18:05.000Z</time>
      </trkpt>
      <trkpt lat="46.24421" lon="10.5064">
        <ele>1552</ele>
        <time>2018-09-22T05:18:12.000Z</time>
      </trkpt>
      <trkpt lat="46.2441" lon="10.50638">
        <ele>1552</ele>
        <time>2018-09-22T05:18:21.000Z</time>
      </trkpt>
      <trkpt lat="46.24401" lon="10.50642">
        <ele>1552.7929652676</ele>
        <time>2018-09-22T05:18:29.000Z</time>
      </trkpt>
      <trkpt lat="46.24392" lon="10.50645">
        <ele>1553</ele>
        <time>2018-09-22T05:18:36.000Z</time>
      </trkpt>
      <trkpt lat="46.24383" lon="10.50649">
        <ele>1553.49400064</ele>
        <time>2018-09-22T05:18:46.000Z</time>
      </trkpt>
      <trkpt lat="46.24373" lon="10.50651">
        <ele>1554</ele>
        <time>2018-09-22T05:18:53.000Z</time>
      </trkpt>
      <trkpt lat="46.24366" lon="10.50661">
        <ele>1554</ele>
        <time>2018-09-22T05:19:00.000Z</time>
      </trkpt>
      <trkpt lat="46.24362" lon="10.50674">
        <ele>1554.4915424558</ele>
        <time>2018-09-22T05:19:06.000Z</time>
      </trkpt>
      <trkpt lat="46.24354" lon="10.50682">
        <ele>1555</ele>
        <time>2018-09-22T05:19:14.000Z</time>
      </trkpt>
      <trkpt lat="46.24346" lon="10.50689">
        <ele>1555</ele>
        <time>2018-09-22T05:19:21.000Z</time>
      </trkpt>
      <trkpt lat="46.24336" lon="10.50693">
        <ele>1555.6712330826</ele>
        <time>2018-09-22T05:19:28.000Z</time>
      </trkpt>
      <trkpt lat="46.24327" lon="10.50694">
        <ele>1556</ele>
        <time>2018-09-22T05:19:36.000Z</time>
      </trkpt>
      <trkpt lat="46.24317" lon="10.50691">
        <ele>1556</ele>
        <time>2018-09-22T05:19:43.000Z</time>
      </trkpt>
      <trkpt lat="46.24308" lon="10.50692">
        <ele>1556</ele>
        <time>2018-09-22T05:19:51.000Z</time>
      </trkpt>
      <trkpt lat="46.24299" lon="10.50696">
        <ele>1557.2911643903</ele>
        <time>2018-09-22T05:20:04.000Z</time>
      </trkpt>
      <trkpt lat="46.24293" lon="10.50709">
        <ele>1558.0934399406</ele>
        <time>2018-09-22T05:20:12.000Z</time>
      </trkpt>
      <trkpt lat="46.24288" lon="10.50721">
        <ele>1558.7892645476</ele>
        <time>2018-09-22T05:20:19.000Z</time>
      </trkpt>
      <trkpt lat="46.24281" lon="10.5073">
        <ele>1559</ele>
        <time>2018-09-22T05:20:27.000Z</time>
      </trkpt>
      <trkpt lat="46.24274" lon="10.50739">
        <ele>1559.5877109968</ele>
        <time>2018-09-22T05:20:36.990Z</time>
      </trkpt>
      <trkpt lat="46.24267" lon="10.50747">
        <ele>1560.489404793</ele>
        <time>2018-09-22T05:20:46.000Z</time>
      </trkpt>
      <trkpt lat="46.24258" lon="10.50753">
        <ele>1561.58800128</ele>
        <time>2018-09-22T05:20:54.000Z</time>
      </trkpt>
      <trkpt lat="46.24248" lon="10.50757">
        <ele>1563.3936066555</ele>
        <time>2018-09-22T05:21:05.000Z</time>
      </trkpt>
      <trkpt lat="46.24239" lon="10.5076">
        <ele>1564</ele>
        <time>2018-09-22T05:21:13.000Z</time>
      </trkpt>
      <trkpt lat="46.24231" lon="10.50766">
        <ele>1564</ele>
        <time>2018-09-22T05:21:22.000Z</time>
      </trkpt>
      <trkpt lat="46.24221" lon="10.50766">
        <ele>1564</ele>
        <time>2018-09-22T05:21:29.000Z</time>
      </trkpt>
      <trkpt lat="46.24212" lon="10.50767">
        <ele>1564</ele>
        <time>2018-09-22T05:21:36.000Z</time>
      </trkpt>
      <trkpt lat="46.24204" lon="10.50773">
        <ele>1564.2928289494</ele>
        <time>2018-09-22T05:21:44.000Z</time>
      </trkpt>
      <trkpt lat="46.24195" lon="10.50768">
        <ele>1564.9900392159</ele>
        <time>2018-09-22T05:21:51.000Z</time>
      </trkpt>
      <trkpt lat="46.24185" lon="10.50772">
        <ele>1565.893574803</ele>
        <time>2018-09-22T05:22:00.000Z</time>
      </trkpt>
      <trkpt lat="46.24178" lon="10.50782">
        <ele>1566.18800128</ele>
        <time>2018-09-22T05:22:12.000Z</time>
      </trkpt>
      <trkpt lat="46.24169" lon="10.50789">
        <ele>1568.39400064</ele>
        <time>2018-09-22T05:22:25.000Z</time>
      </trkpt>
      <trkpt lat="46.24169" lon="10.50803">
        <ele>1568.99400064</ele>
        <time>2018-09-22T05:22:31.000Z</time>
      </trkpt>
      <trkpt lat="46.24164" lon="10.50814">
        <ele>1569.9613153044</ele>
        <time>2018-09-22T05:22:41.000Z</time>
      </trkpt>
      <trkpt lat="46.24155" lon="10.5081">
        <ele>1570.3730571185</ele>
        <time>2018-09-22T05:22:45.000Z</time>
      </trkpt>
      <trkpt lat="46.24146" lon="10.50813">
        <ele>1571.0949054449</ele>
        <time>2018-09-22T05:22:52.000Z</time>
      </trkpt>
      <trkpt lat="46.24136" lon="10.50811">
        <ele>1571.8941064996</ele>
        <time>2018-09-22T05:23:00.000Z</time>
      </trkpt>
      <trkpt lat="46.24127" lon="10.50813">
        <ele>1572.59400064</ele>
        <time>2018-09-22T05:23:07.000Z</time>
      </trkpt>
      <trkpt lat="46.24118" lon="10.50816">
        <ele>1574.180915034</ele>
        <time>2018-09-22T05:23:17.000Z</time>
      </trkpt>
      <trkpt lat="46.24108" lon="10.50817">
        <ele>1576.5855140993</ele>
        <time>2018-09-22T05:23:29.000Z</time>
      </trkpt>
      <trkpt lat="46.24101" lon="10.50825">
        <ele>1577.49400064</ele>
        <time>2018-09-22T05:23:36.000Z</time>
      </trkpt>
      <trkpt lat="46.2409" lon="10.50828">
        <ele>1580.8932533795</ele>
        <time>2018-09-22T05:24:00.000Z</time>
      </trkpt>
      <trkpt lat="46.24083" lon="10.50837">
        <ele>1581.7892645476</ele>
        <time>2018-09-22T05:24:09.000Z</time>
      </trkpt>
      <trkpt lat="46.24075" lon="10.50843">
        <ele>1584.5837520831</ele>
        <time>2018-09-22T05:24:24.000Z</time>
      </trkpt>
      <trkpt lat="46.24066" lon="10.50848">
        <ele>1586</ele>
        <time>2018-09-22T05:24:37.016Z</time>
      </trkpt>
      <trkpt lat="46.24059" lon="10.50856">
        <ele>1588.39299968</ele>
        <time>2018-09-22T05:24:55.000Z</time>
      </trkpt>
      <trkpt lat="46.24056" lon="10.5087">
        <ele>1590.5765411223</ele>
        <time>2018-09-22T05:25:09.000Z</time>
      </trkpt>
      <trkpt lat="46.24047" lon="10.50875">
        <ele>1591.8932533795</ele>
        <time>2018-09-22T05:25:20.000Z</time>
      </trkpt>
      <trkpt lat="46.24039" lon="10.50881">
        <ele>1593.5865865096</ele>
        <time>2018-09-22T05:25:34.000Z</time>
      </trkpt>
      <trkpt lat="46.24032" lon="10.50891">
        <ele>1595.2854373372</ele>
        <time>2018-09-22T05:25:44.000Z</time>
      </trkpt>
      <trkpt lat="46.24023" lon="10.50898">
        <ele>1596.0652395728</ele>
        <time>2018-09-22T05:25:52.000Z</time>
      </trkpt>
      <trkpt lat="46.24016" lon="10.50907">
        <ele>1597</ele>
        <time>2018-09-22T05:26:03.000Z</time>
      </trkpt>
      <trkpt lat="46.24012" lon="10.5092">
        <ele>1597</ele>
        <time>2018-09-22T05:26:11.000Z</time>
      </trkpt>
      <trkpt lat="46.24003" lon="10.50925">
        <ele>1597.2904522199</ele>
        <time>2018-09-22T05:26:14.000Z</time>
      </trkpt>
      <trkpt lat="46.23997" lon="10.50935">
        <ele>1599.7392986904</ele>
        <time>2018-09-22T05:26:30.000Z</time>
      </trkpt>
      <trkpt lat="46.23989" lon="10.5094">
        <ele>1600</ele>
        <time>2018-09-22T05:26:40.000Z</time>
      </trkpt>
      <trkpt lat="46.23981" lon="10.50955">
        <ele>1600.97799936</ele>
        <time>2018-09-22T05:26:46.000Z</time>
      </trkpt>
      <trkpt lat="46.23975" lon="10.50966">
        <ele>1603.9879409733</ele>
        <time>2018-09-22T05:27:01.000Z</time>
      </trkpt>
      <trkpt lat="46.23972" lon="10.5098">
        <ele>1604.2865791204</ele>
        <time>2018-09-22T05:27:14.000Z</time>
      </trkpt>
      <trkpt lat="46.23966" lon="10.50992">
        <ele>1604.5893035433</ele>
        <time>2018-09-22T05:27:17.000Z</time>
      </trkpt>
      <trkpt lat="46.23962" lon="10.51004">
        <ele>1605</ele>
        <time>2018-09-22T05:27:28.000Z</time>
      </trkpt>
      <trkpt lat="46.23956" lon="10.51015">
        <ele>1605</ele>
        <time>2018-09-22T05:27:35.989Z</time>
      </trkpt>
      <trkpt lat="46.23946" lon="10.51023">
        <ele>1605</ele>
        <time>2018-09-22T05:27:46.000Z</time>
      </trkpt>
      <trkpt lat="46.23939" lon="10.51032">
        <ele>1604.7132931674</ele>
        <time>2018-09-22T05:27:53.987Z</time>
      </trkpt>
      <trkpt lat="46.23932" lon="10.5104">
        <ele>1604.107754498</ele>
        <time>2018-09-22T05:28:00.000Z</time>
      </trkpt>
      <trkpt lat="46.23923" lon="10.51046">
        <ele>1604.8863814784</ele>
        <time>2018-09-22T05:28:09.987Z</time>
      </trkpt>
      <trkpt lat="46.23914" lon="10.51051">
        <ele>1605</ele>
        <time>2018-09-22T05:28:19.000Z</time>
      </trkpt>
      <trkpt lat="46.23906" lon="10.51056">
        <ele>1605.9748258061</ele>
        <time>2018-09-22T05:28:25.959Z</time>
      </trkpt>
      <trkpt lat="46.23895" lon="10.51062">
        <ele>1606.9820186156</ele>
        <time>2018-09-22T05:28:31.000Z</time>
      </trkpt>
      <trkpt lat="46.23887" lon="10.5107">
        <ele>1607</ele>
        <time>2018-09-22T05:28:40.000Z</time>
      </trkpt>
      <trkpt lat="46.23883" lon="10.51082">
        <ele>1607</ele>
        <time>2018-09-22T05:28:47.986Z</time>
      </trkpt>
      <trkpt lat="46.23877" lon="10.51093">
        <ele>1606.2565341356</ele>
        <time>2018-09-22T05:28:54.990Z</time>
      </trkpt>
      <trkpt lat="46.23868" lon="10.51099">
        <ele>1605.0538066974</ele>
        <time>2018-09-22T05:29:01.996Z</time>
      </trkpt>
      <trkpt lat="46.23863" lon="10.5111">
        <ele>1605.9916579798</ele>
        <time>2018-09-22T05:29:10.990Z</time>
      </trkpt>
      <trkpt lat="46.23855" lon="10.51124">
        <ele>1607</ele>
        <time>2018-09-22T05:29:22.000Z</time>
      </trkpt>
      <trkpt lat="46.23846" lon="10.51137">
        <ele>1607</ele>
        <time>2018-09-22T05:29:30.000Z</time>
      </trkpt>
      <trkpt lat="46.23835" lon="10.5114">
        <ele>1607.19400064</ele>
        <time>2018-09-22T05:29:33.000Z</time>
      </trkpt>
      <trkpt lat="46.23825" lon="10.51141">
        <ele>1608.0928858904</ele>
        <time>2018-09-22T05:29:42.000Z</time>
      </trkpt>
      <trkpt lat="46.23817" lon="10.51146">
        <ele>1608.7845846203</ele>
        <time>2018-09-22T05:29:49.000Z</time>
      </trkpt>
      <trkpt lat="46.23809" lon="10.51154">
        <ele>1609</ele>
        <time>2018-09-22T05:29:57.990Z</time>
      </trkpt>
      <trkpt lat="46.23817" lon="10.51161">
        <ele>1606.0266679424</ele>
        <time>2018-09-22T05:30:25.988Z</time>
      </trkpt>
      <trkpt lat="46.23823" lon="10.51171">
        <ele>1604.1626308218</ele>
        <time>2018-09-22T05:30:33.998Z</time>
      </trkpt>
      <trkpt lat="46.23829" lon="10.51181">
        <ele>1601.9098960235</ele>
        <time>2018-09-22T05:30:41.988Z</time>
      </trkpt>
      <trkpt lat="46.23836" lon="10.51192">
        <ele>1600.4332627761</ele>
        <time>2018-09-22T05:30:49.002Z</time>
      </trkpt>
      <trkpt lat="46.2384" lon="10.51206">
        <ele>1599.3079925118</ele>
        <time>2018-09-22T05:30:57.987Z</time>
      </trkpt>
      <trkpt lat="46.23848" lon="10.51215">
        <ele>1599.692492197</ele>
        <time>2018-09-22T05:31:07.988Z</time>
      </trkpt>
      <trkpt lat="46.23856" lon="10.51221">
        <ele>1600</ele>
        <time>2018-09-22T05:31:16.988Z</time>
      </trkpt>
      <trkpt lat="46.23861" lon="10.51209">
        <ele>1602.38800128</ele>
        <time>2018-09-22T05:31:38.000Z</time>
      </trkpt>
      <trkpt lat="46.2387" lon="10.51205">
        <ele>1604.5864133437</ele>
        <time>2018-09-22T05:31:49.000Z</time>
      </trkpt>
      <trkpt lat="46.23879" lon="10.512">
        <ele>1606.5875884726</ele>
        <time>2018-09-22T05:31:59.000Z</time>
      </trkpt>
      <trkpt lat="46.23887" lon="10.51212">
        <ele>1608.131013349</ele>
        <time>2018-09-22T05:32:12.000Z</time>
      </trkpt>
      <trkpt lat="46.23895" lon="10.51219">
        <ele>1610.9782477271</ele>
        <time>2018-09-22T05:32:25.987Z</time>
      </trkpt>
      <trkpt lat="46.239" lon="10.51206">
        <ele>1613.294411309</ele>
        <time>2018-09-22T05:32:44.000Z</time>
      </trkpt>
      <trkpt lat="46.23908" lon="10.51215">
        <ele>1615.772961446</ele>
        <time>2018-09-22T05:32:59.988Z</time>
      </trkpt>
      <trkpt lat="46.23918" lon="10.51218">
        <ele>1616.6918434455</ele>
        <time>2018-09-22T05:33:08.000Z</time>
      </trkpt>
      <trkpt lat="46.23926" lon="10.51211">
        <ele>1619.5864133437</ele>
        <time>2018-09-22T05:33:29.000Z</time>
      </trkpt>
      <trkpt lat="46.23936" lon="10.51204">
        <ele>1620</ele>
        <time>2018-09-22T05:33:40.000Z</time>
      </trkpt>
      <trkpt lat="46.23946" lon="10.51205">
        <ele>1620</ele>
        <time>2018-09-22T05:33:46.000Z</time>
      </trkpt>
      <trkpt lat="46.23952" lon="10.51195">
        <ele>1617.3199177915</ele>
        <time>2018-09-22T05:34:00.000Z</time>
      </trkpt>
      <trkpt lat="46.23961" lon="10.51191">
        <ele>1617.69400064</ele>
        <time>2018-09-22T05:34:08.000Z</time>
      </trkpt>
      <trkpt lat="46.23968" lon="10.51182">
        <ele>1618</ele>
        <time>2018-09-22T05:34:15.000Z</time>
      </trkpt>
      <trkpt lat="46.23976" lon="10.51178">
        <ele>1618</ele>
        <time>2018-09-22T05:34:22.000Z</time>
      </trkpt>
      <trkpt lat="46.23983" lon="10.51167">
        <ele>1618</ele>
        <time>2018-09-22T05:34:27.997Z</time>
      </trkpt>
      <trkpt lat="46.23996" lon="10.51165">
        <ele>1617.4101819355</ele>
        <time>2018-09-22T05:34:37.000Z</time>
      </trkpt>
      <trkpt lat="46.24005" lon="10.51161">
        <ele>1617</ele>
        <time>2018-09-22T05:34:48.987Z</time>
      </trkpt>
      <trkpt lat="46.24016" lon="10.51154">
        <ele>1614.31799808</ele>
        <time>2018-09-22T05:35:00.000Z</time>
      </trkpt>
      <trkpt lat="46.24026" lon="10.51148">
        <ele>1613.10599936</ele>
        <time>2018-09-22T05:35:10.000Z</time>
      </trkpt>
      <trkpt lat="46.24036" lon="10.51146">
        <ele>1611.6216476277</ele>
        <time>2018-09-22T05:35:18.000Z</time>
      </trkpt>
      <trkpt lat="46.24043" lon="10.51136">
        <ele>1608.637827195</ele>
        <time>2018-09-22T05:35:27.000Z</time>
      </trkpt>
      <trkpt lat="46.24053" lon="10.51133">
        <ele>1606.6079083319</ele>
        <time>2018-09-22T05:35:34.987Z</time>
      </trkpt>
      <trkpt lat="46.24062" lon="10.51133">
        <ele>1606.0060053711</ele>
        <time>2018-09-22T05:35:41.000Z</time>
      </trkpt>
      <trkpt lat="46.24071" lon="10.51128">
        <ele>1603.9251022469</ele>
        <time>2018-09-22T05:35:48.004Z</time>
      </trkpt>
      <trkpt lat="46.24081" lon="10.51127">
        <ele>1603.5917593649</ele>
        <time>2018-09-22T05:35:56.988Z</time>
      </trkpt>
      <trkpt lat="46.24091" lon="10.51126">
        <ele>1604.2947057086</ele>
        <time>2018-09-22T05:36:04.000Z</time>
      </trkpt>
      <trkpt lat="46.24099" lon="10.51119">
        <ele>1605</ele>
        <time>2018-09-22T05:36:14.000Z</time>
      </trkpt>
      <trkpt lat="46.24109" lon="10.51121">
        <ele>1606.98800128</ele>
        <time>2018-09-22T05:36:31.000Z</time>
      </trkpt>
      <trkpt lat="46.24118" lon="10.5112">
        <ele>1607.6921237273</ele>
        <time>2018-09-22T05:36:38.002Z</time>
      </trkpt>
      <trkpt lat="46.24127" lon="10.51119">
        <ele>1609.0050147258</ele>
        <time>2018-09-22T05:36:46.100Z</time>
      </trkpt>
      <trkpt lat="46.24133" lon="10.51129">
        <ele>1610</ele>
        <time>2018-09-22T05:36:52.395Z</time>
      </trkpt>
      <trkpt lat="46.24126" lon="10.51141">
        <ele>1610</ele>
        <time>2018-09-22T05:36:59.000Z</time>
      </trkpt>
      <trkpt lat="46.24119" lon="10.5115">
        <ele>1610.577443892</ele>
        <time>2018-09-22T05:37:03.997Z</time>
      </trkpt>
      <trkpt lat="46.2411" lon="10.51157">
        <ele>1612.3936066555</ele>
        <time>2018-09-22T05:37:15.000Z</time>
      </trkpt>
      <trkpt lat="46.24102" lon="10.51165">
        <ele>1613</ele>
        <time>2018-09-22T05:37:25.000Z</time>
      </trkpt>
      <trkpt lat="46.24093" lon="10.51171">
        <ele>1613.3921769764</ele>
        <time>2018-09-22T05:37:35.000Z</time>
      </trkpt>
      <trkpt lat="46.24085" lon="10.51177">
        <ele>1614.29400064</ele>
        <time>2018-09-22T05:37:44.000Z</time>
      </trkpt>
      <trkpt lat="46.24075" lon="10.5118">
        <ele>1615.18800128</ele>
        <time>2018-09-22T05:37:52.000Z</time>
      </trkpt>
      <trkpt lat="46.24068" lon="10.51188">
        <ele>1617.78800128</ele>
        <time>2018-09-22T05:38:05.000Z</time>
      </trkpt>
      <trkpt lat="46.24059" lon="10.51199">
        <ele>1619</ele>
        <time>2018-09-22T05:38:20.000Z</time>
      </trkpt>
      <trkpt lat="46.24049" lon="10.51201">
        <ele>1619.8662796899</ele>
        <time>2018-09-22T05:38:30.000Z</time>
      </trkpt>
      <trkpt lat="46.2404" lon="10.51199">
        <ele>1620.5341496098</ele>
        <time>2018-09-22T05:38:34.000Z</time>
      </trkpt>
      <trkpt lat="46.24034" lon="10.51208">
        <ele>1622.5886527306</ele>
        <time>2018-09-22T05:38:47.000Z</time>
      </trkpt>
      <trkpt lat="46.24025" lon="10.51214">
        <ele>1623.78800128</ele>
        <time>2018-09-22T05:38:55.000Z</time>
      </trkpt>
      <trkpt lat="46.24016" lon="10.51217">
        <ele>1625.2919568486</ele>
        <time>2018-09-22T05:39:04.000Z</time>
      </trkpt>
      <trkpt lat="46.24006" lon="10.51216">
        <ele>1626.2890235775</ele>
        <time>2018-09-22T05:39:14.000Z</time>
      </trkpt>
      <trkpt lat="46.23996" lon="10.51219">
        <ele>1627.39400064</ele>
        <time>2018-09-22T05:39:25.000Z</time>
      </trkpt>
      <trkpt lat="46.23989" lon="10.51228">
        <ele>1628.69400064</ele>
        <time>2018-09-22T05:39:38.000Z</time>
      </trkpt>
      <trkpt lat="46.23981" lon="10.51239">
        <ele>1630.9566941732</ele>
        <time>2018-09-22T05:39:51.000Z</time>
      </trkpt>
      <trkpt lat="46.23972" lon="10.51244">
        <ele>1631.8922770732</ele>
        <time>2018-09-22T05:40:00.000Z</time>
      </trkpt>
      <trkpt lat="46.23966" lon="10.51254">
        <ele>1632.7861387494</ele>
        <time>2018-09-22T05:40:09.000Z</time>
      </trkpt>
      <trkpt lat="46.23959" lon="10.51265">
        <ele>1634.58800128</ele>
        <time>2018-09-22T05:40:24.000Z</time>
      </trkpt>
      <trkpt lat="46.23953" lon="10.51276">
        <ele>1636</ele>
        <time>2018-09-22T05:40:36.000Z</time>
      </trkpt>
      <trkpt lat="46.23945" lon="10.51268">
        <ele>1638.18860032</ele>
        <time>2018-09-22T05:40:52.003Z</time>
      </trkpt>
      <trkpt lat="46.2395" lon="10.51257">
        <ele>1640.5869564117</ele>
        <time>2018-09-22T05:41:07.000Z</time>
      </trkpt>
      <trkpt lat="46.2396" lon="10.5125">
        <ele>1641.7898988541</ele>
        <time>2018-09-22T05:41:19.000Z</time>
      </trkpt>
      <trkpt lat="46.2397" lon="10.51244">
        <ele>1642.9939886134</ele>
        <time>2018-09-22T05:41:31.000Z</time>
      </trkpt>
      <trkpt lat="46.23979" lon="10.5124">
        <ele>1644.5387609302</ele>
        <time>2018-09-22T05:41:39.000Z</time>
      </trkpt>
      <trkpt lat="46.23986" lon="10.51249">
        <ele>1645.2694214876</ele>
        <time>2018-09-22T05:41:43.988Z</time>
      </trkpt>
      <trkpt lat="46.23995" lon="10.51246">
        <ele>1646</ele>
        <time>2018-09-22T05:41:54.000Z</time>
      </trkpt>
      <trkpt lat="46.24004" lon="10.5124">
        <ele>1646.4851055773</ele>
        <time>2018-09-22T05:42:05.988Z</time>
      </trkpt>
      <trkpt lat="46.24013" lon="10.51242">
        <ele>1648.5833984</ele>
        <time>2018-09-22T05:42:18.987Z</time>
      </trkpt>
      <trkpt lat="46.24022" lon="10.51239">
        <ele>1649.69179904</ele>
        <time>2018-09-22T05:42:27.988Z</time>
      </trkpt>
      <trkpt lat="46.2403" lon="10.51246">
        <ele>1650.2920914118</ele>
        <time>2018-09-22T05:42:33.988Z</time>
      </trkpt>
      <trkpt lat="46.24033" lon="10.51232">
        <ele>1651.3853040285</ele>
        <time>2018-09-22T05:42:43.000Z</time>
      </trkpt>
      <trkpt lat="46.24042" lon="10.51226">
        <ele>1653.5650364244</ele>
        <time>2018-09-22T05:42:53.958Z</time>
      </trkpt>
      <trkpt lat="46.24052" lon="10.51225">
        <ele>1655.5907264516</ele>
        <time>2018-09-22T05:43:07.000Z</time>
      </trkpt>
      <trkpt lat="46.24063" lon="10.51225">
        <ele>1656.39400064</ele>
        <time>2018-09-22T05:43:15.000Z</time>
      </trkpt>
      <trkpt lat="46.24072" lon="10.51229">
        <ele>1657.89400064</ele>
        <time>2018-09-22T05:43:30.000Z</time>
      </trkpt>
      <trkpt lat="46.24082" lon="10.51226">
        <ele>1659.1750750781</ele>
        <time>2018-09-22T05:43:37.000Z</time>
      </trkpt>
      <trkpt lat="46.24092" lon="10.51229">
        <ele>1660.3853119451</ele>
        <time>2018-09-22T05:43:45.000Z</time>
      </trkpt>
      <trkpt lat="46.24101" lon="10.51226">
        <ele>1661.4875375354</ele>
        <time>2018-09-22T05:43:56.000Z</time>
      </trkpt>
      <trkpt lat="46.24109" lon="10.51234">
        <ele>1662</ele>
        <time>2018-09-22T05:44:04.000Z</time>
      </trkpt>
      <trkpt lat="46.24118" lon="10.5124">
        <ele>1662.2869906536</ele>
        <time>2018-09-22T05:44:14.000Z</time>
      </trkpt>
      <trkpt lat="46.24128" lon="10.5124">
        <ele>1663.2854248232</ele>
        <time>2018-09-22T05:44:24.000Z</time>
      </trkpt>
      <trkpt lat="46.24138" lon="10.51246">
        <ele>1664.29290112</ele>
        <time>2018-09-22T05:44:33.989Z</time>
      </trkpt>
      <trkpt lat="46.24147" lon="10.51248">
        <ele>1666.3106712564</ele>
        <time>2018-09-22T05:44:48.000Z</time>
      </trkpt>
      <trkpt lat="46.24156" lon="10.51253">
        <ele>1667.4622746737</ele>
        <time>2018-09-22T05:44:56.000Z</time>
      </trkpt>
      <trkpt lat="46.24166" lon="10.51253">
        <ele>1669.58800128</ele>
        <time>2018-09-22T05:45:09.000Z</time>
      </trkpt>
      <trkpt lat="46.24174" lon="10.51259">
        <ele>1670.7884810205</ele>
        <time>2018-09-22T05:45:19.000Z</time>
      </trkpt>
      <trkpt lat="46.24183" lon="10.51267">
        <ele>1671.6876877877</ele>
        <time>2018-09-22T05:45:28.000Z</time>
      </trkpt>
      <trkpt lat="46.24193" lon="10.51264">
        <ele>1672</ele>
        <time>2018-09-22T05:45:41.000Z</time>
      </trkpt>
      <trkpt lat="46.24202" lon="10.51272">
        <ele>1672.9830172973</ele>
        <time>2018-09-22T05:45:51.000Z</time>
      </trkpt>
      <trkpt lat="46.24212" lon="10.51277">
        <ele>1675.5907264516</ele>
        <time>2018-09-22T05:46:07.000Z</time>
      </trkpt>
      <trkpt lat="46.24221" lon="10.51281">
        <ele>1676.9878016</ele>
        <time>2018-09-22T05:46:15.999Z</time>
      </trkpt>
      <trkpt lat="46.24231" lon="10.51279">
        <ele>1678</ele>
        <time>2018-09-22T05:46:30.000Z</time>
      </trkpt>
      <trkpt lat="46.24239" lon="10.51281">
        <ele>1678.5916333493</ele>
        <time>2018-09-22T05:46:37.000Z</time>
      </trkpt>
      <trkpt lat="46.24249" lon="10.51283">
        <ele>1679.4895100066</ele>
        <time>2018-09-22T05:46:46.000Z</time>
      </trkpt>
      <trkpt lat="46.2426" lon="10.51286">
        <ele>1680.5757570829</ele>
        <time>2018-09-22T05:46:57.000Z</time>
      </trkpt>
      <trkpt lat="46.2427" lon="10.51289">
        <ele>1681.2695031598</ele>
        <time>2018-09-22T05:47:04.000Z</time>
      </trkpt>
      <trkpt lat="46.24278" lon="10.51296">
        <ele>1681.8774064866</ele>
        <time>2018-09-22T05:47:10.000Z</time>
      </trkpt>
      <trkpt lat="46.24287" lon="10.51302">
        <ele>1683.59400064</ele>
        <time>2018-09-22T05:47:27.000Z</time>
      </trkpt>
      <trkpt lat="46.24295" lon="10.51311">
        <ele>1684.3937063957</ele>
        <time>2018-09-22T05:47:35.001Z</time>
      </trkpt>
      <trkpt lat="46.24305" lon="10.51314">
        <ele>1685.970778589</ele>
        <time>2018-09-22T05:47:45.987Z</time>
      </trkpt>
      <trkpt lat="46.24314" lon="10.51319">
        <ele>1687</ele>
        <time>2018-09-22T05:47:58.000Z</time>
      </trkpt>
      <trkpt lat="46.24324" lon="10.51319">
        <ele>1688.9876174159</ele>
        <time>2018-09-22T05:48:11.000Z</time>
      </trkpt>
      <trkpt lat="46.24333" lon="10.51316">
        <ele>1690.78800128</ele>
        <time>2018-09-22T05:48:25.000Z</time>
      </trkpt>
      <trkpt lat="46.24343" lon="10.51322">
        <ele>1692.5844939423</ele>
        <time>2018-09-22T05:48:34.000Z</time>
      </trkpt>
      <trkpt lat="46.24354" lon="10.5132">
        <ele>1694</ele>
        <time>2018-09-22T05:48:44.000Z</time>
      </trkpt>
      <trkpt lat="46.24365" lon="10.5132">
        <ele>1695.38738808</ele>
        <time>2018-09-22T05:48:58.000Z</time>
      </trkpt>
      <trkpt lat="46.24375" lon="10.51318">
        <ele>1696</ele>
        <time>2018-09-22T05:49:08.000Z</time>
      </trkpt>
      <trkpt lat="46.24385" lon="10.51322">
        <ele>1697.59120128</ele>
        <time>2018-09-22T05:49:19.016Z</time>
      </trkpt>
      <trkpt lat="46.24394" lon="10.51319">
        <ele>1699</ele>
        <time>2018-09-22T05:49:34.986Z</time>
      </trkpt>
      <trkpt lat="46.24404" lon="10.51316">
        <ele>1699.7751477871</ele>
        <time>2018-09-22T05:49:45.000Z</time>
      </trkpt>
      <trkpt lat="46.24413" lon="10.51319">
        <ele>1701.3801403762</ele>
        <time>2018-09-22T05:49:55.000Z</time>
      </trkpt>
      <trkpt lat="46.24422" lon="10.51311">
        <ele>1702.5685470968</ele>
        <time>2018-09-22T05:50:04.000Z</time>
      </trkpt>
      <trkpt lat="46.24432" lon="10.51308">
        <ele>1703.9798374193</ele>
        <time>2018-09-22T05:50:11.000Z</time>
      </trkpt>
      <trkpt lat="46.24439" lon="10.51298">
        <ele>1705.1856292627</ele>
        <time>2018-09-22T05:50:27.000Z</time>
      </trkpt>
      <trkpt lat="46.24446" lon="10.51289">
        <ele>1706.6926924708</ele>
        <time>2018-09-22T05:50:38.000Z</time>
      </trkpt>
      <trkpt lat="46.24455" lon="10.51292">
        <ele>1708.7690463492</ele>
        <time>2018-09-22T05:50:49.986Z</time>
      </trkpt>
      <trkpt lat="46.24464" lon="10.51291">
        <ele>1709.6898082969</ele>
        <time>2018-09-22T05:50:57.986Z</time>
      </trkpt>
      <trkpt lat="46.24471" lon="10.51299">
        <ele>1710.4785444793</ele>
        <time>2018-09-22T05:51:05.989Z</time>
      </trkpt>
      <trkpt lat="46.2448" lon="10.51304">
        <ele>1711</ele>
        <time>2018-09-22T05:51:14.989Z</time>
      </trkpt>
      <trkpt lat="46.24489" lon="10.51312">
        <ele>1711.29400064</ele>
        <time>2018-09-22T05:51:24.000Z</time>
      </trkpt>
      <trkpt lat="46.24498" lon="10.51312">
        <ele>1712.18960128</ele>
        <time>2018-09-22T05:51:32.956Z</time>
      </trkpt>
      <trkpt lat="46.24506" lon="10.51304">
        <ele>1713.1931008</ele>
        <time>2018-09-22T05:51:42.991Z</time>
      </trkpt>
      <trkpt lat="46.24517" lon="10.51307">
        <ele>1714</ele>
        <time>2018-09-22T05:51:54.000Z</time>
      </trkpt>
      <trkpt lat="46.24529" lon="10.51312">
        <ele>1714.2706843104</ele>
        <time>2018-09-22T05:52:04.000Z</time>
      </trkpt>
      <trkpt lat="46.24537" lon="10.51321">
        <ele>1714.8824320808</ele>
        <time>2018-09-22T05:52:09.989Z</time>
      </trkpt>
      <trkpt lat="46.24546" lon="10.51332">
        <ele>1715</ele>
        <time>2018-09-22T05:52:19.001Z</time>
      </trkpt>
      <trkpt lat="46.24555" lon="10.51332">
        <ele>1715</ele>
        <time>2018-09-22T05:52:29.000Z</time>
      </trkpt>
      <trkpt lat="46.24564" lon="10.51342">
        <ele>1715.78800128</ele>
        <time>2018-09-22T05:52:35.000Z</time>
      </trkpt>
      <trkpt lat="46.24571" lon="10.51351">
        <ele>1717.0896952672</ele>
        <time>2018-09-22T05:52:42.000Z</time>
      </trkpt>
      <trkpt lat="46.24579" lon="10.51357">
        <ele>1718.0872111628</ele>
        <time>2018-09-22T05:52:51.990Z</time>
      </trkpt>
      <trkpt lat="46.24587" lon="10.51365">
        <ele>1720</ele>
        <time>2018-09-22T05:53:01.986Z</time>
      </trkpt>
      <trkpt lat="46.24597" lon="10.51365">
        <ele>1721.184986444</ele>
        <time>2018-09-22T05:53:16.989Z</time>
      </trkpt>
      <trkpt lat="46.24606" lon="10.5137">
        <ele>1722.2879846553</ele>
        <time>2018-09-22T05:53:23.960Z</time>
      </trkpt>
      <trkpt lat="46.24615" lon="10.51373">
        <ele>1723.2890235775</ele>
        <time>2018-09-22T05:53:34.000Z</time>
      </trkpt>
      <trkpt lat="46.24622" lon="10.51381">
        <ele>1723.9939583465</ele>
        <time>2018-09-22T05:53:41.000Z</time>
      </trkpt>
      <trkpt lat="46.24631" lon="10.51384">
        <ele>1726.0939066432</ele>
        <time>2018-09-22T05:53:52.000Z</time>
      </trkpt>
      <trkpt lat="46.2464" lon="10.51383">
        <ele>1727.19159936</ele>
        <time>2018-09-22T05:54:02.986Z</time>
      </trkpt>
      <trkpt lat="46.2465" lon="10.51382">
        <ele>1728.1866860056</ele>
        <time>2018-09-22T05:54:12.991Z</time>
      </trkpt>
      <trkpt lat="46.2466" lon="10.51388">
        <ele>1728.8678328063</ele>
        <time>2018-09-22T05:54:20.000Z</time>
      </trkpt>
      <trkpt lat="46.24667" lon="10.51395">
        <ele>1729.7766792494</ele>
        <time>2018-09-22T05:54:28.987Z</time>
      </trkpt>
      <trkpt lat="46.24675" lon="10.51401">
        <ele>1731.7827935647</ele>
        <time>2018-09-22T05:54:39.987Z</time>
      </trkpt>
      <trkpt lat="46.24679" lon="10.51413">
        <ele>1734.2887124206</ele>
        <time>2018-09-22T05:54:53.986Z</time>
      </trkpt>
      <trkpt lat="46.24678" lon="10.51427">
        <ele>1736.5813971547</ele>
        <time>2018-09-22T05:55:08.990Z</time>
      </trkpt>
      <trkpt lat="46.24676" lon="10.5144">
        <ele>1741.78540032</ele>
        <time>2018-09-22T05:55:39.987Z</time>
      </trkpt>
      <trkpt lat="46.24668" lon="10.51448">
        <ele>1743.7859863749</ele>
        <time>2018-09-22T05:55:54.986Z</time>
      </trkpt>
      <trkpt lat="46.24659" lon="10.51453">
        <ele>1746.27810048</ele>
        <time>2018-09-22T05:56:11.987Z</time>
      </trkpt>
      <trkpt lat="46.24651" lon="10.51458">
        <ele>1749.49270016</ele>
        <time>2018-09-22T05:56:25.987Z</time>
      </trkpt>
      <trkpt lat="46.24642" lon="10.51461">
        <ele>1751.58840064</ele>
        <time>2018-09-22T05:56:44.002Z</time>
      </trkpt>
      <trkpt lat="46.24634" lon="10.51466">
        <ele>1754.98540032</ele>
        <time>2018-09-22T05:57:00.987Z</time>
      </trkpt>
      <trkpt lat="46.24625" lon="10.51469">
        <ele>1756.4860178993</ele>
        <time>2018-09-22T05:57:15.987Z</time>
      </trkpt>
      <trkpt lat="46.24616" lon="10.51473">
        <ele>1758.3437438312</ele>
        <time>2018-09-22T05:57:27.987Z</time>
      </trkpt>
      <trkpt lat="46.24607" lon="10.51474">
        <ele>1760.5873139308</ele>
        <time>2018-09-22T05:57:46.986Z</time>
      </trkpt>
      <trkpt lat="46.24598" lon="10.51472">
        <ele>1764</ele>
        <time>2018-09-22T05:58:01.986Z</time>
      </trkpt>
      <trkpt lat="46.24589" lon="10.51478">
        <ele>1765.18800128</ele>
        <time>2018-09-22T05:58:22.000Z</time>
      </trkpt>
      <trkpt lat="46.2458" lon="10.5148">
        <ele>1767.70420096</ele>
        <time>2018-09-22T05:58:38.102Z</time>
      </trkpt>
      <trkpt lat="46.24571" lon="10.51483">
        <ele>1769.58540032</ele>
        <time>2018-09-22T05:58:48.987Z</time>
      </trkpt>
      <trkpt lat="46.24562" lon="10.51484">
        <ele>1772.2076087681</ele>
        <time>2018-09-22T05:59:07.102Z</time>
      </trkpt>
      <trkpt lat="46.24553" lon="10.51484">
        <ele>1775.39300096</ele>
        <time>2018-09-22T05:59:24.990Z</time>
      </trkpt>
      <trkpt lat="46.24544" lon="10.51484">
        <ele>1778.69400064</ele>
        <time>2018-09-22T05:59:48.000Z</time>
      </trkpt>
      <trkpt lat="46.24535" lon="10.51491">
        <ele>1781.9860133601</ele>
        <time>2018-09-22T06:00:11.000Z</time>
      </trkpt>
      <trkpt lat="46.24525" lon="10.51496">
        <ele>1784.2897386171</ele>
        <time>2018-09-22T06:00:24.000Z</time>
      </trkpt>
      <trkpt lat="46.24516" lon="10.51502">
        <ele>1785.1817333745</ele>
        <time>2018-09-22T06:00:32.990Z</time>
      </trkpt>
      <trkpt lat="46.24508" lon="10.51507">
        <ele>1785.9359699068</ele>
        <time>2018-09-22T06:00:41.000Z</time>
      </trkpt>
      <trkpt lat="46.24498" lon="10.51509">
        <ele>1788.1827654139</ele>
        <time>2018-09-22T06:00:52.002Z</time>
      </trkpt>
      <trkpt lat="46.24491" lon="10.51519">
        <ele>1791.29400064</ele>
        <time>2018-09-22T06:01:14.000Z</time>
      </trkpt>
      <trkpt lat="46.24484" lon="10.51528">
        <ele>1797.18540032</ele>
        <time>2018-09-22T06:01:46.987Z</time>
      </trkpt>
      <trkpt lat="46.24481" lon="10.51541">
        <ele>1799.1859306052</ele>
        <time>2018-09-22T06:02:03.017Z</time>
      </trkpt>
      <trkpt lat="46.24477" lon="10.51552">
        <ele>1801.9277682779</ele>
        <time>2018-09-22T06:02:20.988Z</time>
      </trkpt>
      <trkpt lat="46.24473" lon="10.51564">
        <ele>1808.98540032</ele>
        <time>2018-09-22T06:02:50.987Z</time>
      </trkpt>
      <trkpt lat="46.24473" lon="10.51578">
        <ele>1811.78820096</ele>
        <time>2018-09-22T06:03:10.001Z</time>
      </trkpt>
      <trkpt lat="46.24473" lon="10.51592">
        <ele>1815.79300096</ele>
        <time>2018-09-22T06:03:28.990Z</time>
      </trkpt>
      <trkpt lat="46.24473" lon="10.51605">
        <ele>1818.2647656116</ele>
        <time>2018-09-22T06:03:53.960Z</time>
      </trkpt>
      <trkpt lat="46.24473" lon="10.51618">
        <ele>1820.7836045779</ele>
        <time>2018-09-22T06:04:09.991Z</time>
      </trkpt>
      <trkpt lat="46.24467" lon="10.51629">
        <ele>1823.98800128</ele>
        <time>2018-09-22T06:04:31.000Z</time>
      </trkpt>
      <trkpt lat="46.24461" lon="10.51639">
        <ele>1825.2836882192</ele>
        <time>2018-09-22T06:04:43.990Z</time>
      </trkpt>
      <trkpt lat="46.24459" lon="10.51653">
        <ele>1827.38800128</ele>
        <time>2018-09-22T06:04:58.000Z</time>
      </trkpt>
      <trkpt lat="46.24453" lon="10.51663">
        <ele>1829.3723170703</ele>
        <time>2018-09-22T06:05:13.016Z</time>
      </trkpt>
      <trkpt lat="46.24446" lon="10.51671">
        <ele>1832.9819101968</ele>
        <time>2018-09-22T06:05:30.990Z</time>
      </trkpt>
      <trkpt lat="46.2444" lon="10.51681">
        <ele>1834.89300096</ele>
        <time>2018-09-22T06:05:49.990Z</time>
      </trkpt>
      <trkpt lat="46.24433" lon="10.51689">
        <ele>1839.5851719985</ele>
        <time>2018-09-22T06:06:08.990Z</time>
      </trkpt>
      <trkpt lat="46.24424" lon="10.51695">
        <ele>1843.1843688557</ele>
        <time>2018-09-22T06:06:32.000Z</time>
      </trkpt>
      <trkpt lat="46.24416" lon="10.51702">
        <ele>1847.9793024</ele>
        <time>2018-09-22T06:06:50.991Z</time>
      </trkpt>
      <trkpt lat="46.24408" lon="10.51708">
        <ele>1849.5762008025</ele>
        <time>2018-09-22T06:07:07.000Z</time>
      </trkpt>
      <trkpt lat="46.24401" lon="10.51717">
        <ele>1852.9283498698</ele>
        <time>2018-09-22T06:07:40.991Z</time>
      </trkpt>
      <trkpt lat="46.24392" lon="10.51722">
        <ele>1855.39300096</ele>
        <time>2018-09-22T06:07:54.990Z</time>
      </trkpt>
      <trkpt lat="46.24383" lon="10.51723">
        <ele>1857.98520064</ele>
        <time>2018-09-22T06:08:10.986Z</time>
      </trkpt>
      <trkpt lat="46.24374" lon="10.51728">
        <ele>1859.7757580773</ele>
        <time>2018-09-22T06:08:25.000Z</time>
      </trkpt>
      <trkpt lat="46.24365" lon="10.51729">
        <ele>1862.9842312276</ele>
        <time>2018-09-22T06:08:41.001Z</time>
      </trkpt>
      <trkpt lat="46.24356" lon="10.51732">
        <ele>1866.5740331506</ele>
        <time>2018-09-22T06:08:59.001Z</time>
      </trkpt>
      <trkpt lat="46.24347" lon="10.51734">
        <ele>1870.6928</ele>
        <time>2018-09-22T06:09:27.988Z</time>
      </trkpt>
      <trkpt lat="46.24339" lon="10.51741">
        <ele>1873.292507212</ele>
        <time>2018-09-22T06:09:43.988Z</time>
      </trkpt>
      <trkpt lat="46.24331" lon="10.51747">
        <ele>1877.1881561549</ele>
        <time>2018-09-22T06:10:02.998Z</time>
      </trkpt>
      <trkpt lat="46.24323" lon="10.51751">
        <ele>1880.1654190222</ele>
        <time>2018-09-22T06:10:21.988Z</time>
      </trkpt>
      <trkpt lat="46.24314" lon="10.51756">
        <ele>1884.5815291101</ele>
        <time>2018-09-22T06:10:43.988Z</time>
      </trkpt>
      <trkpt lat="46.24305" lon="10.51761">
        <ele>1888</ele>
        <time>2018-09-22T06:11:06.990Z</time>
      </trkpt>
      <trkpt lat="46.24298" lon="10.51768">
        <ele>1891.3842144567</ele>
        <time>2018-09-22T06:11:27.988Z</time>
      </trkpt>
      <trkpt lat="46.24289" lon="10.51774">
        <ele>1895.18800128</ele>
        <time>2018-09-22T06:11:47.000Z</time>
      </trkpt>
      <trkpt lat="46.2428" lon="10.51779">
        <ele>1896.79300096</ele>
        <time>2018-09-22T06:11:58.990Z</time>
      </trkpt>
      <trkpt lat="46.24271" lon="10.51782">
        <ele>1901.78800128</ele>
        <time>2018-09-22T06:12:20.000Z</time>
      </trkpt>
      <trkpt lat="46.24263" lon="10.51785">
        <ele>1903.5756289468</ele>
        <time>2018-09-22T06:12:33.988Z</time>
      </trkpt>
      <trkpt lat="46.24254" lon="10.51788">
        <ele>1906.5751748718</ele>
        <time>2018-09-22T06:12:48.991Z</time>
      </trkpt>
      <trkpt lat="46.24245" lon="10.51788">
        <ele>1909</ele>
        <time>2018-09-22T06:13:02.998Z</time>
      </trkpt>
      <trkpt lat="46.24237" lon="10.51797">
        <ele>1911.9439357208</ele>
        <time>2018-09-22T06:13:25.990Z</time>
      </trkpt>
      <trkpt lat="46.24231" lon="10.51807">
        <ele>1914.9856</ele>
        <time>2018-09-22T06:13:45.988Z</time>
      </trkpt>
      <trkpt lat="46.24225" lon="10.51816">
        <ele>1916</ele>
        <time>2018-09-22T06:13:59.988Z</time>
      </trkpt>
      <trkpt lat="46.24217" lon="10.51823">
        <ele>1917.78560256</ele>
        <time>2018-09-22T06:14:14.988Z</time>
      </trkpt>
      <trkpt lat="46.24208" lon="10.51829">
        <ele>1921.0918811299</ele>
        <time>2018-09-22T06:14:31.988Z</time>
      </trkpt>
      <trkpt lat="46.242" lon="10.51836">
        <ele>1922.6907078405</ele>
        <time>2018-09-22T06:14:47.998Z</time>
      </trkpt>
      <trkpt lat="46.24192" lon="10.51843">
        <ele>1925</ele>
        <time>2018-09-22T06:15:26.987Z</time>
      </trkpt>
      <trkpt lat="46.24187" lon="10.51855">
        <ele>1925.37955291</ele>
        <time>2018-09-22T06:16:24.988Z</time>
      </trkpt>
      <trkpt lat="46.24186" lon="10.51868">
        <ele>1927.7791774213</ele>
        <time>2018-09-22T06:16:39.989Z</time>
      </trkpt>
      <trkpt lat="46.24194" lon="10.5186">
        <ele>1929</ele>
        <time>2018-09-22T06:16:52.987Z</time>
      </trkpt>
      <trkpt lat="46.24203" lon="10.51866">
        <ele>1929.3897285445</ele>
        <time>2018-09-22T06:17:15.000Z</time>
      </trkpt>
      <trkpt lat="46.24197" lon="10.51877">
        <ele>1929</ele>
        <time>2018-09-22T06:19:00.000Z</time>
      </trkpt>
      <trkpt lat="46.24207" lon="10.5187">
        <ele>1929.50499968</ele>
        <time>2018-09-22T06:19:26.000Z</time>
      </trkpt>
      <trkpt lat="46.24206" lon="10.51883">
        <ele>1929</ele>
        <time>2018-09-22T06:20:43.000Z</time>
      </trkpt>
      <trkpt lat="46.24195" lon="10.51877">
        <ele>1929</ele>
        <time>2018-09-22T06:20:49.000Z</time>
      </trkpt>
      <trkpt lat="46.24202" lon="10.51868">
        <ele>1929</ele>
        <time>2018-09-22T06:20:54.000Z</time>
      </trkpt>
      <trkpt lat="46.24209" lon="10.5186">
        <ele>1930</ele>
        <time>2018-09-22T06:21:32.000Z</time>
      </trkpt>
      <trkpt lat="46.24194" lon="10.51867">
        <ele>1931</ele>
        <time>2018-09-22T06:23:18.000Z</time>
      </trkpt>
      <trkpt lat="46.24203" lon="10.51873">
        <ele>1931</ele>
        <time>2018-09-22T06:23:26.000Z</time>
      </trkpt>
      <trkpt lat="46.24212" lon="10.51864">
        <ele>1930.90599936</ele>
        <time>2018-09-22T06:23:32.000Z</time>
      </trkpt>
      <trkpt lat="46.242" lon="10.51873">
        <ele>1930.59400064</ele>
        <time>2018-09-22T06:27:17.000Z</time>
      </trkpt>
      <trkpt lat="46.24199" lon="10.51854">
        <ele>1931</ele>
        <time>2018-09-22T06:28:06.000Z</time>
      </trkpt>
      <trkpt lat="46.24192" lon="10.51861">
        <ele>1931</ele>
        <time>2018-09-22T06:28:16.989Z</time>
      </trkpt>
      <trkpt lat="46.24185" lon="10.51872">
        <ele>1931</ele>
        <time>2018-09-22T06:28:22.999Z</time>
      </trkpt>
      <trkpt lat="46.24177" lon="10.51878">
        <ele>1930.80599936</ele>
        <time>2018-09-22T06:28:33.000Z</time>
      </trkpt>
      <trkpt lat="46.24168" lon="10.51884">
        <ele>1930.00709888</ele>
        <time>2018-09-22T06:28:40.989Z</time>
      </trkpt>
      <trkpt lat="46.2416" lon="10.51893">
        <ele>1932</ele>
        <time>2018-09-22T06:28:53.000Z</time>
      </trkpt>
      <trkpt lat="46.24154" lon="10.51903">
        <ele>1932</ele>
        <time>2018-09-22T06:29:00.990Z</time>
      </trkpt>
      <trkpt lat="46.24148" lon="10.51913">
        <ele>1932.7699033663</ele>
        <time>2018-09-22T06:29:08.990Z</time>
      </trkpt>
      <trkpt lat="46.24141" lon="10.51922">
        <ele>1933.6761706387</ele>
        <time>2018-09-22T06:29:18.000Z</time>
      </trkpt>
      <trkpt lat="46.24133" lon="10.5193">
        <ele>1934.6902836473</ele>
        <time>2018-09-22T06:29:28.000Z</time>
      </trkpt>
      <trkpt lat="46.24126" lon="10.51938">
        <ele>1935.5871292913</ele>
        <time>2018-09-22T06:29:36.990Z</time>
      </trkpt>
      <trkpt lat="46.2412" lon="10.51949">
        <ele>1937.5722897992</ele>
        <time>2018-09-22T06:29:48.990Z</time>
      </trkpt>
      <trkpt lat="46.24111" lon="10.51953">
        <ele>1938</ele>
        <time>2018-09-22T06:29:59.990Z</time>
      </trkpt>
      <trkpt lat="46.24101" lon="10.51954">
        <ele>1940.18600192</ele>
        <time>2018-09-22T06:30:16.990Z</time>
      </trkpt>
      <trkpt lat="46.24092" lon="10.51957">
        <ele>1943.1850357727</ele>
        <time>2018-09-22T06:30:33.000Z</time>
      </trkpt>
      <trkpt lat="46.24082" lon="10.51958">
        <ele>1944.49300096</ele>
        <time>2018-09-22T06:30:45.990Z</time>
      </trkpt>
      <trkpt lat="46.24073" lon="10.51955">
        <ele>1946.58800128</ele>
        <time>2018-09-22T06:30:59.000Z</time>
      </trkpt>
      <trkpt lat="46.24063" lon="10.51952">
        <ele>1947.89300096</ele>
        <time>2018-09-22T06:31:09.990Z</time>
      </trkpt>
      <trkpt lat="46.24055" lon="10.51946">
        <ele>1949.09270016</ele>
        <time>2018-09-22T06:31:21.987Z</time>
      </trkpt>
      <trkpt lat="46.24046" lon="10.51939">
        <ele>1950.3878016</ele>
        <time>2018-09-22T06:31:32.999Z</time>
      </trkpt>
      <trkpt lat="46.24038" lon="10.51933">
        <ele>1952.3906567694</ele>
        <time>2018-09-22T06:31:44.990Z</time>
      </trkpt>
      <trkpt lat="46.24031" lon="10.51924">
        <ele>1954.3822952964</ele>
        <time>2018-09-22T06:31:57.990Z</time>
      </trkpt>
      <trkpt lat="46.2402" lon="10.51925">
        <ele>1955.89400064</ele>
        <time>2018-09-22T06:32:10.000Z</time>
      </trkpt>
      <trkpt lat="46.24011" lon="10.51929">
        <ele>1956.7708739288</ele>
        <time>2018-09-22T06:32:19.000Z</time>
      </trkpt>
      <trkpt lat="46.24001" lon="10.5193">
        <ele>1957.7876293857</ele>
        <time>2018-09-22T06:32:29.000Z</time>
      </trkpt>
      <trkpt lat="46.23993" lon="10.51935">
        <ele>1959.38800128</ele>
        <time>2018-09-22T06:32:38.000Z</time>
      </trkpt>
      <trkpt lat="46.23984" lon="10.5194">
        <ele>1960.69400064</ele>
        <time>2018-09-22T06:32:48.000Z</time>
      </trkpt>
      <trkpt lat="46.23974" lon="10.51943">
        <ele>1961.69400064</ele>
        <time>2018-09-22T06:32:58.000Z</time>
      </trkpt>
      <trkpt lat="46.23964" lon="10.51949">
        <ele>1963.385231211</ele>
        <time>2018-09-22T06:33:12.990Z</time>
      </trkpt>
      <trkpt lat="46.23955" lon="10.51956">
        <ele>1965.4929862881</ele>
        <time>2018-09-22T06:33:26.000Z</time>
      </trkpt>
      <trkpt lat="46.23946" lon="10.5196">
        <ele>1966.59400064</ele>
        <time>2018-09-22T06:33:37.000Z</time>
      </trkpt>
      <trkpt lat="46.23936" lon="10.51964">
        <ele>1968.18800128</ele>
        <time>2018-09-22T06:33:47.000Z</time>
      </trkpt>
      <trkpt lat="46.23927" lon="10.51962">
        <ele>1969.59300096</ele>
        <time>2018-09-22T06:33:56.990Z</time>
      </trkpt>
      <trkpt lat="46.23917" lon="10.51964">
        <ele>1970.59300096</ele>
        <time>2018-09-22T06:34:06.990Z</time>
      </trkpt>
      <trkpt lat="46.23907" lon="10.51968">
        <ele>1971</ele>
        <time>2018-09-22T06:34:14.999Z</time>
      </trkpt>
      <trkpt lat="46.23898" lon="10.51977">
        <ele>1971</ele>
        <time>2018-09-22T06:34:25.000Z</time>
      </trkpt>
      <trkpt lat="46.2389" lon="10.51983">
        <ele>1972.38800128</ele>
        <time>2018-09-22T06:34:43.000Z</time>
      </trkpt>
      <trkpt lat="46.23889" lon="10.51997">
        <ele>1976</ele>
        <time>2018-09-22T06:35:10.000Z</time>
      </trkpt>
      <trkpt lat="46.23886" lon="10.5201">
        <ele>1981.3693475393</ele>
        <time>2018-09-22T06:35:34.987Z</time>
      </trkpt>
      <trkpt lat="46.23882" lon="10.52023">
        <ele>1982</ele>
        <time>2018-09-22T06:35:46.987Z</time>
      </trkpt>
      <trkpt lat="46.23876" lon="10.52033">
        <ele>1982</ele>
        <time>2018-09-22T06:35:52.989Z</time>
      </trkpt>
      <trkpt lat="46.23866" lon="10.52032">
        <ele>1982</ele>
        <time>2018-09-22T06:36:01.100Z</time>
      </trkpt>
      <trkpt lat="46.23856" lon="10.52028">
        <ele>1982.7781226925</ele>
        <time>2018-09-22T06:36:08.990Z</time>
      </trkpt>
      <trkpt lat="46.23846" lon="10.52021">
        <ele>1983</ele>
        <time>2018-09-22T06:36:18.000Z</time>
      </trkpt>
      <trkpt lat="46.23838" lon="10.52015">
        <ele>1983</ele>
        <time>2018-09-22T06:36:26.000Z</time>
      </trkpt>
      <trkpt lat="46.23829" lon="10.52013">
        <ele>1983.1847709612</ele>
        <time>2018-09-22T06:36:32.989Z</time>
      </trkpt>
      <trkpt lat="46.23819" lon="10.52014">
        <ele>1983.9521067254</ele>
        <time>2018-09-22T06:36:41.000Z</time>
      </trkpt>
      <trkpt lat="46.2381" lon="10.52008">
        <ele>1984</ele>
        <time>2018-09-22T06:36:49.000Z</time>
      </trkpt>
      <trkpt lat="46.23801" lon="10.52003">
        <ele>1985.1844475583</ele>
        <time>2018-09-22T06:36:57.000Z</time>
      </trkpt>
      <trkpt lat="46.23793" lon="10.51999">
        <ele>1986</ele>
        <time>2018-09-22T06:37:05.000Z</time>
      </trkpt>
      <trkpt lat="46.23783" lon="10.51997">
        <ele>1986</ele>
        <time>2018-09-22T06:37:11.000Z</time>
      </trkpt>
      <trkpt lat="46.23774" lon="10.51996">
        <ele>1986</ele>
        <time>2018-09-22T06:37:19.000Z</time>
      </trkpt>
      <trkpt lat="46.23764" lon="10.51996">
        <ele>1986</ele>
        <time>2018-09-22T06:37:27.000Z</time>
      </trkpt>
      <trkpt lat="46.23755" lon="10.51994">
        <ele>1986</ele>
        <time>2018-09-22T06:37:34.000Z</time>
      </trkpt>
      <trkpt lat="46.23749" lon="10.52004">
        <ele>1986</ele>
        <time>2018-09-22T06:37:41.000Z</time>
      </trkpt>
      <trkpt lat="46.23739" lon="10.52004">
        <ele>1986.99300668</ele>
        <time>2018-09-22T06:37:51.000Z</time>
      </trkpt>
      <trkpt lat="46.23731" lon="10.51998">
        <ele>1987</ele>
        <time>2018-09-22T06:37:57.990Z</time>
      </trkpt>
      <trkpt lat="46.23723" lon="10.51989">
        <ele>1987</ele>
        <time>2018-09-22T06:38:04.990Z</time>
      </trkpt>
      <trkpt lat="46.23716" lon="10.51977">
        <ele>1986.90699904</ele>
        <time>2018-09-22T06:38:11.990Z</time>
      </trkpt>
      <trkpt lat="46.23708" lon="10.51971">
        <ele>1986.30699904</ele>
        <time>2018-09-22T06:38:17.990Z</time>
      </trkpt>
      <trkpt lat="46.23699" lon="10.51964">
        <ele>1986</ele>
        <time>2018-09-22T06:38:25.999Z</time>
      </trkpt>
      <trkpt lat="46.23689" lon="10.51964">
        <ele>1986</ele>
        <time>2018-09-22T06:38:34.989Z</time>
      </trkpt>
      <trkpt lat="46.23682" lon="10.51971">
        <ele>1986.5798771781</ele>
        <time>2018-09-22T06:38:46.989Z</time>
      </trkpt>
      <trkpt lat="46.23677" lon="10.51982">
        <ele>1987.29290112</ele>
        <time>2018-09-22T06:38:53.989Z</time>
      </trkpt>
      <trkpt lat="46.23676" lon="10.51996">
        <ele>1988.0916915239</ele>
        <time>2018-09-22T06:39:01.987Z</time>
      </trkpt>
      <trkpt lat="46.23675" lon="10.52011">
        <ele>1988.7840750832</ele>
        <time>2018-09-22T06:39:08.987Z</time>
      </trkpt>
      <trkpt lat="46.23668" lon="10.52018">
        <ele>1989</ele>
        <time>2018-09-22T06:39:16.990Z</time>
      </trkpt>
      <trkpt lat="46.23658" lon="10.52018">
        <ele>1989</ele>
        <time>2018-09-22T06:39:26.000Z</time>
      </trkpt>
      <trkpt lat="46.2365" lon="10.52023">
        <ele>1989</ele>
        <time>2018-09-22T06:39:35.000Z</time>
      </trkpt>
      <trkpt lat="46.23639" lon="10.52027">
        <ele>1989.19400064</ele>
        <time>2018-09-22T06:39:43.000Z</time>
      </trkpt>
      <trkpt lat="46.2363" lon="10.52026">
        <ele>1989.89400064</ele>
        <time>2018-09-22T06:39:50.000Z</time>
      </trkpt>
      <trkpt lat="46.2362" lon="10.52034">
        <ele>1990</ele>
        <time>2018-09-22T06:40:00.000Z</time>
      </trkpt>
      <trkpt lat="46.2361" lon="10.52035">
        <ele>1990</ele>
        <time>2018-09-22T06:40:07.000Z</time>
      </trkpt>
      <trkpt lat="46.23603" lon="10.52044">
        <ele>1990.39270016</ele>
        <time>2018-09-22T06:40:14.987Z</time>
      </trkpt>
      <trkpt lat="46.23597" lon="10.52056">
        <ele>1991</ele>
        <time>2018-09-22T06:40:24.099Z</time>
      </trkpt>
      <trkpt lat="46.2359" lon="10.52066">
        <ele>1991</ele>
        <time>2018-09-22T06:40:31.987Z</time>
      </trkpt>
      <trkpt lat="46.23589" lon="10.52079">
        <ele>1991</ele>
        <time>2018-09-22T06:40:38.000Z</time>
      </trkpt>
      <trkpt lat="46.23587" lon="10.52092">
        <ele>1991</ele>
        <time>2018-09-22T06:40:45.000Z</time>
      </trkpt>
      <trkpt lat="46.23582" lon="10.52104">
        <ele>1991.19400064</ele>
        <time>2018-09-22T06:40:53.000Z</time>
      </trkpt>
      <trkpt lat="46.23572" lon="10.52105">
        <ele>1991.8939008</ele>
        <time>2018-09-22T06:40:59.999Z</time>
      </trkpt>
      <trkpt lat="46.23563" lon="10.52106">
        <ele>1992</ele>
        <time>2018-09-22T06:41:10.000Z</time>
      </trkpt>
      <trkpt lat="46.23553" lon="10.52103">
        <ele>1992.7900496334</ele>
        <time>2018-09-22T06:41:19.000Z</time>
      </trkpt>
      <trkpt lat="46.23542" lon="10.52103">
        <ele>1993</ele>
        <time>2018-09-22T06:41:28.000Z</time>
      </trkpt>
      <trkpt lat="46.23533" lon="10.52104">
        <ele>1993</ele>
        <time>2018-09-22T06:41:36.001Z</time>
      </trkpt>
      <trkpt lat="46.23524" lon="10.52099">
        <ele>1993</ele>
        <time>2018-09-22T06:41:43.000Z</time>
      </trkpt>
      <trkpt lat="46.23512" lon="10.52099">
        <ele>1993</ele>
        <time>2018-09-22T06:41:53.000Z</time>
      </trkpt>
      <trkpt lat="46.23502" lon="10.52098">
        <ele>1993.1858774515</ele>
        <time>2018-09-22T06:42:03.000Z</time>
      </trkpt>
      <trkpt lat="46.23492" lon="10.52097">
        <ele>1994</ele>
        <time>2018-09-22T06:42:12.000Z</time>
      </trkpt>
      <trkpt lat="46.23481" lon="10.52096">
        <ele>1994</ele>
        <time>2018-09-22T06:42:19.000Z</time>
      </trkpt>
      <trkpt lat="46.23471" lon="10.52096">
        <ele>1993.4111111686</ele>
        <time>2018-09-22T06:42:27.000Z</time>
      </trkpt>
      <trkpt lat="46.23461" lon="10.52093">
        <ele>1994.5796806375</ele>
        <time>2018-09-22T06:42:39.000Z</time>
      </trkpt>
      <trkpt lat="46.23452" lon="10.52089">
        <ele>1995</ele>
        <time>2018-09-22T06:42:47.000Z</time>
      </trkpt>
      <trkpt lat="46.23444" lon="10.52081">
        <ele>1994.50589952</ele>
        <time>2018-09-22T06:42:56.000Z</time>
      </trkpt>
      <trkpt lat="46.23434" lon="10.52074">
        <ele>1994</ele>
        <time>2018-09-22T06:43:06.000Z</time>
      </trkpt>
      <trkpt lat="46.23426" lon="10.52082">
        <ele>1994.2845919145</ele>
        <time>2018-09-22T06:43:13.986Z</time>
      </trkpt>
      <trkpt lat="46.23417" lon="10.52084">
        <ele>1994.9909368752</ele>
        <time>2018-09-22T06:43:21.000Z</time>
      </trkpt>
      <trkpt lat="46.23409" lon="10.5209">
        <ele>1995</ele>
        <time>2018-09-22T06:43:27.989Z</time>
      </trkpt>
      <trkpt lat="46.23399" lon="10.52091">
        <ele>1995</ele>
        <time>2018-09-22T06:43:38.000Z</time>
      </trkpt>
      <trkpt lat="46.23394" lon="10.52102">
        <ele>1995</ele>
        <time>2018-09-22T06:43:45.000Z</time>
      </trkpt>
      <trkpt lat="46.23386" lon="10.5211">
        <ele>1995.38605734</ele>
        <time>2018-09-22T06:43:55.000Z</time>
      </trkpt>
      <trkpt lat="46.23377" lon="10.52114">
        <ele>1996</ele>
        <time>2018-09-22T06:44:03.000Z</time>
      </trkpt>
      <trkpt lat="46.23371" lon="10.52125">
        <ele>1996</ele>
        <time>2018-09-22T06:44:10.989Z</time>
      </trkpt>
      <trkpt lat="46.23368" lon="10.52142">
        <ele>1996</ele>
        <time>2018-09-22T06:44:21.000Z</time>
      </trkpt>
      <trkpt lat="46.23369" lon="10.52156">
        <ele>1996.5775839447</ele>
        <time>2018-09-22T06:44:27.000Z</time>
      </trkpt>
      <trkpt lat="46.23369" lon="10.52172">
        <ele>1997</ele>
        <time>2018-09-22T06:44:35.000Z</time>
      </trkpt>
      <trkpt lat="46.23365" lon="10.52186">
        <ele>1997</ele>
        <time>2018-09-22T06:44:41.989Z</time>
      </trkpt>
      <trkpt lat="46.23359" lon="10.52196">
        <ele>1997</ele>
        <time>2018-09-22T06:44:51.000Z</time>
      </trkpt>
      <trkpt lat="46.2335" lon="10.52205">
        <ele>1997</ele>
        <time>2018-09-22T06:45:02.000Z</time>
      </trkpt>
      <trkpt lat="46.23341" lon="10.52208">
        <ele>1997</ele>
        <time>2018-09-22T06:45:09.000Z</time>
      </trkpt>
      <trkpt lat="46.23333" lon="10.52201">
        <ele>1997.69400064</ele>
        <time>2018-09-22T06:45:18.000Z</time>
      </trkpt>
      <trkpt lat="46.23323" lon="10.52199">
        <ele>1998</ele>
        <time>2018-09-22T06:45:26.000Z</time>
      </trkpt>
      <trkpt lat="46.23315" lon="10.52192">
        <ele>1998</ele>
        <time>2018-09-22T06:45:34.990Z</time>
      </trkpt>
      <trkpt lat="46.23306" lon="10.5219">
        <ele>1998</ele>
        <time>2018-09-22T06:45:41.959Z</time>
      </trkpt>
      <trkpt lat="46.23297" lon="10.52183">
        <ele>1998.09400064</ele>
        <time>2018-09-22T06:45:52.000Z</time>
      </trkpt>
      <trkpt lat="46.23288" lon="10.52183">
        <ele>1999</ele>
        <time>2018-09-22T06:46:03.000Z</time>
      </trkpt>
      <trkpt lat="46.2328" lon="10.52174">
        <ele>1999</ele>
        <time>2018-09-22T06:46:10.000Z</time>
      </trkpt>
      <trkpt lat="46.23271" lon="10.52166">
        <ele>1998.50709888</ele>
        <time>2018-09-22T06:46:15.989Z</time>
      </trkpt>
      <trkpt lat="46.23263" lon="10.5216">
        <ele>1998</ele>
        <time>2018-09-22T06:46:24.000Z</time>
      </trkpt>
      <trkpt lat="46.23256" lon="10.52151">
        <ele>1998</ele>
        <time>2018-09-22T06:46:31.000Z</time>
      </trkpt>
      <trkpt lat="46.23248" lon="10.52144">
        <ele>1998.89300096</ele>
        <time>2018-09-22T06:46:39.990Z</time>
      </trkpt>
      <trkpt lat="46.23239" lon="10.52136">
        <ele>1999</ele>
        <time>2018-09-22T06:46:48.000Z</time>
      </trkpt>
      <trkpt lat="46.23232" lon="10.52124">
        <ele>1998.56589952</ele>
        <time>2018-09-22T06:46:55.401Z</time>
      </trkpt>
      <trkpt lat="46.23224" lon="10.52119">
        <ele>1998</ele>
        <time>2018-09-22T06:47:03.000Z</time>
      </trkpt>
      <trkpt lat="46.23216" lon="10.52111">
        <ele>1998</ele>
        <time>2018-09-22T06:47:09.989Z</time>
      </trkpt>
      <trkpt lat="46.23205" lon="10.52105">
        <ele>1998.89400064</ele>
        <time>2018-09-22T06:47:20.000Z</time>
      </trkpt>
      <trkpt lat="46.23196" lon="10.52103">
        <ele>1999</ele>
        <time>2018-09-22T06:47:27.100Z</time>
      </trkpt>
      <trkpt lat="46.23186" lon="10.52105">
        <ele>1999</ele>
        <time>2018-09-22T06:47:36.000Z</time>
      </trkpt>
      <trkpt lat="46.23177" lon="10.5211">
        <ele>1999</ele>
        <time>2018-09-22T06:47:45.000Z</time>
      </trkpt>
      <trkpt lat="46.23168" lon="10.52115">
        <ele>1999.2844130001</ele>
        <time>2018-09-22T06:47:53.990Z</time>
      </trkpt>
      <trkpt lat="46.23159" lon="10.52118">
        <ele>2000</ele>
        <time>2018-09-22T06:48:03.000Z</time>
      </trkpt>
      <trkpt lat="46.23148" lon="10.52115">
        <ele>2000</ele>
        <time>2018-09-22T06:48:11.000Z</time>
      </trkpt>
      <trkpt lat="46.23139" lon="10.52115">
        <ele>2000</ele>
        <time>2018-09-22T06:48:16.990Z</time>
      </trkpt>
      <trkpt lat="46.23129" lon="10.52113">
        <ele>2000.39290112</ele>
        <time>2018-09-22T06:48:24.989Z</time>
      </trkpt>
      <trkpt lat="46.2312" lon="10.52112">
        <ele>2001</ele>
        <time>2018-09-22T06:48:33.996Z</time>
      </trkpt>
      <trkpt lat="46.2311" lon="10.52109">
        <ele>2001</ele>
        <time>2018-09-22T06:48:38.999Z</time>
      </trkpt>
      <trkpt lat="46.23103" lon="10.52119">
        <ele>2001</ele>
        <time>2018-09-22T06:48:44.988Z</time>
      </trkpt>
      <trkpt lat="46.23093" lon="10.52121">
        <ele>2001</ele>
        <time>2018-09-22T06:48:57.000Z</time>
      </trkpt>
      <trkpt lat="46.23083" lon="10.52125">
        <ele>2001</ele>
        <time>2018-09-22T06:49:05.999Z</time>
      </trkpt>
      <trkpt lat="46.23077" lon="10.52135">
        <ele>2001</ele>
        <time>2018-09-22T06:49:13.000Z</time>
      </trkpt>
      <trkpt lat="46.23075" lon="10.52148">
        <ele>2001</ele>
        <time>2018-09-22T06:49:21.000Z</time>
      </trkpt>
      <trkpt lat="46.23065" lon="10.52151">
        <ele>2001</ele>
        <time>2018-09-22T06:49:28.991Z</time>
      </trkpt>
      <trkpt lat="46.23059" lon="10.52162">
        <ele>2001</ele>
        <time>2018-09-22T06:49:38.000Z</time>
      </trkpt>
      <trkpt lat="46.2305" lon="10.52168">
        <ele>2002.3856</ele>
        <time>2018-09-22T06:49:47.988Z</time>
      </trkpt>
      <trkpt lat="46.23041" lon="10.5217">
        <ele>2003</ele>
        <time>2018-09-22T06:49:57.000Z</time>
      </trkpt>
      <trkpt lat="46.23032" lon="10.52178">
        <ele>2003.6892718242</ele>
        <time>2018-09-22T06:50:07.990Z</time>
      </trkpt>
      <trkpt lat="46.23023" lon="10.52181">
        <ele>2004.590457517</ele>
        <time>2018-09-22T06:50:17.000Z</time>
      </trkpt>
      <trkpt lat="46.23013" lon="10.52177">
        <ele>2005</ele>
        <time>2018-09-22T06:50:26.000Z</time>
      </trkpt>
      <trkpt lat="46.23004" lon="10.52174">
        <ele>2005</ele>
        <time>2018-09-22T06:50:31.988Z</time>
      </trkpt>
      <trkpt lat="46.22995" lon="10.52168">
        <ele>2005</ele>
        <time>2018-09-22T06:50:44.000Z</time>
      </trkpt>
      <trkpt lat="46.22985" lon="10.52168">
        <ele>2005.091683427</ele>
        <time>2018-09-22T06:50:51.986Z</time>
      </trkpt>
      <trkpt lat="46.22975" lon="10.52176">
        <ele>2005.9941588948</ele>
        <time>2018-09-22T06:51:01.101Z</time>
      </trkpt>
      <trkpt lat="46.22966" lon="10.52181">
        <ele>2006</ele>
        <time>2018-09-22T06:51:09.000Z</time>
      </trkpt>
      <trkpt lat="46.22956" lon="10.52183">
        <ele>2006</ele>
        <time>2018-09-22T06:51:18.000Z</time>
      </trkpt>
      <trkpt lat="46.22947" lon="10.52179">
        <ele>2006.272165128</ele>
        <time>2018-09-22T06:51:24.000Z</time>
      </trkpt>
      <trkpt lat="46.22939" lon="10.52173">
        <ele>2007</ele>
        <time>2018-09-22T06:51:31.988Z</time>
      </trkpt>
      <trkpt lat="46.22929" lon="10.52166">
        <ele>2007</ele>
        <time>2018-09-22T06:51:40.000Z</time>
      </trkpt>
      <trkpt lat="46.22922" lon="10.52157">
        <ele>2007.691234816</ele>
        <time>2018-09-22T06:51:48.000Z</time>
      </trkpt>
      <trkpt lat="46.22916" lon="10.52145">
        <ele>2008.2883070968</ele>
        <time>2018-09-22T06:52:04.000Z</time>
      </trkpt>
      <trkpt lat="46.22909" lon="10.52136">
        <ele>2009.09400064</ele>
        <time>2018-09-22T06:52:12.000Z</time>
      </trkpt>
      <trkpt lat="46.22901" lon="10.52129">
        <ele>2009.59400064</ele>
        <time>2018-09-22T06:52:17.000Z</time>
      </trkpt>
      <trkpt lat="46.22891" lon="10.52123">
        <ele>2010.38800128</ele>
        <time>2018-09-22T06:52:23.000Z</time>
      </trkpt>
      <trkpt lat="46.22881" lon="10.52122">
        <ele>2012</ele>
        <time>2018-09-22T06:52:32.000Z</time>
      </trkpt>
      <trkpt lat="46.22871" lon="10.52119">
        <ele>2012</ele>
        <time>2018-09-22T06:52:36.000Z</time>
      </trkpt>
      <trkpt lat="46.22861" lon="10.52116">
        <ele>2012</ele>
        <time>2018-09-22T06:52:44.000Z</time>
      </trkpt>
      <trkpt lat="46.22853" lon="10.52109">
        <ele>2012</ele>
        <time>2018-09-22T06:52:53.000Z</time>
      </trkpt>
      <trkpt lat="46.22844" lon="10.52105">
        <ele>2012</ele>
        <time>2018-09-22T06:53:00.000Z</time>
      </trkpt>
      <trkpt lat="46.22843" lon="10.52093">
        <ele>2012</ele>
        <time>2018-09-22T06:53:09.000Z</time>
      </trkpt>
      <trkpt lat="46.22836" lon="10.52083">
        <ele>2012.6921533632</ele>
        <time>2018-09-22T06:53:18.000Z</time>
      </trkpt>
      <trkpt lat="46.22827" lon="10.52082">
        <ele>2013</ele>
        <time>2018-09-22T06:53:29.000Z</time>
      </trkpt>
      <trkpt lat="46.22817" lon="10.52077">
        <ele>2013.6909095376</ele>
        <time>2018-09-22T06:53:38.000Z</time>
      </trkpt>
      <trkpt lat="46.22808" lon="10.52069">
        <ele>2014.59400064</ele>
        <time>2018-09-22T06:53:47.000Z</time>
      </trkpt>
      <trkpt lat="46.22804" lon="10.52054">
        <ele>2015</ele>
        <time>2018-09-22T06:54:01.000Z</time>
      </trkpt>
      <trkpt lat="46.22795" lon="10.52046">
        <ele>2016.177403518</ele>
        <time>2018-09-22T06:54:07.000Z</time>
      </trkpt>
      <trkpt lat="46.22786" lon="10.52041">
        <ele>2018.9275935359</ele>
        <time>2018-09-22T06:54:21.000Z</time>
      </trkpt>
      <trkpt lat="46.22776" lon="10.52044">
        <ele>2022.39400064</ele>
        <time>2018-09-22T06:54:45.000Z</time>
      </trkpt>
      <trkpt lat="46.22768" lon="10.52036">
        <ele>2023</ele>
        <time>2018-09-22T06:54:55.001Z</time>
      </trkpt>
      <trkpt lat="46.22757" lon="10.52037">
        <ele>2023</ele>
        <time>2018-09-22T06:55:08.000Z</time>
      </trkpt>
      <trkpt lat="46.22746" lon="10.52034">
        <ele>2023</ele>
        <time>2018-09-22T06:55:16.000Z</time>
      </trkpt>
      <trkpt lat="46.22736" lon="10.52028">
        <ele>2021.4907161736</ele>
        <time>2018-09-22T06:55:26.101Z</time>
      </trkpt>
      <trkpt lat="46.22729" lon="10.52018">
        <ele>2018.2240450335</ele>
        <time>2018-09-22T06:55:36.988Z</time>
      </trkpt>
      <trkpt lat="46.2272" lon="10.52013">
        <ele>2017</ele>
        <time>2018-09-22T06:55:48.000Z</time>
      </trkpt>
      <trkpt lat="46.22714" lon="10.52002">
        <ele>2018</ele>
        <time>2018-09-22T06:56:03.000Z</time>
      </trkpt>
      <trkpt lat="46.22711" lon="10.51989">
        <ele>2018.6928</ele>
        <time>2018-09-22T06:56:17.988Z</time>
      </trkpt>
      <trkpt lat="46.22719" lon="10.51986">
        <ele>2019.69400064</ele>
        <time>2018-09-22T06:56:28.000Z</time>
      </trkpt>
      <trkpt lat="46.22727" lon="10.51978">
        <ele>2021.5765654573</ele>
        <time>2018-09-22T06:56:38.998Z</time>
      </trkpt>
      <trkpt lat="46.22725" lon="10.51964">
        <ele>2024.2939008</ele>
        <time>2018-09-22T06:56:53.999Z</time>
      </trkpt>
      <trkpt lat="46.22719" lon="10.5195">
        <ele>2025</ele>
        <time>2018-09-22T06:57:06.000Z</time>
      </trkpt>
      <trkpt lat="46.22715" lon="10.51937">
        <ele>2025</ele>
        <time>2018-09-22T06:57:14.000Z</time>
      </trkpt>
      <trkpt lat="46.22712" lon="10.51924">
        <ele>2025</ele>
        <time>2018-09-22T06:57:21.998Z</time>
      </trkpt>
      <trkpt lat="46.2271" lon="10.51909">
        <ele>2024.8986387729</ele>
        <time>2018-09-22T06:57:32.103Z</time>
      </trkpt>
      <trkpt lat="46.22709" lon="10.51895">
        <ele>2024.2294456946</ele>
        <time>2018-09-22T06:57:38.989Z</time>
      </trkpt>
      <trkpt lat="46.22706" lon="10.51882">
        <ele>2023.6271705435</ele>
        <time>2018-09-22T06:57:45.000Z</time>
      </trkpt>
      <trkpt lat="46.22704" lon="10.51869">
        <ele>2022.819176943</ele>
        <time>2018-09-22T06:57:52.988Z</time>
      </trkpt>
      <trkpt lat="46.22699" lon="10.51858">
        <ele>2022.0352250269</ele>
        <time>2018-09-22T06:58:01.000Z</time>
      </trkpt>
      <trkpt lat="46.22694" lon="10.51844">
        <ele>2022</ele>
        <time>2018-09-22T06:58:11.098Z</time>
      </trkpt>
      <trkpt lat="46.22685" lon="10.51829">
        <ele>2022</ele>
        <time>2018-09-22T06:58:21.000Z</time>
      </trkpt>
      <trkpt lat="46.22684" lon="10.51816">
        <ele>2022</ele>
        <time>2018-09-22T06:58:28.000Z</time>
      </trkpt>
      <trkpt lat="46.22681" lon="10.51802">
        <ele>2022</ele>
        <time>2018-09-22T06:58:36.000Z</time>
      </trkpt>
      <trkpt lat="46.22688" lon="10.51793">
        <ele>2022</ele>
        <time>2018-09-22T06:58:41.000Z</time>
      </trkpt>
      <trkpt lat="46.22687" lon="10.5178">
        <ele>2022</ele>
        <time>2018-09-22T06:58:49.003Z</time>
      </trkpt>
      <trkpt lat="46.22693" lon="10.5177">
        <ele>2022</ele>
        <time>2018-09-22T06:58:58.989Z</time>
      </trkpt>
      <trkpt lat="46.22694" lon="10.51757">
        <ele>2023.19410048</ele>
        <time>2018-09-22T06:59:13.001Z</time>
      </trkpt>
      <trkpt lat="46.22689" lon="10.51746">
        <ele>2024</ele>
        <time>2018-09-22T06:59:21.989Z</time>
      </trkpt>
      <trkpt lat="46.22682" lon="10.51733">
        <ele>2024</ele>
        <time>2018-09-22T06:59:29.000Z</time>
      </trkpt>
      <trkpt lat="46.22674" lon="10.51724">
        <ele>2024.19440128</ele>
        <time>2018-09-22T06:59:33.004Z</time>
      </trkpt>
      <trkpt lat="46.22672" lon="10.5171">
        <ele>2024.99290112</ele>
        <time>2018-09-22T06:59:40.989Z</time>
      </trkpt>
      <trkpt lat="46.22665" lon="10.51699">
        <ele>2025</ele>
        <time>2018-09-22T06:59:50.000Z</time>
      </trkpt>
      <trkpt lat="46.22657" lon="10.51689">
        <ele>2025</ele>
        <time>2018-09-22T06:59:57.991Z</time>
      </trkpt>
      <trkpt lat="46.22651" lon="10.51679">
        <ele>2025.5872281428</ele>
        <time>2018-09-22T07:00:06.991Z</time>
      </trkpt>
      <trkpt lat="46.22648" lon="10.51666">
        <ele>2026.6898997591</ele>
        <time>2018-09-22T07:00:17.990Z</time>
      </trkpt>
      <trkpt lat="46.22644" lon="10.51654">
        <ele>2027</ele>
        <time>2018-09-22T07:00:24.990Z</time>
      </trkpt>
      <trkpt lat="46.22642" lon="10.51641">
        <ele>2027.291476908</ele>
        <time>2018-09-22T07:00:34.001Z</time>
      </trkpt>
      <trkpt lat="46.2264" lon="10.51627">
        <ele>2028.8350004706</ele>
        <time>2018-09-22T07:00:43.989Z</time>
      </trkpt>
      <trkpt lat="46.22634" lon="10.51616">
        <ele>2031.0669410343</ele>
        <time>2018-09-22T07:00:52.000Z</time>
      </trkpt>
      <trkpt lat="46.22628" lon="10.51607">
        <ele>2032</ele>
        <time>2018-09-22T07:01:02.001Z</time>
      </trkpt>
      <trkpt lat="46.22622" lon="10.51597">
        <ele>2032.29400064</ele>
        <time>2018-09-22T07:01:14.000Z</time>
      </trkpt>
      <trkpt lat="46.22616" lon="10.51587">
        <ele>2036.9369457201</ele>
        <time>2018-09-22T07:01:28.989Z</time>
      </trkpt>
      <trkpt lat="46.2262" lon="10.51574">
        <ele>2039.50380032</ele>
        <time>2018-09-22T07:01:46.098Z</time>
      </trkpt>
      <trkpt lat="46.22622" lon="10.51561">
        <ele>2040.39410048</ele>
        <time>2018-09-22T07:01:55.001Z</time>
      </trkpt>
      <trkpt lat="46.22613" lon="10.5156">
        <ele>2043.582434863</ele>
        <time>2018-09-22T07:02:16.986Z</time>
      </trkpt>
      <trkpt lat="46.22609" lon="10.51571">
        <ele>2045.56600064</ele>
        <time>2018-09-22T07:02:29.000Z</time>
      </trkpt>
      <trkpt lat="46.22608" lon="10.51557">
        <ele>2049.69300096</ele>
        <time>2018-09-22T07:02:57.990Z</time>
      </trkpt>
      <trkpt lat="46.22612" lon="10.51544">
        <ele>2052.2887329022</ele>
        <time>2018-09-22T07:03:13.990Z</time>
      </trkpt>
      <trkpt lat="46.22619" lon="10.51536">
        <ele>2054.3856</ele>
        <time>2018-09-22T07:03:27.988Z</time>
      </trkpt>
      <trkpt lat="46.22621" lon="10.51523">
        <ele>2055.7882708305</ele>
        <time>2018-09-22T07:03:38.990Z</time>
      </trkpt>
      <trkpt lat="46.22623" lon="10.51509">
        <ele>2057.9799586501</ele>
        <time>2018-09-22T07:03:51.000Z</time>
      </trkpt>
      <trkpt lat="46.22622" lon="10.51496">
        <ele>2059.0639841697</ele>
        <time>2018-09-22T07:04:01.990Z</time>
      </trkpt>
      <trkpt lat="46.22615" lon="10.51505">
        <ele>2061.78500096</ele>
        <time>2018-09-22T07:04:19.985Z</time>
      </trkpt>
      <trkpt lat="46.22607" lon="10.51512">
        <ele>2064.97900288</ele>
        <time>2018-09-22T07:04:30.990Z</time>
      </trkpt>
      <trkpt lat="46.22597" lon="10.51513">
        <ele>2067.3654430616</ele>
        <time>2018-09-22T07:04:49.000Z</time>
      </trkpt>
      <trkpt lat="46.22588" lon="10.51517">
        <ele>2070.58800128</ele>
        <time>2018-09-22T07:05:04.000Z</time>
      </trkpt>
      <trkpt lat="46.22588" lon="10.51504">
        <ele>2075</ele>
        <time>2018-09-22T07:05:40.990Z</time>
      </trkpt>
      <trkpt lat="46.22593" lon="10.51493">
        <ele>2076.87870336</ele>
        <time>2018-09-22T07:05:53.989Z</time>
      </trkpt>
      <trkpt lat="46.22597" lon="10.51481">
        <ele>2079.39400064</ele>
        <time>2018-09-22T07:06:05.000Z</time>
      </trkpt>
      <trkpt lat="46.22598" lon="10.51468">
        <ele>2080.3939008</ele>
        <time>2018-09-22T07:06:14.999Z</time>
      </trkpt>
      <trkpt lat="46.22596" lon="10.51455">
        <ele>2083.4867413593</ele>
        <time>2018-09-22T07:06:35.989Z</time>
      </trkpt>
      <trkpt lat="46.2259" lon="10.51467">
        <ele>2085.58800128</ele>
        <time>2018-09-22T07:06:49.000Z</time>
      </trkpt>
      <trkpt lat="46.22581" lon="10.5147">
        <ele>2087.2703232527</ele>
        <time>2018-09-22T07:07:01.989Z</time>
      </trkpt>
      <trkpt lat="46.22572" lon="10.51476">
        <ele>2090.3734787611</ele>
        <time>2018-09-22T07:07:14.989Z</time>
      </trkpt>
      <trkpt lat="46.22563" lon="10.51471">
        <ele>2092.9800784318</ele>
        <time>2018-09-22T07:07:31.000Z</time>
      </trkpt>
      <trkpt lat="46.2257" lon="10.51463">
        <ele>2098.6764141936</ele>
        <time>2018-09-22T07:07:59.990Z</time>
      </trkpt>
      <trkpt lat="46.22576" lon="10.51453">
        <ele>2099.09400064</ele>
        <time>2018-09-22T07:08:12.000Z</time>
      </trkpt>
      <trkpt lat="46.22583" lon="10.51442">
        <ele>2100.3814069614</ele>
        <time>2018-09-22T07:08:22.988Z</time>
      </trkpt>
      <trkpt lat="46.22574" lon="10.51439">
        <ele>2104.386386117</ele>
        <time>2018-09-22T07:08:43.000Z</time>
      </trkpt>
      <trkpt lat="46.22566" lon="10.51427">
        <ele>2104.7867869022</ele>
        <time>2018-09-22T07:08:45.000Z</time>
      </trkpt>
      <trkpt lat="46.22558" lon="10.51434">
        <ele>2107.29400064</ele>
        <time>2018-09-22T07:09:04.000Z</time>
      </trkpt>
      <trkpt lat="46.22548" lon="10.51434">
        <ele>2109.58580224</ele>
        <time>2018-09-22T07:09:18.989Z</time>
      </trkpt>
      <trkpt lat="46.22539" lon="10.51439">
        <ele>2112.2893471736</ele>
        <time>2018-09-22T07:09:33.989Z</time>
      </trkpt>
      <trkpt lat="46.22549" lon="10.51435">
        <ele>2114.38800128</ele>
        <time>2018-09-22T07:09:53.000Z</time>
      </trkpt>
      <trkpt lat="46.22558" lon="10.51432">
        <ele>2117.1763911111</ele>
        <time>2018-09-22T07:10:06.989Z</time>
      </trkpt>
      <trkpt lat="46.22558" lon="10.51419">
        <ele>2119.1581025668</ele>
        <time>2018-09-22T07:10:17.000Z</time>
      </trkpt>
      <trkpt lat="46.22566" lon="10.51412">
        <ele>2120.8907152858</ele>
        <time>2018-09-22T07:10:29.989Z</time>
      </trkpt>
      <trkpt lat="46.22567" lon="10.51398">
        <ele>2122.98580224</ele>
        <time>2018-09-22T07:10:40.989Z</time>
      </trkpt>
      <trkpt lat="46.2257" lon="10.51386">
        <ele>2122.9082097224</ele>
        <time>2018-09-22T07:10:51.988Z</time>
      </trkpt>
      <trkpt lat="46.22567" lon="10.51371">
        <ele>2122.1168142064</ele>
        <time>2018-09-22T07:10:59.989Z</time>
      </trkpt>
      <trkpt lat="46.22557" lon="10.51371">
        <ele>2126</ele>
        <time>2018-09-22T07:11:15.985Z</time>
      </trkpt>
      <trkpt lat="46.22547" lon="10.51372">
        <ele>2126.78800128</ele>
        <time>2018-09-22T07:11:35.000Z</time>
      </trkpt>
      <trkpt lat="46.22538" lon="10.51373">
        <ele>2128</ele>
        <time>2018-09-22T07:11:47.999Z</time>
      </trkpt>
      <trkpt lat="46.22531" lon="10.51383">
        <ele>2130.1895379892</ele>
        <time>2018-09-22T07:12:03.004Z</time>
      </trkpt>
      <trkpt lat="46.22539" lon="10.5139">
        <ele>2132</ele>
        <time>2018-09-22T07:12:27.000Z</time>
      </trkpt>
      <trkpt lat="46.22541" lon="10.51375">
        <ele>2135</ele>
        <time>2018-09-22T07:13:00.000Z</time>
      </trkpt>
      <trkpt lat="46.22541" lon="10.51361">
        <ele>2136.927735</ele>
        <time>2018-09-22T07:13:11.000Z</time>
      </trkpt>
      <trkpt lat="46.22533" lon="10.51367">
        <ele>2140.3804858286</ele>
        <time>2018-09-22T07:13:24.989Z</time>
      </trkpt>
      <trkpt lat="46.22524" lon="10.51371">
        <ele>2142.781218999</ele>
        <time>2018-09-22T07:13:40.000Z</time>
      </trkpt>
      <trkpt lat="46.22514" lon="10.51372">
        <ele>2145.98800128</ele>
        <time>2018-09-22T07:13:56.000Z</time>
      </trkpt>
      <trkpt lat="46.22505" lon="10.51372">
        <ele>2148.3674228305</ele>
        <time>2018-09-22T07:14:07.986Z</time>
      </trkpt>
      <trkpt lat="46.22495" lon="10.51375">
        <ele>2149.892604394</ele>
        <time>2018-09-22T07:14:20.000Z</time>
      </trkpt>
      <trkpt lat="46.22485" lon="10.51374">
        <ele>2151.38800128</ele>
        <time>2018-09-22T07:14:28.000Z</time>
      </trkpt>
      <trkpt lat="46.22477" lon="10.51367">
        <ele>2152.79290112</ele>
        <time>2018-09-22T07:14:38.989Z</time>
      </trkpt>
      <trkpt lat="46.2247" lon="10.51359">
        <ele>2155.19400064</ele>
        <time>2018-09-22T07:14:53.000Z</time>
      </trkpt>
      <trkpt lat="46.2246" lon="10.51358">
        <ele>2156</ele>
        <time>2018-09-22T07:15:09.000Z</time>
      </trkpt>
      <trkpt lat="46.22451" lon="10.51364">
        <ele>2159.1875006452</ele>
        <time>2018-09-22T07:15:23.000Z</time>
      </trkpt>
      <trkpt lat="46.22443" lon="10.51356">
        <ele>2162.07870336</ele>
        <time>2018-09-22T07:15:37.989Z</time>
      </trkpt>
      <trkpt lat="46.22451" lon="10.51342">
        <ele>2163.8895520259</ele>
        <time>2018-09-22T07:15:50.000Z</time>
      </trkpt>
      <trkpt lat="46.22459" lon="10.51334">
        <ele>2166</ele>
        <time>2018-09-22T07:16:04.070Z</time>
      </trkpt>
      <trkpt lat="46.22451" lon="10.51327">
        <ele>2172.769603646</ele>
        <time>2018-09-22T07:16:39.100Z</time>
      </trkpt>
      <trkpt lat="46.22444" lon="10.51317">
        <ele>2175.18800128</ele>
        <time>2018-09-22T07:16:57.000Z</time>
      </trkpt>
      <trkpt lat="46.22435" lon="10.51313">
        <ele>2176.89290112</ele>
        <time>2018-09-22T07:17:09.989Z</time>
      </trkpt>
      <trkpt lat="46.22426" lon="10.51319">
        <ele>2178.9683168518</ele>
        <time>2018-09-22T07:17:21.000Z</time>
      </trkpt>
      <trkpt lat="46.22417" lon="10.5132">
        <ele>2180.7743187136</ele>
        <time>2018-09-22T07:17:34.999Z</time>
      </trkpt>
      <trkpt lat="46.22422" lon="10.51309">
        <ele>2182.89290112</ele>
        <time>2018-09-22T07:17:49.989Z</time>
      </trkpt>
      <trkpt lat="46.22423" lon="10.51296">
        <ele>2184.9167951607</ele>
        <time>2018-09-22T07:18:00.989Z</time>
      </trkpt>
      <trkpt lat="46.22432" lon="10.51291">
        <ele>2186.18580224</ele>
        <time>2018-09-22T07:18:11.989Z</time>
      </trkpt>
      <trkpt lat="46.22441" lon="10.5129">
        <ele>2188.09290112</ele>
        <time>2018-09-22T07:18:21.989Z</time>
      </trkpt>
      <trkpt lat="46.2245" lon="10.51287">
        <ele>2188.99290112</ele>
        <time>2018-09-22T07:18:30.989Z</time>
      </trkpt>
      <trkpt lat="46.22459" lon="10.5129">
        <ele>2189</ele>
        <time>2018-09-22T07:18:40.000Z</time>
      </trkpt>
      <trkpt lat="46.22451" lon="10.51282">
        <ele>2191.9898398325</ele>
        <time>2018-09-22T07:19:00.989Z</time>
      </trkpt>
      <trkpt lat="46.22448" lon="10.51269">
        <ele>2193.9277516876</ele>
        <time>2018-09-22T07:19:10.989Z</time>
      </trkpt>
      <trkpt lat="46.22441" lon="10.51259">
        <ele>2198.7787923611</ele>
        <time>2018-09-22T07:19:34.989Z</time>
      </trkpt>
      <trkpt lat="46.22432" lon="10.51257">
        <ele>2200.964608</ele>
        <time>2018-09-22T07:19:50.989Z</time>
      </trkpt>
      <trkpt lat="46.22423" lon="10.51256">
        <ele>2204.69290112</ele>
        <time>2018-09-22T07:20:07.989Z</time>
      </trkpt>
      <trkpt lat="46.22414" lon="10.51251">
        <ele>2206.5700911441</ele>
        <time>2018-09-22T07:20:23.989Z</time>
      </trkpt>
      <trkpt lat="46.22404" lon="10.51252">
        <ele>2208.7813373053</ele>
        <time>2018-09-22T07:20:38.989Z</time>
      </trkpt>
      <trkpt lat="46.22397" lon="10.51241">
        <ele>2210.4010136369</ele>
        <time>2018-09-22T07:20:48.101Z</time>
      </trkpt>
      <trkpt lat="46.22388" lon="10.51238">
        <ele>2212.58580224</ele>
        <time>2018-09-22T07:20:58.989Z</time>
      </trkpt>
      <trkpt lat="46.22378" lon="10.51236">
        <ele>2215.184748079</ele>
        <time>2018-09-22T07:21:12.989Z</time>
      </trkpt>
      <trkpt lat="46.2237" lon="10.5123">
        <ele>2216.786608254</ele>
        <time>2018-09-22T07:21:28.989Z</time>
      </trkpt>
      <trkpt lat="46.22362" lon="10.51222">
        <ele>2219.38580224</ele>
        <time>2018-09-22T07:21:42.989Z</time>
      </trkpt>
      <trkpt lat="46.22354" lon="10.51217">
        <ele>2221.38580224</ele>
        <time>2018-09-22T07:21:52.989Z</time>
      </trkpt>
      <trkpt lat="46.22347" lon="10.51208">
        <ele>2223.89290112</ele>
        <time>2018-09-22T07:22:09.989Z</time>
      </trkpt>
      <trkpt lat="46.22338" lon="10.5121">
        <ele>2226.3793174353</ele>
        <time>2018-09-22T07:22:22.989Z</time>
      </trkpt>
      <trkpt lat="46.22339" lon="10.51197">
        <ele>2230</ele>
        <time>2018-09-22T07:22:43.989Z</time>
      </trkpt>
      <trkpt lat="46.22347" lon="10.5119">
        <ele>2231.345438232</ele>
        <time>2018-09-22T07:22:57.989Z</time>
      </trkpt>
      <trkpt lat="46.22356" lon="10.51189">
        <ele>2233</ele>
        <time>2018-09-22T07:23:12.989Z</time>
      </trkpt>
      <trkpt lat="46.22365" lon="10.51195">
        <ele>2233.092346979</ele>
        <time>2018-09-22T07:23:21.989Z</time>
      </trkpt>
      <trkpt lat="46.22374" lon="10.51194">
        <ele>2234.1752988048</ele>
        <time>2018-09-22T07:23:32.000Z</time>
      </trkpt>
      <trkpt lat="46.22384" lon="10.5119">
        <ele>2236.2860021063</ele>
        <time>2018-09-22T07:23:44.000Z</time>
      </trkpt>
      <trkpt lat="46.22393" lon="10.5119">
        <ele>2236.989829604</ele>
        <time>2018-09-22T07:23:50.989Z</time>
      </trkpt>
      <trkpt lat="46.22403" lon="10.51191">
        <ele>2237</ele>
        <time>2018-09-22T07:23:59.989Z</time>
      </trkpt>
      <trkpt lat="46.22398" lon="10.51179">
        <ele>2241.8929298702</ele>
        <time>2018-09-22T07:24:30.000Z</time>
      </trkpt>
      <trkpt lat="46.2239" lon="10.5117">
        <ele>2244.18600192</ele>
        <time>2018-09-22T07:24:41.990Z</time>
      </trkpt>
      <trkpt lat="46.22381" lon="10.51163">
        <ele>2246</ele>
        <time>2018-09-22T07:24:53.990Z</time>
      </trkpt>
      <trkpt lat="46.22373" lon="10.51157">
        <ele>2247.18580224</ele>
        <time>2018-09-22T07:25:06.989Z</time>
      </trkpt>
      <trkpt lat="46.22365" lon="10.51149">
        <ele>2250.2677709465</ele>
        <time>2018-09-22T07:25:21.989Z</time>
      </trkpt>
      <trkpt lat="46.22358" lon="10.51139">
        <ele>2253</ele>
        <time>2018-09-22T07:25:31.990Z</time>
      </trkpt>
      <trkpt lat="46.22349" lon="10.51134">
        <ele>2253.4996042026</ele>
        <time>2018-09-22T07:25:46.101Z</time>
      </trkpt>
      <trkpt lat="46.2234" lon="10.51129">
        <ele>2254.7877387617</ele>
        <time>2018-09-22T07:25:58.988Z</time>
      </trkpt>
      <trkpt lat="46.2233" lon="10.51128">
        <ele>2257.3064341873</ele>
        <time>2018-09-22T07:26:08.988Z</time>
      </trkpt>
      <trkpt lat="46.22332" lon="10.51115">
        <ele>2261.58580224</ele>
        <time>2018-09-22T07:26:33.989Z</time>
      </trkpt>
      <trkpt lat="46.22342" lon="10.51108">
        <ele>2263</ele>
        <time>2018-09-22T07:26:48.101Z</time>
      </trkpt>
      <trkpt lat="46.22352" lon="10.51111">
        <ele>2263.2886324595</ele>
        <time>2018-09-22T07:26:53.989Z</time>
      </trkpt>
      <trkpt lat="46.22361" lon="10.51114">
        <ele>2264.49400064</ele>
        <time>2018-09-22T07:27:06.000Z</time>
      </trkpt>
      <trkpt lat="46.2237" lon="10.51117">
        <ele>2265.78800128</ele>
        <time>2018-09-22T07:27:15.000Z</time>
      </trkpt>
      <trkpt lat="46.22379" lon="10.51117">
        <ele>2267.49400064</ele>
        <time>2018-09-22T07:27:26.000Z</time>
      </trkpt>
      <trkpt lat="46.2239" lon="10.51116">
        <ele>2269.09400064</ele>
        <time>2018-09-22T07:27:42.000Z</time>
      </trkpt>
      <trkpt lat="46.224" lon="10.5112">
        <ele>2269.89290112</ele>
        <time>2018-09-22T07:27:49.989Z</time>
      </trkpt>
      <trkpt lat="46.22408" lon="10.51117">
        <ele>2272.1939008</ele>
        <time>2018-09-22T07:28:02.999Z</time>
      </trkpt>
      <trkpt lat="46.22418" lon="10.51115">
        <ele>2274.18800128</ele>
        <time>2018-09-22T07:28:17.000Z</time>
      </trkpt>
      <trkpt lat="46.22411" lon="10.51106">
        <ele>2277.9835664824</ele>
        <time>2018-09-22T07:28:35.988Z</time>
      </trkpt>
      <trkpt lat="46.22406" lon="10.51095">
        <ele>2279.59280128</ele>
        <time>2018-09-22T07:28:46.988Z</time>
      </trkpt>
      <trkpt lat="46.22398" lon="10.51086">
        <ele>2281.9751234466</ele>
        <time>2018-09-22T07:29:00.985Z</time>
      </trkpt>
      <trkpt lat="46.22389" lon="10.51083">
        <ele>2283.5687396854</ele>
        <time>2018-09-22T07:29:13.989Z</time>
      </trkpt>
      <trkpt lat="46.22383" lon="10.51073">
        <ele>2286.1446581828</ele>
        <time>2018-09-22T07:29:26.986Z</time>
      </trkpt>
      <trkpt lat="46.22376" lon="10.51064">
        <ele>2287.9634224467</ele>
        <time>2018-09-22T07:29:40.988Z</time>
      </trkpt>
      <trkpt lat="46.22368" lon="10.51056">
        <ele>2290.3837795818</ele>
        <time>2018-09-22T07:29:53.000Z</time>
      </trkpt>
      <trkpt lat="46.22359" lon="10.51052">
        <ele>2292</ele>
        <time>2018-09-22T07:30:06.990Z</time>
      </trkpt>
      <trkpt lat="46.22368" lon="10.51046">
        <ele>2296.97840384</ele>
        <time>2018-09-22T07:30:30.988Z</time>
      </trkpt>
      <trkpt lat="46.22376" lon="10.51041">
        <ele>2298.6904961587</ele>
        <time>2018-09-22T07:30:47.999Z</time>
      </trkpt>
      <trkpt lat="46.22385" lon="10.51045">
        <ele>2302.18580224</ele>
        <time>2018-09-22T07:31:01.989Z</time>
      </trkpt>
      <trkpt lat="46.22395" lon="10.51041">
        <ele>2304.59290112</ele>
        <time>2018-09-22T07:31:16.989Z</time>
      </trkpt>
      <trkpt lat="46.22404" lon="10.51038">
        <ele>2307.09400064</ele>
        <time>2018-09-22T07:31:32.000Z</time>
      </trkpt>
      <trkpt lat="46.22413" lon="10.51036">
        <ele>2309.58800128</ele>
        <time>2018-09-22T07:31:49.000Z</time>
      </trkpt>
      <trkpt lat="46.22422" lon="10.51036">
        <ele>2313.1935136489</ele>
        <time>2018-09-22T07:32:02.999Z</time>
      </trkpt>
      <trkpt lat="46.2243" lon="10.51042">
        <ele>2314.7832170336</ele>
        <time>2018-09-22T07:32:15.000Z</time>
      </trkpt>
      <trkpt lat="46.2243" lon="10.51028">
        <ele>2320.6892821644</ele>
        <time>2018-09-22T07:32:47.987Z</time>
      </trkpt>
      <trkpt lat="46.22424" lon="10.51018">
        <ele>2323.1914609918</ele>
        <time>2018-09-22T07:33:02.988Z</time>
      </trkpt>
      <trkpt lat="46.2242" lon="10.51006">
        <ele>2325.7836863754</ele>
        <time>2018-09-22T07:33:19.986Z</time>
      </trkpt>
      <trkpt lat="46.2243" lon="10.51002">
        <ele>2329.99400064</ele>
        <time>2018-09-22T07:33:41.000Z</time>
      </trkpt>
      <trkpt lat="46.22438" lon="10.51009">
        <ele>2331</ele>
        <time>2018-09-22T07:33:53.990Z</time>
      </trkpt>
      <trkpt lat="46.22447" lon="10.51014">
        <ele>2331.4939008</ele>
        <time>2018-09-22T07:34:05.999Z</time>
      </trkpt>
      <trkpt lat="46.22452" lon="10.51025">
        <ele>2332.39270016</ele>
        <time>2018-09-22T07:34:14.987Z</time>
      </trkpt>
      <trkpt lat="46.22457" lon="10.51037">
        <ele>2333.976087303</ele>
        <time>2018-09-22T07:34:25.999Z</time>
      </trkpt>
      <trkpt lat="46.22461" lon="10.51049">
        <ele>2335.9734827187</ele>
        <time>2018-09-22T07:34:35.989Z</time>
      </trkpt>
      <trkpt lat="46.2246" lon="10.51035">
        <ele>2338.38600192</ele>
        <time>2018-09-22T07:34:52.990Z</time>
      </trkpt>
      <trkpt lat="46.22459" lon="10.51021">
        <ele>2340.2901880292</ele>
        <time>2018-09-22T07:35:03.988Z</time>
      </trkpt>
      <trkpt lat="46.22459" lon="10.51008">
        <ele>2341.7743684595</ele>
        <time>2018-09-22T07:35:14.987Z</time>
      </trkpt>
      <trkpt lat="46.22456" lon="10.50995">
        <ele>2343.9795225578</ele>
        <time>2018-09-22T07:35:25.987Z</time>
      </trkpt>
      <trkpt lat="46.22449" lon="10.50987">
        <ele>2345.866015</ele>
        <time>2018-09-22T07:35:39.988Z</time>
      </trkpt>
      <trkpt lat="46.22444" lon="10.50976">
        <ele>2347.9613028358</ele>
        <time>2018-09-22T07:35:50.990Z</time>
      </trkpt>
      <trkpt lat="46.22435" lon="10.50969">
        <ele>2349.3842474547</ele>
        <time>2018-09-22T07:36:02.987Z</time>
      </trkpt>
      <trkpt lat="46.22444" lon="10.50968">
        <ele>2353.3881058064</ele>
        <time>2018-09-22T07:36:24.990Z</time>
      </trkpt>
      <trkpt lat="46.22451" lon="10.50977">
        <ele>2354.6939008</ele>
        <time>2018-09-22T07:36:37.999Z</time>
      </trkpt>
      <trkpt lat="46.2246" lon="10.50982">
        <ele>2357.1920721265</ele>
        <time>2018-09-22T07:36:52.998Z</time>
      </trkpt>
      <trkpt lat="46.22467" lon="10.50991">
        <ele>2359.1806261286</ele>
        <time>2018-09-22T07:37:07.000Z</time>
      </trkpt>
      <trkpt lat="46.22472" lon="10.51003">
        <ele>2361.18560256</ele>
        <time>2018-09-22T07:37:16.988Z</time>
      </trkpt>
      <trkpt lat="46.22475" lon="10.50991">
        <ele>2365.57840384</ele>
        <time>2018-09-22T07:37:42.988Z</time>
      </trkpt>
      <trkpt lat="46.22474" lon="10.50978">
        <ele>2368.5801781596</ele>
        <time>2018-09-22T07:37:53.987Z</time>
      </trkpt>
      <trkpt lat="46.22469" lon="10.50965">
        <ele>2370</ele>
        <time>2018-09-22T07:38:05.987Z</time>
      </trkpt>
      <trkpt lat="46.22463" lon="10.50955">
        <ele>2370.79270016</ele>
        <time>2018-09-22T07:38:18.987Z</time>
      </trkpt>
      <trkpt lat="46.22458" lon="10.50943">
        <ele>2372.9834150009</ele>
        <time>2018-09-22T07:38:30.987Z</time>
      </trkpt>
      <trkpt lat="46.22451" lon="10.50934">
        <ele>2375.2840778041</ele>
        <time>2018-09-22T07:38:43.986Z</time>
      </trkpt>
      <trkpt lat="46.22459" lon="10.5094">
        <ele>2377.5523907866</ele>
        <time>2018-09-22T07:38:58.990Z</time>
      </trkpt>
      <trkpt lat="46.22468" lon="10.50946">
        <ele>2380.19290112</ele>
        <time>2018-09-22T07:39:12.989Z</time>
      </trkpt>
      <trkpt lat="46.22476" lon="10.50952">
        <ele>2381.3764361334</ele>
        <time>2018-09-22T07:39:32.999Z</time>
      </trkpt>
      <trkpt lat="46.22485" lon="10.50957">
        <ele>2384.18580224</ele>
        <time>2018-09-22T07:39:46.989Z</time>
      </trkpt>
      <trkpt lat="46.2249" lon="10.50968">
        <ele>2385.6928</ele>
        <time>2018-09-22T07:39:57.988Z</time>
      </trkpt>
      <trkpt lat="46.22499" lon="10.50974">
        <ele>2386</ele>
        <time>2018-09-22T07:40:06.988Z</time>
      </trkpt>
      <trkpt lat="46.22503" lon="10.50961">
        <ele>2378.8508400077</ele>
        <time>2018-09-22T07:40:58.988Z</time>
      </trkpt>
      <trkpt lat="46.22512" lon="10.50967">
        <ele>2374.7216</ele>
        <time>2018-09-22T07:41:21.988Z</time>
      </trkpt>
      <trkpt lat="46.22521" lon="10.50973">
        <ele>2370.82159616</ele>
        <time>2018-09-22T07:41:34.988Z</time>
      </trkpt>
      <trkpt lat="46.22521" lon="10.50959">
        <ele>2365.8659591486</ele>
        <time>2018-09-22T07:41:56.990Z</time>
      </trkpt>
      <trkpt lat="46.22531" lon="10.50959">
        <ele>2359.0724236083</ele>
        <time>2018-09-22T07:42:20.991Z</time>
      </trkpt>
      <trkpt lat="46.22528" lon="10.50946">
        <ele>2351.8402396508</ele>
        <time>2018-09-22T07:42:45.002Z</time>
      </trkpt>
      <trkpt lat="46.22537" lon="10.50939">
        <ele>2344.7216</ele>
        <time>2018-09-22T07:43:01.988Z</time>
      </trkpt>
      <trkpt lat="46.22547" lon="10.50941">
        <ele>2341.7240098352</ele>
        <time>2018-09-22T07:43:11.991Z</time>
      </trkpt>
      <trkpt lat="46.22557" lon="10.50945">
        <ele>2338.1473712031</ele>
        <time>2018-09-22T07:43:23.988Z</time>
      </trkpt>
      <trkpt lat="46.22567" lon="10.50945">
        <ele>2335.1311252096</ele>
        <time>2018-09-22T07:43:33.991Z</time>
      </trkpt>
      <trkpt lat="46.22559" lon="10.50937">
        <ele>2331.8440302433</ele>
        <time>2018-09-22T07:43:44.987Z</time>
      </trkpt>
      <trkpt lat="46.22551" lon="10.50928">
        <ele>2329.7202361905</ele>
        <time>2018-09-22T07:43:52.000Z</time>
      </trkpt>
      <trkpt lat="46.22545" lon="10.50918">
        <ele>2327.6363085714</ele>
        <time>2018-09-22T07:43:59.002Z</time>
      </trkpt>
      <trkpt lat="46.2254" lon="10.50907">
        <ele>2325.6189496774</ele>
        <time>2018-09-22T07:44:07.990Z</time>
      </trkpt>
      <trkpt lat="46.22549" lon="10.50903">
        <ele>2321.0211464318</ele>
        <time>2018-09-22T07:44:25.990Z</time>
      </trkpt>
      <trkpt lat="46.22557" lon="10.50907">
        <ele>2319.7216</ele>
        <time>2018-09-22T07:44:31.988Z</time>
      </trkpt>
      <trkpt lat="46.22567" lon="10.5091">
        <ele>2317.02159616</ele>
        <time>2018-09-22T07:44:40.988Z</time>
      </trkpt>
      <trkpt lat="46.22576" lon="10.50907">
        <ele>2313.42839552</ele>
        <time>2018-09-22T07:44:49.989Z</time>
      </trkpt>
      <trkpt lat="46.22585" lon="10.50911">
        <ele>2312.40699904</ele>
        <time>2018-09-22T07:44:56.990Z</time>
      </trkpt>
      <trkpt lat="46.22594" lon="10.50914">
        <ele>2310.564951882</ele>
        <time>2018-09-22T07:45:05.987Z</time>
      </trkpt>
      <trkpt lat="46.22603" lon="10.50913">
        <ele>2307.6541252976</ele>
        <time>2018-09-22T07:45:13.971Z</time>
      </trkpt>
      <trkpt lat="46.22612" lon="10.50913">
        <ele>2303.7216</ele>
        <time>2018-09-22T07:45:21.988Z</time>
      </trkpt>
      <trkpt lat="46.22622" lon="10.50916">
        <ele>2301.3216</ele>
        <time>2018-09-22T07:45:29.988Z</time>
      </trkpt>
      <trkpt lat="46.22631" lon="10.50912">
        <ele>2298.61769856</ele>
        <time>2018-09-22T07:45:39.001Z</time>
      </trkpt>
      <trkpt lat="46.2264" lon="10.50914">
        <ele>2296.2330666985</ele>
        <time>2018-09-22T07:45:46.991Z</time>
      </trkpt>
      <trkpt lat="46.22651" lon="10.50911">
        <ele>2293.0435045457</ele>
        <time>2018-09-22T07:45:55.987Z</time>
      </trkpt>
      <trkpt lat="46.2266" lon="10.50909">
        <ele>2291</ele>
        <time>2018-09-22T07:46:02.990Z</time>
      </trkpt>
      <trkpt lat="46.22669" lon="10.50909">
        <ele>2290.62799616</ele>
        <time>2018-09-22T07:46:11.990Z</time>
      </trkpt>
      <trkpt lat="46.22678" lon="10.50906">
        <ele>2287.02879488</ele>
        <time>2018-09-22T07:46:20.988Z</time>
      </trkpt>
      <trkpt lat="46.22686" lon="10.50898">
        <ele>2285.41199872</ele>
        <time>2018-09-22T07:46:29.000Z</time>
      </trkpt>
      <trkpt lat="46.22695" lon="10.50896">
        <ele>2284.4130684115</ele>
        <time>2018-09-22T07:46:36.988Z</time>
      </trkpt>
      <trkpt lat="46.22705" lon="10.50898">
        <ele>2284</ele>
        <time>2018-09-22T07:46:49.987Z</time>
      </trkpt>
      <trkpt lat="46.22714" lon="10.509">
        <ele>2280.0275968</ele>
        <time>2018-09-22T07:47:00.991Z</time>
      </trkpt>
      <trkpt lat="46.22721" lon="10.50892">
        <ele>2275.50729984</ele>
        <time>2018-09-22T07:47:15.987Z</time>
      </trkpt>
      <trkpt lat="46.22731" lon="10.50889">
        <ele>2273.5206976</ele>
        <time>2018-09-22T07:47:25.991Z</time>
      </trkpt>
      <trkpt lat="46.2274" lon="10.50888">
        <ele>2269.6545950846</ele>
        <time>2018-09-22T07:47:36.988Z</time>
      </trkpt>
      <trkpt lat="46.22749" lon="10.50884">
        <ele>2264.4339732041</ele>
        <time>2018-09-22T07:47:49.987Z</time>
      </trkpt>
      <trkpt lat="46.22755" lon="10.50875">
        <ele>2257.8492986938</ele>
        <time>2018-09-22T07:48:09.001Z</time>
      </trkpt>
      <trkpt lat="46.22764" lon="10.50869">
        <ele>2253.6656842912</ele>
        <time>2018-09-22T07:48:29.001Z</time>
      </trkpt>
      <trkpt lat="46.22769" lon="10.50857">
        <ele>2249.0294976</ele>
        <time>2018-09-22T07:48:49.001Z</time>
      </trkpt>
      <trkpt lat="46.22777" lon="10.50851">
        <ele>2245.0677500874</ele>
        <time>2018-09-22T07:48:56.989Z</time>
      </trkpt>
      <trkpt lat="46.22786" lon="10.50847">
        <ele>2242.2127642331</ele>
        <time>2018-09-22T07:49:09.003Z</time>
      </trkpt>
      <trkpt lat="46.22795" lon="10.50844">
        <ele>2239.9262557272</ele>
        <time>2018-09-22T07:49:17.991Z</time>
      </trkpt>
      <trkpt lat="46.22803" lon="10.50838">
        <ele>2236.2275968</ele>
        <time>2018-09-22T07:49:27.991Z</time>
      </trkpt>
      <trkpt lat="46.22812" lon="10.50835">
        <ele>2232.651087429</ele>
        <time>2018-09-22T07:49:36.991Z</time>
      </trkpt>
      <trkpt lat="46.22822" lon="10.50832">
        <ele>2229.8406062808</ele>
        <time>2018-09-22T07:49:44.986Z</time>
      </trkpt>
      <trkpt lat="46.22829" lon="10.50824">
        <ele>2227.11769856</ele>
        <time>2018-09-22T07:49:54.001Z</time>
      </trkpt>
      <trkpt lat="46.22839" lon="10.50825">
        <ele>2223.01479936</ele>
        <time>2018-09-22T07:50:30.986Z</time>
      </trkpt>
      <trkpt lat="46.22848" lon="10.50829">
        <ele>2222.0162543354</ele>
        <time>2018-09-22T07:50:40.986Z</time>
      </trkpt>
      <trkpt lat="46.22858" lon="10.50829">
        <ele>2219.0224006675</ele>
        <time>2018-09-22T07:50:50.986Z</time>
      </trkpt>
      <trkpt lat="46.22863" lon="10.50819">
        <ele>2213.8137984</ele>
        <time>2018-09-22T07:51:01.991Z</time>
      </trkpt>
      <trkpt lat="46.22873" lon="10.50815">
        <ele>2211.4206976</ele>
        <time>2018-09-22T07:51:12.991Z</time>
      </trkpt>
      <trkpt lat="46.22882" lon="10.50815">
        <ele>2209.3206976</ele>
        <time>2018-09-22T07:51:19.991Z</time>
      </trkpt>
      <trkpt lat="46.22892" lon="10.50813">
        <ele>2205.1446610363</ele>
        <time>2018-09-22T07:51:29.002Z</time>
      </trkpt>
      <trkpt lat="46.22901" lon="10.50813">
        <ele>2201.9754610343</ele>
        <time>2018-09-22T07:51:37.987Z</time>
      </trkpt>
      <trkpt lat="46.2291" lon="10.50818">
        <ele>2200.5134620417</ele>
        <time>2018-09-22T07:51:45.987Z</time>
      </trkpt>
      <trkpt lat="46.22919" lon="10.50826">
        <ele>2198.0364992</ele>
        <time>2018-09-22T07:51:54.987Z</time>
      </trkpt>
      <trkpt lat="46.22927" lon="10.50829">
        <ele>2194.80729984</ele>
        <time>2018-09-22T07:52:02.987Z</time>
      </trkpt>
      <trkpt lat="46.22936" lon="10.50835">
        <ele>2194.00709888</ele>
        <time>2018-09-22T07:52:10.989Z</time>
      </trkpt>
      <trkpt lat="46.22944" lon="10.50843">
        <ele>2192.61459968</ele>
        <time>2018-09-22T07:52:17.987Z</time>
      </trkpt>
      <trkpt lat="46.22953" lon="10.50843">
        <ele>2190.22189952</ele>
        <time>2018-09-22T07:52:26.987Z</time>
      </trkpt>
      <trkpt lat="46.22963" lon="10.50844">
        <ele>2186.62919936</ele>
        <time>2018-09-22T07:52:36.987Z</time>
      </trkpt>
      <trkpt lat="46.22971" lon="10.50851">
        <ele>2182.5487577644</ele>
        <time>2018-09-22T07:52:45.987Z</time>
      </trkpt>
      <trkpt lat="46.22979" lon="10.50857">
        <ele>2178.8373883858</ele>
        <time>2018-09-22T07:52:54.002Z</time>
      </trkpt>
      <trkpt lat="46.22988" lon="10.50862">
        <ele>2175.8080510168</ele>
        <time>2018-09-22T07:53:02.991Z</time>
      </trkpt>
      <trkpt lat="46.22998" lon="10.50865">
        <ele>2175.0132211447</ele>
        <time>2018-09-22T07:53:10.987Z</time>
      </trkpt>
      <trkpt lat="46.23007" lon="10.50863">
        <ele>2173.4142850152</ele>
        <time>2018-09-22T07:53:19.001Z</time>
      </trkpt>
      <trkpt lat="46.23016" lon="10.50864">
        <ele>2170.62959872</ele>
        <time>2018-09-22T07:53:26.986Z</time>
      </trkpt>
      <trkpt lat="46.23011" lon="10.50851">
        <ele>2165.8284574502</ele>
        <time>2018-09-22T07:53:46.988Z</time>
      </trkpt>
      <trkpt lat="46.23004" lon="10.50843">
        <ele>2163.0526303516</ele>
        <time>2018-09-22T07:53:55.990Z</time>
      </trkpt>
      <trkpt lat="46.22996" lon="10.50834">
        <ele>2160.81479936</ele>
        <time>2018-09-22T07:54:01.986Z</time>
      </trkpt>
      <trkpt lat="46.2299" lon="10.50826">
        <ele>2159.41179904</ele>
        <time>2018-09-22T07:54:09.001Z</time>
      </trkpt>
      <trkpt lat="46.22982" lon="10.50817">
        <ele>2156.7577529559</ele>
        <time>2018-09-22T07:54:21.987Z</time>
      </trkpt>
      <trkpt lat="46.22975" lon="10.50807">
        <ele>2153.7323691823</ele>
        <time>2018-09-22T07:54:31.986Z</time>
      </trkpt>
      <trkpt lat="46.22968" lon="10.50797">
        <ele>2151.4202318796</ele>
        <time>2018-09-22T07:54:39.986Z</time>
      </trkpt>
      <trkpt lat="46.2296" lon="10.5079">
        <ele>2149.846359981</ele>
        <time>2018-09-22T07:54:46.989Z</time>
      </trkpt>
      <trkpt lat="46.22953" lon="10.50781">
        <ele>2148.62959872</ele>
        <time>2018-09-22T07:54:51.986Z</time>
      </trkpt>
      <trkpt lat="46.22947" lon="10.5077">
        <ele>2145.82319872</ele>
        <time>2018-09-22T07:54:59.002Z</time>
      </trkpt>
      <trkpt lat="46.22941" lon="10.50761">
        <ele>2144.01479936</ele>
        <time>2018-09-22T07:55:05.986Z</time>
      </trkpt>
      <trkpt lat="46.22934" lon="10.50751">
        <ele>2142.72219904</ele>
        <time>2018-09-22T07:55:11.986Z</time>
      </trkpt>
      <trkpt lat="46.22927" lon="10.50742">
        <ele>2140.62219904</ele>
        <time>2018-09-22T07:55:18.986Z</time>
      </trkpt>
      <trkpt lat="46.22919" lon="10.50733">
        <ele>2139.01399808</ele>
        <time>2018-09-22T07:55:25.990Z</time>
      </trkpt>
      <trkpt lat="46.22912" lon="10.50724">
        <ele>2138.01439744</ele>
        <time>2018-09-22T07:55:30.988Z</time>
      </trkpt>
      <trkpt lat="46.22905" lon="10.50715">
        <ele>2137.2124125641</ele>
        <time>2018-09-22T07:55:38.991Z</time>
      </trkpt>
      <trkpt lat="46.22904" lon="10.50702">
        <ele>2135.8203423389</ele>
        <time>2018-09-22T07:55:46.987Z</time>
      </trkpt>
      <trkpt lat="46.22914" lon="10.507">
        <ele>2135</ele>
        <time>2018-09-22T07:56:27.987Z</time>
      </trkpt>
      <trkpt lat="46.22922" lon="10.50695">
        <ele>2133.81739904</ele>
        <time>2018-09-22T07:56:35.002Z</time>
      </trkpt>
      <trkpt lat="46.22929" lon="10.50686">
        <ele>2131.8137984</ele>
        <time>2018-09-22T07:56:41.991Z</time>
      </trkpt>
      <trkpt lat="46.22933" lon="10.50673">
        <ele>2129.7234631455</ele>
        <time>2018-09-22T07:56:51.991Z</time>
      </trkpt>
      <trkpt lat="46.22933" lon="10.50657">
        <ele>2127.6442565422</ele>
        <time>2018-09-22T07:56:58.991Z</time>
      </trkpt>
      <trkpt lat="46.22942" lon="10.50665">
        <ele>2121.8547606349</ele>
        <time>2018-09-22T07:57:18.986Z</time>
      </trkpt>
      <trkpt lat="46.22942" lon="10.5068">
        <ele>2120.5113909677</ele>
        <time>2018-09-22T07:57:25.987Z</time>
      </trkpt>
      <trkpt lat="46.22942" lon="10.50694">
        <ele>2119.131157545</ele>
        <time>2018-09-22T07:57:33.988Z</time>
      </trkpt>
      <trkpt lat="46.22946" lon="10.50706">
        <ele>2116.7539699284</ele>
        <time>2018-09-22T07:57:41.986Z</time>
      </trkpt>
      <trkpt lat="46.22955" lon="10.50715">
        <ele>2114.9437173246</ele>
        <time>2018-09-22T07:57:47.990Z</time>
      </trkpt>
      <trkpt lat="46.22964" lon="10.50723">
        <ele>2112.8286717609</ele>
        <time>2018-09-22T07:57:55.001Z</time>
      </trkpt>
      <trkpt lat="46.22972" lon="10.50731">
        <ele>2111.0223330526</ele>
        <time>2018-09-22T07:58:00.986Z</time>
      </trkpt>
      <trkpt lat="46.2298" lon="10.50737">
        <ele>2109.61459968</ele>
        <time>2018-09-22T07:58:07.987Z</time>
      </trkpt>
      <trkpt lat="46.22989" lon="10.50743">
        <ele>2107.2406500524</ele>
        <time>2018-09-22T07:58:16.989Z</time>
      </trkpt>
      <trkpt lat="46.22998" lon="10.50749">
        <ele>2105.2702817671</ele>
        <time>2018-09-22T07:58:22.987Z</time>
      </trkpt>
      <trkpt lat="46.23007" lon="10.50754">
        <ele>2102.8598361446</ele>
        <time>2018-09-22T07:58:28.989Z</time>
      </trkpt>
      <trkpt lat="46.23016" lon="10.50754">
        <ele>2100.4175224709</ele>
        <time>2018-09-22T07:58:38.987Z</time>
      </trkpt>
      <trkpt lat="46.23025" lon="10.50756">
        <ele>2099.4068992</ele>
        <time>2018-09-22T07:58:46.991Z</time>
      </trkpt>
      <trkpt lat="46.23035" lon="10.50754">
        <ele>2097.42319872</ele>
        <time>2018-09-22T07:58:55.002Z</time>
      </trkpt>
      <trkpt lat="46.23044" lon="10.50749">
        <ele>2094.12189952</ele>
        <time>2018-09-22T07:59:03.987Z</time>
      </trkpt>
      <trkpt lat="46.23054" lon="10.50746">
        <ele>2092.31739904</ele>
        <time>2018-09-22T07:59:10.002Z</time>
      </trkpt>
      <trkpt lat="46.23063" lon="10.50742">
        <ele>2091.01459968</ele>
        <time>2018-09-22T07:59:15.987Z</time>
      </trkpt>
      <trkpt lat="46.23073" lon="10.50737">
        <ele>2089.4192457143</ele>
        <time>2018-09-22T07:59:23.987Z</time>
      </trkpt>
      <trkpt lat="46.23081" lon="10.50733">
        <ele>2088.4271822222</ele>
        <time>2018-09-22T07:59:28.987Z</time>
      </trkpt>
      <trkpt lat="46.2309" lon="10.50728">
        <ele>2086.8320554839</ele>
        <time>2018-09-22T07:59:35.002Z</time>
      </trkpt>
      <trkpt lat="46.231" lon="10.50725">
        <ele>2084.8142282192</ele>
        <time>2018-09-22T07:59:42.000Z</time>
      </trkpt>
      <trkpt lat="46.2311" lon="10.50721">
        <ele>2083.4334008748</ele>
        <time>2018-09-22T07:59:48.987Z</time>
      </trkpt>
      <trkpt lat="46.2312" lon="10.50716">
        <ele>2082.5144452619</ele>
        <time>2018-09-22T07:59:55.987Z</time>
      </trkpt>
      <trkpt lat="46.23128" lon="10.5071">
        <ele>2082.0093944303</ele>
        <time>2018-09-22T08:00:00.987Z</time>
      </trkpt>
      <trkpt lat="46.23137" lon="10.50705">
        <ele>2080.2243490016</ele>
        <time>2018-09-22T08:00:06.987Z</time>
      </trkpt>
      <trkpt lat="46.23144" lon="10.50695">
        <ele>2077.82919936</ele>
        <time>2018-09-22T08:00:13.987Z</time>
      </trkpt>
      <trkpt lat="46.23154" lon="10.50689">
        <ele>2075.02919936</ele>
        <time>2018-09-22T08:00:20.987Z</time>
      </trkpt>
      <trkpt lat="46.23162" lon="10.50681">
        <ele>2072.91739904</ele>
        <time>2018-09-22T08:00:28.002Z</time>
      </trkpt>
      <trkpt lat="46.23172" lon="10.50675">
        <ele>2071.01459968</ele>
        <time>2018-09-22T08:00:35.987Z</time>
      </trkpt>
      <trkpt lat="46.23181" lon="10.50671">
        <ele>2069.72189952</ele>
        <time>2018-09-22T08:00:41.987Z</time>
      </trkpt>
      <trkpt lat="46.23191" lon="10.50665">
        <ele>2067.62189952</ele>
        <time>2018-09-22T08:00:48.987Z</time>
      </trkpt>
      <trkpt lat="46.23198" lon="10.50656">
        <ele>2064.6266866271</ele>
        <time>2018-09-22T08:00:55.987Z</time>
      </trkpt>
      <trkpt lat="46.23206" lon="10.50649">
        <ele>2061.8862795085</ele>
        <time>2018-09-22T08:01:01.987Z</time>
      </trkpt>
      <trkpt lat="46.23216" lon="10.50642">
        <ele>2060.4309770851</ele>
        <time>2018-09-22T08:01:08.987Z</time>
      </trkpt>
      <trkpt lat="46.23225" lon="10.50635">
        <ele>2058.52189952</ele>
        <time>2018-09-22T08:01:15.987Z</time>
      </trkpt>
      <trkpt lat="46.23232" lon="10.50626">
        <ele>2056.1305941351</ele>
        <time>2018-09-22T08:01:23.987Z</time>
      </trkpt>
      <trkpt lat="46.23239" lon="10.50616">
        <ele>2054.3484170465</ele>
        <time>2018-09-22T08:01:29.987Z</time>
      </trkpt>
      <trkpt lat="46.23247" lon="10.50607">
        <ele>2051.0732915663</ele>
        <time>2018-09-22T08:01:36.990Z</time>
      </trkpt>
      <trkpt lat="46.23253" lon="10.50594">
        <ele>2048.2447275</ele>
        <time>2018-09-22T08:01:44.987Z</time>
      </trkpt>
      <trkpt lat="46.23258" lon="10.50583">
        <ele>2047.072655</ele>
        <time>2018-09-22T08:01:50.988Z</time>
      </trkpt>
      <trkpt lat="46.23264" lon="10.50572">
        <ele>2045.2596910579</ele>
        <time>2018-09-22T08:01:56.987Z</time>
      </trkpt>
      <trkpt lat="46.23269" lon="10.50561">
        <ele>2043.7072</ele>
        <time>2018-09-22T08:02:03.988Z</time>
      </trkpt>
      <trkpt lat="46.23276" lon="10.5055">
        <ele>2043.00729984</ele>
        <time>2018-09-22T08:02:10.987Z</time>
      </trkpt>
      <trkpt lat="46.23283" lon="10.50543">
        <ele>2042.0433012547</ele>
        <time>2018-09-22T08:02:15.987Z</time>
      </trkpt>
      <trkpt lat="46.23292" lon="10.50538">
        <ele>2041.0724280715</ele>
        <time>2018-09-22T08:02:20.987Z</time>
      </trkpt>
      <trkpt lat="46.233" lon="10.50531">
        <ele>2039.839173832</ele>
        <time>2018-09-22T08:02:26.990Z</time>
      </trkpt>
      <trkpt lat="46.23309" lon="10.50524">
        <ele>2038.4175126758</ele>
        <time>2018-09-22T08:02:33.987Z</time>
      </trkpt>
      <trkpt lat="46.23318" lon="10.50517">
        <ele>2037.0244791806</ele>
        <time>2018-09-22T08:02:40.987Z</time>
      </trkpt>
      <trkpt lat="46.23327" lon="10.50515">
        <ele>2035.0377876948</ele>
        <time>2018-09-22T08:02:45.991Z</time>
      </trkpt>
      <trkpt lat="46.23337" lon="10.50515">
        <ele>2032.4192</ele>
        <time>2018-09-22T08:02:52.996Z</time>
      </trkpt>
      <trkpt lat="46.23346" lon="10.50516">
        <ele>2030.62189952</ele>
        <time>2018-09-22T08:02:58.987Z</time>
      </trkpt>
      <trkpt lat="46.23355" lon="10.50515">
        <ele>2029.2137984</ele>
        <time>2018-09-22T08:03:04.991Z</time>
      </trkpt>
      <trkpt lat="46.23365" lon="10.50517">
        <ele>2027.6328708861</ele>
        <time>2018-09-22T08:03:11.987Z</time>
      </trkpt>
      <trkpt lat="46.23376" lon="10.50515">
        <ele>2024.8605954151</ele>
        <time>2018-09-22T08:03:18.987Z</time>
      </trkpt>
      <trkpt lat="46.23385" lon="10.50512">
        <ele>2022.25190144</ele>
        <time>2018-09-22T08:03:26.987Z</time>
      </trkpt>
      <trkpt lat="46.23393" lon="10.50503">
        <ele>2020.1502012987</ele>
        <time>2018-09-22T08:03:33.987Z</time>
      </trkpt>
      <trkpt lat="46.23402" lon="10.505">
        <ele>2018.3468930481</ele>
        <time>2018-09-22T08:03:39.986Z</time>
      </trkpt>
      <trkpt lat="46.23411" lon="10.50496">
        <ele>2016.6167329032</ele>
        <time>2018-09-22T08:03:48.001Z</time>
      </trkpt>
      <trkpt lat="46.23419" lon="10.5049">
        <ele>2014.5791263198</ele>
        <time>2018-09-22T08:03:53.987Z</time>
      </trkpt>
      <trkpt lat="46.23427" lon="10.50481">
        <ele>2011.1796099855</ele>
        <time>2018-09-22T08:04:00.990Z</time>
      </trkpt>
      <trkpt lat="46.23434" lon="10.5047">
        <ele>2010.33580032</ele>
        <time>2018-09-22T08:04:08.002Z</time>
      </trkpt>
      <trkpt lat="46.23442" lon="10.50464">
        <ele>2009.4915576019</ele>
        <time>2018-09-22T08:04:13.026Z</time>
      </trkpt>
      <trkpt lat="46.23451" lon="10.50457">
        <ele>2007.36622572</ele>
        <time>2018-09-22T08:04:19.990Z</time>
      </trkpt>
      <trkpt lat="46.23459" lon="10.50451">
        <ele>2005.5422497675</ele>
        <time>2018-09-22T08:04:25.986Z</time>
      </trkpt>
      <trkpt lat="46.23469" lon="10.5045">
        <ele>2004</ele>
        <time>2018-09-22T08:04:31.987Z</time>
      </trkpt>
      <trkpt lat="46.23477" lon="10.50441">
        <ele>2004</ele>
        <time>2018-09-22T08:04:39.987Z</time>
      </trkpt>
      <trkpt lat="46.23485" lon="10.50433">
        <ele>1999.8685848866</ele>
        <time>2018-09-22T08:04:47.997Z</time>
      </trkpt>
      <trkpt lat="46.23494" lon="10.50427">
        <ele>1997.1356478181</ele>
        <time>2018-09-22T08:04:53.991Z</time>
      </trkpt>
      <trkpt lat="46.23503" lon="10.50423">
        <ele>1995.6256765763</ele>
        <time>2018-09-22T08:04:58.989Z</time>
      </trkpt>
      <trkpt lat="46.23513" lon="10.50421">
        <ele>1994.6102171429</ele>
        <time>2018-09-22T08:05:04.989Z</time>
      </trkpt>
      <trkpt lat="46.23523" lon="10.50423">
        <ele>1994.0147809524</ele>
        <time>2018-09-22T08:05:10.991Z</time>
      </trkpt>
      <trkpt lat="46.23532" lon="10.50418">
        <ele>1992.24589952</ele>
        <time>2018-09-22T08:05:16.987Z</time>
      </trkpt>
      <trkpt lat="46.23541" lon="10.50412">
        <ele>1989.8365922581</ele>
        <time>2018-09-22T08:05:24.987Z</time>
      </trkpt>
      <trkpt lat="46.2355" lon="10.50408">
        <ele>1988.0208645161</ele>
        <time>2018-09-22T08:05:30.991Z</time>
      </trkpt>
      <trkpt lat="46.2356" lon="10.50405">
        <ele>1988</ele>
        <time>2018-09-22T08:05:38.001Z</time>
      </trkpt>
      <trkpt lat="46.23567" lon="10.50396">
        <ele>1986.0288</ele>
        <time>2018-09-22T08:05:45.988Z</time>
      </trkpt>
      <trkpt lat="46.23575" lon="10.5039">
        <ele>1983.7273789276</ele>
        <time>2018-09-22T08:05:51.986Z</time>
      </trkpt>
      <trkpt lat="46.23587" lon="10.50384">
        <ele>1981.0736006049</ele>
        <time>2018-09-22T08:06:01.000Z</time>
      </trkpt>
      <trkpt lat="46.23595" lon="10.50377">
        <ele>1979.8305806583</ele>
        <time>2018-09-22T08:06:06.986Z</time>
      </trkpt>
      <trkpt lat="46.23604" lon="10.50371">
        <ele>1978.61419776</ele>
        <time>2018-09-22T08:06:12.989Z</time>
      </trkpt>
      <trkpt lat="46.23612" lon="10.50364">
        <ele>1977.01439744</ele>
        <time>2018-09-22T08:06:20.988Z</time>
      </trkpt>
      <trkpt lat="46.23622" lon="10.50362">
        <ele>1976.4139327571</ele>
        <time>2018-09-22T08:06:26.991Z</time>
      </trkpt>
      <trkpt lat="46.23631" lon="10.50359">
        <ele>1974.2929156831</ele>
        <time>2018-09-22T08:06:33.991Z</time>
      </trkpt>
      <trkpt lat="46.23641" lon="10.50357">
        <ele>1970.5829967067</ele>
        <time>2018-09-22T08:06:40.100Z</time>
      </trkpt>
      <trkpt lat="46.23651" lon="10.50355">
        <ele>1968.04906707</ele>
        <time>2018-09-22T08:06:51.000Z</time>
      </trkpt>
      <trkpt lat="46.2366" lon="10.50348">
        <ele>1966.265559139</ele>
        <time>2018-09-22T08:06:56.991Z</time>
      </trkpt>
      <trkpt lat="46.23669" lon="10.50342">
        <ele>1964.4291503536</ele>
        <time>2018-09-22T08:07:04.000Z</time>
      </trkpt>
      <trkpt lat="46.23679" lon="10.5034">
        <ele>1963.2163954221</ele>
        <time>2018-09-22T08:07:09.991Z</time>
      </trkpt>
      <trkpt lat="46.23689" lon="10.50337">
        <ele>1961.6500483528</ele>
        <time>2018-09-22T08:07:18.100Z</time>
      </trkpt>
      <trkpt lat="46.23691" lon="10.50322">
        <ele>1960.5246635522</ele>
        <time>2018-09-22T08:07:23.019Z</time>
      </trkpt>
      <trkpt lat="46.237" lon="10.50314">
        <ele>1958.6687014031</ele>
        <time>2018-09-22T08:07:28.989Z</time>
      </trkpt>
      <trkpt lat="46.23709" lon="10.50312">
        <ele>1956.8326593548</ele>
        <time>2018-09-22T08:07:35.000Z</time>
      </trkpt>
      <trkpt lat="46.23718" lon="10.50308">
        <ele>1954.81479936</ele>
        <time>2018-09-22T08:07:41.986Z</time>
      </trkpt>
      <trkpt lat="46.23728" lon="10.50309">
        <ele>1953.81199872</ele>
        <time>2018-09-22T08:07:47.000Z</time>
      </trkpt>
      <trkpt lat="46.23736" lon="10.50315">
        <ele>1953</ele>
        <time>2018-09-22T08:07:51.986Z</time>
      </trkpt>
      <trkpt lat="46.23746" lon="10.50317">
        <ele>1953</ele>
        <time>2018-09-22T08:07:58.989Z</time>
      </trkpt>
      <trkpt lat="46.23756" lon="10.5032">
        <ele>1951.0418511336</ele>
        <time>2018-09-22T08:08:05.986Z</time>
      </trkpt>
      <trkpt lat="46.23767" lon="10.50318">
        <ele>1948.7071710506</ele>
        <time>2018-09-22T08:08:14.000Z</time>
      </trkpt>
      <trkpt lat="46.23776" lon="10.50314">
        <ele>1948.0113555234</ele>
        <time>2018-09-22T08:08:20.986Z</time>
      </trkpt>
      <trkpt lat="46.23785" lon="10.50317">
        <ele>1945.2293156361</ele>
        <time>2018-09-22T08:08:27.999Z</time>
      </trkpt>
      <trkpt lat="46.23794" lon="10.50321">
        <ele>1943.709801372</ele>
        <time>2018-09-22T08:08:33.991Z</time>
      </trkpt>
      <trkpt lat="46.23803" lon="10.50322">
        <ele>1943.0170290585</ele>
        <time>2018-09-22T08:08:40.988Z</time>
      </trkpt>
      <trkpt lat="46.23796" lon="10.50309">
        <ele>1938.0701371191</ele>
        <time>2018-09-22T08:08:51.000Z</time>
      </trkpt>
      <trkpt lat="46.23788" lon="10.50304">
        <ele>1935.647651247</ele>
        <time>2018-09-22T08:08:58.989Z</time>
      </trkpt>
      <trkpt lat="46.23779" lon="10.50298">
        <ele>1934.6243904388</ele>
        <time>2018-09-22T08:09:05.000Z</time>
      </trkpt>
      <trkpt lat="46.23771" lon="10.50291">
        <ele>1934.0390244024</ele>
        <time>2018-09-22T08:09:11.000Z</time>
      </trkpt>
      <trkpt lat="46.23762" lon="10.50288">
        <ele>1933.3187185709</ele>
        <time>2018-09-22T08:09:17.988Z</time>
      </trkpt>
      <trkpt lat="46.23753" lon="10.5028">
        <ele>1931.0330327445</ele>
        <time>2018-09-22T08:09:25.000Z</time>
      </trkpt>
      <trkpt lat="46.23745" lon="10.5027">
        <ele>1928.0355299641</ele>
        <time>2018-09-22T08:09:30.989Z</time>
      </trkpt>
      <trkpt lat="46.23737" lon="10.50261">
        <ele>1926.61399808</ele>
        <time>2018-09-22T08:09:37.990Z</time>
      </trkpt>
      <trkpt lat="46.23729" lon="10.50255">
        <ele>1925.80599936</ele>
        <time>2018-09-22T08:09:43.000Z</time>
      </trkpt>
      <trkpt lat="46.2372" lon="10.5025">
        <ele>1925.10599936</ele>
        <time>2018-09-22T08:09:50.000Z</time>
      </trkpt>
      <trkpt lat="46.23711" lon="10.50246">
        <ele>1923.0435630615</ele>
        <time>2018-09-22T08:09:56.000Z</time>
      </trkpt>
      <trkpt lat="46.23702" lon="10.5024">
        <ele>1920.8327284575</ele>
        <time>2018-09-22T08:10:01.988Z</time>
      </trkpt>
      <trkpt lat="46.23691" lon="10.50239">
        <ele>1919.4161605923</ele>
        <time>2018-09-22T08:10:09.000Z</time>
      </trkpt>
      <trkpt lat="46.23682" lon="10.50237">
        <ele>1918.01199872</ele>
        <time>2018-09-22T08:10:16.000Z</time>
      </trkpt>
      <trkpt lat="46.23673" lon="10.50233">
        <ele>1916.7296243207</ele>
        <time>2018-09-22T08:10:22.000Z</time>
      </trkpt>
      <trkpt lat="46.23664" lon="10.50233">
        <ele>1914.7162021197</ele>
        <time>2018-09-22T08:10:29.000Z</time>
      </trkpt>
      <trkpt lat="46.23654" lon="10.50231">
        <ele>1912.5862054207</ele>
        <time>2018-09-22T08:10:36.000Z</time>
      </trkpt>
      <trkpt lat="46.23645" lon="10.50228">
        <ele>1910.61199872</ele>
        <time>2018-09-22T08:10:43.000Z</time>
      </trkpt>
      <trkpt lat="46.23636" lon="10.50226">
        <ele>1909.41199872</ele>
        <time>2018-09-22T08:10:49.000Z</time>
      </trkpt>
      <trkpt lat="46.23627" lon="10.50224">
        <ele>1908.41199872</ele>
        <time>2018-09-22T08:10:54.000Z</time>
      </trkpt>
      <trkpt lat="46.23618" lon="10.50222">
        <ele>1907.21199872</ele>
        <time>2018-09-22T08:11:00.000Z</time>
      </trkpt>
      <trkpt lat="46.23609" lon="10.5022">
        <ele>1907</ele>
        <time>2018-09-22T08:11:06.000Z</time>
      </trkpt>
      <trkpt lat="46.236" lon="10.50219">
        <ele>1906.71799808</ele>
        <time>2018-09-22T08:11:12.000Z</time>
      </trkpt>
      <trkpt lat="46.23591" lon="10.50213">
        <ele>1904.61799808</ele>
        <time>2018-09-22T08:11:19.000Z</time>
      </trkpt>
      <trkpt lat="46.23582" lon="10.50209">
        <ele>1903.2121984</ele>
        <time>2018-09-22T08:11:24.999Z</time>
      </trkpt>
      <trkpt lat="46.23572" lon="10.50203">
        <ele>1902.01199872</ele>
        <time>2018-09-22T08:11:31.000Z</time>
      </trkpt>
      <trkpt lat="46.23562" lon="10.50197">
        <ele>1899.6428546032</ele>
        <time>2018-09-22T08:11:37.000Z</time>
      </trkpt>
      <trkpt lat="46.23555" lon="10.50188">
        <ele>1897.4233858064</ele>
        <time>2018-09-22T08:11:44.000Z</time>
      </trkpt>
      <trkpt lat="46.23549" lon="10.50178">
        <ele>1896.2137083871</ele>
        <time>2018-09-22T08:11:50.000Z</time>
      </trkpt>
      <trkpt lat="46.23541" lon="10.50166">
        <ele>1894.52129664</ele>
        <time>2018-09-22T08:11:55.989Z</time>
      </trkpt>
      <trkpt lat="46.23533" lon="10.50158">
        <ele>1892.70599936</ele>
        <time>2018-09-22T08:12:04.000Z</time>
      </trkpt>
      <trkpt lat="46.23524" lon="10.50149">
        <ele>1892.00709888</ele>
        <time>2018-09-22T08:12:10.989Z</time>
      </trkpt>
      <trkpt lat="46.23516" lon="10.50144">
        <ele>1890.81199872</ele>
        <time>2018-09-22T08:12:17.000Z</time>
      </trkpt>
      <trkpt lat="46.23505" lon="10.50139">
        <ele>1888.51799808</ele>
        <time>2018-09-22T08:12:26.000Z</time>
      </trkpt>
      <trkpt lat="46.23495" lon="10.50138">
        <ele>1886.61199872</ele>
        <time>2018-09-22T08:12:33.000Z</time>
      </trkpt>
      <trkpt lat="46.23486" lon="10.50137">
        <ele>1885.01399808</ele>
        <time>2018-09-22T08:12:40.990Z</time>
      </trkpt>
      <trkpt lat="46.23476" lon="10.50134">
        <ele>1883.8214273016</ele>
        <time>2018-09-22T08:12:47.000Z</time>
      </trkpt>
      <trkpt lat="46.23466" lon="10.50133">
        <ele>1882.4374980645</ele>
        <time>2018-09-22T08:12:53.000Z</time>
      </trkpt>
      <trkpt lat="46.23458" lon="10.50128">
        <ele>1880.3238877419</ele>
        <time>2018-09-22T08:12:59.989Z</time>
      </trkpt>
      <trkpt lat="46.23467" lon="10.50122">
        <ele>1879.2132926984</ele>
        <time>2018-09-22T08:13:08.990Z</time>
      </trkpt>
      <trkpt lat="46.23476" lon="10.50116">
        <ele>1878.02016</ele>
        <time>2018-09-22T08:13:16.000Z</time>
      </trkpt>
      <trkpt lat="46.23485" lon="10.50108">
        <ele>1876.72099712</ele>
        <time>2018-09-22T08:13:21.990Z</time>
      </trkpt>
      <trkpt lat="46.23494" lon="10.50101">
        <ele>1874.6206976</ele>
        <time>2018-09-22T08:13:28.991Z</time>
      </trkpt>
      <trkpt lat="46.23504" lon="10.50098">
        <ele>1872.5669243633</ele>
        <time>2018-09-22T08:13:35.985Z</time>
      </trkpt>
      <trkpt lat="46.23511" lon="10.50091">
        <ele>1870.8722377287</ele>
        <time>2018-09-22T08:13:41.989Z</time>
      </trkpt>
      <trkpt lat="46.23517" lon="10.50079">
        <ele>1869.4276548781</ele>
        <time>2018-09-22T08:13:48.988Z</time>
      </trkpt>
      <trkpt lat="46.23527" lon="10.50077">
        <ele>1867.5216</ele>
        <time>2018-09-22T08:13:55.988Z</time>
      </trkpt>
      <trkpt lat="46.23535" lon="10.5007">
        <ele>1866.02159616</ele>
        <time>2018-09-22T08:14:00.988Z</time>
      </trkpt>
      <trkpt lat="46.23542" lon="10.50061">
        <ele>1865.40709888</ele>
        <time>2018-09-22T08:14:06.989Z</time>
      </trkpt>
      <trkpt lat="46.23552" lon="10.50057">
        <ele>1864.4258895238</ele>
        <time>2018-09-22T08:14:12.989Z</time>
      </trkpt>
      <trkpt lat="46.23562" lon="10.50061">
        <ele>1862.6398780952</ele>
        <time>2018-09-22T08:14:18.990Z</time>
      </trkpt>
      <trkpt lat="46.23571" lon="10.50061">
        <ele>1860.8326593548</ele>
        <time>2018-09-22T08:14:25.000Z</time>
      </trkpt>
      <trkpt lat="46.2358" lon="10.50055">
        <ele>1858.81419776</ele>
        <time>2018-09-22T08:14:31.989Z</time>
      </trkpt>
      <trkpt lat="46.23589" lon="10.50052">
        <ele>1857.61399808</ele>
        <time>2018-09-22T08:14:37.990Z</time>
      </trkpt>
      <trkpt lat="46.23596" lon="10.50044">
        <ele>1856.12099712</ele>
        <time>2018-09-22T08:14:43.990Z</time>
      </trkpt>
      <trkpt lat="46.23603" lon="10.50034">
        <ele>1854.02129664</ele>
        <time>2018-09-22T08:14:50.989Z</time>
      </trkpt>
      <trkpt lat="46.23612" lon="10.50028">
        <ele>1851.22839552</ele>
        <time>2018-09-22T08:14:57.989Z</time>
      </trkpt>
      <trkpt lat="46.23621" lon="10.50026">
        <ele>1850</ele>
        <time>2018-09-22T08:15:02.989Z</time>
      </trkpt>
      <trkpt lat="46.2363" lon="10.50022">
        <ele>1850</ele>
        <time>2018-09-22T08:15:08.990Z</time>
      </trkpt>
      <trkpt lat="46.23639" lon="10.50019">
        <ele>1848.8256023462</ele>
        <time>2018-09-22T08:15:14.999Z</time>
      </trkpt>
      <trkpt lat="46.2365" lon="10.50018">
        <ele>1846.62799616</ele>
        <time>2018-09-22T08:15:21.990Z</time>
      </trkpt>
      <trkpt lat="46.23659" lon="10.50017">
        <ele>1844.62799616</ele>
        <time>2018-09-22T08:15:26.990Z</time>
      </trkpt>
      <trkpt lat="46.23668" lon="10.50016">
        <ele>1842.61399808</ele>
        <time>2018-09-22T08:15:32.990Z</time>
      </trkpt>
      <trkpt lat="46.23679" lon="10.50016">
        <ele>1841.01399808</ele>
        <time>2018-09-22T08:15:40.990Z</time>
      </trkpt>
      <trkpt lat="46.23688" lon="10.50017">
        <ele>1840.0429110413</ele>
        <time>2018-09-22T08:15:45.989Z</time>
      </trkpt>
      <trkpt lat="46.23697" lon="10.50012">
        <ele>1839.0718439942</ele>
        <time>2018-09-22T08:15:50.990Z</time>
      </trkpt>
      <trkpt lat="46.23707" lon="10.50015">
        <ele>1836.6783476641</ele>
        <time>2018-09-22T08:15:56.990Z</time>
      </trkpt>
      <trkpt lat="46.23717" lon="10.50017">
        <ele>1834.4218753197</ele>
        <time>2018-09-22T08:16:02.989Z</time>
      </trkpt>
      <trkpt lat="46.23727" lon="10.50021">
        <ele>1832.6233760255</ele>
        <time>2018-09-22T08:16:08.990Z</time>
      </trkpt>
      <trkpt lat="46.23736" lon="10.50024">
        <ele>1830.8279197325</ele>
        <time>2018-09-22T08:16:16.989Z</time>
      </trkpt>
      <trkpt lat="46.23745" lon="10.50026">
        <ele>1829.7482294838</ele>
        <time>2018-09-22T08:16:22.000Z</time>
      </trkpt>
      <trkpt lat="46.23754" lon="10.50028">
        <ele>1827.6279042679</ele>
        <time>2018-09-22T08:16:28.990Z</time>
      </trkpt>
      <trkpt lat="46.23764" lon="10.50029">
        <ele>1826.0266525315</ele>
        <time>2018-09-22T08:16:35.990Z</time>
      </trkpt>
      <trkpt lat="46.23774" lon="10.50026">
        <ele>1824.449360692</ele>
        <time>2018-09-22T08:16:43.990Z</time>
      </trkpt>
      <trkpt lat="46.23784" lon="10.50028">
        <ele>1823.0727624221</ele>
        <time>2018-09-22T08:16:50.990Z</time>
      </trkpt>
      <trkpt lat="46.23793" lon="10.50028">
        <ele>1820.7026491551</ele>
        <time>2018-09-22T08:16:57.000Z</time>
      </trkpt>
      <trkpt lat="46.23803" lon="10.50029">
        <ele>1818.7145751768</ele>
        <time>2018-09-22T08:17:04.000Z</time>
      </trkpt>
      <trkpt lat="46.23812" lon="10.50028">
        <ele>1818.0070840578</ele>
        <time>2018-09-22T08:17:10.990Z</time>
      </trkpt>
      <trkpt lat="46.23822" lon="10.50031">
        <ele>1816.81199872</ele>
        <time>2018-09-22T08:17:17.000Z</time>
      </trkpt>
      <trkpt lat="46.23831" lon="10.50034">
        <ele>1815.12099712</ele>
        <time>2018-09-22T08:17:23.990Z</time>
      </trkpt>
      <trkpt lat="46.23839" lon="10.50041">
        <ele>1813.91799808</ele>
        <time>2018-09-22T08:17:28.000Z</time>
      </trkpt>
      <trkpt lat="46.23849" lon="10.50048">
        <ele>1812.3894976</ele>
        <time>2018-09-22T08:17:33.095Z</time>
      </trkpt>
      <trkpt lat="46.23858" lon="10.5005">
        <ele>1809.42099712</ele>
        <time>2018-09-22T08:17:42.990Z</time>
      </trkpt>
      <trkpt lat="46.23868" lon="10.50051">
        <ele>1807.3216</ele>
        <time>2018-09-22T08:17:49.988Z</time>
      </trkpt>
      <trkpt lat="46.23877" lon="10.50051">
        <ele>1804.258157307</ele>
        <time>2018-09-22T08:17:57.990Z</time>
      </trkpt>
      <trkpt lat="46.23886" lon="10.50044">
        <ele>1802.7148627591</ele>
        <time>2018-09-22T08:18:03.990Z</time>
      </trkpt>
      <trkpt lat="46.23894" lon="10.50041">
        <ele>1802.1082901058</ele>
        <time>2018-09-22T08:18:09.989Z</time>
      </trkpt>
      <trkpt lat="46.23904" lon="10.50037">
        <ele>1799.92129664</ele>
        <time>2018-09-22T08:18:17.989Z</time>
      </trkpt>
      <trkpt lat="46.23914" lon="10.50035">
        <ele>1798.41419776</ele>
        <time>2018-09-22T08:18:23.989Z</time>
      </trkpt>
      <trkpt lat="46.23923" lon="10.50031">
        <ele>1796.72129664</ele>
        <time>2018-09-22T08:18:31.989Z</time>
      </trkpt>
      <trkpt lat="46.23921" lon="10.50017">
        <ele>1792.8259941661</ele>
        <time>2018-09-22T08:18:44.989Z</time>
      </trkpt>
      <trkpt lat="46.23918" lon="10.50005">
        <ele>1788</ele>
        <time>2018-09-22T08:19:06.988Z</time>
      </trkpt>
      <trkpt lat="46.23911" lon="10.49994">
        <ele>1787.0273972431</ele>
        <time>2018-09-22T08:20:21.000Z</time>
      </trkpt>
      <trkpt lat="46.23902" lon="10.4999">
        <ele>1787</ele>
        <time>2018-09-22T08:20:26.987Z</time>
      </trkpt>
      <trkpt lat="46.23892" lon="10.49988">
        <ele>1787.4870262592</ele>
        <time>2018-09-22T08:20:35.990Z</time>
      </trkpt>
      <trkpt lat="46.23883" lon="10.49988">
        <ele>1788.2890235775</ele>
        <time>2018-09-22T08:20:44.000Z</time>
      </trkpt>
      <trkpt lat="46.23874" lon="10.49986">
        <ele>1789</ele>
        <time>2018-09-22T08:20:53.000Z</time>
      </trkpt>
      <trkpt lat="46.23864" lon="10.49984">
        <ele>1789.18800128</ele>
        <time>2018-09-22T08:21:02.000Z</time>
      </trkpt>
      <trkpt lat="46.23856" lon="10.49977">
        <ele>1791.09300096</ele>
        <time>2018-09-22T08:21:11.990Z</time>
      </trkpt>
      <trkpt lat="46.23848" lon="10.49972">
        <ele>1791.89290112</ele>
        <time>2018-09-22T08:21:19.989Z</time>
      </trkpt>
      <trkpt lat="46.23839" lon="10.49966">
        <ele>1792</ele>
        <time>2018-09-22T08:21:29.000Z</time>
      </trkpt>
      <trkpt lat="46.2383" lon="10.49961">
        <ele>1792.5871292913</ele>
        <time>2018-09-22T08:21:36.990Z</time>
      </trkpt>
      <trkpt lat="46.23821" lon="10.49956">
        <ele>1793</ele>
        <time>2018-09-22T08:21:45.990Z</time>
      </trkpt>
      <trkpt lat="46.23811" lon="10.49951">
        <ele>1793.29400064</ele>
        <time>2018-09-22T08:21:54.000Z</time>
      </trkpt>
      <trkpt lat="46.23801" lon="10.49947">
        <ele>1794</ele>
        <time>2018-09-22T08:22:01.990Z</time>
      </trkpt>
      <trkpt lat="46.23793" lon="10.49942">
        <ele>1794</ele>
        <time>2018-09-22T08:22:09.000Z</time>
      </trkpt>
      <trkpt lat="46.23784" lon="10.4994">
        <ele>1794</ele>
        <time>2018-09-22T08:22:16.990Z</time>
      </trkpt>
      <trkpt lat="46.23774" lon="10.49936">
        <ele>1794</ele>
        <time>2018-09-22T08:22:23.998Z</time>
      </trkpt>
      <trkpt lat="46.23765" lon="10.49933">
        <ele>1794</ele>
        <time>2018-09-22T08:22:30.990Z</time>
      </trkpt>
      <trkpt lat="46.23756" lon="10.49929">
        <ele>1794</ele>
        <time>2018-09-22T08:22:37.988Z</time>
      </trkpt>
      <trkpt lat="46.23747" lon="10.49927">
        <ele>1794.3916840989</ele>
        <time>2018-09-22T08:22:44.989Z</time>
      </trkpt>
      <trkpt lat="46.23737" lon="10.49925">
        <ele>1795.29400064</ele>
        <time>2018-09-22T08:22:54.000Z</time>
      </trkpt>
      <trkpt lat="46.23728" lon="10.49924">
        <ele>1796.178504612</ele>
        <time>2018-09-22T08:23:01.990Z</time>
      </trkpt>
      <trkpt lat="46.23719" lon="10.49921">
        <ele>1797.907677907</ele>
        <time>2018-09-22T08:23:10.999Z</time>
      </trkpt>
      <trkpt lat="46.23709" lon="10.49918">
        <ele>1798</ele>
        <time>2018-09-22T08:23:18.990Z</time>
      </trkpt>
      <trkpt lat="46.23701" lon="10.49914">
        <ele>1798</ele>
        <time>2018-09-22T08:23:26.002Z</time>
      </trkpt>
      <trkpt lat="46.23692" lon="10.49907">
        <ele>1798</ele>
        <time>2018-09-22T08:23:33.990Z</time>
      </trkpt>
      <trkpt lat="46.23684" lon="10.49899">
        <ele>1798</ele>
        <time>2018-09-22T08:23:41.000Z</time>
      </trkpt>
      <trkpt lat="46.23675" lon="10.49893">
        <ele>1798.79300096</ele>
        <time>2018-09-22T08:23:48.990Z</time>
      </trkpt>
      <trkpt lat="46.23666" lon="10.49888">
        <ele>1799</ele>
        <time>2018-09-22T08:23:55.998Z</time>
      </trkpt>
      <trkpt lat="46.23659" lon="10.49877">
        <ele>1799</ele>
        <time>2018-09-22T08:24:03.990Z</time>
      </trkpt>
      <trkpt lat="46.23656" lon="10.49864">
        <ele>1799.1856</ele>
        <time>2018-09-22T08:24:11.988Z</time>
      </trkpt>
      <trkpt lat="46.23655" lon="10.49851">
        <ele>1801.9939008</ele>
        <time>2018-09-22T08:24:30.999Z</time>
      </trkpt>
      <trkpt lat="46.23654" lon="10.49838">
        <ele>1804.7856</ele>
        <time>2018-09-22T08:24:49.988Z</time>
      </trkpt>
      <trkpt lat="46.23655" lon="10.49824">
        <ele>1808.3840149764</ele>
        <time>2018-09-22T08:25:07.987Z</time>
      </trkpt>
      <trkpt lat="46.23657" lon="10.49811">
        <ele>1810.58600192</ele>
        <time>2018-09-22T08:25:23.990Z</time>
      </trkpt>
      <trkpt lat="46.23647" lon="10.49813">
        <ele>1812.89370112</ele>
        <time>2018-09-22T08:25:39.997Z</time>
      </trkpt>
      <trkpt lat="46.23638" lon="10.49815">
        <ele>1813</ele>
        <time>2018-09-22T08:25:49.997Z</time>
      </trkpt>
      <trkpt lat="46.23631" lon="10.49822">
        <ele>1814.5828352365</ele>
        <time>2018-09-22T08:25:58.990Z</time>
      </trkpt>
      <trkpt lat="46.23621" lon="10.49826">
        <ele>1815.8899200703</ele>
        <time>2018-09-22T08:26:09.997Z</time>
      </trkpt>
      <trkpt lat="46.23621" lon="10.49812">
        <ele>1817.7441725933</ele>
        <time>2018-09-22T08:26:24.999Z</time>
      </trkpt>
      <trkpt lat="46.23628" lon="10.49803">
        <ele>1819.7912309677</ele>
        <time>2018-09-22T08:26:38.989Z</time>
      </trkpt>
      <trkpt lat="46.23634" lon="10.49794">
        <ele>1820.78748829</ele>
        <time>2018-09-22T08:26:48.990Z</time>
      </trkpt>
      <trkpt lat="46.23642" lon="10.49786">
        <ele>1823.5717181878</ele>
        <time>2018-09-22T08:27:03.990Z</time>
      </trkpt>
      <trkpt lat="46.23646" lon="10.49775">
        <ele>1825.39300096</ele>
        <time>2018-09-22T08:27:14.990Z</time>
      </trkpt>
      <trkpt lat="46.23653" lon="10.49766">
        <ele>1826.6841069134</ele>
        <time>2018-09-22T08:27:27.990Z</time>
      </trkpt>
      <trkpt lat="46.23657" lon="10.49754">
        <ele>1828.7825735676</ele>
        <time>2018-09-22T08:27:39.987Z</time>
      </trkpt>
      <trkpt lat="46.23665" lon="10.49748">
        <ele>1831.8852292949</ele>
        <time>2018-09-22T08:28:00.000Z</time>
      </trkpt>
      <trkpt lat="46.23673" lon="10.49741">
        <ele>1834.39300096</ele>
        <time>2018-09-22T08:28:14.990Z</time>
      </trkpt>
      <trkpt lat="46.23679" lon="10.49731">
        <ele>1837.38600192</ele>
        <time>2018-09-22T08:28:32.990Z</time>
      </trkpt>
      <trkpt lat="46.23688" lon="10.49726">
        <ele>1840.78800128</ele>
        <time>2018-09-22T08:28:50.000Z</time>
      </trkpt>
      <trkpt lat="46.23691" lon="10.49713">
        <ele>1844.98560256</ele>
        <time>2018-09-22T08:29:10.988Z</time>
      </trkpt>
      <trkpt lat="46.23696" lon="10.49702">
        <ele>1847.9342221344</ele>
        <time>2018-09-22T08:29:26.000Z</time>
      </trkpt>
      <trkpt lat="46.23698" lon="10.49688">
        <ele>1850.5725519169</ele>
        <time>2018-09-22T08:29:43.987Z</time>
      </trkpt>
      <trkpt lat="46.23697" lon="10.49675">
        <ele>1854.9664991668</ele>
        <time>2018-09-22T08:30:05.988Z</time>
      </trkpt>
      <trkpt lat="46.23695" lon="10.49662">
        <ele>1856.9929445161</ele>
        <time>2018-09-22T08:30:20.990Z</time>
      </trkpt>
      <trkpt lat="46.23689" lon="10.49651">
        <ele>1861.1837961312</ele>
        <time>2018-09-22T08:30:41.990Z</time>
      </trkpt>
      <trkpt lat="46.23684" lon="10.4964">
        <ele>1863.4867413593</ele>
        <time>2018-09-22T08:30:55.989Z</time>
      </trkpt>
      <trkpt lat="46.23678" lon="10.49629">
        <ele>1865.78540032</ele>
        <time>2018-09-22T08:31:09.987Z</time>
      </trkpt>
      <trkpt lat="46.2367" lon="10.49624">
        <ele>1868.9929798974</ele>
        <time>2018-09-22T08:31:30.990Z</time>
      </trkpt>
      <trkpt lat="46.23663" lon="10.49613">
        <ele>1873.58800128</ele>
        <time>2018-09-22T08:31:54.000Z</time>
      </trkpt>
      <trkpt lat="46.23655" lon="10.49605">
        <ele>1876</ele>
        <time>2018-09-22T08:32:12.988Z</time>
      </trkpt>
      <trkpt lat="46.23646" lon="10.49601">
        <ele>1875.710484602</ele>
        <time>2018-09-22T08:32:23.987Z</time>
      </trkpt>
      <trkpt lat="46.23639" lon="10.49592">
        <ele>1875.1732639625</ele>
        <time>2018-09-22T08:32:32.991Z</time>
      </trkpt>
      <trkpt lat="46.23632" lon="10.49584">
        <ele>1875.9340623607</ele>
        <time>2018-09-22T08:32:40.987Z</time>
      </trkpt>
      <trkpt lat="46.23624" lon="10.49576">
        <ele>1876</ele>
        <time>2018-09-22T08:32:48.991Z</time>
      </trkpt>
      <trkpt lat="46.23618" lon="10.49566">
        <ele>1876.49300096</ele>
        <time>2018-09-22T08:32:55.990Z</time>
      </trkpt>
      <trkpt lat="46.23611" lon="10.49556">
        <ele>1877</ele>
        <time>2018-09-22T08:33:04.990Z</time>
      </trkpt>
      <trkpt lat="46.23604" lon="10.49548">
        <ele>1877.3756957778</ele>
        <time>2018-09-22T08:33:12.986Z</time>
      </trkpt>
      <trkpt lat="46.23596" lon="10.49539">
        <ele>1879.1861896774</ele>
        <time>2018-09-22T08:33:22.987Z</time>
      </trkpt>
      <trkpt lat="46.23588" lon="10.49532">
        <ele>1879.9926412903</ele>
        <time>2018-09-22T08:33:30.987Z</time>
      </trkpt>
      <trkpt lat="46.23582" lon="10.49522">
        <ele>1880.99260032</ele>
        <time>2018-09-22T08:33:40.986Z</time>
      </trkpt>
      <trkpt lat="46.23573" lon="10.49521">
        <ele>1881</ele>
        <time>2018-09-22T08:33:50.986Z</time>
      </trkpt>
      <trkpt lat="46.23563" lon="10.49521">
        <ele>1881.99260032</ele>
        <time>2018-09-22T08:34:00.986Z</time>
      </trkpt>
      <trkpt lat="46.23554" lon="10.49517">
        <ele>1882.9628514567</ele>
        <time>2018-09-22T08:34:10.987Z</time>
      </trkpt>
      <trkpt lat="46.23545" lon="10.49514">
        <ele>1883.9924666229</ele>
        <time>2018-09-22T08:34:20.987Z</time>
      </trkpt>
      <trkpt lat="46.23535" lon="10.49516">
        <ele>1884</ele>
        <time>2018-09-22T08:34:30.986Z</time>
      </trkpt>
      <trkpt lat="46.23526" lon="10.4952">
        <ele>1886.09420032</ele>
        <time>2018-09-22T08:34:42.002Z</time>
      </trkpt>
      <trkpt lat="46.23517" lon="10.49526">
        <ele>1887</ele>
        <time>2018-09-22T08:34:53.986Z</time>
      </trkpt>
      <trkpt lat="46.23509" lon="10.49533">
        <ele>1887.09410048</ele>
        <time>2018-09-22T08:35:02.001Z</time>
      </trkpt>
      <trkpt lat="46.23501" lon="10.49541">
        <ele>1887.6143130883</ele>
        <time>2018-09-22T08:35:13.000Z</time>
      </trkpt>
      <trkpt lat="46.23492" lon="10.49548">
        <ele>1885.8249489416</ele>
        <time>2018-09-22T08:35:21.990Z</time>
      </trkpt>
      <trkpt lat="46.23486" lon="10.49558">
        <ele>1884.6156932737</ele>
        <time>2018-09-22T08:35:28.000Z</time>
      </trkpt>
      <trkpt lat="46.23479" lon="10.49568">
        <ele>1884.2931211827</ele>
        <time>2018-09-22T08:35:34.000Z</time>
      </trkpt>
      <trkpt lat="46.23471" lon="10.49574">
        <ele>1885</ele>
        <time>2018-09-22T08:35:44.000Z</time>
      </trkpt>
      <trkpt lat="46.2346" lon="10.49576">
        <ele>1885.544330256</ele>
        <time>2018-09-22T08:35:54.000Z</time>
      </trkpt>
      <trkpt lat="46.23452" lon="10.49583">
        <ele>1887</ele>
        <time>2018-09-22T08:36:03.000Z</time>
      </trkpt>
      <trkpt lat="46.23443" lon="10.49586">
        <ele>1887.092346979</ele>
        <time>2018-09-22T08:36:11.989Z</time>
      </trkpt>
      <trkpt lat="46.23436" lon="10.49597">
        <ele>1888</ele>
        <time>2018-09-22T08:36:22.000Z</time>
      </trkpt>
      <trkpt lat="46.23428" lon="10.49604">
        <ele>1888</ele>
        <time>2018-09-22T08:36:30.000Z</time>
      </trkpt>
      <trkpt lat="46.23419" lon="10.49606">
        <ele>1888</ele>
        <time>2018-09-22T08:36:37.000Z</time>
      </trkpt>
      <trkpt lat="46.23408" lon="10.49605">
        <ele>1888</ele>
        <time>2018-09-22T08:36:47.000Z</time>
      </trkpt>
      <trkpt lat="46.23398" lon="10.49604">
        <ele>1887.70599936</ele>
        <time>2018-09-22T08:36:54.000Z</time>
      </trkpt>
      <trkpt lat="46.23389" lon="10.49601">
        <ele>1887.00729984</ele>
        <time>2018-09-22T08:37:00.987Z</time>
      </trkpt>
      <trkpt lat="46.23379" lon="10.496">
        <ele>1886.10629888</ele>
        <time>2018-09-22T08:37:09.997Z</time>
      </trkpt>
      <trkpt lat="46.2337" lon="10.49599">
        <ele>1885.4068992</ele>
        <time>2018-09-22T08:37:16.991Z</time>
      </trkpt>
      <trkpt lat="46.23359" lon="10.49595">
        <ele>1884.4151850564</ele>
        <time>2018-09-22T08:37:23.987Z</time>
      </trkpt>
      <trkpt lat="46.23351" lon="10.49588">
        <ele>1882.8160155189</ele>
        <time>2018-09-22T08:37:31.989Z</time>
      </trkpt>
      <trkpt lat="46.23347" lon="10.49577">
        <ele>1881.2118113747</ele>
        <time>2018-09-22T08:37:40.002Z</time>
      </trkpt>
      <trkpt lat="46.23339" lon="10.4957">
        <ele>1881.89420032</ele>
        <time>2018-09-22T08:37:50.002Z</time>
      </trkpt>
      <trkpt lat="46.23331" lon="10.49563">
        <ele>1882.69270016</ele>
        <time>2018-09-22T08:37:57.987Z</time>
      </trkpt>
      <trkpt lat="46.23321" lon="10.49558">
        <ele>1883.59300096</ele>
        <time>2018-09-22T08:38:06.990Z</time>
      </trkpt>
      <trkpt lat="46.23312" lon="10.49552">
        <ele>1884</ele>
        <time>2018-09-22T08:38:15.990Z</time>
      </trkpt>
      <trkpt lat="46.23306" lon="10.49543">
        <ele>1883.9082089208</ele>
        <time>2018-09-22T08:38:21.987Z</time>
      </trkpt>
      <trkpt lat="46.23297" lon="10.49536">
        <ele>1883.1059056874</ele>
        <time>2018-09-22T08:38:30.002Z</time>
      </trkpt>
      <trkpt lat="46.23289" lon="10.49527">
        <ele>1883</ele>
        <time>2018-09-22T08:38:38.986Z</time>
      </trkpt>
      <trkpt lat="46.23281" lon="10.49521">
        <ele>1882.5122772199</ele>
        <time>2018-09-22T08:38:45.986Z</time>
      </trkpt>
      <trkpt lat="46.2327" lon="10.49519">
        <ele>1880.4955920848</ele>
        <time>2018-09-22T08:38:55.000Z</time>
      </trkpt>
      <trkpt lat="46.23263" lon="10.49509">
        <ele>1877.8699683368</ele>
        <time>2018-09-22T08:39:02.000Z</time>
      </trkpt>
      <trkpt lat="46.23261" lon="10.49496">
        <ele>1875.62799616</ele>
        <time>2018-09-22T08:39:11.990Z</time>
      </trkpt>
      <trkpt lat="46.23254" lon="10.49486">
        <ele>1872.42919936</ele>
        <time>2018-09-22T08:39:19.987Z</time>
      </trkpt>
      <trkpt lat="46.23249" lon="10.49474">
        <ele>1869.9283582774</ele>
        <time>2018-09-22T08:39:28.000Z</time>
      </trkpt>
      <trkpt lat="46.23239" lon="10.49474">
        <ele>1868.214143745</ele>
        <time>2018-09-22T08:39:39.000Z</time>
      </trkpt>
      <trkpt lat="46.2323" lon="10.49478">
        <ele>1867.5136409271</ele>
        <time>2018-09-22T08:39:45.999Z</time>
      </trkpt>
      <trkpt lat="46.23221" lon="10.49478">
        <ele>1866.4368215287</ele>
        <time>2018-09-22T08:39:52.986Z</time>
      </trkpt>
      <trkpt lat="46.23217" lon="10.49465">
        <ele>1863.81479936</ele>
        <time>2018-09-22T08:40:01.986Z</time>
      </trkpt>
      <trkpt lat="46.23223" lon="10.49453">
        <ele>1862.21479936</ele>
        <time>2018-09-22T08:40:09.986Z</time>
      </trkpt>
      <trkpt lat="46.2323" lon="10.49444">
        <ele>1861.01179904</ele>
        <time>2018-09-22T08:40:16.001Z</time>
      </trkpt>
      <trkpt lat="46.23239" lon="10.49438">
        <ele>1860.01119744</ele>
        <time>2018-09-22T08:40:21.004Z</time>
      </trkpt>
      <trkpt lat="46.23247" lon="10.49432">
        <ele>1859.308092252</ele>
        <time>2018-09-22T08:40:27.986Z</time>
      </trkpt>
      <trkpt lat="46.23254" lon="10.49423">
        <ele>1859</ele>
        <time>2018-09-22T08:40:34.988Z</time>
      </trkpt>
      <trkpt lat="46.23263" lon="10.49411">
        <ele>1858.80599936</ele>
        <time>2018-09-22T08:40:43.000Z</time>
      </trkpt>
      <trkpt lat="46.23274" lon="10.49408">
        <ele>1858.20709888</ele>
        <time>2018-09-22T08:40:48.989Z</time>
      </trkpt>
      <trkpt lat="46.23283" lon="10.49414">
        <ele>1856.42839552</ele>
        <time>2018-09-22T08:40:54.989Z</time>
      </trkpt>
      <trkpt lat="46.23291" lon="10.49423">
        <ele>1853.61419776</ele>
        <time>2018-09-22T08:41:02.989Z</time>
      </trkpt>
      <trkpt lat="46.23298" lon="10.49433">
        <ele>1852.61419776</ele>
        <time>2018-09-22T08:41:07.989Z</time>
      </trkpt>
      <trkpt lat="46.23306" lon="10.49442">
        <ele>1850.8206976</ele>
        <time>2018-09-22T08:41:14.991Z</time>
      </trkpt>
      <trkpt lat="46.23315" lon="10.4945">
        <ele>1849.0206976</ele>
        <time>2018-09-22T08:41:20.991Z</time>
      </trkpt>
      <trkpt lat="46.23324" lon="10.49456">
        <ele>1847.4220888306</ele>
        <time>2018-09-22T08:41:28.989Z</time>
      </trkpt>
      <trkpt lat="46.23333" lon="10.49461">
        <ele>1847</ele>
        <time>2018-09-22T08:41:35.989Z</time>
      </trkpt>
      <trkpt lat="46.23341" lon="10.49465">
        <ele>1846.1328654146</ele>
        <time>2018-09-22T08:41:43.986Z</time>
      </trkpt>
      <trkpt lat="46.2335" lon="10.49462">
        <ele>1843.4270267393</ele>
        <time>2018-09-22T08:41:52.989Z</time>
      </trkpt>
      <trkpt lat="46.23361" lon="10.49465">
        <ele>1840.8350983529</ele>
        <time>2018-09-22T08:42:02.001Z</time>
      </trkpt>
      <trkpt lat="46.23364" lon="10.49452">
        <ele>1838.9346235864</ele>
        <time>2018-09-22T08:42:12.002Z</time>
      </trkpt>
      <trkpt lat="46.2337" lon="10.4944">
        <ele>1838.2234224206</ele>
        <time>2018-09-22T08:42:18.986Z</time>
      </trkpt>
      <trkpt lat="46.23377" lon="10.49432">
        <ele>1836.5406892835</ele>
        <time>2018-09-22T08:42:25.986Z</time>
      </trkpt>
      <trkpt lat="46.23384" lon="10.49423">
        <ele>1833.82399744</ele>
        <time>2018-09-22T08:42:34.000Z</time>
      </trkpt>
      <trkpt lat="46.2339" lon="10.49411">
        <ele>1830.62319872</ele>
        <time>2018-09-22T08:42:42.002Z</time>
      </trkpt>
      <trkpt lat="46.23399" lon="10.49406">
        <ele>1826.62319872</ele>
        <time>2018-09-22T08:42:52.002Z</time>
      </trkpt>
      <trkpt lat="46.23409" lon="10.49402">
        <ele>1823.82839552</ele>
        <time>2018-09-22T08:42:58.989Z</time>
      </trkpt>
      <trkpt lat="46.23418" lon="10.49399">
        <ele>1822.5068992</ele>
        <time>2018-09-22T08:43:05.991Z</time>
      </trkpt>
      <trkpt lat="46.23425" lon="10.4939">
        <ele>1821.0137984</ele>
        <time>2018-09-22T08:43:15.991Z</time>
      </trkpt>
      <trkpt lat="46.2343" lon="10.49378">
        <ele>1818.0405579066</ele>
        <time>2018-09-22T08:43:25.988Z</time>
      </trkpt>
      <trkpt lat="46.23432" lon="10.49364">
        <ele>1815.0632546185</ele>
        <time>2018-09-22T08:43:32.986Z</time>
      </trkpt>
      <trkpt lat="46.23426" lon="10.49353">
        <ele>1809.4128246335</ele>
        <time>2018-09-22T08:43:49.000Z</time>
      </trkpt>
      <trkpt lat="46.23419" lon="10.49343">
        <ele>1805.43599616</ele>
        <time>2018-09-22T08:43:57.000Z</time>
      </trkpt>
      <trkpt lat="46.23414" lon="10.49331">
        <ele>1803.69400064</ele>
        <time>2018-09-22T08:44:08.000Z</time>
      </trkpt>
      <trkpt lat="46.23423" lon="10.49326">
        <ele>1802.2160165439</ele>
        <time>2018-09-22T08:44:34.986Z</time>
      </trkpt>
      <trkpt lat="46.23432" lon="10.49325">
        <ele>1801.0148141884</ele>
        <time>2018-09-22T08:44:40.986Z</time>
      </trkpt>
      <trkpt lat="46.23441" lon="10.49321">
        <ele>1798.02189952</ele>
        <time>2018-09-22T08:44:50.987Z</time>
      </trkpt>
      <trkpt lat="46.23449" lon="10.49315">
        <ele>1793.3036503342</ele>
        <time>2018-09-22T08:44:58.989Z</time>
      </trkpt>
      <trkpt lat="46.2345" lon="10.49301">
        <ele>1791.2151908025</ele>
        <time>2018-09-22T08:45:08.991Z</time>
      </trkpt>
      <trkpt lat="46.23443" lon="10.49291">
        <ele>1789.5739744351</ele>
        <time>2018-09-22T08:45:15.988Z</time>
      </trkpt>
      <trkpt lat="46.23437" lon="10.4928">
        <ele>1786.6354276931</ele>
        <time>2018-09-22T08:45:24.000Z</time>
      </trkpt>
      <trkpt lat="46.23435" lon="10.49266">
        <ele>1782.81199872</ele>
        <time>2018-09-22T08:45:32.000Z</time>
      </trkpt>
      <trkpt lat="46.2343" lon="10.49253">
        <ele>1780.22919936</ele>
        <time>2018-09-22T08:45:42.987Z</time>
      </trkpt>
      <trkpt lat="46.23421" lon="10.4925">
        <ele>1776.5346505919</ele>
        <time>2018-09-22T08:45:52.000Z</time>
      </trkpt>
      <trkpt lat="46.23413" lon="10.49243">
        <ele>1773.0757442688</ele>
        <time>2018-09-22T08:45:58.987Z</time>
      </trkpt>
      <trkpt lat="46.23408" lon="10.49232">
        <ele>1769.6539237641</ele>
        <time>2018-09-22T08:46:06.990Z</time>
      </trkpt>
      <trkpt lat="46.234" lon="10.49225">
        <ele>1766.5277128067</ele>
        <time>2018-09-22T08:46:15.988Z</time>
      </trkpt>
      <trkpt lat="46.23391" lon="10.49221">
        <ele>1764.7213216461</ele>
        <time>2018-09-22T08:46:22.001Z</time>
      </trkpt>
      <trkpt lat="46.23382" lon="10.49216">
        <ele>1762.6527159856</ele>
        <time>2018-09-22T08:46:28.986Z</time>
      </trkpt>
      <trkpt lat="46.23385" lon="10.492">
        <ele>1760.841945135</ele>
        <time>2018-09-22T08:46:35.000Z</time>
      </trkpt>
      <trkpt lat="46.23386" lon="10.49187">
        <ele>1757.81799808</ele>
        <time>2018-09-22T08:46:45.000Z</time>
      </trkpt>
      <trkpt lat="46.23379" lon="10.49179">
        <ele>1752.42799616</ele>
        <time>2018-09-22T08:46:59.990Z</time>
      </trkpt>
      <trkpt lat="46.2337" lon="10.49175">
        <ele>1749.72219904</ele>
        <time>2018-09-22T08:47:11.986Z</time>
      </trkpt>
      <trkpt lat="46.23364" lon="10.49165">
        <ele>1746.8194157239</ele>
        <time>2018-09-22T08:47:21.990Z</time>
      </trkpt>
      <trkpt lat="46.23357" lon="10.49155">
        <ele>1745.0706808105</ele>
        <time>2018-09-22T08:47:30.996Z</time>
      </trkpt>
      <trkpt lat="46.23354" lon="10.49143">
        <ele>1741.4206976</ele>
        <time>2018-09-22T08:47:42.991Z</time>
      </trkpt>
      <trkpt lat="46.23349" lon="10.49129">
        <ele>1737.5480640177</ele>
        <time>2018-09-22T08:47:53.990Z</time>
      </trkpt>
      <trkpt lat="46.23343" lon="10.49119">
        <ele>1733.7457111563</ele>
        <time>2018-09-22T08:48:01.990Z</time>
      </trkpt>
      <trkpt lat="46.23334" lon="10.49112">
        <ele>1730.7232114286</ele>
        <time>2018-09-22T08:48:11.990Z</time>
      </trkpt>
      <trkpt lat="46.23325" lon="10.49109">
        <ele>1726.8403600445</ele>
        <time>2018-09-22T08:48:24.990Z</time>
      </trkpt>
      <trkpt lat="46.23317" lon="10.49103">
        <ele>1723.4377502815</ele>
        <time>2018-09-22T08:48:34.990Z</time>
      </trkpt>
      <trkpt lat="46.2331" lon="10.49093">
        <ele>1720.70739968</ele>
        <time>2018-09-22T08:48:43.986Z</time>
      </trkpt>
      <trkpt lat="46.23304" lon="10.49082">
        <ele>1719.2303054898</ele>
        <time>2018-09-22T08:48:52.990Z</time>
      </trkpt>
      <trkpt lat="46.23298" lon="10.49073">
        <ele>1715.6222865265</ele>
        <time>2018-09-22T08:49:02.988Z</time>
      </trkpt>
      <trkpt lat="46.23292" lon="10.49062">
        <ele>1713.7441522581</ele>
        <time>2018-09-22T08:49:11.986Z</time>
      </trkpt>
      <trkpt lat="46.23287" lon="10.49051">
        <ele>1711.0193548387</ele>
        <time>2018-09-22T08:49:20.996Z</time>
      </trkpt>
      <trkpt lat="46.23285" lon="10.49038">
        <ele>1708.01769856</ele>
        <time>2018-09-22T08:49:31.001Z</time>
      </trkpt>
      <trkpt lat="46.2328" lon="10.49027">
        <ele>1706.41399808</ele>
        <time>2018-09-22T08:49:38.990Z</time>
      </trkpt>
      <trkpt lat="46.23274" lon="10.49015">
        <ele>1706</ele>
        <time>2018-09-22T08:49:46.002Z</time>
      </trkpt>
      <trkpt lat="46.23268" lon="10.49005">
        <ele>1706</ele>
        <time>2018-09-22T08:49:50.998Z</time>
      </trkpt>
      <trkpt lat="46.23263" lon="10.48993">
        <ele>1705.215048735</ele>
        <time>2018-09-22T08:49:58.988Z</time>
      </trkpt>
      <trkpt lat="46.23257" lon="10.48982">
        <ele>1705</ele>
        <time>2018-09-22T08:50:06.991Z</time>
      </trkpt>
      <trkpt lat="46.23257" lon="10.48969">
        <ele>1703.2316086002</ele>
        <time>2018-09-22T08:50:16.990Z</time>
      </trkpt>
      <trkpt lat="46.23257" lon="10.48954">
        <ele>1700.2280667867</ele>
        <time>2018-09-22T08:50:26.991Z</time>
      </trkpt>
      <trkpt lat="46.23255" lon="10.48941">
        <ele>1697.22189952</ele>
        <time>2018-09-22T08:50:36.987Z</time>
      </trkpt>
      <trkpt lat="46.2326" lon="10.48931">
        <ele>1695.12189952</ele>
        <time>2018-09-22T08:50:43.987Z</time>
      </trkpt>
      <trkpt lat="46.23268" lon="10.48924">
        <ele>1693.01739904</ele>
        <time>2018-09-22T08:50:51.002Z</time>
      </trkpt>
      <trkpt lat="46.23276" lon="10.48916">
        <ele>1690.9360483222</ele>
        <time>2018-09-22T08:50:57.988Z</time>
      </trkpt>
      <trkpt lat="46.23285" lon="10.48911">
        <ele>1689.7145854832</ele>
        <time>2018-09-22T08:51:03.987Z</time>
      </trkpt>
      <trkpt lat="46.23293" lon="10.48903">
        <ele>1688.9170254923</ele>
        <time>2018-09-22T08:51:11.988Z</time>
      </trkpt>
      <trkpt lat="46.23302" lon="10.48895">
        <ele>1688.0350296454</ele>
        <time>2018-09-22T08:51:21.002Z</time>
      </trkpt>
      <trkpt lat="46.2331" lon="10.48888">
        <ele>1686.2596910579</ele>
        <time>2018-09-22T08:51:26.987Z</time>
      </trkpt>
      <trkpt lat="46.23318" lon="10.4888">
        <ele>1683.2767404651</ele>
        <time>2018-09-22T08:51:36.988Z</time>
      </trkpt>
      <trkpt lat="46.23325" lon="10.4887">
        <ele>1680.8388416529</ele>
        <time>2018-09-22T08:51:47.000Z</time>
      </trkpt>
      <trkpt lat="46.2333" lon="10.48858">
        <ele>1678.42879488</ele>
        <time>2018-09-22T08:51:54.988Z</time>
      </trkpt>
      <trkpt lat="46.23337" lon="10.48848">
        <ele>1675.9072</ele>
        <time>2018-09-22T08:52:01.988Z</time>
      </trkpt>
      <trkpt lat="46.23341" lon="10.48835">
        <ele>1675.20729984</ele>
        <time>2018-09-22T08:52:08.987Z</time>
      </trkpt>
      <trkpt lat="46.23346" lon="10.48823">
        <ele>1675</ele>
        <time>2018-09-22T08:52:17.000Z</time>
      </trkpt>
      <trkpt lat="46.2335" lon="10.4881">
        <ele>1673.64199552</ele>
        <time>2018-09-22T08:52:23.000Z</time>
      </trkpt>
      <trkpt lat="46.23358" lon="10.488">
        <ele>1669.44199552</ele>
        <time>2018-09-22T08:52:29.000Z</time>
      </trkpt>
      <trkpt lat="46.23366" lon="10.48793">
        <ele>1666.51739904</ele>
        <time>2018-09-22T08:52:36.002Z</time>
      </trkpt>
      <trkpt lat="46.23375" lon="10.48789">
        <ele>1663.81799808</ele>
        <time>2018-09-22T08:52:45.000Z</time>
      </trkpt>
      <trkpt lat="46.23385" lon="10.48782">
        <ele>1660.0514316751</ele>
        <time>2018-09-22T08:52:55.000Z</time>
      </trkpt>
      <trkpt lat="46.23394" lon="10.48781">
        <ele>1657.5835772634</ele>
        <time>2018-09-22T08:52:59.990Z</time>
      </trkpt>
      <trkpt lat="46.23403" lon="10.48777">
        <ele>1656.025276449</ele>
        <time>2018-09-22T08:53:05.990Z</time>
      </trkpt>
      <trkpt lat="46.23413" lon="10.48776">
        <ele>1654.61199872</ele>
        <time>2018-09-22T08:53:13.000Z</time>
      </trkpt>
      <trkpt lat="46.23421" lon="10.48768">
        <ele>1652.1216</ele>
        <time>2018-09-22T08:53:23.988Z</time>
      </trkpt>
      <trkpt lat="46.23431" lon="10.48767">
        <ele>1649.81199872</ele>
        <time>2018-09-22T08:53:32.000Z</time>
      </trkpt>
      <trkpt lat="46.2344" lon="10.48767">
        <ele>1648.41419776</ele>
        <time>2018-09-22T08:53:38.989Z</time>
      </trkpt>
      <trkpt lat="46.2345" lon="10.48766">
        <ele>1646.8321083064</ele>
        <time>2018-09-22T08:53:44.988Z</time>
      </trkpt>
      <trkpt lat="46.2346" lon="10.4876">
        <ele>1644.4426841019</ele>
        <time>2018-09-22T08:53:52.991Z</time>
      </trkpt>
      <trkpt lat="46.23469" lon="10.48755">
        <ele>1642.6242156602</ele>
        <time>2018-09-22T08:53:58.998Z</time>
      </trkpt>
      <trkpt lat="46.23479" lon="10.48751">
        <ele>1640.2250999521</ele>
        <time>2018-09-22T08:54:07.000Z</time>
      </trkpt>
      <trkpt lat="46.23488" lon="10.48751">
        <ele>1637.4385522102</ele>
        <time>2018-09-22T08:54:14.988Z</time>
      </trkpt>
      <trkpt lat="46.23498" lon="10.48747">
        <ele>1634.8144</ele>
        <time>2018-09-22T08:54:21.988Z</time>
      </trkpt>
      <trkpt lat="46.23508" lon="10.48746">
        <ele>1633.21199872</ele>
        <time>2018-09-22T08:54:30.000Z</time>
      </trkpt>
      <trkpt lat="46.23517" lon="10.48741">
        <ele>1630.6377942857</ele>
        <time>2018-09-22T08:54:38.997Z</time>
      </trkpt>
      <trkpt lat="46.23523" lon="10.4873">
        <ele>1628.5885764133</ele>
        <time>2018-09-22T08:54:46.000Z</time>
      </trkpt>
      <trkpt lat="46.23532" lon="10.48722">
        <ele>1626.3626688093</ele>
        <time>2018-09-22T08:54:52.998Z</time>
      </trkpt>
      <trkpt lat="46.23539" lon="10.48713">
        <ele>1623.4471328772</ele>
        <time>2018-09-22T08:54:59.988Z</time>
      </trkpt>
      <trkpt lat="46.23545" lon="10.48704">
        <ele>1621.5611640785</ele>
        <time>2018-09-22T08:55:06.000Z</time>
      </trkpt>
      <trkpt lat="46.23555" lon="10.48702">
        <ele>1620.1077659913</ele>
        <time>2018-09-22T08:55:10.990Z</time>
      </trkpt>
      <trkpt lat="46.23563" lon="10.48695">
        <ele>1617.3309250843</ele>
        <time>2018-09-22T08:55:19.990Z</time>
      </trkpt>
      <trkpt lat="46.23568" lon="10.48681">
        <ele>1616.0241590342</ele>
        <time>2018-09-22T08:55:25.988Z</time>
      </trkpt>
      <trkpt lat="46.23573" lon="10.48669">
        <ele>1614.441516245</ele>
        <time>2018-09-22T08:55:33.003Z</time>
      </trkpt>
      <trkpt lat="46.23581" lon="10.4866">
        <ele>1612.3248486949</ele>
        <time>2018-09-22T08:55:39.988Z</time>
      </trkpt>
      <trkpt lat="46.23588" lon="10.48649">
        <ele>1609.62839552</ele>
        <time>2018-09-22T08:55:46.989Z</time>
      </trkpt>
      <trkpt lat="46.23593" lon="10.48638">
        <ele>1607.22279936</ele>
        <time>2018-09-22T08:55:53.003Z</time>
      </trkpt>
      <trkpt lat="46.23598" lon="10.48626">
        <ele>1605.22559488</ele>
        <time>2018-09-22T08:55:57.996Z</time>
      </trkpt>
      <trkpt lat="46.23599" lon="10.48614">
        <ele>1602.5373858635</ele>
        <time>2018-09-22T08:56:05.989Z</time>
      </trkpt>
      <trkpt lat="46.23599" lon="10.48599">
        <ele>1600.269460267</ele>
        <time>2018-09-22T08:56:13.000Z</time>
      </trkpt>
      <trkpt lat="46.23603" lon="10.48585">
        <ele>1597.4750508742</ele>
        <time>2018-09-22T08:56:20.000Z</time>
      </trkpt>
      <trkpt lat="46.23606" lon="10.48572">
        <ele>1594.3252253619</ele>
        <time>2018-09-22T08:56:29.990Z</time>
      </trkpt>
      <trkpt lat="46.236" lon="10.48561">
        <ele>1591.9216</ele>
        <time>2018-09-22T08:56:37.988Z</time>
      </trkpt>
      <trkpt lat="46.23604" lon="10.48548">
        <ele>1589.529819146</ele>
        <time>2018-09-22T08:56:45.990Z</time>
      </trkpt>
      <trkpt lat="46.23612" lon="10.48538">
        <ele>1586.8135300501</ele>
        <time>2018-09-22T08:56:54.101Z</time>
      </trkpt>
      <trkpt lat="46.2362" lon="10.48531">
        <ele>1584.8680567938</ele>
        <time>2018-09-22T08:56:58.989Z</time>
      </trkpt>
      <trkpt lat="46.23629" lon="10.48533">
        <ele>1583.4105151581</ele>
        <time>2018-09-22T08:57:07.000Z</time>
      </trkpt>
      <trkpt lat="46.23639" lon="10.48533">
        <ele>1582.41199872</ele>
        <time>2018-09-22T08:57:14.000Z</time>
      </trkpt>
      <trkpt lat="46.23649" lon="10.4853">
        <ele>1580.71799808</ele>
        <time>2018-09-22T08:57:22.000Z</time>
      </trkpt>
      <trkpt lat="46.23658" lon="10.48528">
        <ele>1579.21799808</ele>
        <time>2018-09-22T08:57:27.000Z</time>
      </trkpt>
      <trkpt lat="46.23668" lon="10.48528">
        <ele>1576.82399744</ele>
        <time>2018-09-22T08:57:34.000Z</time>
      </trkpt>
      <trkpt lat="46.23678" lon="10.48529">
        <ele>1573.8060992</ele>
        <time>2018-09-22T08:57:42.999Z</time>
      </trkpt>
      <trkpt lat="46.23687" lon="10.48533">
        <ele>1573.10599936</ele>
        <time>2018-09-22T08:57:50.000Z</time>
      </trkpt>
      <trkpt lat="46.23696" lon="10.48534">
        <ele>1571.8579695125</ele>
        <time>2018-09-22T08:57:55.000Z</time>
      </trkpt>
      <trkpt lat="46.23706" lon="10.48534">
        <ele>1570</ele>
        <time>2018-09-22T08:58:02.000Z</time>
      </trkpt>
      <trkpt lat="46.23716" lon="10.48533">
        <ele>1570</ele>
        <time>2018-09-22T08:58:09.000Z</time>
      </trkpt>
      <trkpt lat="46.23725" lon="10.4853">
        <ele>1566.5299968</ele>
        <time>2018-09-22T08:58:18.000Z</time>
      </trkpt>
      <trkpt lat="46.23735" lon="10.48523">
        <ele>1562.0299968</ele>
        <time>2018-09-22T08:58:27.000Z</time>
      </trkpt>
      <trkpt lat="46.23739" lon="10.48511">
        <ele>1559.6083106406</ele>
        <time>2018-09-22T08:58:35.000Z</time>
      </trkpt>
      <trkpt lat="46.23742" lon="10.48498">
        <ele>1558.0816332908</ele>
        <time>2018-09-22T08:58:43.000Z</time>
      </trkpt>
      <trkpt lat="46.23747" lon="10.48486">
        <ele>1554.175764113</ele>
        <time>2018-09-22T08:58:51.000Z</time>
      </trkpt>
      <trkpt lat="46.2375" lon="10.48473">
        <ele>1551.6791710873</ele>
        <time>2018-09-22T08:58:56.988Z</time>
      </trkpt>
      <trkpt lat="46.23757" lon="10.48465">
        <ele>1549.41419776</ele>
        <time>2018-09-22T08:59:03.989Z</time>
      </trkpt>
      <trkpt lat="46.23764" lon="10.48453">
        <ele>1547.8144</ele>
        <time>2018-09-22T08:59:11.988Z</time>
      </trkpt>
      <trkpt lat="46.23768" lon="10.48441">
        <ele>1546.41439744</ele>
        <time>2018-09-22T08:59:18.988Z</time>
      </trkpt>
      <trkpt lat="46.23774" lon="10.4843">
        <ele>1544.81419776</ele>
        <time>2018-09-22T08:59:26.989Z</time>
      </trkpt>
      <trkpt lat="46.23779" lon="10.48419">
        <ele>1543.2151830104</ele>
        <time>2018-09-22T08:59:34.988Z</time>
      </trkpt>
      <trkpt lat="46.23785" lon="10.48408">
        <ele>1541.8142140357</ele>
        <time>2018-09-22T08:59:41.998Z</time>
      </trkpt>
      <trkpt lat="46.23789" lon="10.48395">
        <ele>1540.2142124981</ele>
        <time>2018-09-22T08:59:49.990Z</time>
      </trkpt>
      <trkpt lat="46.23794" lon="10.48383">
        <ele>1540</ele>
        <time>2018-09-22T08:59:58.000Z</time>
      </trkpt>
      <trkpt lat="46.23801" lon="10.48374">
        <ele>1539.1471849959</ele>
        <time>2018-09-22T09:00:03.988Z</time>
      </trkpt>
      <trkpt lat="46.2381" lon="10.48367">
        <ele>1537.1051450997</ele>
        <time>2018-09-22T09:00:10.999Z</time>
      </trkpt>
      <trkpt lat="46.2382" lon="10.48359">
        <ele>1536.2123706143</ele>
        <time>2018-09-22T09:00:19.000Z</time>
      </trkpt>
      <trkpt lat="46.23829" lon="10.48354">
        <ele>1535.7077846178</ele>
        <time>2018-09-22T09:00:23.988Z</time>
      </trkpt>
      <trkpt lat="46.23837" lon="10.48349">
        <ele>1535.0090813515</ele>
        <time>2018-09-22T09:00:30.989Z</time>
      </trkpt>
      <trkpt lat="46.23847" lon="10.48342">
        <ele>1535</ele>
        <time>2018-09-22T09:00:38.102Z</time>
      </trkpt>
      <trkpt lat="46.23854" lon="10.48333">
        <ele>1534.70729984</ele>
        <time>2018-09-22T09:00:43.987Z</time>
      </trkpt>
      <trkpt lat="46.2386" lon="10.4832">
        <ele>1533.22839552</ele>
        <time>2018-09-22T09:00:52.989Z</time>
      </trkpt>
      <trkpt lat="46.23862" lon="10.48306">
        <ele>1530.82399744</ele>
        <time>2018-09-22T09:00:59.000Z</time>
      </trkpt>
      <trkpt lat="46.23868" lon="10.48295">
        <ele>1529.5203880262</ele>
        <time>2018-09-22T09:01:06.000Z</time>
      </trkpt>
      <trkpt lat="46.23876" lon="10.48286">
        <ele>1529.0359219971</ele>
        <time>2018-09-22T09:01:10.990Z</time>
      </trkpt>
      <trkpt lat="46.23881" lon="10.48276">
        <ele>1529</ele>
        <time>2018-09-22T09:01:16.988Z</time>
      </trkpt>
      <trkpt lat="46.2389" lon="10.48269">
        <ele>1528.40719872</ele>
        <time>2018-09-22T09:01:26.988Z</time>
      </trkpt>
      <trkpt lat="46.23899" lon="10.48258">
        <ele>1527.60599936</ele>
        <time>2018-09-22T09:01:35.000Z</time>
      </trkpt>
      <trkpt lat="46.23906" lon="10.48248">
        <ele>1527.10699904</ele>
        <time>2018-09-22T09:01:39.990Z</time>
      </trkpt>
      <trkpt lat="46.23915" lon="10.48241">
        <ele>1526.3072</ele>
        <time>2018-09-22T09:01:47.988Z</time>
      </trkpt>
      <trkpt lat="46.23924" lon="10.48234">
        <ele>1525.2159198734</ele>
        <time>2018-09-22T09:01:55.000Z</time>
      </trkpt>
      <trkpt lat="46.23931" lon="10.48224">
        <ele>1524.0218911632</ele>
        <time>2018-09-22T09:02:01.000Z</time>
      </trkpt>
      <trkpt lat="46.2394" lon="10.48218">
        <ele>1524</ele>
        <time>2018-09-22T09:02:06.000Z</time>
      </trkpt>
      <trkpt lat="46.2395" lon="10.48212">
        <ele>1524</ele>
        <time>2018-09-22T09:02:13.000Z</time>
      </trkpt>
      <trkpt lat="46.23961" lon="10.48206">
        <ele>1524</ele>
        <time>2018-09-22T09:02:19.000Z</time>
      </trkpt>
      <trkpt lat="46.23971" lon="10.48207">
        <ele>1522.51799808</ele>
        <time>2018-09-22T09:02:26.000Z</time>
      </trkpt>
      <trkpt lat="46.2398" lon="10.48207">
        <ele>1520.41199872</ele>
        <time>2018-09-22T09:02:34.000Z</time>
      </trkpt>
      <trkpt lat="46.23989" lon="10.48208">
        <ele>1518.8123740919</ele>
        <time>2018-09-22T09:02:42.000Z</time>
      </trkpt>
      <trkpt lat="46.23999" lon="10.48208">
        <ele>1517.4151693955</ele>
        <time>2018-09-22T09:02:49.000Z</time>
      </trkpt>
      <trkpt lat="46.24009" lon="10.48206">
        <ele>1515.8156298617</ele>
        <time>2018-09-22T09:02:56.990Z</time>
      </trkpt>
      <trkpt lat="46.24016" lon="10.48199">
        <ele>1514.2143559037</ele>
        <time>2018-09-22T09:03:05.000Z</time>
      </trkpt>
      <trkpt lat="46.24025" lon="10.48197">
        <ele>1513.2197413456</ele>
        <time>2018-09-22T09:03:09.988Z</time>
      </trkpt>
      <trkpt lat="46.24036" lon="10.48195">
        <ele>1511.613239595</ele>
        <time>2018-09-22T09:03:18.003Z</time>
      </trkpt>
      <trkpt lat="46.24044" lon="10.48188">
        <ele>1509.8330530032</ele>
        <time>2018-09-22T09:03:25.000Z</time>
      </trkpt>
      <trkpt lat="46.24053" lon="10.48187">
        <ele>1508.059531497</ele>
        <time>2018-09-22T09:03:30.988Z</time>
      </trkpt>
      <trkpt lat="46.24063" lon="10.48189">
        <ele>1507.4113056637</ele>
        <time>2018-09-22T09:03:37.000Z</time>
      </trkpt>
      <trkpt lat="46.24072" lon="10.48188">
        <ele>1506.61199872</ele>
        <time>2018-09-22T09:03:43.000Z</time>
      </trkpt>
      <trkpt lat="46.24081" lon="10.48186">
        <ele>1505.01199872</ele>
        <time>2018-09-22T09:03:51.000Z</time>
      </trkpt>
      <trkpt lat="46.24091" lon="10.48183">
        <ele>1502.91799808</ele>
        <time>2018-09-22T09:03:58.000Z</time>
      </trkpt>
      <trkpt lat="46.241" lon="10.48184">
        <ele>1501.7156668684</ele>
        <time>2018-09-22T09:04:04.000Z</time>
      </trkpt>
      <trkpt lat="46.24109" lon="10.48184">
        <ele>1501.0386846956</ele>
        <time>2018-09-22T09:04:11.000Z</time>
      </trkpt>
      <trkpt lat="46.24119" lon="10.48182">
        <ele>1499.313253012</ele>
        <time>2018-09-22T09:04:17.000Z</time>
      </trkpt>
      <trkpt lat="46.24128" lon="10.48177">
        <ele>1497.7311610713</ele>
        <time>2018-09-22T09:04:24.000Z</time>
      </trkpt>
      <trkpt lat="46.24135" lon="10.4817">
        <ele>1496.7510137665</ele>
        <time>2018-09-22T09:04:32.000Z</time>
      </trkpt>
      <trkpt lat="46.24142" lon="10.48161">
        <ele>1494.3218608218</ele>
        <time>2018-09-22T09:04:40.000Z</time>
      </trkpt>
      <trkpt lat="46.24151" lon="10.48154">
        <ele>1492.2244282901</ele>
        <time>2018-09-22T09:04:50.000Z</time>
      </trkpt>
      <trkpt lat="46.2416" lon="10.48148">
        <ele>1490.4981844103</ele>
        <time>2018-09-22T09:04:56.101Z</time>
      </trkpt>
      <trkpt lat="46.24169" lon="10.4814">
        <ele>1488.43599616</ele>
        <time>2018-09-22T09:05:02.000Z</time>
      </trkpt>
      <trkpt lat="46.24178" lon="10.48133">
        <ele>1484.83599616</ele>
        <time>2018-09-22T09:05:08.000Z</time>
      </trkpt>
      <trkpt lat="46.24184" lon="10.48122">
        <ele>1482.50699904</ele>
        <time>2018-09-22T09:05:15.990Z</time>
      </trkpt>
      <trkpt lat="46.24191" lon="10.48111">
        <ele>1481.5072</ele>
        <time>2018-09-22T09:05:25.988Z</time>
      </trkpt>
      <trkpt lat="46.24198" lon="10.48102">
        <ele>1480.4432</ele>
        <time>2018-09-22T09:05:31.988Z</time>
      </trkpt>
      <trkpt lat="46.24196" lon="10.4809">
        <ele>1475.63599616</ele>
        <time>2018-09-22T09:05:40.000Z</time>
      </trkpt>
      <trkpt lat="46.24198" lon="10.48074">
        <ele>1473.41199872</ele>
        <time>2018-09-22T09:05:49.000Z</time>
      </trkpt>
      <trkpt lat="46.24201" lon="10.4806">
        <ele>1469.045818587</ele>
        <time>2018-09-22T09:05:59.000Z</time>
      </trkpt>
      <trkpt lat="46.24203" lon="10.48047">
        <ele>1466.8253016229</ele>
        <time>2018-09-22T09:06:05.000Z</time>
      </trkpt>
      <trkpt lat="46.24211" lon="10.48037">
        <ele>1464.7216</ele>
        <time>2018-09-22T09:06:11.988Z</time>
      </trkpt>
      <trkpt lat="46.24219" lon="10.48032">
        <ele>1462.62099712</ele>
        <time>2018-09-22T09:06:18.990Z</time>
      </trkpt>
      <trkpt lat="46.24227" lon="10.48025">
        <ele>1461.50599936</ele>
        <time>2018-09-22T09:06:26.000Z</time>
      </trkpt>
      <trkpt lat="46.24234" lon="10.48016">
        <ele>1460.61399808</ele>
        <time>2018-09-22T09:06:32.990Z</time>
      </trkpt>
      <trkpt lat="46.24241" lon="10.48006">
        <ele>1459.41199872</ele>
        <time>2018-09-22T09:06:39.000Z</time>
      </trkpt>
      <trkpt lat="46.2425" lon="10.48001">
        <ele>1457.51799808</ele>
        <time>2018-09-22T09:06:46.000Z</time>
      </trkpt>
      <trkpt lat="46.24259" lon="10.47993">
        <ele>1455.5337269841</ele>
        <time>2018-09-22T09:06:52.000Z</time>
      </trkpt>
      <trkpt lat="46.24268" lon="10.47986">
        <ele>1450.826786391</ele>
        <time>2018-09-22T09:07:02.000Z</time>
      </trkpt>
      <trkpt lat="46.24278" lon="10.47985">
        <ele>1449.6205428845</ele>
        <time>2018-09-22T09:07:07.989Z</time>
      </trkpt>
      <trkpt lat="46.24288" lon="10.4798">
        <ele>1448.6066065489</ele>
        <time>2018-09-22T09:07:15.000Z</time>
      </trkpt>
      <trkpt lat="46.24297" lon="10.47975">
        <ele>1447.4535869803</ele>
        <time>2018-09-22T09:07:21.998Z</time>
      </trkpt>
      <trkpt lat="46.24305" lon="10.47968">
        <ele>1442.7992265325</ele>
        <time>2018-09-22T09:07:29.988Z</time>
      </trkpt>
      <trkpt lat="46.24314" lon="10.47965">
        <ele>1439.6787593757</ele>
        <time>2018-09-22T09:07:36.989Z</time>
      </trkpt>
      <trkpt lat="46.24326" lon="10.47966">
        <ele>1437.1216</ele>
        <time>2018-09-22T09:07:43.988Z</time>
      </trkpt>
      <trkpt lat="46.24335" lon="10.47961">
        <ele>1435.02159616</ele>
        <time>2018-09-22T09:07:50.988Z</time>
      </trkpt>
      <trkpt lat="46.24345" lon="10.4796">
        <ele>1431.1436879884</ele>
        <time>2018-09-22T09:08:00.990Z</time>
      </trkpt>
      <trkpt lat="46.24354" lon="10.47957">
        <ele>1429.4382789562</ele>
        <time>2018-09-22T09:08:08.989Z</time>
      </trkpt>
      <trkpt lat="46.24364" lon="10.47958">
        <ele>1428.2199396479</ele>
        <time>2018-09-22T09:08:15.003Z</time>
      </trkpt>
      <trkpt lat="46.24373" lon="10.47958">
        <ele>1426.22839552</ele>
        <time>2018-09-22T09:08:22.989Z</time>
      </trkpt>
      <trkpt lat="46.24381" lon="10.47967">
        <ele>1423.82839552</ele>
        <time>2018-09-22T09:08:28.989Z</time>
      </trkpt>
      <trkpt lat="46.24389" lon="10.47972">
        <ele>1421.2374607057</ele>
        <time>2018-09-22T09:08:36.988Z</time>
      </trkpt>
      <trkpt lat="46.24396" lon="10.4798">
        <ele>1419.2230069567</ele>
        <time>2018-09-22T09:08:45.000Z</time>
      </trkpt>
      <trkpt lat="46.24405" lon="10.47988">
        <ele>1417.5299968</ele>
        <time>2018-09-22T09:08:52.000Z</time>
      </trkpt>
      <trkpt lat="46.24415" lon="10.47995">
        <ele>1413.5299968</ele>
        <time>2018-09-22T09:09:00.000Z</time>
      </trkpt>
      <trkpt lat="46.24423" lon="10.48004">
        <ele>1412.21199872</ele>
        <time>2018-09-22T09:09:05.000Z</time>
      </trkpt>
      <trkpt lat="46.24432" lon="10.48009">
        <ele>1409.8331680159</ele>
        <time>2018-09-22T09:09:15.000Z</time>
      </trkpt>
      <trkpt lat="46.24436" lon="10.47997">
        <ele>1403.8569967954</ele>
        <time>2018-09-22T09:09:35.000Z</time>
      </trkpt>
      <trkpt lat="46.24435" lon="10.47984">
        <ele>1399.91799808</ele>
        <time>2018-09-22T09:09:48.000Z</time>
      </trkpt>
      <trkpt lat="46.2443" lon="10.4797">
        <ele>1397.42879488</ele>
        <time>2018-09-22T09:09:54.988Z</time>
      </trkpt>
      <trkpt lat="46.24423" lon="10.47959">
        <ele>1394.41199872</ele>
        <time>2018-09-22T09:10:04.000Z</time>
      </trkpt>
      <trkpt lat="46.24419" lon="10.47943">
        <ele>1392.0309952</ele>
        <time>2018-09-22T09:10:12.998Z</time>
      </trkpt>
      <trkpt lat="46.24417" lon="10.47928">
        <ele>1388.5349952</ele>
        <time>2018-09-22T09:10:19.990Z</time>
      </trkpt>
      <trkpt lat="46.24415" lon="10.47915">
        <ele>1386.6177292523</ele>
        <time>2018-09-22T09:10:27.999Z</time>
      </trkpt>
      <trkpt lat="46.24412" lon="10.47901">
        <ele>1385.1549711688</ele>
        <time>2018-09-22T09:10:33.990Z</time>
      </trkpt>
      <trkpt lat="46.24409" lon="10.47887">
        <ele>1382.463811609</ele>
        <time>2018-09-22T09:10:43.990Z</time>
      </trkpt>
      <trkpt lat="46.24414" lon="10.47875">
        <ele>1380.7518714667</ele>
        <time>2018-09-22T09:10:51.988Z</time>
      </trkpt>
      <trkpt lat="46.24422" lon="10.47883">
        <ele>1378.021836367</ele>
        <time>2018-09-22T09:11:00.988Z</time>
      </trkpt>
      <trkpt lat="46.24432" lon="10.47887">
        <ele>1376.6149693477</ele>
        <time>2018-09-22T09:11:07.999Z</time>
      </trkpt>
      <trkpt lat="46.24441" lon="10.47891">
        <ele>1375.1255490985</ele>
        <time>2018-09-22T09:11:13.989Z</time>
      </trkpt>
      <trkpt lat="46.24449" lon="10.47896">
        <ele>1373.0213393323</ele>
        <time>2018-09-22T09:11:20.989Z</time>
      </trkpt>
      <trkpt lat="46.2446" lon="10.47899">
        <ele>1371.6121984</ele>
        <time>2018-09-22T09:11:27.999Z</time>
      </trkpt>
      <trkpt lat="46.24468" lon="10.47903">
        <ele>1370.4144</ele>
        <time>2018-09-22T09:11:33.988Z</time>
      </trkpt>
      <trkpt lat="46.24478" lon="10.47914">
        <ele>1367.51799808</ele>
        <time>2018-09-22T09:11:46.000Z</time>
      </trkpt>
      <trkpt lat="46.24485" lon="10.47924">
        <ele>1365.2394431625</ele>
        <time>2018-09-22T09:11:52.988Z</time>
      </trkpt>
      <trkpt lat="46.24487" lon="10.47939">
        <ele>1362.0788954137</ele>
        <time>2018-09-22T09:12:01.000Z</time>
      </trkpt>
      <trkpt lat="46.24493" lon="10.47949">
        <ele>1361.5168524668</ele>
        <time>2018-09-22T09:12:05.988Z</time>
      </trkpt>
      <trkpt lat="46.24498" lon="10.47961">
        <ele>1361.0111002184</ele>
        <time>2018-09-22T09:12:11.000Z</time>
      </trkpt>
      <trkpt lat="46.24507" lon="10.47966">
        <ele>1360.017085122</ele>
        <time>2018-09-22T09:12:16.000Z</time>
      </trkpt>
      <trkpt lat="46.24512" lon="10.47977">
        <ele>1359.0120590267</ele>
        <time>2018-09-22T09:12:21.000Z</time>
      </trkpt>
      <trkpt lat="46.24517" lon="10.4799">
        <ele>1357.81199872</ele>
        <time>2018-09-22T09:12:27.000Z</time>
      </trkpt>
      <trkpt lat="46.24525" lon="10.47996">
        <ele>1356.81199872</ele>
        <time>2018-09-22T09:12:32.000Z</time>
      </trkpt>
      <trkpt lat="46.24524" lon="10.4801">
        <ele>1354.9081188701</ele>
        <time>2018-09-22T09:12:41.988Z</time>
      </trkpt>
      <trkpt lat="46.2453" lon="10.48022">
        <ele>1354.3128710889</ele>
        <time>2018-09-22T09:12:48.000Z</time>
      </trkpt>
      <trkpt lat="46.24537" lon="10.48035">
        <ele>1352.8468472162</ele>
        <time>2018-09-22T09:12:55.000Z</time>
      </trkpt>
      <trkpt lat="46.24543" lon="10.4805">
        <ele>1350.6266400419</ele>
        <time>2018-09-22T09:13:03.000Z</time>
      </trkpt>
      <trkpt lat="46.24545" lon="10.48063">
        <ele>1349.2163473337</ele>
        <time>2018-09-22T09:13:09.988Z</time>
      </trkpt>
      <trkpt lat="46.2455" lon="10.48075">
        <ele>1348.50599936</ele>
        <time>2018-09-22T09:13:16.000Z</time>
      </trkpt>
      <trkpt lat="46.24557" lon="10.48092">
        <ele>1347.11799808</ele>
        <time>2018-09-22T09:13:24.000Z</time>
      </trkpt>
      <trkpt lat="46.24561" lon="10.48108">
        <ele>1344.81199872</ele>
        <time>2018-09-22T09:13:32.000Z</time>
      </trkpt>
      <trkpt lat="46.24567" lon="10.4812">
        <ele>1343.81199872</ele>
        <time>2018-09-22T09:13:37.000Z</time>
      </trkpt>
      <trkpt lat="46.24572" lon="10.48131">
        <ele>1342.4291253256</ele>
        <time>2018-09-22T09:13:44.000Z</time>
      </trkpt>
      <trkpt lat="46.24581" lon="10.4813">
        <ele>1340.3312943792</ele>
        <time>2018-09-22T09:13:53.000Z</time>
      </trkpt>
      <trkpt lat="46.24588" lon="10.4814">
        <ele>1336.7482294838</ele>
        <time>2018-09-22T09:14:02.000Z</time>
      </trkpt>
      <trkpt lat="46.24595" lon="10.48148">
        <ele>1334.6248718705</ele>
        <time>2018-09-22T09:14:09.000Z</time>
      </trkpt>
      <trkpt lat="46.24602" lon="10.48159">
        <ele>1331.6322063572</ele>
        <time>2018-09-22T09:14:19.000Z</time>
      </trkpt>
      <trkpt lat="46.24612" lon="10.48168">
        <ele>1328.6456463998</ele>
        <time>2018-09-22T09:14:27.000Z</time>
      </trkpt>
      <trkpt lat="46.24618" lon="10.4818">
        <ele>1326.4340722178</ele>
        <time>2018-09-22T09:14:32.987Z</time>
      </trkpt>
      <trkpt lat="46.24624" lon="10.4819">
        <ele>1324.6211041972</ele>
        <time>2018-09-22T09:14:39.000Z</time>
      </trkpt>
      <trkpt lat="46.24628" lon="10.48204">
        <ele>1323.60599936</ele>
        <time>2018-09-22T09:14:45.000Z</time>
      </trkpt>
      <trkpt lat="46.24633" lon="10.48216">
        <ele>1323</ele>
        <time>2018-09-22T09:14:53.002Z</time>
      </trkpt>
      <trkpt lat="46.24641" lon="10.48225">
        <ele>1323</ele>
        <time>2018-09-22T09:14:58.988Z</time>
      </trkpt>
      <trkpt lat="46.24649" lon="10.48234">
        <ele>1321.0299968</ele>
        <time>2018-09-22T09:15:05.000Z</time>
      </trkpt>
      <trkpt lat="46.24657" lon="10.48243">
        <ele>1317.80599936</ele>
        <time>2018-09-22T09:15:13.000Z</time>
      </trkpt>
      <trkpt lat="46.24665" lon="10.48253">
        <ele>1317.10569984</ele>
        <time>2018-09-22T09:15:20.003Z</time>
      </trkpt>
      <trkpt lat="46.24672" lon="10.48263">
        <ele>1313.54199552</ele>
        <time>2018-09-22T09:15:26.000Z</time>
      </trkpt>
      <trkpt lat="46.24678" lon="10.48274">
        <ele>1309.61199872</ele>
        <time>2018-09-22T09:15:33.000Z</time>
      </trkpt>
      <trkpt lat="46.24685" lon="10.48283">
        <ele>1308.21139968</ele>
        <time>2018-09-22T09:15:40.003Z</time>
      </trkpt>
      <trkpt lat="46.24693" lon="10.48293">
        <ele>1305.22399744</ele>
        <time>2018-09-22T09:15:48.000Z</time>
      </trkpt>
      <trkpt lat="46.24701" lon="10.48302">
        <ele>1302.0299968</ele>
        <time>2018-09-22T09:15:55.000Z</time>
      </trkpt>
      <trkpt lat="46.24708" lon="10.48311">
        <ele>1297.5216</ele>
        <time>2018-09-22T09:16:05.988Z</time>
      </trkpt>
      <trkpt lat="46.24713" lon="10.48324">
        <ele>1295.22879488</ele>
        <time>2018-09-22T09:16:12.988Z</time>
      </trkpt>
      <trkpt lat="46.24721" lon="10.48334">
        <ele>1293.62399744</ele>
        <time>2018-09-22T09:16:17.000Z</time>
      </trkpt>
      <trkpt lat="46.24731" lon="10.48342">
        <ele>1289.91799808</ele>
        <time>2018-09-22T09:16:28.000Z</time>
      </trkpt>
      <trkpt lat="46.24737" lon="10.48353">
        <ele>1287.82399744</ele>
        <time>2018-09-22T09:16:34.000Z</time>
      </trkpt>
      <trkpt lat="46.24743" lon="10.48364">
        <ele>1284.22399744</ele>
        <time>2018-09-22T09:16:43.000Z</time>
      </trkpt>
      <trkpt lat="46.24751" lon="10.4837">
        <ele>1281.02399744</ele>
        <time>2018-09-22T09:16:51.000Z</time>
      </trkpt>
      <trkpt lat="46.24761" lon="10.48378">
        <ele>1278.9786401686</ele>
        <time>2018-09-22T09:16:58.000Z</time>
      </trkpt>
      <trkpt lat="46.24769" lon="10.48386">
        <ele>1278</ele>
        <time>2018-09-22T09:17:05.000Z</time>
      </trkpt>
      <trkpt lat="46.24776" lon="10.48396">
        <ele>1276.4574911741</ele>
        <time>2018-09-22T09:17:15.000Z</time>
      </trkpt>
      <trkpt lat="46.24784" lon="10.48401">
        <ele>1273.62800128</ele>
        <time>2018-09-22T09:17:22.000Z</time>
      </trkpt>
      <trkpt lat="46.24792" lon="10.48409">
        <ele>1270.83279872</ele>
        <time>2018-09-22T09:17:28.988Z</time>
      </trkpt>
      <trkpt lat="46.24795" lon="10.48422">
        <ele>1267.6422298008</ele>
        <time>2018-09-22T09:17:36.988Z</time>
      </trkpt>
      <trkpt lat="46.24802" lon="10.48433">
        <ele>1264.8271355116</ele>
        <time>2018-09-22T09:17:45.000Z</time>
      </trkpt>
      <trkpt lat="46.24811" lon="10.48442">
        <ele>1260.62399744</ele>
        <time>2018-09-22T09:17:57.000Z</time>
      </trkpt>
      <trkpt lat="46.24821" lon="10.48433">
        <ele>1256.4178208838</ele>
        <time>2018-09-22T09:18:14.000Z</time>
      </trkpt>
      <trkpt lat="46.24827" lon="10.48423">
        <ele>1254.8323224775</ele>
        <time>2018-09-22T09:18:21.990Z</time>
      </trkpt>
      <trkpt lat="46.24832" lon="10.4841">
        <ele>1253.012119927</ele>
        <time>2018-09-22T09:18:31.000Z</time>
      </trkpt>
      <trkpt lat="46.24839" lon="10.48399">
        <ele>1251.2294936311</ele>
        <time>2018-09-22T09:18:37.003Z</time>
      </trkpt>
      <trkpt lat="46.24843" lon="10.48388">
        <ele>1249.8247727129</ele>
        <time>2018-09-22T09:18:42.000Z</time>
      </trkpt>
      <trkpt lat="46.24845" lon="10.48374">
        <ele>1248.2155066958</ele>
        <time>2018-09-22T09:18:49.990Z</time>
      </trkpt>
      <trkpt lat="46.24843" lon="10.4836">
        <ele>1246.81399808</ele>
        <time>2018-09-22T09:18:56.990Z</time>
      </trkpt>
      <trkpt lat="46.24841" lon="10.48346">
        <ele>1246</ele>
        <time>2018-09-22T09:19:03.000Z</time>
      </trkpt>
      <trkpt lat="46.24834" lon="10.48336">
        <ele>1245.8158397999</ele>
        <time>2018-09-22T09:19:11.990Z</time>
      </trkpt>
      <trkpt lat="46.24827" lon="10.48326">
        <ele>1244.6257421777</ele>
        <time>2018-09-22T09:19:18.000Z</time>
      </trkpt>
      <trkpt lat="46.24818" lon="10.48319">
        <ele>1243.6120201128</ele>
        <time>2018-09-22T09:19:25.001Z</time>
      </trkpt>
      <trkpt lat="46.24811" lon="10.4831">
        <ele>1242.62799616</ele>
        <time>2018-09-22T09:19:31.990Z</time>
      </trkpt>
      <trkpt lat="46.24812" lon="10.48296">
        <ele>1239.82919936</ele>
        <time>2018-09-22T09:19:38.987Z</time>
      </trkpt>
      <trkpt lat="46.24814" lon="10.48283">
        <ele>1237.8227087519</ele>
        <time>2018-09-22T09:19:45.000Z</time>
      </trkpt>
      <trkpt lat="46.24817" lon="10.48265">
        <ele>1234.0321285554</ele>
        <time>2018-09-22T09:19:56.000Z</time>
      </trkpt>
      <trkpt lat="46.24822" lon="10.48254">
        <ele>1231.3274759907</ele>
        <time>2018-09-22T09:20:07.987Z</time>
      </trkpt>
      <trkpt lat="46.24824" lon="10.4824">
        <ele>1229.5686608288</ele>
        <time>2018-09-22T09:20:15.988Z</time>
      </trkpt>
      <trkpt lat="46.24826" lon="10.48227">
        <ele>1226.42519552</ele>
        <time>2018-09-22T09:20:24.997Z</time>
      </trkpt>
      <trkpt lat="46.24831" lon="10.48214">
        <ele>1223.81459968</ele>
        <time>2018-09-22T09:20:31.987Z</time>
      </trkpt>
      <trkpt lat="46.24836" lon="10.48203">
        <ele>1222</ele>
        <time>2018-09-22T09:20:41.987Z</time>
      </trkpt>
      <trkpt lat="46.24843" lon="10.48193">
        <ele>1222</ele>
        <time>2018-09-22T09:20:50.002Z</time>
      </trkpt>
      <trkpt lat="46.24849" lon="10.48183">
        <ele>1218.870919049</ele>
        <time>2018-09-22T09:20:54.987Z</time>
      </trkpt>
      <trkpt lat="46.24856" lon="10.48173">
        <ele>1213.8216890881</ele>
        <time>2018-09-22T09:21:01.988Z</time>
      </trkpt>
      <trkpt lat="46.24865" lon="10.48169">
        <ele>1212.4132529006</ele>
        <time>2018-09-22T09:21:09.002Z</time>
      </trkpt>
      <trkpt lat="46.24875" lon="10.48168">
        <ele>1211.6119568544</ele>
        <time>2018-09-22T09:21:14.987Z</time>
      </trkpt>
      <trkpt lat="46.24884" lon="10.48164">
        <ele>1210.9183208658</ele>
        <time>2018-09-22T09:21:21.987Z</time>
      </trkpt>
      <trkpt lat="46.24894" lon="10.48158">
        <ele>1210.0073885116</ele>
        <time>2018-09-22T09:21:30.987Z</time>
      </trkpt>
      <trkpt lat="46.24905" lon="10.48158">
        <ele>1208.6183431726</ele>
        <time>2018-09-22T09:21:37.989Z</time>
      </trkpt>
      <trkpt lat="46.24914" lon="10.48156">
        <ele>1207.6194585739</ele>
        <time>2018-09-22T09:21:42.987Z</time>
      </trkpt>
      <trkpt lat="46.24924" lon="10.48152">
        <ele>1206.4136391297</ele>
        <time>2018-09-22T09:21:48.998Z</time>
      </trkpt>
      <trkpt lat="46.24934" lon="10.48147">
        <ele>1204.8206976</ele>
        <time>2018-09-22T09:21:54.991Z</time>
      </trkpt>
      <trkpt lat="46.24944" lon="10.48145">
        <ele>1202.81399808</ele>
        <time>2018-09-22T09:22:01.990Z</time>
      </trkpt>
      <trkpt lat="46.24953" lon="10.48141">
        <ele>1201.41159936</ele>
        <time>2018-09-22T09:22:09.002Z</time>
      </trkpt>
      <trkpt lat="46.24962" lon="10.48143">
        <ele>1199.8291931427</ele>
        <time>2018-09-22T09:22:14.990Z</time>
      </trkpt>
      <trkpt lat="46.24972" lon="10.48145">
        <ele>1197.8271909212</ele>
        <time>2018-09-22T09:22:21.988Z</time>
      </trkpt>
      <trkpt lat="46.2498" lon="10.4815">
        <ele>1195.81459968</ele>
        <time>2018-09-22T09:22:31.987Z</time>
      </trkpt>
      <trkpt lat="46.2499" lon="10.48155">
        <ele>1194.2144</ele>
        <time>2018-09-22T09:22:39.988Z</time>
      </trkpt>
      <trkpt lat="46.24999" lon="10.48149">
        <ele>1192.81459968</ele>
        <time>2018-09-22T09:22:46.987Z</time>
      </trkpt>
      <trkpt lat="46.25008" lon="10.48145">
        <ele>1190.82519552</ele>
        <time>2018-09-22T09:22:53.997Z</time>
      </trkpt>
      <trkpt lat="46.25017" lon="10.48142">
        <ele>1188.02879488</ele>
        <time>2018-09-22T09:23:00.988Z</time>
      </trkpt>
      <trkpt lat="46.25026" lon="10.48138">
        <ele>1187.20599936</ele>
        <time>2018-09-22T09:23:09.000Z</time>
      </trkpt>
      <trkpt lat="46.25036" lon="10.48132">
        <ele>1186.2469342566</ele>
        <time>2018-09-22T09:23:14.991Z</time>
      </trkpt>
      <trkpt lat="46.25045" lon="10.4813">
        <ele>1185.2890810249</ele>
        <time>2018-09-22T09:23:19.991Z</time>
      </trkpt>
      <trkpt lat="46.25055" lon="10.48129">
        <ele>1183.5919472361</ele>
        <time>2018-09-22T09:23:25.987Z</time>
      </trkpt>
      <trkpt lat="46.25063" lon="10.48136">
        <ele>1181.41159936</ele>
        <time>2018-09-22T09:23:34.002Z</time>
      </trkpt>
      <trkpt lat="46.2506" lon="10.48122">
        <ele>1180</ele>
        <time>2018-09-22T09:23:47.990Z</time>
      </trkpt>
      <trkpt lat="46.25055" lon="10.48109">
        <ele>1179.60699904</ele>
        <time>2018-09-22T09:23:54.990Z</time>
      </trkpt>
      <trkpt lat="46.2505" lon="10.48098">
        <ele>1179</ele>
        <time>2018-09-22T09:24:01.990Z</time>
      </trkpt>
      <trkpt lat="46.25046" lon="10.48086">
        <ele>1179</ele>
        <time>2018-09-22T09:24:10.986Z</time>
      </trkpt>
      <trkpt lat="46.25041" lon="10.48073">
        <ele>1178.114587116</ele>
        <time>2018-09-22T09:24:19.991Z</time>
      </trkpt>
      <trkpt lat="46.25037" lon="10.48059">
        <ele>1176.6183265638</ele>
        <time>2018-09-22T09:24:27.990Z</time>
      </trkpt>
      <trkpt lat="46.25032" lon="10.48046">
        <ele>1175.70569984</ele>
        <time>2018-09-22T09:24:34.003Z</time>
      </trkpt>
      <trkpt lat="46.25027" lon="10.48032">
        <ele>1175.20579968</ele>
        <time>2018-09-22T09:24:39.002Z</time>
      </trkpt>
      <trkpt lat="46.25025" lon="10.48018">
        <ele>1174.5106257762</ele>
        <time>2018-09-22T09:24:45.988Z</time>
      </trkpt>
      <trkpt lat="46.2502" lon="10.48006">
        <ele>1173.2503502922</ele>
        <time>2018-09-22T09:24:52.991Z</time>
      </trkpt>
      <trkpt lat="46.25015" lon="10.47995">
        <ele>1170.8290019993</ele>
        <time>2018-09-22T09:24:59.002Z</time>
      </trkpt>
      <trkpt lat="46.25011" lon="10.47983">
        <ele>1170</ele>
        <time>2018-09-22T09:25:04.989Z</time>
      </trkpt>
      <trkpt lat="46.25005" lon="10.47971">
        <ele>1170</ele>
        <time>2018-09-22T09:25:10.987Z</time>
      </trkpt>
      <trkpt lat="46.25002" lon="10.47958">
        <ele>1169.20599936</ele>
        <time>2018-09-22T09:25:19.000Z</time>
      </trkpt>
      <trkpt lat="46.24997" lon="10.47946">
        <ele>1169</ele>
        <time>2018-09-22T09:25:27.990Z</time>
      </trkpt>
      <trkpt lat="46.24995" lon="10.47932">
        <ele>1168.6122243769</ele>
        <time>2018-09-22T09:25:34.990Z</time>
      </trkpt>
      <trkpt lat="46.2499" lon="10.47919">
        <ele>1167.8212855535</ele>
        <time>2018-09-22T09:25:41.990Z</time>
      </trkpt>
      <trkpt lat="46.24989" lon="10.47906">
        <ele>1166.8172681989</ele>
        <time>2018-09-22T09:25:46.990Z</time>
      </trkpt>
      <trkpt lat="46.24986" lon="10.47893">
        <ele>1166</ele>
        <time>2018-09-22T09:25:53.998Z</time>
      </trkpt>
      <trkpt lat="46.24982" lon="10.4788">
        <ele>1165.8074840351</ele>
        <time>2018-09-22T09:26:02.989Z</time>
      </trkpt>
      <trkpt lat="46.24981" lon="10.47866">
        <ele>1165.0090813515</ele>
        <time>2018-09-22T09:26:10.989Z</time>
      </trkpt>
      <trkpt lat="46.24977" lon="10.47852">
        <ele>1163.4225096414</ele>
        <time>2018-09-22T09:26:18.999Z</time>
      </trkpt>
      <trkpt lat="46.24972" lon="10.4784">
        <ele>1162.52431625</ele>
        <time>2018-09-22T09:26:25.991Z</time>
      </trkpt>
      <trkpt lat="46.24968" lon="10.47827">
        <ele>1161.9360117401</ele>
        <time>2018-09-22T09:26:31.989Z</time>
      </trkpt>
      <trkpt lat="46.24964" lon="10.47814">
        <ele>1161.3254324068</ele>
        <time>2018-09-22T09:26:37.991Z</time>
      </trkpt>
      <trkpt lat="46.2496" lon="10.47799">
        <ele>1161</ele>
        <time>2018-09-22T09:26:43.999Z</time>
      </trkpt>
      <trkpt lat="46.24955" lon="10.47788">
        <ele>1161</ele>
        <time>2018-09-22T09:26:48.999Z</time>
      </trkpt>
      <trkpt lat="46.2495" lon="10.47777">
        <ele>1160.2211259371</ele>
        <time>2018-09-22T09:26:54.991Z</time>
      </trkpt>
      <trkpt lat="46.24944" lon="10.47766">
        <ele>1159.01428347</ele>
        <time>2018-09-22T09:27:00.989Z</time>
      </trkpt>
      <trkpt lat="46.24938" lon="10.47755">
        <ele>1159</ele>
        <time>2018-09-22T09:27:06.986Z</time>
      </trkpt>
      <trkpt lat="46.2493" lon="10.47746">
        <ele>1158.7235992051</ele>
        <time>2018-09-22T09:27:14.001Z</time>
      </trkpt>
      <trkpt lat="46.24923" lon="10.47736">
        <ele>1158.0367751542</ele>
        <time>2018-09-22T09:27:20.986Z</time>
      </trkpt>
      <trkpt lat="46.24917" lon="10.47726">
        <ele>1157.3169070957</ele>
        <time>2018-09-22T09:27:27.986Z</time>
      </trkpt>
      <trkpt lat="46.24911" lon="10.47716">
        <ele>1156.60699904</ele>
        <time>2018-09-22T09:27:34.990Z</time>
      </trkpt>
      <trkpt lat="46.24905" lon="10.47706">
        <ele>1155.8162692063</ele>
        <time>2018-09-22T09:27:41.986Z</time>
      </trkpt>
      <trkpt lat="46.24899" lon="10.47696">
        <ele>1154.6249980952</ele>
        <time>2018-09-22T09:27:47.990Z</time>
      </trkpt>
      <trkpt lat="46.24893" lon="10.47684">
        <ele>1153.7112903226</ele>
        <time>2018-09-22T09:27:54.004Z</time>
      </trkpt>
      <trkpt lat="46.24888" lon="10.47672">
        <ele>1153.1078619355</ele>
        <time>2018-09-22T09:27:59.990Z</time>
      </trkpt>
      <trkpt lat="46.24882" lon="10.47659">
        <ele>1153</ele>
        <time>2018-09-22T09:28:05.990Z</time>
      </trkpt>
      <trkpt lat="46.24879" lon="10.47646">
        <ele>1152.9068992</ele>
        <time>2018-09-22T09:28:11.991Z</time>
      </trkpt>
      <trkpt lat="46.24874" lon="10.47635">
        <ele>1152.2064</ele>
        <time>2018-09-22T09:28:18.996Z</time>
      </trkpt>
      <trkpt lat="46.24868" lon="10.47622">
        <ele>1152</ele>
        <time>2018-09-22T09:28:26.989Z</time>
      </trkpt>
      <trkpt lat="46.24863" lon="10.4761">
        <ele>1151.90699904</ele>
        <time>2018-09-22T09:28:31.990Z</time>
      </trkpt>
      <trkpt lat="46.24857" lon="10.47598">
        <ele>1151.30699904</ele>
        <time>2018-09-22T09:28:37.990Z</time>
      </trkpt>
      <trkpt lat="46.24851" lon="10.47587">
        <ele>1150.6093432306</ele>
        <time>2018-09-22T09:28:44.990Z</time>
      </trkpt>
      <trkpt lat="46.24843" lon="10.4758">
        <ele>1149.9124744708</ele>
        <time>2018-09-22T09:28:51.990Z</time>
      </trkpt>
      <trkpt lat="46.24833" lon="10.47578">
        <ele>1149.3091549677</ele>
        <time>2018-09-22T09:28:57.987Z</time>
      </trkpt>
      <trkpt lat="46.24824" lon="10.47585">
        <ele>1149.4931008</ele>
        <time>2018-09-22T09:29:05.991Z</time>
      </trkpt>
      <trkpt lat="46.24815" lon="10.47586">
        <ele>1149.6109019361</ele>
        <time>2018-09-22T09:29:14.986Z</time>
      </trkpt>
      <trkpt lat="46.24806" lon="10.47589">
        <ele>1149.0158572693</ele>
        <time>2018-09-22T09:29:20.990Z</time>
      </trkpt>
      <trkpt lat="46.24797" lon="10.47595">
        <ele>1149</ele>
        <time>2018-09-22T09:29:30.988Z</time>
      </trkpt>
      <trkpt lat="46.24788" lon="10.47599">
        <ele>1148</ele>
        <time>2018-09-22T09:30:14.989Z</time>
      </trkpt>
      <trkpt lat="46.24797" lon="10.47596">
        <ele>1146.7129294306</ele>
        <time>2018-09-22T09:31:04.002Z</time>
      </trkpt>
      <trkpt lat="46.24788" lon="10.47593">
        <ele>1146</ele>
        <time>2018-09-22T09:32:01.987Z</time>
      </trkpt>
      <trkpt lat="46.24798" lon="10.47591">
        <ele>1144.0068992</ele>
        <time>2018-09-22T09:39:00.991Z</time>
      </trkpt>
      <trkpt lat="46.2479" lon="10.47599">
        <ele>1142</ele>
        <time>2018-09-22T09:43:07.988Z</time>
      </trkpt>
      <trkpt lat="46.248" lon="10.47592">
        <ele>1142</ele>
        <time>2018-09-22T09:44:28.990Z</time>
      </trkpt>
      <trkpt lat="46.24791" lon="10.47592">
        <ele>1140.30709888</ele>
        <time>2018-09-22T09:47:57.989Z</time>
      </trkpt>
      <trkpt lat="46.24797" lon="10.47582">
        <ele>1141</ele>
        <time>2018-09-22T09:49:51.988Z</time>
      </trkpt>
      <trkpt lat="46.24806" lon="10.47584">
        <ele>1141</ele>
        <time>2018-09-22T09:50:03.990Z</time>
      </trkpt>
      <trkpt lat="46.24815" lon="10.47586">
        <ele>1141</ele>
        <time>2018-09-22T09:50:18.991Z</time>
      </trkpt>
      <trkpt lat="46.24819" lon="10.47574">
        <ele>1141</ele>
        <time>2018-09-22T09:50:30.989Z</time>
      </trkpt>
      <trkpt lat="46.24812" lon="10.47566">
        <ele>1140.30699904</ele>
        <time>2018-09-22T09:50:37.990Z</time>
      </trkpt>
      <trkpt lat="46.24804" lon="10.47557">
        <ele>1139.3111326848</ele>
        <time>2018-09-22T09:50:47.990Z</time>
      </trkpt>
      <trkpt lat="46.24796" lon="10.47547">
        <ele>1139</ele>
        <time>2018-09-22T09:50:55.988Z</time>
      </trkpt>
      <trkpt lat="46.24789" lon="10.47537">
        <ele>1139</ele>
        <time>2018-09-22T09:51:03.988Z</time>
      </trkpt>
      <trkpt lat="46.24784" lon="10.47527">
        <ele>1138.907653021</ele>
        <time>2018-09-22T09:51:11.989Z</time>
      </trkpt>
      <trkpt lat="46.24778" lon="10.47515">
        <ele>1138.2119276584</ele>
        <time>2018-09-22T09:51:18.988Z</time>
      </trkpt>
      <trkpt lat="46.2477" lon="10.47506">
        <ele>1138</ele>
        <time>2018-09-22T09:51:25.000Z</time>
      </trkpt>
      <trkpt lat="46.24763" lon="10.47496">
        <ele>1137.90699904</ele>
        <time>2018-09-22T09:51:31.990Z</time>
      </trkpt>
      <trkpt lat="46.24754" lon="10.47487">
        <ele>1137.30699904</ele>
        <time>2018-09-22T09:51:37.990Z</time>
      </trkpt>
      <trkpt lat="46.24747" lon="10.47479">
        <ele>1137</ele>
        <time>2018-09-22T09:51:43.990Z</time>
      </trkpt>
      <trkpt lat="46.2474" lon="10.47471">
        <ele>1137</ele>
        <time>2018-09-22T09:51:50.000Z</time>
      </trkpt>
      <trkpt lat="46.24733" lon="10.47461">
        <ele>1135.839173832</ele>
        <time>2018-09-22T09:51:56.990Z</time>
      </trkpt>
      <trkpt lat="46.24725" lon="10.47453">
        <ele>1135.2915429653</ele>
        <time>2018-09-22T09:52:03.990Z</time>
      </trkpt>
      <trkpt lat="46.24719" lon="10.47443">
        <ele>1135.9879603697</ele>
        <time>2018-09-22T09:52:10.989Z</time>
      </trkpt>
      <trkpt lat="46.24713" lon="10.47434">
        <ele>1135.9072</ele>
        <time>2018-09-22T09:52:21.988Z</time>
      </trkpt>
      <trkpt lat="46.24706" lon="10.47422">
        <ele>1135.00719872</ele>
        <time>2018-09-22T09:52:30.988Z</time>
      </trkpt>
      <trkpt lat="46.247" lon="10.47411">
        <ele>1135</ele>
        <time>2018-09-22T09:52:37.989Z</time>
      </trkpt>
      <trkpt lat="46.24694" lon="10.47399">
        <ele>1135</ele>
        <time>2018-09-22T09:52:45.000Z</time>
      </trkpt>
      <trkpt lat="46.24691" lon="10.47385">
        <ele>1135</ele>
        <time>2018-09-22T09:52:50.989Z</time>
      </trkpt>
      <trkpt lat="46.24689" lon="10.47372">
        <ele>1134.4148067935</ele>
        <time>2018-09-22T09:52:56.988Z</time>
      </trkpt>
      <trkpt lat="46.24687" lon="10.4736">
        <ele>1134</ele>
        <time>2018-09-22T09:53:02.988Z</time>
      </trkpt>
      <trkpt lat="46.24685" lon="10.47347">
        <ele>1134</ele>
        <time>2018-09-22T09:53:09.998Z</time>
      </trkpt>
      <trkpt lat="46.24682" lon="10.47333">
        <ele>1134</ele>
        <time>2018-09-22T09:53:15.989Z</time>
      </trkpt>
      <trkpt lat="46.2468" lon="10.4732">
        <ele>1133.909018619</ele>
        <time>2018-09-22T09:53:21.988Z</time>
      </trkpt>
      <trkpt lat="46.24677" lon="10.47307">
        <ele>1133.207614081</ele>
        <time>2018-09-22T09:53:28.988Z</time>
      </trkpt>
      <trkpt lat="46.24668" lon="10.47308">
        <ele>1133.0924388371</ele>
        <time>2018-09-22T09:53:41.989Z</time>
      </trkpt>
      <trkpt lat="46.2466" lon="10.47316">
        <ele>1133.7890549279</ele>
        <time>2018-09-22T09:53:48.990Z</time>
      </trkpt>
      <trkpt lat="46.24653" lon="10.47325">
        <ele>1134.6913576118</ele>
        <time>2018-09-22T09:53:57.989Z</time>
      </trkpt>
      <trkpt lat="46.24647" lon="10.47338">
        <ele>1135</ele>
        <time>2018-09-22T09:54:08.990Z</time>
      </trkpt>
      <trkpt lat="46.24643" lon="10.4735">
        <ele>1137.0847629479</ele>
        <time>2018-09-22T09:54:21.990Z</time>
      </trkpt>
      <trkpt lat="46.24639" lon="10.47362">
        <ele>1138.58600192</ele>
        <time>2018-09-22T09:54:33.990Z</time>
      </trkpt>
      <trkpt lat="46.2463" lon="10.47371">
        <ele>1140.69300096</ele>
        <time>2018-09-22T09:54:47.990Z</time>
      </trkpt>
      <trkpt lat="46.24626" lon="10.47383">
        <ele>1144.5301465481</ele>
        <time>2018-09-22T09:55:03.990Z</time>
      </trkpt>
      <trkpt lat="46.24621" lon="10.47396">
        <ele>1147.49290112</ele>
        <time>2018-09-22T09:55:25.989Z</time>
      </trkpt>
      <trkpt lat="46.24614" lon="10.47405">
        <ele>1149.1873118831</ele>
        <time>2018-09-22T09:55:42.990Z</time>
      </trkpt>
      <trkpt lat="46.24607" lon="10.47413">
        <ele>1151.77900288</ele>
        <time>2018-09-22T09:55:56.990Z</time>
      </trkpt>
      <trkpt lat="46.246" lon="10.47422">
        <ele>1153.89300096</ele>
        <time>2018-09-22T09:56:09.990Z</time>
      </trkpt>
      <trkpt lat="46.24595" lon="10.47432">
        <ele>1156.7735368233</ele>
        <time>2018-09-22T09:56:24.989Z</time>
      </trkpt>
      <trkpt lat="46.24586" lon="10.47439">
        <ele>1159.7733879568</ele>
        <time>2018-09-22T09:56:39.989Z</time>
      </trkpt>
      <trkpt lat="46.24577" lon="10.4744">
        <ele>1162.49300096</ele>
        <time>2018-09-22T09:56:55.990Z</time>
      </trkpt>
      <trkpt lat="46.24567" lon="10.47441">
        <ele>1163.7924153022</ele>
        <time>2018-09-22T09:57:09.000Z</time>
      </trkpt>
      <trkpt lat="46.24558" lon="10.47439">
        <ele>1166.39300096</ele>
        <time>2018-09-22T09:57:24.990Z</time>
      </trkpt>
      <trkpt lat="46.24549" lon="10.47435">
        <ele>1167.69300096</ele>
        <time>2018-09-22T09:57:37.990Z</time>
      </trkpt>
      <trkpt lat="46.24543" lon="10.47424">
        <ele>1170.1818914652</ele>
        <time>2018-09-22T09:57:52.988Z</time>
      </trkpt>
      <trkpt lat="46.24533" lon="10.47423">
        <ele>1171.5625</ele>
        <time>2018-09-22T09:58:04.000Z</time>
      </trkpt>
      <trkpt lat="46.24525" lon="10.47431">
        <ele>1174.3487289201</ele>
        <time>2018-09-22T09:58:17.989Z</time>
      </trkpt>
      <trkpt lat="46.2452" lon="10.47441">
        <ele>1176.78600192</ele>
        <time>2018-09-22T09:58:34.990Z</time>
      </trkpt>
      <trkpt lat="46.24515" lon="10.47453">
        <ele>1181.3797995182</ele>
        <time>2018-09-22T09:58:57.990Z</time>
      </trkpt>
      <trkpt lat="46.24508" lon="10.47462">
        <ele>1184.49300096</ele>
        <time>2018-09-22T09:59:15.990Z</time>
      </trkpt>
      <trkpt lat="46.245" lon="10.47469">
        <ele>1186.763080185</ele>
        <time>2018-09-22T09:59:29.990Z</time>
      </trkpt>
      <trkpt lat="46.24491" lon="10.47472">
        <ele>1189.3824696319</ele>
        <time>2018-09-22T09:59:48.000Z</time>
      </trkpt>
      <trkpt lat="46.24481" lon="10.47474">
        <ele>1190.38560256</ele>
        <time>2018-09-22T10:00:02.988Z</time>
      </trkpt>
      <trkpt lat="46.24472" lon="10.47476">
        <ele>1192.5856</ele>
        <time>2018-09-22T10:00:13.988Z</time>
      </trkpt>
      <trkpt lat="46.24462" lon="10.47474">
        <ele>1194.1915601377</ele>
        <time>2018-09-22T10:00:22.989Z</time>
      </trkpt>
      <trkpt lat="46.24452" lon="10.47471">
        <ele>1194.8867931244</ele>
        <time>2018-09-22T10:00:29.990Z</time>
      </trkpt>
      <trkpt lat="46.24443" lon="10.47468">
        <ele>1195</ele>
        <time>2018-09-22T10:00:38.000Z</time>
      </trkpt>
      <trkpt lat="46.24433" lon="10.47464">
        <ele>1194.6094375704</ele>
        <time>2018-09-22T10:00:44.990Z</time>
      </trkpt>
      <trkpt lat="46.24428" lon="10.47449">
        <ele>1192.8526815038</ele>
        <time>2018-09-22T10:00:54.000Z</time>
      </trkpt>
      <trkpt lat="46.24424" lon="10.47437">
        <ele>1190.1209767452</ele>
        <time>2018-09-22T10:01:01.000Z</time>
      </trkpt>
      <trkpt lat="46.24417" lon="10.47426">
        <ele>1190</ele>
        <time>2018-09-22T10:01:09.000Z</time>
      </trkpt>
      <trkpt lat="46.24409" lon="10.47419">
        <ele>1189.5257530109</ele>
        <time>2018-09-22T10:01:16.000Z</time>
      </trkpt>
      <trkpt lat="46.24399" lon="10.47409">
        <ele>1188.8777195035</ele>
        <time>2018-09-22T10:01:22.000Z</time>
      </trkpt>
      <trkpt lat="46.24392" lon="10.474">
        <ele>1186.8061933527</ele>
        <time>2018-09-22T10:01:33.000Z</time>
      </trkpt>
      <trkpt lat="46.24384" lon="10.47393">
        <ele>1186.2067933282</ele>
        <time>2018-09-22T10:01:39.000Z</time>
      </trkpt>
      <trkpt lat="46.24376" lon="10.47387">
        <ele>1185.7067067452</ele>
        <time>2018-09-22T10:01:44.000Z</time>
      </trkpt>
      <trkpt lat="46.24368" lon="10.47381">
        <ele>1184.6277204735</ele>
        <time>2018-09-22T10:01:52.000Z</time>
      </trkpt>
      <trkpt lat="46.24358" lon="10.47378">
        <ele>1182.2562393624</ele>
        <time>2018-09-22T10:01:57.988Z</time>
      </trkpt>
      <trkpt lat="46.2435" lon="10.47374">
        <ele>1180.5120197249</ele>
        <time>2018-09-22T10:02:05.991Z</time>
      </trkpt>
      <trkpt lat="46.2434" lon="10.47372">
        <ele>1179.8071920331</ele>
        <time>2018-09-22T10:02:12.990Z</time>
      </trkpt>
      <trkpt lat="46.2433" lon="10.4737">
        <ele>1179.1068933241</ele>
        <time>2018-09-22T10:02:20.000Z</time>
      </trkpt>
      <trkpt lat="46.24321" lon="10.4737">
        <ele>1177.8128123126</ele>
        <time>2018-09-22T10:02:27.000Z</time>
      </trkpt>
      <trkpt lat="46.2431" lon="10.47369">
        <ele>1176.80599936</ele>
        <time>2018-09-22T10:02:33.000Z</time>
      </trkpt>
      <trkpt lat="46.24301" lon="10.47366">
        <ele>1176.30599936</ele>
        <time>2018-09-22T10:02:38.000Z</time>
      </trkpt>
      <trkpt lat="46.24292" lon="10.47367">
        <ele>1175.61199872</ele>
        <time>2018-09-22T10:02:43.000Z</time>
      </trkpt>
      <trkpt lat="46.24282" lon="10.47368">
        <ele>1174.21399808</ele>
        <time>2018-09-22T10:02:49.990Z</time>
      </trkpt>
      <trkpt lat="46.24272" lon="10.4737">
        <ele>1172.81199872</ele>
        <time>2018-09-22T10:02:57.000Z</time>
      </trkpt>
      <trkpt lat="46.24262" lon="10.47371">
        <ele>1171.7090358819</ele>
        <time>2018-09-22T10:03:03.990Z</time>
      </trkpt>
      <trkpt lat="46.24252" lon="10.47374">
        <ele>1171.0129093107</ele>
        <time>2018-09-22T10:03:11.000Z</time>
      </trkpt>
      <trkpt lat="46.24244" lon="10.47369">
        <ele>1168.9244696635</ele>
        <time>2018-09-22T10:03:18.000Z</time>
      </trkpt>
      <trkpt lat="46.2425" lon="10.47358">
        <ele>1167.4105362001</ele>
        <time>2018-09-22T10:03:26.990Z</time>
      </trkpt>
      <trkpt lat="46.24258" lon="10.47351">
        <ele>1166.5159045625</ele>
        <time>2018-09-22T10:03:35.990Z</time>
      </trkpt>
      <trkpt lat="46.24267" lon="10.47346">
        <ele>1165.816801706</ele>
        <time>2018-09-22T10:03:42.990Z</time>
      </trkpt>
      <trkpt lat="46.24276" lon="10.47341">
        <ele>1165.4109310587</ele>
        <time>2018-09-22T10:03:47.000Z</time>
      </trkpt>
      <trkpt lat="46.24283" lon="10.47332">
        <ele>1164.90699904</ele>
        <time>2018-09-22T10:03:51.990Z</time>
      </trkpt>
      <trkpt lat="46.24291" lon="10.47327">
        <ele>1164.40709888</ele>
        <time>2018-09-22T10:03:56.989Z</time>
      </trkpt>
      <trkpt lat="46.24299" lon="10.47319">
        <ele>1164</ele>
        <time>2018-09-22T10:04:03.986Z</time>
      </trkpt>
      <trkpt lat="46.24307" lon="10.4731">
        <ele>1164</ele>
        <time>2018-09-22T10:04:10.000Z</time>
      </trkpt>
      <trkpt lat="46.24314" lon="10.47301">
        <ele>1164</ele>
        <time>2018-09-22T10:04:15.989Z</time>
      </trkpt>
      <trkpt lat="46.24317" lon="10.47287">
        <ele>1163.7082661887</ele>
        <time>2018-09-22T10:04:23.989Z</time>
      </trkpt>
      <trkpt lat="46.24322" lon="10.47275">
        <ele>1162.9107430178</ele>
        <time>2018-09-22T10:04:31.989Z</time>
      </trkpt>
      <trkpt lat="46.24327" lon="10.47264">
        <ele>1162.2080311107</ele>
        <time>2018-09-22T10:04:38.988Z</time>
      </trkpt>
      <trkpt lat="46.24331" lon="10.4725">
        <ele>1161.30699904</ele>
        <time>2018-09-22T10:04:47.990Z</time>
      </trkpt>
      <trkpt lat="46.24336" lon="10.47239">
        <ele>1160.6060992</ele>
        <time>2018-09-22T10:04:54.999Z</time>
      </trkpt>
      <trkpt lat="46.24341" lon="10.47227">
        <ele>1160</ele>
        <time>2018-09-22T10:05:01.990Z</time>
      </trkpt>
      <trkpt lat="46.24348" lon="10.47218">
        <ele>1160</ele>
        <time>2018-09-22T10:05:07.990Z</time>
      </trkpt>
      <trkpt lat="46.24355" lon="10.47209">
        <ele>1160</ele>
        <time>2018-09-22T10:05:13.989Z</time>
      </trkpt>
      <trkpt lat="46.24361" lon="10.47199">
        <ele>1160</ele>
        <time>2018-09-22T10:05:19.998Z</time>
      </trkpt>
      <trkpt lat="46.24369" lon="10.47189">
        <ele>1160</ele>
        <time>2018-09-22T10:05:27.989Z</time>
      </trkpt>
      <trkpt lat="46.24374" lon="10.47179">
        <ele>1159.6185436076</ele>
        <time>2018-09-22T10:05:34.999Z</time>
      </trkpt>
      <trkpt lat="46.24382" lon="10.47168">
        <ele>1159.0359220417</ele>
        <time>2018-09-22T10:05:41.000Z</time>
      </trkpt>
      <trkpt lat="46.24386" lon="10.47156">
        <ele>1157.8498465047</ele>
        <time>2018-09-22T10:05:47.000Z</time>
      </trkpt>
      <trkpt lat="46.2439" lon="10.47143">
        <ele>1156.139393383</ele>
        <time>2018-09-22T10:05:54.000Z</time>
      </trkpt>
      <trkpt lat="46.24393" lon="10.4713">
        <ele>1154.0181798905</ele>
        <time>2018-09-22T10:06:01.000Z</time>
      </trkpt>
      <trkpt lat="46.24388" lon="10.47119">
        <ele>1154</ele>
        <time>2018-09-22T10:06:10.000Z</time>
      </trkpt>
      <trkpt lat="46.24381" lon="10.4711">
        <ele>1152.61199872</ele>
        <time>2018-09-22T10:06:18.000Z</time>
      </trkpt>
      <trkpt lat="46.24375" lon="10.47099">
        <ele>1152</ele>
        <time>2018-09-22T10:06:24.000Z</time>
      </trkpt>
      <trkpt lat="46.24373" lon="10.47087">
        <ele>1152</ele>
        <time>2018-09-22T10:06:30.000Z</time>
      </trkpt>
      <trkpt lat="46.24372" lon="10.47073">
        <ele>1152</ele>
        <time>2018-09-22T10:06:37.000Z</time>
      </trkpt>
      <trkpt lat="46.24369" lon="10.4706">
        <ele>1151.6095378115</ele>
        <time>2018-09-22T10:06:44.989Z</time>
      </trkpt>
      <trkpt lat="46.24361" lon="10.47052">
        <ele>1150.6225673182</ele>
        <time>2018-09-22T10:06:53.000Z</time>
      </trkpt>
      <trkpt lat="46.24349" lon="10.47053">
        <ele>1149.0661490227</ele>
        <time>2018-09-22T10:07:01.000Z</time>
      </trkpt>
      <trkpt lat="46.2434" lon="10.47048">
        <ele>1148.211933777</ele>
        <time>2018-09-22T10:07:09.000Z</time>
      </trkpt>
      <trkpt lat="46.24338" lon="10.47034">
        <ele>1146.82099712</ele>
        <time>2018-09-22T10:07:14.990Z</time>
      </trkpt>
      <trkpt lat="46.24332" lon="10.47024">
        <ele>1144.8138602368</ele>
        <time>2018-09-22T10:07:22.000Z</time>
      </trkpt>
      <trkpt lat="46.24328" lon="10.4701">
        <ele>1143.8259391202</ele>
        <time>2018-09-22T10:07:26.989Z</time>
      </trkpt>
      <trkpt lat="46.2432" lon="10.47001">
        <ele>1142.8372542745</ele>
        <time>2018-09-22T10:07:31.990Z</time>
      </trkpt>
      <trkpt lat="46.24313" lon="10.46994">
        <ele>1142.052940549</ele>
        <time>2018-09-22T10:07:35.990Z</time>
      </trkpt>
      <trkpt lat="46.24313" lon="10.46981">
        <ele>1141.2719592722</ele>
        <time>2018-09-22T10:07:43.998Z</time>
      </trkpt>
      <trkpt lat="46.24308" lon="10.46969">
        <ele>1141.80699904</ele>
        <time>2018-09-22T10:07:52.990Z</time>
      </trkpt>
      <trkpt lat="46.24305" lon="10.46955">
        <ele>1141.09290112</ele>
        <time>2018-09-22T10:08:01.989Z</time>
      </trkpt>
      <trkpt lat="46.24302" lon="10.46943">
        <ele>1141.99300096</ele>
        <time>2018-09-22T10:08:10.990Z</time>
      </trkpt>
      <trkpt lat="46.24299" lon="10.4693">
        <ele>1142</ele>
        <time>2018-09-22T10:08:19.000Z</time>
      </trkpt>
      <trkpt lat="46.24295" lon="10.46918">
        <ele>1142</ele>
        <time>2018-09-22T10:08:25.989Z</time>
      </trkpt>
      <trkpt lat="46.2429" lon="10.46904">
        <ele>1141.60709888</ele>
        <time>2018-09-22T10:08:34.989Z</time>
      </trkpt>
      <trkpt lat="46.24287" lon="10.46891">
        <ele>1141</ele>
        <time>2018-09-22T10:08:41.988Z</time>
      </trkpt>
      <trkpt lat="46.24292" lon="10.4688">
        <ele>1141</ele>
        <time>2018-09-22T10:08:49.988Z</time>
      </trkpt>
      <trkpt lat="46.24285" lon="10.46871">
        <ele>1142.78520064</ele>
        <time>2018-09-22T10:09:04.986Z</time>
      </trkpt>
      <trkpt lat="46.24276" lon="10.46866">
        <ele>1144.3905575249</ele>
        <time>2018-09-22T10:09:14.989Z</time>
      </trkpt>
      <trkpt lat="46.24268" lon="10.46861">
        <ele>1145.4895372166</ele>
        <time>2018-09-22T10:09:25.986Z</time>
      </trkpt>
      <trkpt lat="46.2426" lon="10.46854">
        <ele>1147.38520064</ele>
        <time>2018-09-22T10:09:37.986Z</time>
      </trkpt>
      <trkpt lat="46.24252" lon="10.46848">
        <ele>1148.69260032</ele>
        <time>2018-09-22T10:09:47.986Z</time>
      </trkpt>
      <trkpt lat="46.24242" lon="10.46845">
        <ele>1150.78580224</ele>
        <time>2018-09-22T10:09:59.989Z</time>
      </trkpt>
      <trkpt lat="46.24234" lon="10.46841">
        <ele>1151.9931008</ele>
        <time>2018-09-22T10:10:10.991Z</time>
      </trkpt>
      <trkpt lat="46.24224" lon="10.46839">
        <ele>1154</ele>
        <time>2018-09-22T10:10:21.989Z</time>
      </trkpt>
      <trkpt lat="46.24215" lon="10.46834">
        <ele>1154</ele>
        <time>2018-09-22T10:10:31.989Z</time>
      </trkpt>
      <trkpt lat="46.24207" lon="10.4683">
        <ele>1154.1699225</ele>
        <time>2018-09-22T10:10:41.990Z</time>
      </trkpt>
      <trkpt lat="46.24198" lon="10.46826">
        <ele>1155.92754</ele>
        <time>2018-09-22T10:10:50.989Z</time>
      </trkpt>
      <trkpt lat="46.2419" lon="10.46818">
        <ele>1157.1939008</ele>
        <time>2018-09-22T10:11:02.999Z</time>
      </trkpt>
      <trkpt lat="46.24182" lon="10.4681">
        <ele>1158.1939008</ele>
        <time>2018-09-22T10:11:12.999Z</time>
      </trkpt>
      <trkpt lat="46.24175" lon="10.46802">
        <ele>1158.89300096</ele>
        <time>2018-09-22T10:11:19.990Z</time>
      </trkpt>
      <trkpt lat="46.24167" lon="10.46796">
        <ele>1159</ele>
        <time>2018-09-22T10:11:29.986Z</time>
      </trkpt>
      <trkpt lat="46.2416" lon="10.46787">
        <ele>1161</ele>
        <time>2018-09-22T10:11:41.985Z</time>
      </trkpt>
      <trkpt lat="46.24151" lon="10.46781">
        <ele>1161.1510192993</ele>
        <time>2018-09-22T10:11:52.000Z</time>
      </trkpt>
      <trkpt lat="46.24143" lon="10.46773">
        <ele>1162.7806129379</ele>
        <time>2018-09-22T10:11:59.985Z</time>
      </trkpt>
      <trkpt lat="46.24136" lon="10.46764">
        <ele>1163</ele>
        <time>2018-09-22T10:12:08.988Z</time>
      </trkpt>
      <trkpt lat="46.24128" lon="10.46756">
        <ele>1164.7771146408</ele>
        <time>2018-09-22T10:12:19.990Z</time>
      </trkpt>
      <trkpt lat="46.2412" lon="10.46748">
        <ele>1166.2928</ele>
        <time>2018-09-22T10:12:33.988Z</time>
      </trkpt>
      <trkpt lat="46.24111" lon="10.46743">
        <ele>1167.9791475737</ele>
        <time>2018-09-22T10:12:45.990Z</time>
      </trkpt>
      <trkpt lat="46.24103" lon="10.46735">
        <ele>1169.9930521629</ele>
        <time>2018-09-22T10:13:00.991Z</time>
      </trkpt>
      <trkpt lat="46.24096" lon="10.46726">
        <ele>1170.7914176183</ele>
        <time>2018-09-22T10:13:08.990Z</time>
      </trkpt>
      <trkpt lat="46.24092" lon="10.46712">
        <ele>1172.7873762163</ele>
        <time>2018-09-22T10:13:19.999Z</time>
      </trkpt>
      <trkpt lat="46.24088" lon="10.467">
        <ele>1174.5747782881</ele>
        <time>2018-09-22T10:13:28.989Z</time>
      </trkpt>
      <trkpt lat="46.24088" lon="10.46686">
        <ele>1175.8885656439</ele>
        <time>2018-09-22T10:13:39.989Z</time>
      </trkpt>
      <trkpt lat="46.24081" lon="10.46676">
        <ele>1176.5894898958</ele>
        <time>2018-09-22T10:13:46.989Z</time>
      </trkpt>
      <trkpt lat="46.24073" lon="10.4667">
        <ele>1179.7377407161</ele>
        <time>2018-09-22T10:14:04.986Z</time>
      </trkpt>
      <trkpt lat="46.24063" lon="10.46672">
        <ele>1181.8911856287</ele>
        <time>2018-09-22T10:14:19.986Z</time>
      </trkpt>
      <trkpt lat="46.24054" lon="10.46674">
        <ele>1186.3894370314</ele>
        <time>2018-09-22T10:14:44.991Z</time>
      </trkpt>
      <trkpt lat="46.24047" lon="10.46684">
        <ele>1187</ele>
        <time>2018-09-22T10:14:59.000Z</time>
      </trkpt>
      <trkpt lat="46.24038" lon="10.46688">
        <ele>1189.3819821738</ele>
        <time>2018-09-22T10:15:12.989Z</time>
      </trkpt>
      <trkpt lat="46.24029" lon="10.46688">
        <ele>1191.2854544068</ele>
        <time>2018-09-22T10:15:23.986Z</time>
      </trkpt>
      <trkpt lat="46.2402" lon="10.46689">
        <ele>1193.38720256</ele>
        <time>2018-09-22T10:15:37.996Z</time>
      </trkpt>
      <trkpt lat="46.24011" lon="10.46689">
        <ele>1195.931906077</ele>
        <time>2018-09-22T10:15:50.990Z</time>
      </trkpt>
      <trkpt lat="46.24001" lon="10.46692">
        <ele>1197.9847743009</ele>
        <time>2018-09-22T10:16:00.986Z</time>
      </trkpt>
      <trkpt lat="46.23994" lon="10.467">
        <ele>1199.9722234921</ele>
        <time>2018-09-22T10:16:11.000Z</time>
      </trkpt>
      <trkpt lat="46.23985" lon="10.46702">
        <ele>1200.9925406452</ele>
        <time>2018-09-22T10:16:20.986Z</time>
      </trkpt>
      <trkpt lat="46.23975" lon="10.46701">
        <ele>1202.58520064</ele>
        <time>2018-09-22T10:16:33.986Z</time>
      </trkpt>
      <trkpt lat="46.23966" lon="10.46701">
        <ele>1205.1757942857</ele>
        <time>2018-09-22T10:16:46.986Z</time>
      </trkpt>
      <trkpt lat="46.23959" lon="10.46711">
        <ele>1208.0835853371</ele>
        <time>2018-09-22T10:17:02.000Z</time>
      </trkpt>
      <trkpt lat="46.23951" lon="10.46718">
        <ele>1209.3905624296</ele>
        <time>2018-09-22T10:17:14.990Z</time>
      </trkpt>
      <trkpt lat="46.23942" lon="10.4672">
        <ele>1210.8931008</ele>
        <time>2018-09-22T10:17:29.991Z</time>
      </trkpt>
      <trkpt lat="46.23931" lon="10.46714">
        <ele>1212.5850753416</ele>
        <time>2018-09-22T10:17:44.000Z</time>
      </trkpt>
      <trkpt lat="46.23921" lon="10.46717">
        <ele>1214.7794988827</ele>
        <time>2018-09-22T10:17:54.988Z</time>
      </trkpt>
      <trkpt lat="46.23913" lon="10.46712">
        <ele>1216.49290112</ele>
        <time>2018-09-22T10:18:05.989Z</time>
      </trkpt>
      <trkpt lat="46.23904" lon="10.46708">
        <ele>1217.49290112</ele>
        <time>2018-09-22T10:18:15.989Z</time>
      </trkpt>
      <trkpt lat="46.23895" lon="10.46705">
        <ele>1219.58580224</ele>
        <time>2018-09-22T10:18:28.989Z</time>
      </trkpt>
      <trkpt lat="46.23886" lon="10.46706">
        <ele>1222.1724069035</ele>
        <time>2018-09-22T10:18:41.986Z</time>
      </trkpt>
      <trkpt lat="46.23877" lon="10.46711">
        <ele>1224</ele>
        <time>2018-09-22T10:18:52.004Z</time>
      </trkpt>
      <trkpt lat="46.23869" lon="10.46716">
        <ele>1224.18520064</ele>
        <time>2018-09-22T10:19:01.986Z</time>
      </trkpt>
      <trkpt lat="46.23862" lon="10.46724">
        <ele>1226.2919568486</ele>
        <time>2018-09-22T10:19:14.000Z</time>
      </trkpt>
      <trkpt lat="46.23853" lon="10.46728">
        <ele>1228.7735746071</ele>
        <time>2018-09-22T10:19:29.989Z</time>
      </trkpt>
      <trkpt lat="46.23849" lon="10.46741">
        <ele>1232.9818919803</ele>
        <time>2018-09-22T10:19:46.000Z</time>
      </trkpt>
      <trkpt lat="46.23839" lon="10.46739">
        <ele>1235.58880256</ele>
        <time>2018-09-22T10:19:59.004Z</time>
      </trkpt>
      <trkpt lat="46.2383" lon="10.46738">
        <ele>1236.79260032</ele>
        <time>2018-09-22T10:20:08.986Z</time>
      </trkpt>
      <trkpt lat="46.23823" lon="10.46746">
        <ele>1237.98540032</ele>
        <time>2018-09-22T10:20:15.987Z</time>
      </trkpt>
      <trkpt lat="46.23814" lon="10.46747">
        <ele>1239</ele>
        <time>2018-09-22T10:20:26.000Z</time>
      </trkpt>
      <trkpt lat="46.23803" lon="10.46743">
        <ele>1239.6913653865</ele>
        <time>2018-09-22T10:20:37.986Z</time>
      </trkpt>
      <trkpt lat="46.23794" lon="10.4674">
        <ele>1240.79260032</ele>
        <time>2018-09-22T10:20:48.986Z</time>
      </trkpt>
      <trkpt lat="46.23785" lon="10.46737">
        <ele>1242.18800128</ele>
        <time>2018-09-22T10:20:57.000Z</time>
      </trkpt>
      <trkpt lat="46.23777" lon="10.46741">
        <ele>1243.59400064</ele>
        <time>2018-09-22T10:21:07.000Z</time>
      </trkpt>
      <trkpt lat="46.23767" lon="10.46737">
        <ele>1244.39400064</ele>
        <time>2018-09-22T10:21:15.000Z</time>
      </trkpt>
      <trkpt lat="46.23758" lon="10.46743">
        <ele>1245.78820096</ele>
        <time>2018-09-22T10:21:25.001Z</time>
      </trkpt>
      <trkpt lat="46.23751" lon="10.4675">
        <ele>1247.49290112</ele>
        <time>2018-09-22T10:21:35.989Z</time>
      </trkpt>
      <trkpt lat="46.23743" lon="10.46761">
        <ele>1248</ele>
        <time>2018-09-22T10:21:43.987Z</time>
      </trkpt>
      <trkpt lat="46.23733" lon="10.46763">
        <ele>1247.90739968</ele>
        <time>2018-09-22T10:21:51.986Z</time>
      </trkpt>
      <trkpt lat="46.23724" lon="10.46765">
        <ele>1247.30599936</ele>
        <time>2018-09-22T10:21:58.000Z</time>
      </trkpt>
      <trkpt lat="46.23714" lon="10.46768">
        <ele>1247</ele>
        <time>2018-09-22T10:22:04.986Z</time>
      </trkpt>
      <trkpt lat="46.23704" lon="10.46769">
        <ele>1247</ele>
        <time>2018-09-22T10:22:10.988Z</time>
      </trkpt>
      <trkpt lat="46.23695" lon="10.46774">
        <ele>1246.30589952</ele>
        <time>2018-09-22T10:22:18.001Z</time>
      </trkpt>
      <trkpt lat="46.23689" lon="10.46783">
        <ele>1245.6120555104</ele>
        <time>2018-09-22T10:22:24.986Z</time>
      </trkpt>
      <trkpt lat="46.23681" lon="10.46792">
        <ele>1245</ele>
        <time>2018-09-22T10:22:33.001Z</time>
      </trkpt>
      <trkpt lat="46.23673" lon="10.46802">
        <ele>1245</ele>
        <time>2018-09-22T10:22:38.987Z</time>
      </trkpt>
      <trkpt lat="46.23665" lon="10.46808">
        <ele>1244.60739968</ele>
        <time>2018-09-22T10:22:44.986Z</time>
      </trkpt>
      <trkpt lat="46.23658" lon="10.46815">
        <ele>1243.2312557923</ele>
        <time>2018-09-22T10:22:53.003Z</time>
      </trkpt>
      <trkpt lat="46.23656" lon="10.4683">
        <ele>1240.8632995883</ele>
        <time>2018-09-22T10:22:58.988Z</time>
      </trkpt>
      <trkpt lat="46.23653" lon="10.46843">
        <ele>1240</ele>
        <time>2018-09-22T10:23:06.986Z</time>
      </trkpt>
      <trkpt lat="46.23646" lon="10.46855">
        <ele>1239.5060992</ele>
        <time>2018-09-22T10:23:15.999Z</time>
      </trkpt>
      <trkpt lat="46.23639" lon="10.46866">
        <ele>1239</ele>
        <time>2018-09-22T10:23:21.989Z</time>
      </trkpt>
      <trkpt lat="46.23631" lon="10.46873">
        <ele>1239</ele>
        <time>2018-09-22T10:23:28.986Z</time>
      </trkpt>
      <trkpt lat="46.23622" lon="10.46878">
        <ele>1239.6840542341</ele>
        <time>2018-09-22T10:23:37.989Z</time>
      </trkpt>
      <trkpt lat="46.23614" lon="10.46885">
        <ele>1240.49260032</ele>
        <time>2018-09-22T10:23:45.986Z</time>
      </trkpt>
      <trkpt lat="46.23605" lon="10.46891">
        <ele>1241.09400064</ele>
        <time>2018-09-22T10:23:52.000Z</time>
      </trkpt>
      <trkpt lat="46.23597" lon="10.46892">
        <ele>1241.89260032</ele>
        <time>2018-09-22T10:23:59.986Z</time>
      </trkpt>
      <trkpt lat="46.23587" lon="10.4689">
        <ele>1244.5809044399</ele>
        <time>2018-09-22T10:24:14.000Z</time>
      </trkpt>
      <trkpt lat="46.23578" lon="10.46886">
        <ele>1246.7872</ele>
        <time>2018-09-22T10:24:24.996Z</time>
      </trkpt>
      <trkpt lat="46.23569" lon="10.46883">
        <ele>1248</ele>
        <time>2018-09-22T10:24:35.986Z</time>
      </trkpt>
      <trkpt lat="46.23559" lon="10.46883">
        <ele>1249.58800128</ele>
        <time>2018-09-22T10:24:49.000Z</time>
      </trkpt>
      <trkpt lat="46.2355" lon="10.46886">
        <ele>1251.78740224</ele>
        <time>2018-09-22T10:24:59.997Z</time>
      </trkpt>
      <trkpt lat="46.23541" lon="10.46877">
        <ele>1253.09300096</ele>
        <time>2018-09-22T10:25:11.990Z</time>
      </trkpt>
      <trkpt lat="46.23531" lon="10.46877">
        <ele>1254.49400064</ele>
        <time>2018-09-22T10:25:26.000Z</time>
      </trkpt>
      <trkpt lat="46.2352" lon="10.46878">
        <ele>1255.58580224</ele>
        <time>2018-09-22T10:25:33.989Z</time>
      </trkpt>
      <trkpt lat="46.23512" lon="10.46882">
        <ele>1257.29260032</ele>
        <time>2018-09-22T10:25:43.986Z</time>
      </trkpt>
      <trkpt lat="46.23506" lon="10.46871">
        <ele>1257.99260032</ele>
        <time>2018-09-22T10:25:50.986Z</time>
      </trkpt>
      <trkpt lat="46.23496" lon="10.46863">
        <ele>1258.89270016</ele>
        <time>2018-09-22T10:25:59.987Z</time>
      </trkpt>
      <trkpt lat="46.23488" lon="10.46856">
        <ele>1262.3811942184</ele>
        <time>2018-09-22T10:26:18.000Z</time>
      </trkpt>
      <trkpt lat="46.23479" lon="10.46851">
        <ele>1263.99300096</ele>
        <time>2018-09-22T10:26:30.990Z</time>
      </trkpt>
      <trkpt lat="46.23471" lon="10.46843">
        <ele>1265.7373537901</ele>
        <time>2018-09-22T10:26:39.990Z</time>
      </trkpt>
      <trkpt lat="46.23465" lon="10.46834">
        <ele>1268.1633582683</ele>
        <time>2018-09-22T10:26:51.987Z</time>
      </trkpt>
      <trkpt lat="46.23456" lon="10.46836">
        <ele>1270.4887898413</ele>
        <time>2018-09-22T10:27:05.987Z</time>
      </trkpt>
      <trkpt lat="46.23449" lon="10.46827">
        <ele>1272.9849558226</ele>
        <time>2018-09-22T10:27:26.000Z</time>
      </trkpt>
      <trkpt lat="46.23457" lon="10.4682">
        <ele>1275.98800128</ele>
        <time>2018-09-22T10:27:46.000Z</time>
      </trkpt>
      <trkpt lat="46.23466" lon="10.46816">
        <ele>1278.38800128</ele>
        <time>2018-09-22T10:27:58.000Z</time>
      </trkpt>
      <trkpt lat="46.23476" lon="10.46818">
        <ele>1279</ele>
        <time>2018-09-22T10:28:07.000Z</time>
      </trkpt>
      <trkpt lat="46.23484" lon="10.46813">
        <ele>1280.38800128</ele>
        <time>2018-09-22T10:28:18.000Z</time>
      </trkpt>
      <trkpt lat="46.23494" lon="10.46815">
        <ele>1281.49400064</ele>
        <time>2018-09-22T10:28:26.000Z</time>
      </trkpt>
      <trkpt lat="46.23504" lon="10.46813">
        <ele>1282.69380096</ele>
        <time>2018-09-22T10:28:37.998Z</time>
      </trkpt>
      <trkpt lat="46.23515" lon="10.46812">
        <ele>1283.7908362826</ele>
        <time>2018-09-22T10:28:49.000Z</time>
      </trkpt>
      <trkpt lat="46.23525" lon="10.46808">
        <ele>1285.1823642051</ele>
        <time>2018-09-22T10:28:57.000Z</time>
      </trkpt>
      <trkpt lat="46.23534" lon="10.4681">
        <ele>1286</ele>
        <time>2018-09-22T10:29:05.000Z</time>
      </trkpt>
      <trkpt lat="46.23543" lon="10.46803">
        <ele>1286.6933872182</ele>
        <time>2018-09-22T10:29:18.000Z</time>
      </trkpt>
      <trkpt lat="46.23553" lon="10.46793">
        <ele>1287</ele>
        <time>2018-09-22T10:29:29.000Z</time>
      </trkpt>
      <trkpt lat="46.23558" lon="10.46782">
        <ele>1289.08200192</ele>
        <time>2018-09-22T10:29:38.000Z</time>
      </trkpt>
      <trkpt lat="46.23554" lon="10.46796">
        <ele>1294.338460771</ele>
        <time>2018-09-22T10:29:59.000Z</time>
      </trkpt>
      <trkpt lat="46.23545" lon="10.46799">
        <ele>1296.58540032</ele>
        <time>2018-09-22T10:30:13.987Z</time>
      </trkpt>
      <trkpt lat="46.23535" lon="10.46796">
        <ele>1298</ele>
        <time>2018-09-22T10:30:30.000Z</time>
      </trkpt>
      <trkpt lat="46.23526" lon="10.46795">
        <ele>1301.49270016</ele>
        <time>2018-09-22T10:30:45.987Z</time>
      </trkpt>
      <trkpt lat="46.23523" lon="10.46782">
        <ele>1303.1750750781</ele>
        <time>2018-09-22T10:30:57.000Z</time>
      </trkpt>
      <trkpt lat="46.23527" lon="10.46769">
        <ele>1304.3872603073</ele>
        <time>2018-09-22T10:31:05.000Z</time>
      </trkpt>
      <trkpt lat="46.23528" lon="10.46756">
        <ele>1305.29400064</ele>
        <time>2018-09-22T10:31:14.000Z</time>
      </trkpt>
      <trkpt lat="46.23536" lon="10.46747">
        <ele>1307.9307716923</ele>
        <time>2018-09-22T10:31:31.100Z</time>
      </trkpt>
      <trkpt lat="46.23541" lon="10.46735">
        <ele>1309.9272727743</ele>
        <time>2018-09-22T10:31:41.000Z</time>
      </trkpt>
      <trkpt lat="46.23549" lon="10.46727">
        <ele>1312.385231211</ele>
        <time>2018-09-22T10:31:52.990Z</time>
      </trkpt>
      <trkpt lat="46.23553" lon="10.46716">
        <ele>1314.7935876833</ele>
        <time>2018-09-22T10:32:09.000Z</time>
      </trkpt>
      <trkpt lat="46.2356" lon="10.46706">
        <ele>1317.18800128</ele>
        <time>2018-09-22T10:32:27.000Z</time>
      </trkpt>
      <trkpt lat="46.23562" lon="10.46693">
        <ele>1318.79300096</ele>
        <time>2018-09-22T10:32:38.990Z</time>
      </trkpt>
      <trkpt lat="46.23571" lon="10.46686">
        <ele>1322.1556418295</ele>
        <time>2018-09-22T10:32:57.000Z</time>
      </trkpt>
      <trkpt lat="46.23577" lon="10.46676">
        <ele>1323.5823046351</ele>
        <time>2018-09-22T10:33:07.000Z</time>
      </trkpt>
      <trkpt lat="46.2358" lon="10.46662">
        <ele>1325.18540032</ele>
        <time>2018-09-22T10:33:16.987Z</time>
      </trkpt>
      <trkpt lat="46.23572" lon="10.46657">
        <ele>1329.3791050707</ele>
        <time>2018-09-22T10:33:37.990Z</time>
      </trkpt>
      <trkpt lat="46.23564" lon="10.46665">
        <ele>1331.9720849982</ele>
        <time>2018-09-22T10:33:51.000Z</time>
      </trkpt>
      <trkpt lat="46.23561" lon="10.46678">
        <ele>1332</ele>
        <time>2018-09-22T10:34:00.000Z</time>
      </trkpt>
      <trkpt lat="46.23551" lon="10.46684">
        <ele>1334.1839200971</ele>
        <time>2018-09-22T10:34:17.000Z</time>
      </trkpt>
      <trkpt lat="46.23544" lon="10.4669">
        <ele>1335.685770516</ele>
        <time>2018-09-22T10:34:28.000Z</time>
      </trkpt>
      <trkpt lat="46.23534" lon="10.46699">
        <ele>1338.1861857245</ele>
        <time>2018-09-22T10:34:42.000Z</time>
      </trkpt>
      <trkpt lat="46.23529" lon="10.46686">
        <ele>1339.7877888651</ele>
        <time>2018-09-22T10:34:50.000Z</time>
      </trkpt>
      <trkpt lat="46.2352" lon="10.46684">
        <ele>1343.5634373018</ele>
        <time>2018-09-22T10:35:03.990Z</time>
      </trkpt>
      <trkpt lat="46.23508" lon="10.46686">
        <ele>1345.4878542353</ele>
        <time>2018-09-22T10:35:16.000Z</time>
      </trkpt>
      <trkpt lat="46.23499" lon="10.46685">
        <ele>1346.98540032</ele>
        <time>2018-09-22T10:35:25.987Z</time>
      </trkpt>
      <trkpt lat="46.23491" lon="10.46671">
        <ele>1348.39400064</ele>
        <time>2018-09-22T10:35:35.000Z</time>
      </trkpt>
      <trkpt lat="46.23495" lon="10.46657">
        <ele>1349.3889439947</ele>
        <time>2018-09-22T10:35:45.000Z</time>
      </trkpt>
      <trkpt lat="46.23497" lon="10.46643">
        <ele>1350.3860182883</ele>
        <time>2018-09-22T10:35:55.000Z</time>
      </trkpt>
      <trkpt lat="46.23504" lon="10.46636">
        <ele>1351.2848843411</ele>
        <time>2018-09-22T10:36:04.000Z</time>
      </trkpt>
      <trkpt lat="46.23511" lon="10.46626">
        <ele>1352.3347120661</ele>
        <time>2018-09-22T10:36:13.000Z</time>
      </trkpt>
      <trkpt lat="46.23512" lon="10.46612">
        <ele>1354.2944</ele>
        <time>2018-09-22T10:36:24.004Z</time>
      </trkpt>
      <trkpt lat="46.23519" lon="10.46603">
        <ele>1355.608</ele>
        <time>2018-09-22T10:36:34.100Z</time>
      </trkpt>
      <trkpt lat="46.23521" lon="10.46589">
        <ele>1357</ele>
        <time>2018-09-22T10:36:49.000Z</time>
      </trkpt>
      <trkpt lat="46.23524" lon="10.46575">
        <ele>1361.2851605711</ele>
        <time>2018-09-22T10:37:04.000Z</time>
      </trkpt>
      <trkpt lat="46.23533" lon="10.46568">
        <ele>1362.993808708</ele>
        <time>2018-09-22T10:37:21.000Z</time>
      </trkpt>
      <trkpt lat="46.23539" lon="10.46558">
        <ele>1365.7864942883</ele>
        <time>2018-09-22T10:37:39.000Z</time>
      </trkpt>
      <trkpt lat="46.23543" lon="10.46546">
        <ele>1370.6816832977</ele>
        <time>2018-09-22T10:38:00.000Z</time>
      </trkpt>
      <trkpt lat="46.23552" lon="10.46545">
        <ele>1372.1808199664</ele>
        <time>2018-09-22T10:38:15.000Z</time>
      </trkpt>
      <trkpt lat="46.2356" lon="10.46533">
        <ele>1374.5865865096</ele>
        <time>2018-09-22T10:38:24.000Z</time>
      </trkpt>
      <trkpt lat="46.23569" lon="10.46536">
        <ele>1375.9879892577</ele>
        <time>2018-09-22T10:38:31.000Z</time>
      </trkpt>
      <trkpt lat="46.23578" lon="10.46536">
        <ele>1378.1658393912</ele>
        <time>2018-09-22T10:38:47.000Z</time>
      </trkpt>
      <trkpt lat="46.23582" lon="10.46522">
        <ele>1380.3896111535</ele>
        <time>2018-09-22T10:39:03.000Z</time>
      </trkpt>
      <trkpt lat="46.23592" lon="10.46517">
        <ele>1382.9610895426</ele>
        <time>2018-09-22T10:39:16.000Z</time>
      </trkpt>
      <trkpt lat="46.23603" lon="10.46512">
        <ele>1386.9810942029</ele>
        <time>2018-09-22T10:39:36.000Z</time>
      </trkpt>
      <trkpt lat="46.23612" lon="10.46516">
        <ele>1388.6921533632</ele>
        <time>2018-09-22T10:39:48.000Z</time>
      </trkpt>
      <trkpt lat="46.23621" lon="10.46513">
        <ele>1389</ele>
        <time>2018-09-22T10:40:00.000Z</time>
      </trkpt>
      <trkpt lat="46.2363" lon="10.46508">
        <ele>1392.18800128</ele>
        <time>2018-09-22T10:40:22.000Z</time>
      </trkpt>
      <trkpt lat="46.2364" lon="10.46504">
        <ele>1394.5874133028</ele>
        <time>2018-09-22T10:40:34.000Z</time>
      </trkpt>
      <trkpt lat="46.23648" lon="10.46496">
        <ele>1397.576072558</ele>
        <time>2018-09-22T10:40:52.986Z</time>
      </trkpt>
      <trkpt lat="46.2365" lon="10.46483">
        <ele>1402.1868133273</ele>
        <time>2018-09-22T10:41:17.000Z</time>
      </trkpt>
      <trkpt lat="46.23656" lon="10.46473">
        <ele>1405.38800128</ele>
        <time>2018-09-22T10:41:33.000Z</time>
      </trkpt>
      <trkpt lat="46.23664" lon="10.46464">
        <ele>1408.78800128</ele>
        <time>2018-09-22T10:41:50.000Z</time>
      </trkpt>
      <trkpt lat="46.23672" lon="10.46457">
        <ele>1410.77780096</ele>
        <time>2018-09-22T10:42:06.986Z</time>
      </trkpt>
      <trkpt lat="46.23674" lon="10.46444">
        <ele>1412</ele>
        <time>2018-09-22T10:42:17.989Z</time>
      </trkpt>
      <trkpt lat="46.23681" lon="10.46434">
        <ele>1412.8696493452</ele>
        <time>2018-09-22T10:42:30.000Z</time>
      </trkpt>
      <trkpt lat="46.23687" lon="10.46424">
        <ele>1414.7818940338</ele>
        <time>2018-09-22T10:42:40.000Z</time>
      </trkpt>
      <trkpt lat="46.23695" lon="10.46415">
        <ele>1415.9913258652</ele>
        <time>2018-09-22T10:42:51.003Z</time>
      </trkpt>
      <trkpt lat="46.23704" lon="10.46412">
        <ele>1417.5867614321</ele>
        <time>2018-09-22T10:42:59.000Z</time>
      </trkpt>
      <trkpt lat="46.23712" lon="10.46406">
        <ele>1418.9611812171</ele>
        <time>2018-09-22T10:43:10.989Z</time>
      </trkpt>
      <trkpt lat="46.23719" lon="10.46397">
        <ele>1420.18800128</ele>
        <time>2018-09-22T10:43:22.000Z</time>
      </trkpt>
      <trkpt lat="46.23725" lon="10.46385">
        <ele>1421.9798016</ele>
        <time>2018-09-22T10:43:30.959Z</time>
      </trkpt>
      <trkpt lat="46.23734" lon="10.46379">
        <ele>1422.7845846203</ele>
        <time>2018-09-22T10:43:39.000Z</time>
      </trkpt>
      <trkpt lat="46.23737" lon="10.46366">
        <ele>1423.9897083251</ele>
        <time>2018-09-22T10:43:50.988Z</time>
      </trkpt>
      <trkpt lat="46.23745" lon="10.46358">
        <ele>1427.19400064</ele>
        <time>2018-09-22T10:44:03.000Z</time>
      </trkpt>
      <trkpt lat="46.2374" lon="10.46347">
        <ele>1427.7931008</ele>
        <time>2018-09-22T10:44:08.991Z</time>
      </trkpt>
      <trkpt lat="46.23744" lon="10.46332">
        <ele>1430.78800128</ele>
        <time>2018-09-22T10:44:25.000Z</time>
      </trkpt>
      <trkpt lat="46.23746" lon="10.46317">
        <ele>1433.78800128</ele>
        <time>2018-09-22T10:44:40.000Z</time>
      </trkpt>
      <trkpt lat="46.2375" lon="10.46306">
        <ele>1435.1863241835</ele>
        <time>2018-09-22T10:44:52.000Z</time>
      </trkpt>
      <trkpt lat="46.23757" lon="10.46298">
        <ele>1437.3681688423</ele>
        <time>2018-09-22T10:45:02.989Z</time>
      </trkpt>
      <trkpt lat="46.23748" lon="10.46301">
        <ele>1443.7507686572</ele>
        <time>2018-09-22T10:45:45.000Z</time>
      </trkpt>
      <trkpt lat="46.23739" lon="10.46298">
        <ele>1447.3765332402</ele>
        <time>2018-09-22T10:45:58.988Z</time>
      </trkpt>
      <trkpt lat="46.23731" lon="10.46305">
        <ele>1449.7557786514</ele>
        <time>2018-09-22T10:46:15.000Z</time>
      </trkpt>
      <trkpt lat="46.23721" lon="10.46306">
        <ele>1451.5836188144</ele>
        <time>2018-09-22T10:46:26.997Z</time>
      </trkpt>
      <trkpt lat="46.23712" lon="10.4631">
        <ele>1452.3889122581</ele>
        <time>2018-09-22T10:46:34.998Z</time>
      </trkpt>
      <trkpt lat="46.23702" lon="10.46312">
        <ele>1453.7862016</ele>
        <time>2018-09-22T10:46:44.991Z</time>
      </trkpt>
      <trkpt lat="46.23695" lon="10.4632">
        <ele>1455.29400064</ele>
        <time>2018-09-22T10:46:54.000Z</time>
      </trkpt>
      <trkpt lat="46.23686" lon="10.46325">
        <ele>1456.3939008</ele>
        <time>2018-09-22T10:47:04.999Z</time>
      </trkpt>
      <trkpt lat="46.23675" lon="10.46322">
        <ele>1458.38800128</ele>
        <time>2018-09-22T10:47:18.000Z</time>
      </trkpt>
      <trkpt lat="46.23666" lon="10.46318">
        <ele>1463.1820560137</ele>
        <time>2018-09-22T10:47:36.988Z</time>
      </trkpt>
      <trkpt lat="46.23657" lon="10.46314">
        <ele>1466.3886261084</ele>
        <time>2018-09-22T10:47:54.989Z</time>
      </trkpt>
      <trkpt lat="46.2366" lon="10.46302">
        <ele>1467.3598822955</ele>
        <time>2018-09-22T10:48:03.000Z</time>
      </trkpt>
      <trkpt lat="46.2366" lon="10.46288">
        <ele>1469.1695602888</ele>
        <time>2018-09-22T10:48:13.000Z</time>
      </trkpt>
      <trkpt lat="46.23662" lon="10.46275">
        <ele>1470</ele>
        <time>2018-09-22T10:48:22.000Z</time>
      </trkpt>
      <trkpt lat="46.23669" lon="10.46265">
        <ele>1470</ele>
        <time>2018-09-22T10:48:31.000Z</time>
      </trkpt>
      <trkpt lat="46.23669" lon="10.46251">
        <ele>1472.3832686278</ele>
        <time>2018-09-22T10:48:45.000Z</time>
      </trkpt>
      <trkpt lat="46.23672" lon="10.46237">
        <ele>1474.9358717024</ele>
        <time>2018-09-22T10:49:01.000Z</time>
      </trkpt>
      <trkpt lat="46.2367" lon="10.46223">
        <ele>1476.3716641456</ele>
        <time>2018-09-22T10:49:08.000Z</time>
      </trkpt>
      <trkpt lat="46.2367" lon="10.4621">
        <ele>1478.38580224</ele>
        <time>2018-09-22T10:49:17.989Z</time>
      </trkpt>
      <trkpt lat="46.23678" lon="10.46202">
        <ele>1481.3861595623</ele>
        <time>2018-09-22T10:49:38.000Z</time>
      </trkpt>
      <trkpt lat="46.23678" lon="10.46189">
        <ele>1483.3856</ele>
        <time>2018-09-22T10:49:47.988Z</time>
      </trkpt>
      <trkpt lat="46.23683" lon="10.46178">
        <ele>1484.89400064</ele>
        <time>2018-09-22T10:50:00.000Z</time>
      </trkpt>
      <trkpt lat="46.23684" lon="10.46164">
        <ele>1486</ele>
        <time>2018-09-22T10:50:19.987Z</time>
      </trkpt>
      <trkpt lat="46.23681" lon="10.4615">
        <ele>1489.1460348303</ele>
        <time>2018-09-22T10:50:28.987Z</time>
      </trkpt>
      <trkpt lat="46.23681" lon="10.46136">
        <ele>1490.89400064</ele>
        <time>2018-09-22T10:50:40.000Z</time>
      </trkpt>
      <trkpt lat="46.23678" lon="10.46123">
        <ele>1491.89370112</ele>
        <time>2018-09-22T10:50:49.997Z</time>
      </trkpt>
      <trkpt lat="46.23674" lon="10.46109">
        <ele>1495.5828528549</ele>
        <time>2018-09-22T10:51:08.998Z</time>
      </trkpt>
      <trkpt lat="46.23674" lon="10.46096">
        <ele>1496.4924779113</ele>
        <time>2018-09-22T10:51:16.000Z</time>
      </trkpt>
      <trkpt lat="46.23676" lon="10.46082">
        <ele>1498.58540032</ele>
        <time>2018-09-22T10:51:28.987Z</time>
      </trkpt>
      <trkpt lat="46.23674" lon="10.46067">
        <ele>1499.79400064</ele>
        <time>2018-09-22T10:51:39.000Z</time>
      </trkpt>
      <trkpt lat="46.23676" lon="10.46053">
        <ele>1500.5885799123</ele>
        <time>2018-09-22T10:51:46.987Z</time>
      </trkpt>
      <trkpt lat="46.2368" lon="10.46041">
        <ele>1501</ele>
        <time>2018-09-22T10:51:54.004Z</time>
      </trkpt>
      <trkpt lat="46.23682" lon="10.46028">
        <ele>1501.5473245068</ele>
        <time>2018-09-22T10:52:04.000Z</time>
      </trkpt>
      <trkpt lat="46.2368" lon="10.46014">
        <ele>1503.0153377405</ele>
        <time>2018-09-22T10:53:11.000Z</time>
      </trkpt>
      <trkpt lat="46.23683" lon="10.46">
        <ele>1503.7909193535</ele>
        <time>2018-09-22T10:53:18.988Z</time>
      </trkpt>
      <trkpt lat="46.23685" lon="10.45987">
        <ele>1505.78820096</ele>
        <time>2018-09-22T10:53:35.001Z</time>
      </trkpt>
      <trkpt lat="46.23679" lon="10.45976">
        <ele>1507.7906373984</ele>
        <time>2018-09-22T10:53:48.998Z</time>
      </trkpt>
      <trkpt lat="46.23676" lon="10.45963">
        <ele>1511.1939008</ele>
        <time>2018-09-22T10:54:02.999Z</time>
      </trkpt>
      <trkpt lat="46.23667" lon="10.45957">
        <ele>1512.78800128</ele>
        <time>2018-09-22T10:54:15.000Z</time>
      </trkpt>
      <trkpt lat="46.23657" lon="10.4595">
        <ele>1514.9880715782</ele>
        <time>2018-09-22T10:54:31.000Z</time>
      </trkpt>
      <trkpt lat="46.23655" lon="10.45932">
        <ele>1519.58800128</ele>
        <time>2018-09-22T10:54:59.000Z</time>
      </trkpt>
      <trkpt lat="46.23651" lon="10.45919">
        <ele>1520.1811186552</ele>
        <time>2018-09-22T10:55:02.000Z</time>
      </trkpt>
      <trkpt lat="46.23648" lon="10.45906">
        <ele>1522.9480255787</ele>
        <time>2018-09-22T10:55:16.000Z</time>
      </trkpt>
      <trkpt lat="46.23645" lon="10.45893">
        <ele>1524</ele>
        <time>2018-09-22T10:55:28.988Z</time>
      </trkpt>
      <trkpt lat="46.23639" lon="10.45883">
        <ele>1526.5921242378</ele>
        <time>2018-09-22T10:55:46.999Z</time>
      </trkpt>
      <trkpt lat="46.23634" lon="10.45871">
        <ele>1528.9877648908</ele>
        <time>2018-09-22T10:56:00.999Z</time>
      </trkpt>
      <trkpt lat="46.23627" lon="10.45862">
        <ele>1531.0939008</ele>
        <time>2018-09-22T10:56:11.999Z</time>
      </trkpt>
      <trkpt lat="46.23624" lon="10.4585">
        <ele>1532.09290112</ele>
        <time>2018-09-22T10:56:21.989Z</time>
      </trkpt>
      <trkpt lat="46.23618" lon="10.45836">
        <ele>1533.58580224</ele>
        <time>2018-09-22T10:56:33.989Z</time>
      </trkpt>
      <trkpt lat="46.23616" lon="10.45823">
        <ele>1535.2920249517</ele>
        <time>2018-09-22T10:56:43.989Z</time>
      </trkpt>
      <trkpt lat="46.23613" lon="10.45811">
        <ele>1536.0902714833</ele>
        <time>2018-09-22T10:56:51.990Z</time>
      </trkpt>
      <trkpt lat="46.23608" lon="10.458">
        <ele>1537.092530878</ele>
        <time>2018-09-22T10:57:01.989Z</time>
      </trkpt>
      <trkpt lat="46.23603" lon="10.45788">
        <ele>1538.1787144465</ele>
        <time>2018-09-22T10:57:11.990Z</time>
      </trkpt>
      <trkpt lat="46.236" lon="10.45775">
        <ele>1540.58580224</ele>
        <time>2018-09-22T10:57:23.989Z</time>
      </trkpt>
      <trkpt lat="46.23594" lon="10.45766">
        <ele>1542.49290112</ele>
        <time>2018-09-22T10:57:35.989Z</time>
      </trkpt>
      <trkpt lat="46.23586" lon="10.45759">
        <ele>1543.3926229655</ele>
        <time>2018-09-22T10:57:44.998Z</time>
      </trkpt>
      <trkpt lat="46.23584" lon="10.45746">
        <ele>1544.2907732127</ele>
        <time>2018-09-22T10:57:53.989Z</time>
      </trkpt>
      <trkpt lat="46.23578" lon="10.45735">
        <ele>1545.1916013387</ele>
        <time>2018-09-22T10:58:02.999Z</time>
      </trkpt>
      <trkpt lat="46.23567" lon="10.45728">
        <ele>1546.0807080315</ele>
        <time>2018-09-22T10:58:12.000Z</time>
      </trkpt>
      <trkpt lat="46.23561" lon="10.45719">
        <ele>1547.545062117</ele>
        <time>2018-09-22T10:58:23.989Z</time>
      </trkpt>
      <trkpt lat="46.23556" lon="10.45708">
        <ele>1549.19300096</ele>
        <time>2018-09-22T10:58:32.990Z</time>
      </trkpt>
      <trkpt lat="46.23549" lon="10.45699">
        <ele>1550.18800128</ele>
        <time>2018-09-22T10:58:42.000Z</time>
      </trkpt>
      <trkpt lat="46.23542" lon="10.45691">
        <ele>1552.49400064</ele>
        <time>2018-09-22T10:58:56.000Z</time>
      </trkpt>
      <trkpt lat="46.23535" lon="10.45681">
        <ele>1553.39290112</ele>
        <time>2018-09-22T10:59:04.989Z</time>
      </trkpt>
      <trkpt lat="46.23528" lon="10.45672">
        <ele>1554.9821080034</ele>
        <time>2018-09-22T10:59:16.000Z</time>
      </trkpt>
      <trkpt lat="46.2352" lon="10.45666">
        <ele>1557.576</ele>
        <time>2018-09-22T10:59:29.000Z</time>
      </trkpt>
      <trkpt lat="46.23513" lon="10.45658">
        <ele>1558</ele>
        <time>2018-09-22T10:59:39.000Z</time>
      </trkpt>
      <trkpt lat="46.23506" lon="10.45649">
        <ele>1559.1781378826</ele>
        <time>2018-09-22T10:59:47.000Z</time>
      </trkpt>
      <trkpt lat="46.23497" lon="10.45644">
        <ele>1560</ele>
        <time>2018-09-22T10:59:57.000Z</time>
      </trkpt>
      <trkpt lat="46.23489" lon="10.45637">
        <ele>1560.39300096</ele>
        <time>2018-09-22T11:00:04.990Z</time>
      </trkpt>
      <trkpt lat="46.23483" lon="10.45624">
        <ele>1561</ele>
        <time>2018-09-22T11:00:14.000Z</time>
      </trkpt>
      <trkpt lat="46.23476" lon="10.45615">
        <ele>1561.2848480225</ele>
        <time>2018-09-22T11:00:24.000Z</time>
      </trkpt>
      <trkpt lat="46.23472" lon="10.45602">
        <ele>1562.3847697858</ele>
        <time>2018-09-22T11:00:33.000Z</time>
      </trkpt>
      <trkpt lat="46.23464" lon="10.45594">
        <ele>1564.4928</ele>
        <time>2018-09-22T11:00:45.988Z</time>
      </trkpt>
      <trkpt lat="46.23458" lon="10.45583">
        <ele>1568.18800128</ele>
        <time>2018-09-22T11:01:02.000Z</time>
      </trkpt>
      <trkpt lat="46.23454" lon="10.4557">
        <ele>1570.0932546032</ele>
        <time>2018-09-22T11:01:12.000Z</time>
      </trkpt>
      <trkpt lat="46.2345" lon="10.45557">
        <ele>1570.986111746</ele>
        <time>2018-09-22T11:01:21.000Z</time>
      </trkpt>
      <trkpt lat="46.23442" lon="10.45549">
        <ele>1573.1358013311</ele>
        <time>2018-09-22T11:01:32.000Z</time>
      </trkpt>
      <trkpt lat="46.23434" lon="10.45542">
        <ele>1575.09400064</ele>
        <time>2018-09-22T11:01:42.000Z</time>
      </trkpt>
      <trkpt lat="46.23427" lon="10.45532">
        <ele>1576.58800128</ele>
        <time>2018-09-22T11:01:54.000Z</time>
      </trkpt>
      <trkpt lat="46.23426" lon="10.45518">
        <ele>1578.5856578988</ele>
        <time>2018-09-22T11:02:04.000Z</time>
      </trkpt>
      <trkpt lat="46.23426" lon="10.45505">
        <ele>1580</ele>
        <time>2018-09-22T11:02:13.988Z</time>
      </trkpt>
      <trkpt lat="46.23423" lon="10.45492">
        <ele>1580.1939008</ele>
        <time>2018-09-22T11:02:22.999Z</time>
      </trkpt>
      <trkpt lat="46.2342" lon="10.45479">
        <ele>1581.78800128</ele>
        <time>2018-09-22T11:02:35.000Z</time>
      </trkpt>
      <trkpt lat="46.23413" lon="10.45469">
        <ele>1585.09400064</ele>
        <time>2018-09-22T11:02:52.000Z</time>
      </trkpt>
      <trkpt lat="46.23413" lon="10.45454">
        <ele>1586.29400064</ele>
        <time>2018-09-22T11:03:04.000Z</time>
      </trkpt>
      <trkpt lat="46.23408" lon="10.45443">
        <ele>1586.99400064</ele>
        <time>2018-09-22T11:03:11.000Z</time>
      </trkpt>
      <trkpt lat="46.234" lon="10.4544">
        <ele>1589.3816044687</ele>
        <time>2018-09-22T11:03:22.989Z</time>
      </trkpt>
      <trkpt lat="46.23391" lon="10.45435">
        <ele>1592.1706833735</ele>
        <time>2018-09-22T11:03:37.000Z</time>
      </trkpt>
      <trkpt lat="46.23383" lon="10.45427">
        <ele>1594.383686891</ele>
        <time>2018-09-22T11:03:48.000Z</time>
      </trkpt>
      <trkpt lat="46.23375" lon="10.4542">
        <ele>1595.59400064</ele>
        <time>2018-09-22T11:03:57.000Z</time>
      </trkpt>
      <trkpt lat="46.2337" lon="10.4541">
        <ele>1596.79290112</ele>
        <time>2018-09-22T11:04:08.989Z</time>
      </trkpt>
      <trkpt lat="46.23362" lon="10.45402">
        <ele>1599.9504446448</ele>
        <time>2018-09-22T11:04:21.003Z</time>
      </trkpt>
      <trkpt lat="46.23354" lon="10.45392">
        <ele>1601</ele>
        <time>2018-09-22T11:04:32.000Z</time>
      </trkpt>
      <trkpt lat="46.23346" lon="10.45385">
        <ele>1601</ele>
        <time>2018-09-22T11:04:36.000Z</time>
      </trkpt>
      <trkpt lat="46.2334" lon="10.45374">
        <ele>1601</ele>
        <time>2018-09-22T11:04:46.988Z</time>
      </trkpt>
      <trkpt lat="46.23333" lon="10.45365">
        <ele>1601.39290112</ele>
        <time>2018-09-22T11:04:54.989Z</time>
      </trkpt>
      <trkpt lat="46.23328" lon="10.45353">
        <ele>1602</ele>
        <time>2018-09-22T11:05:04.988Z</time>
      </trkpt>
      <trkpt lat="46.23325" lon="10.45338">
        <ele>1602</ele>
        <time>2018-09-22T11:05:14.989Z</time>
      </trkpt>
      <trkpt lat="46.23322" lon="10.45325">
        <ele>1602.0894470009</ele>
        <time>2018-09-22T11:05:22.000Z</time>
      </trkpt>
      <trkpt lat="46.23326" lon="10.45311">
        <ele>1602.6924626581</ele>
        <time>2018-09-22T11:05:28.000Z</time>
      </trkpt>
      <trkpt lat="46.23334" lon="10.45304">
        <ele>1602.706586375</ele>
        <time>2018-09-22T11:05:34.000Z</time>
      </trkpt>
      <trkpt lat="46.23338" lon="10.45291">
        <ele>1602.0079840268</ele>
        <time>2018-09-22T11:05:41.000Z</time>
      </trkpt>
      <trkpt lat="46.23344" lon="10.45279">
        <ele>1602</ele>
        <time>2018-09-22T11:05:49.000Z</time>
      </trkpt>
      <trkpt lat="46.23346" lon="10.45265">
        <ele>1600.8283127111</ele>
        <time>2018-09-22T11:05:54.990Z</time>
      </trkpt>
      <trkpt lat="46.23349" lon="10.45251">
        <ele>1599.6204807974</ele>
        <time>2018-09-22T11:05:59.000Z</time>
      </trkpt>
      <trkpt lat="46.23355" lon="10.45242">
        <ele>1599.3910356768</ele>
        <time>2018-09-22T11:06:04.986Z</time>
      </trkpt>
      <trkpt lat="46.2336" lon="10.45231">
        <ele>1600.5843250794</ele>
        <time>2018-09-22T11:06:16.990Z</time>
      </trkpt>
      <trkpt lat="46.23358" lon="10.45218">
        <ele>1603.38800128</ele>
        <time>2018-09-22T11:06:33.000Z</time>
      </trkpt>
      <trkpt lat="46.23354" lon="10.45206">
        <ele>1606.3480549752</ele>
        <time>2018-09-22T11:06:47.989Z</time>
      </trkpt>
      <trkpt lat="46.23345" lon="10.45199">
        <ele>1609.58600192</ele>
        <time>2018-09-22T11:07:03.990Z</time>
      </trkpt>
      <trkpt lat="46.23341" lon="10.45187">
        <ele>1611.90370048</ele>
        <time>2018-09-22T11:07:20.097Z</time>
      </trkpt>
      <trkpt lat="46.23333" lon="10.45182">
        <ele>1614.1654895649</ele>
        <time>2018-09-22T11:07:35.000Z</time>
      </trkpt>
      <trkpt lat="46.23325" lon="10.45173">
        <ele>1617.931711836</ele>
        <time>2018-09-22T11:07:50.989Z</time>
      </trkpt>
      <trkpt lat="46.23317" lon="10.45166">
        <ele>1620.4853972964</ele>
        <time>2018-09-22T11:08:06.000Z</time>
      </trkpt>
      <trkpt lat="46.2331" lon="10.45154">
        <ele>1622.1854595245</ele>
        <time>2018-09-22T11:08:21.991Z</time>
      </trkpt>
      <trkpt lat="46.23304" lon="10.45144">
        <ele>1624.1896587176</ele>
        <time>2018-09-22T11:08:32.989Z</time>
      </trkpt>
      <trkpt lat="46.23297" lon="10.45135">
        <ele>1625.39300096</ele>
        <time>2018-09-22T11:08:44.990Z</time>
      </trkpt>
      <trkpt lat="46.23294" lon="10.45123">
        <ele>1626.58800128</ele>
        <time>2018-09-22T11:08:54.000Z</time>
      </trkpt>
      <trkpt lat="46.23292" lon="10.45109">
        <ele>1628.0928082227</ele>
        <time>2018-09-22T11:09:01.989Z</time>
      </trkpt>
      <trkpt lat="46.23286" lon="10.45098">
        <ele>1629.3863861171</ele>
        <time>2018-09-22T11:09:13.000Z</time>
      </trkpt>
      <trkpt lat="46.23294" lon="10.45104">
        <ele>1631</ele>
        <time>2018-09-22T11:09:28.990Z</time>
      </trkpt>
      <trkpt lat="46.23293" lon="10.45117">
        <ele>1632.7769159544</ele>
        <time>2018-09-22T11:09:39.989Z</time>
      </trkpt>
      <trkpt lat="46.23292" lon="10.45131">
        <ele>1634.38800128</ele>
        <time>2018-09-22T11:09:53.000Z</time>
      </trkpt>
      <trkpt lat="46.23289" lon="10.45144">
        <ele>1636.1939008</ele>
        <time>2018-09-22T11:10:02.999Z</time>
      </trkpt>
      <trkpt lat="46.23289" lon="10.45157">
        <ele>1637.0928</ele>
        <time>2018-09-22T11:10:11.988Z</time>
      </trkpt>
      <trkpt lat="46.23292" lon="10.45171">
        <ele>1638.0935328858</ele>
        <time>2018-09-22T11:10:22.000Z</time>
      </trkpt>
      <trkpt lat="46.2329" lon="10.45184">
        <ele>1638.9890544184</ele>
        <time>2018-09-22T11:10:31.000Z</time>
      </trkpt>
      <trkpt lat="46.23288" lon="10.45197">
        <ele>1641.5820355564</ele>
        <time>2018-09-22T11:10:48.986Z</time>
      </trkpt>
      <trkpt lat="46.23281" lon="10.45205">
        <ele>1643.7784426166</ele>
        <time>2018-09-22T11:10:59.990Z</time>
      </trkpt>
      <trkpt lat="46.2328" lon="10.45219">
        <ele>1644.9928726013</ele>
        <time>2018-09-22T11:11:10.989Z</time>
      </trkpt>
      <trkpt lat="46.23277" lon="10.45232">
        <ele>1645.9856</ele>
        <time>2018-09-22T11:11:25.988Z</time>
      </trkpt>
      <trkpt lat="46.23273" lon="10.45245">
        <ele>1649.1785139644</ele>
        <time>2018-09-22T11:11:41.989Z</time>
      </trkpt>
      <trkpt lat="46.23266" lon="10.45254">
        <ele>1651.39400064</ele>
        <time>2018-09-22T11:11:55.000Z</time>
      </trkpt>
      <trkpt lat="46.23258" lon="10.45261">
        <ele>1652.98600192</ele>
        <time>2018-09-22T11:12:05.990Z</time>
      </trkpt>
      <trkpt lat="46.2325" lon="10.45269">
        <ele>1654.98800128</ele>
        <time>2018-09-22T11:12:16.000Z</time>
      </trkpt>
      <trkpt lat="46.23244" lon="10.45259">
        <ele>1658.98200192</ele>
        <time>2018-09-22T11:12:31.000Z</time>
      </trkpt>
      <trkpt lat="46.23239" lon="10.45247">
        <ele>1661.7812186714</ele>
        <time>2018-09-22T11:12:45.000Z</time>
      </trkpt>
      <trkpt lat="46.23234" lon="10.45235">
        <ele>1663.7931730675</ele>
        <time>2018-09-22T11:12:59.000Z</time>
      </trkpt>
      <trkpt lat="46.23231" lon="10.45222">
        <ele>1664.7900496334</ele>
        <time>2018-09-22T11:13:09.000Z</time>
      </trkpt>
      <trkpt lat="46.23229" lon="10.45209">
        <ele>1667.89400064</ele>
        <time>2018-09-22T11:13:30.000Z</time>
      </trkpt>
      <trkpt lat="46.23224" lon="10.45198">
        <ele>1669.9601191296</ele>
        <time>2018-09-22T11:13:40.988Z</time>
      </trkpt>
      <trkpt lat="46.23221" lon="10.45184">
        <ele>1672.38560256</ele>
        <time>2018-09-22T11:13:52.988Z</time>
      </trkpt>
      <trkpt lat="46.23221" lon="10.45171">
        <ele>1674.5700400684</ele>
        <time>2018-09-22T11:14:03.990Z</time>
      </trkpt>
      <trkpt lat="46.23214" lon="10.45161">
        <ele>1677.1472078448</ele>
        <time>2018-09-22T11:14:16.990Z</time>
      </trkpt>
      <trkpt lat="46.23208" lon="10.45151">
        <ele>1679.5741669993</ele>
        <time>2018-09-22T11:14:28.990Z</time>
      </trkpt>
      <trkpt lat="46.23199" lon="10.45144">
        <ele>1681.1930352783</ele>
        <time>2018-09-22T11:14:43.000Z</time>
      </trkpt>
      <trkpt lat="46.23194" lon="10.45133">
        <ele>1683.7540284988</ele>
        <time>2018-09-22T11:14:56.986Z</time>
      </trkpt>
      <trkpt lat="46.23187" lon="10.45124">
        <ele>1685.978131835</ele>
        <time>2018-09-22T11:15:11.000Z</time>
      </trkpt>
      <trkpt lat="46.2318" lon="10.45115">
        <ele>1688.1750261962</ele>
        <time>2018-09-22T11:15:26.988Z</time>
      </trkpt>
      <trkpt lat="46.23177" lon="10.45101">
        <ele>1690.7840582368</ele>
        <time>2018-09-22T11:15:39.990Z</time>
      </trkpt>
      <trkpt lat="46.23174" lon="10.45089">
        <ele>1693.09400064</ele>
        <time>2018-09-22T11:15:52.000Z</time>
      </trkpt>
      <trkpt lat="46.23167" lon="10.4508">
        <ele>1694.1870040933</ele>
        <time>2018-09-22T11:16:02.988Z</time>
      </trkpt>
      <trkpt lat="46.2316" lon="10.45071">
        <ele>1696.3663588413</ele>
        <time>2018-09-22T11:16:17.990Z</time>
      </trkpt>
      <trkpt lat="46.23153" lon="10.45061">
        <ele>1698.392785823</ele>
        <time>2018-09-22T11:16:35.000Z</time>
      </trkpt>
      <trkpt lat="46.23146" lon="10.45054">
        <ele>1700.3862016</ele>
        <time>2018-09-22T11:16:47.991Z</time>
      </trkpt>
      <trkpt lat="46.23139" lon="10.45044">
        <ele>1703.1711716129</ele>
        <time>2018-09-22T11:17:01.989Z</time>
      </trkpt>
      <trkpt lat="46.23135" lon="10.45032">
        <ele>1705.3832686278</ele>
        <time>2018-09-22T11:17:15.000Z</time>
      </trkpt>
      <trkpt lat="46.2313" lon="10.4502">
        <ele>1706.956790725</ele>
        <time>2018-09-22T11:17:25.990Z</time>
      </trkpt>
      <trkpt lat="46.23122" lon="10.45014">
        <ele>1708</ele>
        <time>2018-09-22T11:17:37.000Z</time>
      </trkpt>
      <trkpt lat="46.23113" lon="10.45008">
        <ele>1708</ele>
        <time>2018-09-22T11:17:45.990Z</time>
      </trkpt>
      <trkpt lat="46.23104" lon="10.45003">
        <ele>1708.3996054917</ele>
        <time>2018-09-22T11:17:55.100Z</time>
      </trkpt>
      <trkpt lat="46.23097" lon="10.44993">
        <ele>1710.5738694838</ele>
        <time>2018-09-22T11:18:09.000Z</time>
      </trkpt>
      <trkpt lat="46.2309" lon="10.44984">
        <ele>1712.569292261</ele>
        <time>2018-09-22T11:18:18.990Z</time>
      </trkpt>
      <trkpt lat="46.23084" lon="10.44973">
        <ele>1713</ele>
        <time>2018-09-22T11:18:27.000Z</time>
      </trkpt>
      <trkpt lat="46.23077" lon="10.44965">
        <ele>1713.98600192</ele>
        <time>2018-09-22T11:18:35.990Z</time>
      </trkpt>
      <trkpt lat="46.23084" lon="10.44976">
        <ele>1718.3843847538</ele>
        <time>2018-09-22T11:19:02.990Z</time>
      </trkpt>
      <trkpt lat="46.23089" lon="10.44987">
        <ele>1720.4928</ele>
        <time>2018-09-22T11:19:15.988Z</time>
      </trkpt>
      <trkpt lat="46.23094" lon="10.45">
        <ele>1723.29400064</ele>
        <time>2018-09-22T11:19:34.000Z</time>
      </trkpt>
      <trkpt lat="46.23095" lon="10.45013">
        <ele>1724.588531774</ele>
        <time>2018-09-22T11:19:56.990Z</time>
      </trkpt>
      <trkpt lat="46.23087" lon="10.45019">
        <ele>1726.6070140967</ele>
        <time>2018-09-22T11:20:09.099Z</time>
      </trkpt>
      <trkpt lat="46.23077" lon="10.45015">
        <ele>1728.1820896967</ele>
        <time>2018-09-22T11:20:17.000Z</time>
      </trkpt>
      <trkpt lat="46.23069" lon="10.45009">
        <ele>1729.47753875</ele>
        <time>2018-09-22T11:20:26.000Z</time>
      </trkpt>
      <trkpt lat="46.23059" lon="10.45006">
        <ele>1731.1635435602</ele>
        <time>2018-09-22T11:20:36.999Z</time>
      </trkpt>
      <trkpt lat="46.23051" lon="10.45">
        <ele>1733.58600192</ele>
        <time>2018-09-22T11:20:53.990Z</time>
      </trkpt>
      <trkpt lat="46.23044" lon="10.44991">
        <ele>1736.1801002857</ele>
        <time>2018-09-22T11:21:06.990Z</time>
      </trkpt>
      <trkpt lat="46.23038" lon="10.44981">
        <ele>1738.5859305352</ele>
        <time>2018-09-22T11:21:19.000Z</time>
      </trkpt>
      <trkpt lat="46.23032" lon="10.44969">
        <ele>1741.391482736</ele>
        <time>2018-09-22T11:21:34.987Z</time>
      </trkpt>
      <trkpt lat="46.23023" lon="10.44965">
        <ele>1742.39400064</ele>
        <time>2018-09-22T11:21:45.000Z</time>
      </trkpt>
      <trkpt lat="46.23013" lon="10.4496">
        <ele>1743.69400064</ele>
        <time>2018-09-22T11:21:58.000Z</time>
      </trkpt>
      <trkpt lat="46.23022" lon="10.44968">
        <ele>1747.78800128</ele>
        <time>2018-09-22T11:22:25.000Z</time>
      </trkpt>
      <trkpt lat="46.23026" lon="10.4498">
        <ele>1749.49400064</ele>
        <time>2018-09-22T11:22:36.000Z</time>
      </trkpt>
      <trkpt lat="46.2303" lon="10.44993">
        <ele>1750</ele>
        <time>2018-09-22T11:22:44.990Z</time>
      </trkpt>
      <trkpt lat="46.23034" lon="10.45005">
        <ele>1750.10390016</ele>
        <time>2018-09-22T11:22:52.099Z</time>
      </trkpt>
      <trkpt lat="46.23034" lon="10.44991">
        <ele>1750.89300096</ele>
        <time>2018-09-22T11:22:59.990Z</time>
      </trkpt>
      <trkpt lat="46.23042" lon="10.44998">
        <ele>1750</ele>
        <time>2018-09-22T11:23:25.000Z</time>
      </trkpt>
      <trkpt lat="46.23046" lon="10.45012">
        <ele>1750.0936260161</ele>
        <time>2018-09-22T11:23:32.000Z</time>
      </trkpt>
      <trkpt lat="46.2305" lon="10.45023">
        <ele>1750.8904377492</ele>
        <time>2018-09-22T11:23:40.000Z</time>
      </trkpt>
      <trkpt lat="46.23055" lon="10.45036">
        <ele>1751.9939765384</ele>
        <time>2018-09-22T11:23:51.000Z</time>
      </trkpt>
      <trkpt lat="46.23058" lon="10.45048">
        <ele>1754.19400064</ele>
        <time>2018-09-22T11:24:03.000Z</time>
      </trkpt>
      <trkpt lat="46.2306" lon="10.45062">
        <ele>1755.7783940265</ele>
        <time>2018-09-22T11:24:14.987Z</time>
      </trkpt>
      <trkpt lat="46.23056" lon="10.45075">
        <ele>1757.5906153047</ele>
        <time>2018-09-22T11:24:27.003Z</time>
      </trkpt>
      <trkpt lat="46.23051" lon="10.45087">
        <ele>1758</ele>
        <time>2018-09-22T11:24:39.000Z</time>
      </trkpt>
      <trkpt lat="46.23049" lon="10.45101">
        <ele>1761</ele>
        <time>2018-09-22T11:24:55.000Z</time>
      </trkpt>
      <trkpt lat="46.23045" lon="10.45114">
        <ele>1761.5856</ele>
        <time>2018-09-22T11:25:03.988Z</time>
      </trkpt>
      <trkpt lat="46.23035" lon="10.45114">
        <ele>1763.4895938256</ele>
        <time>2018-09-22T11:25:16.000Z</time>
      </trkpt>
      <trkpt lat="46.23026" lon="10.45108">
        <ele>1764.574975007</ele>
        <time>2018-09-22T11:25:23.999Z</time>
      </trkpt>
      <trkpt lat="46.23018" lon="10.45101">
        <ele>1767.1709777649</ele>
        <time>2018-09-22T11:25:36.991Z</time>
      </trkpt>
      <trkpt lat="46.2301" lon="10.45094">
        <ele>1768.6888559486</ele>
        <time>2018-09-22T11:25:47.989Z</time>
      </trkpt>
      <trkpt lat="46.23007" lon="10.45082">
        <ele>1769</ele>
        <time>2018-09-22T11:25:55.990Z</time>
      </trkpt>
      <trkpt lat="46.23004" lon="10.45068">
        <ele>1769.49270016</ele>
        <time>2018-09-22T11:26:05.987Z</time>
      </trkpt>
      <trkpt lat="46.22999" lon="10.45056">
        <ele>1770.49400064</ele>
        <time>2018-09-22T11:26:16.000Z</time>
      </trkpt>
      <trkpt lat="46.22995" lon="10.45044">
        <ele>1771.5864499825</ele>
        <time>2018-09-22T11:26:26.989Z</time>
      </trkpt>
      <trkpt lat="46.22988" lon="10.45035">
        <ele>1773.9160970152</ele>
        <time>2018-09-22T11:26:40.990Z</time>
      </trkpt>
      <trkpt lat="46.22983" lon="10.45023">
        <ele>1775.4974575797</ele>
        <time>2018-09-22T11:26:52.990Z</time>
      </trkpt>
      <trkpt lat="46.22975" lon="10.45032">
        <ele>1779.49270016</ele>
        <time>2018-09-22T11:27:15.987Z</time>
      </trkpt>
      <trkpt lat="46.2298" lon="10.45043">
        <ele>1781.9628812988</ele>
        <time>2018-09-22T11:27:31.002Z</time>
      </trkpt>
      <trkpt lat="46.22986" lon="10.45054">
        <ele>1784.49400064</ele>
        <time>2018-09-22T11:27:46.000Z</time>
      </trkpt>
      <trkpt lat="46.22985" lon="10.45068">
        <ele>1786.8915325164</ele>
        <time>2018-09-22T11:28:01.000Z</time>
      </trkpt>
      <trkpt lat="46.22984" lon="10.45081">
        <ele>1788.0835349227</ele>
        <time>2018-09-22T11:28:11.987Z</time>
      </trkpt>
      <trkpt lat="46.22982" lon="10.45094">
        <ele>1789.09300096</ele>
        <time>2018-09-22T11:28:21.990Z</time>
      </trkpt>
      <trkpt lat="46.22982" lon="10.45108">
        <ele>1791.18800128</ele>
        <time>2018-09-22T11:28:37.000Z</time>
      </trkpt>
      <trkpt lat="46.22976" lon="10.45118">
        <ele>1792.69300096</ele>
        <time>2018-09-22T11:28:47.990Z</time>
      </trkpt>
      <trkpt lat="46.22969" lon="10.45126">
        <ele>1793.98860032</ele>
        <time>2018-09-22T11:28:56.003Z</time>
      </trkpt>
      <trkpt lat="46.22967" lon="10.45139">
        <ele>1795.786608254</ele>
        <time>2018-09-22T11:29:08.989Z</time>
      </trkpt>
      <trkpt lat="46.22965" lon="10.45154">
        <ele>1797.7862916129</ele>
        <time>2018-09-22T11:29:20.000Z</time>
      </trkpt>
      <trkpt lat="46.22964" lon="10.45167">
        <ele>1799.09400064</ele>
        <time>2018-09-22T11:29:32.000Z</time>
      </trkpt>
      <trkpt lat="46.22967" lon="10.4518">
        <ele>1800.3839617369</ele>
        <time>2018-09-22T11:29:42.999Z</time>
      </trkpt>
      <trkpt lat="46.22965" lon="10.45194">
        <ele>1802.68269952</ele>
        <time>2018-09-22T11:29:57.987Z</time>
      </trkpt>
      <trkpt lat="46.22964" lon="10.45207">
        <ele>1805.3608042257</ele>
        <time>2018-09-22T11:30:08.990Z</time>
      </trkpt>
      <trkpt lat="46.22969" lon="10.45219">
        <ele>1806.6924626581</ele>
        <time>2018-09-22T11:30:18.000Z</time>
      </trkpt>
      <trkpt lat="46.22968" lon="10.45233">
        <ele>1807.79400064</ele>
        <time>2018-09-22T11:30:29.000Z</time>
      </trkpt>
      <trkpt lat="46.22971" lon="10.45246">
        <ele>1808</ele>
        <time>2018-09-22T11:30:39.987Z</time>
      </trkpt>
      <trkpt lat="46.22965" lon="10.45257">
        <ele>1809.98540032</ele>
        <time>2018-09-22T11:30:50.987Z</time>
      </trkpt>
      <trkpt lat="46.22963" lon="10.45271">
        <ele>1810.9637859643</ele>
        <time>2018-09-22T11:31:00.987Z</time>
      </trkpt>
      <trkpt lat="46.22962" lon="10.45285">
        <ele>1813.1839624973</ele>
        <time>2018-09-22T11:31:11.989Z</time>
      </trkpt>
      <trkpt lat="46.22958" lon="10.45296">
        <ele>1815.1848489276</ele>
        <time>2018-09-22T11:31:22.990Z</time>
      </trkpt>
      <trkpt lat="46.22959" lon="10.45309">
        <ele>1816.49300096</ele>
        <time>2018-09-22T11:31:35.990Z</time>
      </trkpt>
      <trkpt lat="46.22955" lon="10.45321">
        <ele>1818.58560256</ele>
        <time>2018-09-22T11:31:48.988Z</time>
      </trkpt>
      <trkpt lat="46.22948" lon="10.4533">
        <ele>1820.8896301763</ele>
        <time>2018-09-22T11:32:00.990Z</time>
      </trkpt>
      <trkpt lat="46.22944" lon="10.45342">
        <ele>1822.0870477108</ele>
        <time>2018-09-22T11:32:11.987Z</time>
      </trkpt>
      <trkpt lat="46.22936" lon="10.4535">
        <ele>1822.9910644177</ele>
        <time>2018-09-22T11:32:20.991Z</time>
      </trkpt>
      <trkpt lat="46.2293" lon="10.45361">
        <ele>1823</ele>
        <time>2018-09-22T11:32:30.990Z</time>
      </trkpt>
      <trkpt lat="46.22923" lon="10.45369">
        <ele>1824.9603162469</ele>
        <time>2018-09-22T11:32:40.989Z</time>
      </trkpt>
      <trkpt lat="46.22919" lon="10.45381">
        <ele>1825.992604005</ele>
        <time>2018-09-22T11:32:50.987Z</time>
      </trkpt>
      <trkpt lat="46.22915" lon="10.45393">
        <ele>1828</ele>
        <time>2018-09-22T11:33:01.987Z</time>
      </trkpt>
      <trkpt lat="46.22916" lon="10.45407">
        <ele>1828</ele>
        <time>2018-09-22T11:33:10.002Z</time>
      </trkpt>
      <trkpt lat="46.22916" lon="10.45421">
        <ele>1826.4470966471</ele>
        <time>2018-09-22T11:33:18.987Z</time>
      </trkpt>
      <trkpt lat="46.22914" lon="10.45435">
        <ele>1827.58800128</ele>
        <time>2018-09-22T11:33:34.000Z</time>
      </trkpt>
      <trkpt lat="46.22909" lon="10.45446">
        <ele>1830.5698488312</ele>
        <time>2018-09-22T11:33:53.000Z</time>
      </trkpt>
      <trkpt lat="46.22909" lon="10.4546">
        <ele>1835</ele>
        <time>2018-09-22T11:34:16.000Z</time>
      </trkpt>
      <trkpt lat="46.22907" lon="10.45473">
        <ele>1835</ele>
        <time>2018-09-22T11:34:26.000Z</time>
      </trkpt>
      <trkpt lat="46.22907" lon="10.45486">
        <ele>1835.4873355095</ele>
        <time>2018-09-22T11:34:36.000Z</time>
      </trkpt>
      <trkpt lat="46.22904" lon="10.455">
        <ele>1836.6928</ele>
        <time>2018-09-22T11:34:47.988Z</time>
      </trkpt>
      <trkpt lat="46.22901" lon="10.45513">
        <ele>1836.01419776</ele>
        <time>2018-09-22T11:34:55.989Z</time>
      </trkpt>
      <trkpt lat="46.22898" lon="10.45526">
        <ele>1835</ele>
        <time>2018-09-22T11:35:06.987Z</time>
      </trkpt>
      <trkpt lat="46.22892" lon="10.45537">
        <ele>1836.1771598245</ele>
        <time>2018-09-22T11:35:16.987Z</time>
      </trkpt>
      <trkpt lat="46.22889" lon="10.4555">
        <ele>1839.38540032</ele>
        <time>2018-09-22T11:35:32.987Z</time>
      </trkpt>
      <trkpt lat="46.22888" lon="10.45563">
        <ele>1842.78840064</ele>
        <time>2018-09-22T11:35:50.002Z</time>
      </trkpt>
      <trkpt lat="46.22894" lon="10.45573">
        <ele>1843.99260032</ele>
        <time>2018-09-22T11:36:00.986Z</time>
      </trkpt>
      <trkpt lat="46.22898" lon="10.45585">
        <ele>1844.956551549</ele>
        <time>2018-09-22T11:36:10.989Z</time>
      </trkpt>
      <trkpt lat="46.22899" lon="10.45599">
        <ele>1845.7606851613</ele>
        <time>2018-09-22T11:36:18.986Z</time>
      </trkpt>
      <trkpt lat="46.22901" lon="10.45611">
        <ele>1846.4781449753</ele>
        <time>2018-09-22T11:36:25.998Z</time>
      </trkpt>
      <trkpt lat="46.22901" lon="10.45624">
        <ele>1847</ele>
        <time>2018-09-22T11:36:34.999Z</time>
      </trkpt>
      <trkpt lat="46.22903" lon="10.45638">
        <ele>1847.1930208756</ele>
        <time>2018-09-22T11:36:42.996Z</time>
      </trkpt>
      <trkpt lat="46.229" lon="10.45652">
        <ele>1848.1816091954</ele>
        <time>2018-09-22T11:36:52.986Z</time>
      </trkpt>
      <trkpt lat="46.22902" lon="10.45665">
        <ele>1848.949234023</ele>
        <time>2018-09-22T11:37:01.000Z</time>
      </trkpt>
      <trkpt lat="46.22903" lon="10.45678">
        <ele>1849.6789092731</ele>
        <time>2018-09-22T11:37:08.000Z</time>
      </trkpt>
      <trkpt lat="46.22899" lon="10.45689">
        <ele>1850.7878971429</ele>
        <time>2018-09-22T11:37:19.002Z</time>
      </trkpt>
      <trkpt lat="46.229" lon="10.45704">
        <ele>1854.2086016</ele>
        <time>2018-09-22T11:37:37.103Z</time>
      </trkpt>
      <trkpt lat="46.22899" lon="10.45719">
        <ele>1856.38800128</ele>
        <time>2018-09-22T11:37:48.000Z</time>
      </trkpt>
      <trkpt lat="46.229" lon="10.45732">
        <ele>1857.59400064</ele>
        <time>2018-09-22T11:37:57.000Z</time>
      </trkpt>
      <trkpt lat="46.22902" lon="10.45746">
        <ele>1858</ele>
        <time>2018-09-22T11:38:07.000Z</time>
      </trkpt>
      <trkpt lat="46.22903" lon="10.45759">
        <ele>1857.60739968</ele>
        <time>2018-09-22T11:38:14.986Z</time>
      </trkpt>
      <trkpt lat="46.22905" lon="10.45772">
        <ele>1857.78540032</ele>
        <time>2018-09-22T11:38:24.987Z</time>
      </trkpt>
      <trkpt lat="46.22909" lon="10.45785">
        <ele>1859.59400064</ele>
        <time>2018-09-22T11:38:37.000Z</time>
      </trkpt>
      <trkpt lat="46.22909" lon="10.45799">
        <ele>1861.38580224</ele>
        <time>2018-09-22T11:38:47.989Z</time>
      </trkpt>
      <trkpt lat="46.22901" lon="10.45805">
        <ele>1865.29400064</ele>
        <time>2018-09-22T11:39:04.000Z</time>
      </trkpt>
      <trkpt lat="46.22897" lon="10.45817">
        <ele>1868.1388314819</ele>
        <time>2018-09-22T11:39:26.999Z</time>
      </trkpt>
      <trkpt lat="46.22902" lon="10.4583">
        <ele>1869</ele>
        <time>2018-09-22T11:39:33.999Z</time>
      </trkpt>
      <trkpt lat="46.22898" lon="10.45843">
        <ele>1869</ele>
        <time>2018-09-22T11:39:44.991Z</time>
      </trkpt>
      <trkpt lat="46.22898" lon="10.45857">
        <ele>1869.29290112</ele>
        <time>2018-09-22T11:39:53.989Z</time>
      </trkpt>
      <trkpt lat="46.22891" lon="10.45867">
        <ele>1870</ele>
        <time>2018-09-22T11:40:02.001Z</time>
      </trkpt>
      <trkpt lat="46.22884" lon="10.45877">
        <ele>1870</ele>
        <time>2018-09-22T11:40:10.987Z</time>
      </trkpt>
      <trkpt lat="46.2288" lon="10.45889">
        <ele>1870</ele>
        <time>2018-09-22T11:40:22.001Z</time>
      </trkpt>
      <trkpt lat="46.22871" lon="10.45895">
        <ele>1870.98580224</ele>
        <time>2018-09-22T11:40:35.989Z</time>
      </trkpt>
      <trkpt lat="46.22862" lon="10.45895">
        <ele>1876.18800128</ele>
        <time>2018-09-22T11:41:02.000Z</time>
      </trkpt>
      <trkpt lat="46.22856" lon="10.45885">
        <ele>1879.34635474</ele>
        <time>2018-09-22T11:41:17.987Z</time>
      </trkpt>
      <trkpt lat="46.22847" lon="10.4589">
        <ele>1884.1678956194</ele>
        <time>2018-09-22T11:41:56.987Z</time>
      </trkpt>
      <trkpt lat="46.22844" lon="10.45902">
        <ele>1885</ele>
        <time>2018-09-22T11:42:08.991Z</time>
      </trkpt>
      <trkpt lat="46.22841" lon="10.45916">
        <ele>1885.6915329032</ele>
        <time>2018-09-22T11:42:18.000Z</time>
      </trkpt>
      <trkpt lat="46.22836" lon="10.45928">
        <ele>1886</ele>
        <time>2018-09-22T11:42:25.990Z</time>
      </trkpt>
      <trkpt lat="46.22831" lon="10.45938">
        <ele>1886.2914342101</ele>
        <time>2018-09-22T11:42:33.986Z</time>
      </trkpt>
      <trkpt lat="46.22822" lon="10.45944">
        <ele>1887.576072017</ele>
        <time>2018-09-22T11:42:43.989Z</time>
      </trkpt>
      <trkpt lat="46.22812" lon="10.45943">
        <ele>1889.2877139296</ele>
        <time>2018-09-22T11:42:53.987Z</time>
      </trkpt>
      <trkpt lat="46.22803" lon="10.45944">
        <ele>1892.1845106067</ele>
        <time>2018-09-22T11:43:11.989Z</time>
      </trkpt>
      <trkpt lat="46.22794" lon="10.45939">
        <ele>1896.58600192</ele>
        <time>2018-09-22T11:43:33.990Z</time>
      </trkpt>
      <trkpt lat="46.22785" lon="10.45938">
        <ele>1899.19420032</ele>
        <time>2018-09-22T11:43:53.002Z</time>
      </trkpt>
      <trkpt lat="46.22777" lon="10.45946">
        <ele>1900</ele>
        <time>2018-09-22T11:44:05.986Z</time>
      </trkpt>
      <trkpt lat="46.22771" lon="10.45956">
        <ele>1900.3907460546</ele>
        <time>2018-09-22T11:44:14.987Z</time>
      </trkpt>
      <trkpt lat="46.22764" lon="10.45966">
        <ele>1901.2904522199</ele>
        <time>2018-09-22T11:44:24.000Z</time>
      </trkpt>
      <trkpt lat="46.22756" lon="10.45974">
        <ele>1902.19270016</ele>
        <time>2018-09-22T11:44:32.987Z</time>
      </trkpt>
      <trkpt lat="46.22749" lon="10.45984">
        <ele>1904.5785290952</ele>
        <time>2018-09-22T11:44:49.000Z</time>
      </trkpt>
      <trkpt lat="46.22742" lon="10.45993">
        <ele>1905</ele>
        <time>2018-09-22T11:44:58.000Z</time>
      </trkpt>
      <trkpt lat="46.22733" lon="10.45996">
        <ele>1906.3811942184</ele>
        <time>2018-09-22T11:45:08.000Z</time>
      </trkpt>
      <trkpt lat="46.22725" lon="10.46002">
        <ele>1909.19400064</ele>
        <time>2018-09-22T11:45:23.000Z</time>
      </trkpt>
      <trkpt lat="46.22717" lon="10.46009">
        <ele>1910.29400064</ele>
        <time>2018-09-22T11:45:34.000Z</time>
      </trkpt>
      <trkpt lat="46.22708" lon="10.46015">
        <ele>1911.9555774338</ele>
        <time>2018-09-22T11:45:45.986Z</time>
      </trkpt>
      <trkpt lat="46.227" lon="10.46022">
        <ele>1913</ele>
        <time>2018-09-22T11:45:59.000Z</time>
      </trkpt>
      <trkpt lat="46.2269" lon="10.46024">
        <ele>1914.18540032</ele>
        <time>2018-09-22T11:46:11.987Z</time>
      </trkpt>
      <trkpt lat="46.22681" lon="10.46027">
        <ele>1916</ele>
        <time>2018-09-22T11:46:22.989Z</time>
      </trkpt>
      <trkpt lat="46.22672" lon="10.46031">
        <ele>1916</ele>
        <time>2018-09-22T11:46:30.989Z</time>
      </trkpt>
      <trkpt lat="46.22663" lon="10.46034">
        <ele>1916.18540032</ele>
        <time>2018-09-22T11:46:41.987Z</time>
      </trkpt>
      <trkpt lat="46.22654" lon="10.46037">
        <ele>1920.07870336</ele>
        <time>2018-09-22T11:46:57.989Z</time>
      </trkpt>
      <trkpt lat="46.22645" lon="10.46041">
        <ele>1922.78540032</ele>
        <time>2018-09-22T11:47:09.987Z</time>
      </trkpt>
      <trkpt lat="46.22639" lon="10.46051">
        <ele>1924.5871619939</ele>
        <time>2018-09-22T11:47:29.002Z</time>
      </trkpt>
      <trkpt lat="46.2263" lon="10.46057">
        <ele>1926.2939008</ele>
        <time>2018-09-22T11:47:43.999Z</time>
      </trkpt>
      <trkpt lat="46.22622" lon="10.46062">
        <ele>1928.58740224</ele>
        <time>2018-09-22T11:47:58.997Z</time>
      </trkpt>
      <trkpt lat="46.22613" lon="10.46063">
        <ele>1931.5853878873</ele>
        <time>2018-09-22T11:48:16.989Z</time>
      </trkpt>
      <trkpt lat="46.22603" lon="10.46063">
        <ele>1932.9797599267</ele>
        <time>2018-09-22T11:48:30.987Z</time>
      </trkpt>
      <trkpt lat="46.22593" lon="10.46062">
        <ele>1936.78800128</ele>
        <time>2018-09-22T11:48:50.000Z</time>
      </trkpt>
      <trkpt lat="46.22584" lon="10.46059">
        <ele>1940.3490299541</ele>
        <time>2018-09-22T11:49:07.987Z</time>
      </trkpt>
      <trkpt lat="46.22579" lon="10.46048">
        <ele>1943.99290112</ele>
        <time>2018-09-22T11:49:30.989Z</time>
      </trkpt>
      <trkpt lat="46.22573" lon="10.46038">
        <ele>1947.9859174155</ele>
        <time>2018-09-22T11:49:50.990Z</time>
      </trkpt>
      <trkpt lat="46.22564" lon="10.46041">
        <ele>1949.9264801004</ele>
        <time>2018-09-22T11:50:10.991Z</time>
      </trkpt>
      <trkpt lat="46.22568" lon="10.46029">
        <ele>1952.487778578</ele>
        <time>2018-09-22T11:50:25.989Z</time>
      </trkpt>
      <trkpt lat="46.2257" lon="10.46016">
        <ele>1954.5775112493</ele>
        <time>2018-09-22T11:50:38.987Z</time>
      </trkpt>
      <trkpt lat="46.22576" lon="10.46005">
        <ele>1955</ele>
        <time>2018-09-22T11:50:49.990Z</time>
      </trkpt>
      <trkpt lat="46.22579" lon="10.45993">
        <ele>1955.981027692</ele>
        <time>2018-09-22T11:51:00.988Z</time>
      </trkpt>
      <trkpt lat="46.22585" lon="10.45983">
        <ele>1957.38580224</ele>
        <time>2018-09-22T11:51:12.989Z</time>
      </trkpt>
      <trkpt lat="46.22591" lon="10.45971">
        <ele>1959.9841584259</ele>
        <time>2018-09-22T11:51:31.000Z</time>
      </trkpt>
      <trkpt lat="46.22594" lon="10.45958">
        <ele>1962</ele>
        <time>2018-09-22T11:51:46.100Z</time>
      </trkpt>
      <trkpt lat="46.22599" lon="10.45948">
        <ele>1963.5712574941</ele>
        <time>2018-09-22T11:51:58.987Z</time>
      </trkpt>
      <trkpt lat="46.22607" lon="10.45941">
        <ele>1966.3687048787</ele>
        <time>2018-09-22T11:52:14.987Z</time>
      </trkpt>
      <trkpt lat="46.22612" lon="10.4593">
        <ele>1968.5700508013</ele>
        <time>2018-09-22T11:52:28.991Z</time>
      </trkpt>
      <trkpt lat="46.22618" lon="10.45919">
        <ele>1971.190414937</ele>
        <time>2018-09-22T11:52:42.987Z</time>
      </trkpt>
      <trkpt lat="46.2262" lon="10.45906">
        <ele>1972.284209599</ele>
        <time>2018-09-22T11:52:53.988Z</time>
      </trkpt>
      <trkpt lat="46.22624" lon="10.45895">
        <ele>1972.80699904</ele>
        <time>2018-09-22T11:53:02.990Z</time>
      </trkpt>
      <trkpt lat="46.22627" lon="10.45881">
        <ele>1972</ele>
        <time>2018-09-22T11:53:11.988Z</time>
      </trkpt>
      <trkpt lat="46.22629" lon="10.45867">
        <ele>1972</ele>
        <time>2018-09-22T11:53:21.003Z</time>
      </trkpt>
      <trkpt lat="46.22631" lon="10.45853">
        <ele>1972</ele>
        <time>2018-09-22T11:53:28.988Z</time>
      </trkpt>
      <trkpt lat="46.22634" lon="10.45839">
        <ele>1970.81439744</ele>
        <time>2018-09-22T11:53:36.988Z</time>
      </trkpt>
      <trkpt lat="46.22639" lon="10.45828">
        <ele>1970.39270016</ele>
        <time>2018-09-22T11:53:44.987Z</time>
      </trkpt>
      <trkpt lat="46.22644" lon="10.45815">
        <ele>1971</ele>
        <time>2018-09-22T11:53:54.988Z</time>
      </trkpt>
      <trkpt lat="46.22648" lon="10.45803">
        <ele>1971.98860032</ele>
        <time>2018-09-22T11:54:06.003Z</time>
      </trkpt>
      <trkpt lat="46.22653" lon="10.45791">
        <ele>1974.38600192</ele>
        <time>2018-09-22T11:54:17.990Z</time>
      </trkpt>
      <trkpt lat="46.22658" lon="10.4578">
        <ele>1975.8928</ele>
        <time>2018-09-22T11:54:29.988Z</time>
      </trkpt>
      <trkpt lat="46.2266" lon="10.45767">
        <ele>1977.18540032</ele>
        <time>2018-09-22T11:54:41.987Z</time>
      </trkpt>
      <trkpt lat="46.22659" lon="10.45753">
        <ele>1979.38540032</ele>
        <time>2018-09-22T11:54:52.987Z</time>
      </trkpt>
      <trkpt lat="46.22658" lon="10.4574">
        <ele>1981</ele>
        <time>2018-09-22T11:55:03.988Z</time>
      </trkpt>
      <trkpt lat="46.22654" lon="10.45728">
        <ele>1981.7616212822</ele>
        <time>2018-09-22T11:55:15.000Z</time>
      </trkpt>
      <trkpt lat="46.22654" lon="10.45714">
        <ele>1983.583926674</ele>
        <time>2018-09-22T11:55:27.000Z</time>
      </trkpt>
      <trkpt lat="46.2265" lon="10.45703">
        <ele>1985.9450441782</ele>
        <time>2018-09-22T11:55:41.000Z</time>
      </trkpt>
      <trkpt lat="46.22645" lon="10.4569">
        <ele>1989.29400064</ele>
        <time>2018-09-22T11:55:54.000Z</time>
      </trkpt>
      <trkpt lat="46.22642" lon="10.45678">
        <ele>1990.89260032</ele>
        <time>2018-09-22T11:56:09.986Z</time>
      </trkpt>
      <trkpt lat="46.22638" lon="10.45666">
        <ele>1994.1713427082</ele>
        <time>2018-09-22T11:56:26.987Z</time>
      </trkpt>
      <trkpt lat="46.22636" lon="10.45653">
        <ele>1996.7737385204</ele>
        <time>2018-09-22T11:56:44.990Z</time>
      </trkpt>
      <trkpt lat="46.22633" lon="10.4564">
        <ele>1998.39290112</ele>
        <time>2018-09-22T11:57:14.989Z</time>
      </trkpt>
      <trkpt lat="46.22629" lon="10.45628">
        <ele>2000.98600192</ele>
        <time>2018-09-22T11:57:30.990Z</time>
      </trkpt>
      <trkpt lat="46.22621" lon="10.45636">
        <ele>2003.1875117483</ele>
        <time>2018-09-22T11:57:42.987Z</time>
      </trkpt>
      <trkpt lat="46.22614" lon="10.45643">
        <ele>2004.1881292157</ele>
        <time>2018-09-22T11:57:52.990Z</time>
      </trkpt>
      <trkpt lat="46.22606" lon="10.45652">
        <ele>2005.49300096</ele>
        <time>2018-09-22T11:58:05.990Z</time>
      </trkpt>
      <trkpt lat="46.22598" lon="10.45658">
        <ele>2006.89300096</ele>
        <time>2018-09-22T11:58:19.990Z</time>
      </trkpt>
      <trkpt lat="46.22592" lon="10.45647">
        <ele>2011.7862016</ele>
        <time>2018-09-22T11:58:44.991Z</time>
      </trkpt>
      <trkpt lat="46.22594" lon="10.45634">
        <ele>2013</ele>
        <time>2018-09-22T11:58:55.988Z</time>
      </trkpt>
      <trkpt lat="46.22595" lon="10.45621">
        <ele>2013.9787484477</ele>
        <time>2018-09-22T11:59:05.988Z</time>
      </trkpt>
      <trkpt lat="46.22598" lon="10.45608">
        <ele>2015</ele>
        <time>2018-09-22T11:59:14.988Z</time>
      </trkpt>
      <trkpt lat="46.226" lon="10.45595">
        <ele>2015.39280128</ele>
        <time>2018-09-22T11:59:24.988Z</time>
      </trkpt>
      <trkpt lat="46.22602" lon="10.45582">
        <ele>2016.29430016</ele>
        <time>2018-09-22T11:59:34.003Z</time>
      </trkpt>
      <trkpt lat="46.22603" lon="10.45568">
        <ele>2017</ele>
        <time>2018-09-22T11:59:44.000Z</time>
      </trkpt>
      <trkpt lat="46.22604" lon="10.45553">
        <ele>2017</ele>
        <time>2018-09-22T11:59:52.988Z</time>
      </trkpt>
      <trkpt lat="46.22606" lon="10.45539">
        <ele>2017.0921548863</ele>
        <time>2018-09-22T12:00:01.988Z</time>
      </trkpt>
      <trkpt lat="46.22606" lon="10.45525">
        <ele>2017.9858996668</ele>
        <time>2018-09-22T12:00:10.988Z</time>
      </trkpt>
      <trkpt lat="46.22606" lon="10.4551">
        <ele>2018.6906343414</ele>
        <time>2018-09-22T12:00:17.988Z</time>
      </trkpt>
      <trkpt lat="46.22607" lon="10.45497">
        <ele>2019</ele>
        <time>2018-09-22T12:00:25.988Z</time>
      </trkpt>
      <trkpt lat="46.22607" lon="10.45484">
        <ele>2019</ele>
        <time>2018-09-22T12:00:34.003Z</time>
      </trkpt>
      <trkpt lat="46.22609" lon="10.4547">
        <ele>2019</ele>
        <time>2018-09-22T12:00:41.988Z</time>
      </trkpt>
      <trkpt lat="46.22609" lon="10.45457">
        <ele>2019</ele>
        <time>2018-09-22T12:00:49.989Z</time>
      </trkpt>
      <trkpt lat="46.2261" lon="10.45443">
        <ele>2019.6909454751</ele>
        <time>2018-09-22T12:00:57.988Z</time>
      </trkpt>
      <trkpt lat="46.22611" lon="10.45429">
        <ele>2020.59280128</ele>
        <time>2018-09-22T12:01:06.988Z</time>
      </trkpt>
      <trkpt lat="46.22611" lon="10.45415">
        <ele>2021</ele>
        <time>2018-09-22T12:01:15.987Z</time>
      </trkpt>
      <trkpt lat="46.22607" lon="10.454">
        <ele>2021</ele>
        <time>2018-09-22T12:01:22.989Z</time>
      </trkpt>
      <trkpt lat="46.22605" lon="10.45387">
        <ele>2021</ele>
        <time>2018-09-22T12:01:30.989Z</time>
      </trkpt>
      <trkpt lat="46.22601" lon="10.45374">
        <ele>2021.76390016</ele>
        <time>2018-09-22T12:01:38.999Z</time>
      </trkpt>
      <trkpt lat="46.226" lon="10.45361">
        <ele>2022</ele>
        <time>2018-09-22T12:01:46.989Z</time>
      </trkpt>
      <trkpt lat="46.22598" lon="10.45348">
        <ele>2021.21439744</ele>
        <time>2018-09-22T12:01:54.988Z</time>
      </trkpt>
      <trkpt lat="46.22597" lon="10.45335">
        <ele>2020</ele>
        <time>2018-09-22T12:02:02.989Z</time>
      </trkpt>
      <trkpt lat="46.22593" lon="10.45322">
        <ele>2020</ele>
        <time>2018-09-22T12:02:09.986Z</time>
      </trkpt>
      <trkpt lat="46.22587" lon="10.45312">
        <ele>2020</ele>
        <time>2018-09-22T12:02:17.990Z</time>
      </trkpt>
      <trkpt lat="46.22578" lon="10.45309">
        <ele>2020</ele>
        <time>2018-09-22T12:02:24.991Z</time>
      </trkpt>
      <trkpt lat="46.22569" lon="10.45306">
        <ele>2019.80699904</ele>
        <time>2018-09-22T12:02:32.990Z</time>
      </trkpt>
      <trkpt lat="46.2256" lon="10.45301">
        <ele>2018.9072</ele>
        <time>2018-09-22T12:02:41.988Z</time>
      </trkpt>
      <trkpt lat="46.2255" lon="10.453">
        <ele>2018.10699904</ele>
        <time>2018-09-22T12:02:49.990Z</time>
      </trkpt>
      <trkpt lat="46.22541" lon="10.45298">
        <ele>2018.69300096</ele>
        <time>2018-09-22T12:02:57.990Z</time>
      </trkpt>
      <trkpt lat="46.22532" lon="10.45293">
        <ele>2019</ele>
        <time>2018-09-22T12:03:07.987Z</time>
      </trkpt>
      <trkpt lat="46.22523" lon="10.45291">
        <ele>2019</ele>
        <time>2018-09-22T12:03:16.000Z</time>
      </trkpt>
      <trkpt lat="46.22516" lon="10.45299">
        <ele>2020.98800128</ele>
        <time>2018-09-22T12:03:51.000Z</time>
      </trkpt>
      <trkpt lat="46.22525" lon="10.45305">
        <ele>2021.6924626581</ele>
        <time>2018-09-22T12:04:08.000Z</time>
      </trkpt>
      <trkpt lat="46.22517" lon="10.45296">
        <ele>2022.86804115</ele>
        <time>2018-09-22T12:04:52.000Z</time>
      </trkpt>
      <trkpt lat="46.22526" lon="10.45298">
        <ele>2021</ele>
        <time>2018-09-22T12:05:03.000Z</time>
      </trkpt>
      <trkpt lat="46.22528" lon="10.45311">
        <ele>2020.49400064</ele>
        <time>2018-09-22T12:05:46.000Z</time>
      </trkpt>
      <trkpt lat="46.22522" lon="10.453">
        <ele>2021.9133058064</ele>
        <time>2018-09-22T12:06:22.000Z</time>
      </trkpt>
      <trkpt lat="46.22517" lon="10.45289">
        <ele>2019.0452316584</ele>
        <time>2018-09-22T12:06:41.000Z</time>
      </trkpt>
      <trkpt lat="46.2251" lon="10.45279">
        <ele>2017.61399808</ele>
        <time>2018-09-22T12:09:07.990Z</time>
      </trkpt>
      <trkpt lat="46.22517" lon="10.45271">
        <ele>2015.5121205735</ele>
        <time>2018-09-22T12:09:25.990Z</time>
      </trkpt>
      <trkpt lat="46.22527" lon="10.45273">
        <ele>2013.52099712</ele>
        <time>2018-09-22T12:09:35.990Z</time>
      </trkpt>
      <trkpt lat="46.22536" lon="10.45276">
        <ele>2012</ele>
        <time>2018-09-22T12:09:45.000Z</time>
      </trkpt>
      <trkpt lat="46.22545" lon="10.45278">
        <ele>2011.90709888</ele>
        <time>2018-09-22T12:10:11.989Z</time>
      </trkpt>
      <trkpt lat="46.22554" lon="10.45276">
        <ele>2011.10599936</ele>
        <time>2018-09-22T12:10:20.000Z</time>
      </trkpt>
      <trkpt lat="46.22563" lon="10.45271">
        <ele>2010.40699904</ele>
        <time>2018-09-22T12:10:26.990Z</time>
      </trkpt>
      <trkpt lat="46.22571" lon="10.45264">
        <ele>2009.70699904</ele>
        <time>2018-09-22T12:10:33.990Z</time>
      </trkpt>
      <trkpt lat="46.2258" lon="10.45261">
        <ele>2009</ele>
        <time>2018-09-22T12:10:42.989Z</time>
      </trkpt>
      <trkpt lat="46.2259" lon="10.45258">
        <ele>2009</ele>
        <time>2018-09-22T12:10:47.989Z</time>
      </trkpt>
      <trkpt lat="46.22597" lon="10.45251">
        <ele>2008.1230292728</ele>
        <time>2018-09-22T12:10:53.992Z</time>
      </trkpt>
      <trkpt lat="46.22606" lon="10.45243">
        <ele>2005.9125478599</ele>
        <time>2018-09-22T12:11:01.989Z</time>
      </trkpt>
      <trkpt lat="46.22615" lon="10.45238">
        <ele>2005.2315168872</ele>
        <time>2018-09-22T12:11:08.990Z</time>
      </trkpt>
      <trkpt lat="46.22623" lon="10.45234">
        <ele>2003.4464833959</ele>
        <time>2018-09-22T12:11:18.990Z</time>
      </trkpt>
      <trkpt lat="46.22633" lon="10.45236">
        <ele>2002.3107281758</ele>
        <time>2018-09-22T12:11:27.990Z</time>
      </trkpt>
      <trkpt lat="46.22642" lon="10.45231">
        <ele>2000.81399808</ele>
        <time>2018-09-22T12:11:36.990Z</time>
      </trkpt>
      <trkpt lat="46.22644" lon="10.45217">
        <ele>1999.4209474518</ele>
        <time>2018-09-22T12:11:43.990Z</time>
      </trkpt>
      <trkpt lat="46.22646" lon="10.45204">
        <ele>1998.037549992</ele>
        <time>2018-09-22T12:11:50.990Z</time>
      </trkpt>
      <trkpt lat="46.22646" lon="10.4519">
        <ele>1995.3227702967</ele>
        <time>2018-09-22T12:11:59.997Z</time>
      </trkpt>
      <trkpt lat="46.22645" lon="10.45175">
        <ele>1994.10599936</ele>
        <time>2018-09-22T12:12:10.000Z</time>
      </trkpt>
      <trkpt lat="46.22647" lon="10.45161">
        <ele>1992.6290786535</ele>
        <time>2018-09-22T12:12:17.990Z</time>
      </trkpt>
      <trkpt lat="46.22648" lon="10.45146">
        <ele>1991.0258847404</ele>
        <time>2018-09-22T12:12:25.987Z</time>
      </trkpt>
      <trkpt lat="46.22648" lon="10.45133">
        <ele>1989.61399808</ele>
        <time>2018-09-22T12:12:32.990Z</time>
      </trkpt>
      <trkpt lat="46.22646" lon="10.4512">
        <ele>1988.41399808</ele>
        <time>2018-09-22T12:12:38.990Z</time>
      </trkpt>
      <trkpt lat="46.22642" lon="10.45107">
        <ele>1985.9333980543</ele>
        <time>2018-09-22T12:12:47.990Z</time>
      </trkpt>
      <trkpt lat="46.22639" lon="10.45095">
        <ele>1983.5301791744</ele>
        <time>2018-09-22T12:12:55.990Z</time>
      </trkpt>
      <trkpt lat="46.22634" lon="10.45082">
        <ele>1981.6088374629</ele>
        <time>2018-09-22T12:13:04.999Z</time>
      </trkpt>
      <trkpt lat="46.22626" lon="10.45077">
        <ele>1980.4241673875</ele>
        <time>2018-09-22T12:13:13.989Z</time>
      </trkpt>
      <trkpt lat="46.22618" lon="10.45069">
        <ele>1978.4292588991</ele>
        <time>2018-09-22T12:13:22.991Z</time>
      </trkpt>
      <trkpt lat="46.22611" lon="10.4506">
        <ele>1976.0650227184</ele>
        <time>2018-09-22T12:13:30.990Z</time>
      </trkpt>
      <trkpt lat="46.22605" lon="10.45051">
        <ele>1974.4203027558</ele>
        <time>2018-09-22T12:13:38.990Z</time>
      </trkpt>
      <trkpt lat="46.22598" lon="10.45041">
        <ele>1974</ele>
        <time>2018-09-22T12:13:48.989Z</time>
      </trkpt>
      <trkpt lat="46.22592" lon="10.45032">
        <ele>1971.22799616</ele>
        <time>2018-09-22T12:13:57.990Z</time>
      </trkpt>
      <trkpt lat="46.22584" lon="10.45024">
        <ele>1969.5072</ele>
        <time>2018-09-22T12:14:05.988Z</time>
      </trkpt>
      <trkpt lat="46.22576" lon="10.45017">
        <ele>1968.6295848181</ele>
        <time>2018-09-22T12:14:12.988Z</time>
      </trkpt>
      <trkpt lat="46.22568" lon="10.45008">
        <ele>1967.0922189351</ele>
        <time>2018-09-22T12:14:20.990Z</time>
      </trkpt>
      <trkpt lat="46.22558" lon="10.45005">
        <ele>1965.2210624945</ele>
        <time>2018-09-22T12:14:30.000Z</time>
      </trkpt>
      <trkpt lat="46.2255" lon="10.45009">
        <ele>1964.2118284139</ele>
        <time>2018-09-22T12:14:38.989Z</time>
      </trkpt>
      <trkpt lat="46.22541" lon="10.45016">
        <ele>1962.8189120766</ele>
        <time>2018-09-22T12:14:46.990Z</time>
      </trkpt>
      <trkpt lat="46.22533" lon="10.45023">
        <ele>1960.8430377796</ele>
        <time>2018-09-22T12:14:53.990Z</time>
      </trkpt>
      <trkpt lat="46.22523" lon="10.45026">
        <ele>1958.0785790371</ele>
        <time>2018-09-22T12:15:00.991Z</time>
      </trkpt>
      <trkpt lat="46.22514" lon="10.45027">
        <ele>1957.20962452</ele>
        <time>2018-09-22T12:15:08.991Z</time>
      </trkpt>
      <trkpt lat="46.22506" lon="10.45032">
        <ele>1957</ele>
        <time>2018-09-22T12:15:18.990Z</time>
      </trkpt>
      <trkpt lat="46.22497" lon="10.45037">
        <ele>1955.61399808</ele>
        <time>2018-09-22T12:15:27.990Z</time>
      </trkpt>
      <trkpt lat="46.22487" lon="10.45041">
        <ele>1954.01399808</ele>
        <time>2018-09-22T12:15:35.990Z</time>
      </trkpt>
      <trkpt lat="46.22478" lon="10.45045">
        <ele>1952.41419776</ele>
        <time>2018-09-22T12:15:43.989Z</time>
      </trkpt>
      <trkpt lat="46.22469" lon="10.45039">
        <ele>1950.81419776</ele>
        <time>2018-09-22T12:15:51.989Z</time>
      </trkpt>
      <trkpt lat="46.2246" lon="10.45033">
        <ele>1949.41439744</ele>
        <time>2018-09-22T12:15:58.988Z</time>
      </trkpt>
      <trkpt lat="46.22453" lon="10.45024">
        <ele>1948.0137984</ele>
        <time>2018-09-22T12:16:05.991Z</time>
      </trkpt>
      <trkpt lat="46.22448" lon="10.45013">
        <ele>1946.11799808</ele>
        <time>2018-09-22T12:16:14.000Z</time>
      </trkpt>
      <trkpt lat="46.22455" lon="10.45006">
        <ele>1943.90599936</ele>
        <time>2018-09-22T12:16:22.000Z</time>
      </trkpt>
      <trkpt lat="46.22464" lon="10.45001">
        <ele>1942.2286261766</ele>
        <time>2018-09-22T12:16:33.000Z</time>
      </trkpt>
      <trkpt lat="46.2246" lon="10.44988">
        <ele>1938.623942454</ele>
        <time>2018-09-22T12:16:42.989Z</time>
      </trkpt>
      <trkpt lat="46.22453" lon="10.44978">
        <ele>1937.215490843</ele>
        <time>2018-09-22T12:16:49.989Z</time>
      </trkpt>
      <trkpt lat="46.22449" lon="10.44966">
        <ele>1935</ele>
        <time>2018-09-22T12:17:04.001Z</time>
      </trkpt>
      <trkpt lat="46.22442" lon="10.44956">
        <ele>1934.3125980952</ele>
        <time>2018-09-22T12:17:17.989Z</time>
      </trkpt>
      <trkpt lat="46.22436" lon="10.44946">
        <ele>1933.6232869678</ele>
        <time>2018-09-22T12:17:24.990Z</time>
      </trkpt>
      <trkpt lat="46.22431" lon="10.44934">
        <ele>1932.7280407278</ele>
        <time>2018-09-22T12:17:33.998Z</time>
      </trkpt>
      <trkpt lat="46.22425" lon="10.44924">
        <ele>1931.9068992</ele>
        <time>2018-09-22T12:17:41.991Z</time>
      </trkpt>
      <trkpt lat="46.22419" lon="10.44913">
        <ele>1931.10739968</ele>
        <time>2018-09-22T12:17:49.986Z</time>
      </trkpt>
      <trkpt lat="46.22412" lon="10.44904">
        <ele>1930.40709888</ele>
        <time>2018-09-22T12:17:56.989Z</time>
      </trkpt>
      <trkpt lat="46.22409" lon="10.44891">
        <ele>1930</ele>
        <time>2018-09-22T12:18:03.999Z</time>
      </trkpt>
      <trkpt lat="46.22407" lon="10.44877">
        <ele>1929.4217517573</ele>
        <time>2018-09-22T12:18:14.001Z</time>
      </trkpt>
      <trkpt lat="46.224" lon="10.44869">
        <ele>1928.2163136246</ele>
        <time>2018-09-22T12:18:19.986Z</time>
      </trkpt>
      <trkpt lat="46.22393" lon="10.44859">
        <ele>1927.5056</ele>
        <time>2018-09-22T12:18:26.004Z</time>
      </trkpt>
      <trkpt lat="46.22387" lon="10.44848">
        <ele>1926.60699904</ele>
        <time>2018-09-22T12:18:34.990Z</time>
      </trkpt>
      <trkpt lat="46.22383" lon="10.44837">
        <ele>1925.90709888</ele>
        <time>2018-09-22T12:18:41.989Z</time>
      </trkpt>
      <trkpt lat="46.22381" lon="10.44823">
        <ele>1925.20729984</ele>
        <time>2018-09-22T12:18:48.987Z</time>
      </trkpt>
      <trkpt lat="46.22375" lon="10.44812">
        <ele>1923.8267050202</ele>
        <time>2018-09-22T12:18:56.991Z</time>
      </trkpt>
      <trkpt lat="46.22371" lon="10.44801">
        <ele>1922.6136495413</ele>
        <time>2018-09-22T12:19:04.991Z</time>
      </trkpt>
      <trkpt lat="46.22365" lon="10.44789">
        <ele>1921.70709888</ele>
        <time>2018-09-22T12:19:13.989Z</time>
      </trkpt>
      <trkpt lat="46.22358" lon="10.44779">
        <ele>1921.00579968</ele>
        <time>2018-09-22T12:19:21.002Z</time>
      </trkpt>
      <trkpt lat="46.2235" lon="10.44771">
        <ele>1920.3072</ele>
        <time>2018-09-22T12:19:27.988Z</time>
      </trkpt>
      <trkpt lat="46.22341" lon="10.44765">
        <ele>1918.8280628262</ele>
        <time>2018-09-22T12:19:36.990Z</time>
      </trkpt>
      <trkpt lat="46.22332" lon="10.44767">
        <ele>1917.1437255303</ele>
        <time>2018-09-22T12:19:44.000Z</time>
      </trkpt>
      <trkpt lat="46.22321" lon="10.4477">
        <ele>1914.5299968</ele>
        <time>2018-09-22T12:19:52.000Z</time>
      </trkpt>
      <trkpt lat="46.22312" lon="10.44762">
        <ele>1911.536</ele>
        <time>2018-09-22T12:19:57.988Z</time>
      </trkpt>
      <trkpt lat="46.22307" lon="10.44751">
        <ele>1909.20709888</ele>
        <time>2018-09-22T12:20:08.989Z</time>
      </trkpt>
      <trkpt lat="46.22299" lon="10.44745">
        <ele>1907.61399808</ele>
        <time>2018-09-22T12:20:17.990Z</time>
      </trkpt>
      <trkpt lat="46.22294" lon="10.44732">
        <ele>1906.2134907936</ele>
        <time>2018-09-22T12:20:28.988Z</time>
      </trkpt>
      <trkpt lat="46.22288" lon="10.44721">
        <ele>1905.0491184037</ele>
        <time>2018-09-22T12:20:35.999Z</time>
      </trkpt>
      <trkpt lat="46.22283" lon="10.4471">
        <ele>1902.5827906589</ele>
        <time>2018-09-22T12:20:45.999Z</time>
      </trkpt>
      <trkpt lat="46.22277" lon="10.447">
        <ele>1899.8619437888</ele>
        <time>2018-09-22T12:20:53.991Z</time>
      </trkpt>
      <trkpt lat="46.22272" lon="10.44688">
        <ele>1897.5856</ele>
        <time>2018-09-22T12:21:03.988Z</time>
      </trkpt>
      <trkpt lat="46.22264" lon="10.44679">
        <ele>1898.9085454406</ele>
        <time>2018-09-22T12:21:11.991Z</time>
      </trkpt>
      <trkpt lat="46.22254" lon="10.4467">
        <ele>1898.0235756237</ele>
        <time>2018-09-22T12:21:21.000Z</time>
      </trkpt>
      <trkpt lat="46.22245" lon="10.44666">
        <ele>1897.3128311611</ele>
        <time>2018-09-22T12:21:27.988Z</time>
      </trkpt>
      <trkpt lat="46.22236" lon="10.44658">
        <ele>1896.70699904</ele>
        <time>2018-09-22T12:21:33.990Z</time>
      </trkpt>
      <trkpt lat="46.22227" lon="10.44653">
        <ele>1895.61199872</ele>
        <time>2018-09-22T12:21:43.000Z</time>
      </trkpt>
      <trkpt lat="46.22216" lon="10.44652">
        <ele>1893.81419776</ele>
        <time>2018-09-22T12:21:51.989Z</time>
      </trkpt>
      <trkpt lat="46.22206" lon="10.44653">
        <ele>1892.21199872</ele>
        <time>2018-09-22T12:22:00.000Z</time>
      </trkpt>
      <trkpt lat="46.22194" lon="10.44653">
        <ele>1890.6271010478</ele>
        <time>2018-09-22T12:22:08.000Z</time>
      </trkpt>
      <trkpt lat="46.22184" lon="10.44652">
        <ele>1888.6188057816</ele>
        <time>2018-09-22T12:22:18.000Z</time>
      </trkpt>
      <trkpt lat="46.22173" lon="10.44657">
        <ele>1887.01199872</ele>
        <time>2018-09-22T12:22:26.000Z</time>
      </trkpt>
      <trkpt lat="46.22164" lon="10.44658">
        <ele>1886.21199872</ele>
        <time>2018-09-22T12:22:30.000Z</time>
      </trkpt>
      <trkpt lat="46.22154" lon="10.44656">
        <ele>1884.61259776</ele>
        <time>2018-09-22T12:22:37.997Z</time>
      </trkpt>
      <trkpt lat="46.22144" lon="10.44657">
        <ele>1882.8214273016</ele>
        <time>2018-09-22T12:22:47.000Z</time>
      </trkpt>
      <trkpt lat="46.22135" lon="10.44651">
        <ele>1881.1430299124</ele>
        <time>2018-09-22T12:22:53.988Z</time>
      </trkpt>
      <trkpt lat="46.22127" lon="10.44643">
        <ele>1879.3373111296</ele>
        <time>2018-09-22T12:22:59.989Z</time>
      </trkpt>
      <trkpt lat="46.2212" lon="10.44634">
        <ele>1879</ele>
        <time>2018-09-22T12:23:08.000Z</time>
      </trkpt>
      <trkpt lat="46.22116" lon="10.44622">
        <ele>1877.8215928847</ele>
        <time>2018-09-22T12:23:16.989Z</time>
      </trkpt>
      <trkpt lat="46.22112" lon="10.4461">
        <ele>1877</ele>
        <time>2018-09-22T12:23:24.991Z</time>
      </trkpt>
      <trkpt lat="46.22104" lon="10.44602">
        <ele>1878.3878016</ele>
        <time>2018-09-22T12:23:37.999Z</time>
      </trkpt>
      <trkpt lat="46.22097" lon="10.44594">
        <ele>1879</ele>
        <time>2018-09-22T12:23:44.988Z</time>
      </trkpt>
      <trkpt lat="46.22089" lon="10.44585">
        <ele>1877.8568774253</ele>
        <time>2018-09-22T12:23:54.988Z</time>
      </trkpt>
      <trkpt lat="46.22079" lon="10.44581">
        <ele>1875.30599936</ele>
        <time>2018-09-22T12:24:08.000Z</time>
      </trkpt>
      <trkpt lat="46.22068" lon="10.44573">
        <ele>1873.81199872</ele>
        <time>2018-09-22T12:24:17.000Z</time>
      </trkpt>
      <trkpt lat="46.22059" lon="10.44571">
        <ele>1873.3898710976</ele>
        <time>2018-09-22T12:24:24.986Z</time>
      </trkpt>
      <trkpt lat="46.22049" lon="10.44567">
        <ele>1874.7794570891</ele>
        <time>2018-09-22T12:24:35.000Z</time>
      </trkpt>
      <trkpt lat="46.22038" lon="10.44575">
        <ele>1876</ele>
        <time>2018-09-22T12:24:46.000Z</time>
      </trkpt>
      <trkpt lat="46.22029" lon="10.44582">
        <ele>1874.592</ele>
        <time>2018-09-22T12:24:58.100Z</time>
      </trkpt>
      <trkpt lat="46.2202" lon="10.44588">
        <ele>1873.4194235058</ele>
        <time>2018-09-22T12:25:03.989Z</time>
      </trkpt>
      <trkpt lat="46.22011" lon="10.4459">
        <ele>1871.8288595718</ele>
        <time>2018-09-22T12:25:11.998Z</time>
      </trkpt>
      <trkpt lat="46.22003" lon="10.44584">
        <ele>1870.2163473337</ele>
        <time>2018-09-22T12:25:19.988Z</time>
      </trkpt>
      <trkpt lat="46.21998" lon="10.44572">
        <ele>1870</ele>
        <time>2018-09-22T12:25:28.988Z</time>
      </trkpt>
      <trkpt lat="46.21989" lon="10.44568">
        <ele>1868.4151042627</ele>
        <time>2018-09-22T12:25:38.999Z</time>
      </trkpt>
      <trkpt lat="46.21978" lon="10.44567">
        <ele>1866.21799808</ele>
        <time>2018-09-22T12:25:47.000Z</time>
      </trkpt>
      <trkpt lat="46.21969" lon="10.44567">
        <ele>1861.5541190692</ele>
        <time>2018-09-22T12:25:58.000Z</time>
      </trkpt>
      <trkpt lat="46.2196" lon="10.4457">
        <ele>1858.817723043</ele>
        <time>2018-09-22T12:26:07.000Z</time>
      </trkpt>
      <trkpt lat="46.21951" lon="10.44576">
        <ele>1856.82399744</ele>
        <time>2018-09-22T12:26:14.000Z</time>
      </trkpt>
      <trkpt lat="46.21943" lon="10.4458">
        <ele>1850.0243968</ele>
        <time>2018-09-22T12:26:30.999Z</time>
      </trkpt>
      <trkpt lat="46.21933" lon="10.4458">
        <ele>1847.22399744</ele>
        <time>2018-09-22T12:26:38.000Z</time>
      </trkpt>
      <trkpt lat="46.21928" lon="10.44569">
        <ele>1843.62399744</ele>
        <time>2018-09-22T12:26:47.000Z</time>
      </trkpt>
      <trkpt lat="46.21922" lon="10.44557">
        <ele>1838.9207742628</ele>
        <time>2018-09-22T12:26:58.989Z</time>
      </trkpt>
      <trkpt lat="46.21918" lon="10.44545">
        <ele>1837.4255098775</ele>
        <time>2018-09-22T12:27:06.990Z</time>
      </trkpt>
      <trkpt lat="46.21914" lon="10.44532">
        <ele>1835.6349306923</ele>
        <time>2018-09-22T12:27:17.999Z</time>
      </trkpt>
      <trkpt lat="46.21904" lon="10.44526">
        <ele>1834.2259099283</ele>
        <time>2018-09-22T12:27:25.004Z</time>
      </trkpt>
      <trkpt lat="46.21895" lon="10.44526">
        <ele>1832.90599936</ele>
        <time>2018-09-22T12:27:32.000Z</time>
      </trkpt>
      <trkpt lat="46.21886" lon="10.4453">
        <ele>1830.0401558393</ele>
        <time>2018-09-22T12:27:45.989Z</time>
      </trkpt>
      <trkpt lat="46.21881" lon="10.44519">
        <ele>1822.4075471698</ele>
        <time>2018-09-22T12:28:01.000Z</time>
      </trkpt>
      <trkpt lat="46.21874" lon="10.44509">
        <ele>1813.42319872</ele>
        <time>2018-09-22T12:28:30.002Z</time>
      </trkpt>
      <trkpt lat="46.21865" lon="10.44507">
        <ele>1810.0595256297</ele>
        <time>2018-09-22T12:28:40.989Z</time>
      </trkpt>
      <trkpt lat="46.21855" lon="10.4451">
        <ele>1803.51799808</ele>
        <time>2018-09-22T12:28:56.000Z</time>
      </trkpt>
      <trkpt lat="46.21846" lon="10.44513">
        <ele>1797.21439744</ele>
        <time>2018-09-22T12:29:14.988Z</time>
      </trkpt>
      <trkpt lat="46.21837" lon="10.44507">
        <ele>1795</ele>
        <time>2018-09-22T12:29:38.988Z</time>
      </trkpt>
      <trkpt lat="46.21828" lon="10.44503">
        <ele>1791.5477605116</ele>
        <time>2018-09-22T12:29:47.999Z</time>
      </trkpt>
      <trkpt lat="46.2182" lon="10.44494">
        <ele>1785.8113591852</ele>
        <time>2018-09-22T12:30:03.003Z</time>
      </trkpt>
      <trkpt lat="46.21815" lon="10.44483">
        <ele>1784.8298669374</ele>
        <time>2018-09-22T12:30:13.029Z</time>
      </trkpt>
      <trkpt lat="46.21807" lon="10.44476">
        <ele>1783.7151669048</ele>
        <time>2018-09-22T12:30:23.987Z</time>
      </trkpt>
      <trkpt lat="46.21797" lon="10.44475">
        <ele>1781.826136823</ele>
        <time>2018-09-22T12:30:36.988Z</time>
      </trkpt>
      <trkpt lat="46.21789" lon="10.44467">
        <ele>1777.8597802559</ele>
        <time>2018-09-22T12:30:48.987Z</time>
      </trkpt>
      <trkpt lat="46.2178" lon="10.44464">
        <ele>1770.90739968</ele>
        <time>2018-09-22T12:31:01.986Z</time>
      </trkpt>
      <trkpt lat="46.21771" lon="10.44463">
        <ele>1769.41739904</ele>
        <time>2018-09-22T12:31:13.002Z</time>
      </trkpt>
      <trkpt lat="46.21762" lon="10.44456">
        <ele>1766.4131685303</ele>
        <time>2018-09-22T12:31:26.987Z</time>
      </trkpt>
      <trkpt lat="46.21765" lon="10.44444">
        <ele>1759.41709952</ele>
        <time>2018-09-22T12:31:53.003Z</time>
      </trkpt>
      <trkpt lat="46.21771" lon="10.44433">
        <ele>1755.41439744</ele>
        <time>2018-09-22T12:32:08.988Z</time>
      </trkpt>
      <trkpt lat="46.21778" lon="10.44425">
        <ele>1752.32129664</ele>
        <time>2018-09-22T12:32:19.989Z</time>
      </trkpt>
      <trkpt lat="46.2177" lon="10.44418">
        <ele>1744.8288</ele>
        <time>2018-09-22T12:32:43.988Z</time>
      </trkpt>
      <trkpt lat="46.2176" lon="10.44413">
        <ele>1741.41859712</ele>
        <time>2018-09-22T12:32:52.998Z</time>
      </trkpt>
      <trkpt lat="46.21751" lon="10.44409">
        <ele>1739.02129664</ele>
        <time>2018-09-22T12:33:00.989Z</time>
      </trkpt>
      <trkpt lat="46.21758" lon="10.444">
        <ele>1734.4167338113</ele>
        <time>2018-09-22T12:33:13.988Z</time>
      </trkpt>
      <trkpt lat="46.2175" lon="10.44392">
        <ele>1730.6353383265</ele>
        <time>2018-09-22T12:33:26.988Z</time>
      </trkpt>
      <trkpt lat="46.21755" lon="10.44381">
        <ele>1727.82159616</ele>
        <time>2018-09-22T12:33:34.988Z</time>
      </trkpt>
      <trkpt lat="46.21761" lon="10.44372">
        <ele>1724.42879488</ele>
        <time>2018-09-22T12:33:44.988Z</time>
      </trkpt>
      <trkpt lat="46.21764" lon="10.44359">
        <ele>1715.8396947651</ele>
        <time>2018-09-22T12:34:04.989Z</time>
      </trkpt>
      <trkpt lat="46.21757" lon="10.44351">
        <ele>1710.42839552</ele>
        <time>2018-09-22T12:34:19.989Z</time>
      </trkpt>
      <trkpt lat="46.21749" lon="10.44343">
        <ele>1707.3448956084</ele>
        <time>2018-09-22T12:34:29.990Z</time>
      </trkpt>
      <trkpt lat="46.21742" lon="10.44352">
        <ele>1707.58540032</ele>
        <time>2018-09-22T12:35:08.987Z</time>
      </trkpt>
      <trkpt lat="46.21747" lon="10.4434">
        <ele>1708</ele>
        <time>2018-09-22T12:35:28.987Z</time>
      </trkpt>
      <trkpt lat="46.21755" lon="10.44333">
        <ele>1704.2671204736</ele>
        <time>2018-09-22T12:36:22.988Z</time>
      </trkpt>
      <trkpt lat="46.21749" lon="10.44323">
        <ele>1699.0991096858</ele>
        <time>2018-09-22T12:36:40.988Z</time>
      </trkpt>
      <trkpt lat="46.21743" lon="10.44314">
        <ele>1698.30729984</ele>
        <time>2018-09-22T12:36:57.987Z</time>
      </trkpt>
      <trkpt lat="46.21742" lon="10.443">
        <ele>1697.7102613829</ele>
        <time>2018-09-22T12:37:14.000Z</time>
      </trkpt>
      <trkpt lat="46.21743" lon="10.44286">
        <ele>1695.21799808</ele>
        <time>2018-09-22T12:37:27.000Z</time>
      </trkpt>
      <trkpt lat="46.21749" lon="10.44276">
        <ele>1694</ele>
        <time>2018-09-22T12:37:36.000Z</time>
      </trkpt>
      <trkpt lat="46.21756" lon="10.44267">
        <ele>1693.6129355186</ele>
        <time>2018-09-22T12:37:45.000Z</time>
      </trkpt>
      <trkpt lat="46.21763" lon="10.44257">
        <ele>1691.5333323852</ele>
        <time>2018-09-22T12:37:56.000Z</time>
      </trkpt>
      <trkpt lat="46.21773" lon="10.44254">
        <ele>1689.41199872</ele>
        <time>2018-09-22T12:38:04.000Z</time>
      </trkpt>
      <trkpt lat="46.21782" lon="10.44249">
        <ele>1687.90599936</ele>
        <time>2018-09-22T12:38:12.000Z</time>
      </trkpt>
      <trkpt lat="46.21788" lon="10.44239">
        <ele>1686.61139968</ele>
        <time>2018-09-22T12:38:23.003Z</time>
      </trkpt>
      <trkpt lat="46.21795" lon="10.44229">
        <ele>1684.7216</ele>
        <time>2018-09-22T12:38:31.988Z</time>
      </trkpt>
      <trkpt lat="46.21799" lon="10.44217">
        <ele>1682.32189952</ele>
        <time>2018-09-22T12:38:39.987Z</time>
      </trkpt>
      <trkpt lat="46.21805" lon="10.44206">
        <ele>1681.30579968</ele>
        <time>2018-09-22T12:38:48.002Z</time>
      </trkpt>
      <trkpt lat="46.21808" lon="10.44193">
        <ele>1679.21459968</ele>
        <time>2018-09-22T12:38:59.987Z</time>
      </trkpt>
      <trkpt lat="46.21813" lon="10.44182">
        <ele>1679</ele>
        <time>2018-09-22T12:39:09.987Z</time>
      </trkpt>
      <trkpt lat="46.21823" lon="10.44178">
        <ele>1676.3216</ele>
        <time>2018-09-22T12:39:19.988Z</time>
      </trkpt>
      <trkpt lat="46.21829" lon="10.44167">
        <ele>1676.2361504502</ele>
        <time>2018-09-22T12:39:34.990Z</time>
      </trkpt>
      <trkpt lat="46.2183" lon="10.44154">
        <ele>1675.3113092063</ele>
        <time>2018-09-22T12:40:48.002Z</time>
      </trkpt>
      <trkpt lat="46.21835" lon="10.44143">
        <ele>1672.2338683871</ele>
        <time>2018-09-22T12:40:58.000Z</time>
      </trkpt>
      <trkpt lat="46.21843" lon="10.44136">
        <ele>1670.70699904</ele>
        <time>2018-09-22T12:41:03.990Z</time>
      </trkpt>
      <trkpt lat="46.21853" lon="10.44135">
        <ele>1670.1072</ele>
        <time>2018-09-22T12:41:09.988Z</time>
      </trkpt>
      <trkpt lat="46.21862" lon="10.44129">
        <ele>1668.22129664</ele>
        <time>2018-09-22T12:41:16.989Z</time>
      </trkpt>
      <trkpt lat="46.21871" lon="10.44123">
        <ele>1666.131157545</ele>
        <time>2018-09-22T12:41:23.988Z</time>
      </trkpt>
      <trkpt lat="46.21877" lon="10.44113">
        <ele>1664.3507426783</ele>
        <time>2018-09-22T12:41:29.988Z</time>
      </trkpt>
      <trkpt lat="46.21885" lon="10.44103">
        <ele>1662.2354903088</ele>
        <time>2018-09-22T12:41:36.987Z</time>
      </trkpt>
      <trkpt lat="46.21893" lon="10.44096">
        <ele>1660.41459968</ele>
        <time>2018-09-22T12:41:43.987Z</time>
      </trkpt>
      <trkpt lat="46.21901" lon="10.44088">
        <ele>1658.7251730146</ele>
        <time>2018-09-22T12:41:51.988Z</time>
      </trkpt>
      <trkpt lat="46.21905" lon="10.44075">
        <ele>1655.8378924462</ele>
        <time>2018-09-22T12:42:01.990Z</time>
      </trkpt>
      <trkpt lat="46.21905" lon="10.4406">
        <ele>1654.2174264324</ele>
        <time>2018-09-22T12:42:09.987Z</time>
      </trkpt>
      <trkpt lat="46.21902" lon="10.44047">
        <ele>1654</ele>
        <time>2018-09-22T12:42:18.002Z</time>
      </trkpt>
      <trkpt lat="46.21893" lon="10.44045">
        <ele>1656.1826847149</ele>
        <time>2018-09-22T12:42:41.988Z</time>
      </trkpt>
      <trkpt lat="46.21884" lon="10.44049">
        <ele>1658.6924546913</ele>
        <time>2018-09-22T12:42:58.003Z</time>
      </trkpt>
      <trkpt lat="46.21876" lon="10.44057">
        <ele>1659</ele>
        <time>2018-09-22T12:43:09.989Z</time>
      </trkpt>
      <trkpt lat="46.21869" lon="10.44065">
        <ele>1661.5821069855</ele>
        <time>2018-09-22T12:43:23.988Z</time>
      </trkpt>
      <trkpt lat="46.21862" lon="10.44074">
        <ele>1663.4898398325</ele>
        <time>2018-09-22T12:43:35.989Z</time>
      </trkpt>
      <trkpt lat="46.21854" lon="10.44081">
        <ele>1665.58560256</ele>
        <time>2018-09-22T12:43:48.988Z</time>
      </trkpt>
      <trkpt lat="46.21849" lon="10.44092">
        <ele>1668.49300096</ele>
        <time>2018-09-22T12:44:05.990Z</time>
      </trkpt>
      <trkpt lat="46.21841" lon="10.44098">
        <ele>1669.7880723416</ele>
        <time>2018-09-22T12:44:18.988Z</time>
      </trkpt>
      <trkpt lat="46.21832" lon="10.44103">
        <ele>1671.39280128</ele>
        <time>2018-09-22T12:44:34.988Z</time>
      </trkpt>
      <trkpt lat="46.21822" lon="10.44102">
        <ele>1672.6931071874</ele>
        <time>2018-09-22T12:44:47.998Z</time>
      </trkpt>
      <trkpt lat="46.21813" lon="10.44102">
        <ele>1673</ele>
        <time>2018-09-22T12:44:59.988Z</time>
      </trkpt>
      <trkpt lat="46.21804" lon="10.44099">
        <ele>1674.78580224</ele>
        <time>2018-09-22T12:45:09.989Z</time>
      </trkpt>
      <trkpt lat="46.21794" lon="10.44096">
        <ele>1675.9639810709</ele>
        <time>2018-09-22T12:45:20.989Z</time>
      </trkpt>
      <trkpt lat="46.21785" lon="10.44097">
        <ele>1676.3854884228</ele>
        <time>2018-09-22T12:45:32.999Z</time>
      </trkpt>
      <trkpt lat="46.21776" lon="10.44101">
        <ele>1678.389236146</ele>
        <time>2018-09-22T12:45:44.989Z</time>
      </trkpt>
      <trkpt lat="46.21767" lon="10.44102">
        <ele>1684</ele>
        <time>2018-09-22T12:46:03.989Z</time>
      </trkpt>
      <trkpt lat="46.21757" lon="10.44101">
        <ele>1684.39290112</ele>
        <time>2018-09-22T12:46:14.989Z</time>
      </trkpt>
      <trkpt lat="46.21749" lon="10.44097">
        <ele>1687.1841269841</ele>
        <time>2018-09-22T12:46:31.988Z</time>
      </trkpt>
      <trkpt lat="46.21739" lon="10.44096">
        <ele>1689</ele>
        <time>2018-09-22T12:46:48.003Z</time>
      </trkpt>
      <trkpt lat="46.21731" lon="10.44089">
        <ele>1692.78580224</ele>
        <time>2018-09-22T12:47:04.989Z</time>
      </trkpt>
      <trkpt lat="46.21721" lon="10.4409">
        <ele>1693.1693244022</ele>
        <time>2018-09-22T12:47:21.989Z</time>
      </trkpt>
      <trkpt lat="46.21717" lon="10.44103">
        <ele>1697.29400064</ele>
        <time>2018-09-22T12:47:44.000Z</time>
      </trkpt>
      <trkpt lat="46.21709" lon="10.44109">
        <ele>1698.6939008</ele>
        <time>2018-09-22T12:47:57.999Z</time>
      </trkpt>
      <trkpt lat="46.21699" lon="10.44112">
        <ele>1699.963884139</ele>
        <time>2018-09-22T12:48:10.988Z</time>
      </trkpt>
      <trkpt lat="46.2169" lon="10.44112">
        <ele>1702</ele>
        <time>2018-09-22T12:48:22.989Z</time>
      </trkpt>
      <trkpt lat="46.21681" lon="10.44114">
        <ele>1703.78580224</ele>
        <time>2018-09-22T12:48:39.989Z</time>
      </trkpt>
      <trkpt lat="46.21673" lon="10.44106">
        <ele>1707.9447607179</ele>
        <time>2018-09-22T12:49:00.988Z</time>
      </trkpt>
      <trkpt lat="46.21664" lon="10.441">
        <ele>1708.7389010256</ele>
        <time>2018-09-22T12:49:14.988Z</time>
      </trkpt>
      <trkpt lat="46.21656" lon="10.44095">
        <ele>1711.3781368462</ele>
        <time>2018-09-22T12:49:27.988Z</time>
      </trkpt>
      <trkpt lat="46.21647" lon="10.4409">
        <ele>1714.39290112</ele>
        <time>2018-09-22T12:49:44.989Z</time>
      </trkpt>
      <trkpt lat="46.2164" lon="10.44081">
        <ele>1717</ele>
        <time>2018-09-22T12:50:04.001Z</time>
      </trkpt>
      <trkpt lat="46.21633" lon="10.44071">
        <ele>1719.0856438411</ele>
        <time>2018-09-22T12:50:21.989Z</time>
      </trkpt>
      <trkpt lat="46.21625" lon="10.44066">
        <ele>1720.9755571559</ele>
        <time>2018-09-22T12:50:35.989Z</time>
      </trkpt>
      <trkpt lat="46.21619" lon="10.44056">
        <ele>1723.1856</ele>
        <time>2018-09-22T12:50:51.988Z</time>
      </trkpt>
      <trkpt lat="46.21618" lon="10.44043">
        <ele>1725.6928</ele>
        <time>2018-09-22T12:51:07.988Z</time>
      </trkpt>
      <trkpt lat="46.21616" lon="10.4403">
        <ele>1728.2889230337</ele>
        <time>2018-09-22T12:51:23.999Z</time>
      </trkpt>
      <trkpt lat="46.21609" lon="10.44021">
        <ele>1729.5878016</ele>
        <time>2018-09-22T12:51:33.999Z</time>
      </trkpt>
      <trkpt lat="46.21601" lon="10.44017">
        <ele>1732.38580224</ele>
        <time>2018-09-22T12:51:47.989Z</time>
      </trkpt>
      <trkpt lat="46.21605" lon="10.44004">
        <ele>1733</ele>
        <time>2018-09-22T12:52:00.986Z</time>
      </trkpt>
      <trkpt lat="46.21612" lon="10.43996">
        <ele>1736.746751454</ele>
        <time>2018-09-22T12:52:24.988Z</time>
      </trkpt>
      <trkpt lat="46.21618" lon="10.43986">
        <ele>1740.58720256</ele>
        <time>2018-09-22T12:52:43.996Z</time>
      </trkpt>
      <trkpt lat="46.21627" lon="10.43977">
        <ele>1744.5743428359</ele>
        <time>2018-09-22T12:53:04.003Z</time>
      </trkpt>
      <trkpt lat="46.21631" lon="10.43966">
        <ele>1747.58860032</ele>
        <time>2018-09-22T12:53:24.003Z</time>
      </trkpt>
      <trkpt lat="46.21633" lon="10.43953">
        <ele>1749.4874747394</ele>
        <time>2018-09-22T12:53:45.986Z</time>
      </trkpt>
      <trkpt lat="46.21635" lon="10.43939">
        <ele>1754.5755961905</ele>
        <time>2018-09-22T12:54:09.001Z</time>
      </trkpt>
      <trkpt lat="46.21627" lon="10.43931">
        <ele>1758.3827403175</ele>
        <time>2018-09-22T12:54:32.989Z</time>
      </trkpt>
      <trkpt lat="46.21623" lon="10.43919">
        <ele>1762.78580224</ele>
        <time>2018-09-22T12:54:54.989Z</time>
      </trkpt>
      <trkpt lat="46.21626" lon="10.43907">
        <ele>1766.57090217</ele>
        <time>2018-09-22T12:55:24.003Z</time>
      </trkpt>
      <trkpt lat="46.2163" lon="10.43894">
        <ele>1772.7851702029</ele>
        <time>2018-09-22T12:55:49.988Z</time>
      </trkpt>
      <trkpt lat="46.21638" lon="10.43884">
        <ele>1777.2900399453</ele>
        <time>2018-09-22T12:56:14.003Z</time>
      </trkpt>
      <trkpt lat="46.21647" lon="10.43883">
        <ele>1779.18760192</ele>
        <time>2018-09-22T12:56:26.998Z</time>
      </trkpt>
      <trkpt lat="46.21657" lon="10.43882">
        <ele>1781.18760192</ele>
        <time>2018-09-22T12:56:36.998Z</time>
      </trkpt>
      <trkpt lat="46.21667" lon="10.43886">
        <ele>1784.5894848419</ele>
        <time>2018-09-22T12:56:57.000Z</time>
      </trkpt>
      <trkpt lat="46.21676" lon="10.43889">
        <ele>1787.1661929279</ele>
        <time>2018-09-22T12:57:12.001Z</time>
      </trkpt>
      <trkpt lat="46.21669" lon="10.43879">
        <ele>1793.3921928894</ele>
        <time>2018-09-22T12:57:54.988Z</time>
      </trkpt>
      <trkpt lat="46.21669" lon="10.43865">
        <ele>1794.9324578267</ele>
        <time>2018-09-22T12:58:11.000Z</time>
      </trkpt>
      <trkpt lat="46.21679" lon="10.4386">
        <ele>1798.37134372</ele>
        <time>2018-09-22T12:58:27.999Z</time>
      </trkpt>
      <trkpt lat="46.21686" lon="10.43868">
        <ele>1797.8109655121</ele>
        <time>2018-09-22T12:59:22.999Z</time>
      </trkpt>
      <trkpt lat="46.2168" lon="10.43858">
        <ele>1797.1856</ele>
        <time>2018-09-22T13:00:01.988Z</time>
      </trkpt>
      <trkpt lat="46.21682" lon="10.43845">
        <ele>1803.1870657716</ele>
        <time>2018-09-22T13:01:22.000Z</time>
      </trkpt>
      <trkpt lat="46.21689" lon="10.43835">
        <ele>1805.3908544877</ele>
        <time>2018-09-22T13:01:34.999Z</time>
      </trkpt>
      <trkpt lat="46.21693" lon="10.43823">
        <ele>1806.86870745</ele>
        <time>2018-09-22T13:01:49.999Z</time>
      </trkpt>
      <trkpt lat="46.21696" lon="10.4381">
        <ele>1812.19400064</ele>
        <time>2018-09-22T13:02:13.000Z</time>
      </trkpt>
      <trkpt lat="46.21704" lon="10.43802">
        <ele>1813.9830849117</ele>
        <time>2018-09-22T13:02:26.000Z</time>
      </trkpt>
      <trkpt lat="46.21709" lon="10.43791">
        <ele>1815.389950125</ele>
        <time>2018-09-22T13:02:34.990Z</time>
      </trkpt>
      <trkpt lat="46.21716" lon="10.43782">
        <ele>1816</ele>
        <time>2018-09-22T13:02:42.991Z</time>
      </trkpt>
      <trkpt lat="46.21723" lon="10.43773">
        <ele>1816.18600192</ele>
        <time>2018-09-22T13:02:51.990Z</time>
      </trkpt>
      <trkpt lat="46.21733" lon="10.43773">
        <ele>1819.38800128</ele>
        <time>2018-09-22T13:03:08.000Z</time>
      </trkpt>
      <trkpt lat="46.21741" lon="10.43768">
        <ele>1820.6931008</ele>
        <time>2018-09-22T13:03:17.991Z</time>
      </trkpt>
      <trkpt lat="46.21749" lon="10.4376">
        <ele>1823.78800128</ele>
        <time>2018-09-22T13:03:35.000Z</time>
      </trkpt>
      <trkpt lat="46.21758" lon="10.43757">
        <ele>1826.1658254126</ele>
        <time>2018-09-22T13:03:51.990Z</time>
      </trkpt>
      <trkpt lat="46.21764" lon="10.43747">
        <ele>1830.38600192</ele>
        <time>2018-09-22T13:04:12.990Z</time>
      </trkpt>
      <trkpt lat="46.21767" lon="10.43735">
        <ele>1832</ele>
        <time>2018-09-22T13:04:22.989Z</time>
      </trkpt>
      <trkpt lat="46.21772" lon="10.43723">
        <ele>1832.19300096</ele>
        <time>2018-09-22T13:04:32.990Z</time>
      </trkpt>
      <trkpt lat="46.21774" lon="10.4371">
        <ele>1833.6895525354</ele>
        <time>2018-09-22T13:04:47.990Z</time>
      </trkpt>
      <trkpt lat="46.21778" lon="10.43698">
        <ele>1836.8222883488</ele>
        <time>2018-09-22T13:05:00.988Z</time>
      </trkpt>
      <trkpt lat="46.21788" lon="10.43695">
        <ele>1837.4928</ele>
        <time>2018-09-22T13:05:15.988Z</time>
      </trkpt>
      <trkpt lat="46.21794" lon="10.43685">
        <ele>1842</ele>
        <time>2018-09-22T13:05:42.990Z</time>
      </trkpt>
      <trkpt lat="46.21794" lon="10.43671">
        <ele>1842</ele>
        <time>2018-09-22T13:05:50.990Z</time>
      </trkpt>
      <trkpt lat="46.21798" lon="10.43659">
        <ele>1843.18600192</ele>
        <time>2018-09-22T13:06:01.990Z</time>
      </trkpt>
      <trkpt lat="46.21803" lon="10.43647">
        <ele>1845.6847826912</ele>
        <time>2018-09-22T13:06:17.990Z</time>
      </trkpt>
      <trkpt lat="46.21811" lon="10.4364">
        <ele>1847.3783415428</ele>
        <time>2018-09-22T13:06:27.989Z</time>
      </trkpt>
      <trkpt lat="46.21819" lon="10.4363">
        <ele>1848.0939008</ele>
        <time>2018-09-22T13:06:41.999Z</time>
      </trkpt>
      <trkpt lat="46.21826" lon="10.43622">
        <ele>1849</ele>
        <time>2018-09-22T13:06:56.998Z</time>
      </trkpt>
      <trkpt lat="46.21835" lon="10.43615">
        <ele>1849.6928</ele>
        <time>2018-09-22T13:07:07.988Z</time>
      </trkpt>
      <trkpt lat="46.2184" lon="10.43604">
        <ele>1850</ele>
        <time>2018-09-22T13:07:16.998Z</time>
      </trkpt>
      <trkpt lat="46.21843" lon="10.43591">
        <ele>1849.40599936</ele>
        <time>2018-09-22T13:07:27.000Z</time>
      </trkpt>
      <trkpt lat="46.2185" lon="10.43581">
        <ele>1849.59300096</ele>
        <time>2018-09-22T13:07:36.990Z</time>
      </trkpt>
      <trkpt lat="46.21861" lon="10.4358">
        <ele>1850.3939008</ele>
        <time>2018-09-22T13:07:44.999Z</time>
      </trkpt>
      <trkpt lat="46.21869" lon="10.43576">
        <ele>1850.30599936</ele>
        <time>2018-09-22T13:07:58.000Z</time>
      </trkpt>
      <trkpt lat="46.21877" lon="10.43569">
        <ele>1850.5734049836</ele>
        <time>2018-09-22T13:08:06.989Z</time>
      </trkpt>
      <trkpt lat="46.21886" lon="10.43564">
        <ele>1853.6928</ele>
        <time>2018-09-22T13:08:27.988Z</time>
      </trkpt>
      <trkpt lat="46.21896" lon="10.43568">
        <ele>1857.7746017216</ele>
        <time>2018-09-22T13:08:46.999Z</time>
      </trkpt>
      <trkpt lat="46.21903" lon="10.4356">
        <ele>1861.5871753665</ele>
        <time>2018-09-22T13:09:09.000Z</time>
      </trkpt>
      <trkpt lat="46.2191" lon="10.4355">
        <ele>1868.78600192</ele>
        <time>2018-09-22T13:09:44.990Z</time>
      </trkpt>
      <trkpt lat="46.21918" lon="10.43544">
        <ele>1867.0799998996</ele>
        <time>2018-09-22T13:10:00.988Z</time>
      </trkpt>
      <trkpt lat="46.21925" lon="10.43536">
        <ele>1864.6697548387</ele>
        <time>2018-09-22T13:10:11.989Z</time>
      </trkpt>
      <trkpt lat="46.21935" lon="10.43534">
        <ele>1861.8427406452</ele>
        <time>2018-09-22T13:10:19.000Z</time>
      </trkpt>
      <trkpt lat="46.21944" lon="10.4353">
        <ele>1860.2156460471</ele>
        <time>2018-09-22T13:10:25.000Z</time>
      </trkpt>
      <trkpt lat="46.21951" lon="10.43522">
        <ele>1859.29300096</ele>
        <time>2018-09-22T13:10:33.990Z</time>
      </trkpt>
      <trkpt lat="46.21957" lon="10.43512">
        <ele>1861.18600192</ele>
        <time>2018-09-22T13:10:51.990Z</time>
      </trkpt>
      <trkpt lat="46.21964" lon="10.43502">
        <ele>1863.49400064</ele>
        <time>2018-09-22T13:11:06.000Z</time>
      </trkpt>
      <trkpt lat="46.21969" lon="10.43492">
        <ele>1864.7859268637</ele>
        <time>2018-09-22T13:11:18.990Z</time>
      </trkpt>
      <trkpt lat="46.21978" lon="10.43486">
        <ele>1867.27900288</ele>
        <time>2018-09-22T13:11:31.990Z</time>
      </trkpt>
      <trkpt lat="46.21984" lon="10.43475">
        <ele>1872.9788535682</ele>
        <time>2018-09-22T13:12:05.990Z</time>
      </trkpt>
      <trkpt lat="46.21978" lon="10.43464">
        <ele>1875.7872</ele>
        <time>2018-09-22T13:12:24.996Z</time>
      </trkpt>
      <trkpt lat="46.21977" lon="10.43452">
        <ele>1879.7890457764</ele>
        <time>2018-09-22T13:12:48.991Z</time>
      </trkpt>
      <trkpt lat="46.21974" lon="10.43439">
        <ele>1884.38600192</ele>
        <time>2018-09-22T13:13:12.990Z</time>
      </trkpt>
      <trkpt lat="46.2198" lon="10.43429">
        <ele>1886.78800128</ele>
        <time>2018-09-22T13:13:25.000Z</time>
      </trkpt>
      <trkpt lat="46.21988" lon="10.43423">
        <ele>1888.8895520259</ele>
        <time>2018-09-22T13:13:40.000Z</time>
      </trkpt>
      <trkpt lat="46.21997" lon="10.43428">
        <ele>1890.89400064</ele>
        <time>2018-09-22T13:14:00.000Z</time>
      </trkpt>
      <trkpt lat="46.21998" lon="10.43415">
        <ele>1896</ele>
        <time>2018-09-22T13:14:33.991Z</time>
      </trkpt>
      <trkpt lat="46.22007" lon="10.43409">
        <ele>1899.09290112</ele>
        <time>2018-09-22T13:16:41.989Z</time>
      </trkpt>
      <trkpt lat="46.22014" lon="10.434">
        <ele>1901.4784</ele>
        <time>2018-09-22T13:16:55.988Z</time>
      </trkpt>
      <trkpt lat="46.22009" lon="10.43388">
        <ele>1906</ele>
        <time>2018-09-22T13:17:11.986Z</time>
      </trkpt>
      <trkpt lat="46.22" lon="10.43384">
        <ele>1907.18560256</ele>
        <time>2018-09-22T13:17:26.988Z</time>
      </trkpt>
      <trkpt lat="46.22007" lon="10.43375">
        <ele>1914.9862016</ele>
        <time>2018-09-22T13:18:05.991Z</time>
      </trkpt>
      <trkpt lat="46.22006" lon="10.43362">
        <ele>1917.9798805504</ele>
        <time>2018-09-22T13:19:05.990Z</time>
      </trkpt>
      <trkpt lat="46.22001" lon="10.43351">
        <ele>1922.7561709715</ele>
        <time>2018-09-22T13:19:26.990Z</time>
      </trkpt>
      <trkpt lat="46.21991" lon="10.43349">
        <ele>1930.18800128</ele>
        <time>2018-09-22T13:19:57.000Z</time>
      </trkpt>
      <trkpt lat="46.21986" lon="10.43338">
        <ele>1934.18580224</ele>
        <time>2018-09-22T13:20:21.989Z</time>
      </trkpt>
      <trkpt lat="46.2199" lon="10.43326">
        <ele>1939</ele>
        <time>2018-09-22T13:20:50.990Z</time>
      </trkpt>
      <trkpt lat="46.21995" lon="10.43313">
        <ele>1942.1759121307</ele>
        <time>2018-09-22T13:21:06.989Z</time>
      </trkpt>
      <trkpt lat="46.22004" lon="10.43305">
        <ele>1945</ele>
        <time>2018-09-22T13:21:21.990Z</time>
      </trkpt>
      <trkpt lat="46.22012" lon="10.433">
        <ele>1945.7807238949</ele>
        <time>2018-09-22T13:21:34.988Z</time>
      </trkpt>
      <trkpt lat="46.2202" lon="10.43293">
        <ele>1949.27900288</ele>
        <time>2018-09-22T13:21:51.990Z</time>
      </trkpt>
      <trkpt lat="46.22029" lon="10.43297">
        <ele>1953</ele>
        <time>2018-09-22T13:22:15.000Z</time>
      </trkpt>
      <trkpt lat="46.22033" lon="10.43285">
        <ele>1959.7420721951</ele>
        <time>2018-09-22T13:24:04.991Z</time>
      </trkpt>
      <trkpt lat="46.22026" lon="10.43275">
        <ele>1962.98600192</ele>
        <time>2018-09-22T13:24:25.990Z</time>
      </trkpt>
      <trkpt lat="46.22023" lon="10.43263">
        <ele>1966.7713722601</ele>
        <time>2018-09-22T13:24:44.990Z</time>
      </trkpt>
      <trkpt lat="46.22032" lon="10.43261">
        <ele>1968.2848330952</ele>
        <time>2018-09-22T13:24:53.987Z</time>
      </trkpt>
      <trkpt lat="46.22041" lon="10.4326">
        <ele>1969.39290112</ele>
        <time>2018-09-22T13:25:04.989Z</time>
      </trkpt>
      <trkpt lat="46.22049" lon="10.43253">
        <ele>1971.1765892063</ele>
        <time>2018-09-22T13:25:16.990Z</time>
      </trkpt>
      <trkpt lat="46.22047" lon="10.43239">
        <ele>1975.17900288</ele>
        <time>2018-09-22T13:25:34.990Z</time>
      </trkpt>
      <trkpt lat="46.22046" lon="10.43225">
        <ele>1980.1713748413</ele>
        <time>2018-09-22T13:25:54.988Z</time>
      </trkpt>
      <trkpt lat="46.22045" lon="10.43212">
        <ele>1984</ele>
        <time>2018-09-22T13:26:13.991Z</time>
      </trkpt>
      <trkpt lat="46.22048" lon="10.43199">
        <ele>1985</ele>
        <time>2018-09-22T13:27:22.999Z</time>
      </trkpt>
      <trkpt lat="46.2205" lon="10.43185">
        <ele>1985.0931008</ele>
        <time>2018-09-22T13:27:31.991Z</time>
      </trkpt>
      <trkpt lat="46.22053" lon="10.43172">
        <ele>1987.7716292064</ele>
        <time>2018-09-22T13:27:49.989Z</time>
      </trkpt>
      <trkpt lat="46.22059" lon="10.43161">
        <ele>1991.5828872442</ele>
        <time>2018-09-22T13:28:03.989Z</time>
      </trkpt>
      <trkpt lat="46.22057" lon="10.43147">
        <ele>1993.9811061526</ele>
        <time>2018-09-22T13:28:15.991Z</time>
      </trkpt>
      <trkpt lat="46.22061" lon="10.43135">
        <ele>1996.1877019355</ele>
        <time>2018-09-22T13:28:33.002Z</time>
      </trkpt>
      <trkpt lat="46.22063" lon="10.43121">
        <ele>1996.992843871</ele>
        <time>2018-09-22T13:28:40.989Z</time>
      </trkpt>
      <trkpt lat="46.2207" lon="10.43112">
        <ele>1997.89270016</ele>
        <time>2018-09-22T13:28:49.987Z</time>
      </trkpt>
      <trkpt lat="46.22077" lon="10.43101">
        <ele>1998</ele>
        <time>2018-09-22T13:28:58.001Z</time>
      </trkpt>
      <trkpt lat="46.2208" lon="10.43088">
        <ele>1998</ele>
        <time>2018-09-22T13:29:05.989Z</time>
      </trkpt>
      <trkpt lat="46.22082" lon="10.43073">
        <ele>1998.49290112</ele>
        <time>2018-09-22T13:29:15.989Z</time>
      </trkpt>
      <trkpt lat="46.22085" lon="10.4306">
        <ele>1999</ele>
        <time>2018-09-22T13:29:23.991Z</time>
      </trkpt>
      <trkpt lat="46.22086" lon="10.43047">
        <ele>1999</ele>
        <time>2018-09-22T13:29:29.987Z</time>
      </trkpt>
      <trkpt lat="46.22091" lon="10.43035">
        <ele>1999.6939008</ele>
        <time>2018-09-22T13:29:37.999Z</time>
      </trkpt>
      <trkpt lat="46.22096" lon="10.43024">
        <ele>2000.49290112</ele>
        <time>2018-09-22T13:29:45.989Z</time>
      </trkpt>
      <trkpt lat="46.22091" lon="10.43011">
        <ele>2000.2276267983</ele>
        <time>2018-09-22T13:30:19.000Z</time>
      </trkpt>
      <trkpt lat="46.22091" lon="10.42997">
        <ele>1999.0528468293</ele>
        <time>2018-09-22T13:30:26.000Z</time>
      </trkpt>
      <trkpt lat="46.22087" lon="10.42984">
        <ele>1998</ele>
        <time>2018-09-22T13:30:33.000Z</time>
      </trkpt>
      <trkpt lat="46.22082" lon="10.42973">
        <ele>1998</ele>
        <time>2018-09-22T13:30:40.000Z</time>
      </trkpt>
      <trkpt lat="46.22074" lon="10.42965">
        <ele>1997.50700032</ele>
        <time>2018-09-22T13:30:46.000Z</time>
      </trkpt>
      <trkpt lat="46.22068" lon="10.42954">
        <ele>1996.8068069415</ele>
        <time>2018-09-22T13:30:53.000Z</time>
      </trkpt>
      <trkpt lat="46.22066" lon="10.42941">
        <ele>1996.1061055674</ele>
        <time>2018-09-22T13:31:00.000Z</time>
      </trkpt>
      <trkpt lat="46.22061" lon="10.42928">
        <ele>1997.38800128</ele>
        <time>2018-09-22T13:31:08.000Z</time>
      </trkpt>
      <trkpt lat="46.22058" lon="10.42915">
        <ele>1998.59270016</ele>
        <time>2018-09-22T13:31:16.987Z</time>
      </trkpt>
      <trkpt lat="46.22058" lon="10.42901">
        <ele>1999.5888378561</ele>
        <time>2018-09-22T13:31:26.989Z</time>
      </trkpt>
      <trkpt lat="46.22057" lon="10.42888">
        <ele>2000.5709715653</ele>
        <time>2018-09-22T13:31:33.987Z</time>
      </trkpt>
      <trkpt lat="46.22056" lon="10.42874">
        <ele>2002.0855944211</ele>
        <time>2018-09-22T13:31:41.989Z</time>
      </trkpt>
      <trkpt lat="46.22057" lon="10.4286">
        <ele>2003.2928</ele>
        <time>2018-09-22T13:31:53.987Z</time>
      </trkpt>
      <trkpt lat="46.22055" lon="10.42847">
        <ele>2005.77900288</ele>
        <time>2018-09-22T13:32:06.989Z</time>
      </trkpt>
      <trkpt lat="46.22056" lon="10.42834">
        <ele>2008.7751725156</ele>
        <time>2018-09-22T13:32:19.989Z</time>
      </trkpt>
      <trkpt lat="46.22051" lon="10.42822">
        <ele>2011.7862016</ele>
        <time>2018-09-22T13:32:34.990Z</time>
      </trkpt>
      <trkpt lat="46.22048" lon="10.42809">
        <ele>2014.5770585583</ele>
        <time>2018-09-22T13:32:53.989Z</time>
      </trkpt>
      <trkpt lat="46.22044" lon="10.42796">
        <ele>2019.78600192</ele>
        <time>2018-09-22T13:33:19.989Z</time>
      </trkpt>
      <trkpt lat="46.22035" lon="10.42793">
        <ele>2024.78600192</ele>
        <time>2018-09-22T13:33:44.989Z</time>
      </trkpt>
      <trkpt lat="46.22033" lon="10.4278">
        <ele>2028.9830524481</ele>
        <time>2018-09-22T13:34:05.989Z</time>
      </trkpt>
      <trkpt lat="46.22035" lon="10.42767">
        <ele>2032.2915140054</ele>
        <time>2018-09-22T13:34:23.989Z</time>
      </trkpt>
      <trkpt lat="46.22032" lon="10.42754">
        <ele>2034.1812239069</ele>
        <time>2018-09-22T13:34:36.986Z</time>
      </trkpt>
      <trkpt lat="46.2203" lon="10.42741">
        <ele>2036.78600192</ele>
        <time>2018-09-22T13:34:49.989Z</time>
      </trkpt>
      <trkpt lat="46.2203" lon="10.42728">
        <ele>2038.69400064</ele>
        <time>2018-09-22T13:35:07.999Z</time>
      </trkpt>
      <trkpt lat="46.22037" lon="10.42718">
        <ele>2039</ele>
        <time>2018-09-22T13:35:16.989Z</time>
      </trkpt>
      <trkpt lat="46.22036" lon="10.42705">
        <ele>2039</ele>
        <time>2018-09-22T13:35:24.989Z</time>
      </trkpt>
      <trkpt lat="46.22038" lon="10.42692">
        <ele>2039</ele>
        <time>2018-09-22T13:35:33.989Z</time>
      </trkpt>
      <trkpt lat="46.22041" lon="10.42678">
        <ele>2038.908911976</ele>
        <time>2018-09-22T13:35:41.989Z</time>
      </trkpt>
      <trkpt lat="46.22046" lon="10.42667">
        <ele>2038.0274240682</ele>
        <time>2018-09-22T13:35:50.989Z</time>
      </trkpt>
      <trkpt lat="46.2205" lon="10.42654">
        <ele>2036.4228789438</ele>
        <time>2018-09-22T13:35:58.989Z</time>
      </trkpt>
      <trkpt lat="46.22054" lon="10.42642">
        <ele>2036.98600192</ele>
        <time>2018-09-22T13:36:05.989Z</time>
      </trkpt>
      <trkpt lat="46.22059" lon="10.42629">
        <ele>2037.7081957642</ele>
        <time>2018-09-22T13:36:13.989Z</time>
      </trkpt>
      <trkpt lat="46.22062" lon="10.42616">
        <ele>2037.0110548228</ele>
        <time>2018-09-22T13:36:20.989Z</time>
      </trkpt>
      <trkpt lat="46.22066" lon="10.42604">
        <ele>2036.3080243316</ele>
        <time>2018-09-22T13:36:27.999Z</time>
      </trkpt>
      <trkpt lat="46.22073" lon="10.42595">
        <ele>2036.59300096</ele>
        <time>2018-09-22T13:36:56.989Z</time>
      </trkpt>
      <trkpt lat="46.22072" lon="10.42582">
        <ele>2038.49300096</ele>
        <time>2018-09-22T13:38:35.989Z</time>
      </trkpt>
      <trkpt lat="46.22069" lon="10.42569">
        <ele>2039.5895045393</ele>
        <time>2018-09-22T13:38:46.990Z</time>
      </trkpt>
      <trkpt lat="46.22066" lon="10.42556">
        <ele>2043.17870336</ele>
        <time>2018-09-22T13:39:04.988Z</time>
      </trkpt>
      <trkpt lat="46.22061" lon="10.42545">
        <ele>2046.18540032</ele>
        <time>2018-09-22T13:39:21.986Z</time>
      </trkpt>
      <trkpt lat="46.22054" lon="10.42536">
        <ele>2048.7862016</ele>
        <time>2018-09-22T13:39:34.990Z</time>
      </trkpt>
      <trkpt lat="46.22045" lon="10.42538">
        <ele>2053.18600192</ele>
        <time>2018-09-22T13:40:01.989Z</time>
      </trkpt>
      <trkpt lat="46.22041" lon="10.4255">
        <ele>2056.9259062476</ele>
        <time>2018-09-22T13:40:20.988Z</time>
      </trkpt>
      <trkpt lat="46.22032" lon="10.42553">
        <ele>2059.8935575383</ele>
        <time>2018-09-22T13:40:40.000Z</time>
      </trkpt>
      <trkpt lat="46.22024" lon="10.42546">
        <ele>2060.19430016</ele>
        <time>2018-09-22T13:40:53.002Z</time>
      </trkpt>
      <trkpt lat="46.22019" lon="10.42558">
        <ele>2063.5826212186</ele>
        <time>2018-09-22T13:41:18.989Z</time>
      </trkpt>
      <trkpt lat="46.2201" lon="10.42559">
        <ele>2067.69410048</ele>
        <time>2018-09-22T13:41:38.000Z</time>
      </trkpt>
      <trkpt lat="46.22001" lon="10.42561">
        <ele>2071.7838183819</ele>
        <time>2018-09-22T13:41:59.989Z</time>
      </trkpt>
      <trkpt lat="46.21998" lon="10.42574">
        <ele>2073.49300096</ele>
        <time>2018-09-22T13:42:15.989Z</time>
      </trkpt>
      <trkpt lat="46.21993" lon="10.42585">
        <ele>2076.2931008</ele>
        <time>2018-09-22T13:42:33.990Z</time>
      </trkpt>
      <trkpt lat="46.21987" lon="10.42594">
        <ele>2079.2716949416</ele>
        <time>2018-09-22T13:42:51.990Z</time>
      </trkpt>
      <trkpt lat="46.2198" lon="10.42604">
        <ele>2083.9591923182</ele>
        <time>2018-09-22T13:43:10.989Z</time>
      </trkpt>
      <trkpt lat="46.21971" lon="10.42601">
        <ele>2085.5862016</ele>
        <time>2018-09-22T13:43:28.990Z</time>
      </trkpt>
      <trkpt lat="46.21963" lon="10.42607">
        <ele>2090.98640128</ele>
        <time>2018-09-22T13:43:55.991Z</time>
      </trkpt>
      <trkpt lat="46.21956" lon="10.42617">
        <ele>2095.1764726795</ele>
        <time>2018-09-22T13:44:16.989Z</time>
      </trkpt>
      <trkpt lat="46.21948" lon="10.42624">
        <ele>2099.9779784127</ele>
        <time>2018-09-22T13:45:15.989Z</time>
      </trkpt>
      <trkpt lat="46.21939" lon="10.42624">
        <ele>2102.29290112</ele>
        <time>2018-09-22T13:45:33.989Z</time>
      </trkpt>
      <trkpt lat="46.21931" lon="10.4263">
        <ele>2103.7931008</ele>
        <time>2018-09-22T13:45:48.991Z</time>
      </trkpt>
      <trkpt lat="46.21922" lon="10.42637">
        <ele>2107</ele>
        <time>2018-09-22T13:46:03.989Z</time>
      </trkpt>
      <trkpt lat="46.21914" lon="10.42643">
        <ele>2109</ele>
        <time>2018-09-22T13:46:22.999Z</time>
      </trkpt>
      <trkpt lat="46.21921" lon="10.42652">
        <ele>2110.7862016</ele>
        <time>2018-09-22T13:46:39.991Z</time>
      </trkpt>
      <trkpt lat="46.21928" lon="10.42661">
        <ele>2114.8924708658</ele>
        <time>2018-09-22T13:46:59.989Z</time>
      </trkpt>
      <trkpt lat="46.2193" lon="10.42675">
        <ele>2116</ele>
        <time>2018-09-22T13:47:28.991Z</time>
      </trkpt>
      <trkpt lat="46.21927" lon="10.42687">
        <ele>2118.9862016</ele>
        <time>2018-09-22T13:47:45.991Z</time>
      </trkpt>
      <trkpt lat="46.21923" lon="10.42699">
        <ele>2121.3868128158</ele>
        <time>2018-09-22T13:47:58.001Z</time>
      </trkpt>
      <trkpt lat="46.2192" lon="10.42712">
        <ele>2122.7928934947</ele>
        <time>2018-09-22T13:48:08.991Z</time>
      </trkpt>
      <trkpt lat="46.21915" lon="10.42722">
        <ele>2122.7099395469</ele>
        <time>2018-09-22T13:48:23.989Z</time>
      </trkpt>
      <trkpt lat="46.21907" lon="10.42731">
        <ele>2122.3878016</ele>
        <time>2018-09-22T13:48:32.999Z</time>
      </trkpt>
      <trkpt lat="46.21902" lon="10.42743">
        <ele>2124.19400064</ele>
        <time>2018-09-22T13:48:43.000Z</time>
      </trkpt>
      <trkpt lat="46.21898" lon="10.42756">
        <ele>2125.29290112</ele>
        <time>2018-09-22T13:48:53.989Z</time>
      </trkpt>
      <trkpt lat="46.21894" lon="10.42767">
        <ele>2127.1836338947</ele>
        <time>2018-09-22T13:49:06.990Z</time>
      </trkpt>
      <trkpt lat="46.21887" lon="10.42775">
        <ele>2130.1317763677</ele>
        <time>2018-09-22T13:49:21.989Z</time>
      </trkpt>
      <trkpt lat="46.2188" lon="10.42783">
        <ele>2132.5876398826</ele>
        <time>2018-09-22T13:49:36.990Z</time>
      </trkpt>
      <trkpt lat="46.21873" lon="10.42794">
        <ele>2133.59290112</ele>
        <time>2018-09-22T13:49:46.989Z</time>
      </trkpt>
      <trkpt lat="46.21866" lon="10.42803">
        <ele>2134.49300096</ele>
        <time>2018-09-22T13:49:55.990Z</time>
      </trkpt>
      <trkpt lat="46.21857" lon="10.42809">
        <ele>2135</ele>
        <time>2018-09-22T13:50:04.990Z</time>
      </trkpt>
      <trkpt lat="46.21849" lon="10.42813">
        <ele>2135</ele>
        <time>2018-09-22T13:50:11.990Z</time>
      </trkpt>
      <trkpt lat="46.2184" lon="10.42809">
        <ele>2135</ele>
        <time>2018-09-22T13:50:19.990Z</time>
      </trkpt>
      <trkpt lat="46.2183" lon="10.4281">
        <ele>2134.4098682489</ele>
        <time>2018-09-22T13:50:26.990Z</time>
      </trkpt>
      <trkpt lat="46.21821" lon="10.42809">
        <ele>2133.50699904</ele>
        <time>2018-09-22T13:50:35.990Z</time>
      </trkpt>
      <trkpt lat="46.21813" lon="10.42801">
        <ele>2132.70699904</ele>
        <time>2018-09-22T13:50:43.990Z</time>
      </trkpt>
      <trkpt lat="46.21805" lon="10.42794">
        <ele>2132.00719872</ele>
        <time>2018-09-22T13:50:50.988Z</time>
      </trkpt>
      <trkpt lat="46.21796" lon="10.42787">
        <ele>2130.81399808</ele>
        <time>2018-09-22T13:50:56.990Z</time>
      </trkpt>
      <trkpt lat="46.21788" lon="10.42781">
        <ele>2129.8158909356</ele>
        <time>2018-09-22T13:51:22.999Z</time>
      </trkpt>
      <trkpt lat="46.21795" lon="10.42773">
        <ele>2127.0776375658</ele>
        <time>2018-09-22T13:51:40.989Z</time>
      </trkpt>
      <trkpt lat="46.21805" lon="10.42774">
        <ele>2125.2219233641</ele>
        <time>2018-09-22T13:51:49.987Z</time>
      </trkpt>
      <trkpt lat="46.21815" lon="10.42774">
        <ele>2123.61259776</ele>
        <time>2018-09-22T13:51:57.997Z</time>
      </trkpt>
      <trkpt lat="46.21823" lon="10.42769">
        <ele>2121.82099712</ele>
        <time>2018-09-22T13:52:04.990Z</time>
      </trkpt>
      <trkpt lat="46.21831" lon="10.4276">
        <ele>2120.02099712</ele>
        <time>2018-09-22T13:52:10.990Z</time>
      </trkpt>
      <trkpt lat="46.21839" lon="10.42754">
        <ele>2119.4081830527</ele>
        <time>2018-09-22T13:52:16.990Z</time>
      </trkpt>
      <trkpt lat="46.21846" lon="10.42744">
        <ele>2118.4388516646</ele>
        <time>2018-09-22T13:52:23.001Z</time>
      </trkpt>
      <trkpt lat="46.21852" lon="10.42732">
        <ele>2116.3984438096</ele>
        <time>2018-09-22T13:52:29.986Z</time>
      </trkpt>
      <trkpt lat="46.21857" lon="10.42721">
        <ele>2115.4191549355</ele>
        <time>2018-09-22T13:52:36.990Z</time>
      </trkpt>
      <trkpt lat="46.21862" lon="10.42708">
        <ele>2114.21399808</ele>
        <time>2018-09-22T13:52:44.990Z</time>
      </trkpt>
      <trkpt lat="46.2187" lon="10.427">
        <ele>2113</ele>
        <time>2018-09-22T13:54:01.989Z</time>
      </trkpt>
      <trkpt lat="46.21874" lon="10.42689">
        <ele>2113</ele>
        <time>2018-09-22T13:54:08.991Z</time>
      </trkpt>
      <trkpt lat="46.21879" lon="10.42674">
        <ele>2110.534496</ele>
        <time>2018-09-22T13:54:15.991Z</time>
      </trkpt>
      <trkpt lat="46.21881" lon="10.42662">
        <ele>2107.81399808</ele>
        <time>2018-09-22T13:54:21.990Z</time>
      </trkpt>
      <trkpt lat="46.21884" lon="10.42648">
        <ele>2106.41399808</ele>
        <time>2018-09-22T13:54:28.990Z</time>
      </trkpt>
      <trkpt lat="46.21887" lon="10.42634">
        <ele>2104.528356749</ele>
        <time>2018-09-22T13:54:35.990Z</time>
      </trkpt>
      <trkpt lat="46.2189" lon="10.4262">
        <ele>2102.7373133492</ele>
        <time>2018-09-22T13:54:41.990Z</time>
      </trkpt>
      <trkpt lat="46.21895" lon="10.42608">
        <ele>2100.9432838824</ele>
        <time>2018-09-22T13:54:48.000Z</time>
      </trkpt>
      <trkpt lat="46.21886" lon="10.42606">
        <ele>2095.41399808</ele>
        <time>2018-09-22T13:55:03.990Z</time>
      </trkpt>
      <trkpt lat="46.21876" lon="10.4261">
        <ele>2094.21399808</ele>
        <time>2018-09-22T13:55:09.990Z</time>
      </trkpt>
      <trkpt lat="46.21866" lon="10.42611">
        <ele>2092.5654680689</ele>
        <time>2018-09-22T13:55:15.990Z</time>
      </trkpt>
      <trkpt lat="46.21856" lon="10.42612">
        <ele>2091.1108608773</ele>
        <time>2018-09-22T13:55:20.989Z</time>
      </trkpt>
      <trkpt lat="46.21846" lon="10.42615">
        <ele>2089.2621636208</ele>
        <time>2018-09-22T13:55:26.989Z</time>
      </trkpt>
      <trkpt lat="46.21836" lon="10.42618">
        <ele>2087.1473220963</ele>
        <time>2018-09-22T13:55:33.989Z</time>
      </trkpt>
      <trkpt lat="46.21827" lon="10.42618">
        <ele>2085.3943532949</ele>
        <time>2018-09-22T13:55:39.990Z</time>
      </trkpt>
      <trkpt lat="46.21819" lon="10.42624">
        <ele>2082.703659187</ele>
        <time>2018-09-22T13:55:46.989Z</time>
      </trkpt>
      <trkpt lat="46.21811" lon="10.42632">
        <ele>2080.078949414</ele>
        <time>2018-09-22T13:55:53.000Z</time>
      </trkpt>
      <trkpt lat="46.21804" lon="10.42623">
        <ele>2076</ele>
        <time>2018-09-22T13:56:03.990Z</time>
      </trkpt>
      <trkpt lat="46.21807" lon="10.42608">
        <ele>2075.5088643712</ele>
        <time>2018-09-22T13:56:15.991Z</time>
      </trkpt>
      <trkpt lat="46.2181" lon="10.42593">
        <ele>2074.6429720713</ele>
        <time>2018-09-22T13:56:21.989Z</time>
      </trkpt>
      <trkpt lat="46.21815" lon="10.4258">
        <ele>2072.2285137073</ele>
        <time>2018-09-22T13:56:28.001Z</time>
      </trkpt>
      <trkpt lat="46.21818" lon="10.42566">
        <ele>2070.1297006703</ele>
        <time>2018-09-22T13:56:33.990Z</time>
      </trkpt>
      <trkpt lat="46.21822" lon="10.42553">
        <ele>2068.347820136</ele>
        <time>2018-09-22T13:56:39.989Z</time>
      </trkpt>
      <trkpt lat="46.21826" lon="10.42539">
        <ele>2066.8363628841</ele>
        <time>2018-09-22T13:56:45.000Z</time>
      </trkpt>
      <trkpt lat="46.21831" lon="10.42526">
        <ele>2065.3242397248</ele>
        <time>2018-09-22T13:56:49.990Z</time>
      </trkpt>
      <trkpt lat="46.21841" lon="10.42514">
        <ele>2063.1305574595</ele>
        <time>2018-09-22T13:56:56.000Z</time>
      </trkpt>
      <trkpt lat="46.21849" lon="10.42507">
        <ele>2061.2421946712</ele>
        <time>2018-09-22T13:57:00.990Z</time>
      </trkpt>
      <trkpt lat="46.21858" lon="10.42505">
        <ele>2061.0931008</ele>
        <time>2018-09-22T13:57:11.991Z</time>
      </trkpt>
      <trkpt lat="46.21867" lon="10.42504">
        <ele>2061.79280128</ele>
        <time>2018-09-22T13:57:18.988Z</time>
      </trkpt>
      <trkpt lat="46.21877" lon="10.42501">
        <ele>2061.60569984</ele>
        <time>2018-09-22T13:57:25.003Z</time>
      </trkpt>
      <trkpt lat="46.21884" lon="10.4249">
        <ele>2061.00709888</ele>
        <time>2018-09-22T13:57:30.989Z</time>
      </trkpt>
      <trkpt lat="46.21889" lon="10.42479">
        <ele>2060.50699904</ele>
        <time>2018-09-22T13:57:35.990Z</time>
      </trkpt>
      <trkpt lat="46.21896" lon="10.42471">
        <ele>2060.00699904</ele>
        <time>2018-09-22T13:57:40.990Z</time>
      </trkpt>
      <trkpt lat="46.21906" lon="10.42465">
        <ele>2058.8202970871</ele>
        <time>2018-09-22T13:57:46.988Z</time>
      </trkpt>
      <trkpt lat="46.21916" lon="10.42473">
        <ele>2057.6221101882</ele>
        <time>2018-09-22T13:57:52.990Z</time>
      </trkpt>
      <trkpt lat="46.21925" lon="10.42479">
        <ele>2056.4160788738</ele>
        <time>2018-09-22T13:57:58.990Z</time>
      </trkpt>
      <trkpt lat="46.21933" lon="10.42485">
        <ele>2056</ele>
        <time>2018-09-22T13:58:02.990Z</time>
      </trkpt>
      <trkpt lat="46.21943" lon="10.42491">
        <ele>2056</ele>
        <time>2018-09-22T13:58:08.990Z</time>
      </trkpt>
      <trkpt lat="46.21952" lon="10.42493">
        <ele>2055.70699904</ele>
        <time>2018-09-22T13:58:13.990Z</time>
      </trkpt>
      <trkpt lat="46.21963" lon="10.42493">
        <ele>2055.10599936</ele>
        <time>2018-09-22T13:58:20.000Z</time>
      </trkpt>
      <trkpt lat="46.21973" lon="10.42497">
        <ele>2053.8541197737</ele>
        <time>2018-09-22T13:58:24.998Z</time>
      </trkpt>
      <trkpt lat="46.21982" lon="10.42495">
        <ele>2052.1105703633</ele>
        <time>2018-09-22T13:58:30.990Z</time>
      </trkpt>
      <trkpt lat="46.21992" lon="10.42493">
        <ele>2050.8424295473</ele>
        <time>2018-09-22T13:58:36.990Z</time>
      </trkpt>
      <trkpt lat="46.22002" lon="10.42491">
        <ele>2049.628042336</ele>
        <time>2018-09-22T13:58:42.990Z</time>
      </trkpt>
      <trkpt lat="46.22011" lon="10.42487">
        <ele>2048.6543328049</ele>
        <time>2018-09-22T13:58:47.990Z</time>
      </trkpt>
      <trkpt lat="46.22018" lon="10.42479">
        <ele>2047.4933053693</ele>
        <time>2018-09-22T13:58:52.990Z</time>
      </trkpt>
      <trkpt lat="46.22025" lon="10.42471">
        <ele>2045.6395445252</ele>
        <time>2018-09-22T13:58:58.990Z</time>
      </trkpt>
      <trkpt lat="46.22035" lon="10.42466">
        <ele>2044.21199872</ele>
        <time>2018-09-22T13:59:05.000Z</time>
      </trkpt>
      <trkpt lat="46.22045" lon="10.42464">
        <ele>2043.41399808</ele>
        <time>2018-09-22T13:59:08.990Z</time>
      </trkpt>
      <trkpt lat="46.22054" lon="10.42466">
        <ele>2041.02799616</ele>
        <time>2018-09-22T13:59:15.990Z</time>
      </trkpt>
      <trkpt lat="46.22064" lon="10.42466">
        <ele>2037.61439744</ele>
        <time>2018-09-22T13:59:42.988Z</time>
      </trkpt>
      <trkpt lat="46.22057" lon="10.42456">
        <ele>2035.4247485171</ele>
        <time>2018-09-22T13:59:52.989Z</time>
      </trkpt>
      <trkpt lat="46.22062" lon="10.42444">
        <ele>2030.0809162297</ele>
        <time>2018-09-22T14:00:05.990Z</time>
      </trkpt>
      <trkpt lat="46.2207" lon="10.42453">
        <ele>2026.6253762338</ele>
        <time>2018-09-22T14:00:12.990Z</time>
      </trkpt>
      <trkpt lat="46.22077" lon="10.42461">
        <ele>2025.6183265638</ele>
        <time>2018-09-22T14:00:17.990Z</time>
      </trkpt>
      <trkpt lat="46.22085" lon="10.42469">
        <ele>2024.41399808</ele>
        <time>2018-09-22T14:00:23.990Z</time>
      </trkpt>
      <trkpt lat="46.22085" lon="10.42455">
        <ele>2021.5206976</ele>
        <time>2018-09-22T14:00:35.991Z</time>
      </trkpt>
      <trkpt lat="46.22083" lon="10.42442">
        <ele>2018.8415433934</ele>
        <time>2018-09-22T14:00:43.988Z</time>
      </trkpt>
      <trkpt lat="46.22093" lon="10.42442">
        <ele>2015.5025237622</ele>
        <time>2018-09-22T14:00:51.990Z</time>
      </trkpt>
      <trkpt lat="46.22101" lon="10.42448">
        <ele>2011.8624821395</ele>
        <time>2018-09-22T14:00:57.990Z</time>
      </trkpt>
      <trkpt lat="46.2211" lon="10.42453">
        <ele>2009.0270492932</ele>
        <time>2018-09-22T14:01:05.988Z</time>
      </trkpt>
      <trkpt lat="46.22119" lon="10.42458">
        <ele>2007.1489353424</ele>
        <time>2018-09-22T14:01:13.990Z</time>
      </trkpt>
      <trkpt lat="46.22129" lon="10.42461">
        <ele>2001.42479616</ele>
        <time>2018-09-22T14:01:29.998Z</time>
      </trkpt>
      <trkpt lat="46.22136" lon="10.42471">
        <ele>1999.0288</ele>
        <time>2018-09-22T14:01:35.988Z</time>
      </trkpt>
      <trkpt lat="46.22137" lon="10.42456">
        <ele>1992.5476612636</ele>
        <time>2018-09-22T14:01:51.990Z</time>
      </trkpt>
      <trkpt lat="46.22147" lon="10.42459">
        <ele>1987.2581307317</ele>
        <time>2018-09-22T14:02:04.990Z</time>
      </trkpt>
      <trkpt lat="46.2215" lon="10.42447">
        <ele>1981.0349952</ele>
        <time>2018-09-22T14:02:26.990Z</time>
      </trkpt>
      <trkpt lat="46.22159" lon="10.42443">
        <ele>1978.01399808</ele>
        <time>2018-09-22T14:02:35.990Z</time>
      </trkpt>
      <trkpt lat="46.22155" lon="10.42429">
        <ele>1973.62879488</ele>
        <time>2018-09-22T14:02:56.988Z</time>
      </trkpt>
      <trkpt lat="46.22147" lon="10.42421">
        <ele>1971.41399808</ele>
        <time>2018-09-22T14:03:03.990Z</time>
      </trkpt>
      <trkpt lat="46.22155" lon="10.42414">
        <ele>1969.41889664</ele>
        <time>2018-09-22T14:03:12.997Z</time>
      </trkpt>
      <trkpt lat="46.22164" lon="10.4241">
        <ele>1967.62099712</ele>
        <time>2018-09-22T14:03:18.990Z</time>
      </trkpt>
      <trkpt lat="46.22157" lon="10.424">
        <ele>1963.2265845645</ele>
        <time>2018-09-22T14:03:37.000Z</time>
      </trkpt>
      <trkpt lat="46.22164" lon="10.42391">
        <ele>1960.22159616</ele>
        <time>2018-09-22T14:03:46.988Z</time>
      </trkpt>
      <trkpt lat="46.22175" lon="10.42391">
        <ele>1958.1465996759</ele>
        <time>2018-09-22T14:03:53.990Z</time>
      </trkpt>
      <trkpt lat="46.22184" lon="10.42387">
        <ele>1956.1083475832</ele>
        <time>2018-09-22T14:04:00.988Z</time>
      </trkpt>
      <trkpt lat="46.22192" lon="10.42377">
        <ele>1954.6343973192</ele>
        <time>2018-09-22T14:04:07.990Z</time>
      </trkpt>
      <trkpt lat="46.22201" lon="10.42374">
        <ele>1952.5225211027</ele>
        <time>2018-09-22T14:04:15.990Z</time>
      </trkpt>
      <trkpt lat="46.22206" lon="10.42361">
        <ele>1947.0820160227</ele>
        <time>2018-09-22T14:04:28.990Z</time>
      </trkpt>
      <trkpt lat="46.22215" lon="10.42359">
        <ele>1944.5394727637</ele>
        <time>2018-09-22T14:04:35.990Z</time>
      </trkpt>
      <trkpt lat="46.22224" lon="10.4236">
        <ele>1942.70699904</ele>
        <time>2018-09-22T14:04:43.990Z</time>
      </trkpt>
      <trkpt lat="46.22234" lon="10.42367">
        <ele>1942.00709888</ele>
        <time>2018-09-22T14:04:50.989Z</time>
      </trkpt>
      <trkpt lat="46.22239" lon="10.42354">
        <ele>1935.2193233857</ele>
        <time>2018-09-22T14:05:09.999Z</time>
      </trkpt>
      <trkpt lat="46.22247" lon="10.42346">
        <ele>1933.8259030694</ele>
        <time>2018-09-22T14:05:14.998Z</time>
      </trkpt>
      <trkpt lat="46.22256" lon="10.42347">
        <ele>1931.9179333751</ele>
        <time>2018-09-22T14:05:42.000Z</time>
      </trkpt>
      <trkpt lat="46.22249" lon="10.42336">
        <ele>1929.01199872</ele>
        <time>2018-09-22T14:06:11.000Z</time>
      </trkpt>
      <trkpt lat="46.22248" lon="10.42322">
        <ele>1927.6181440899</ele>
        <time>2018-09-22T14:06:17.990Z</time>
      </trkpt>
      <trkpt lat="46.22251" lon="10.42309">
        <ele>1926.8233004593</ele>
        <time>2018-09-22T14:06:22.000Z</time>
      </trkpt>
      <trkpt lat="46.22246" lon="10.42297">
        <ele>1925.0776698546</ele>
        <time>2018-09-22T14:06:30.990Z</time>
      </trkpt>
      <trkpt lat="46.22238" lon="10.4229">
        <ele>1922.9551682645</ele>
        <time>2018-09-22T14:06:37.988Z</time>
      </trkpt>
      <trkpt lat="46.22228" lon="10.42286">
        <ele>1920.8374540239</ele>
        <time>2018-09-22T14:06:43.988Z</time>
      </trkpt>
      <trkpt lat="46.22222" lon="10.42277">
        <ele>1918.4458173705</ele>
        <time>2018-09-22T14:06:49.991Z</time>
      </trkpt>
      <trkpt lat="46.2223" lon="10.4227">
        <ele>1915.5477363275</ele>
        <time>2018-09-22T14:06:55.990Z</time>
      </trkpt>
      <trkpt lat="46.22234" lon="10.42258">
        <ele>1912.7168</ele>
        <time>2018-09-22T14:07:02.004Z</time>
      </trkpt>
      <trkpt lat="46.22239" lon="10.42245">
        <ele>1910.62159616</ele>
        <time>2018-09-22T14:07:08.988Z</time>
      </trkpt>
      <trkpt lat="46.22243" lon="10.42232">
        <ele>1908.044773211</ele>
        <time>2018-09-22T14:07:14.990Z</time>
      </trkpt>
      <trkpt lat="46.22248" lon="10.42218">
        <ele>1905.0547279079</ele>
        <time>2018-09-22T14:07:21.000Z</time>
      </trkpt>
      <trkpt lat="46.22252" lon="10.42206">
        <ele>1903.2268329425</ele>
        <time>2018-09-22T14:07:26.991Z</time>
      </trkpt>
      <trkpt lat="46.22255" lon="10.42192">
        <ele>1901.0338625863</ele>
        <time>2018-09-22T14:07:33.000Z</time>
      </trkpt>
      <trkpt lat="46.22258" lon="10.42177">
        <ele>1898.0512942772</ele>
        <time>2018-09-22T14:07:38.989Z</time>
      </trkpt>
      <trkpt lat="46.22263" lon="10.42165">
        <ele>1896.1298186407</ele>
        <time>2018-09-22T14:07:43.989Z</time>
      </trkpt>
      <trkpt lat="46.22254" lon="10.42169">
        <ele>1889.0174526836</ele>
        <time>2018-09-22T14:08:05.988Z</time>
      </trkpt>
      <trkpt lat="46.22243" lon="10.42168">
        <ele>1887.7297659396</ele>
        <time>2018-09-22T14:08:11.986Z</time>
      </trkpt>
      <trkpt lat="46.22234" lon="10.42169">
        <ele>1886.2700373291</ele>
        <time>2018-09-22T14:08:16.988Z</time>
      </trkpt>
      <trkpt lat="46.22224" lon="10.42169">
        <ele>1884.6666728121</ele>
        <time>2018-09-22T14:08:21.988Z</time>
      </trkpt>
      <trkpt lat="46.22215" lon="10.42169">
        <ele>1881.5802489946</ele>
        <time>2018-09-22T14:08:27.988Z</time>
      </trkpt>
      <trkpt lat="46.22204" lon="10.4217">
        <ele>1879.41799808</ele>
        <time>2018-09-22T14:08:33.000Z</time>
      </trkpt>
      <trkpt lat="46.22195" lon="10.42171">
        <ele>1877.9216</ele>
        <time>2018-09-22T14:08:37.988Z</time>
      </trkpt>
      <trkpt lat="46.22186" lon="10.42174">
        <ele>1876.41799808</ele>
        <time>2018-09-22T14:08:43.000Z</time>
      </trkpt>
      <trkpt lat="46.22176" lon="10.42169">
        <ele>1874.61799808</ele>
        <time>2018-09-22T14:08:49.000Z</time>
      </trkpt>
      <trkpt lat="46.22167" lon="10.42165">
        <ele>1872.4474277345</ele>
        <time>2018-09-22T14:08:54.988Z</time>
      </trkpt>
      <trkpt lat="46.22158" lon="10.4216">
        <ele>1870.0747053601</ele>
        <time>2018-09-22T14:09:00.991Z</time>
      </trkpt>
      <trkpt lat="46.2215" lon="10.42152">
        <ele>1867.9416505057</ele>
        <time>2018-09-22T14:09:08.000Z</time>
      </trkpt>
      <trkpt lat="46.22144" lon="10.42142">
        <ele>1866.2717319434</ele>
        <time>2018-09-22T14:09:12.988Z</time>
      </trkpt>
      <trkpt lat="46.22135" lon="10.42134">
        <ele>1863.1481457454</ele>
        <time>2018-09-22T14:09:21.000Z</time>
      </trkpt>
      <trkpt lat="46.22127" lon="10.42127">
        <ele>1861.5858875512</ele>
        <time>2018-09-22T14:09:25.990Z</time>
      </trkpt>
      <trkpt lat="46.22118" lon="10.42121">
        <ele>1859.7472416441</ele>
        <time>2018-09-22T14:09:32.000Z</time>
      </trkpt>
      <trkpt lat="46.22127" lon="10.42116">
        <ele>1856.9135954606</ele>
        <time>2018-09-22T14:09:41.988Z</time>
      </trkpt>
      <trkpt lat="46.22136" lon="10.42113">
        <ele>1856.1078538918</ele>
        <time>2018-09-22T14:09:49.989Z</time>
      </trkpt>
      <trkpt lat="46.22145" lon="10.42111">
        <ele>1853.2514843555</ele>
        <time>2018-09-22T14:09:58.000Z</time>
      </trkpt>
      <trkpt lat="46.22154" lon="10.42106">
        <ele>1851.6133324369</ele>
        <time>2018-09-22T14:10:04.988Z</time>
      </trkpt>
      <trkpt lat="46.22163" lon="10.42102">
        <ele>1851.007271439</ele>
        <time>2018-09-22T14:10:10.988Z</time>
      </trkpt>
      <trkpt lat="46.22173" lon="10.42096">
        <ele>1849.8121867136</ele>
        <time>2018-09-22T14:10:32.000Z</time>
      </trkpt>
      <trkpt lat="46.2218" lon="10.42087">
        <ele>1848.8151840334</ele>
        <time>2018-09-22T14:10:36.990Z</time>
      </trkpt>
      <trkpt lat="46.22185" lon="10.42076">
        <ele>1847.4162169365</ele>
        <time>2018-09-22T14:10:43.986Z</time>
      </trkpt>
      <trkpt lat="46.22191" lon="10.42064">
        <ele>1845.534496</ele>
        <time>2018-09-22T14:10:51.991Z</time>
      </trkpt>
      <trkpt lat="46.22197" lon="10.42053">
        <ele>1842.034496</ele>
        <time>2018-09-22T14:10:58.991Z</time>
      </trkpt>
      <trkpt lat="46.22205" lon="10.42043">
        <ele>1840.4106354445</ele>
        <time>2018-09-22T14:11:06.989Z</time>
      </trkpt>
      <trkpt lat="46.22212" lon="10.42035">
        <ele>1839.1344078129</ele>
        <time>2018-09-22T14:11:13.988Z</time>
      </trkpt>
      <trkpt lat="46.22221" lon="10.42028">
        <ele>1836.8194554777</ele>
        <time>2018-09-22T14:11:21.988Z</time>
      </trkpt>
      <trkpt lat="46.22227" lon="10.42018">
        <ele>1835.8466915528</ele>
        <time>2018-09-22T14:11:26.988Z</time>
      </trkpt>
      <trkpt lat="46.22234" lon="10.42009">
        <ele>1834.6626656319</ele>
        <time>2018-09-22T14:11:32.998Z</time>
      </trkpt>
      <trkpt lat="46.22242" lon="10.41999">
        <ele>1833.0364181841</ele>
        <time>2018-09-22T14:11:40.991Z</time>
      </trkpt>
      <trkpt lat="46.22249" lon="10.41989">
        <ele>1831.5348822762</ele>
        <time>2018-09-22T14:11:46.000Z</time>
      </trkpt>
      <trkpt lat="46.22257" lon="10.4198">
        <ele>1829.42159616</ele>
        <time>2018-09-22T14:11:52.988Z</time>
      </trkpt>
      <trkpt lat="46.22265" lon="10.41972">
        <ele>1827.62159616</ele>
        <time>2018-09-22T14:11:58.988Z</time>
      </trkpt>
      <trkpt lat="46.22274" lon="10.41965">
        <ele>1825.82159616</ele>
        <time>2018-09-22T14:12:04.988Z</time>
      </trkpt>
      <trkpt lat="46.22284" lon="10.4196">
        <ele>1824.31799808</ele>
        <time>2018-09-22T14:12:10.000Z</time>
      </trkpt>
      <trkpt lat="46.22293" lon="10.41954">
        <ele>1823.2198012072</ele>
        <time>2018-09-22T14:12:15.000Z</time>
      </trkpt>
      <trkpt lat="46.22302" lon="10.41949">
        <ele>1822.2320803282</ele>
        <time>2018-09-22T14:12:19.988Z</time>
      </trkpt>
      <trkpt lat="46.22311" lon="10.41949">
        <ele>1820.8446668203</ele>
        <time>2018-09-22T14:12:24.988Z</time>
      </trkpt>
      <trkpt lat="46.2232" lon="10.41946">
        <ele>1819.3356173292</ele>
        <time>2018-09-22T14:12:29.988Z</time>
      </trkpt>
      <trkpt lat="46.22329" lon="10.4194">
        <ele>1817.4377502815</ele>
        <time>2018-09-22T14:12:34.990Z</time>
      </trkpt>
      <trkpt lat="46.22322" lon="10.41931">
        <ele>1812.31799808</ele>
        <time>2018-09-22T14:12:50.000Z</time>
      </trkpt>
      <trkpt lat="46.22313" lon="10.41927">
        <ele>1810.0471760106</ele>
        <time>2018-09-22T14:12:55.986Z</time>
      </trkpt>
      <trkpt lat="46.22303" lon="10.41921">
        <ele>1807.6282863401</ele>
        <time>2018-09-22T14:13:03.003Z</time>
      </trkpt>
      <trkpt lat="46.22296" lon="10.41911">
        <ele>1806.2246740942</ele>
        <time>2018-09-22T14:13:10.000Z</time>
      </trkpt>
      <trkpt lat="46.22301" lon="10.419">
        <ele>1804.8289730891</ele>
        <time>2018-09-22T14:13:15.000Z</time>
      </trkpt>
      <trkpt lat="46.22307" lon="10.41889">
        <ele>1802.41359872</ele>
        <time>2018-09-22T14:13:23.992Z</time>
      </trkpt>
      <trkpt lat="46.22316" lon="10.41883">
        <ele>1801.21239808</ele>
        <time>2018-09-22T14:13:29.998Z</time>
      </trkpt>
      <trkpt lat="46.22327" lon="10.4188">
        <ele>1799.52189952</ele>
        <time>2018-09-22T14:13:35.987Z</time>
      </trkpt>
      <trkpt lat="46.22336" lon="10.41872">
        <ele>1798.02159616</ele>
        <time>2018-09-22T14:13:40.988Z</time>
      </trkpt>
      <trkpt lat="46.22346" lon="10.4187">
        <ele>1795.62159616</ele>
        <time>2018-09-22T14:13:48.988Z</time>
      </trkpt>
      <trkpt lat="46.22355" lon="10.41867">
        <ele>1792.63539712</ele>
        <time>2018-09-22T14:13:55.001Z</time>
      </trkpt>
      <trkpt lat="46.22364" lon="10.41859">
        <ele>1789</ele>
        <time>2018-09-22T14:14:02.990Z</time>
      </trkpt>
      <trkpt lat="46.22373" lon="10.41853">
        <ele>1789</ele>
        <time>2018-09-22T14:14:07.000Z</time>
      </trkpt>
      <trkpt lat="46.22383" lon="10.4185">
        <ele>1788.8144</ele>
        <time>2018-09-22T14:14:11.988Z</time>
      </trkpt>
      <trkpt lat="46.22391" lon="10.41842">
        <ele>1787.81439744</ele>
        <time>2018-09-22T14:14:16.988Z</time>
      </trkpt>
      <trkpt lat="46.22398" lon="10.41833">
        <ele>1786.42099712</ele>
        <time>2018-09-22T14:14:22.990Z</time>
      </trkpt>
      <trkpt lat="46.22407" lon="10.41829">
        <ele>1784.61799808</ele>
        <time>2018-09-22T14:14:29.000Z</time>
      </trkpt>
      <trkpt lat="46.22417" lon="10.41821">
        <ele>1782.4708152893</ele>
        <time>2018-09-22T14:14:34.990Z</time>
      </trkpt>
      <trkpt lat="46.22424" lon="10.41811">
        <ele>1780.13696481</ele>
        <time>2018-09-22T14:14:40.988Z</time>
      </trkpt>
      <trkpt lat="46.22432" lon="10.41803">
        <ele>1778.8522380488</ele>
        <time>2018-09-22T14:14:46.987Z</time>
      </trkpt>
      <trkpt lat="46.22442" lon="10.41801">
        <ele>1778</ele>
        <time>2018-09-22T14:14:52.987Z</time>
      </trkpt>
      <trkpt lat="46.22453" lon="10.41798">
        <ele>1778</ele>
        <time>2018-09-22T14:14:59.000Z</time>
      </trkpt>
      <trkpt lat="46.22463" lon="10.41791">
        <ele>1776.057941363</ele>
        <time>2018-09-22T14:15:06.000Z</time>
      </trkpt>
      <trkpt lat="46.22473" lon="10.41786">
        <ele>1774.0647339239</ele>
        <time>2018-09-22T14:15:10.988Z</time>
      </trkpt>
      <trkpt lat="46.22482" lon="10.41782">
        <ele>1773.0245987097</ele>
        <time>2018-09-22T14:15:15.988Z</time>
      </trkpt>
      <trkpt lat="46.22492" lon="10.41784">
        <ele>1771.8138142755</ele>
        <time>2018-09-22T14:15:22.000Z</time>
      </trkpt>
      <trkpt lat="46.22501" lon="10.41784">
        <ele>1770.8154158787</ele>
        <time>2018-09-22T14:15:26.987Z</time>
      </trkpt>
      <trkpt lat="46.22512" lon="10.41783">
        <ele>1769.5503338158</ele>
        <time>2018-09-22T14:15:31.989Z</time>
      </trkpt>
      <trkpt lat="46.22521" lon="10.41785">
        <ele>1767.6147166407</ele>
        <time>2018-09-22T14:15:35.988Z</time>
      </trkpt>
      <trkpt lat="46.22531" lon="10.41786">
        <ele>1765.1950666145</ele>
        <time>2018-09-22T14:15:40.987Z</time>
      </trkpt>
      <trkpt lat="46.22542" lon="10.41788">
        <ele>1763.8530754098</ele>
        <time>2018-09-22T14:15:46.987Z</time>
      </trkpt>
      <trkpt lat="46.22552" lon="10.41787">
        <ele>1760.6882870278</ele>
        <time>2018-09-22T14:15:54.999Z</time>
      </trkpt>
      <trkpt lat="46.22551" lon="10.41773">
        <ele>1756.0225806452</ele>
        <time>2018-09-22T14:16:05.988Z</time>
      </trkpt>
      <trkpt lat="46.22542" lon="10.41767">
        <ele>1753.4564142232</ele>
        <time>2018-09-22T14:16:15.000Z</time>
      </trkpt>
      <trkpt lat="46.22534" lon="10.4176">
        <ele>1750.6465784481</ele>
        <time>2018-09-22T14:16:23.000Z</time>
      </trkpt>
      <trkpt lat="46.22529" lon="10.41749">
        <ele>1748.7072</ele>
        <time>2018-09-22T14:16:33.988Z</time>
      </trkpt>
      <trkpt lat="46.22519" lon="10.41744">
        <ele>1747</ele>
        <time>2018-09-22T14:16:54.000Z</time>
      </trkpt>
      <trkpt lat="46.22509" lon="10.41744">
        <ele>1747</ele>
        <time>2018-09-22T14:17:02.000Z</time>
      </trkpt>
      <trkpt lat="46.225" lon="10.41739">
        <ele>1747</ele>
        <time>2018-09-22T14:17:07.998Z</time>
      </trkpt>
      <trkpt lat="46.2249" lon="10.41739">
        <ele>1747</ele>
        <time>2018-09-22T14:17:17.000Z</time>
      </trkpt>
      <trkpt lat="46.22481" lon="10.41736">
        <ele>1747.39400064</ele>
        <time>2018-09-22T14:17:25.000Z</time>
      </trkpt>
      <trkpt lat="46.2247" lon="10.41732">
        <ele>1748</ele>
        <time>2018-09-22T14:17:33.000Z</time>
      </trkpt>
      <trkpt lat="46.22457" lon="10.41729">
        <ele>1748</ele>
        <time>2018-09-22T14:17:41.000Z</time>
      </trkpt>
      <trkpt lat="46.22448" lon="10.41731">
        <ele>1747.4419555572</ele>
        <time>2018-09-22T14:17:47.000Z</time>
      </trkpt>
      <trkpt lat="46.22439" lon="10.41729">
        <ele>1747</ele>
        <time>2018-09-22T14:17:52.988Z</time>
      </trkpt>
      <trkpt lat="46.22429" lon="10.41728">
        <ele>1747</ele>
        <time>2018-09-22T14:17:59.000Z</time>
      </trkpt>
      <trkpt lat="46.22419" lon="10.41722">
        <ele>1745.539014766</ele>
        <time>2018-09-22T14:18:06.003Z</time>
      </trkpt>
      <trkpt lat="46.22411" lon="10.41715">
        <ele>1743.7167508521</ele>
        <time>2018-09-22T14:18:14.000Z</time>
      </trkpt>
      <trkpt lat="46.22402" lon="10.4171">
        <ele>1743</ele>
        <time>2018-09-22T14:18:23.101Z</time>
      </trkpt>
      <trkpt lat="46.22391" lon="10.41713">
        <ele>1743</ele>
        <time>2018-09-22T14:18:28.988Z</time>
      </trkpt>
      <trkpt lat="46.22382" lon="10.41714">
        <ele>1742.70599936</ele>
        <time>2018-09-22T14:18:34.000Z</time>
      </trkpt>
      <trkpt lat="46.22372" lon="10.41717">
        <ele>1742.39420032</ele>
        <time>2018-09-22T14:18:45.002Z</time>
      </trkpt>
      <trkpt lat="46.22363" lon="10.41712">
        <ele>1743.19270016</ele>
        <time>2018-09-22T14:18:52.987Z</time>
      </trkpt>
      <trkpt lat="46.22353" lon="10.41707">
        <ele>1743.99280128</ele>
        <time>2018-09-22T14:19:00.988Z</time>
      </trkpt>
      <trkpt lat="46.22346" lon="10.41699">
        <ele>1744</ele>
        <time>2018-09-22T14:19:29.000Z</time>
      </trkpt>
      <trkpt lat="46.22355" lon="10.41699">
        <ele>1743</ele>
        <time>2018-09-22T14:20:18.986Z</time>
      </trkpt>
      <trkpt lat="46.22362" lon="10.41708">
        <ele>1742.7124117497</ele>
        <time>2018-09-22T14:21:54.000Z</time>
      </trkpt>
      <trkpt lat="46.22353" lon="10.41711">
        <ele>1743</ele>
        <time>2018-09-22T14:22:14.987Z</time>
      </trkpt>
      <trkpt lat="46.22345" lon="10.41702">
        <ele>1741</ele>
        <time>2018-09-22T14:26:26.000Z</time>
      </trkpt>
      <trkpt lat="46.22336" lon="10.41702">
        <ele>1741</ele>
        <time>2018-09-22T14:26:35.991Z</time>
      </trkpt>
      <trkpt lat="46.22326" lon="10.41699">
        <ele>1740.0144</ele>
        <time>2018-09-22T14:26:45.988Z</time>
      </trkpt>
      <trkpt lat="46.22317" lon="10.417">
        <ele>1737.834717995</ele>
        <time>2018-09-22T14:26:54.987Z</time>
      </trkpt>
      <trkpt lat="46.22308" lon="10.417">
        <ele>1735.1445882773</ele>
        <time>2018-09-22T14:27:03.990Z</time>
      </trkpt>
      <trkpt lat="46.22298" lon="10.41702">
        <ele>1732.9099219799</ele>
        <time>2018-09-22T14:27:11.986Z</time>
      </trkpt>
      <trkpt lat="46.22304" lon="10.4169">
        <ele>1731.8324875801</ele>
        <time>2018-09-22T14:27:22.990Z</time>
      </trkpt>
      <trkpt lat="46.22315" lon="10.41686">
        <ele>1731</ele>
        <time>2018-09-22T14:27:32.000Z</time>
      </trkpt>
      <trkpt lat="46.22323" lon="10.41677">
        <ele>1731</ele>
        <time>2018-09-22T14:27:39.000Z</time>
      </trkpt>
      <trkpt lat="46.22333" lon="10.41672">
        <ele>1729.5268914398</ele>
        <time>2018-09-22T14:27:45.990Z</time>
      </trkpt>
      <trkpt lat="46.22342" lon="10.41671">
        <ele>1727.6419165777</ele>
        <time>2018-09-22T14:27:51.997Z</time>
      </trkpt>
      <trkpt lat="46.22351" lon="10.41671">
        <ele>1726.0479042222</ele>
        <time>2018-09-22T14:27:55.990Z</time>
      </trkpt>
      <trkpt lat="46.22362" lon="10.41671">
        <ele>1723.9113683131</ele>
        <time>2018-09-22T14:28:02.001Z</time>
      </trkpt>
      <trkpt lat="46.22371" lon="10.41663">
        <ele>1723.3088523518</ele>
        <time>2018-09-22T14:28:07.990Z</time>
      </trkpt>
      <trkpt lat="46.22382" lon="10.41657">
        <ele>1722.0139714082</ele>
        <time>2018-09-22T14:28:16.000Z</time>
      </trkpt>
      <trkpt lat="46.22389" lon="10.41648">
        <ele>1721.4151693955</ele>
        <time>2018-09-22T14:28:19.000Z</time>
      </trkpt>
      <trkpt lat="46.22398" lon="10.41644">
        <ele>1720.1264533076</ele>
        <time>2018-09-22T14:28:23.986Z</time>
      </trkpt>
      <trkpt lat="46.22406" lon="10.41636">
        <ele>1718.6231462112</ele>
        <time>2018-09-22T14:28:28.987Z</time>
      </trkpt>
      <trkpt lat="46.22397" lon="10.41632">
        <ele>1713.2118477108</ele>
        <time>2018-09-22T14:28:49.000Z</time>
      </trkpt>
      <trkpt lat="46.22387" lon="10.4163">
        <ele>1710.6487023704</ele>
        <time>2018-09-22T14:28:57.000Z</time>
      </trkpt>
      <trkpt lat="46.22377" lon="10.41633">
        <ele>1709</ele>
        <time>2018-09-22T14:29:03.000Z</time>
      </trkpt>
      <trkpt lat="46.22367" lon="10.41634">
        <ele>1709</ele>
        <time>2018-09-22T14:29:08.987Z</time>
      </trkpt>
      <trkpt lat="46.22356" lon="10.41635">
        <ele>1708.41199872</ele>
        <time>2018-09-22T14:29:14.000Z</time>
      </trkpt>
      <trkpt lat="46.22347" lon="10.4163">
        <ele>1706.90599936</ele>
        <time>2018-09-22T14:29:22.000Z</time>
      </trkpt>
      <trkpt lat="46.22338" lon="10.41625">
        <ele>1706.20719872</ele>
        <time>2018-09-22T14:29:28.988Z</time>
      </trkpt>
      <trkpt lat="46.2233" lon="10.41633">
        <ele>1705.0144</ele>
        <time>2018-09-22T14:29:35.988Z</time>
      </trkpt>
      <trkpt lat="46.2232" lon="10.41639">
        <ele>1703.61199872</ele>
        <time>2018-09-22T14:29:43.000Z</time>
      </trkpt>
      <trkpt lat="46.22311" lon="10.41644">
        <ele>1702.6144</ele>
        <time>2018-09-22T14:29:47.988Z</time>
      </trkpt>
      <trkpt lat="46.22305" lon="10.41655">
        <ele>1702</ele>
        <time>2018-09-22T14:29:57.000Z</time>
      </trkpt>
      <trkpt lat="46.22296" lon="10.41656">
        <ele>1701.80739968</ele>
        <time>2018-09-22T14:30:02.986Z</time>
      </trkpt>
      <trkpt lat="46.22286" lon="10.41659">
        <ele>1701.00589952</ele>
        <time>2018-09-22T14:30:11.001Z</time>
      </trkpt>
      <trkpt lat="46.22278" lon="10.41663">
        <ele>1701</ele>
        <time>2018-09-22T14:30:15.000Z</time>
      </trkpt>
      <trkpt lat="46.22268" lon="10.41669">
        <ele>1700.9149557255</ele>
        <time>2018-09-22T14:30:22.000Z</time>
      </trkpt>
      <trkpt lat="46.22258" lon="10.4168">
        <ele>1699.727834872</ele>
        <time>2018-09-22T14:30:34.000Z</time>
      </trkpt>
      <trkpt lat="46.22248" lon="10.41683">
        <ele>1699.2137113163</ele>
        <time>2018-09-22T14:30:38.987Z</time>
      </trkpt>
      <trkpt lat="46.22241" lon="10.41695">
        <ele>1699</ele>
        <time>2018-09-22T14:30:45.000Z</time>
      </trkpt>
      <trkpt lat="46.22234" lon="10.41705">
        <ele>1699</ele>
        <time>2018-09-22T14:30:50.000Z</time>
      </trkpt>
      <trkpt lat="46.2223" lon="10.41718">
        <ele>1696.922523409</ele>
        <time>2018-09-22T14:30:57.988Z</time>
      </trkpt>
      <trkpt lat="46.22227" lon="10.4173">
        <ele>1696</ele>
        <time>2018-09-22T14:31:03.998Z</time>
      </trkpt>
      <trkpt lat="46.22218" lon="10.41737">
        <ele>1696</ele>
        <time>2018-09-22T14:31:09.002Z</time>
      </trkpt>
      <trkpt lat="46.22208" lon="10.41741">
        <ele>1696</ele>
        <time>2018-09-22T14:31:17.000Z</time>
      </trkpt>
      <trkpt lat="46.22199" lon="10.41749">
        <ele>1696</ele>
        <time>2018-09-22T14:31:24.002Z</time>
      </trkpt>
      <trkpt lat="46.2219" lon="10.41753">
        <ele>1696</ele>
        <time>2018-09-22T14:31:29.000Z</time>
      </trkpt>
      <trkpt lat="46.2218" lon="10.41749">
        <ele>1695.7080431514</ele>
        <time>2018-09-22T14:31:34.000Z</time>
      </trkpt>
      <trkpt lat="46.2217" lon="10.41746">
        <ele>1694.9143716315</ele>
        <time>2018-09-22T14:31:41.988Z</time>
      </trkpt>
      <trkpt lat="46.22159" lon="10.41751">
        <ele>1693.4444447217</ele>
        <time>2018-09-22T14:31:54.000Z</time>
      </trkpt>
      <trkpt lat="46.2215" lon="10.4176">
        <ele>1692.0799214534</ele>
        <time>2018-09-22T14:32:01.000Z</time>
      </trkpt>
      <trkpt lat="46.22144" lon="10.41771">
        <ele>1691.3183420745</ele>
        <time>2018-09-22T14:32:07.988Z</time>
      </trkpt>
      <trkpt lat="46.22136" lon="10.41776">
        <ele>1690.60579968</ele>
        <time>2018-09-22T14:32:15.002Z</time>
      </trkpt>
      <trkpt lat="46.22127" lon="10.4178">
        <ele>1690.20599936</ele>
        <time>2018-09-22T14:32:19.000Z</time>
      </trkpt>
      <trkpt lat="46.22118" lon="10.41779">
        <ele>1689.61439744</ele>
        <time>2018-09-22T14:32:22.988Z</time>
      </trkpt>
      <trkpt lat="46.22108" lon="10.41769">
        <ele>1688.21479936</ele>
        <time>2018-09-22T14:32:29.986Z</time>
      </trkpt>
      <trkpt lat="46.22101" lon="10.4176">
        <ele>1687.2121274197</ele>
        <time>2018-09-22T14:32:38.986Z</time>
      </trkpt>
      <trkpt lat="46.22093" lon="10.4175">
        <ele>1686.2221329398</ele>
        <time>2018-09-22T14:32:44.986Z</time>
      </trkpt>
      <trkpt lat="46.22085" lon="10.41743">
        <ele>1684.7185611378</ele>
        <time>2018-09-22T14:32:52.000Z</time>
      </trkpt>
      <trkpt lat="46.22079" lon="10.4173">
        <ele>1682.9227529435</ele>
        <time>2018-09-22T14:32:57.998Z</time>
      </trkpt>
      <trkpt lat="46.22075" lon="10.41717">
        <ele>1681.4074075972</ele>
        <time>2018-09-22T14:33:07.000Z</time>
      </trkpt>
      <trkpt lat="46.22068" lon="10.41702">
        <ele>1680.6136138829</ele>
        <time>2018-09-22T14:33:13.000Z</time>
      </trkpt>
      <trkpt lat="46.22062" lon="10.41691">
        <ele>1679.4144128907</ele>
        <time>2018-09-22T14:33:18.990Z</time>
      </trkpt>
      <trkpt lat="46.22055" lon="10.41681">
        <ele>1677.81799808</ele>
        <time>2018-09-22T14:33:25.000Z</time>
      </trkpt>
      <trkpt lat="46.22047" lon="10.41668">
        <ele>1675.9087372994</ele>
        <time>2018-09-22T14:33:32.000Z</time>
      </trkpt>
      <trkpt lat="46.22039" lon="10.4166">
        <ele>1675.2300966337</ele>
        <time>2018-09-22T14:33:38.990Z</time>
      </trkpt>
      <trkpt lat="46.22031" lon="10.41646">
        <ele>1674.2494840409</ele>
        <time>2018-09-22T14:33:45.000Z</time>
      </trkpt>
      <trkpt lat="46.22024" lon="10.41636">
        <ele>1672.62799616</ele>
        <time>2018-09-22T14:33:51.990Z</time>
      </trkpt>
      <trkpt lat="46.22015" lon="10.4163">
        <ele>1669.82399744</ele>
        <time>2018-09-22T14:33:59.000Z</time>
      </trkpt>
      <trkpt lat="46.22007" lon="10.41622">
        <ele>1669</ele>
        <time>2018-09-22T14:34:05.988Z</time>
      </trkpt>
      <trkpt lat="46.22" lon="10.41613">
        <ele>1668.7373133492</ele>
        <time>2018-09-22T14:34:12.000Z</time>
      </trkpt>
      <trkpt lat="46.21994" lon="10.41603">
        <ele>1667.2447755605</ele>
        <time>2018-09-22T14:34:17.000Z</time>
      </trkpt>
      <trkpt lat="46.21988" lon="10.4159">
        <ele>1665.42770392</ele>
        <time>2018-09-22T14:34:24.000Z</time>
      </trkpt>
      <trkpt lat="46.21985" lon="10.41578">
        <ele>1664.2167847011</ele>
        <time>2018-09-22T14:34:29.988Z</time>
      </trkpt>
      <trkpt lat="46.2198" lon="10.41567">
        <ele>1662.81199872</ele>
        <time>2018-09-22T14:34:37.000Z</time>
      </trkpt>
      <trkpt lat="46.21973" lon="10.41554">
        <ele>1661.61199872</ele>
        <time>2018-09-22T14:34:43.000Z</time>
      </trkpt>
      <trkpt lat="46.21966" lon="10.41545">
        <ele>1659.6251221934</ele>
        <time>2018-09-22T14:34:52.000Z</time>
      </trkpt>
      <trkpt lat="46.21959" lon="10.41536">
        <ele>1656.833099794</ele>
        <time>2018-09-22T14:34:59.001Z</time>
      </trkpt>
      <trkpt lat="46.2195" lon="10.41528">
        <ele>1655.0150441774</ele>
        <time>2018-09-22T14:35:06.000Z</time>
      </trkpt>
      <trkpt lat="46.21941" lon="10.41521">
        <ele>1654.2146420749</ele>
        <time>2018-09-22T14:35:09.990Z</time>
      </trkpt>
      <trkpt lat="46.21932" lon="10.41514">
        <ele>1653.510911746</ele>
        <time>2018-09-22T14:35:15.990Z</time>
      </trkpt>
      <trkpt lat="46.21926" lon="10.41503">
        <ele>1652.8125878146</ele>
        <time>2018-09-22T14:35:23.001Z</time>
      </trkpt>
      <trkpt lat="46.21917" lon="10.415">
        <ele>1651.81400064</ele>
        <time>2018-09-22T14:35:32.000Z</time>
      </trkpt>
      <trkpt lat="46.21908" lon="10.41499">
        <ele>1650.61400064</ele>
        <time>2018-09-22T14:35:38.000Z</time>
      </trkpt>
      <trkpt lat="46.21894" lon="10.41491">
        <ele>1649.41400064</ele>
        <time>2018-09-22T14:35:44.000Z</time>
      </trkpt>
      <trkpt lat="46.21885" lon="10.41488">
        <ele>1647.4204208244</ele>
        <time>2018-09-22T14:35:53.000Z</time>
      </trkpt>
      <trkpt lat="46.21874" lon="10.41487">
        <ele>1645.6222189763</ele>
        <time>2018-09-22T14:35:58.988Z</time>
      </trkpt>
      <trkpt lat="46.21868" lon="10.41478">
        <ele>1644.6077837236</ele>
        <time>2018-09-22T14:36:04.990Z</time>
      </trkpt>
      <trkpt lat="46.21859" lon="10.41473">
        <ele>1643.9091086517</ele>
        <time>2018-09-22T14:36:11.998Z</time>
      </trkpt>
      <trkpt lat="46.2185" lon="10.41469">
        <ele>1643.1168322428</ele>
        <time>2018-09-22T14:36:20.000Z</time>
      </trkpt>
      <trkpt lat="46.21842" lon="10.41458">
        <ele>1642.6133604707</ele>
        <time>2018-09-22T14:36:25.000Z</time>
      </trkpt>
      <trkpt lat="46.21833" lon="10.41452">
        <ele>1642.209008206</ele>
        <time>2018-09-22T14:36:28.995Z</time>
      </trkpt>
      <trkpt lat="46.21824" lon="10.41441">
        <ele>1641.01199872</ele>
        <time>2018-09-22T14:36:36.000Z</time>
      </trkpt>
      <trkpt lat="46.21815" lon="10.4143">
        <ele>1638.3361331582</ele>
        <time>2018-09-22T14:36:47.000Z</time>
      </trkpt>
      <trkpt lat="46.21804" lon="10.41426">
        <ele>1637.2154056499</ele>
        <time>2018-09-22T14:36:51.001Z</time>
      </trkpt>
      <trkpt lat="46.21795" lon="10.41421">
        <ele>1635.9601698033</ele>
        <time>2018-09-22T14:36:54.990Z</time>
      </trkpt>
      <trkpt lat="46.21787" lon="10.41412">
        <ele>1634</ele>
        <time>2018-09-22T14:37:02.990Z</time>
      </trkpt>
      <trkpt lat="46.21778" lon="10.41413">
        <ele>1633.21199872</ele>
        <time>2018-09-22T14:37:15.000Z</time>
      </trkpt>
      <trkpt lat="46.21768" lon="10.41414">
        <ele>1631.9069434921</ele>
        <time>2018-09-22T14:37:21.998Z</time>
      </trkpt>
      <trkpt lat="46.21758" lon="10.41415">
        <ele>1631.4107136508</ele>
        <time>2018-09-22T14:37:27.000Z</time>
      </trkpt>
      <trkpt lat="46.21747" lon="10.41418">
        <ele>1630.6249987097</ele>
        <time>2018-09-22T14:37:33.000Z</time>
      </trkpt>
      <trkpt lat="46.21738" lon="10.41424">
        <ele>1628.80719872</ele>
        <time>2018-09-22T14:37:42.988Z</time>
      </trkpt>
      <trkpt lat="46.2173" lon="10.41431">
        <ele>1628.20719872</ele>
        <time>2018-09-22T14:37:48.988Z</time>
      </trkpt>
      <trkpt lat="46.21723" lon="10.41439">
        <ele>1627.6159341948</ele>
        <time>2018-09-22T14:37:52.988Z</time>
      </trkpt>
      <trkpt lat="46.21714" lon="10.41444">
        <ele>1626.8191224617</ele>
        <time>2018-09-22T14:37:56.988Z</time>
      </trkpt>
      <trkpt lat="46.2171" lon="10.41456">
        <ele>1626</ele>
        <time>2018-09-22T14:38:08.988Z</time>
      </trkpt>
      <trkpt lat="46.21701" lon="10.41463">
        <ele>1623.92429952</ele>
        <time>2018-09-22T14:38:17.989Z</time>
      </trkpt>
      <trkpt lat="46.21692" lon="10.41461">
        <ele>1622.8141863942</ele>
        <time>2018-09-22T14:38:22.000Z</time>
      </trkpt>
      <trkpt lat="46.21685" lon="10.41453">
        <ele>1621.8175814002</ele>
        <time>2018-09-22T14:38:26.988Z</time>
      </trkpt>
      <trkpt lat="46.21676" lon="10.41445">
        <ele>1620.4166325718</ele>
        <time>2018-09-22T14:38:33.991Z</time>
      </trkpt>
      <trkpt lat="46.2167" lon="10.41435">
        <ele>1617.81799808</ele>
        <time>2018-09-22T14:38:45.000Z</time>
      </trkpt>
      <trkpt lat="46.21667" lon="10.4142">
        <ele>1616.02099712</ele>
        <time>2018-09-22T14:38:50.990Z</time>
      </trkpt>
      <trkpt lat="46.21663" lon="10.41408">
        <ele>1613.050494067</ele>
        <time>2018-09-22T14:39:00.990Z</time>
      </trkpt>
      <trkpt lat="46.21664" lon="10.41395">
        <ele>1613</ele>
        <time>2018-09-22T14:39:06.990Z</time>
      </trkpt>
      <trkpt lat="46.21674" lon="10.41387">
        <ele>1612.6066065489</ele>
        <time>2018-09-22T14:39:15.000Z</time>
      </trkpt>
      <trkpt lat="46.2169" lon="10.41389">
        <ele>1612.4064061563</ele>
        <time>2018-09-22T14:39:17.000Z</time>
      </trkpt>
      <trkpt lat="46.21685" lon="10.41375">
        <ele>1612.40599936</ele>
        <time>2018-09-22T14:39:37.000Z</time>
      </trkpt>
      <trkpt lat="46.21679" lon="10.41363">
        <ele>1611.80599936</ele>
        <time>2018-09-22T14:39:43.000Z</time>
      </trkpt>
      <trkpt lat="46.21672" lon="10.41352">
        <ele>1611.20729984</ele>
        <time>2018-09-22T14:39:48.987Z</time>
      </trkpt>
      <trkpt lat="46.21665" lon="10.41344">
        <ele>1609.0837996248</ele>
        <time>2018-09-22T14:39:55.999Z</time>
      </trkpt>
      <trkpt lat="46.21658" lon="10.41334">
        <ele>1606.8327135877</ele>
        <time>2018-09-22T14:40:02.991Z</time>
      </trkpt>
      <trkpt lat="46.21649" lon="10.4133">
        <ele>1606.213827439</ele>
        <time>2018-09-22T14:40:08.988Z</time>
      </trkpt>
      <trkpt lat="46.2164" lon="10.41331">
        <ele>1604.81439744</ele>
        <time>2018-09-22T14:40:16.988Z</time>
      </trkpt>
      <trkpt lat="46.21633" lon="10.41338">
        <ele>1603.1216</ele>
        <time>2018-09-22T14:40:23.988Z</time>
      </trkpt>
      <trkpt lat="46.21623" lon="10.41347">
        <ele>1600.4206885767</ele>
        <time>2018-09-22T14:40:34.000Z</time>
      </trkpt>
      <trkpt lat="46.21612" lon="10.41344">
        <ele>1599.2384229396</ele>
        <time>2018-09-22T14:40:40.000Z</time>
      </trkpt>
      <trkpt lat="46.21602" lon="10.41345">
        <ele>1599</ele>
        <time>2018-09-22T14:40:46.986Z</time>
      </trkpt>
      <trkpt lat="46.2159" lon="10.41343">
        <ele>1597.4271441583</ele>
        <time>2018-09-22T14:40:55.000Z</time>
      </trkpt>
      <trkpt lat="46.21582" lon="10.41339">
        <ele>1594.9078155721</ele>
        <time>2018-09-22T14:41:02.000Z</time>
      </trkpt>
      <trkpt lat="46.21572" lon="10.41336">
        <ele>1594.1061118115</ele>
        <time>2018-09-22T14:41:10.001Z</time>
      </trkpt>
      <trkpt lat="46.21561" lon="10.41329">
        <ele>1592.8524260334</ele>
        <time>2018-09-22T14:41:15.000Z</time>
      </trkpt>
      <trkpt lat="46.21551" lon="10.41325">
        <ele>1591.1080567872</ele>
        <time>2018-09-22T14:41:20.989Z</time>
      </trkpt>
      <trkpt lat="46.21541" lon="10.41321">
        <ele>1590.4215386514</ele>
        <time>2018-09-22T14:41:27.000Z</time>
      </trkpt>
      <trkpt lat="46.21534" lon="10.4133">
        <ele>1587.6223121582</ele>
        <time>2018-09-22T14:41:38.996Z</time>
      </trkpt>
      <trkpt lat="46.21525" lon="10.41335">
        <ele>1586.11799808</ele>
        <time>2018-09-22T14:41:44.000Z</time>
      </trkpt>
      <trkpt lat="46.21516" lon="10.41335">
        <ele>1584.32099712</ele>
        <time>2018-09-22T14:41:49.990Z</time>
      </trkpt>
      <trkpt lat="46.21508" lon="10.41328">
        <ele>1584</ele>
        <time>2018-09-22T14:41:59.000Z</time>
      </trkpt>
      <trkpt lat="46.21503" lon="10.41316">
        <ele>1583.4156147337</ele>
        <time>2018-09-22T14:42:03.989Z</time>
      </trkpt>
      <trkpt lat="46.21496" lon="10.41305">
        <ele>1582.0142119856</ele>
        <time>2018-09-22T14:42:10.989Z</time>
      </trkpt>
      <trkpt lat="46.21487" lon="10.413">
        <ele>1581.40599936</ele>
        <time>2018-09-22T14:42:17.000Z</time>
      </trkpt>
      <trkpt lat="46.21476" lon="10.41302">
        <ele>1579.42399744</ele>
        <time>2018-09-22T14:42:25.000Z</time>
      </trkpt>
      <trkpt lat="46.21466" lon="10.41305">
        <ele>1576.7060992</ele>
        <time>2018-09-22T14:42:33.999Z</time>
      </trkpt>
      <trkpt lat="46.21457" lon="10.41305">
        <ele>1575.6328023617</ele>
        <time>2018-09-22T14:42:41.989Z</time>
      </trkpt>
      <trkpt lat="46.21447" lon="10.41304">
        <ele>1573.2612638593</ele>
        <time>2018-09-22T14:42:47.989Z</time>
      </trkpt>
      <trkpt lat="46.21437" lon="10.41306">
        <ele>1570.0859286055</ele>
        <time>2018-09-22T14:42:54.989Z</time>
      </trkpt>
      <trkpt lat="46.21427" lon="10.41304">
        <ele>1566.6371075</ele>
        <time>2018-09-22T14:43:02.988Z</time>
      </trkpt>
      <trkpt lat="46.21417" lon="10.41305">
        <ele>1565.66035</ele>
        <time>2018-09-22T14:43:07.989Z</time>
      </trkpt>
      <trkpt lat="46.21408" lon="10.41301">
        <ele>1565</ele>
        <time>2018-09-22T14:43:13.999Z</time>
      </trkpt>
      <trkpt lat="46.21398" lon="10.413">
        <ele>1564.7515647326</ele>
        <time>2018-09-22T14:43:21.989Z</time>
      </trkpt>
      <trkpt lat="46.21388" lon="10.41297">
        <ele>1563.2315454743</ele>
        <time>2018-09-22T14:43:27.000Z</time>
      </trkpt>
      <trkpt lat="46.21377" lon="10.413">
        <ele>1561.70599936</ele>
        <time>2018-09-22T14:43:34.000Z</time>
      </trkpt>
      <trkpt lat="46.21368" lon="10.41301">
        <ele>1561.20699904</ele>
        <time>2018-09-22T14:43:38.990Z</time>
      </trkpt>
      <trkpt lat="46.21358" lon="10.41302">
        <ele>1560.4106354445</ele>
        <time>2018-09-22T14:43:46.989Z</time>
      </trkpt>
      <trkpt lat="46.21349" lon="10.41306">
        <ele>1559.422735081</ele>
        <time>2018-09-22T14:43:53.989Z</time>
      </trkpt>
      <trkpt lat="46.21339" lon="10.41308">
        <ele>1558.01428347</ele>
        <time>2018-09-22T14:44:00.989Z</time>
      </trkpt>
      <trkpt lat="46.21329" lon="10.4131">
        <ele>1556.219780009</ele>
        <time>2018-09-22T14:44:07.000Z</time>
      </trkpt>
      <trkpt lat="46.21319" lon="10.41308">
        <ele>1554.6136138829</ele>
        <time>2018-09-22T14:44:13.000Z</time>
      </trkpt>
      <trkpt lat="46.21309" lon="10.41305">
        <ele>1552.81199872</ele>
        <time>2018-09-22T14:44:22.000Z</time>
      </trkpt>
      <trkpt lat="46.21299" lon="10.41306">
        <ele>1551.81419776</ele>
        <time>2018-09-22T14:44:26.989Z</time>
      </trkpt>
      <trkpt lat="46.21289" lon="10.41307">
        <ele>1551</ele>
        <time>2018-09-22T14:44:32.018Z</time>
      </trkpt>
      <trkpt lat="46.2128" lon="10.41303">
        <ele>1551</ele>
        <time>2018-09-22T14:44:39.000Z</time>
      </trkpt>
      <trkpt lat="46.2127" lon="10.41303">
        <ele>1549.0354944</ele>
        <time>2018-09-22T14:44:44.989Z</time>
      </trkpt>
      <trkpt lat="46.2126" lon="10.41301">
        <ele>1545.7246291673</ele>
        <time>2018-09-22T14:44:51.988Z</time>
      </trkpt>
      <trkpt lat="46.21252" lon="10.41294">
        <ele>1543.9439142413</ele>
        <time>2018-09-22T14:44:57.989Z</time>
      </trkpt>
      <trkpt lat="46.21243" lon="10.4129">
        <ele>1543</ele>
        <time>2018-09-22T14:45:04.991Z</time>
      </trkpt>
      <trkpt lat="46.21232" lon="10.41287">
        <ele>1543</ele>
        <time>2018-09-22T14:45:11.000Z</time>
      </trkpt>
      <trkpt lat="46.21222" lon="10.41289">
        <ele>1541.8703097519</ele>
        <time>2018-09-22T14:45:17.000Z</time>
      </trkpt>
      <trkpt lat="46.21213" lon="10.41291">
        <ele>1540.2495230479</ele>
        <time>2018-09-22T14:45:25.000Z</time>
      </trkpt>
      <trkpt lat="46.21202" lon="10.41289">
        <ele>1539.1066666016</ele>
        <time>2018-09-22T14:45:31.000Z</time>
      </trkpt>
      <trkpt lat="46.21193" lon="10.41284">
        <ele>1538.0652625282</ele>
        <time>2018-09-22T14:45:36.000Z</time>
      </trkpt>
      <trkpt lat="46.21184" lon="10.41282">
        <ele>1536.81399808</ele>
        <time>2018-09-22T14:45:41.990Z</time>
      </trkpt>
      <trkpt lat="46.21174" lon="10.4128">
        <ele>1535.61199872</ele>
        <time>2018-09-22T14:45:48.000Z</time>
      </trkpt>
      <trkpt lat="46.21163" lon="10.41281">
        <ele>1533.1800888889</ele>
        <time>2018-09-22T14:45:54.991Z</time>
      </trkpt>
      <trkpt lat="46.21154" lon="10.41284">
        <ele>1530.3981451852</ele>
        <time>2018-09-22T14:46:01.000Z</time>
      </trkpt>
      <trkpt lat="46.21145" lon="10.41287">
        <ele>1530</ele>
        <time>2018-09-22T14:46:05.988Z</time>
      </trkpt>
      <trkpt lat="46.21136" lon="10.41287">
        <ele>1529.8194179849</ele>
        <time>2018-09-22T14:46:12.000Z</time>
      </trkpt>
      <trkpt lat="46.21124" lon="10.41286">
        <ele>1528.6543687173</ele>
        <time>2018-09-22T14:46:18.000Z</time>
      </trkpt>
      <trkpt lat="46.21115" lon="10.41287">
        <ele>1527.6702633514</ele>
        <time>2018-09-22T14:46:22.989Z</time>
      </trkpt>
      <trkpt lat="46.21104" lon="10.41285">
        <ele>1526.2427696992</ele>
        <time>2018-09-22T14:46:29.998Z</time>
      </trkpt>
      <trkpt lat="46.21095" lon="10.4128">
        <ele>1525.2279634234</ele>
        <time>2018-09-22T14:46:35.000Z</time>
      </trkpt>
      <trkpt lat="46.21085" lon="10.41276">
        <ele>1524</ele>
        <time>2018-09-22T14:46:42.002Z</time>
      </trkpt>
      <trkpt lat="46.21072" lon="10.41274">
        <ele>1524</ele>
        <time>2018-09-22T14:46:49.000Z</time>
      </trkpt>
      <trkpt lat="46.21065" lon="10.41262">
        <ele>1522.0693576491</ele>
        <time>2018-09-22T14:46:54.989Z</time>
      </trkpt>
      <trkpt lat="46.21057" lon="10.41256">
        <ele>1519</ele>
        <time>2018-09-22T14:47:01.989Z</time>
      </trkpt>
      <trkpt lat="46.21047" lon="10.41252">
        <ele>1519</ele>
        <time>2018-09-22T14:47:08.989Z</time>
      </trkpt>
      <trkpt lat="46.21037" lon="10.4125">
        <ele>1516.6369813583</ele>
        <time>2018-09-22T14:47:16.988Z</time>
      </trkpt>
      <trkpt lat="46.21028" lon="10.41249">
        <ele>1514.8060992</ele>
        <time>2018-09-22T14:47:22.999Z</time>
      </trkpt>
      <trkpt lat="46.21018" lon="10.41249">
        <ele>1514.1072</ele>
        <time>2018-09-22T14:47:29.988Z</time>
      </trkpt>
      <trkpt lat="46.21008" lon="10.41246">
        <ele>1513.30569984</ele>
        <time>2018-09-22T14:47:38.003Z</time>
      </trkpt>
      <trkpt lat="46.20999" lon="10.41245">
        <ele>1512.0314654643</ele>
        <time>2018-09-22T14:47:42.999Z</time>
      </trkpt>
      <trkpt lat="46.20989" lon="10.4124">
        <ele>1508.5344666203</ele>
        <time>2018-09-22T14:47:50.000Z</time>
      </trkpt>
      <trkpt lat="46.20978" lon="10.41238">
        <ele>1506.81420032</ele>
        <time>2018-09-22T14:47:56.999Z</time>
      </trkpt>
      <trkpt lat="46.20968" lon="10.41235">
        <ele>1506</ele>
        <time>2018-09-22T14:48:01.999Z</time>
      </trkpt>
      <trkpt lat="46.20957" lon="10.41235">
        <ele>1506</ele>
        <time>2018-09-22T14:48:09.989Z</time>
      </trkpt>
      <trkpt lat="46.20948" lon="10.4124">
        <ele>1504.61419776</ele>
        <time>2018-09-22T14:48:17.989Z</time>
      </trkpt>
      <trkpt lat="46.20939" lon="10.41239">
        <ele>1501.6160150064</ele>
        <time>2018-09-22T14:48:32.988Z</time>
      </trkpt>
      <trkpt lat="46.2093" lon="10.41238">
        <ele>1500.4144128907</ele>
        <time>2018-09-22T14:48:38.990Z</time>
      </trkpt>
      <trkpt lat="46.20921" lon="10.41236">
        <ele>1499.5072</ele>
        <time>2018-09-22T14:48:45.988Z</time>
      </trkpt>
      <trkpt lat="46.20911" lon="10.41235">
        <ele>1498.7182976</ele>
        <time>2018-09-22T14:48:51.999Z</time>
      </trkpt>
      <trkpt lat="46.20902" lon="10.41235">
        <ele>1496.92129664</ele>
        <time>2018-09-22T14:48:57.989Z</time>
      </trkpt>
      <trkpt lat="46.20892" lon="10.41236">
        <ele>1495.7076836997</ele>
        <time>2018-09-22T14:49:03.989Z</time>
      </trkpt>
      <trkpt lat="46.20883" lon="10.41234">
        <ele>1495.108982605</ele>
        <time>2018-09-22T14:49:09.988Z</time>
      </trkpt>
      <trkpt lat="46.20874" lon="10.41231">
        <ele>1494.5082167588</ele>
        <time>2018-09-22T14:49:15.988Z</time>
      </trkpt>
      <trkpt lat="46.20865" lon="10.41223">
        <ele>1493.5214555207</ele>
        <time>2018-09-22T14:49:25.989Z</time>
      </trkpt>
      <trkpt lat="46.20856" lon="10.41217">
        <ele>1492.862060775</ele>
        <time>2018-09-22T14:49:32.029Z</time>
      </trkpt>
      <trkpt lat="46.20846" lon="10.41215">
        <ele>1491.8373184906</ele>
        <time>2018-09-22T14:49:36.999Z</time>
      </trkpt>
      <trkpt lat="46.20836" lon="10.41215">
        <ele>1490.80719872</ele>
        <time>2018-09-22T14:49:42.988Z</time>
      </trkpt>
      <trkpt lat="46.20827" lon="10.41218">
        <ele>1490.10709888</ele>
        <time>2018-09-22T14:49:49.989Z</time>
      </trkpt>
      <trkpt lat="46.20815" lon="10.41223">
        <ele>1487.22399744</ele>
        <time>2018-09-22T14:49:58.000Z</time>
      </trkpt>
      <trkpt lat="46.20806" lon="10.4123">
        <ele>1485.5060992</ele>
        <time>2018-09-22T14:50:05.999Z</time>
      </trkpt>
      <trkpt lat="46.20797" lon="10.41226">
        <ele>1484.81399808</ele>
        <time>2018-09-22T14:50:11.990Z</time>
      </trkpt>
      <trkpt lat="46.20787" lon="10.41227">
        <ele>1483.21399808</ele>
        <time>2018-09-22T14:50:19.990Z</time>
      </trkpt>
      <trkpt lat="46.20778" lon="10.41221">
        <ele>1482.30709888</ele>
        <time>2018-09-22T14:50:27.989Z</time>
      </trkpt>
      <trkpt lat="46.20784" lon="10.4121">
        <ele>1481.40739968</ele>
        <time>2018-09-22T14:50:36.986Z</time>
      </trkpt>
      <trkpt lat="46.20793" lon="10.41206">
        <ele>1480.20719872</ele>
        <time>2018-09-22T14:50:48.988Z</time>
      </trkpt>
      <trkpt lat="46.20795" lon="10.41191">
        <ele>1479.0148665072</ele>
        <time>2018-09-22T14:51:21.000Z</time>
      </trkpt>
      <trkpt lat="46.20786" lon="10.41188">
        <ele>1480.787389105</ele>
        <time>2018-09-22T14:51:39.998Z</time>
      </trkpt>
      <trkpt lat="46.20777" lon="10.41184">
        <ele>1481</ele>
        <time>2018-09-22T14:51:49.000Z</time>
      </trkpt>
      <trkpt lat="46.20781" lon="10.41197">
        <ele>1479.1926145741</ele>
        <time>2018-09-22T14:52:03.000Z</time>
      </trkpt>
      <trkpt lat="46.20787" lon="10.41206">
        <ele>1481</ele>
        <time>2018-09-22T14:53:00.985Z</time>
      </trkpt>
      <trkpt lat="46.20782" lon="10.41218">
        <ele>1480</ele>
        <time>2018-09-22T14:53:31.000Z</time>
      </trkpt>
      <trkpt lat="46.20778" lon="10.41207">
        <ele>1479.59400064</ele>
        <time>2018-09-22T14:53:47.000Z</time>
      </trkpt>
      <trkpt lat="46.20779" lon="10.4122">
        <ele>1481</ele>
        <time>2018-09-22T14:54:19.991Z</time>
      </trkpt>
      <trkpt lat="46.20781" lon="10.41233">
        <ele>1482.7840748387</ele>
        <time>2018-09-22T14:54:29.989Z</time>
      </trkpt>
      <trkpt lat="46.20772" lon="10.41235">
        <ele>1484</ele>
        <time>2018-09-22T14:54:41.989Z</time>
      </trkpt>
      <trkpt lat="46.20763" lon="10.41229">
        <ele>1484</ele>
        <time>2018-09-22T14:54:48.989Z</time>
      </trkpt>
      <trkpt lat="46.20754" lon="10.41226">
        <ele>1484.9827141944</ele>
        <time>2018-09-22T14:54:55.999Z</time>
      </trkpt>
      <trkpt lat="46.20745" lon="10.41223">
        <ele>1486.7848169896</ele>
        <time>2018-09-22T14:55:04.988Z</time>
      </trkpt>
      <trkpt lat="46.20736" lon="10.41219">
        <ele>1488</ele>
        <time>2018-09-22T14:55:14.988Z</time>
      </trkpt>
      <trkpt lat="46.20727" lon="10.41219">
        <ele>1488.7794988827</ele>
        <time>2018-09-22T14:55:24.988Z</time>
      </trkpt>
      <trkpt lat="46.20716" lon="10.4122">
        <ele>1490.691234816</ele>
        <time>2018-09-22T14:55:38.000Z</time>
      </trkpt>
      <trkpt lat="46.20708" lon="10.41226">
        <ele>1491.3801165724</ele>
        <time>2018-09-22T14:55:45.000Z</time>
      </trkpt>
      <trkpt lat="46.20698" lon="10.4123">
        <ele>1492.3752579796</ele>
        <time>2018-09-22T14:55:55.000Z</time>
      </trkpt>
      <trkpt lat="46.20689" lon="10.41233">
        <ele>1493.0898462887</ele>
        <time>2018-09-22T14:56:01.989Z</time>
      </trkpt>
      <trkpt lat="46.20681" lon="10.41225">
        <ele>1493.9601553825</ele>
        <time>2018-09-22T14:56:10.988Z</time>
      </trkpt>
      <trkpt lat="46.20672" lon="10.41222">
        <ele>1495.1874</ele>
        <time>2018-09-22T14:56:22.999Z</time>
      </trkpt>
      <trkpt lat="46.20663" lon="10.41216">
        <ele>1496.0925224032</ele>
        <time>2018-09-22T14:56:31.988Z</time>
      </trkpt>
      <trkpt lat="46.20653" lon="10.41212">
        <ele>1497.1825483434</ele>
        <time>2018-09-22T14:56:42.000Z</time>
      </trkpt>
      <trkpt lat="46.20643" lon="10.41211">
        <ele>1499.5810281979</ele>
        <time>2018-09-22T14:56:54.000Z</time>
      </trkpt>
      <trkpt lat="46.20633" lon="10.41209">
        <ele>1501.0784674251</ele>
        <time>2018-09-22T14:57:01.989Z</time>
      </trkpt>
      <trkpt lat="46.20624" lon="10.41211">
        <ele>1501.9514071323</ele>
        <time>2018-09-22T14:57:10.989Z</time>
      </trkpt>
      <trkpt lat="46.20615" lon="10.41202">
        <ele>1502.9248302474</ele>
        <time>2018-09-22T14:57:20.988Z</time>
      </trkpt>
      <trkpt lat="46.20609" lon="10.41192">
        <ele>1504.2939008</ele>
        <time>2018-09-22T14:57:33.999Z</time>
      </trkpt>
      <trkpt lat="46.20602" lon="10.41183">
        <ele>1506.7862133519</ele>
        <time>2018-09-22T14:57:50.000Z</time>
      </trkpt>
      <trkpt lat="46.2061" lon="10.41174">
        <ele>1507</ele>
        <time>2018-09-22T14:58:21.989Z</time>
      </trkpt>
      <trkpt lat="46.20603" lon="10.41182">
        <ele>1507</ele>
        <time>2018-09-22T14:58:42.989Z</time>
      </trkpt>
      <trkpt lat="46.20593" lon="10.41181">
        <ele>1507</ele>
        <time>2018-09-22T14:58:58.000Z</time>
      </trkpt>
      <trkpt lat="46.20583" lon="10.41181">
        <ele>1507.9758486073</ele>
        <time>2018-09-22T14:59:05.989Z</time>
      </trkpt>
      <trkpt lat="46.20574" lon="10.41182">
        <ele>1509.2888333449</ele>
        <time>2018-09-22T14:59:13.991Z</time>
      </trkpt>
      <trkpt lat="46.20563" lon="10.41178">
        <ele>1510.9603867949</ele>
        <time>2018-09-22T14:59:41.000Z</time>
      </trkpt>
      <trkpt lat="46.20555" lon="10.41173">
        <ele>1511.8816032499</ele>
        <time>2018-09-22T14:59:49.988Z</time>
      </trkpt>
      <trkpt lat="46.20546" lon="10.41178">
        <ele>1512</ele>
        <time>2018-09-22T14:59:59.959Z</time>
      </trkpt>
      <trkpt lat="46.20536" lon="10.41177">
        <ele>1513.98580224</ele>
        <time>2018-09-22T15:00:10.989Z</time>
      </trkpt>
      <trkpt lat="46.20528" lon="10.4117">
        <ele>1514.9526867085</ele>
        <time>2018-09-22T15:00:20.987Z</time>
      </trkpt>
      <trkpt lat="46.2052" lon="10.41175">
        <ele>1519.37200384</ele>
        <time>2018-09-22T15:00:51.990Z</time>
      </trkpt>
      <trkpt lat="46.20518" lon="10.4119">
        <ele>1524.9075892495</ele>
        <time>2018-09-22T15:01:10.989Z</time>
      </trkpt>
      <trkpt lat="46.20514" lon="10.41202">
        <ele>1528.18580224</ele>
        <time>2018-09-22T15:01:46.989Z</time>
      </trkpt>
      <trkpt lat="46.20507" lon="10.41213">
        <ele>1529.7900496334</ele>
        <time>2018-09-22T15:01:59.000Z</time>
      </trkpt>
      <trkpt lat="46.20497" lon="10.41214">
        <ele>1530.570736124</ele>
        <time>2018-09-22T15:02:07.000Z</time>
      </trkpt>
      <trkpt lat="46.2049" lon="10.41224">
        <ele>1534.9226306088</ele>
        <time>2018-09-22T15:02:31.000Z</time>
      </trkpt>
      <trkpt lat="46.20481" lon="10.41222">
        <ele>1537.89400064</ele>
        <time>2018-09-22T15:02:50.000Z</time>
      </trkpt>
      <trkpt lat="46.20472" lon="10.41222">
        <ele>1538</ele>
        <time>2018-09-22T15:03:00.000Z</time>
      </trkpt>
      <trkpt lat="46.20462" lon="10.41222">
        <ele>1541.9781739683</ele>
        <time>2018-09-22T15:03:26.000Z</time>
      </trkpt>
      <trkpt lat="46.20455" lon="10.41232">
        <ele>1545.39450112</ele>
        <time>2018-09-22T15:03:45.005Z</time>
      </trkpt>
      <trkpt lat="46.2045" lon="10.41244">
        <ele>1546</ele>
        <time>2018-09-22T15:03:59.989Z</time>
      </trkpt>
      <trkpt lat="46.20443" lon="10.41254">
        <ele>1551.5878016</ele>
        <time>2018-09-22T15:04:28.999Z</time>
      </trkpt>
      <trkpt lat="46.20435" lon="10.41261">
        <ele>1553.29300096</ele>
        <time>2018-09-22T15:04:43.990Z</time>
      </trkpt>
      <trkpt lat="46.20426" lon="10.41263">
        <ele>1554.78600192</ele>
        <time>2018-09-22T15:04:54.990Z</time>
      </trkpt>
      <trkpt lat="46.20416" lon="10.41263">
        <ele>1557</ele>
        <time>2018-09-22T15:05:17.001Z</time>
      </trkpt>
      <trkpt lat="46.20407" lon="10.41266">
        <ele>1559.19270016</ele>
        <time>2018-09-22T15:05:32.987Z</time>
      </trkpt>
      <trkpt lat="46.20397" lon="10.41268">
        <ele>1560.89290112</ele>
        <time>2018-09-22T15:05:49.989Z</time>
      </trkpt>
      <trkpt lat="46.20388" lon="10.41264">
        <ele>1561</ele>
        <time>2018-09-22T15:06:06.000Z</time>
      </trkpt>
      <trkpt lat="46.20379" lon="10.41267">
        <ele>1561</ele>
        <time>2018-09-22T15:06:17.000Z</time>
      </trkpt>
      <trkpt lat="46.2037" lon="10.41269">
        <ele>1561.69290112</ele>
        <time>2018-09-22T15:06:27.989Z</time>
      </trkpt>
      <trkpt lat="46.20363" lon="10.41277">
        <ele>1562.8931066759</ele>
        <time>2018-09-22T15:06:40.000Z</time>
      </trkpt>
      <trkpt lat="46.20353" lon="10.41281">
        <ele>1565.7028992</ele>
        <time>2018-09-22T15:06:58.099Z</time>
      </trkpt>
      <trkpt lat="46.20344" lon="10.41282">
        <ele>1566</ele>
        <time>2018-09-22T15:07:07.000Z</time>
      </trkpt>
      <trkpt lat="46.20335" lon="10.41283">
        <ele>1566.7769930433</ele>
        <time>2018-09-22T15:07:15.000Z</time>
      </trkpt>
      <trkpt lat="46.20326" lon="10.41289">
        <ele>1570</ele>
        <time>2018-09-22T15:07:37.000Z</time>
      </trkpt>
      <trkpt lat="46.20318" lon="10.41296">
        <ele>1572.874133876</ele>
        <time>2018-09-22T15:07:54.000Z</time>
      </trkpt>
      <trkpt lat="46.20308" lon="10.413">
        <ele>1575.8929371314</ele>
        <time>2018-09-22T15:08:09.999Z</time>
      </trkpt>
      <trkpt lat="46.20303" lon="10.41312">
        <ele>1578.8667318288</ele>
        <time>2018-09-22T15:08:29.990Z</time>
      </trkpt>
      <trkpt lat="46.20304" lon="10.41326">
        <ele>1582.1754219936</ele>
        <time>2018-09-22T15:08:46.990Z</time>
      </trkpt>
      <trkpt lat="46.20304" lon="10.41339">
        <ele>1586.58580224</ele>
        <time>2018-09-22T15:09:13.989Z</time>
      </trkpt>
      <trkpt lat="46.20299" lon="10.41349">
        <ele>1590.1861397632</ele>
        <time>2018-09-22T15:09:42.000Z</time>
      </trkpt>
      <trkpt lat="46.20295" lon="10.41362">
        <ele>1594.09290112</ele>
        <time>2018-09-22T15:10:01.989Z</time>
      </trkpt>
      <trkpt lat="46.20289" lon="10.41373">
        <ele>1597</ele>
        <time>2018-09-22T15:10:21.990Z</time>
      </trkpt>
      <trkpt lat="46.2028" lon="10.41368">
        <ele>1597.9869872948</ele>
        <time>2018-09-22T15:10:36.000Z</time>
      </trkpt>
      <trkpt lat="46.2027" lon="10.41369">
        <ele>1603</ele>
        <time>2018-09-22T15:11:09.000Z</time>
      </trkpt>
      <trkpt lat="46.20264" lon="10.4138">
        <ele>1609.9927844901</ele>
        <time>2018-09-22T15:11:50.990Z</time>
      </trkpt>
      <trkpt lat="46.20262" lon="10.41392">
        <ele>1613.58600192</ele>
        <time>2018-09-22T15:12:08.990Z</time>
      </trkpt>
      <trkpt lat="46.20255" lon="10.41401">
        <ele>1619.15864077</ele>
        <time>2018-09-22T15:12:54.986Z</time>
      </trkpt>
      <trkpt lat="46.20246" lon="10.41404">
        <ele>1625.38800128</ele>
        <time>2018-09-22T15:13:23.000Z</time>
      </trkpt>
      <trkpt lat="46.20242" lon="10.41415">
        <ele>1631.7441182819</ele>
        <time>2018-09-22T15:13:56.990Z</time>
      </trkpt>
      <trkpt lat="46.20234" lon="10.41422">
        <ele>1634.8849358478</ele>
        <time>2018-09-22T15:14:19.989Z</time>
      </trkpt>
      <trkpt lat="46.20226" lon="10.41429">
        <ele>1648.5826965522</ele>
        <time>2018-09-22T15:15:38.986Z</time>
      </trkpt>
      <trkpt lat="46.20217" lon="10.4143">
        <ele>1652.759528336</ele>
        <time>2018-09-22T15:16:00.026Z</time>
      </trkpt>
      <trkpt lat="46.2021" lon="10.41439">
        <ele>1654.9650146099</ele>
        <time>2018-09-22T15:16:20.990Z</time>
      </trkpt>
      <trkpt lat="46.20209" lon="10.41452">
        <ele>1658.58800128</ele>
        <time>2018-09-22T15:16:34.000Z</time>
      </trkpt>
      <trkpt lat="46.20205" lon="10.41464">
        <ele>1666.38800128</ele>
        <time>2018-09-22T15:17:23.000Z</time>
      </trkpt>
      <trkpt lat="46.20198" lon="10.41473">
        <ele>1676.9816507417</ele>
        <time>2018-09-22T15:18:11.000Z</time>
      </trkpt>
      <trkpt lat="46.20189" lon="10.41475">
        <ele>1679.4935066596</ele>
        <time>2018-09-22T15:18:26.000Z</time>
      </trkpt>
      <trkpt lat="46.20181" lon="10.41469">
        <ele>1680.9810942029</ele>
        <time>2018-09-22T15:18:36.000Z</time>
      </trkpt>
      <trkpt lat="46.20171" lon="10.41475">
        <ele>1687.49400064</ele>
        <time>2018-09-22T15:19:06.000Z</time>
      </trkpt>
      <trkpt lat="46.20164" lon="10.41465">
        <ele>1689.7862133519</ele>
        <time>2018-09-22T15:19:20.000Z</time>
      </trkpt>
      <trkpt lat="46.20156" lon="10.41468">
        <ele>1690.9869872948</ele>
        <time>2018-09-22T15:19:26.000Z</time>
      </trkpt>
      <trkpt lat="46.20146" lon="10.4147">
        <ele>1692.7856440963</ele>
        <time>2018-09-22T15:19:35.000Z</time>
      </trkpt>
      <trkpt lat="46.20137" lon="10.41469">
        <ele>1695.3847692923</ele>
        <time>2018-09-22T15:19:48.000Z</time>
      </trkpt>
      <trkpt lat="46.20128" lon="10.41475">
        <ele>1697.1871876874</ele>
        <time>2018-09-22T15:19:57.000Z</time>
      </trkpt>
      <trkpt lat="46.2013" lon="10.41461">
        <ele>1700.8811199542</ele>
        <time>2018-09-22T15:20:14.000Z</time>
      </trkpt>
      <trkpt lat="46.20136" lon="10.4145">
        <ele>1702.6793200278</ele>
        <time>2018-09-22T15:20:20.000Z</time>
      </trkpt>
      <trkpt lat="46.20133" lon="10.41437">
        <ele>1708.6933066678</ele>
        <time>2018-09-22T15:20:58.000Z</time>
      </trkpt>
      <trkpt lat="46.20137" lon="10.41425">
        <ele>1709.7638480121</ele>
        <time>2018-09-22T15:21:05.000Z</time>
      </trkpt>
      <trkpt lat="46.20131" lon="10.41416">
        <ele>1710.836032824</ele>
        <time>2018-09-22T15:21:21.990Z</time>
      </trkpt>
      <trkpt lat="46.20127" lon="10.41402">
        <ele>1709.2937066514</ele>
        <time>2018-09-22T15:21:34.000Z</time>
      </trkpt>
      <trkpt lat="46.20126" lon="10.41389">
        <ele>1710.1823523137</ele>
        <time>2018-09-22T15:21:42.000Z</time>
      </trkpt>
      <trkpt lat="46.20119" lon="10.41379">
        <ele>1715.18800128</ele>
        <time>2018-09-22T15:22:07.000Z</time>
      </trkpt>
      <trkpt lat="46.2011" lon="10.4138">
        <ele>1719.7862133519</ele>
        <time>2018-09-22T15:22:30.000Z</time>
      </trkpt>
      <trkpt lat="46.2011" lon="10.41365">
        <ele>1723.69400064</ele>
        <time>2018-09-22T15:23:08.000Z</time>
      </trkpt>
      <trkpt lat="46.20101" lon="10.41362">
        <ele>1727.920370963</ele>
        <time>2018-09-22T15:25:31.000Z</time>
      </trkpt>
      <trkpt lat="46.20092" lon="10.41367">
        <ele>1730.7757580773</ele>
        <time>2018-09-22T15:25:45.000Z</time>
      </trkpt>
      <trkpt lat="46.20083" lon="10.41367">
        <ele>1733.3876132946</ele>
        <time>2018-09-22T15:26:03.000Z</time>
      </trkpt>
      <trkpt lat="46.20074" lon="10.41365">
        <ele>1737.7852087881</ele>
        <time>2018-09-22T15:26:30.000Z</time>
      </trkpt>
      <trkpt lat="46.20077" lon="10.41352">
        <ele>1742.7643075028</ele>
        <time>2018-09-22T15:27:05.000Z</time>
      </trkpt>
      <trkpt lat="46.20079" lon="10.41338">
        <ele>1743.7342393065</ele>
        <time>2018-09-22T15:27:10.000Z</time>
      </trkpt>
      <trkpt lat="46.20071" lon="10.41331">
        <ele>1749.3612770371</ele>
        <time>2018-09-22T15:27:43.000Z</time>
      </trkpt>
      <trkpt lat="46.20062" lon="10.41335">
        <ele>1751.6893406503</ele>
        <time>2018-09-22T15:27:58.000Z</time>
      </trkpt>
      <trkpt lat="46.20054" lon="10.41329">
        <ele>1757.18800128</ele>
        <time>2018-09-22T15:28:27.000Z</time>
      </trkpt>
      <trkpt lat="46.20045" lon="10.4132">
        <ele>1760</ele>
        <time>2018-09-22T15:28:46.000Z</time>
      </trkpt>
      <trkpt lat="46.2004" lon="10.41308">
        <ele>1763.3863861171</ele>
        <time>2018-09-22T15:29:13.000Z</time>
      </trkpt>
      <trkpt lat="46.20039" lon="10.41294">
        <ele>1768.7840801266</ele>
        <time>2018-09-22T15:29:45.000Z</time>
      </trkpt>
      <trkpt lat="46.2003" lon="10.41291">
        <ele>1773.376128344</ele>
        <time>2018-09-22T15:30:08.000Z</time>
      </trkpt>
      <trkpt lat="46.20024" lon="10.41281">
        <ele>1775.69400064</ele>
        <time>2018-09-22T15:30:28.000Z</time>
      </trkpt>
      <trkpt lat="46.20015" lon="10.41284">
        <ele>1777.725867829</ele>
        <time>2018-09-22T15:30:40.000Z</time>
      </trkpt>
      <trkpt lat="46.20013" lon="10.41271">
        <ele>1784</ele>
        <time>2018-09-22T15:31:16.000Z</time>
      </trkpt>
      <trkpt lat="46.20006" lon="10.41278">
        <ele>1795.19200256</ele>
        <time>2018-09-22T15:32:17.020Z</time>
      </trkpt>
      <trkpt lat="46.19997" lon="10.41282">
        <ele>1801.3852149084</ele>
        <time>2018-09-22T15:32:52.998Z</time>
      </trkpt>
      <trkpt lat="46.1999" lon="10.41272">
        <ele>1804.1843701383</ele>
        <time>2018-09-22T15:33:06.990Z</time>
      </trkpt>
      <trkpt lat="46.19983" lon="10.4128">
        <ele>1809.091933634</ele>
        <time>2018-09-22T15:33:42.016Z</time>
      </trkpt>
      <trkpt lat="46.19983" lon="10.41293">
        <ele>1811.9635075926</ele>
        <time>2018-09-22T15:34:00.991Z</time>
      </trkpt>
      <trkpt lat="46.19978" lon="10.41305">
        <ele>1813.8668612997</ele>
        <time>2018-09-22T15:34:19.990Z</time>
      </trkpt>
      <trkpt lat="46.19979" lon="10.41318">
        <ele>1815.2879163063</ele>
        <time>2018-09-22T15:34:33.989Z</time>
      </trkpt>
      <trkpt lat="46.19973" lon="10.41329">
        <ele>1819</ele>
        <time>2018-09-22T15:35:37.000Z</time>
      </trkpt>
      <trkpt lat="46.1998" lon="10.41321">
        <ele>1819</ele>
        <time>2018-09-22T15:37:23.989Z</time>
      </trkpt>
      <trkpt lat="46.19979" lon="10.41334">
        <ele>1818.3886212733</ele>
        <time>2018-09-22T15:37:44.989Z</time>
      </trkpt>
      <trkpt lat="46.19988" lon="10.41329">
        <ele>1819</ele>
        <time>2018-09-22T15:38:41.000Z</time>
      </trkpt>
      <trkpt lat="46.19985" lon="10.41342">
        <ele>1821.3835826709</ele>
        <time>2018-09-22T15:39:02.986Z</time>
      </trkpt>
      <trkpt lat="46.19978" lon="10.41351">
        <ele>1823.79400064</ele>
        <time>2018-09-22T15:39:19.000Z</time>
      </trkpt>
      <trkpt lat="46.19971" lon="10.41361">
        <ele>1825.7691835711</ele>
        <time>2018-09-22T15:39:34.999Z</time>
      </trkpt>
      <trkpt lat="46.19965" lon="10.4137">
        <ele>1827.8914660241</ele>
        <time>2018-09-22T15:39:49.989Z</time>
      </trkpt>
      <trkpt lat="46.19957" lon="10.41364">
        <ele>1828.9529753262</ele>
        <time>2018-09-22T15:40:01.000Z</time>
      </trkpt>
      <trkpt lat="46.19947" lon="10.41364">
        <ele>1830.4719208163</ele>
        <time>2018-09-22T15:40:16.001Z</time>
      </trkpt>
      <trkpt lat="46.19939" lon="10.41371">
        <ele>1831.3923074759</ele>
        <time>2018-09-22T15:40:24.987Z</time>
      </trkpt>
      <trkpt lat="46.19932" lon="10.41381">
        <ele>1832.69209984</ele>
        <time>2018-09-22T15:40:37.991Z</time>
      </trkpt>
      <trkpt lat="46.19922" lon="10.41385">
        <ele>1833.5885688039</ele>
        <time>2018-09-22T15:40:46.991Z</time>
      </trkpt>
      <trkpt lat="46.19932" lon="10.41387">
        <ele>1834</ele>
        <time>2018-09-22T15:41:03.000Z</time>
      </trkpt>
      <trkpt lat="46.19923" lon="10.41389">
        <ele>1834.8921608608</ele>
        <time>2018-09-22T15:41:19.987Z</time>
      </trkpt>
      <trkpt lat="46.19913" lon="10.41391">
        <ele>1836.78580224</ele>
        <time>2018-09-22T15:41:29.989Z</time>
      </trkpt>
      <trkpt lat="46.19903" lon="10.41392">
        <ele>1837.4906371434</ele>
        <time>2018-09-22T15:41:35.986Z</time>
      </trkpt>
      <trkpt lat="46.19894" lon="10.41394">
        <ele>1838</ele>
        <time>2018-09-22T15:41:41.986Z</time>
      </trkpt>
      <trkpt lat="46.19896" lon="10.41409">
        <ele>1838.4873392721</ele>
        <time>2018-09-22T15:41:55.987Z</time>
      </trkpt>
      <trkpt lat="46.19906" lon="10.41414">
        <ele>1839.9228390977</ele>
        <time>2018-09-22T15:42:10.989Z</time>
      </trkpt>
      <trkpt lat="46.19916" lon="10.41419">
        <ele>1840.7761092415</ele>
        <time>2018-09-22T15:42:18.989Z</time>
      </trkpt>
      <trkpt lat="46.19925" lon="10.4142">
        <ele>1842.0939066432</ele>
        <time>2018-09-22T15:42:32.000Z</time>
      </trkpt>
      <trkpt lat="46.19933" lon="10.41414">
        <ele>1843.1916582562</ele>
        <time>2018-09-22T15:42:43.000Z</time>
      </trkpt>
      <trkpt lat="46.19942" lon="10.41419">
        <ele>1844.5494993548</ele>
        <time>2018-09-22T15:42:52.957Z</time>
      </trkpt>
      <trkpt lat="46.19949" lon="10.41432">
        <ele>1847.29400064</ele>
        <time>2018-09-22T15:43:04.000Z</time>
      </trkpt>
      <trkpt lat="46.19945" lon="10.41444">
        <ele>1848.6725240093</ele>
        <time>2018-09-22T15:43:17.987Z</time>
      </trkpt>
      <trkpt lat="46.19937" lon="10.41456">
        <ele>1851.7716586235</ele>
        <time>2018-09-22T15:43:35.002Z</time>
      </trkpt>
      <trkpt lat="46.19929" lon="10.41462">
        <ele>1854.7793845088</ele>
        <time>2018-09-22T15:43:55.002Z</time>
      </trkpt>
      <trkpt lat="46.1993" lon="10.41475">
        <ele>1857.3936066555</ele>
        <time>2018-09-22T15:44:15.000Z</time>
      </trkpt>
      <trkpt lat="46.19926" lon="10.41488">
        <ele>1862.5694642894</ele>
        <time>2018-09-22T15:44:43.986Z</time>
      </trkpt>
      <trkpt lat="46.19922" lon="10.41499">
        <ele>1864.6851631461</ele>
        <time>2018-09-22T15:44:57.987Z</time>
      </trkpt>
      <trkpt lat="46.19915" lon="10.41508">
        <ele>1867</ele>
        <time>2018-09-22T15:45:12.001Z</time>
      </trkpt>
      <trkpt lat="46.19913" lon="10.41521">
        <ele>1867.8916992</ele>
        <time>2018-09-22T15:45:29.987Z</time>
      </trkpt>
      <trkpt lat="46.19909" lon="10.41533">
        <ele>1870.1856424096</ele>
        <time>2018-09-22T15:45:42.959Z</time>
      </trkpt>
      <trkpt lat="46.19905" lon="10.41545">
        <ele>1871.7924924532</ele>
        <time>2018-09-22T15:45:58.987Z</time>
      </trkpt>
      <trkpt lat="46.19898" lon="10.41554">
        <ele>1872.69260032</ele>
        <time>2018-09-22T15:46:07.986Z</time>
      </trkpt>
      <trkpt lat="46.19898" lon="10.41567">
        <ele>1873.99400064</ele>
        <time>2018-09-22T15:46:21.000Z</time>
      </trkpt>
      <trkpt lat="46.19891" lon="10.41577">
        <ele>1876.3696538528</ele>
        <time>2018-09-22T15:46:35.000Z</time>
      </trkpt>
      <trkpt lat="46.19886" lon="10.41588">
        <ele>1880</ele>
        <time>2018-09-22T15:47:05.002Z</time>
      </trkpt>
      <trkpt lat="46.19876" lon="10.41586">
        <ele>1883.5934066637</ele>
        <time>2018-09-22T15:47:27.000Z</time>
      </trkpt>
      <trkpt lat="46.19882" lon="10.41596">
        <ele>1885</ele>
        <time>2018-09-22T15:47:45.987Z</time>
      </trkpt>
      <trkpt lat="46.19877" lon="10.41608">
        <ele>1894.5823903901</ele>
        <time>2018-09-22T15:48:38.997Z</time>
      </trkpt>
      <trkpt lat="46.19878" lon="10.41622">
        <ele>1898</ele>
        <time>2018-09-22T15:49:10.000Z</time>
      </trkpt>
      <trkpt lat="46.19883" lon="10.41634">
        <ele>1900.57999872</ele>
        <time>2018-09-22T15:49:29.000Z</time>
      </trkpt>
      <trkpt lat="46.19883" lon="10.41648">
        <ele>1903.5731954981</ele>
        <time>2018-09-22T15:49:49.000Z</time>
      </trkpt>
      <trkpt lat="46.19873" lon="10.4165">
        <ele>1907.8648884872</ele>
        <time>2018-09-22T15:50:09.987Z</time>
      </trkpt>
      <trkpt lat="46.19873" lon="10.41663">
        <ele>1911</ele>
        <time>2018-09-22T15:50:39.987Z</time>
      </trkpt>
      <trkpt lat="46.19878" lon="10.41675">
        <ele>1913</ele>
        <time>2018-09-22T15:50:58.989Z</time>
      </trkpt>
      <trkpt lat="46.1987" lon="10.41669">
        <ele>1919.1907455334</ele>
        <time>2018-09-22T15:51:52.987Z</time>
      </trkpt>
      <trkpt lat="46.19865" lon="10.41658">
        <ele>1920.5911552672</ele>
        <time>2018-09-22T15:52:07.002Z</time>
      </trkpt>
      <trkpt lat="46.19864" lon="10.41645">
        <ele>1921</ele>
        <time>2018-09-22T15:52:17.002Z</time>
      </trkpt>
      <trkpt lat="46.19855" lon="10.41639">
        <ele>1921.6872025397</ele>
        <time>2018-09-22T15:52:27.997Z</time>
      </trkpt>
      <trkpt lat="46.19844" lon="10.41639">
        <ele>1922.7892240207</ele>
        <time>2018-09-22T15:52:38.987Z</time>
      </trkpt>
      <trkpt lat="46.1984" lon="10.41626">
        <ele>1924</ele>
        <time>2018-09-22T15:52:52.998Z</time>
      </trkpt>
      <trkpt lat="46.1984" lon="10.41613">
        <ele>1924</ele>
        <time>2018-09-22T15:53:21.987Z</time>
      </trkpt>
      <trkpt lat="46.19841" lon="10.41598">
        <ele>1924</ele>
        <time>2018-09-22T15:53:29.005Z</time>
      </trkpt>
      <trkpt lat="46.19841" lon="10.41612">
        <ele>1924.49159936</ele>
        <time>2018-09-22T15:53:55.986Z</time>
      </trkpt>
      <trkpt lat="46.19846" lon="10.416">
        <ele>1924.6076925241</ele>
        <time>2018-09-22T15:54:34.987Z</time>
      </trkpt>
      <trkpt lat="46.19848" lon="10.41613">
        <ele>1924.10739968</ele>
        <time>2018-09-22T15:54:59.986Z</time>
      </trkpt>
      <trkpt lat="46.1984" lon="10.41606">
        <ele>1924.3078927716</ele>
        <time>2018-09-22T15:55:37.988Z</time>
      </trkpt>
      <trkpt lat="46.19835" lon="10.41594">
        <ele>1924</ele>
        <time>2018-09-22T15:55:48.987Z</time>
      </trkpt>
      <trkpt lat="46.19826" lon="10.41588">
        <ele>1924.8884642197</ele>
        <time>2018-09-22T15:55:59.988Z</time>
      </trkpt>
      <trkpt lat="46.1982" lon="10.41578">
        <ele>1925</ele>
        <time>2018-09-22T15:56:09.000Z</time>
      </trkpt>
      <trkpt lat="46.1981" lon="10.41568">
        <ele>1924.4064061563</ele>
        <time>2018-09-22T15:56:27.000Z</time>
      </trkpt>
      <trkpt lat="46.19802" lon="10.41563">
        <ele>1924</ele>
        <time>2018-09-22T15:56:32.988Z</time>
      </trkpt>
      <trkpt lat="46.19798" lon="10.4155">
        <ele>1924</ele>
        <time>2018-09-22T15:56:40.000Z</time>
      </trkpt>
      <trkpt lat="46.19792" lon="10.41538">
        <ele>1925.58649749</ele>
        <time>2018-09-22T15:56:56.987Z</time>
      </trkpt>
      <trkpt lat="46.19782" lon="10.41533">
        <ele>1926.5892863492</ele>
        <time>2018-09-22T15:57:07.000Z</time>
      </trkpt>
      <trkpt lat="46.19774" lon="10.41525">
        <ele>1927</ele>
        <time>2018-09-22T15:57:15.002Z</time>
      </trkpt>
      <trkpt lat="46.19766" lon="10.41517">
        <ele>1927.1932069276</ele>
        <time>2018-09-22T15:57:22.027Z</time>
      </trkpt>
      <trkpt lat="46.19759" lon="10.41508">
        <ele>1928.7862133519</ele>
        <time>2018-09-22T15:57:30.000Z</time>
      </trkpt>
      <trkpt lat="46.19747" lon="10.41509">
        <ele>1929</ele>
        <time>2018-09-22T15:57:35.000Z</time>
      </trkpt>
      <trkpt lat="46.19737" lon="10.41506">
        <ele>1929</ele>
        <time>2018-09-22T15:57:41.000Z</time>
      </trkpt>
      <trkpt lat="46.19739" lon="10.41494">
        <ele>1929</ele>
        <time>2018-09-22T15:57:46.988Z</time>
      </trkpt>
      <trkpt lat="46.19748" lon="10.41485">
        <ele>1929</ele>
        <time>2018-09-22T15:57:55.000Z</time>
      </trkpt>
      <trkpt lat="46.19756" lon="10.4149">
        <ele>1930</ele>
        <time>2018-09-22T15:58:33.986Z</time>
      </trkpt>
      <trkpt lat="46.19747" lon="10.41486">
        <ele>1930</ele>
        <time>2018-09-22T15:59:27.000Z</time>
      </trkpt>
      <trkpt lat="46.19756" lon="10.41486">
        <ele>1930</ele>
        <time>2018-09-22T16:00:24.098Z</time>
      </trkpt>
      <trkpt lat="46.19747" lon="10.41487">
        <ele>1930</ele>
        <time>2018-09-22T16:00:58.999Z</time>
      </trkpt>
      <trkpt lat="46.19755" lon="10.41482">
        <ele>1931</ele>
        <time>2018-09-22T16:01:40.987Z</time>
      </trkpt>
      <trkpt lat="46.19752" lon="10.41495">
        <ele>1930.3924084948</ele>
        <time>2018-09-22T16:05:54.988Z</time>
      </trkpt>
      <trkpt lat="46.1975" lon="10.41481">
        <ele>1930</ele>
        <time>2018-09-22T16:06:23.988Z</time>
      </trkpt>
      <trkpt lat="46.19758" lon="10.41488">
        <ele>1930</ele>
        <time>2018-09-22T16:06:49.998Z</time>
      </trkpt>
      <trkpt lat="46.1975" lon="10.41481">
        <ele>1931.50700032</ele>
        <time>2018-09-22T16:08:16.000Z</time>
      </trkpt>
      <trkpt lat="46.19744" lon="10.4147">
        <ele>1930.3839849936</ele>
        <time>2018-09-22T16:08:52.988Z</time>
      </trkpt>
      <trkpt lat="46.19735" lon="10.41463">
        <ele>1932.0939066432</ele>
        <time>2018-09-22T16:09:02.000Z</time>
      </trkpt>
      <trkpt lat="46.19727" lon="10.41457">
        <ele>1933</ele>
        <time>2018-09-22T16:09:11.990Z</time>
      </trkpt>
      <trkpt lat="46.19718" lon="10.4145">
        <ele>1933</ele>
        <time>2018-09-22T16:09:19.988Z</time>
      </trkpt>
      <trkpt lat="46.1971" lon="10.41442">
        <ele>1933.5905719047</ele>
        <time>2018-09-22T16:09:26.988Z</time>
      </trkpt>
      <trkpt lat="46.19704" lon="10.41433">
        <ele>1934</ele>
        <time>2018-09-22T16:09:36.988Z</time>
      </trkpt>
      <trkpt lat="46.19695" lon="10.41428">
        <ele>1934.6931071874</ele>
        <time>2018-09-22T16:09:47.998Z</time>
      </trkpt>
      <trkpt lat="46.19688" lon="10.41419">
        <ele>1935</ele>
        <time>2018-09-22T16:09:58.988Z</time>
      </trkpt>
      <trkpt lat="46.19681" lon="10.4141">
        <ele>1936.3787069066</ele>
        <time>2018-09-22T16:10:07.998Z</time>
      </trkpt>
      <trkpt lat="46.19671" lon="10.4141">
        <ele>1937</ele>
        <time>2018-09-22T16:10:15.988Z</time>
      </trkpt>
      <trkpt lat="46.19662" lon="10.41413">
        <ele>1936.60819968</ele>
        <time>2018-09-22T16:10:24.988Z</time>
      </trkpt>
      <trkpt lat="46.19653" lon="10.4141">
        <ele>1935.6076072305</ele>
        <time>2018-09-22T16:10:34.990Z</time>
      </trkpt>
      <trkpt lat="46.19643" lon="10.41408">
        <ele>1935.787213311</ele>
        <time>2018-09-22T16:10:45.000Z</time>
      </trkpt>
      <trkpt lat="46.19633" lon="10.41406">
        <ele>1937.78959872</ele>
        <time>2018-09-22T16:10:55.018Z</time>
      </trkpt>
      <trkpt lat="46.19624" lon="10.41411">
        <ele>1939</ele>
        <time>2018-09-22T16:11:05.990Z</time>
      </trkpt>
      <trkpt lat="46.19619" lon="10.41422">
        <ele>1939.7896308547</ele>
        <time>2018-09-22T16:11:18.990Z</time>
      </trkpt>
      <trkpt lat="46.19609" lon="10.41425">
        <ele>1940</ele>
        <time>2018-09-22T16:11:35.000Z</time>
      </trkpt>
      <trkpt lat="46.19599" lon="10.41428">
        <ele>1940</ele>
        <time>2018-09-22T16:11:45.000Z</time>
      </trkpt>
      <trkpt lat="46.19591" lon="10.41433">
        <ele>1939.0383832167</ele>
        <time>2018-09-22T16:12:00.990Z</time>
      </trkpt>
      <trkpt lat="46.19582" lon="10.41437">
        <ele>1939</ele>
        <time>2018-09-22T16:12:12.030Z</time>
      </trkpt>
      <trkpt lat="46.19574" lon="10.41443">
        <ele>1939</ele>
        <time>2018-09-22T16:12:22.000Z</time>
      </trkpt>
      <trkpt lat="46.19564" lon="10.41446">
        <ele>1939.3899496233</ele>
        <time>2018-09-22T16:12:35.000Z</time>
      </trkpt>
      <trkpt lat="46.19554" lon="10.41444">
        <ele>1940</ele>
        <time>2018-09-22T16:12:43.990Z</time>
      </trkpt>
      <trkpt lat="46.19544" lon="10.41444">
        <ele>1941.49299968</ele>
        <time>2018-09-22T16:13:06.000Z</time>
      </trkpt>
      <trkpt lat="46.19535" lon="10.41441">
        <ele>1942.59299968</ele>
        <time>2018-09-22T16:13:17.000Z</time>
      </trkpt>
      <trkpt lat="46.19524" lon="10.41439">
        <ele>1943.89299968</ele>
        <time>2018-09-22T16:13:30.000Z</time>
      </trkpt>
      <trkpt lat="46.19515" lon="10.41442">
        <ele>1945</ele>
        <time>2018-09-22T16:13:42.000Z</time>
      </trkpt>
      <trkpt lat="46.19505" lon="10.41444">
        <ele>1945</ele>
        <time>2018-09-22T16:13:52.988Z</time>
      </trkpt>
      <trkpt lat="46.19497" lon="10.41439">
        <ele>1945</ele>
        <time>2018-09-22T16:14:02.989Z</time>
      </trkpt>
      <trkpt lat="46.19487" lon="10.41437">
        <ele>1944.4065933363</ele>
        <time>2018-09-22T16:14:17.000Z</time>
      </trkpt>
      <trkpt lat="46.19478" lon="10.41445">
        <ele>1943.3072</ele>
        <time>2018-09-22T16:14:27.998Z</time>
      </trkpt>
      <trkpt lat="46.19471" lon="10.41454">
        <ele>1943</ele>
        <time>2018-09-22T16:14:41.000Z</time>
      </trkpt>
      <trkpt lat="46.19462" lon="10.4146">
        <ele>1943.3892964565</ele>
        <time>2018-09-22T16:14:54.998Z</time>
      </trkpt>
      <trkpt lat="46.19452" lon="10.4146">
        <ele>1944.6901109376</ele>
        <time>2018-09-22T16:15:07.999Z</time>
      </trkpt>
      <trkpt lat="46.19443" lon="10.41464">
        <ele>1945.69289984</ele>
        <time>2018-09-22T16:15:17.999Z</time>
      </trkpt>
      <trkpt lat="46.19435" lon="10.41468">
        <ele>1946</ele>
        <time>2018-09-22T16:15:28.988Z</time>
      </trkpt>
      <trkpt lat="46.19425" lon="10.41469">
        <ele>1945.0903512473</ele>
        <time>2018-09-22T16:15:42.019Z</time>
      </trkpt>
      <trkpt lat="46.19416" lon="10.41474">
        <ele>1945.72429952</ele>
        <time>2018-09-22T16:15:51.989Z</time>
      </trkpt>
      <trkpt lat="46.19407" lon="10.41479">
        <ele>1942.80680064</ele>
        <time>2018-09-22T16:16:03.002Z</time>
      </trkpt>
      <trkpt lat="46.19401" lon="10.41491">
        <ele>1941.80700032</ele>
        <time>2018-09-22T16:16:13.000Z</time>
      </trkpt>
      <trkpt lat="46.19393" lon="10.41498">
        <ele>1941</ele>
        <time>2018-09-22T16:16:21.987Z</time>
      </trkpt>
      <trkpt lat="46.19388" lon="10.41511">
        <ele>1941</ele>
        <time>2018-09-22T16:16:31.988Z</time>
      </trkpt>
      <trkpt lat="46.19383" lon="10.41521">
        <ele>1941</ele>
        <time>2018-09-22T16:16:39.989Z</time>
      </trkpt>
      <trkpt lat="46.19375" lon="10.4153">
        <ele>1940.0099794076</ele>
        <time>2018-09-22T16:16:50.990Z</time>
      </trkpt>
      <trkpt lat="46.19367" lon="10.41539">
        <ele>1938.2001803636</ele>
        <time>2018-09-22T16:17:00.989Z</time>
      </trkpt>
      <trkpt lat="46.19357" lon="10.41537">
        <ele>1939.39449984</ele>
        <time>2018-09-22T16:17:15.015Z</time>
      </trkpt>
      <trkpt lat="46.19348" lon="10.41536">
        <ele>1940</ele>
        <time>2018-09-22T16:17:23.989Z</time>
      </trkpt>
      <trkpt lat="46.19337" lon="10.41539">
        <ele>1940</ele>
        <time>2018-09-22T16:17:32.999Z</time>
      </trkpt>
      <trkpt lat="46.19328" lon="10.41539">
        <ele>1941.1728479277</ele>
        <time>2018-09-22T16:17:46.988Z</time>
      </trkpt>
      <trkpt lat="46.19318" lon="10.41541">
        <ele>1943.7855876218</ele>
        <time>2018-09-22T16:17:59.989Z</time>
      </trkpt>
      <trkpt lat="46.19309" lon="10.41536">
        <ele>1945</ele>
        <time>2018-09-22T16:18:14.989Z</time>
      </trkpt>
      <trkpt lat="46.19302" lon="10.41529">
        <ele>1945</ele>
        <time>2018-09-22T16:18:22.999Z</time>
      </trkpt>
      <trkpt lat="46.19293" lon="10.41524">
        <ele>1945</ele>
        <time>2018-09-22T16:18:31.989Z</time>
      </trkpt>
      <trkpt lat="46.19284" lon="10.41521">
        <ele>1944</ele>
        <time>2018-09-22T16:18:54.989Z</time>
      </trkpt>
      <trkpt lat="46.19273" lon="10.41522">
        <ele>1944.19289984</ele>
        <time>2018-09-22T16:19:02.999Z</time>
      </trkpt>
      <trkpt lat="46.19266" lon="10.4153">
        <ele>1945.09179904</ele>
        <time>2018-09-22T16:19:11.988Z</time>
      </trkpt>
      <trkpt lat="46.19257" lon="10.41534">
        <ele>1945.89190016</ele>
        <time>2018-09-22T16:19:19.989Z</time>
      </trkpt>
      <trkpt lat="46.19248" lon="10.41527">
        <ele>1946.89190016</ele>
        <time>2018-09-22T16:19:29.989Z</time>
      </trkpt>
      <trkpt lat="46.19239" lon="10.41528">
        <ele>1946.0099794076</ele>
        <time>2018-09-22T16:19:40.990Z</time>
      </trkpt>
      <trkpt lat="46.1923" lon="10.41525">
        <ele>1946</ele>
        <time>2018-09-22T16:19:50.989Z</time>
      </trkpt>
      <trkpt lat="46.19221" lon="10.41526">
        <ele>1945.3229232983</ele>
        <time>2018-09-22T16:19:57.999Z</time>
      </trkpt>
      <trkpt lat="46.19212" lon="10.41526">
        <ele>1945</ele>
        <time>2018-09-22T16:20:06.989Z</time>
      </trkpt>
      <trkpt lat="46.19203" lon="10.41525">
        <ele>1945</ele>
        <time>2018-09-22T16:20:15.990Z</time>
      </trkpt>
      <trkpt lat="46.19193" lon="10.41525">
        <ele>1945</ele>
        <time>2018-09-22T16:20:22.970Z</time>
      </trkpt>
      <trkpt lat="46.19183" lon="10.41526">
        <ele>1945</ele>
        <time>2018-09-22T16:20:31.990Z</time>
      </trkpt>
      <trkpt lat="46.19174" lon="10.4153">
        <ele>1945</ele>
        <time>2018-09-22T16:20:38.990Z</time>
      </trkpt>
      <trkpt lat="46.19168" lon="10.41541">
        <ele>1945</ele>
        <time>2018-09-22T16:20:45.990Z</time>
      </trkpt>
      <trkpt lat="46.19162" lon="10.41553">
        <ele>1944.809100278</ele>
        <time>2018-09-22T16:20:53.000Z</time>
      </trkpt>
      <trkpt lat="46.19157" lon="10.41565">
        <ele>1944.0187935846</ele>
        <time>2018-09-22T16:21:00.990Z</time>
      </trkpt>
      <trkpt lat="46.19149" lon="10.41572">
        <ele>1944</ele>
        <time>2018-09-22T16:21:08.000Z</time>
      </trkpt>
      <trkpt lat="46.19141" lon="10.4158">
        <ele>1944</ele>
        <time>2018-09-22T16:21:15.000Z</time>
      </trkpt>
      <trkpt lat="46.19134" lon="10.41587">
        <ele>1944</ele>
        <time>2018-09-22T16:21:21.000Z</time>
      </trkpt>
      <trkpt lat="46.19127" lon="10.41596">
        <ele>1944</ele>
        <time>2018-09-22T16:21:28.000Z</time>
      </trkpt>
      <trkpt lat="46.19118" lon="10.416">
        <ele>1944.3936066555</ele>
        <time>2018-09-22T16:21:35.000Z</time>
      </trkpt>
      <trkpt lat="46.19109" lon="10.41605">
        <ele>1945.1873784465</ele>
        <time>2018-09-22T16:21:43.000Z</time>
      </trkpt>
      <trkpt lat="46.19102" lon="10.41615">
        <ele>1945.9640779583</ele>
        <time>2018-09-22T16:21:51.000Z</time>
      </trkpt>
      <trkpt lat="46.19098" lon="10.41627">
        <ele>1946.7793667728</ele>
        <time>2018-09-22T16:21:59.000Z</time>
      </trkpt>
      <trkpt lat="46.19089" lon="10.41633">
        <ele>1947.0939066432</ele>
        <time>2018-09-22T16:22:12.000Z</time>
      </trkpt>
      <trkpt lat="46.1908" lon="10.4163">
        <ele>1948</ele>
        <time>2018-09-22T16:22:23.990Z</time>
      </trkpt>
      <trkpt lat="46.19072" lon="10.41627">
        <ele>1947.7108036347</ele>
        <time>2018-09-22T16:22:33.988Z</time>
      </trkpt>
      <trkpt lat="46.19065" lon="10.41617">
        <ele>1947.0838236863</ele>
        <time>2018-09-22T16:22:42.015Z</time>
      </trkpt>
      <trkpt lat="46.19056" lon="10.41617">
        <ele>1947.9637258039</ele>
        <time>2018-09-22T16:22:50.990Z</time>
      </trkpt>
      <trkpt lat="46.19046" lon="10.41617">
        <ele>1948</ele>
        <time>2018-09-22T16:23:03.000Z</time>
      </trkpt>
      <trkpt lat="46.19038" lon="10.41626">
        <ele>1948</ele>
        <time>2018-09-22T16:23:10.990Z</time>
      </trkpt>
      <trkpt lat="46.1903" lon="10.41634">
        <ele>1948</ele>
        <time>2018-09-22T16:23:18.986Z</time>
      </trkpt>
      <trkpt lat="46.19024" lon="10.41645">
        <ele>1948</ele>
        <time>2018-09-22T16:23:25.987Z</time>
      </trkpt>
      <trkpt lat="46.19018" lon="10.41657">
        <ele>1948.2924074718</ele>
        <time>2018-09-22T16:23:33.987Z</time>
      </trkpt>
      <trkpt lat="46.1901" lon="10.41665">
        <ele>1949</ele>
        <time>2018-09-22T16:23:44.991Z</time>
      </trkpt>
      <trkpt lat="46.19002" lon="10.41672">
        <ele>1949</ele>
        <time>2018-09-22T16:23:51.990Z</time>
      </trkpt>
      <trkpt lat="46.18995" lon="10.41681">
        <ele>1949</ele>
        <time>2018-09-22T16:23:59.990Z</time>
      </trkpt>
      <trkpt lat="46.18986" lon="10.41685">
        <ele>1949</ele>
        <time>2018-09-22T16:24:06.988Z</time>
      </trkpt>
      <trkpt lat="46.18977" lon="10.41689">
        <ele>1949.2845774794</ele>
        <time>2018-09-22T16:24:13.990Z</time>
      </trkpt>
      <trkpt lat="46.18969" lon="10.41696">
        <ele>1950.0795874351</ele>
        <time>2018-09-22T16:24:21.991Z</time>
      </trkpt>
      <trkpt lat="46.18964" lon="10.41708">
        <ele>1950.766438092</ele>
        <time>2018-09-22T16:24:28.990Z</time>
      </trkpt>
      <trkpt lat="46.18959" lon="10.41719">
        <ele>1951</ele>
        <time>2018-09-22T16:24:35.988Z</time>
      </trkpt>
      <trkpt lat="46.18955" lon="10.41732">
        <ele>1951</ele>
        <time>2018-09-22T16:24:43.991Z</time>
      </trkpt>
      <trkpt lat="46.18951" lon="10.41746">
        <ele>1951.08899968</ele>
        <time>2018-09-22T16:24:51.960Z</time>
      </trkpt>
      <trkpt lat="46.18947" lon="10.41759">
        <ele>1951.89159936</ele>
        <time>2018-09-22T16:24:59.986Z</time>
      </trkpt>
      <trkpt lat="46.18942" lon="10.41771">
        <ele>1952</ele>
        <time>2018-09-22T16:25:08.000Z</time>
      </trkpt>
      <trkpt lat="46.18934" lon="10.4178">
        <ele>1953.18319872</ele>
        <time>2018-09-22T16:25:16.986Z</time>
      </trkpt>
      <trkpt lat="46.18926" lon="10.41787">
        <ele>1954</ele>
        <time>2018-09-22T16:25:24.990Z</time>
      </trkpt>
      <trkpt lat="46.18917" lon="10.41791">
        <ele>1954.1931930585</ele>
        <time>2018-09-22T16:25:33.000Z</time>
      </trkpt>
      <trkpt lat="46.18908" lon="10.41794">
        <ele>1955.1938066473</ele>
        <time>2018-09-22T16:25:43.000Z</time>
      </trkpt>
      <trkpt lat="46.18899" lon="10.41792">
        <ele>1956</ele>
        <time>2018-09-22T16:25:59.988Z</time>
      </trkpt>
      <trkpt lat="46.1889" lon="10.41797">
        <ele>1957.187963631</ele>
        <time>2018-09-22T16:26:12.974Z</time>
      </trkpt>
      <trkpt lat="46.18882" lon="10.41805">
        <ele>1958.092</ele>
        <time>2018-09-22T16:26:21.990Z</time>
      </trkpt>
      <trkpt lat="46.18874" lon="10.418">
        <ele>1959</ele>
        <time>2018-09-22T16:26:33.000Z</time>
      </trkpt>
      <trkpt lat="46.18865" lon="10.41798">
        <ele>1960.9761904762</ele>
        <time>2018-09-22T16:27:25.990Z</time>
      </trkpt>
      <trkpt lat="46.18856" lon="10.41795">
        <ele>1962.6702545098</ele>
        <time>2018-09-22T16:27:38.000Z</time>
      </trkpt>
      <trkpt lat="46.18846" lon="10.41793">
        <ele>1964</ele>
        <time>2018-09-22T16:27:54.988Z</time>
      </trkpt>
      <trkpt lat="46.18837" lon="10.41796">
        <ele>1964</ele>
        <time>2018-09-22T16:28:08.990Z</time>
      </trkpt>
      <trkpt lat="46.18829" lon="10.41792">
        <ele>1966</ele>
        <time>2018-09-22T16:28:24.990Z</time>
      </trkpt>
      <trkpt lat="46.1882" lon="10.41786">
        <ele>1966.7750745717</ele>
        <time>2018-09-22T16:28:34.988Z</time>
      </trkpt>
      <trkpt lat="46.18811" lon="10.41782">
        <ele>1968</ele>
        <time>2018-09-22T16:28:43.991Z</time>
      </trkpt>
      <trkpt lat="46.18802" lon="10.41776">
        <ele>1968.292707971</ele>
        <time>2018-09-22T16:28:53.990Z</time>
      </trkpt>
      <trkpt lat="46.18793" lon="10.41772">
        <ele>1969</ele>
        <time>2018-09-22T16:29:03.001Z</time>
      </trkpt>
      <trkpt lat="46.18784" lon="10.41771">
        <ele>1969</ele>
        <time>2018-09-22T16:29:13.003Z</time>
      </trkpt>
      <trkpt lat="46.18775" lon="10.4177">
        <ele>1969.6882348362</ele>
        <time>2018-09-22T16:29:28.003Z</time>
      </trkpt>
      <trkpt lat="46.18766" lon="10.41773">
        <ele>1970</ele>
        <time>2018-09-22T16:29:38.986Z</time>
      </trkpt>
      <trkpt lat="46.18756" lon="10.41776">
        <ele>1970.69379398</ele>
        <time>2018-09-22T16:29:48.001Z</time>
      </trkpt>
      <trkpt lat="46.18747" lon="10.41778">
        <ele>1970.4079922561</ele>
        <time>2018-09-22T16:29:56.986Z</time>
      </trkpt>
      <trkpt lat="46.18738" lon="10.41777">
        <ele>1970.4916992</ele>
        <time>2018-09-22T16:30:05.987Z</time>
      </trkpt>
      <trkpt lat="46.18729" lon="10.41781">
        <ele>1971.09179904</ele>
        <time>2018-09-22T16:30:21.988Z</time>
      </trkpt>
      <trkpt lat="46.18721" lon="10.4179">
        <ele>1972.28909952</ele>
        <time>2018-09-22T16:30:33.961Z</time>
      </trkpt>
      <trkpt lat="46.18713" lon="10.41784">
        <ele>1973</ele>
        <time>2018-09-22T16:30:43.991Z</time>
      </trkpt>
      <trkpt lat="46.18703" lon="10.41783">
        <ele>1973.3704084898</ele>
        <time>2018-09-22T16:30:54.990Z</time>
      </trkpt>
      <trkpt lat="46.18694" lon="10.41785">
        <ele>1974</ele>
        <time>2018-09-22T16:31:08.000Z</time>
      </trkpt>
      <trkpt lat="46.18685" lon="10.41783">
        <ele>1974</ele>
        <time>2018-09-22T16:31:20.986Z</time>
      </trkpt>
      <trkpt lat="46.18675" lon="10.41781">
        <ele>1974</ele>
        <time>2018-09-22T16:31:32.016Z</time>
      </trkpt>
      <trkpt lat="46.18665" lon="10.41782">
        <ele>1974</ele>
        <time>2018-09-22T16:31:41.000Z</time>
      </trkpt>
      <trkpt lat="46.18656" lon="10.4178">
        <ele>1975.09159936</ele>
        <time>2018-09-22T16:31:51.986Z</time>
      </trkpt>
      <trkpt lat="46.18647" lon="10.41784">
        <ele>1976</ele>
        <time>2018-09-22T16:32:02.998Z</time>
      </trkpt>
      <trkpt lat="46.18639" lon="10.41788">
        <ele>1977.7822399089</ele>
        <time>2018-09-22T16:32:19.991Z</time>
      </trkpt>
      <trkpt lat="46.18631" lon="10.41795">
        <ele>1978</ele>
        <time>2018-09-22T16:32:29.991Z</time>
      </trkpt>
      <trkpt lat="46.18622" lon="10.41799">
        <ele>1978.9918638956</ele>
        <time>2018-09-22T16:32:40.991Z</time>
      </trkpt>
      <trkpt lat="46.18613" lon="10.418">
        <ele>1980.1822521264</ele>
        <time>2018-09-22T16:32:52.997Z</time>
      </trkpt>
      <trkpt lat="46.18604" lon="10.41806">
        <ele>1981</ele>
        <time>2018-09-22T16:33:07.998Z</time>
      </trkpt>
      <trkpt lat="46.18597" lon="10.41812">
        <ele>1981.99180032</ele>
        <time>2018-09-22T16:33:20.988Z</time>
      </trkpt>
      <trkpt lat="46.18589" lon="10.4182">
        <ele>1983.29159936</ele>
        <time>2018-09-22T16:33:33.986Z</time>
      </trkpt>
      <trkpt lat="46.18581" lon="10.41828">
        <ele>1985.28669952</ele>
        <time>2018-09-22T16:33:53.987Z</time>
      </trkpt>
      <trkpt lat="46.18572" lon="10.41827">
        <ele>1988</ele>
        <time>2018-09-22T16:34:24.991Z</time>
      </trkpt>
      <trkpt lat="46.18563" lon="10.41827">
        <ele>1989</ele>
        <time>2018-09-22T16:34:42.016Z</time>
      </trkpt>
      <trkpt lat="46.18554" lon="10.41826">
        <ele>1990.38639872</ele>
        <time>2018-09-22T16:34:58.002Z</time>
      </trkpt>
      <trkpt lat="46.18545" lon="10.41828">
        <ele>1993.4868311996</ele>
        <time>2018-09-22T16:35:15.987Z</time>
      </trkpt>
      <trkpt lat="46.18536" lon="10.4183">
        <ele>1994</ele>
        <time>2018-09-22T16:35:29.987Z</time>
      </trkpt>
      <trkpt lat="46.18526" lon="10.41833">
        <ele>1996.78319872</ele>
        <time>2018-09-22T16:35:44.986Z</time>
      </trkpt>
      <trkpt lat="46.18518" lon="10.41834">
        <ele>1999.38619904</ele>
        <time>2018-09-22T16:35:58.001Z</time>
      </trkpt>
      <trkpt lat="46.18508" lon="10.41836">
        <ele>2000.39159936</ele>
        <time>2018-09-22T16:36:14.986Z</time>
      </trkpt>
      <trkpt lat="46.18499" lon="10.41835">
        <ele>2002.09209984</ele>
        <time>2018-09-22T16:36:31.991Z</time>
      </trkpt>
      <trkpt lat="46.1849" lon="10.41836">
        <ele>2004.78319872</ele>
        <time>2018-09-22T16:36:49.986Z</time>
      </trkpt>
      <trkpt lat="46.1848" lon="10.41837">
        <ele>2006.127216081</ele>
        <time>2018-09-22T16:37:11.987Z</time>
      </trkpt>
      <trkpt lat="46.18471" lon="10.41836">
        <ele>2008.79159936</ele>
        <time>2018-09-22T16:37:28.986Z</time>
      </trkpt>
      <trkpt lat="46.18463" lon="10.41843">
        <ele>2009.892</ele>
        <time>2018-09-22T16:37:39.990Z</time>
      </trkpt>
      <trkpt lat="46.18457" lon="10.41854">
        <ele>2011.4892454306</ele>
        <time>2018-09-22T16:37:55.988Z</time>
      </trkpt>
      <trkpt lat="46.18448" lon="10.41855">
        <ele>2014.8337169272</ele>
        <time>2018-09-22T16:38:10.988Z</time>
      </trkpt>
      <trkpt lat="46.18438" lon="10.41854">
        <ele>2016.9822776917</ele>
        <time>2018-09-22T16:38:30.991Z</time>
      </trkpt>
      <trkpt lat="46.1843" lon="10.4186">
        <ele>2018.5741808702</ele>
        <time>2018-09-22T16:38:48.986Z</time>
      </trkpt>
      <trkpt lat="46.18421" lon="10.41863">
        <ele>2021</ele>
        <time>2018-09-22T16:39:08.986Z</time>
      </trkpt>
      <trkpt lat="46.18414" lon="10.41871">
        <ele>2023.5862512091</ele>
        <time>2018-09-22T16:39:26.987Z</time>
      </trkpt>
      <trkpt lat="46.18405" lon="10.41878">
        <ele>2026</ele>
        <time>2018-09-22T16:39:43.988Z</time>
      </trkpt>
      <trkpt lat="46.18396" lon="10.41882">
        <ele>2028.0797360633</ele>
        <time>2018-09-22T16:40:01.987Z</time>
      </trkpt>
      <trkpt lat="46.18387" lon="10.41883">
        <ele>2029.6678225312</ele>
        <time>2018-09-22T16:40:18.002Z</time>
      </trkpt>
      <trkpt lat="46.18377" lon="10.41884">
        <ele>2030.9914764298</ele>
        <time>2018-09-22T16:40:30.988Z</time>
      </trkpt>
      <trkpt lat="46.18368" lon="10.41882">
        <ele>2033.7833984</ele>
        <time>2018-09-22T16:40:44.987Z</time>
      </trkpt>
      <trkpt lat="46.18359" lon="10.41882">
        <ele>2036.5879912531</ele>
        <time>2018-09-22T16:41:06.987Z</time>
      </trkpt>
      <trkpt lat="46.18351" lon="10.41877">
        <ele>2039.1716823266</ele>
        <time>2018-09-22T16:41:26.987Z</time>
      </trkpt>
      <trkpt lat="46.18344" lon="10.41868">
        <ele>2042.5921074841</ele>
        <time>2018-09-22T16:41:56.987Z</time>
      </trkpt>
      <trkpt lat="46.18336" lon="10.41872">
        <ele>2045.0805184443</ele>
        <time>2018-09-22T16:42:18.002Z</time>
      </trkpt>
      <trkpt lat="46.18331" lon="10.41862">
        <ele>2046.5839478097</ele>
        <time>2018-09-22T16:42:36.987Z</time>
      </trkpt>
      <trkpt lat="46.18329" lon="10.41848">
        <ele>2051.78360064</ele>
        <time>2018-09-22T16:43:04.988Z</time>
      </trkpt>
      <trkpt lat="46.18321" lon="10.41842">
        <ele>2054.8917077562</ele>
        <time>2018-09-22T16:43:49.986Z</time>
      </trkpt>
      <trkpt lat="46.18317" lon="10.4183">
        <ele>2055.9762376087</ele>
        <time>2018-09-22T16:44:06.000Z</time>
      </trkpt>
      <trkpt lat="46.18305" lon="10.41832">
        <ele>2062</ele>
        <time>2018-09-22T16:44:34.000Z</time>
      </trkpt>
      <trkpt lat="46.18303" lon="10.41819">
        <ele>2065.1765866667</ele>
        <time>2018-09-22T16:44:57.000Z</time>
      </trkpt>
      <trkpt lat="46.18306" lon="10.41807">
        <ele>2067.2767187258</ele>
        <time>2018-09-22T16:45:13.987Z</time>
      </trkpt>
      <trkpt lat="46.18315" lon="10.41799">
        <ele>2069.9734157699</ele>
        <time>2018-09-22T16:45:31.000Z</time>
      </trkpt>
      <trkpt lat="46.18314" lon="10.41786">
        <ele>2077</ele>
        <time>2018-09-22T16:46:25.000Z</time>
      </trkpt>
      <trkpt lat="46.18306" lon="10.41793">
        <ele>2079</ele>
        <time>2018-09-22T16:46:49.104Z</time>
      </trkpt>
      <trkpt lat="46.18298" lon="10.41784">
        <ele>2081.19270016</ele>
        <time>2018-09-22T16:47:02.997Z</time>
      </trkpt>
      <trkpt lat="46.18304" lon="10.41773">
        <ele>2082.5855586673</ele>
        <time>2018-09-22T16:47:16.990Z</time>
      </trkpt>
      <trkpt lat="46.18295" lon="10.41767">
        <ele>2093.8913481585</ele>
        <time>2018-09-22T16:48:40.000Z</time>
      </trkpt>
      <trkpt lat="46.18301" lon="10.41756">
        <ele>2099.6891761862</ele>
        <time>2018-09-22T16:49:18.000Z</time>
      </trkpt>
      <trkpt lat="46.18292" lon="10.4176">
        <ele>2101.39400064</ele>
        <time>2018-09-22T16:49:35.000Z</time>
      </trkpt>
      <trkpt lat="46.18282" lon="10.41759">
        <ele>2102.2857146411</ele>
        <time>2018-09-22T16:49:44.000Z</time>
      </trkpt>
      <trkpt lat="46.18272" lon="10.41758">
        <ele>2107.1923848929</ele>
        <time>2018-09-22T16:50:23.000Z</time>
      </trkpt>
      <trkpt lat="46.18264" lon="10.41763">
        <ele>2108.79400064</ele>
        <time>2018-09-22T16:50:39.000Z</time>
      </trkpt>
      <trkpt lat="46.18254" lon="10.41767">
        <ele>2111</ele>
        <time>2018-09-22T16:50:51.512Z</time>
      </trkpt>
      <trkpt lat="46.18244" lon="10.41764">
        <ele>2112.38738808</ele>
        <time>2018-09-22T16:51:08.000Z</time>
      </trkpt>
      <trkpt lat="46.18254" lon="10.41764">
        <ele>2113</ele>
        <time>2018-09-22T16:51:27.000Z</time>
      </trkpt>
      <trkpt lat="46.18258" lon="10.41753">
        <ele>2114.1905711344</ele>
        <time>2018-09-22T16:51:43.000Z</time>
      </trkpt>
      <trkpt lat="46.18263" lon="10.41742">
        <ele>2115.98599936</ele>
        <time>2018-09-22T16:51:56.000Z</time>
      </trkpt>
      <trkpt lat="46.18273" lon="10.41732">
        <ele>2117.8894419123</ele>
        <time>2018-09-22T16:52:10.000Z</time>
      </trkpt>
      <trkpt lat="46.18263" lon="10.41737">
        <ele>2122.1861857245</ele>
        <time>2018-09-22T16:52:42.000Z</time>
      </trkpt>
      <trkpt lat="46.18254" lon="10.41739">
        <ele>2123.38738808</ele>
        <time>2018-09-22T16:52:48.000Z</time>
      </trkpt>
      <trkpt lat="46.18263" lon="10.41723">
        <ele>2128.29400064</ele>
        <time>2018-09-22T16:53:24.000Z</time>
      </trkpt>
      <trkpt lat="46.18253" lon="10.41725">
        <ele>2130</ele>
        <time>2018-09-22T16:53:46.000Z</time>
      </trkpt>
      <trkpt lat="46.18244" lon="10.41728">
        <ele>2133.1871876874</ele>
        <time>2018-09-22T16:54:07.000Z</time>
      </trkpt>
      <trkpt lat="46.18251" lon="10.41719">
        <ele>2134.986111746</ele>
        <time>2018-09-22T16:54:21.000Z</time>
      </trkpt>
      <trkpt lat="46.18242" lon="10.41712">
        <ele>2141.4895938256</ele>
        <time>2018-09-22T16:55:06.000Z</time>
      </trkpt>
      <trkpt lat="46.18233" lon="10.41714">
        <ele>2144.2931211826</ele>
        <time>2018-09-22T16:55:34.000Z</time>
      </trkpt>
      <trkpt lat="46.18232" lon="10.417">
        <ele>2146.8895520259</ele>
        <time>2018-09-22T16:56:00.000Z</time>
      </trkpt>
      <trkpt lat="46.18223" lon="10.41704">
        <ele>2153.78200192</ele>
        <time>2018-09-22T16:56:37.000Z</time>
      </trkpt>
      <trkpt lat="46.18218" lon="10.41692">
        <ele>2158.78800128</ele>
        <time>2018-09-22T16:57:10.000Z</time>
      </trkpt>
      <trkpt lat="46.18226" lon="10.41685">
        <ele>2159.389713665</ele>
        <time>2018-09-22T16:57:15.000Z</time>
      </trkpt>
      <trkpt lat="46.18231" lon="10.41673">
        <ele>2163.1922700252</ele>
        <time>2018-09-22T16:57:43.000Z</time>
      </trkpt>
      <trkpt lat="46.1824" lon="10.41668">
        <ele>2164.2875882503</ele>
        <time>2018-09-22T16:57:54.000Z</time>
      </trkpt>
      <trkpt lat="46.18245" lon="10.41657">
        <ele>2166.3742578223</ele>
        <time>2018-09-22T16:58:08.000Z</time>
      </trkpt>
      <trkpt lat="46.18252" lon="10.41647">
        <ele>2169.9818201095</ele>
        <time>2018-09-22T16:58:21.000Z</time>
      </trkpt>
      <trkpt lat="46.1827" lon="10.41629">
        <ele>2171</ele>
        <time>2018-09-22T16:58:32.000Z</time>
      </trkpt>
      <trkpt lat="46.18259" lon="10.41632">
        <ele>2173.18800128</ele>
        <time>2018-09-22T16:58:57.000Z</time>
      </trkpt>
      <trkpt lat="46.18267" lon="10.41613">
        <ele>2177.134555314</ele>
        <time>2018-09-22T16:59:22.000Z</time>
      </trkpt>
      <trkpt lat="46.18261" lon="10.41602">
        <ele>2181</ele>
        <time>2018-09-22T16:59:54.000Z</time>
      </trkpt>
      <trkpt lat="46.1827" lon="10.41592">
        <ele>2182.39400064</ele>
        <time>2018-09-22T17:00:15.000Z</time>
      </trkpt>
      <trkpt lat="46.18278" lon="10.41582">
        <ele>2183.28200192</ele>
        <time>2018-09-22T17:00:22.000Z</time>
      </trkpt>
      <trkpt lat="46.18266" lon="10.41586">
        <ele>2186.2937066514</ele>
        <time>2018-09-22T17:00:34.000Z</time>
      </trkpt>
      <trkpt lat="46.18255" lon="10.41593">
        <ele>2186.4935066596</ele>
        <time>2018-09-22T17:00:36.000Z</time>
      </trkpt>
      <trkpt lat="46.18247" lon="10.41602">
        <ele>2186.99300668</ele>
        <time>2018-09-22T17:00:41.000Z</time>
      </trkpt>
      <trkpt lat="46.18238" lon="10.41607">
        <ele>2188.1871876874</ele>
        <time>2018-09-22T17:00:47.000Z</time>
      </trkpt>
      <trkpt lat="46.18244" lon="10.41596">
        <ele>2189.78800128</ele>
        <time>2018-09-22T17:00:55.000Z</time>
      </trkpt>
      <trkpt lat="46.18234" lon="10.41597">
        <ele>2193</ele>
        <time>2018-09-22T17:01:15.000Z</time>
      </trkpt>
      <trkpt lat="46.18222" lon="10.41596">
        <ele>2195.3920916681</ele>
        <time>2018-09-22T17:01:34.987Z</time>
      </trkpt>
      <trkpt lat="46.18228" lon="10.41586">
        <ele>2197.59400064</ele>
        <time>2018-09-22T17:01:57.000Z</time>
      </trkpt>
      <trkpt lat="46.18219" lon="10.41586">
        <ele>2200.5902413458</ele>
        <time>2018-09-22T17:02:16.987Z</time>
      </trkpt>
      <trkpt lat="46.18208" lon="10.41583">
        <ele>2203.1341550617</ele>
        <time>2018-09-22T17:02:32.002Z</time>
      </trkpt>
      <trkpt lat="46.18201" lon="10.41576">
        <ele>2208</ele>
        <time>2018-09-22T17:03:09.000Z</time>
      </trkpt>
      <trkpt lat="46.18191" lon="10.41578">
        <ele>2211</ele>
        <time>2018-09-22T17:03:22.000Z</time>
      </trkpt>
      <trkpt lat="46.18182" lon="10.41578">
        <ele>2211.8931066759</ele>
        <time>2018-09-22T17:03:40.000Z</time>
      </trkpt>
      <trkpt lat="46.18189" lon="10.41564">
        <ele>2216.7727019513</ele>
        <time>2018-09-22T17:04:00.101Z</time>
      </trkpt>
      <trkpt lat="46.18187" lon="10.4155">
        <ele>2221.1919924968</ele>
        <time>2018-09-22T17:04:32.988Z</time>
      </trkpt>
      <trkpt lat="46.18178" lon="10.41544">
        <ele>2227.39260032</ele>
        <time>2018-09-22T17:05:14.986Z</time>
      </trkpt>
      <trkpt lat="46.18176" lon="10.41531">
        <ele>2230.1664637398</ele>
        <time>2018-09-22T17:05:42.988Z</time>
      </trkpt>
      <trkpt lat="46.18167" lon="10.41534">
        <ele>2235.3910185332</ele>
        <time>2018-09-22T17:06:14.988Z</time>
      </trkpt>
      <trkpt lat="46.18158" lon="10.41531">
        <ele>2238.583519759</ele>
        <time>2018-09-22T17:06:38.988Z</time>
      </trkpt>
      <trkpt lat="46.18146" lon="10.4153">
        <ele>2242.3936066555</ele>
        <time>2018-09-22T17:06:55.000Z</time>
      </trkpt>
      <trkpt lat="46.18135" lon="10.41533">
        <ele>2243.5854141332</ele>
        <time>2018-09-22T17:07:04.000Z</time>
      </trkpt>
      <trkpt lat="46.18144" lon="10.41525">
        <ele>2248</ele>
        <time>2018-09-22T17:07:39.102Z</time>
      </trkpt>
      <trkpt lat="46.18132" lon="10.41533">
        <ele>2252.58800128</ele>
        <time>2018-09-22T17:08:04.000Z</time>
      </trkpt>
      <trkpt lat="46.18122" lon="10.41525">
        <ele>2256.0799200033</ele>
        <time>2018-09-22T17:08:18.000Z</time>
      </trkpt>
      <trkpt lat="46.18112" lon="10.41524">
        <ele>2261.4748965642</ele>
        <time>2018-09-22T17:08:55.998Z</time>
      </trkpt>
      <trkpt lat="46.18107" lon="10.41535">
        <ele>2262</ele>
        <time>2018-09-22T17:09:09.000Z</time>
      </trkpt>
      <trkpt lat="46.18106" lon="10.41521">
        <ele>2264.0583494943</ele>
        <time>2018-09-22T17:09:18.000Z</time>
      </trkpt>
      <trkpt lat="46.18097" lon="10.41521">
        <ele>2273</ele>
        <time>2018-09-22T17:10:05.988Z</time>
      </trkpt>
      <trkpt lat="46.18087" lon="10.41528">
        <ele>2274.5829967067</ele>
        <time>2018-09-22T17:10:19.000Z</time>
      </trkpt>
      <trkpt lat="46.18079" lon="10.41537">
        <ele>2275.787213311</ele>
        <time>2018-09-22T17:10:25.000Z</time>
      </trkpt>
      <trkpt lat="46.1807" lon="10.41536">
        <ele>2279.78800128</ele>
        <time>2018-09-22T17:10:50.000Z</time>
      </trkpt>
      <trkpt lat="46.18071" lon="10.41522">
        <ele>2285</ele>
        <time>2018-09-22T17:11:13.000Z</time>
      </trkpt>
      <trkpt lat="46.18079" lon="10.41516">
        <ele>2285</ele>
        <time>2018-09-22T17:11:20.000Z</time>
      </trkpt>
      <trkpt lat="46.18073" lon="10.41506">
        <ele>2294.3697226312</ele>
        <time>2018-09-22T17:12:08.000Z</time>
      </trkpt>
      <trkpt lat="46.18069" lon="10.41495">
        <ele>2299.3824696319</ele>
        <time>2018-09-22T17:12:38.000Z</time>
      </trkpt>
      <trkpt lat="46.18059" lon="10.41491">
        <ele>2307</ele>
        <time>2018-09-22T17:13:23.998Z</time>
      </trkpt>
      <trkpt lat="46.18053" lon="10.41481">
        <ele>2313.0654780952</ele>
        <time>2018-09-22T17:13:58.000Z</time>
      </trkpt>
      <trkpt lat="46.18046" lon="10.41471">
        <ele>2316.59400064</ele>
        <time>2018-09-22T17:14:17.000Z</time>
      </trkpt>
      <trkpt lat="46.18037" lon="10.41467">
        <ele>2321</ele>
        <time>2018-09-22T17:15:46.989Z</time>
      </trkpt>
      <trkpt lat="46.18029" lon="10.41473">
        <ele>2321.4903523927</ele>
        <time>2018-09-22T17:15:55.989Z</time>
      </trkpt>
      <trkpt lat="46.1802" lon="10.41481">
        <ele>2322</ele>
        <time>2018-09-22T17:16:04.988Z</time>
      </trkpt>
      <trkpt lat="46.18011" lon="10.41486">
        <ele>2323.18540032</ele>
        <time>2018-09-22T17:16:16.987Z</time>
      </trkpt>
      <trkpt lat="46.18002" lon="10.4149">
        <ele>2324.8931066759</ele>
        <time>2018-09-22T17:16:30.000Z</time>
      </trkpt>
      <trkpt lat="46.17994" lon="10.41497">
        <ele>2326.7851852991</ele>
        <time>2018-09-22T17:16:39.987Z</time>
      </trkpt>
      <trkpt lat="46.17987" lon="10.41505">
        <ele>2328.19280128</ele>
        <time>2018-09-22T17:16:52.988Z</time>
      </trkpt>
      <trkpt lat="46.17995" lon="10.415">
        <ele>2327.4085255474</ele>
        <time>2018-09-22T17:17:56.987Z</time>
      </trkpt>
      <trkpt lat="46.18003" lon="10.41493">
        <ele>2325.81459968</ele>
        <time>2018-09-22T17:18:06.987Z</time>
      </trkpt>
      <trkpt lat="46.18012" lon="10.41487">
        <ele>2324.2389531783</ele>
        <time>2018-09-22T17:18:14.987Z</time>
      </trkpt>
      <trkpt lat="46.18021" lon="10.41482">
        <ele>2322.6737586777</ele>
        <time>2018-09-22T17:18:22.959Z</time>
      </trkpt>
      <trkpt lat="46.18027" lon="10.41471">
        <ele>2321.2212786777</ele>
        <time>2018-09-22T17:18:29.989Z</time>
      </trkpt>
      <trkpt lat="46.18036" lon="10.41466">
        <ele>2321</ele>
        <time>2018-09-22T17:18:37.987Z</time>
      </trkpt>
      <trkpt lat="46.18046" lon="10.41463">
        <ele>2320.21459968</ele>
        <time>2018-09-22T17:18:44.987Z</time>
      </trkpt>
      <trkpt lat="46.18049" lon="10.4145">
        <ele>2316.32129664</ele>
        <time>2018-09-22T17:18:59.989Z</time>
      </trkpt>
      <trkpt lat="46.18044" lon="10.4144">
        <ele>2312.00617954</ele>
        <time>2018-09-22T17:19:20.999Z</time>
      </trkpt>
      <trkpt lat="46.18039" lon="10.41429">
        <ele>2305.5741842693</ele>
        <time>2018-09-22T17:19:37.987Z</time>
      </trkpt>
      <trkpt lat="46.18041" lon="10.41416">
        <ele>2301.7216</ele>
        <time>2018-09-22T17:19:51.988Z</time>
      </trkpt>
      <trkpt lat="46.18033" lon="10.41409">
        <ele>2297.8720716288</ele>
        <time>2018-09-22T17:20:23.997Z</time>
      </trkpt>
      <trkpt lat="46.18036" lon="10.41396">
        <ele>2294.2279047856</ele>
        <time>2018-09-22T17:20:34.988Z</time>
      </trkpt>
      <trkpt lat="46.18036" lon="10.41382">
        <ele>2290.22919936</ele>
        <time>2018-09-22T17:20:47.987Z</time>
      </trkpt>
      <trkpt lat="46.18035" lon="10.41369">
        <ele>2284.21419776</ele>
        <time>2018-09-22T17:21:09.989Z</time>
      </trkpt>
      <trkpt lat="46.18036" lon="10.41355">
        <ele>2279.82676</ele>
        <time>2018-09-22T17:21:21.987Z</time>
      </trkpt>
      <trkpt lat="46.18036" lon="10.41341">
        <ele>2276.2923985919</ele>
        <time>2018-09-22T17:21:39.989Z</time>
      </trkpt>
      <trkpt lat="46.18034" lon="10.41329">
        <ele>2271.0370119244</ele>
        <time>2018-09-22T17:21:50.989Z</time>
      </trkpt>
      <trkpt lat="46.18025" lon="10.4133">
        <ele>2265.2265037449</ele>
        <time>2018-09-22T17:22:16.988Z</time>
      </trkpt>
      <trkpt lat="46.18019" lon="10.41319">
        <ele>2259.52129664</ele>
        <time>2018-09-22T17:22:35.989Z</time>
      </trkpt>
      <trkpt lat="46.18017" lon="10.41305">
        <ele>2254.2673341936</ele>
        <time>2018-09-22T17:22:52.957Z</time>
      </trkpt>
      <trkpt lat="46.18016" lon="10.41292">
        <ele>2249.82129664</ele>
        <time>2018-09-22T17:23:04.989Z</time>
      </trkpt>
      <trkpt lat="46.18006" lon="10.41293">
        <ele>2243.9336957877</ele>
        <time>2018-09-22T17:23:27.989Z</time>
      </trkpt>
      <trkpt lat="46.17996" lon="10.4129">
        <ele>2235.92129664</ele>
        <time>2018-09-22T17:23:57.989Z</time>
      </trkpt>
      <trkpt lat="46.18" lon="10.41278">
        <ele>2234.2276267983</ele>
        <time>2018-09-22T17:24:39.000Z</time>
      </trkpt>
      <trkpt lat="46.17995" lon="10.41267">
        <ele>2227.61159936</ele>
        <time>2018-09-22T17:25:03.002Z</time>
      </trkpt>
      <trkpt lat="46.17994" lon="10.41253">
        <ele>2223.8216890881</ele>
        <time>2018-09-22T17:25:21.988Z</time>
      </trkpt>
      <trkpt lat="46.17992" lon="10.4124">
        <ele>2220.8407921801</ele>
        <time>2018-09-22T17:25:33.987Z</time>
      </trkpt>
      <trkpt lat="46.17984" lon="10.41236">
        <ele>2213.4124612725</ele>
        <time>2018-09-22T17:26:06.989Z</time>
      </trkpt>
      <trkpt lat="46.1798" lon="10.41224">
        <ele>2208.62879488</ele>
        <time>2018-09-22T17:26:26.988Z</time>
      </trkpt>
      <trkpt lat="46.17972" lon="10.41219">
        <ele>2200.71859712</ele>
        <time>2018-09-22T17:26:51.998Z</time>
      </trkpt>
      <trkpt lat="46.17966" lon="10.41207">
        <ele>2196.6144</ele>
        <time>2018-09-22T17:27:07.988Z</time>
      </trkpt>
      <trkpt lat="46.17959" lon="10.41199">
        <ele>2189.21439744</ele>
        <time>2018-09-22T17:27:34.988Z</time>
      </trkpt>
      <trkpt lat="46.1795" lon="10.41194">
        <ele>2178.21399808</ele>
        <time>2018-09-22T17:28:09.990Z</time>
      </trkpt>
      <trkpt lat="46.1794" lon="10.41195">
        <ele>2170.8421639125</ele>
        <time>2018-09-22T17:28:34.987Z</time>
      </trkpt>
      <trkpt lat="46.17935" lon="10.41183">
        <ele>2167.21739904</ele>
        <time>2018-09-22T17:28:47.002Z</time>
      </trkpt>
      <trkpt lat="46.17935" lon="10.41169">
        <ele>2163.62279936</ele>
        <time>2018-09-22T17:28:57.003Z</time>
      </trkpt>
      <trkpt lat="46.17927" lon="10.41162">
        <ele>2157.256973242</ele>
        <time>2018-09-22T17:29:17.987Z</time>
      </trkpt>
      <trkpt lat="46.17924" lon="10.4115">
        <ele>2154.531087022</ele>
        <time>2018-09-22T17:29:25.987Z</time>
      </trkpt>
      <trkpt lat="46.17917" lon="10.4114">
        <ele>2150.70729984</ele>
        <time>2018-09-22T17:29:53.987Z</time>
      </trkpt>
      <trkpt lat="46.17919" lon="10.41127">
        <ele>2141.9303616912</ele>
        <time>2018-09-22T17:33:37.996Z</time>
      </trkpt>
      <trkpt lat="46.17916" lon="10.41115">
        <ele>2134.5389218115</ele>
        <time>2018-09-22T17:34:00.000Z</time>
      </trkpt>
      <trkpt lat="46.17925" lon="10.4111">
        <ele>2129.0621339491</ele>
        <time>2018-09-22T17:34:20.986Z</time>
      </trkpt>
      <trkpt lat="46.17929" lon="10.41098">
        <ele>2120.4207716967</ele>
        <time>2018-09-22T17:35:03.988Z</time>
      </trkpt>
      <trkpt lat="46.17935" lon="10.41088">
        <ele>2112</ele>
        <time>2018-09-22T17:36:38.001Z</time>
      </trkpt>
      <trkpt lat="46.17942" lon="10.41079">
        <ele>2108.4144</ele>
        <time>2018-09-22T17:37:43.988Z</time>
      </trkpt>
      <trkpt lat="46.1795" lon="10.41072">
        <ele>2104.0458323809</ele>
        <time>2018-09-22T17:38:00.986Z</time>
      </trkpt>
      <trkpt lat="46.17942" lon="10.41066">
        <ele>2099.70709888</ele>
        <time>2018-09-22T17:38:23.989Z</time>
      </trkpt>
      <trkpt lat="46.17941" lon="10.41053">
        <ele>2095.4182976</ele>
        <time>2018-09-22T17:38:52.999Z</time>
      </trkpt>
      <trkpt lat="46.17933" lon="10.41045">
        <ele>2088.41479936</ele>
        <time>2018-09-22T17:39:28.986Z</time>
      </trkpt>
      <trkpt lat="46.17927" lon="10.41035">
        <ele>2085</ele>
        <time>2018-09-22T17:39:53.988Z</time>
      </trkpt>
      <trkpt lat="46.17921" lon="10.41026">
        <ele>2075.0181265107</ele>
        <time>2018-09-22T17:41:05.989Z</time>
      </trkpt>
      <trkpt lat="46.17914" lon="10.41017">
        <ele>2070.90699904</ele>
        <time>2018-09-22T17:41:21.990Z</time>
      </trkpt>
      <trkpt lat="46.17905" lon="10.41015">
        <ele>2067.4186488889</ele>
        <time>2018-09-22T17:41:43.990Z</time>
      </trkpt>
      <trkpt lat="46.17898" lon="10.41007">
        <ele>2061.60709888</ele>
        <time>2018-09-22T17:42:14.989Z</time>
      </trkpt>
      <trkpt lat="46.17893" lon="10.40996">
        <ele>2056.61199872</ele>
        <time>2018-09-22T17:42:43.000Z</time>
      </trkpt>
      <trkpt lat="46.17888" lon="10.40984">
        <ele>2054.20619904</ele>
        <time>2018-09-22T17:42:58.998Z</time>
      </trkpt>
      <trkpt lat="46.17885" lon="10.40971">
        <ele>2047</ele>
        <time>2018-09-22T17:43:39.989Z</time>
      </trkpt>
      <trkpt lat="46.17884" lon="10.40957">
        <ele>2040</ele>
        <time>2018-09-22T17:44:04.099Z</time>
      </trkpt>
      <trkpt lat="46.17879" lon="10.40947">
        <ele>2035.70709888</ele>
        <time>2018-09-22T17:44:33.989Z</time>
      </trkpt>
      <trkpt lat="46.17875" lon="10.40934">
        <ele>2027.7060992</ele>
        <time>2018-09-22T17:46:03.999Z</time>
      </trkpt>
      <trkpt lat="46.1787" lon="10.40922">
        <ele>2023.02129664</ele>
        <time>2018-09-22T17:46:30.989Z</time>
      </trkpt>
      <trkpt lat="46.17861" lon="10.40918">
        <ele>2018.4598996012</ele>
        <time>2018-09-22T17:46:54.000Z</time>
      </trkpt>
      <trkpt lat="46.17861" lon="10.40905">
        <ele>2012.4105362001</ele>
        <time>2018-09-22T17:47:26.990Z</time>
      </trkpt>
      <trkpt lat="46.17854" lon="10.40897">
        <ele>2010.0227938733</ele>
        <time>2018-09-22T17:47:45.990Z</time>
      </trkpt>
      <trkpt lat="46.17848" lon="10.40887">
        <ele>2004</ele>
        <time>2018-09-22T17:48:04.000Z</time>
      </trkpt>
      <trkpt lat="46.17839" lon="10.40888">
        <ele>2000.71799808</ele>
        <time>2018-09-22T17:48:32.000Z</time>
      </trkpt>
      <trkpt lat="46.17832" lon="10.40878">
        <ele>1994.82399744</ele>
        <time>2018-09-22T17:48:49.000Z</time>
      </trkpt>
      <trkpt lat="46.17825" lon="10.40869">
        <ele>1987.7080431514</ele>
        <time>2018-09-22T17:49:14.000Z</time>
      </trkpt>
      <trkpt lat="46.17818" lon="10.4086">
        <ele>1984.9274898457</ele>
        <time>2018-09-22T17:49:27.990Z</time>
      </trkpt>
      <trkpt lat="46.17812" lon="10.40851">
        <ele>1979.02099712</ele>
        <time>2018-09-22T17:49:50.990Z</time>
      </trkpt>
      <trkpt lat="46.17806" lon="10.40839">
        <ele>1974.2078306285</ele>
        <time>2018-09-22T17:50:08.990Z</time>
      </trkpt>
      <trkpt lat="46.17798" lon="10.40832">
        <ele>1969.0141109677</ele>
        <time>2018-09-22T17:50:30.990Z</time>
      </trkpt>
      <trkpt lat="46.1779" lon="10.40837">
        <ele>1964.69300096</ele>
        <time>2018-09-22T17:51:17.990Z</time>
      </trkpt>
      <trkpt lat="46.17789" lon="10.40824">
        <ele>1964.3077145059</ele>
        <time>2018-09-22T17:51:37.989Z</time>
      </trkpt>
      <trkpt lat="46.17793" lon="10.40811">
        <ele>1959.819008718</ele>
        <time>2018-09-22T17:52:02.960Z</time>
      </trkpt>
      <trkpt lat="46.17794" lon="10.40798">
        <ele>1957.21399808</ele>
        <time>2018-09-22T17:52:19.990Z</time>
      </trkpt>
      <trkpt lat="46.17787" lon="10.40787">
        <ele>1954.01199872</ele>
        <time>2018-09-22T17:52:41.000Z</time>
      </trkpt>
      <trkpt lat="46.1778" lon="10.40778">
        <ele>1948.2499961905</ele>
        <time>2018-09-22T17:52:57.990Z</time>
      </trkpt>
      <trkpt lat="46.17773" lon="10.40768">
        <ele>1944.8240878693</ele>
        <time>2018-09-22T17:53:26.989Z</time>
      </trkpt>
      <trkpt lat="46.1777" lon="10.40756">
        <ele>1941.4205716572</ele>
        <time>2018-09-22T17:53:43.989Z</time>
      </trkpt>
      <trkpt lat="46.1777" lon="10.40743">
        <ele>1936.0242643557</ele>
        <time>2018-09-22T17:54:01.000Z</time>
      </trkpt>
      <trkpt lat="46.17773" lon="10.40731">
        <ele>1936</ele>
        <time>2018-09-22T17:54:12.990Z</time>
      </trkpt>
      <trkpt lat="46.1777" lon="10.40719">
        <ele>1934.5300571429</ele>
        <time>2018-09-22T17:54:25.999Z</time>
      </trkpt>
      <trkpt lat="46.17778" lon="10.40712">
        <ele>1933</ele>
        <time>2018-09-22T17:54:41.000Z</time>
      </trkpt>
      <trkpt lat="46.17786" lon="10.40704">
        <ele>1933.89300096</ele>
        <time>2018-09-22T17:54:49.990Z</time>
      </trkpt>
      <trkpt lat="46.17777" lon="10.40719">
        <ele>1934</ele>
        <time>2018-09-22T17:54:59.000Z</time>
      </trkpt>
      <trkpt lat="46.17769" lon="10.40714">
        <ele>1933.50599936</ele>
        <time>2018-09-22T17:55:06.000Z</time>
      </trkpt>
      <trkpt lat="46.17764" lon="10.40702">
        <ele>1932.81419776</ele>
        <time>2018-09-22T17:55:31.989Z</time>
      </trkpt>
      <trkpt lat="46.17766" lon="10.40689">
        <ele>1929.5354944</ele>
        <time>2018-09-22T17:55:43.989Z</time>
      </trkpt>
      <trkpt lat="46.17769" lon="10.40675">
        <ele>1922.42839552</ele>
        <time>2018-09-22T17:55:59.989Z</time>
      </trkpt>
      <trkpt lat="46.17771" lon="10.40662">
        <ele>1920.41419776</ele>
        <time>2018-09-22T17:56:08.989Z</time>
      </trkpt>
      <trkpt lat="46.17772" lon="10.40647">
        <ele>1920</ele>
        <time>2018-09-22T17:56:20.999Z</time>
      </trkpt>
      <trkpt lat="46.17773" lon="10.40634">
        <ele>1916.4411904671</ele>
        <time>2018-09-22T17:56:29.989Z</time>
      </trkpt>
      <trkpt lat="46.17769" lon="10.40621">
        <ele>1915.20709888</ele>
        <time>2018-09-22T17:56:38.989Z</time>
      </trkpt>
      <trkpt lat="46.17769" lon="10.40607">
        <ele>1912.0374976</ele>
        <time>2018-09-22T17:56:46.985Z</time>
      </trkpt>
      <trkpt lat="46.1777" lon="10.40592">
        <ele>1908.8426892108</ele>
        <time>2018-09-22T17:56:53.988Z</time>
      </trkpt>
      <trkpt lat="46.17768" lon="10.40578">
        <ele>1905.6406900608</ele>
        <time>2018-09-22T17:57:02.955Z</time>
      </trkpt>
      <trkpt lat="46.17766" lon="10.40592">
        <ele>1904.6194327053</ele>
        <time>2018-09-22T17:57:08.000Z</time>
      </trkpt>
      <trkpt lat="46.17757" lon="10.406">
        <ele>1903.30749952</ele>
        <time>2018-09-22T17:57:17.985Z</time>
      </trkpt>
      <trkpt lat="46.17748" lon="10.40601">
        <ele>1901.8171681928</ele>
        <time>2018-09-22T17:57:32.991Z</time>
      </trkpt>
      <trkpt lat="46.17745" lon="10.40587">
        <ele>1896.7319600228</ele>
        <time>2018-09-22T17:57:51.999Z</time>
      </trkpt>
      <trkpt lat="46.17743" lon="10.40574">
        <ele>1894.0214036789</ele>
        <time>2018-09-22T17:58:00.989Z</time>
      </trkpt>
      <trkpt lat="46.1774" lon="10.40561">
        <ele>1889.826287507</ele>
        <time>2018-09-22T17:58:22.029Z</time>
      </trkpt>
      <trkpt lat="46.17736" lon="10.40549">
        <ele>1887.40599936</ele>
        <time>2018-09-22T17:58:37.000Z</time>
      </trkpt>
      <trkpt lat="46.17728" lon="10.40539">
        <ele>1883.62479616</ele>
        <time>2018-09-22T17:58:51.998Z</time>
      </trkpt>
      <trkpt lat="46.17724" lon="10.40527">
        <ele>1879.0231922079</ele>
        <time>2018-09-22T17:59:05.988Z</time>
      </trkpt>
      <trkpt lat="46.17723" lon="10.40513">
        <ele>1876</ele>
        <time>2018-09-22T17:59:55.000Z</time>
      </trkpt>
      <trkpt lat="46.17722" lon="10.405">
        <ele>1872.4523784127</ele>
        <time>2018-09-22T18:00:10.000Z</time>
      </trkpt>
      <trkpt lat="46.17716" lon="10.40489">
        <ele>1871.90599936</ele>
        <time>2018-09-22T18:00:22.000Z</time>
      </trkpt>
      <trkpt lat="46.17709" lon="10.4048">
        <ele>1870.70599936</ele>
        <time>2018-09-22T18:00:34.000Z</time>
      </trkpt>
      <trkpt lat="46.17704" lon="10.40469">
        <ele>1869.60599936</ele>
        <time>2018-09-22T18:00:45.000Z</time>
      </trkpt>
      <trkpt lat="46.17695" lon="10.40475">
        <ele>1868.72219904</ele>
        <time>2018-09-22T18:00:51.986Z</time>
      </trkpt>
      <trkpt lat="46.17689" lon="10.40486">
        <ele>1866.92219904</ele>
        <time>2018-09-22T18:00:57.986Z</time>
      </trkpt>
      <trkpt lat="46.17685" lon="10.40472">
        <ele>1864.4144</ele>
        <time>2018-09-22T18:01:13.988Z</time>
      </trkpt>
      <trkpt lat="46.17686" lon="10.40457">
        <ele>1863.01399808</ele>
        <time>2018-09-22T18:01:20.990Z</time>
      </trkpt>
      <trkpt lat="46.17681" lon="10.40446">
        <ele>1861.037944616</ele>
        <time>2018-09-22T18:01:30.988Z</time>
      </trkpt>
      <trkpt lat="46.17685" lon="10.40434">
        <ele>1860.0267219779</ele>
        <time>2018-09-22T18:01:35.988Z</time>
      </trkpt>
      <trkpt lat="46.17689" lon="10.4042">
        <ele>1858.7218107132</ele>
        <time>2018-09-22T18:01:41.991Z</time>
      </trkpt>
      <trkpt lat="46.17698" lon="10.40411">
        <ele>1856.9262955521</ele>
        <time>2018-09-22T18:01:48.000Z</time>
      </trkpt>
      <trkpt lat="46.17706" lon="10.40401">
        <ele>1856</ele>
        <time>2018-09-22T18:01:53.000Z</time>
      </trkpt>
      <trkpt lat="46.17716" lon="10.40398">
        <ele>1855.9128253866</ele>
        <time>2018-09-22T18:02:11.990Z</time>
      </trkpt>
      <trkpt lat="46.1771" lon="10.40387">
        <ele>1854.1353326214</ele>
        <time>2018-09-22T18:02:23.988Z</time>
      </trkpt>
      <trkpt lat="46.17699" lon="10.40392">
        <ele>1852.6389235219</ele>
        <time>2018-09-22T18:02:28.986Z</time>
      </trkpt>
      <trkpt lat="46.17689" lon="10.40395">
        <ele>1851.1575338348</ele>
        <time>2018-09-22T18:02:33.990Z</time>
      </trkpt>
      <trkpt lat="46.17682" lon="10.40386">
        <ele>1848.4613827642</ele>
        <time>2018-09-22T18:02:43.990Z</time>
      </trkpt>
      <trkpt lat="46.17674" lon="10.4038">
        <ele>1845.8764792407</ele>
        <time>2018-09-22T18:02:53.986Z</time>
      </trkpt>
      <trkpt lat="46.17673" lon="10.40367">
        <ele>1842.819210619</ele>
        <time>2018-09-22T18:03:02.958Z</time>
      </trkpt>
      <trkpt lat="46.17677" lon="10.40353">
        <ele>1841.1998014798</ele>
        <time>2018-09-22T18:03:15.105Z</time>
      </trkpt>
      <trkpt lat="46.1768" lon="10.4034">
        <ele>1838.8210303162</ele>
        <time>2018-09-22T18:03:27.000Z</time>
      </trkpt>
      <trkpt lat="46.17673" lon="10.40346">
        <ele>1835.42159616</ele>
        <time>2018-09-22T18:03:42.988Z</time>
      </trkpt>
      <trkpt lat="46.17664" lon="10.40361">
        <ele>1831</ele>
        <time>2018-09-22T18:04:03.000Z</time>
      </trkpt>
      <trkpt lat="46.17658" lon="10.40351">
        <ele>1829.81439744</ele>
        <time>2018-09-22T18:04:16.988Z</time>
      </trkpt>
      <trkpt lat="46.17661" lon="10.40334">
        <ele>1826.9448068226</ele>
        <time>2018-09-22T18:04:27.986Z</time>
      </trkpt>
      <trkpt lat="46.17659" lon="10.4032">
        <ele>1821.0386088387</ele>
        <time>2018-09-22T18:04:55.988Z</time>
      </trkpt>
      <trkpt lat="46.17662" lon="10.40302">
        <ele>1818.6087441451</ele>
        <time>2018-09-22T18:05:05.003Z</time>
      </trkpt>
      <trkpt lat="46.17666" lon="10.40288">
        <ele>1817.21139968</ele>
        <time>2018-09-22T18:05:15.003Z</time>
      </trkpt>
      <trkpt lat="46.17664" lon="10.40275">
        <ele>1814.41439744</ele>
        <time>2018-09-22T18:05:28.988Z</time>
      </trkpt>
      <trkpt lat="46.17669" lon="10.4026">
        <ele>1812.81859712</ele>
        <time>2018-09-22T18:05:34.998Z</time>
      </trkpt>
      <trkpt lat="46.17674" lon="10.40244">
        <ele>1810.6292283077</ele>
        <time>2018-09-22T18:05:42.988Z</time>
      </trkpt>
      <trkpt lat="46.17678" lon="10.40232">
        <ele>1808.7683306667</ele>
        <time>2018-09-22T18:05:52.016Z</time>
      </trkpt>
      <trkpt lat="46.17676" lon="10.40219">
        <ele>1804.50699904</ele>
        <time>2018-09-22T18:06:05.990Z</time>
      </trkpt>
      <trkpt lat="46.17668" lon="10.40212">
        <ele>1802.01439744</ele>
        <time>2018-09-22T18:06:20.988Z</time>
      </trkpt>
      <trkpt lat="46.17672" lon="10.402">
        <ele>1800.2316086002</ele>
        <time>2018-09-22T18:06:26.990Z</time>
      </trkpt>
      <trkpt lat="46.17668" lon="10.40188">
        <ele>1798.0070412923</ele>
        <time>2018-09-22T18:06:40.990Z</time>
      </trkpt>
      <trkpt lat="46.17672" lon="10.40176">
        <ele>1797.30699904</ele>
        <time>2018-09-22T18:06:47.990Z</time>
      </trkpt>
      <trkpt lat="46.17678" lon="10.40162">
        <ele>1796.61439744</ele>
        <time>2018-09-22T18:06:52.988Z</time>
      </trkpt>
      <trkpt lat="46.17683" lon="10.40149">
        <ele>1795.41479936</ele>
        <time>2018-09-22T18:06:58.986Z</time>
      </trkpt>
      <trkpt lat="46.17705" lon="10.40129">
        <ele>1795.99260032</ele>
        <time>2018-09-22T18:07:10.986Z</time>
      </trkpt>
      <trkpt lat="46.17668" lon="10.40177">
        <ele>1796</ele>
        <time>2018-09-22T18:07:16.000Z</time>
      </trkpt>
      <trkpt lat="46.17647" lon="10.40203">
        <ele>1796</ele>
        <time>2018-09-22T18:07:17.000Z</time>
      </trkpt>
      <trkpt lat="46.17638" lon="10.40212">
        <ele>1796</ele>
        <time>2018-09-22T18:07:18.000Z</time>
      </trkpt>
      <trkpt lat="46.1763" lon="10.40225">
        <ele>1796</ele>
        <time>2018-09-22T18:07:19.986Z</time>
      </trkpt>
      <trkpt lat="46.17626" lon="10.40243">
        <ele>1796</ele>
        <time>2018-09-22T18:07:24.000Z</time>
      </trkpt>
      <trkpt lat="46.17621" lon="10.40254">
        <ele>1796</ele>
        <time>2018-09-22T18:07:25.000Z</time>
      </trkpt>
      <trkpt lat="46.17617" lon="10.40268">
        <ele>1796</ele>
        <time>2018-09-22T18:07:26.000Z</time>
      </trkpt>
      <trkpt lat="46.17605" lon="10.4027">
        <ele>1796</ele>
        <time>2018-09-22T18:07:36.003Z</time>
      </trkpt>
      <trkpt lat="46.17597" lon="10.40287">
        <ele>1796</ele>
        <time>2018-09-22T18:07:38.986Z</time>
      </trkpt>
      <trkpt lat="46.17602" lon="10.40273">
        <ele>1796</ele>
        <time>2018-09-22T18:07:50.998Z</time>
      </trkpt>
      <trkpt lat="46.17602" lon="10.40259">
        <ele>1795.3109315769</ele>
        <time>2018-09-22T18:07:57.988Z</time>
      </trkpt>
      <trkpt lat="46.17601" lon="10.40245">
        <ele>1795.78560256</ele>
        <time>2018-09-22T18:08:04.988Z</time>
      </trkpt>
      <trkpt lat="46.17595" lon="10.40233">
        <ele>1797</ele>
        <time>2018-09-22T18:08:14.986Z</time>
      </trkpt>
      <trkpt lat="46.17596" lon="10.4022">
        <ele>1797.2031024975</ele>
        <time>2018-09-22T18:08:23.099Z</time>
      </trkpt>
      <trkpt lat="46.17589" lon="10.40212">
        <ele>1798.1867199809</ele>
        <time>2018-09-22T18:08:32.002Z</time>
      </trkpt>
      <trkpt lat="46.17598" lon="10.40231">
        <ele>1800</ele>
        <time>2018-09-22T18:08:43.000Z</time>
      </trkpt>
      <trkpt lat="46.17586" lon="10.4025">
        <ele>1800</ele>
        <time>2018-09-22T18:08:44.000Z</time>
      </trkpt>
      <trkpt lat="46.17591" lon="10.40229">
        <ele>1800</ele>
        <time>2018-09-22T18:08:48.000Z</time>
      </trkpt>
      <trkpt lat="46.17595" lon="10.40213">
        <ele>1800</ele>
        <time>2018-09-22T18:08:54.000Z</time>
      </trkpt>
      <trkpt lat="46.17594" lon="10.402">
        <ele>1800.0618251443</ele>
        <time>2018-09-22T18:09:02.016Z</time>
      </trkpt>
      <trkpt lat="46.17591" lon="10.40187">
        <ele>1800.9926360068</ele>
        <time>2018-09-22T18:09:10.989Z</time>
      </trkpt>
      <trkpt lat="46.17587" lon="10.40176">
        <ele>1801</ele>
        <time>2018-09-22T18:09:24.001Z</time>
      </trkpt>
      <trkpt lat="46.17581" lon="10.40165">
        <ele>1801.2922396412</ele>
        <time>2018-09-22T18:09:33.997Z</time>
      </trkpt>
      <trkpt lat="46.17577" lon="10.40153">
        <ele>1802</ele>
        <time>2018-09-22T18:09:44.004Z</time>
      </trkpt>
      <trkpt lat="46.17574" lon="10.40141">
        <ele>1802</ele>
        <time>2018-09-22T18:09:52.987Z</time>
      </trkpt>
      <trkpt lat="46.17567" lon="10.40152">
        <ele>1802.90729984</ele>
        <time>2018-09-22T18:10:11.987Z</time>
      </trkpt>
      <trkpt lat="46.17568" lon="10.40138">
        <ele>1802.40729984</ele>
        <time>2018-09-22T18:10:16.987Z</time>
      </trkpt>
      <trkpt lat="46.17564" lon="10.40126">
        <ele>1801.6165174608</ele>
        <time>2018-09-22T18:10:22.987Z</time>
      </trkpt>
      <trkpt lat="46.17564" lon="10.40113">
        <ele>1799.0196991547</ele>
        <time>2018-09-22T18:10:35.987Z</time>
      </trkpt>
      <trkpt lat="46.17566" lon="10.40099">
        <ele>1795.1923848929</ele>
        <time>2018-09-22T18:10:53.000Z</time>
      </trkpt>
      <trkpt lat="46.17566" lon="10.40085">
        <ele>1796.79400064</ele>
        <time>2018-09-22T18:11:09.000Z</time>
      </trkpt>
      <trkpt lat="46.17557" lon="10.40083">
        <ele>1795</ele>
        <time>2018-09-22T18:11:37.000Z</time>
      </trkpt>
      <trkpt lat="46.17555" lon="10.40069">
        <ele>1795</ele>
        <time>2018-09-22T18:11:43.986Z</time>
      </trkpt>
      <trkpt lat="46.17553" lon="10.40055">
        <ele>1794.61199872</ele>
        <time>2018-09-22T18:11:53.000Z</time>
      </trkpt>
      <trkpt lat="46.17552" lon="10.40042">
        <ele>1793.01479936</ele>
        <time>2018-09-22T18:12:00.986Z</time>
      </trkpt>
      <trkpt lat="46.17551" lon="10.40026">
        <ele>1793</ele>
        <time>2018-09-22T18:12:09.000Z</time>
      </trkpt>
      <trkpt lat="46.17542" lon="10.40023">
        <ele>1792.4958312119</ele>
        <time>2018-09-22T18:12:13.002Z</time>
      </trkpt>
      <trkpt lat="46.17535" lon="10.40013">
        <ele>1790</ele>
        <time>2018-09-22T18:12:21.986Z</time>
      </trkpt>
      <trkpt lat="46.17533" lon="10.39997">
        <ele>1789.30599936</ele>
        <time>2018-09-22T18:12:38.000Z</time>
      </trkpt>
      <trkpt lat="46.17535" lon="10.39984">
        <ele>1787.21459968</ele>
        <time>2018-09-22T18:12:49.987Z</time>
      </trkpt>
      <trkpt lat="46.1754" lon="10.39973">
        <ele>1783.4969943067</ele>
        <time>2018-09-22T18:13:06.100Z</time>
      </trkpt>
      <trkpt lat="46.17542" lon="10.39961">
        <ele>1783.7776235865</ele>
        <time>2018-09-22T18:13:24.987Z</time>
      </trkpt>
      <trkpt lat="46.17541" lon="10.39948">
        <ele>1788.1730127446</ele>
        <time>2018-09-22T18:14:11.989Z</time>
      </trkpt>
      <trkpt lat="46.17532" lon="10.39953">
        <ele>1788.9780466394</ele>
        <time>2018-09-22T18:14:15.986Z</time>
      </trkpt>
      <trkpt lat="46.17539" lon="10.39946">
        <ele>1790.58540032</ele>
        <time>2018-09-22T18:14:23.987Z</time>
      </trkpt>
      <trkpt lat="46.17545" lon="10.39936">
        <ele>1796</ele>
        <time>2018-09-22T18:14:53.000Z</time>
      </trkpt>
      <trkpt lat="46.17544" lon="10.39923">
        <ele>1799.9879424452</ele>
        <time>2018-09-22T18:15:31.002Z</time>
      </trkpt>
      <trkpt lat="46.17542" lon="10.3991">
        <ele>1801</ele>
        <time>2018-09-22T18:15:43.000Z</time>
      </trkpt>
      <trkpt lat="46.17545" lon="10.39897">
        <ele>1800.6161175408</ele>
        <time>2018-09-22T18:15:52.989Z</time>
      </trkpt>
      <trkpt lat="46.17542" lon="10.39883">
        <ele>1799.2234839656</ele>
        <time>2018-09-22T18:15:59.987Z</time>
      </trkpt>
      <trkpt lat="46.1754" lon="10.3987">
        <ele>1799.69270016</ele>
        <time>2018-09-22T18:16:17.987Z</time>
      </trkpt>
      <trkpt lat="46.1755" lon="10.39882">
        <ele>1800.79400064</ele>
        <time>2018-09-22T18:16:29.000Z</time>
      </trkpt>
      <trkpt lat="46.17538" lon="10.39884">
        <ele>1801</ele>
        <time>2018-09-22T18:16:32.000Z</time>
      </trkpt>
      <trkpt lat="46.1753" lon="10.39874">
        <ele>1800.8125610967</ele>
        <time>2018-09-22T18:16:42.000Z</time>
      </trkpt>
      <trkpt lat="46.17539" lon="10.39869">
        <ele>1798.1243718754</ele>
        <time>2018-09-22T18:16:54.000Z</time>
      </trkpt>
      <trkpt lat="46.17532" lon="10.3986">
        <ele>1792.592</ele>
        <time>2018-09-22T18:17:18.100Z</time>
      </trkpt>
      <trkpt lat="46.17527" lon="10.39848">
        <ele>1791.5112101587</ele>
        <time>2018-09-22T18:17:25.987Z</time>
      </trkpt>
      <trkpt lat="46.17521" lon="10.39838">
        <ele>1790.8128012903</ele>
        <time>2018-09-22T18:17:32.997Z</time>
      </trkpt>
      <trkpt lat="46.17518" lon="10.39825">
        <ele>1789.41419776</ele>
        <time>2018-09-22T18:17:43.989Z</time>
      </trkpt>
      <trkpt lat="46.17508" lon="10.3982">
        <ele>1787.61199872</ele>
        <time>2018-09-22T18:17:53.000Z</time>
      </trkpt>
      <trkpt lat="46.17506" lon="10.39807">
        <ele>1786.01419776</ele>
        <time>2018-09-22T18:18:00.989Z</time>
      </trkpt>
      <trkpt lat="46.17505" lon="10.39794">
        <ele>1786</ele>
        <time>2018-09-22T18:18:09.989Z</time>
      </trkpt>
      <trkpt lat="46.17508" lon="10.3978">
        <ele>1785.1090822457</ele>
        <time>2018-09-22T18:18:19.987Z</time>
      </trkpt>
      <trkpt lat="46.17505" lon="10.39767">
        <ele>1782.099417014</ele>
        <time>2018-09-22T18:18:31.000Z</time>
      </trkpt>
      <trkpt lat="46.17502" lon="10.39754">
        <ele>1779.80729984</ele>
        <time>2018-09-22T18:18:42.987Z</time>
      </trkpt>
      <trkpt lat="46.17496" lon="10.39743">
        <ele>1778.60599936</ele>
        <time>2018-09-22T18:18:55.000Z</time>
      </trkpt>
      <trkpt lat="46.17494" lon="10.3973">
        <ele>1778</ele>
        <time>2018-09-22T18:19:06.002Z</time>
      </trkpt>
      <trkpt lat="46.17489" lon="10.39718">
        <ele>1778.4929862881</ele>
        <time>2018-09-22T18:19:16.000Z</time>
      </trkpt>
      <trkpt lat="46.17484" lon="10.39706">
        <ele>1778.5067864228</ele>
        <time>2018-09-22T18:19:46.002Z</time>
      </trkpt>
      <trkpt lat="46.17479" lon="10.39695">
        <ele>1777.0136272633</ele>
        <time>2018-09-22T18:19:56.002Z</time>
      </trkpt>
      <trkpt lat="46.17471" lon="10.39688">
        <ele>1776</ele>
        <time>2018-09-22T18:20:18.002Z</time>
      </trkpt>
      <trkpt lat="46.17471" lon="10.39669">
        <ele>1773.0364992</ele>
        <time>2018-09-22T18:20:26.987Z</time>
      </trkpt>
      <trkpt lat="46.17468" lon="10.39657">
        <ele>1771</ele>
        <time>2018-09-22T18:20:38.000Z</time>
      </trkpt>
      <trkpt lat="46.17463" lon="10.39645">
        <ele>1767.0354944</ele>
        <time>2018-09-22T18:20:48.989Z</time>
      </trkpt>
      <trkpt lat="46.17456" lon="10.39635">
        <ele>1763.01739904</ele>
        <time>2018-09-22T18:21:01.002Z</time>
      </trkpt>
      <trkpt lat="46.17454" lon="10.39621">
        <ele>1762.9060933568</ele>
        <time>2018-09-22T18:21:12.000Z</time>
      </trkpt>
      <trkpt lat="46.17443" lon="10.39628">
        <ele>1762.1068933241</ele>
        <time>2018-09-22T18:21:20.000Z</time>
      </trkpt>
      <trkpt lat="46.17435" lon="10.39636">
        <ele>1762</ele>
        <time>2018-09-22T18:21:33.000Z</time>
      </trkpt>
      <trkpt lat="46.17437" lon="10.3962">
        <ele>1762</ele>
        <time>2018-09-22T18:21:41.000Z</time>
      </trkpt>
      <trkpt lat="46.17437" lon="10.39605">
        <ele>1761.3148145709</ele>
        <time>2018-09-22T18:21:48.000Z</time>
      </trkpt>
      <trkpt lat="46.17433" lon="10.39592">
        <ele>1760.60599936</ele>
        <time>2018-09-22T18:21:55.000Z</time>
      </trkpt>
      <trkpt lat="46.17423" lon="10.39587">
        <ele>1760.00599936</ele>
        <time>2018-09-22T18:22:01.000Z</time>
      </trkpt>
      <trkpt lat="46.17415" lon="10.39577">
        <ele>1760</ele>
        <time>2018-09-22T18:22:10.000Z</time>
      </trkpt>
      <trkpt lat="46.1741" lon="10.39566">
        <ele>1760</ele>
        <time>2018-09-22T18:22:17.000Z</time>
      </trkpt>
      <trkpt lat="46.17415" lon="10.39555">
        <ele>1759.5054940277</ele>
        <time>2018-09-22T18:22:26.000Z</time>
      </trkpt>
      <trkpt lat="46.17407" lon="10.39561">
        <ele>1758.81199872</ele>
        <time>2018-09-22T18:22:42.000Z</time>
      </trkpt>
      <trkpt lat="46.17401" lon="10.3955">
        <ele>1755.2268654549</ele>
        <time>2018-09-22T18:22:57.000Z</time>
      </trkpt>
      <trkpt lat="46.17394" lon="10.3954">
        <ele>1751.9453276789</ele>
        <time>2018-09-22T18:23:08.000Z</time>
      </trkpt>
      <trkpt lat="46.17384" lon="10.39537">
        <ele>1749.8210303162</ele>
        <time>2018-09-22T18:23:17.000Z</time>
      </trkpt>
      <trkpt lat="46.17391" lon="10.39525">
        <ele>1749.0121321778</ele>
        <time>2018-09-22T18:23:21.000Z</time>
      </trkpt>
      <trkpt lat="46.17383" lon="10.39515">
        <ele>1748.1183431206</ele>
        <time>2018-09-22T18:23:30.000Z</time>
      </trkpt>
      <trkpt lat="46.17373" lon="10.3952">
        <ele>1746.2352929722</ele>
        <time>2018-09-22T18:23:37.000Z</time>
      </trkpt>
      <trkpt lat="46.17369" lon="10.39508">
        <ele>1744.41199872</ele>
        <time>2018-09-22T18:23:44.000Z</time>
      </trkpt>
      <trkpt lat="46.17359" lon="10.39507">
        <ele>1741.81799808</ele>
        <time>2018-09-22T18:24:15.000Z</time>
      </trkpt>
      <trkpt lat="46.17349" lon="10.3951">
        <ele>1740.31799808</ele>
        <time>2018-09-22T18:24:20.000Z</time>
      </trkpt>
      <trkpt lat="46.17341" lon="10.39503">
        <ele>1738.6216476277</ele>
        <time>2018-09-22T18:24:28.000Z</time>
      </trkpt>
      <trkpt lat="46.17337" lon="10.39489">
        <ele>1737.1067466205</ele>
        <time>2018-09-22T18:24:40.000Z</time>
      </trkpt>
      <trkpt lat="46.17335" lon="10.39475">
        <ele>1735.6498058835</ele>
        <time>2018-09-22T18:24:48.000Z</time>
      </trkpt>
      <trkpt lat="46.1734" lon="10.39462">
        <ele>1734.6234569527</ele>
        <time>2018-09-22T18:24:55.000Z</time>
      </trkpt>
      <trkpt lat="46.17335" lon="10.39448">
        <ele>1733.6067860396</ele>
        <time>2018-09-22T18:25:05.000Z</time>
      </trkpt>
      <trkpt lat="46.17323" lon="10.39445">
        <ele>1732.6152302142</ele>
        <time>2018-09-22T18:25:13.000Z</time>
      </trkpt>
      <trkpt lat="46.17314" lon="10.3944">
        <ele>1731.4150280818</ele>
        <time>2018-09-22T18:25:18.989Z</time>
      </trkpt>
      <trkpt lat="46.17313" lon="10.39424">
        <ele>1728.8097493642</ele>
        <time>2018-09-22T18:25:33.003Z</time>
      </trkpt>
      <trkpt lat="46.17306" lon="10.39413">
        <ele>1728</ele>
        <time>2018-09-22T18:25:44.000Z</time>
      </trkpt>
      <trkpt lat="46.173" lon="10.39404">
        <ele>1728</ele>
        <time>2018-09-22T18:25:51.000Z</time>
      </trkpt>
      <trkpt lat="46.17301" lon="10.39391">
        <ele>1727.30599936</ele>
        <time>2018-09-22T18:25:58.000Z</time>
      </trkpt>
      <trkpt lat="46.17295" lon="10.3938">
        <ele>1726.1174730575</ele>
        <time>2018-09-22T18:26:10.000Z</time>
      </trkpt>
      <trkpt lat="46.17286" lon="10.39378">
        <ele>1726</ele>
        <time>2018-09-22T18:26:17.000Z</time>
      </trkpt>
      <trkpt lat="46.17281" lon="10.39367">
        <ele>1725.2068992</ele>
        <time>2018-09-22T18:26:28.991Z</time>
      </trkpt>
      <trkpt lat="46.17267" lon="10.39367">
        <ele>1723.234946115</ele>
        <time>2018-09-22T18:26:40.000Z</time>
      </trkpt>
      <trkpt lat="46.17262" lon="10.39354">
        <ele>1723</ele>
        <time>2018-09-22T18:26:49.000Z</time>
      </trkpt>
      <trkpt lat="46.1726" lon="10.3934">
        <ele>1722.1104479741</ele>
        <time>2018-09-22T18:27:00.000Z</time>
      </trkpt>
      <trkpt lat="46.17253" lon="10.39331">
        <ele>1722.6848907737</ele>
        <time>2018-09-22T18:27:08.000Z</time>
      </trkpt>
      <trkpt lat="46.17248" lon="10.3932">
        <ele>1723.09400064</ele>
        <time>2018-09-22T18:27:22.000Z</time>
      </trkpt>
      <trkpt lat="46.17252" lon="10.39306">
        <ele>1723.59400064</ele>
        <time>2018-09-22T18:27:27.000Z</time>
      </trkpt>
      <trkpt lat="46.17246" lon="10.39316">
        <ele>1724.69400064</ele>
        <time>2018-09-22T18:27:38.000Z</time>
      </trkpt>
      <trkpt lat="46.17236" lon="10.39325">
        <ele>1725</ele>
        <time>2018-09-22T18:27:42.000Z</time>
      </trkpt>
      <trkpt lat="46.17228" lon="10.39336">
        <ele>1725</ele>
        <time>2018-09-22T18:27:49.000Z</time>
      </trkpt>
      <trkpt lat="46.1724" lon="10.39327">
        <ele>1724.8127409263</ele>
        <time>2018-09-22T18:27:53.000Z</time>
      </trkpt>
      <trkpt lat="46.17242" lon="10.39312">
        <ele>1724.0405411082</ele>
        <time>2018-09-22T18:28:01.000Z</time>
      </trkpt>
      <trkpt lat="46.17243" lon="10.39298">
        <ele>1725.5697096361</ele>
        <time>2018-09-22T18:28:08.986Z</time>
      </trkpt>
      <trkpt lat="46.17242" lon="10.39283">
        <ele>1726</ele>
        <time>2018-09-22T18:28:17.000Z</time>
      </trkpt>
      <trkpt lat="46.17245" lon="10.3927">
        <ele>1725.60599936</ele>
        <time>2018-09-22T18:28:25.000Z</time>
      </trkpt>
      <trkpt lat="46.17244" lon="10.39256">
        <ele>1722.91799808</ele>
        <time>2018-09-22T18:28:38.000Z</time>
      </trkpt>
      <trkpt lat="46.17237" lon="10.39246">
        <ele>1721.2182526984</ele>
        <time>2018-09-22T18:28:45.000Z</time>
      </trkpt>
      <trkpt lat="46.17238" lon="10.39233">
        <ele>1720.2261892063</ele>
        <time>2018-09-22T18:28:50.000Z</time>
      </trkpt>
      <trkpt lat="46.17231" lon="10.39242">
        <ele>1722</ele>
        <time>2018-09-22T18:29:09.000Z</time>
      </trkpt>
      <trkpt lat="46.17235" lon="10.39229">
        <ele>1721</ele>
        <time>2018-09-22T18:29:28.000Z</time>
      </trkpt>
      <trkpt lat="46.17237" lon="10.39215">
        <ele>1720.60599936</ele>
        <time>2018-09-22T18:29:35.000Z</time>
      </trkpt>
      <trkpt lat="46.17233" lon="10.39203">
        <ele>1720</ele>
        <time>2018-09-22T18:29:44.000Z</time>
      </trkpt>
      <trkpt lat="46.17223" lon="10.39198">
        <ele>1720.977251204</ele>
        <time>2018-09-22T18:29:56.000Z</time>
      </trkpt>
      <trkpt lat="46.17214" lon="10.39204">
        <ele>1722.28614804</ele>
        <time>2018-09-22T18:30:04.000Z</time>
      </trkpt>
      <trkpt lat="46.17204" lon="10.39197">
        <ele>1723.78800128</ele>
        <time>2018-09-22T18:30:15.000Z</time>
      </trkpt>
      <trkpt lat="46.17202" lon="10.39184">
        <ele>1726.7856</ele>
        <time>2018-09-22T18:30:29.988Z</time>
      </trkpt>
      <trkpt lat="46.17206" lon="10.39171">
        <ele>1727</ele>
        <time>2018-09-22T18:30:37.000Z</time>
      </trkpt>
      <trkpt lat="46.17212" lon="10.39161">
        <ele>1727</ele>
        <time>2018-09-22T18:30:41.000Z</time>
      </trkpt>
      <trkpt lat="46.17213" lon="10.39147">
        <ele>1727.80599936</ele>
        <time>2018-09-22T18:30:53.000Z</time>
      </trkpt>
      <trkpt lat="46.17212" lon="10.39132">
        <ele>1727.1932274827</ele>
        <time>2018-09-22T18:31:03.000Z</time>
      </trkpt>
      <trkpt lat="46.17205" lon="10.39125">
        <ele>1728</ele>
        <time>2018-09-22T18:31:23.000Z</time>
      </trkpt>
      <trkpt lat="46.17206" lon="10.39109">
        <ele>1728</ele>
        <time>2018-09-22T18:31:30.000Z</time>
      </trkpt>
      <trkpt lat="46.1721" lon="10.39097">
        <ele>1728</ele>
        <time>2018-09-22T18:31:36.986Z</time>
      </trkpt>
      <trkpt lat="46.17209" lon="10.39082">
        <ele>1728</ele>
        <time>2018-09-22T18:31:46.000Z</time>
      </trkpt>
      <trkpt lat="46.17208" lon="10.39069">
        <ele>1728.1915751066</ele>
        <time>2018-09-22T18:31:53.000Z</time>
      </trkpt>
      <trkpt lat="46.17211" lon="10.39056">
        <ele>1729.20760064</ele>
        <time>2018-09-22T18:32:02.098Z</time>
      </trkpt>
      <trkpt lat="46.17212" lon="10.39043">
        <ele>1731.9939008</ele>
        <time>2018-09-22T18:32:20.999Z</time>
      </trkpt>
      <trkpt lat="46.17215" lon="10.3903">
        <ele>1732.8841745965</ele>
        <time>2018-09-22T18:32:29.999Z</time>
      </trkpt>
      <trkpt lat="46.17221" lon="10.39019">
        <ele>1733.7915074755</ele>
        <time>2018-09-22T18:32:38.998Z</time>
      </trkpt>
      <trkpt lat="46.17225" lon="10.39007">
        <ele>1735.19400064</ele>
        <time>2018-09-22T18:32:53.000Z</time>
      </trkpt>
      <trkpt lat="46.17225" lon="10.38993">
        <ele>1736.29400064</ele>
        <time>2018-09-22T18:33:04.000Z</time>
      </trkpt>
      <trkpt lat="46.17231" lon="10.38982">
        <ele>1737.79400064</ele>
        <time>2018-09-22T18:33:29.000Z</time>
      </trkpt>
      <trkpt lat="46.17223" lon="10.38975">
        <ele>1741.3777346305</ele>
        <time>2018-09-22T18:33:57.990Z</time>
      </trkpt>
      <trkpt lat="46.17214" lon="10.38984">
        <ele>1744</ele>
        <time>2018-09-22T18:34:12.000Z</time>
      </trkpt>
      <trkpt lat="46.17207" lon="10.38996">
        <ele>1744</ele>
        <time>2018-09-22T18:34:19.000Z</time>
      </trkpt>
      <trkpt lat="46.17197" lon="10.39002">
        <ele>1745.787149606</ele>
        <time>2018-09-22T18:34:30.000Z</time>
      </trkpt>
      <trkpt lat="46.17187" lon="10.39">
        <ele>1746.59400064</ele>
        <time>2018-09-22T18:34:37.000Z</time>
      </trkpt>
      <trkpt lat="46.17183" lon="10.38983">
        <ele>1747.3868406343</ele>
        <time>2018-09-22T18:34:43.000Z</time>
      </trkpt>
      <trkpt lat="46.1719" lon="10.38968">
        <ele>1747.9850458273</ele>
        <time>2018-09-22T18:34:46.000Z</time>
      </trkpt>
      <trkpt lat="46.172" lon="10.38958">
        <ele>1748.3838492893</ele>
        <time>2018-09-22T18:34:48.000Z</time>
      </trkpt>
      <trkpt lat="46.17206" lon="10.38947">
        <ele>1749</ele>
        <time>2018-09-22T18:34:53.000Z</time>
      </trkpt>
      <trkpt lat="46.17212" lon="10.38935">
        <ele>1749</ele>
        <time>2018-09-22T18:34:57.000Z</time>
      </trkpt>
      <trkpt lat="46.17206" lon="10.38924">
        <ele>1749</ele>
        <time>2018-09-22T18:35:06.097Z</time>
      </trkpt>
      <trkpt lat="46.17207" lon="10.38909">
        <ele>1749.19400064</ele>
        <time>2018-09-22T18:35:13.000Z</time>
      </trkpt>
      <trkpt lat="46.1721" lon="10.38895">
        <ele>1750.58800128</ele>
        <time>2018-09-22T18:35:24.000Z</time>
      </trkpt>
      <trkpt lat="46.17209" lon="10.38879">
        <ele>1752.29400064</ele>
        <time>2018-09-22T18:35:34.000Z</time>
      </trkpt>
      <trkpt lat="46.17202" lon="10.38867">
        <ele>1753.5922237791</ele>
        <time>2018-09-22T18:35:47.000Z</time>
      </trkpt>
      <trkpt lat="46.17209" lon="10.38858">
        <ele>1754.4900199665</ele>
        <time>2018-09-22T18:35:56.000Z</time>
      </trkpt>
      <trkpt lat="46.17202" lon="10.3885">
        <ele>1757.1868798811</ele>
        <time>2018-09-22T18:36:12.000Z</time>
      </trkpt>
      <trkpt lat="46.17199" lon="10.38837">
        <ele>1759.7806846073</ele>
        <time>2018-09-22T18:36:25.000Z</time>
      </trkpt>
      <trkpt lat="46.17196" lon="10.38825">
        <ele>1761.9885450345</ele>
        <time>2018-09-22T18:36:40.985Z</time>
      </trkpt>
      <trkpt lat="46.17194" lon="10.38809">
        <ele>1763</ele>
        <time>2018-09-22T18:36:57.000Z</time>
      </trkpt>
      <trkpt lat="46.17195" lon="10.38795">
        <ele>1763</ele>
        <time>2018-09-22T18:37:05.000Z</time>
      </trkpt>
      <trkpt lat="46.17196" lon="10.38781">
        <ele>1763</ele>
        <time>2018-09-22T18:37:14.000Z</time>
      </trkpt>
      <trkpt lat="46.17195" lon="10.38767">
        <ele>1763</ele>
        <time>2018-09-22T18:37:23.990Z</time>
      </trkpt>
      <trkpt lat="46.17196" lon="10.3875">
        <ele>1763.773808254</ele>
        <time>2018-09-22T18:37:35.000Z</time>
      </trkpt>
      <trkpt lat="46.17185" lon="10.38755">
        <ele>1765.9939277654</ele>
        <time>2018-09-22T18:37:51.000Z</time>
      </trkpt>
      <trkpt lat="46.17175" lon="10.38756">
        <ele>1766.99400064</ele>
        <time>2018-09-22T18:38:01.000Z</time>
      </trkpt>
      <trkpt lat="46.17172" lon="10.38743">
        <ele>1769.2911643903</ele>
        <time>2018-09-22T18:38:14.000Z</time>
      </trkpt>
      <trkpt lat="46.17171" lon="10.3873">
        <ele>1770.19400064</ele>
        <time>2018-09-22T18:38:23.000Z</time>
      </trkpt>
      <trkpt lat="46.17166" lon="10.38719">
        <ele>1771.19400064</ele>
        <time>2018-09-22T18:38:33.000Z</time>
      </trkpt>
      <trkpt lat="46.1716" lon="10.38709">
        <ele>1772.4905665174</ele>
        <time>2018-09-22T18:38:46.000Z</time>
      </trkpt>
      <trkpt lat="46.17156" lon="10.38697">
        <ele>1774.585096825</ele>
        <time>2018-09-22T18:38:59.000Z</time>
      </trkpt>
      <trkpt lat="46.17157" lon="10.38682">
        <ele>1775</ele>
        <time>2018-09-22T18:39:07.000Z</time>
      </trkpt>
      <trkpt lat="46.17153" lon="10.38669">
        <ele>1775.2908017279</ele>
        <time>2018-09-22T18:39:14.000Z</time>
      </trkpt>
      <trkpt lat="46.17152" lon="10.38656">
        <ele>1775.9831852872</ele>
        <time>2018-09-22T18:39:21.000Z</time>
      </trkpt>
      <trkpt lat="46.17152" lon="10.38642">
        <ele>1775.11709952</ele>
        <time>2018-09-22T18:39:29.999Z</time>
      </trkpt>
      <trkpt lat="46.1715" lon="10.38628">
        <ele>1774.3149442937</ele>
        <time>2018-09-22T18:39:38.000Z</time>
      </trkpt>
      <trkpt lat="46.17144" lon="10.38617">
        <ele>1773.3095754839</ele>
        <time>2018-09-22T18:39:47.989Z</time>
      </trkpt>
      <trkpt lat="46.17141" lon="10.38604">
        <ele>1773</ele>
        <time>2018-09-22T18:39:57.999Z</time>
      </trkpt>
      <trkpt lat="46.1714" lon="10.38591">
        <ele>1774.7856432876</ele>
        <time>2018-09-22T18:40:10.000Z</time>
      </trkpt>
      <trkpt lat="46.17134" lon="10.38581">
        <ele>1775</ele>
        <time>2018-09-22T18:40:21.000Z</time>
      </trkpt>
      <trkpt lat="46.17133" lon="10.38568">
        <ele>1778.37718442</ele>
        <time>2018-09-22T18:40:45.000Z</time>
      </trkpt>
      <trkpt lat="46.1713" lon="10.38554">
        <ele>1779.39400064</ele>
        <time>2018-09-22T18:41:05.000Z</time>
      </trkpt>
      <trkpt lat="46.1713" lon="10.38541">
        <ele>1781.9800784318</ele>
        <time>2018-09-22T18:41:21.000Z</time>
      </trkpt>
      <trkpt lat="46.17124" lon="10.38531">
        <ele>1783.29400064</ele>
        <time>2018-09-22T18:41:34.000Z</time>
      </trkpt>
      <trkpt lat="46.17115" lon="10.38527">
        <ele>1784</ele>
        <time>2018-09-22T18:41:44.000Z</time>
      </trkpt>
      <trkpt lat="46.1711" lon="10.38512">
        <ele>1784.78800128</ele>
        <time>2018-09-22T18:41:55.000Z</time>
      </trkpt>
      <trkpt lat="46.17104" lon="10.38501">
        <ele>1785.70599936</ele>
        <time>2018-09-22T18:42:04.000Z</time>
      </trkpt>
      <trkpt lat="46.17101" lon="10.38488">
        <ele>1785</ele>
        <time>2018-09-22T18:42:14.000Z</time>
      </trkpt>
      <trkpt lat="46.17098" lon="10.38474">
        <ele>1785.2937066514</ele>
        <time>2018-09-22T18:42:24.000Z</time>
      </trkpt>
      <trkpt lat="46.17089" lon="10.38465">
        <ele>1786.0930928622</ele>
        <time>2018-09-22T18:42:32.000Z</time>
      </trkpt>
      <trkpt lat="46.17089" lon="10.3845">
        <ele>1786.7937942363</ele>
        <time>2018-09-22T18:42:39.000Z</time>
      </trkpt>
      <trkpt lat="46.17085" lon="10.38438">
        <ele>1788.1832666986</ele>
        <time>2018-09-22T18:42:47.000Z</time>
      </trkpt>
      <trkpt lat="46.17082" lon="10.38426">
        <ele>1789</ele>
        <time>2018-09-22T18:42:58.000Z</time>
      </trkpt>
      <trkpt lat="46.17083" lon="10.38412">
        <ele>1789</ele>
        <time>2018-09-22T18:43:09.000Z</time>
      </trkpt>
      <trkpt lat="46.17075" lon="10.38408">
        <ele>1790.38800128</ele>
        <time>2018-09-22T18:43:18.000Z</time>
      </trkpt>
      <trkpt lat="46.17074" lon="10.38395">
        <ele>1793.0928858904</ele>
        <time>2018-09-22T18:43:32.000Z</time>
      </trkpt>
      <trkpt lat="46.17074" lon="10.38382">
        <ele>1794.2767415365</ele>
        <time>2018-09-22T18:43:44.000Z</time>
      </trkpt>
      <trkpt lat="46.17071" lon="10.38368">
        <ele>1795.5383836359</ele>
        <time>2018-09-22T18:43:54.000Z</time>
      </trkpt>
      <trkpt lat="46.17064" lon="10.38358">
        <ele>1797.0896180645</ele>
        <time>2018-09-22T18:44:02.029Z</time>
      </trkpt>
      <trkpt lat="46.17058" lon="10.38348">
        <ele>1798.18800128</ele>
        <time>2018-09-22T18:44:12.000Z</time>
      </trkpt>
      <trkpt lat="46.1705" lon="10.38337">
        <ele>1801.98016</ele>
        <time>2018-09-22T18:44:36.000Z</time>
      </trkpt>
      <trkpt lat="46.17044" lon="10.38327">
        <ele>1803</ele>
        <time>2018-09-22T18:44:44.000Z</time>
      </trkpt>
      <trkpt lat="46.17038" lon="10.38313">
        <ele>1803</ele>
        <time>2018-09-22T18:44:53.000Z</time>
      </trkpt>
      <trkpt lat="46.17036" lon="10.383">
        <ele>1803.09400064</ele>
        <time>2018-09-22T18:45:02.000Z</time>
      </trkpt>
      <trkpt lat="46.17032" lon="10.38287">
        <ele>1804</ele>
        <time>2018-09-22T18:45:13.000Z</time>
      </trkpt>
      <trkpt lat="46.17031" lon="10.38274">
        <ele>1804</ele>
        <time>2018-09-22T18:45:20.000Z</time>
      </trkpt>
      <trkpt lat="46.17027" lon="10.38263">
        <ele>1806.0866941936</ele>
        <time>2018-09-22T18:45:32.000Z</time>
      </trkpt>
      <trkpt lat="46.17021" lon="10.38252">
        <ele>1806.9929445161</ele>
        <time>2018-09-22T18:45:40.990Z</time>
      </trkpt>
      <trkpt lat="46.17026" lon="10.38241">
        <ele>1806.99400064</ele>
        <time>2018-09-22T18:46:11.000Z</time>
      </trkpt>
      <trkpt lat="46.17022" lon="10.38229">
        <ele>1807.89400064</ele>
        <time>2018-09-22T18:46:20.000Z</time>
      </trkpt>
      <trkpt lat="46.17019" lon="10.38215">
        <ele>1808.7833009728</ele>
        <time>2018-09-22T18:46:35.000Z</time>
      </trkpt>
      <trkpt lat="46.17014" lon="10.38204">
        <ele>1811.1630267492</ele>
        <time>2018-09-22T18:46:44.989Z</time>
      </trkpt>
      <trkpt lat="46.17013" lon="10.38191">
        <ele>1813.57617125</ele>
        <time>2018-09-22T18:46:57.000Z</time>
      </trkpt>
      <trkpt lat="46.1701" lon="10.38176">
        <ele>1816.58800128</ele>
        <time>2018-09-22T18:47:14.000Z</time>
      </trkpt>
      <trkpt lat="46.17008" lon="10.38164">
        <ele>1818</ele>
        <time>2018-09-22T18:47:23.000Z</time>
      </trkpt>
      <trkpt lat="46.17009" lon="10.3815">
        <ele>1819.1795389944</ele>
        <time>2018-09-22T18:47:37.000Z</time>
      </trkpt>
      <trkpt lat="46.17009" lon="10.38135">
        <ele>1821.7873633019</ele>
        <time>2018-09-22T18:47:50.000Z</time>
      </trkpt>
      <trkpt lat="46.1701" lon="10.38122">
        <ele>1825.5878016</ele>
        <time>2018-09-22T18:48:03.999Z</time>
      </trkpt>
      <trkpt lat="46.17008" lon="10.38107">
        <ele>1827.787213311</ele>
        <time>2018-09-22T18:48:15.000Z</time>
      </trkpt>
      <trkpt lat="46.17008" lon="10.38094">
        <ele>1830.5875884726</ele>
        <time>2018-09-22T18:48:29.000Z</time>
      </trkpt>
      <trkpt lat="46.17017" lon="10.38098">
        <ele>1832.98800128</ele>
        <time>2018-09-22T18:48:41.000Z</time>
      </trkpt>
      <trkpt lat="46.17027" lon="10.38104">
        <ele>1835.59400064</ele>
        <time>2018-09-22T18:48:57.000Z</time>
      </trkpt>
      <trkpt lat="46.17033" lon="10.38113">
        <ele>1836.59280128</ele>
        <time>2018-09-22T18:49:06.988Z</time>
      </trkpt>
      <trkpt lat="46.17041" lon="10.38122">
        <ele>1838.774949169</ele>
        <time>2018-09-22T18:49:19.988Z</time>
      </trkpt>
      <trkpt lat="46.17045" lon="10.38109">
        <ele>1841</ele>
        <time>2018-09-22T18:49:45.000Z</time>
      </trkpt>
      <trkpt lat="46.17052" lon="10.38101">
        <ele>1841</ele>
        <time>2018-09-22T18:54:00.000Z</time>
      </trkpt>
      <trkpt lat="46.17043" lon="10.38102">
        <ele>1842</ele>
        <time>2018-09-22T18:55:03.000Z</time>
      </trkpt>
      <trkpt lat="46.17052" lon="10.38105">
        <ele>1842</ele>
        <time>2018-09-22T19:01:42.000Z</time>
      </trkpt>
      <trkpt lat="46.17046" lon="10.38115">
        <ele>1841.70729984</ele>
        <time>2018-09-22T19:07:13.987Z</time>
      </trkpt>
      <trkpt lat="46.17037" lon="10.38107">
        <ele>1841</ele>
        <time>2018-09-22T19:07:23.000Z</time>
      </trkpt>
      <trkpt lat="46.17031" lon="10.38095">
        <ele>1841</ele>
        <time>2018-09-22T19:07:28.989Z</time>
      </trkpt>
      <trkpt lat="46.17024" lon="10.38085">
        <ele>1841</ele>
        <time>2018-09-22T19:07:35.987Z</time>
      </trkpt>
      <trkpt lat="46.17019" lon="10.38073">
        <ele>1841.3923074759</ele>
        <time>2018-09-22T19:07:44.987Z</time>
      </trkpt>
      <trkpt lat="46.17021" lon="10.3806">
        <ele>1842.3841848737</ele>
        <time>2018-09-22T19:07:52.989Z</time>
      </trkpt>
      <trkpt lat="46.17025" lon="10.38047">
        <ele>1843.9857880144</ele>
        <time>2018-09-22T19:08:00.989Z</time>
      </trkpt>
      <trkpt lat="46.17032" lon="10.38037">
        <ele>1844</ele>
        <time>2018-09-22T19:08:07.989Z</time>
      </trkpt>
      <trkpt lat="46.17039" lon="10.38028">
        <ele>1843.70729984</ele>
        <time>2018-09-22T19:08:13.987Z</time>
      </trkpt>
      <trkpt lat="46.17047" lon="10.38019">
        <ele>1843.00709888</ele>
        <time>2018-09-22T19:08:20.989Z</time>
      </trkpt>
      <trkpt lat="46.17053" lon="10.38008">
        <ele>1842.2120281752</ele>
        <time>2018-09-22T19:08:28.987Z</time>
      </trkpt>
      <trkpt lat="46.17061" lon="10.38">
        <ele>1841.4080472647</ele>
        <time>2018-09-22T19:08:37.004Z</time>
      </trkpt>
      <trkpt lat="46.1707" lon="10.37997">
        <ele>1840.7082661887</ele>
        <time>2018-09-22T19:08:43.989Z</time>
      </trkpt>
      <trkpt lat="46.1708" lon="10.37992">
        <ele>1840.0112560813</ele>
        <time>2018-09-22T19:08:50.987Z</time>
      </trkpt>
      <trkpt lat="46.17088" lon="10.37986">
        <ele>1840</ele>
        <time>2018-09-22T19:08:59.989Z</time>
      </trkpt>
      <trkpt lat="46.17096" lon="10.37979">
        <ele>1840</ele>
        <time>2018-09-22T19:09:07.989Z</time>
      </trkpt>
      <trkpt lat="46.17104" lon="10.37972">
        <ele>1836.8177301571</ele>
        <time>2018-09-22T19:09:22.989Z</time>
      </trkpt>
      <trkpt lat="46.17112" lon="10.37967">
        <ele>1834.61419776</ele>
        <time>2018-09-22T19:09:37.989Z</time>
      </trkpt>
      <trkpt lat="46.17121" lon="10.37961">
        <ele>1831.8325928902</ele>
        <time>2018-09-22T19:09:54.988Z</time>
      </trkpt>
      <trkpt lat="46.17128" lon="10.37954">
        <ele>1830</ele>
        <time>2018-09-22T19:10:06.996Z</time>
      </trkpt>
      <trkpt lat="46.17137" lon="10.37951">
        <ele>1829.21199872</ele>
        <time>2018-09-22T19:10:15.000Z</time>
      </trkpt>
      <trkpt lat="46.17146" lon="10.37956">
        <ele>1827.80599936</ele>
        <time>2018-09-22T19:10:23.000Z</time>
      </trkpt>
      <trkpt lat="46.17152" lon="10.37966">
        <ele>1826.41199872</ele>
        <time>2018-09-22T19:10:34.000Z</time>
      </trkpt>
      <trkpt lat="46.17162" lon="10.37969">
        <ele>1822.909910464</ele>
        <time>2018-09-22T19:10:52.000Z</time>
      </trkpt>
      <trkpt lat="46.17172" lon="10.37971">
        <ele>1822.2102097716</ele>
        <time>2018-09-22T19:10:58.990Z</time>
      </trkpt>
      <trkpt lat="46.17181" lon="10.37975">
        <ele>1821.3114766873</ele>
        <time>2018-09-22T19:11:07.989Z</time>
      </trkpt>
      <trkpt lat="46.17189" lon="10.37967">
        <ele>1818.21479936</ele>
        <time>2018-09-22T19:11:24.986Z</time>
      </trkpt>
      <trkpt lat="46.17192" lon="10.37955">
        <ele>1817.01419776</ele>
        <time>2018-09-22T19:11:30.989Z</time>
      </trkpt>
      <trkpt lat="46.172" lon="10.37946">
        <ele>1814.41799808</ele>
        <time>2018-09-22T19:11:43.000Z</time>
      </trkpt>
      <trkpt lat="46.17206" lon="10.37931">
        <ele>1810.2366862411</ele>
        <time>2018-09-22T19:12:00.000Z</time>
      </trkpt>
      <trkpt lat="46.17215" lon="10.37929">
        <ele>1808.2364740768</ele>
        <time>2018-09-22T19:12:10.000Z</time>
      </trkpt>
      <trkpt lat="46.17222" lon="10.37919">
        <ele>1806.9333329811</ele>
        <time>2018-09-22T19:12:22.016Z</time>
      </trkpt>
      <trkpt lat="46.1723" lon="10.3791">
        <ele>1804.5333333333</ele>
        <time>2018-09-22T19:12:35.988Z</time>
      </trkpt>
      <trkpt lat="46.17238" lon="10.37901">
        <ele>1800.2412767326</ele>
        <time>2018-09-22T19:12:57.000Z</time>
      </trkpt>
      <trkpt lat="46.17247" lon="10.37905">
        <ele>1795.01439744</ele>
        <time>2018-09-22T19:13:20.988Z</time>
      </trkpt>
      <trkpt lat="46.17252" lon="10.37894">
        <ele>1788.30599936</ele>
        <time>2018-09-22T19:13:58.000Z</time>
      </trkpt>
      <trkpt lat="46.17256" lon="10.37882">
        <ele>1783.9532940221</ele>
        <time>2018-09-22T19:14:17.986Z</time>
      </trkpt>
      <trkpt lat="46.17264" lon="10.37873">
        <ele>1780.4009802862</ele>
        <time>2018-09-22T19:14:29.998Z</time>
      </trkpt>
      <trkpt lat="46.17272" lon="10.37868">
        <ele>1778.4328210272</ele>
        <time>2018-09-22T19:14:39.000Z</time>
      </trkpt>
      <trkpt lat="46.17281" lon="10.37861">
        <ele>1772.51799808</ele>
        <time>2018-09-22T19:14:56.000Z</time>
      </trkpt>
      <trkpt lat="46.17289" lon="10.37845">
        <ele>1771</ele>
        <time>2018-09-22T19:15:09.000Z</time>
      </trkpt>
      <trkpt lat="46.17297" lon="10.37838">
        <ele>1770.2076606452</ele>
        <time>2018-09-22T19:15:19.000Z</time>
      </trkpt>
      <trkpt lat="46.17306" lon="10.37837">
        <ele>1769.40976139</ele>
        <time>2018-09-22T19:15:26.986Z</time>
      </trkpt>
      <trkpt lat="46.17313" lon="10.3783">
        <ele>1767.8176691633</ele>
        <time>2018-09-22T19:15:36.988Z</time>
      </trkpt>
      <trkpt lat="46.17321" lon="10.37823">
        <ele>1766.20739968</ele>
        <time>2018-09-22T19:15:48.986Z</time>
      </trkpt>
      <trkpt lat="46.17332" lon="10.37822">
        <ele>1762.78439936</ele>
        <time>2018-09-22T19:15:59.099Z</time>
      </trkpt>
      <trkpt lat="46.17338" lon="10.37812">
        <ele>1761</ele>
        <time>2018-09-22T19:16:49.991Z</time>
      </trkpt>
      <trkpt lat="46.17347" lon="10.37804">
        <ele>1756.60599936</ele>
        <time>2018-09-22T19:17:05.000Z</time>
      </trkpt>
      <trkpt lat="46.17355" lon="10.37797">
        <ele>1755.2204342857</ele>
        <time>2018-09-22T19:17:14.989Z</time>
      </trkpt>
      <trkpt lat="46.17364" lon="10.37789">
        <ele>1754</ele>
        <time>2018-09-22T19:17:24.988Z</time>
      </trkpt>
      <trkpt lat="46.17373" lon="10.37788">
        <ele>1753.4093555956</ele>
        <time>2018-09-22T19:17:36.991Z</time>
      </trkpt>
      <trkpt lat="46.1738" lon="10.37797">
        <ele>1750.3408141916</ele>
        <time>2018-09-22T19:17:49.986Z</time>
      </trkpt>
      <trkpt lat="46.17389" lon="10.37795">
        <ele>1746.4258204009</ele>
        <time>2018-09-22T19:18:04.001Z</time>
      </trkpt>
      <trkpt lat="46.174" lon="10.37799">
        <ele>1744.70599936</ele>
        <time>2018-09-22T19:18:24.000Z</time>
      </trkpt>
      <trkpt lat="46.17408" lon="10.37791">
        <ele>1737.22219904</ele>
        <time>2018-09-22T19:18:56.986Z</time>
      </trkpt>
      <trkpt lat="46.17417" lon="10.37788">
        <ele>1733.6155364264</ele>
        <time>2018-09-22T19:19:12.990Z</time>
      </trkpt>
      <trkpt lat="46.17425" lon="10.37795">
        <ele>1730.8170677167</ele>
        <time>2018-09-22T19:19:26.991Z</time>
      </trkpt>
      <trkpt lat="46.17434" lon="10.37791">
        <ele>1728.41439744</ele>
        <time>2018-09-22T19:19:38.988Z</time>
      </trkpt>
      <trkpt lat="46.1744" lon="10.37779">
        <ele>1727.138920608</ele>
        <time>2018-09-22T19:19:49.998Z</time>
      </trkpt>
      <trkpt lat="46.17447" lon="10.37767">
        <ele>1725.2476964578</ele>
        <time>2018-09-22T19:20:00.000Z</time>
      </trkpt>
      <trkpt lat="46.17456" lon="10.37765">
        <ele>1726.1732002999</ele>
        <time>2018-09-22T19:20:06.988Z</time>
      </trkpt>
      <trkpt lat="46.17465" lon="10.37759">
        <ele>1729.8816568794</ele>
        <time>2018-09-22T19:20:30.000Z</time>
      </trkpt>
      <trkpt lat="46.17474" lon="10.37767">
        <ele>1731</ele>
        <time>2018-09-22T19:20:47.000Z</time>
      </trkpt>
      <trkpt lat="46.17465" lon="10.37759">
        <ele>1731</ele>
        <time>2018-09-22T19:21:08.988Z</time>
      </trkpt>
      <trkpt lat="46.17465" lon="10.37746">
        <ele>1732.1924609524</ele>
        <time>2018-09-22T19:21:33.000Z</time>
      </trkpt>
      <trkpt lat="46.17474" lon="10.3774">
        <ele>1733</ele>
        <time>2018-09-22T19:21:42.000Z</time>
      </trkpt>
      <trkpt lat="46.17481" lon="10.37731">
        <ele>1731.5617284764</ele>
        <time>2018-09-22T19:21:56.000Z</time>
      </trkpt>
      <trkpt lat="46.17487" lon="10.37721">
        <ele>1729.10699904</ele>
        <time>2018-09-22T19:22:09.990Z</time>
      </trkpt>
      <trkpt lat="46.17496" lon="10.37717">
        <ele>1728.20619904</ele>
        <time>2018-09-22T19:22:18.998Z</time>
      </trkpt>
      <trkpt lat="46.17505" lon="10.37714">
        <ele>1726.6248</ele>
        <time>2018-09-22T19:22:27.991Z</time>
      </trkpt>
      <trkpt lat="46.17514" lon="10.3771">
        <ele>1723.929636129</ele>
        <time>2018-09-22T19:22:37.986Z</time>
      </trkpt>
      <trkpt lat="46.17521" lon="10.37701">
        <ele>1720.02479616</ele>
        <time>2018-09-22T19:22:55.998Z</time>
      </trkpt>
      <trkpt lat="46.17531" lon="10.377">
        <ele>1718</ele>
        <time>2018-09-22T19:23:03.986Z</time>
      </trkpt>
      <trkpt lat="46.1754" lon="10.37705">
        <ele>1717.2254274636</ele>
        <time>2018-09-22T19:23:14.988Z</time>
      </trkpt>
      <trkpt lat="46.1755" lon="10.37707">
        <ele>1714.01239808</ele>
        <time>2018-09-22T19:23:30.998Z</time>
      </trkpt>
      <trkpt lat="46.17559" lon="10.37698">
        <ele>1713.1050499136</ele>
        <time>2018-09-22T19:23:40.099Z</time>
      </trkpt>
      <trkpt lat="46.17568" lon="10.37696">
        <ele>1711.012119927</ele>
        <time>2018-09-22T19:23:51.000Z</time>
      </trkpt>
      <trkpt lat="46.17577" lon="10.37692">
        <ele>1709.21239808</ele>
        <time>2018-09-22T19:23:59.998Z</time>
      </trkpt>
      <trkpt lat="46.17586" lon="10.37687">
        <ele>1709</ele>
        <time>2018-09-22T19:24:06.987Z</time>
      </trkpt>
      <trkpt lat="46.17596" lon="10.3769">
        <ele>1707.41459968</ele>
        <time>2018-09-22T19:24:18.987Z</time>
      </trkpt>
      <trkpt lat="46.17604" lon="10.37697">
        <ele>1703.707362986</ele>
        <time>2018-09-22T19:24:34.001Z</time>
      </trkpt>
      <trkpt lat="46.17612" lon="10.37704">
        <ele>1702.8211059983</ele>
        <time>2018-09-22T19:24:42.000Z</time>
      </trkpt>
      <trkpt lat="46.17622" lon="10.37703">
        <ele>1698.4236316554</ele>
        <time>2018-09-22T19:25:00.000Z</time>
      </trkpt>
      <trkpt lat="46.17631" lon="10.37712">
        <ele>1698</ele>
        <time>2018-09-22T19:25:08.986Z</time>
      </trkpt>
      <trkpt lat="46.1764" lon="10.37714">
        <ele>1699.6348882011</ele>
        <time>2018-09-22T19:25:23.000Z</time>
      </trkpt>
      <trkpt lat="46.17648" lon="10.37708">
        <ele>1697.40699904</ele>
        <time>2018-09-22T19:25:36.990Z</time>
      </trkpt>
      <trkpt lat="46.17654" lon="10.377">
        <ele>1696.4068992</ele>
        <time>2018-09-22T19:25:46.991Z</time>
      </trkpt>
      <trkpt lat="46.17664" lon="10.377">
        <ele>1694.21399808</ele>
        <time>2018-09-22T19:25:59.990Z</time>
      </trkpt>
      <trkpt lat="46.17672" lon="10.37694">
        <ele>1691.0375129358</ele>
        <time>2018-09-22T19:26:21.000Z</time>
      </trkpt>
      <trkpt lat="46.17679" lon="10.37684">
        <ele>1688.7216</ele>
        <time>2018-09-22T19:26:31.988Z</time>
      </trkpt>
      <trkpt lat="46.17677" lon="10.37671">
        <ele>1686</ele>
        <time>2018-09-22T19:26:44.988Z</time>
      </trkpt>
      <trkpt lat="46.17673" lon="10.37659">
        <ele>1686</ele>
        <time>2018-09-22T19:26:56.002Z</time>
      </trkpt>
      <trkpt lat="46.17673" lon="10.37644">
        <ele>1686</ele>
        <time>2018-09-22T19:27:06.990Z</time>
      </trkpt>
      <trkpt lat="46.17677" lon="10.37631">
        <ele>1685.60719872</ele>
        <time>2018-09-22T19:27:14.988Z</time>
      </trkpt>
      <trkpt lat="46.17679" lon="10.37618">
        <ele>1685</ele>
        <time>2018-09-22T19:27:23.990Z</time>
      </trkpt>
      <trkpt lat="46.17679" lon="10.37604">
        <ele>1685</ele>
        <time>2018-09-22T19:27:31.990Z</time>
      </trkpt>
      <trkpt lat="46.17684" lon="10.37593">
        <ele>1685</ele>
        <time>2018-09-22T19:27:39.991Z</time>
      </trkpt>
      <trkpt lat="46.17691" lon="10.37582">
        <ele>1685.7916582513</ele>
        <time>2018-09-22T19:27:48.987Z</time>
      </trkpt>
      <trkpt lat="46.17696" lon="10.37571">
        <ele>1686</ele>
        <time>2018-09-22T19:28:01.988Z</time>
      </trkpt>
      <trkpt lat="46.177" lon="10.37559">
        <ele>1686</ele>
        <time>2018-09-22T19:28:12.000Z</time>
      </trkpt>
      <trkpt lat="46.17706" lon="10.37548">
        <ele>1685.90729984</ele>
        <time>2018-09-22T19:28:21.987Z</time>
      </trkpt>
      <trkpt lat="46.1771" lon="10.37535">
        <ele>1684.21399808</ele>
        <time>2018-09-22T19:28:34.990Z</time>
      </trkpt>
      <trkpt lat="46.17709" lon="10.37521">
        <ele>1682.6092539454</ele>
        <time>2018-09-22T19:28:44.987Z</time>
      </trkpt>
      <trkpt lat="46.1771" lon="10.37507">
        <ele>1681.8231154072</ele>
        <time>2018-09-22T19:28:51.990Z</time>
      </trkpt>
      <trkpt lat="46.17713" lon="10.37493">
        <ele>1680.0140684357</ele>
        <time>2018-09-22T19:29:00.990Z</time>
      </trkpt>
      <trkpt lat="46.17713" lon="10.3748">
        <ele>1680</ele>
        <time>2018-09-22T19:29:08.987Z</time>
      </trkpt>
      <trkpt lat="46.17716" lon="10.37466">
        <ele>1680.69420032</ele>
        <time>2018-09-22T19:29:18.002Z</time>
      </trkpt>
      <trkpt lat="46.17722" lon="10.37455">
        <ele>1680.20699904</ele>
        <time>2018-09-22T19:29:28.990Z</time>
      </trkpt>
      <trkpt lat="46.17729" lon="10.37445">
        <ele>1679.40729984</ele>
        <time>2018-09-22T19:29:36.987Z</time>
      </trkpt>
      <trkpt lat="46.17738" lon="10.3744">
        <ele>1678.7104737259</ele>
        <time>2018-09-22T19:29:43.990Z</time>
      </trkpt>
      <trkpt lat="46.17744" lon="10.37431">
        <ele>1678</ele>
        <time>2018-09-22T19:29:51.986Z</time>
      </trkpt>
      <trkpt lat="46.17748" lon="10.37419">
        <ele>1678</ele>
        <time>2018-09-22T19:30:00.988Z</time>
      </trkpt>
      <trkpt lat="46.17753" lon="10.37408">
        <ele>1676.5135761834</ele>
        <time>2018-09-22T19:30:15.991Z</time>
      </trkpt>
      <trkpt lat="46.17758" lon="10.37395">
        <ele>1675.60729984</ele>
        <time>2018-09-22T19:30:24.987Z</time>
      </trkpt>
      <trkpt lat="46.17763" lon="10.37384">
        <ele>1675</ele>
        <time>2018-09-22T19:30:35.000Z</time>
      </trkpt>
      <trkpt lat="46.17767" lon="10.37371">
        <ele>1675</ele>
        <time>2018-09-22T19:30:43.990Z</time>
      </trkpt>
      <trkpt lat="46.17771" lon="10.3736">
        <ele>1674.90699904</ele>
        <time>2018-09-22T19:30:51.990Z</time>
      </trkpt>
      <trkpt lat="46.17772" lon="10.37346">
        <ele>1674</ele>
        <time>2018-09-22T19:31:03.987Z</time>
      </trkpt>
      <trkpt lat="46.17772" lon="10.37332">
        <ele>1673.8205420155</ele>
        <time>2018-09-22T19:31:11.986Z</time>
      </trkpt>
      <trkpt lat="46.17773" lon="10.37319">
        <ele>1672.0744186046</ele>
        <time>2018-09-22T19:31:20.996Z</time>
      </trkpt>
      <trkpt lat="46.17779" lon="10.37308">
        <ele>1672</ele>
        <time>2018-09-22T19:31:29.988Z</time>
      </trkpt>
      <trkpt lat="46.17782" lon="10.37295">
        <ele>1671.3158430497</ele>
        <time>2018-09-22T19:31:37.990Z</time>
      </trkpt>
      <trkpt lat="46.1779" lon="10.37289">
        <ele>1670.01279744</ele>
        <time>2018-09-22T19:31:45.996Z</time>
      </trkpt>
      <trkpt lat="46.17793" lon="10.37277">
        <ele>1666.9374971429</ele>
        <time>2018-09-22T19:31:57.990Z</time>
      </trkpt>
      <trkpt lat="46.17794" lon="10.37264">
        <ele>1665.5099793548</ele>
        <time>2018-09-22T19:32:06.001Z</time>
      </trkpt>
      <trkpt lat="46.17795" lon="10.37249">
        <ele>1664.70599936</ele>
        <time>2018-09-22T19:32:14.000Z</time>
      </trkpt>
      <trkpt lat="46.17799" lon="10.37238">
        <ele>1663.61439744</ele>
        <time>2018-09-22T19:32:22.988Z</time>
      </trkpt>
      <trkpt lat="46.17806" lon="10.37229">
        <ele>1661.2202361905</ele>
        <time>2018-09-22T19:32:34.990Z</time>
      </trkpt>
      <trkpt lat="46.17807" lon="10.37215">
        <ele>1659.4095754839</ele>
        <time>2018-09-22T19:32:46.997Z</time>
      </trkpt>
      <trkpt lat="46.17812" lon="10.37201">
        <ele>1655.02839552</ele>
        <time>2018-09-22T19:33:00.989Z</time>
      </trkpt>
      <trkpt lat="46.17815" lon="10.37188">
        <ele>1655</ele>
        <time>2018-09-22T19:33:11.000Z</time>
      </trkpt>
      <trkpt lat="46.17817" lon="10.37174">
        <ele>1654.10599936</ele>
        <time>2018-09-22T19:33:20.000Z</time>
      </trkpt>
      <trkpt lat="46.17814" lon="10.37162">
        <ele>1653.01179904</ele>
        <time>2018-09-22T19:33:26.001Z</time>
      </trkpt>
      <trkpt lat="46.17816" lon="10.37149">
        <ele>1651.7072</ele>
        <time>2018-09-22T19:33:33.988Z</time>
      </trkpt>
      <trkpt lat="46.17818" lon="10.37136">
        <ele>1650.01199872</ele>
        <time>2018-09-22T19:33:46.000Z</time>
      </trkpt>
      <trkpt lat="46.17826" lon="10.37129">
        <ele>1646.6233760255</ele>
        <time>2018-09-22T19:33:58.990Z</time>
      </trkpt>
      <trkpt lat="46.17824" lon="10.37114">
        <ele>1646</ele>
        <time>2018-09-22T19:34:05.990Z</time>
      </trkpt>
      <trkpt lat="46.17829" lon="10.37103">
        <ele>1646</ele>
        <time>2018-09-22T19:34:17.986Z</time>
      </trkpt>
      <trkpt lat="46.1783" lon="10.37089">
        <ele>1643.6498491476</ele>
        <time>2018-09-22T19:34:37.986Z</time>
      </trkpt>
      <trkpt lat="46.17828" lon="10.37075">
        <ele>1642.3111336824</ele>
        <time>2018-09-22T19:34:47.986Z</time>
      </trkpt>
      <trkpt lat="46.17829" lon="10.37062">
        <ele>1639.31799808</ele>
        <time>2018-09-22T19:35:00.000Z</time>
      </trkpt>
      <trkpt lat="46.1783" lon="10.37048">
        <ele>1639</ele>
        <time>2018-09-22T19:35:09.000Z</time>
      </trkpt>
      <trkpt lat="46.17836" lon="10.37039">
        <ele>1637.22279936</ele>
        <time>2018-09-22T19:35:23.003Z</time>
      </trkpt>
      <trkpt lat="46.17833" lon="10.37026">
        <ele>1632.0297330143</ele>
        <time>2018-09-22T19:35:41.000Z</time>
      </trkpt>
      <trkpt lat="46.17832" lon="10.37012">
        <ele>1627.6423797948</ele>
        <time>2018-09-22T19:35:56.991Z</time>
      </trkpt>
      <trkpt lat="46.17831" lon="10.36999">
        <ele>1626</ele>
        <time>2018-09-22T19:36:05.998Z</time>
      </trkpt>
      <trkpt lat="46.17836" lon="10.36988">
        <ele>1624.6189055183</ele>
        <time>2018-09-22T19:36:18.000Z</time>
      </trkpt>
      <trkpt lat="46.1784" lon="10.36976">
        <ele>1621.81199872</ele>
        <time>2018-09-22T19:36:32.000Z</time>
      </trkpt>
      <trkpt lat="46.17846" lon="10.36964">
        <ele>1619.40599936</ele>
        <time>2018-09-22T19:36:47.000Z</time>
      </trkpt>
      <trkpt lat="46.1785" lon="10.36952">
        <ele>1616.6405145929</ele>
        <time>2018-09-22T19:36:57.000Z</time>
      </trkpt>
      <trkpt lat="46.17853" lon="10.3694">
        <ele>1615</ele>
        <time>2018-09-22T19:37:06.000Z</time>
      </trkpt>
      <trkpt lat="46.17859" lon="10.36929">
        <ele>1615</ele>
        <time>2018-09-22T19:37:15.000Z</time>
      </trkpt>
      <trkpt lat="46.17864" lon="10.36915">
        <ele>1614.2085016466</ele>
        <time>2018-09-22T19:37:29.000Z</time>
      </trkpt>
      <trkpt lat="46.17863" lon="10.36901">
        <ele>1613.4216159154</ele>
        <time>2018-09-22T19:37:37.000Z</time>
      </trkpt>
      <trkpt lat="46.17868" lon="10.3689">
        <ele>1613</ele>
        <time>2018-09-22T19:37:49.000Z</time>
      </trkpt>
      <trkpt lat="46.17876" lon="10.36881">
        <ele>1610.6272529874</ele>
        <time>2018-09-22T19:37:57.000Z</time>
      </trkpt>
      <trkpt lat="46.17885" lon="10.36874">
        <ele>1609</ele>
        <time>2018-09-22T19:38:01.996Z</time>
      </trkpt>
      <trkpt lat="46.17894" lon="10.36868">
        <ele>1609</ele>
        <time>2018-09-22T19:38:07.988Z</time>
      </trkpt>
      <trkpt lat="46.179" lon="10.36856">
        <ele>1609</ele>
        <time>2018-09-22T19:38:14.000Z</time>
      </trkpt>
      <trkpt lat="46.17903" lon="10.36843">
        <ele>1608.62399744</ele>
        <time>2018-09-22T19:38:22.000Z</time>
      </trkpt>
      <trkpt lat="46.1791" lon="10.36833">
        <ele>1605.02399744</ele>
        <time>2018-09-22T19:38:31.000Z</time>
      </trkpt>
      <trkpt lat="46.17916" lon="10.36821">
        <ele>1602.3366424352</ele>
        <time>2018-09-22T19:38:40.000Z</time>
      </trkpt>
      <trkpt lat="46.17924" lon="10.36814">
        <ele>1601.6114792706</ele>
        <time>2018-09-22T19:38:44.988Z</time>
      </trkpt>
      <trkpt lat="46.17931" lon="10.36804">
        <ele>1600.61399808</ele>
        <time>2018-09-22T19:38:52.990Z</time>
      </trkpt>
      <trkpt lat="46.1794" lon="10.36798">
        <ele>1599</ele>
        <time>2018-09-22T19:39:02.000Z</time>
      </trkpt>
      <trkpt lat="46.17947" lon="10.36789">
        <ele>1599</ele>
        <time>2018-09-22T19:39:09.000Z</time>
      </trkpt>
      <trkpt lat="46.17956" lon="10.36784">
        <ele>1600.3862016</ele>
        <time>2018-09-22T19:39:17.991Z</time>
      </trkpt>
      <trkpt lat="46.17967" lon="10.36782">
        <ele>1601.59300096</ele>
        <time>2018-09-22T19:39:26.990Z</time>
      </trkpt>
      <trkpt lat="46.17977" lon="10.3678">
        <ele>1603.18600192</ele>
        <time>2018-09-22T19:39:36.990Z</time>
      </trkpt>
      <trkpt lat="46.17986" lon="10.36777">
        <ele>1604</ele>
        <time>2018-09-22T19:39:46.000Z</time>
      </trkpt>
      <trkpt lat="46.17995" lon="10.36772">
        <ele>1603.12099712</ele>
        <time>2018-09-22T19:39:53.990Z</time>
      </trkpt>
      <trkpt lat="46.18002" lon="10.36763">
        <ele>1601.01799808</ele>
        <time>2018-09-22T19:40:01.000Z</time>
      </trkpt>
      <trkpt lat="46.18009" lon="10.36753">
        <ele>1601</ele>
        <time>2018-09-22T19:40:06.990Z</time>
      </trkpt>
      <trkpt lat="46.18014" lon="10.36741">
        <ele>1601.19300096</ele>
        <time>2018-09-22T19:40:12.990Z</time>
      </trkpt>
      <trkpt lat="46.18022" lon="10.36734">
        <ele>1601.99400064</ele>
        <time>2018-09-22T19:40:21.000Z</time>
      </trkpt>
      <trkpt lat="46.18032" lon="10.3673">
        <ele>1603.09400064</ele>
        <time>2018-09-22T19:40:32.000Z</time>
      </trkpt>
      <trkpt lat="46.18042" lon="10.36727">
        <ele>1603.99400064</ele>
        <time>2018-09-22T19:40:41.000Z</time>
      </trkpt>
      <trkpt lat="46.18053" lon="10.36729">
        <ele>1606.3377681352</ele>
        <time>2018-09-22T19:40:53.000Z</time>
      </trkpt>
      <trkpt lat="46.18062" lon="10.36729">
        <ele>1608.0885312441</ele>
        <time>2018-09-22T19:41:02.000Z</time>
      </trkpt>
      <trkpt lat="46.18071" lon="10.36723">
        <ele>1609.19400064</ele>
        <time>2018-09-22T19:41:13.000Z</time>
      </trkpt>
      <trkpt lat="46.18076" lon="10.36711">
        <ele>1610.1912711111</ele>
        <time>2018-09-22T19:41:22.988Z</time>
      </trkpt>
      <trkpt lat="46.18081" lon="10.367">
        <ele>1611</ele>
        <time>2018-09-22T19:41:31.990Z</time>
      </trkpt>
      <trkpt lat="46.1809" lon="10.36693">
        <ele>1611</ele>
        <time>2018-09-22T19:41:39.000Z</time>
      </trkpt>
      <trkpt lat="46.18096" lon="10.36683">
        <ele>1611</ele>
        <time>2018-09-22T19:41:44.990Z</time>
      </trkpt>
      <trkpt lat="46.18105" lon="10.36675">
        <ele>1611</ele>
        <time>2018-09-22T19:41:50.990Z</time>
      </trkpt>
      <trkpt lat="46.18114" lon="10.36666">
        <ele>1608.258157307</ele>
        <time>2018-09-22T19:41:57.990Z</time>
      </trkpt>
      <trkpt lat="46.18123" lon="10.36658">
        <ele>1607</ele>
        <time>2018-09-22T19:42:03.000Z</time>
      </trkpt>
      <trkpt lat="46.18131" lon="10.36644">
        <ele>1607</ele>
        <time>2018-09-22T19:42:09.000Z</time>
      </trkpt>
      <trkpt lat="46.18137" lon="10.36634">
        <ele>1605.8280296919</ele>
        <time>2018-09-22T19:42:14.990Z</time>
      </trkpt>
      <trkpt lat="46.18144" lon="10.36623">
        <ele>1604.0387664167</ele>
        <time>2018-09-22T19:42:20.990Z</time>
      </trkpt>
      <trkpt lat="46.18152" lon="10.36614">
        <ele>1603.0201194496</ele>
        <time>2018-09-22T19:42:25.990Z</time>
      </trkpt>
      <trkpt lat="46.1816" lon="10.36607">
        <ele>1602.0140825845</ele>
        <time>2018-09-22T19:42:30.990Z</time>
      </trkpt>
      <trkpt lat="46.18168" lon="10.36596">
        <ele>1600.81399808</ele>
        <time>2018-09-22T19:42:36.990Z</time>
      </trkpt>
      <trkpt lat="46.18175" lon="10.36585">
        <ele>1600</ele>
        <time>2018-09-22T19:42:41.990Z</time>
      </trkpt>
      <trkpt lat="46.18184" lon="10.36571">
        <ele>1600</ele>
        <time>2018-09-22T19:42:49.000Z</time>
      </trkpt>
      <trkpt lat="46.18192" lon="10.36565">
        <ele>1598.8288</ele>
        <time>2018-09-22T19:42:53.988Z</time>
      </trkpt>
      <trkpt lat="46.18202" lon="10.36558">
        <ele>1596.82799616</ele>
        <time>2018-09-22T19:42:58.990Z</time>
      </trkpt>
      <trkpt lat="46.18209" lon="10.36549">
        <ele>1595.2225502758</ele>
        <time>2018-09-22T19:43:04.990Z</time>
      </trkpt>
      <trkpt lat="46.18218" lon="10.36539">
        <ele>1594.0336294256</ele>
        <time>2018-09-22T19:43:11.000Z</time>
      </trkpt>
      <trkpt lat="46.18226" lon="10.36535">
        <ele>1593.2275009836</ele>
        <time>2018-09-22T19:43:14.990Z</time>
      </trkpt>
      <trkpt lat="46.18236" lon="10.36528">
        <ele>1592.1945393552</ele>
        <time>2018-09-22T19:43:20.098Z</time>
      </trkpt>
      <trkpt lat="46.18245" lon="10.36522">
        <ele>1590.8221760746</ele>
        <time>2018-09-22T19:43:24.990Z</time>
      </trkpt>
      <trkpt lat="46.18253" lon="10.3651">
        <ele>1589.3206799722</ele>
        <time>2018-09-22T19:43:30.000Z</time>
      </trkpt>
      <trkpt lat="46.18261" lon="10.36502">
        <ele>1588.6149309956</ele>
        <time>2018-09-22T19:43:34.990Z</time>
      </trkpt>
      <trkpt lat="46.18268" lon="10.36491">
        <ele>1588.0245576579</ele>
        <time>2018-09-22T19:43:41.000Z</time>
      </trkpt>
      <trkpt lat="46.18275" lon="10.36484">
        <ele>1587.2354731043</ele>
        <time>2018-09-22T19:43:45.000Z</time>
      </trkpt>
      <trkpt lat="46.18283" lon="10.36475">
        <ele>1586.4220165291</ele>
        <time>2018-09-22T19:43:48.990Z</time>
      </trkpt>
      <trkpt lat="46.18292" lon="10.36466">
        <ele>1584.0928407936</ele>
        <time>2018-09-22T19:43:55.990Z</time>
      </trkpt>
      <trkpt lat="46.18302" lon="10.36469">
        <ele>1582.15937847</ele>
        <time>2018-09-22T19:44:00.988Z</time>
      </trkpt>
      <trkpt lat="46.1831" lon="10.36476">
        <ele>1581.0501042154</ele>
        <time>2018-09-22T19:44:05.988Z</time>
      </trkpt>
      <trkpt lat="46.1832" lon="10.36479">
        <ele>1579.59239936</ele>
        <time>2018-09-22T19:44:13.098Z</time>
      </trkpt>
      <trkpt lat="46.1833" lon="10.36482">
        <ele>1578.81239808</ele>
        <time>2018-09-22T19:44:16.998Z</time>
      </trkpt>
      <trkpt lat="46.18339" lon="10.36484">
        <ele>1577.90599936</ele>
        <time>2018-09-22T19:44:22.000Z</time>
      </trkpt>
      <trkpt lat="46.18348" lon="10.36491">
        <ele>1577.30699904</ele>
        <time>2018-09-22T19:44:27.990Z</time>
      </trkpt>
      <trkpt lat="46.18355" lon="10.36503">
        <ele>1577</ele>
        <time>2018-09-22T19:44:34.990Z</time>
      </trkpt>
      <trkpt lat="46.18361" lon="10.36512">
        <ele>1577</ele>
        <time>2018-09-22T19:44:38.990Z</time>
      </trkpt>
      <trkpt lat="46.18368" lon="10.3652">
        <ele>1576.22879488</ele>
        <time>2018-09-22T19:44:42.988Z</time>
      </trkpt>
      <trkpt lat="46.18377" lon="10.36529">
        <ele>1574.62399744</ele>
        <time>2018-09-22T19:44:47.000Z</time>
      </trkpt>
      <trkpt lat="46.18385" lon="10.36539">
        <ele>1572.98479872</ele>
        <time>2018-09-22T19:44:51.098Z</time>
      </trkpt>
      <trkpt lat="46.18393" lon="10.36548">
        <ele>1571.42479616</ele>
        <time>2018-09-22T19:44:54.998Z</time>
      </trkpt>
      <trkpt lat="46.18398" lon="10.36559">
        <ele>1569.82879488</ele>
        <time>2018-09-22T19:44:58.988Z</time>
      </trkpt>
      <trkpt lat="46.18407" lon="10.36575">
        <ele>1569</ele>
        <time>2018-09-22T19:45:04.000Z</time>
      </trkpt>
      <trkpt lat="46.18413" lon="10.36585">
        <ele>1569</ele>
        <time>2018-09-22T19:45:07.000Z</time>
      </trkpt>
      <trkpt lat="46.1842" lon="10.36594">
        <ele>1568.90699904</ele>
        <time>2018-09-22T19:45:11.990Z</time>
      </trkpt>
      <trkpt lat="46.1843" lon="10.36595">
        <ele>1568.30619904</ele>
        <time>2018-09-22T19:45:17.998Z</time>
      </trkpt>
      <trkpt lat="46.1844" lon="10.366">
        <ele>1567</ele>
        <time>2018-09-22T19:45:33.000Z</time>
      </trkpt>
      <trkpt lat="46.18448" lon="10.36606">
        <ele>1567</ele>
        <time>2018-09-22T19:45:39.990Z</time>
      </trkpt>
      <trkpt lat="46.18456" lon="10.36615">
        <ele>1568.59400064</ele>
        <time>2018-09-22T19:45:57.000Z</time>
      </trkpt>
      <trkpt lat="46.18459" lon="10.3663">
        <ele>1569.99400064</ele>
        <time>2018-09-22T19:46:11.000Z</time>
      </trkpt>
      <trkpt lat="46.18469" lon="10.36636">
        <ele>1571</ele>
        <time>2018-09-22T19:46:22.000Z</time>
      </trkpt>
      <trkpt lat="46.18477" lon="10.36642">
        <ele>1571</ele>
        <time>2018-09-22T19:46:31.000Z</time>
      </trkpt>
      <trkpt lat="46.18483" lon="10.36652">
        <ele>1571</ele>
        <time>2018-09-22T19:46:38.000Z</time>
      </trkpt>
      <trkpt lat="46.18492" lon="10.36661">
        <ele>1571.8784</ele>
        <time>2018-09-22T19:46:43.988Z</time>
      </trkpt>
      <trkpt lat="46.18497" lon="10.36673">
        <ele>1574.09380096</ele>
        <time>2018-09-22T19:46:51.998Z</time>
      </trkpt>
      <trkpt lat="46.18506" lon="10.36682">
        <ele>1574.79400064</ele>
        <time>2018-09-22T19:46:59.000Z</time>
      </trkpt>
      <trkpt lat="46.18512" lon="10.36691">
        <ele>1575.3813602291</ele>
        <time>2018-09-22T19:47:04.988Z</time>
      </trkpt>
      <trkpt lat="46.18517" lon="10.36703">
        <ele>1576.0688666846</ele>
        <time>2018-09-22T19:47:12.028Z</time>
      </trkpt>
      <trkpt lat="46.18523" lon="10.36715">
        <ele>1577.09400064</ele>
        <time>2018-09-22T19:47:22.000Z</time>
      </trkpt>
      <trkpt lat="46.18529" lon="10.36727">
        <ele>1578</ele>
        <time>2018-09-22T19:47:31.998Z</time>
      </trkpt>
      <trkpt lat="46.18532" lon="10.3674">
        <ele>1578</ele>
        <time>2018-09-22T19:47:40.988Z</time>
      </trkpt>
      <trkpt lat="46.1854" lon="10.3675">
        <ele>1578</ele>
        <time>2018-09-22T19:47:48.000Z</time>
      </trkpt>
      <trkpt lat="46.18548" lon="10.36755">
        <ele>1579.18800128</ele>
        <time>2018-09-22T19:48:02.000Z</time>
      </trkpt>
      <trkpt lat="46.18556" lon="10.36764">
        <ele>1580.78600192</ele>
        <time>2018-09-22T19:48:09.990Z</time>
      </trkpt>
      <trkpt lat="46.18567" lon="10.36766">
        <ele>1582.19400064</ele>
        <time>2018-09-22T19:48:23.000Z</time>
      </trkpt>
      <trkpt lat="46.18577" lon="10.36774">
        <ele>1582.99400064</ele>
        <time>2018-09-22T19:48:31.000Z</time>
      </trkpt>
      <trkpt lat="46.18586" lon="10.36784">
        <ele>1584.0900970314</ele>
        <time>2018-09-22T19:48:41.988Z</time>
      </trkpt>
      <trkpt lat="46.18589" lon="10.36798">
        <ele>1584.8667955779</ele>
        <time>2018-09-22T19:48:49.988Z</time>
      </trkpt>
      <trkpt lat="46.18594" lon="10.36811">
        <ele>1586.5748470597</ele>
        <time>2018-09-22T19:48:58.998Z</time>
      </trkpt>
      <trkpt lat="46.18597" lon="10.36824">
        <ele>1587</ele>
        <time>2018-09-22T19:49:05.990Z</time>
      </trkpt>
      <trkpt lat="46.186" lon="10.36838">
        <ele>1587.29380096</ele>
        <time>2018-09-22T19:49:13.998Z</time>
      </trkpt>
      <trkpt lat="46.18606" lon="10.36849">
        <ele>1588</ele>
        <time>2018-09-22T19:49:21.988Z</time>
      </trkpt>
      <trkpt lat="46.18608" lon="10.36863">
        <ele>1588</ele>
        <time>2018-09-22T19:49:29.990Z</time>
      </trkpt>
      <trkpt lat="46.18617" lon="10.36867">
        <ele>1588</ele>
        <time>2018-09-22T19:49:40.000Z</time>
      </trkpt>
      <trkpt lat="46.18623" lon="10.36857">
        <ele>1588</ele>
        <time>2018-09-22T19:49:49.000Z</time>
      </trkpt>
      <trkpt lat="46.1863" lon="10.36848">
        <ele>1589.7643572186</ele>
        <time>2018-09-22T19:49:57.000Z</time>
      </trkpt>
      <trkpt lat="46.18631" lon="10.36834">
        <ele>1591.185858706</ele>
        <time>2018-09-22T19:50:03.000Z</time>
      </trkpt>
      <trkpt lat="46.18641" lon="10.36833">
        <ele>1593.9546404649</ele>
        <time>2018-09-22T19:50:25.990Z</time>
      </trkpt>
      <trkpt lat="46.1865" lon="10.36831">
        <ele>1596.38800128</ele>
        <time>2018-09-22T19:50:38.000Z</time>
      </trkpt>
      <trkpt lat="46.1866" lon="10.36832">
        <ele>1597</ele>
        <time>2018-09-22T19:50:45.000Z</time>
      </trkpt>
      <trkpt lat="46.18668" lon="10.36825">
        <ele>1597</ele>
        <time>2018-09-22T19:50:54.000Z</time>
      </trkpt>
      <trkpt lat="46.18676" lon="10.36817">
        <ele>1597</ele>
        <time>2018-09-22T19:51:01.000Z</time>
      </trkpt>
      <trkpt lat="46.18682" lon="10.36807">
        <ele>1597</ele>
        <time>2018-09-22T19:51:07.989Z</time>
      </trkpt>
      <trkpt lat="46.18691" lon="10.36802">
        <ele>1597</ele>
        <time>2018-09-22T19:51:14.990Z</time>
      </trkpt>
      <trkpt lat="46.18695" lon="10.36788">
        <ele>1597</ele>
        <time>2018-09-22T19:51:22.000Z</time>
      </trkpt>
      <trkpt lat="46.18703" lon="10.36781">
        <ele>1597</ele>
        <time>2018-09-22T19:51:40.000Z</time>
      </trkpt>
      <trkpt lat="46.18708" lon="10.36769">
        <ele>1596</ele>
        <time>2018-09-22T19:52:24.990Z</time>
      </trkpt>
      <trkpt lat="46.18717" lon="10.36764">
        <ele>1595.6135450345</ele>
        <time>2018-09-22T19:52:33.000Z</time>
      </trkpt>
      <trkpt lat="46.18725" lon="10.36759">
        <ele>1594.4183274348</ele>
        <time>2018-09-22T19:52:39.000Z</time>
      </trkpt>
      <trkpt lat="46.18736" lon="10.36755">
        <ele>1593.7134390051</ele>
        <time>2018-09-22T19:52:44.000Z</time>
      </trkpt>
      <trkpt lat="46.18744" lon="10.36758">
        <ele>1593.1205528797</ele>
        <time>2018-09-22T19:52:50.000Z</time>
      </trkpt>
      <trkpt lat="46.18755" lon="10.36761">
        <ele>1592.6212420866</ele>
        <time>2018-09-22T19:52:55.000Z</time>
      </trkpt>
      <trkpt lat="46.18764" lon="10.3676">
        <ele>1591.8174441006</ele>
        <time>2018-09-22T19:53:03.000Z</time>
      </trkpt>
      <trkpt lat="46.18773" lon="10.36758">
        <ele>1591.2089244358</ele>
        <time>2018-09-22T19:53:09.000Z</time>
      </trkpt>
      <trkpt lat="46.18781" lon="10.36752">
        <ele>1590.40599936</ele>
        <time>2018-09-22T19:53:17.000Z</time>
      </trkpt>
      <trkpt lat="46.1879" lon="10.36746">
        <ele>1589.6252410872</ele>
        <time>2018-09-22T19:53:22.990Z</time>
      </trkpt>
      <trkpt lat="46.18799" lon="10.36739">
        <ele>1588.0700967331</ele>
        <time>2018-09-22T19:53:30.999Z</time>
      </trkpt>
      <trkpt lat="46.18808" lon="10.36738">
        <ele>1587.2147993307</ele>
        <time>2018-09-22T19:53:39.000Z</time>
      </trkpt>
      <trkpt lat="46.18817" lon="10.3673">
        <ele>1585.8164476843</ele>
        <time>2018-09-22T19:53:46.990Z</time>
      </trkpt>
      <trkpt lat="46.18826" lon="10.36729">
        <ele>1584.41799808</ele>
        <time>2018-09-22T19:53:53.000Z</time>
      </trkpt>
      <trkpt lat="46.18835" lon="10.36723">
        <ele>1582.62099712</ele>
        <time>2018-09-22T19:53:58.990Z</time>
      </trkpt>
      <trkpt lat="46.18841" lon="10.36711">
        <ele>1581.608738317</ele>
        <time>2018-09-22T19:54:05.000Z</time>
      </trkpt>
      <trkpt lat="46.18847" lon="10.36699">
        <ele>1580.7387378615</ele>
        <time>2018-09-22T19:54:12.000Z</time>
      </trkpt>
      <trkpt lat="46.18854" lon="10.36689">
        <ele>1578.9369366368</ele>
        <time>2018-09-22T19:54:18.000Z</time>
      </trkpt>
      <trkpt lat="46.18859" lon="10.36679">
        <ele>1576.0533170565</ele>
        <time>2018-09-22T19:54:24.990Z</time>
      </trkpt>
      <trkpt lat="46.18865" lon="10.36666">
        <ele>1572.81419776</ele>
        <time>2018-09-22T19:54:31.989Z</time>
      </trkpt>
      <trkpt lat="46.18872" lon="10.36654">
        <ele>1571.61399808</ele>
        <time>2018-09-22T19:54:37.990Z</time>
      </trkpt>
      <trkpt lat="46.18872" lon="10.36641">
        <ele>1570.11799808</ele>
        <time>2018-09-22T19:54:44.000Z</time>
      </trkpt>
      <trkpt lat="46.18872" lon="10.36626">
        <ele>1568.6182976</ele>
        <time>2018-09-22T19:54:48.999Z</time>
      </trkpt>
      <trkpt lat="46.18872" lon="10.36611">
        <ele>1565.6354898072</ele>
        <time>2018-09-22T19:54:56.989Z</time>
      </trkpt>
      <trkpt lat="46.18872" lon="10.36596">
        <ele>1562.8328963957</ele>
        <time>2018-09-22T19:55:03.999Z</time>
      </trkpt>
      <trkpt lat="46.18876" lon="10.36583">
        <ele>1559.229391943</ele>
        <time>2018-09-22T19:55:13.000Z</time>
      </trkpt>
      <trkpt lat="46.18878" lon="10.3657">
        <ele>1555.7390376812</ele>
        <time>2018-09-22T19:55:21.999Z</time>
      </trkpt>
      <trkpt lat="46.18882" lon="10.36556">
        <ele>1553.9369366368</ele>
        <time>2018-09-22T19:55:28.000Z</time>
      </trkpt>
      <trkpt lat="46.18884" lon="10.36542">
        <ele>1552.6498978832</ele>
        <time>2018-09-22T19:55:31.990Z</time>
      </trkpt>
      <trkpt lat="46.18888" lon="10.3653">
        <ele>1549.4265570553</ele>
        <time>2018-09-22T19:55:40.000Z</time>
      </trkpt>
      <trkpt lat="46.18892" lon="10.36513">
        <ele>1548.29629952</ele>
        <time>2018-09-22T19:55:48.097Z</time>
      </trkpt>
      <trkpt lat="46.18891" lon="10.36497">
        <ele>1547.5299968</ele>
        <time>2018-09-22T19:55:52.000Z</time>
      </trkpt>
      <trkpt lat="46.18898" lon="10.36487">
        <ele>1544.5299968</ele>
        <time>2018-09-22T19:55:58.000Z</time>
      </trkpt>
      <trkpt lat="46.18899" lon="10.36473">
        <ele>1542.50709888</ele>
        <time>2018-09-22T19:56:05.989Z</time>
      </trkpt>
      <trkpt lat="46.18903" lon="10.36461">
        <ele>1539.652568977</ele>
        <time>2018-09-22T19:56:16.999Z</time>
      </trkpt>
      <trkpt lat="46.1891" lon="10.36451">
        <ele>1536.2327931761</ele>
        <time>2018-09-22T19:56:27.000Z</time>
      </trkpt>
      <trkpt lat="46.18912" lon="10.36437">
        <ele>1533.523904352</ele>
        <time>2018-09-22T19:56:36.000Z</time>
      </trkpt>
      <trkpt lat="46.18917" lon="10.36425">
        <ele>1531.7322290535</ele>
        <time>2018-09-22T19:56:41.989Z</time>
      </trkpt>
      <trkpt lat="46.18922" lon="10.36413">
        <ele>1529.319275591</ele>
        <time>2018-09-22T19:56:50.000Z</time>
      </trkpt>
      <trkpt lat="46.1893" lon="10.36404">
        <ele>1526.62399744</ele>
        <time>2018-09-22T19:56:57.000Z</time>
      </trkpt>
      <trkpt lat="46.18937" lon="10.36393">
        <ele>1523.51799808</ele>
        <time>2018-09-22T19:57:06.000Z</time>
      </trkpt>
      <trkpt lat="46.18944" lon="10.36384">
        <ele>1521.4197390485</ele>
        <time>2018-09-22T19:57:13.000Z</time>
      </trkpt>
      <trkpt lat="46.18948" lon="10.36371">
        <ele>1519.3260208731</ele>
        <time>2018-09-22T19:57:20.000Z</time>
      </trkpt>
      <trkpt lat="46.18957" lon="10.36368">
        <ele>1517.0300883547</ele>
        <time>2018-09-22T19:57:26.000Z</time>
      </trkpt>
      <trkpt lat="46.18965" lon="10.36361">
        <ele>1514.4125866972</ele>
        <time>2018-09-22T19:57:34.000Z</time>
      </trkpt>
      <trkpt lat="46.18972" lon="10.36353">
        <ele>1513</ele>
        <time>2018-09-22T19:57:44.000Z</time>
      </trkpt>
      <trkpt lat="46.18982" lon="10.36348">
        <ele>1512.3433093216</ele>
        <time>2018-09-22T19:57:52.000Z</time>
      </trkpt>
      <trkpt lat="46.18989" lon="10.36337">
        <ele>1509.5488999289</ele>
        <time>2018-09-22T19:57:56.000Z</time>
      </trkpt>
      <trkpt lat="46.18998" lon="10.36332">
        <ele>1506.0558881879</ele>
        <time>2018-09-22T19:58:01.000Z</time>
      </trkpt>
      <trkpt lat="46.19006" lon="10.36325">
        <ele>1504.413224794</ele>
        <time>2018-09-22T19:58:08.998Z</time>
      </trkpt>
      <trkpt lat="46.19016" lon="10.36323">
        <ele>1502.6249980952</ele>
        <time>2018-09-22T19:58:17.990Z</time>
      </trkpt>
      <trkpt lat="46.19025" lon="10.36319">
        <ele>1500.0544322581</ele>
        <time>2018-09-22T19:58:25.000Z</time>
      </trkpt>
      <trkpt lat="46.19031" lon="10.36309">
        <ele>1496.81199872</ele>
        <time>2018-09-22T19:58:32.000Z</time>
      </trkpt>
      <trkpt lat="46.19038" lon="10.36299">
        <ele>1495.01199872</ele>
        <time>2018-09-22T19:58:41.000Z</time>
      </trkpt>
      <trkpt lat="46.19047" lon="10.36297">
        <ele>1494.50599936</ele>
        <time>2018-09-22T19:58:46.000Z</time>
      </trkpt>
      <trkpt lat="46.19053" lon="10.36286">
        <ele>1492.5299968</ele>
        <time>2018-09-22T19:58:54.000Z</time>
      </trkpt>
      <trkpt lat="46.19062" lon="10.36279">
        <ele>1489.0299968</ele>
        <time>2018-09-22T19:59:01.000Z</time>
      </trkpt>
      <trkpt lat="46.19072" lon="10.36276">
        <ele>1486.9345219048</ele>
        <time>2018-09-22T19:59:08.000Z</time>
      </trkpt>
      <trkpt lat="46.1908" lon="10.36271">
        <ele>1485.2221754839</ele>
        <time>2018-09-22T19:59:14.998Z</time>
      </trkpt>
      <trkpt lat="46.19091" lon="10.36267">
        <ele>1483.61199872</ele>
        <time>2018-09-22T19:59:23.000Z</time>
      </trkpt>
      <trkpt lat="46.19099" lon="10.36261">
        <ele>1482.41199872</ele>
        <time>2018-09-22T19:59:29.000Z</time>
      </trkpt>
      <trkpt lat="46.19108" lon="10.36257">
        <ele>1481.2190282158</ele>
        <time>2018-09-22T19:59:35.000Z</time>
      </trkpt>
      <trkpt lat="46.19117" lon="10.36253">
        <ele>1480.0297330143</ele>
        <time>2018-09-22T19:59:41.000Z</time>
      </trkpt>
      <trkpt lat="46.19129" lon="10.36253">
        <ele>1479.0352595605</ele>
        <time>2018-09-22T19:59:51.000Z</time>
      </trkpt>
      <trkpt lat="46.19139" lon="10.36254">
        <ele>1479</ele>
        <time>2018-09-22T19:59:57.988Z</time>
      </trkpt>
      <trkpt lat="46.1915" lon="10.36256">
        <ele>1477.82399744</ele>
        <time>2018-09-22T20:00:04.000Z</time>
      </trkpt>
      <trkpt lat="46.19159" lon="10.36253">
        <ele>1475.82399744</ele>
        <time>2018-09-22T20:00:09.000Z</time>
      </trkpt>
      <trkpt lat="46.19169" lon="10.36255">
        <ele>1474.60599936</ele>
        <time>2018-09-22T20:00:15.000Z</time>
      </trkpt>
      <trkpt lat="46.1918" lon="10.36256">
        <ele>1473.90599936</ele>
        <time>2018-09-22T20:00:22.000Z</time>
      </trkpt>
      <trkpt lat="46.19189" lon="10.36256">
        <ele>1473.20599936</ele>
        <time>2018-09-22T20:00:29.000Z</time>
      </trkpt>
      <trkpt lat="46.192" lon="10.36257">
        <ele>1471.02399744</ele>
        <time>2018-09-22T20:00:36.000Z</time>
      </trkpt>
      <trkpt lat="46.1921" lon="10.36256">
        <ele>1468.80599936</ele>
        <time>2018-09-22T20:00:43.000Z</time>
      </trkpt>
      <trkpt lat="46.19219" lon="10.36249">
        <ele>1468.00599936</ele>
        <time>2018-09-22T20:00:51.000Z</time>
      </trkpt>
      <trkpt lat="46.19229" lon="10.36248">
        <ele>1460.85399424</ele>
        <time>2018-09-22T20:00:59.000Z</time>
      </trkpt>
      <trkpt lat="46.19238" lon="10.36246">
        <ele>1457.61199872</ele>
        <time>2018-09-22T20:01:08.000Z</time>
      </trkpt>
      <trkpt lat="46.19249" lon="10.36247">
        <ele>1457</ele>
        <time>2018-09-22T20:01:16.000Z</time>
      </trkpt>
      <trkpt lat="46.19259" lon="10.36249">
        <ele>1455.8348339268</ele>
        <time>2018-09-22T20:01:24.000Z</time>
      </trkpt>
      <trkpt lat="46.19269" lon="10.36248">
        <ele>1453.0320320218</ele>
        <time>2018-09-22T20:01:31.000Z</time>
      </trkpt>
      <trkpt lat="46.19278" lon="10.3624">
        <ele>1450.318635555</ele>
        <time>2018-09-22T20:01:40.000Z</time>
      </trkpt>
      <trkpt lat="46.19288" lon="10.36239">
        <ele>1448.219780009</ele>
        <time>2018-09-22T20:01:47.000Z</time>
      </trkpt>
      <trkpt lat="46.19297" lon="10.36236">
        <ele>1445.5335337259</ele>
        <time>2018-09-22T20:01:54.000Z</time>
      </trkpt>
      <trkpt lat="46.19306" lon="10.36236">
        <ele>1442.0300268557</ele>
        <time>2018-09-22T20:02:01.000Z</time>
      </trkpt>
      <trkpt lat="46.19316" lon="10.36238">
        <ele>1441.3108238138</ele>
        <time>2018-09-22T20:02:08.000Z</time>
      </trkpt>
      <trkpt lat="46.19327" lon="10.36246">
        <ele>1439.2265845645</ele>
        <time>2018-09-22T20:02:17.000Z</time>
      </trkpt>
      <trkpt lat="46.19336" lon="10.36249">
        <ele>1438.0181249605</ele>
        <time>2018-09-22T20:02:21.000Z</time>
      </trkpt>
      <trkpt lat="46.19349" lon="10.36253">
        <ele>1437.10599936</ele>
        <time>2018-09-22T20:02:30.000Z</time>
      </trkpt>
      <trkpt lat="46.19357" lon="10.36257">
        <ele>1435.81199872</ele>
        <time>2018-09-22T20:02:37.000Z</time>
      </trkpt>
      <trkpt lat="46.19367" lon="10.36255">
        <ele>1431.43599616</ele>
        <time>2018-09-22T20:02:47.000Z</time>
      </trkpt>
      <trkpt lat="46.19376" lon="10.36257">
        <ele>1428.6349491977</ele>
        <time>2018-09-22T20:02:52.000Z</time>
      </trkpt>
      <trkpt lat="46.19385" lon="10.36261">
        <ele>1425.5281550116</ele>
        <time>2018-09-22T20:03:00.000Z</time>
      </trkpt>
      <trkpt lat="46.19396" lon="10.36263">
        <ele>1425</ele>
        <time>2018-09-22T20:03:06.998Z</time>
      </trkpt>
      <trkpt lat="46.19407" lon="10.36258">
        <ele>1423.2250999521</ele>
        <time>2018-09-22T20:03:17.000Z</time>
      </trkpt>
      <trkpt lat="46.19416" lon="10.36249">
        <ele>1421.5080321388</ele>
        <time>2018-09-22T20:03:26.000Z</time>
      </trkpt>
      <trkpt lat="46.19425" lon="10.36241">
        <ele>1420.3135505239</ele>
        <time>2018-09-22T20:03:38.000Z</time>
      </trkpt>
      <trkpt lat="46.19433" lon="10.36234">
        <ele>1419.2254793854</ele>
        <time>2018-09-22T20:03:45.000Z</time>
      </trkpt>
      <trkpt lat="46.19442" lon="10.36232">
        <ele>1418.2143567124</ele>
        <time>2018-09-22T20:03:50.000Z</time>
      </trkpt>
      <trkpt lat="46.19453" lon="10.36229">
        <ele>1415.61799808</ele>
        <time>2018-09-22T20:03:59.000Z</time>
      </trkpt>
      <trkpt lat="46.19461" lon="10.36237">
        <ele>1415</ele>
        <time>2018-09-22T20:04:03.000Z</time>
      </trkpt>
      <trkpt lat="46.19471" lon="10.36245">
        <ele>1415</ele>
        <time>2018-09-22T20:04:08.000Z</time>
      </trkpt>
      <trkpt lat="46.19481" lon="10.36249">
        <ele>1414.8142417997</ele>
        <time>2018-09-22T20:04:11.999Z</time>
      </trkpt>
      <trkpt lat="46.19491" lon="10.36256">
        <ele>1412.6433317647</ele>
        <time>2018-09-22T20:04:22.989Z</time>
      </trkpt>
      <trkpt lat="46.19504" lon="10.36259">
        <ele>1411.2680395294</ele>
        <time>2018-09-22T20:04:30.003Z</time>
      </trkpt>
      <trkpt lat="46.19512" lon="10.36265">
        <ele>1410.0443746689</ele>
        <time>2018-09-22T20:04:36.000Z</time>
      </trkpt>
      <trkpt lat="46.1952" lon="10.36274">
        <ele>1408.41199872</ele>
        <time>2018-09-22T20:04:44.000Z</time>
      </trkpt>
      <trkpt lat="46.19522" lon="10.36289">
        <ele>1406.30599936</ele>
        <time>2018-09-22T20:04:58.000Z</time>
      </trkpt>
      <trkpt lat="46.19532" lon="10.36292">
        <ele>1406</ele>
        <time>2018-09-22T20:05:09.000Z</time>
      </trkpt>
      <trkpt lat="46.1954" lon="10.36302">
        <ele>1405.4233858064</ele>
        <time>2018-09-22T20:05:14.000Z</time>
      </trkpt>
      <trkpt lat="46.19547" lon="10.36311">
        <ele>1404.4153212903</ele>
        <time>2018-09-22T20:05:19.000Z</time>
      </trkpt>
      <trkpt lat="46.19555" lon="10.36318">
        <ele>1403.01199872</ele>
        <time>2018-09-22T20:05:26.000Z</time>
      </trkpt>
      <trkpt lat="46.19554" lon="10.36304">
        <ele>1400.8227087519</ele>
        <time>2018-09-22T20:05:35.000Z</time>
      </trkpt>
      <trkpt lat="46.19555" lon="10.36289">
        <ele>1398.8192781613</ele>
        <time>2018-09-22T20:05:42.000Z</time>
      </trkpt>
      <trkpt lat="46.1956" lon="10.36277">
        <ele>1397.0120469231</ele>
        <time>2018-09-22T20:05:51.000Z</time>
      </trkpt>
      <trkpt lat="46.19572" lon="10.36277">
        <ele>1394.91799808</ele>
        <time>2018-09-22T20:05:58.000Z</time>
      </trkpt>
      <trkpt lat="46.1958" lon="10.36283">
        <ele>1394.01799808</ele>
        <time>2018-09-22T20:06:01.000Z</time>
      </trkpt>
      <trkpt lat="46.19589" lon="10.36291">
        <ele>1392.5625592046</ele>
        <time>2018-09-22T20:06:06.000Z</time>
      </trkpt>
      <trkpt lat="46.19596" lon="10.36302">
        <ele>1390.8049525052</ele>
        <time>2018-09-22T20:06:12.000Z</time>
      </trkpt>
      <trkpt lat="46.19601" lon="10.36314">
        <ele>1388.637769127</ele>
        <time>2018-09-22T20:06:19.000Z</time>
      </trkpt>
      <trkpt lat="46.19608" lon="10.36324">
        <ele>1387.41859712</ele>
        <time>2018-09-22T20:06:22.998Z</time>
      </trkpt>
      <trkpt lat="46.19618" lon="10.36338">
        <ele>1384.01199872</ele>
        <time>2018-09-22T20:06:36.000Z</time>
      </trkpt>
      <trkpt lat="46.19628" lon="10.36341">
        <ele>1382.7272710392</ele>
        <time>2018-09-22T20:06:42.000Z</time>
      </trkpt>
      <trkpt lat="46.19633" lon="10.36328">
        <ele>1380.4061893037</ele>
        <time>2018-09-22T20:06:50.000Z</time>
      </trkpt>
      <trkpt lat="46.1963" lon="10.36316">
        <ele>1376.521736826</ele>
        <time>2018-09-22T20:06:57.000Z</time>
      </trkpt>
      <trkpt lat="46.19634" lon="10.36304">
        <ele>1374</ele>
        <time>2018-09-22T20:07:08.003Z</time>
      </trkpt>
      <trkpt lat="46.1963" lon="10.3629">
        <ele>1373.0060295134</ele>
        <time>2018-09-22T20:07:21.000Z</time>
      </trkpt>
      <trkpt lat="46.19627" lon="10.36277">
        <ele>1373.79400064</ele>
        <time>2018-09-22T20:07:29.000Z</time>
      </trkpt>
      <trkpt lat="46.19625" lon="10.36262">
        <ele>1374</ele>
        <time>2018-09-22T20:07:37.999Z</time>
      </trkpt>
      <trkpt lat="46.19623" lon="10.36248">
        <ele>1373.612612985</ele>
        <time>2018-09-22T20:07:44.989Z</time>
      </trkpt>
      <trkpt lat="46.19614" lon="10.36241">
        <ele>1373</ele>
        <time>2018-09-22T20:07:55.000Z</time>
      </trkpt>
      <trkpt lat="46.19607" lon="10.36231">
        <ele>1372.90599936</ele>
        <time>2018-09-22T20:08:02.000Z</time>
      </trkpt>
      <trkpt lat="46.19602" lon="10.36219">
        <ele>1372.40719872</ele>
        <time>2018-09-22T20:08:06.988Z</time>
      </trkpt>
      <trkpt lat="46.19594" lon="10.36206">
        <ele>1371.40599936</ele>
        <time>2018-09-22T20:08:17.000Z</time>
      </trkpt>
      <trkpt lat="46.19586" lon="10.36196">
        <ele>1370.9060933568</ele>
        <time>2018-09-22T20:08:22.000Z</time>
      </trkpt>
      <trkpt lat="46.19579" lon="10.36186">
        <ele>1370.3066933322</ele>
        <time>2018-09-22T20:08:28.000Z</time>
      </trkpt>
      <trkpt lat="46.19572" lon="10.36176">
        <ele>1368.2192184689</ele>
        <time>2018-09-22T20:08:37.000Z</time>
      </trkpt>
      <trkpt lat="46.19564" lon="10.36166">
        <ele>1366.41799808</ele>
        <time>2018-09-22T20:08:43.000Z</time>
      </trkpt>
      <trkpt lat="46.19557" lon="10.36157">
        <ele>1364.01799808</ele>
        <time>2018-09-22T20:08:51.000Z</time>
      </trkpt>
      <trkpt lat="46.19551" lon="10.36146">
        <ele>1360.82399744</ele>
        <time>2018-09-22T20:08:59.000Z</time>
      </trkpt>
      <trkpt lat="46.19544" lon="10.36135">
        <ele>1360</ele>
        <time>2018-09-22T20:09:06.000Z</time>
      </trkpt>
      <trkpt lat="46.19537" lon="10.36127">
        <ele>1359.6299911634</ele>
        <time>2018-09-22T20:09:13.000Z</time>
      </trkpt>
      <trkpt lat="46.19529" lon="10.3612">
        <ele>1358.2667961209</ele>
        <time>2018-09-22T20:09:20.000Z</time>
      </trkpt>
      <trkpt lat="46.1952" lon="10.36112">
        <ele>1356.5665620034</ele>
        <time>2018-09-22T20:09:26.000Z</time>
      </trkpt>
      <trkpt lat="46.1951" lon="10.36107">
        <ele>1354.81199872</ele>
        <time>2018-09-22T20:09:32.000Z</time>
      </trkpt>
      <trkpt lat="46.19501" lon="10.36102">
        <ele>1353.81199872</ele>
        <time>2018-09-22T20:09:37.000Z</time>
      </trkpt>
      <trkpt lat="46.19492" lon="10.36097">
        <ele>1352.61199872</ele>
        <time>2018-09-22T20:09:43.000Z</time>
      </trkpt>
      <trkpt lat="46.19483" lon="10.36091">
        <ele>1351.2121984</ele>
        <time>2018-09-22T20:09:49.999Z</time>
      </trkpt>
      <trkpt lat="46.1948" lon="10.36077">
        <ele>1351</ele>
        <time>2018-09-22T20:09:57.990Z</time>
      </trkpt>
      <trkpt lat="46.19481" lon="10.36063">
        <ele>1349.81799808</ele>
        <time>2018-09-22T20:10:05.000Z</time>
      </trkpt>
      <trkpt lat="46.19483" lon="10.36049">
        <ele>1348.02189952</ele>
        <time>2018-09-22T20:10:10.987Z</time>
      </trkpt>
      <trkpt lat="46.19483" lon="10.36035">
        <ele>1347.4078925159</ele>
        <time>2018-09-22T20:10:16.987Z</time>
      </trkpt>
      <trkpt lat="46.19484" lon="10.36022">
        <ele>1347</ele>
        <time>2018-09-22T20:10:22.987Z</time>
      </trkpt>
      <trkpt lat="46.19481" lon="10.36008">
        <ele>1347</ele>
        <time>2018-09-22T20:10:30.988Z</time>
      </trkpt>
      <trkpt lat="46.19478" lon="10.35995">
        <ele>1346.3072</ele>
        <time>2018-09-22T20:10:37.988Z</time>
      </trkpt>
      <trkpt lat="46.19471" lon="10.35987">
        <ele>1345.50709888</ele>
        <time>2018-09-22T20:10:45.989Z</time>
      </trkpt>
      <trkpt lat="46.19463" lon="10.3598">
        <ele>1344.22799616</ele>
        <time>2018-09-22T20:10:52.990Z</time>
      </trkpt>
      <trkpt lat="46.19455" lon="10.35975">
        <ele>1341.42839552</ele>
        <time>2018-09-22T20:10:59.989Z</time>
      </trkpt>
      <trkpt lat="46.19444" lon="10.35975">
        <ele>1340.2067933282</ele>
        <time>2018-09-22T20:11:09.000Z</time>
      </trkpt>
      <trkpt lat="46.1944" lon="10.35988">
        <ele>1340.00699332</ele>
        <time>2018-09-22T20:11:11.000Z</time>
      </trkpt>
      <trkpt lat="46.19433" lon="10.3598">
        <ele>1338.6132115602</ele>
        <time>2018-09-22T20:11:17.997Z</time>
      </trkpt>
      <trkpt lat="46.19426" lon="10.3597">
        <ele>1336.82099712</ele>
        <time>2018-09-22T20:11:24.990Z</time>
      </trkpt>
      <trkpt lat="46.19423" lon="10.35958">
        <ele>1334.1216</ele>
        <time>2018-09-22T20:11:33.988Z</time>
      </trkpt>
      <trkpt lat="46.19424" lon="10.35943">
        <ele>1331.2190282158</ele>
        <time>2018-09-22T20:11:45.000Z</time>
      </trkpt>
      <trkpt lat="46.19425" lon="10.3593">
        <ele>1327.2572559029</ele>
        <time>2018-09-22T20:11:58.000Z</time>
      </trkpt>
      <trkpt lat="46.19425" lon="10.35917">
        <ele>1324.2736120666</ele>
        <time>2018-09-22T20:12:27.000Z</time>
      </trkpt>
      <trkpt lat="46.19419" lon="10.35906">
        <ele>1320.974847104</ele>
        <time>2018-09-22T20:12:37.989Z</time>
      </trkpt>
      <trkpt lat="46.19412" lon="10.35897">
        <ele>1318.2145738812</ele>
        <time>2018-09-22T20:12:50.000Z</time>
      </trkpt>
      <trkpt lat="46.19401" lon="10.35896">
        <ele>1312.0178919966</ele>
        <time>2018-09-22T20:13:06.000Z</time>
      </trkpt>
      <trkpt lat="46.19391" lon="10.35893">
        <ele>1310.7102613829</ele>
        <time>2018-09-22T20:13:14.000Z</time>
      </trkpt>
      <trkpt lat="46.19383" lon="10.35883">
        <ele>1309.62399744</ele>
        <time>2018-09-22T20:13:22.000Z</time>
      </trkpt>
      <trkpt lat="46.19375" lon="10.35876">
        <ele>1305.70599936</ele>
        <time>2018-09-22T20:13:34.000Z</time>
      </trkpt>
      <trkpt lat="46.19368" lon="10.35868">
        <ele>1301.5299968</ele>
        <time>2018-09-22T20:13:48.000Z</time>
      </trkpt>
      <trkpt lat="46.19361" lon="10.35858">
        <ele>1298.21799808</ele>
        <time>2018-09-22T20:13:57.000Z</time>
      </trkpt>
      <trkpt lat="46.19353" lon="10.35855">
        <ele>1296.5108907654</ele>
        <time>2018-09-22T20:14:06.000Z</time>
      </trkpt>
      <trkpt lat="46.19343" lon="10.35852">
        <ele>1293.62399744</ele>
        <time>2018-09-22T20:14:22.000Z</time>
      </trkpt>
      <trkpt lat="46.19334" lon="10.35847">
        <ele>1289.6063933445</ele>
        <time>2018-09-22T20:14:35.000Z</time>
      </trkpt>
      <trkpt lat="46.19325" lon="10.35842">
        <ele>1282.5312185233</ele>
        <time>2018-09-22T20:14:56.000Z</time>
      </trkpt>
      <trkpt lat="46.19319" lon="10.35832">
        <ele>1280.2181278088</ele>
        <time>2018-09-22T20:15:09.000Z</time>
      </trkpt>
      <trkpt lat="46.19319" lon="10.35819">
        <ele>1279</ele>
        <time>2018-09-22T20:15:29.988Z</time>
      </trkpt>
      <trkpt lat="46.19309" lon="10.35816">
        <ele>1269.8138142755</ele>
        <time>2018-09-22T20:16:02.000Z</time>
      </trkpt>
      <trkpt lat="46.193" lon="10.35815">
        <ele>1268.61261192</ele>
        <time>2018-09-22T20:16:08.000Z</time>
      </trkpt>
      <trkpt lat="46.19293" lon="10.35805">
        <ele>1267.1095622508</ele>
        <time>2018-09-22T20:16:20.000Z</time>
      </trkpt>
      <trkpt lat="46.19284" lon="10.35801">
        <ele>1262.5321259851</ele>
        <time>2018-09-22T20:16:30.000Z</time>
      </trkpt>
      <trkpt lat="46.19276" lon="10.35793">
        <ele>1262</ele>
        <time>2018-09-22T20:16:39.000Z</time>
      </trkpt>
      <trkpt lat="46.19268" lon="10.35784">
        <ele>1258.5850229442</ele>
        <time>2018-09-22T20:16:52.000Z</time>
      </trkpt>
      <trkpt lat="46.19259" lon="10.35778">
        <ele>1254.0303611729</ele>
        <time>2018-09-22T20:17:01.000Z</time>
      </trkpt>
      <trkpt lat="46.1925" lon="10.35776">
        <ele>1252.80599936</ele>
        <time>2018-09-22T20:17:13.000Z</time>
      </trkpt>
      <trkpt lat="46.19241" lon="10.35768">
        <ele>1250.42399744</ele>
        <time>2018-09-22T20:17:25.000Z</time>
      </trkpt>
      <trkpt lat="46.19235" lon="10.35757">
        <ele>1247.90599936</ele>
        <time>2018-09-22T20:17:32.000Z</time>
      </trkpt>
      <trkpt lat="46.19228" lon="10.35748">
        <ele>1247.40599936</ele>
        <time>2018-09-22T20:17:37.000Z</time>
      </trkpt>
      <trkpt lat="46.19219" lon="10.3574">
        <ele>1245.81799808</ele>
        <time>2018-09-22T20:17:45.000Z</time>
      </trkpt>
      <trkpt lat="46.19217" lon="10.35728">
        <ele>1242.81799808</ele>
        <time>2018-09-22T20:17:55.000Z</time>
      </trkpt>
      <trkpt lat="46.19214" lon="10.35715">
        <ele>1239.61199872</ele>
        <time>2018-09-22T20:18:08.000Z</time>
      </trkpt>
      <trkpt lat="46.19211" lon="10.35703">
        <ele>1237.2321409524</ele>
        <time>2018-09-22T20:18:17.000Z</time>
      </trkpt>
      <trkpt lat="46.19206" lon="10.35691">
        <ele>1234.5463594668</ele>
        <time>2018-09-22T20:18:26.000Z</time>
      </trkpt>
      <trkpt lat="46.19198" lon="10.35684">
        <ele>1232.4294348387</ele>
        <time>2018-09-22T20:18:34.000Z</time>
      </trkpt>
      <trkpt lat="46.19193" lon="10.35671">
        <ele>1229.8634609231</ele>
        <time>2018-09-22T20:18:47.000Z</time>
      </trkpt>
      <trkpt lat="46.19196" lon="10.35659">
        <ele>1227</ele>
        <time>2018-09-22T20:19:03.000Z</time>
      </trkpt>
      <trkpt lat="46.19191" lon="10.35648">
        <ele>1225.5194781281</ele>
        <time>2018-09-22T20:19:35.990Z</time>
      </trkpt>
      <trkpt lat="46.19184" lon="10.35638">
        <ele>1222.81799808</ele>
        <time>2018-09-22T20:19:45.000Z</time>
      </trkpt>
      <trkpt lat="46.19177" lon="10.35629">
        <ele>1218.62399744</ele>
        <time>2018-09-22T20:19:57.000Z</time>
      </trkpt>
      <trkpt lat="46.19169" lon="10.35621">
        <ele>1216.60599936</ele>
        <time>2018-09-22T20:20:05.000Z</time>
      </trkpt>
      <trkpt lat="46.19165" lon="10.35608">
        <ele>1215.8073479858</ele>
        <time>2018-09-22T20:20:13.000Z</time>
      </trkpt>
      <trkpt lat="46.19164" lon="10.35594">
        <ele>1214.430476494</ele>
        <time>2018-09-22T20:20:23.989Z</time>
      </trkpt>
      <trkpt lat="46.19158" lon="10.3558">
        <ele>1212.4297255182</ele>
        <time>2018-09-22T20:20:33.990Z</time>
      </trkpt>
      <trkpt lat="46.1915" lon="10.35574">
        <ele>1210.11799808</ele>
        <time>2018-09-22T20:20:44.000Z</time>
      </trkpt>
      <trkpt lat="46.19143" lon="10.35563">
        <ele>1207.125866124</ele>
        <time>2018-09-22T20:20:54.000Z</time>
      </trkpt>
      <trkpt lat="46.19135" lon="10.35555">
        <ele>1204.2294290093</ele>
        <time>2018-09-22T20:21:04.999Z</time>
      </trkpt>
      <trkpt lat="46.19127" lon="10.3555">
        <ele>1202.8124993548</ele>
        <time>2018-09-22T20:21:13.000Z</time>
      </trkpt>
      <trkpt lat="46.1912" lon="10.3554">
        <ele>1199.91799808</ele>
        <time>2018-09-22T20:21:28.000Z</time>
      </trkpt>
      <trkpt lat="46.19115" lon="10.3553">
        <ele>1197.0273803175</ele>
        <time>2018-09-22T20:21:41.002Z</time>
      </trkpt>
      <trkpt lat="46.19109" lon="10.35521">
        <ele>1193.0233858065</ele>
        <time>2018-09-22T20:21:51.002Z</time>
      </trkpt>
      <trkpt lat="46.191" lon="10.35511">
        <ele>1189.1398057384</ele>
        <time>2018-09-22T20:22:01.000Z</time>
      </trkpt>
      <trkpt lat="46.19093" lon="10.35496">
        <ele>1187.0366611574</ele>
        <time>2018-09-22T20:22:11.000Z</time>
      </trkpt>
      <trkpt lat="46.19089" lon="10.35483">
        <ele>1185.4190269396</ele>
        <time>2018-09-22T20:22:18.990Z</time>
      </trkpt>
      <trkpt lat="46.19088" lon="10.35469">
        <ele>1184.01199872</ele>
        <time>2018-09-22T20:22:26.000Z</time>
      </trkpt>
      <trkpt lat="46.19086" lon="10.35454">
        <ele>1182.7914487188</ele>
        <time>2018-09-22T20:22:48.987Z</time>
      </trkpt>
      <trkpt lat="46.19088" lon="10.3544">
        <ele>1179.8137984</ele>
        <time>2018-09-22T20:23:31.991Z</time>
      </trkpt>
      <trkpt lat="46.19086" lon="10.35428">
        <ele>1177.30699904</ele>
        <time>2018-09-22T20:23:47.990Z</time>
      </trkpt>
      <trkpt lat="46.19085" lon="10.35413">
        <ele>1174.31799808</ele>
        <time>2018-09-22T20:24:00.000Z</time>
      </trkpt>
      <trkpt lat="46.1908" lon="10.35403">
        <ele>1172.90729984</ele>
        <time>2018-09-22T20:24:11.987Z</time>
      </trkpt>
      <trkpt lat="46.19081" lon="10.35388">
        <ele>1170.81799808</ele>
        <time>2018-09-22T20:24:25.000Z</time>
      </trkpt>
      <trkpt lat="46.19076" lon="10.35375">
        <ele>1168.21199872</ele>
        <time>2018-09-22T20:24:35.000Z</time>
      </trkpt>
      <trkpt lat="46.19074" lon="10.3536">
        <ele>1165.8179103033</ele>
        <time>2018-09-22T20:24:47.000Z</time>
      </trkpt>
      <trkpt lat="46.19071" lon="10.35347">
        <ele>1163.0537319972</ele>
        <time>2018-09-22T20:24:56.000Z</time>
      </trkpt>
      <trkpt lat="46.19066" lon="10.35335">
        <ele>1161</ele>
        <time>2018-09-22T20:25:04.000Z</time>
      </trkpt>
      <trkpt lat="46.1906" lon="10.35325">
        <ele>1161</ele>
        <time>2018-09-22T20:25:09.990Z</time>
      </trkpt>
      <trkpt lat="46.19056" lon="10.35313">
        <ele>1161</ele>
        <time>2018-09-22T20:25:17.000Z</time>
      </trkpt>
      <trkpt lat="46.19051" lon="10.35302">
        <ele>1159.22189952</ele>
        <time>2018-09-22T20:25:26.987Z</time>
      </trkpt>
      <trkpt lat="46.19041" lon="10.35293">
        <ele>1157.01199872</ele>
        <time>2018-09-22T20:25:36.000Z</time>
      </trkpt>
      <trkpt lat="46.19033" lon="10.3529">
        <ele>1156</ele>
        <time>2018-09-22T20:25:47.990Z</time>
      </trkpt>
      <trkpt lat="46.19024" lon="10.35289">
        <ele>1153.5299968</ele>
        <time>2018-09-22T20:25:56.000Z</time>
      </trkpt>
      <trkpt lat="46.19015" lon="10.35281">
        <ele>1148.6345569384</ele>
        <time>2018-09-22T20:26:09.000Z</time>
      </trkpt>
      <trkpt lat="46.19005" lon="10.35278">
        <ele>1147.5095664885</ele>
        <time>2018-09-22T20:26:16.000Z</time>
      </trkpt>
      <trkpt lat="46.18996" lon="10.35273">
        <ele>1146.7101870749</ele>
        <time>2018-09-22T20:26:23.990Z</time>
      </trkpt>
      <trkpt lat="46.18988" lon="10.35264">
        <ele>1145.5803824729</ele>
        <time>2018-09-22T20:26:32.000Z</time>
      </trkpt>
      <trkpt lat="46.18979" lon="10.35258">
        <ele>1140.71799808</ele>
        <time>2018-09-22T20:26:42.000Z</time>
      </trkpt>
      <trkpt lat="46.18972" lon="10.3525">
        <ele>1138.31889664</ele>
        <time>2018-09-22T20:26:49.997Z</time>
      </trkpt>
      <trkpt lat="46.18965" lon="10.35241">
        <ele>1136.41399808</ele>
        <time>2018-09-22T20:26:58.990Z</time>
      </trkpt>
      <trkpt lat="46.18959" lon="10.35231">
        <ele>1134.2168677486</ele>
        <time>2018-09-22T20:27:25.000Z</time>
      </trkpt>
      <trkpt lat="46.18956" lon="10.35219">
        <ele>1132.61199872</ele>
        <time>2018-09-22T20:27:33.000Z</time>
      </trkpt>
      <trkpt lat="46.18948" lon="10.35209">
        <ele>1131.01459968</ele>
        <time>2018-09-22T20:27:40.987Z</time>
      </trkpt>
      <trkpt lat="46.1894" lon="10.35202">
        <ele>1130.30599936</ele>
        <time>2018-09-22T20:27:48.000Z</time>
      </trkpt>
      <trkpt lat="46.18931" lon="10.35196">
        <ele>1128.42599936</ele>
        <time>2018-09-22T20:27:54.995Z</time>
      </trkpt>
      <trkpt lat="46.18924" lon="10.35185">
        <ele>1125.21199872</ele>
        <time>2018-09-22T20:28:05.000Z</time>
      </trkpt>
      <trkpt lat="46.18931" lon="10.35175">
        <ele>1123.4289314616</ele>
        <time>2018-09-22T20:28:14.001Z</time>
      </trkpt>
      <trkpt lat="46.18941" lon="10.3517">
        <ele>1122.0697090052</ele>
        <time>2018-09-22T20:28:21.001Z</time>
      </trkpt>
      <trkpt lat="46.1895" lon="10.35172">
        <ele>1120.6309269318</ele>
        <time>2018-09-22T20:28:28.000Z</time>
      </trkpt>
      <trkpt lat="46.18961" lon="10.35168">
        <ele>1119.21199872</ele>
        <time>2018-09-22T20:28:35.000Z</time>
      </trkpt>
      <trkpt lat="46.18971" lon="10.35168">
        <ele>1117.70599936</ele>
        <time>2018-09-22T20:28:44.000Z</time>
      </trkpt>
      <trkpt lat="46.1898" lon="10.35168">
        <ele>1117</ele>
        <time>2018-09-22T20:28:52.985Z</time>
      </trkpt>
      <trkpt lat="46.18991" lon="10.35171">
        <ele>1117</ele>
        <time>2018-09-22T20:28:59.001Z</time>
      </trkpt>
      <trkpt lat="46.19001" lon="10.35171">
        <ele>1114.92099712</ele>
        <time>2018-09-22T20:29:07.990Z</time>
      </trkpt>
      <trkpt lat="46.1901" lon="10.3517">
        <ele>1113.01399808</ele>
        <time>2018-09-22T20:29:15.990Z</time>
      </trkpt>
      <trkpt lat="46.19023" lon="10.35168">
        <ele>1111.80599936</ele>
        <time>2018-09-22T20:29:23.000Z</time>
      </trkpt>
      <trkpt lat="46.19034" lon="10.35165">
        <ele>1111.00599936</ele>
        <time>2018-09-22T20:29:31.000Z</time>
      </trkpt>
      <trkpt lat="46.19043" lon="10.35158">
        <ele>1109.61199872</ele>
        <time>2018-09-22T20:29:38.000Z</time>
      </trkpt>
      <trkpt lat="46.19049" lon="10.35168">
        <ele>1108.50599936</ele>
        <time>2018-09-22T20:29:46.000Z</time>
      </trkpt>
      <trkpt lat="46.19044" lon="10.35179">
        <ele>1107.01199872</ele>
        <time>2018-09-22T20:29:56.000Z</time>
      </trkpt>
      <trkpt lat="46.1905" lon="10.35168">
        <ele>1106.2076606452</ele>
        <time>2018-09-22T20:30:19.000Z</time>
      </trkpt>
      <trkpt lat="46.1906" lon="10.3517">
        <ele>1105.70599936</ele>
        <time>2018-09-22T20:30:24.000Z</time>
      </trkpt>
      <trkpt lat="46.1907" lon="10.35176">
        <ele>1105.00599936</ele>
        <time>2018-09-22T20:30:31.000Z</time>
      </trkpt>
      <trkpt lat="46.1908" lon="10.35182">
        <ele>1104.30599936</ele>
        <time>2018-09-22T20:30:38.000Z</time>
      </trkpt>
      <trkpt lat="46.19088" lon="10.35188">
        <ele>1103.80739968</ele>
        <time>2018-09-22T20:30:42.986Z</time>
      </trkpt>
      <trkpt lat="46.19097" lon="10.35189">
        <ele>1103.10599936</ele>
        <time>2018-09-22T20:30:50.000Z</time>
      </trkpt>
      <trkpt lat="46.19108" lon="10.3519">
        <ele>1102.01199872</ele>
        <time>2018-09-22T20:30:56.000Z</time>
      </trkpt>
      <trkpt lat="46.19118" lon="10.35188">
        <ele>1100.50549888</ele>
        <time>2018-09-22T20:31:06.005Z</time>
      </trkpt>
      <trkpt lat="46.19127" lon="10.35183">
        <ele>1098.0358910354</ele>
        <time>2018-09-22T20:31:15.985Z</time>
      </trkpt>
      <trkpt lat="46.19118" lon="10.35178">
        <ele>1093.3141196295</ele>
        <time>2018-09-22T20:31:27.986Z</time>
      </trkpt>
      <trkpt lat="46.19109" lon="10.35171">
        <ele>1091.5143137656</ele>
        <time>2018-09-22T20:31:33.000Z</time>
      </trkpt>
      <trkpt lat="46.19102" lon="10.35162">
        <ele>1089.4454098149</ele>
        <time>2018-09-22T20:31:39.986Z</time>
      </trkpt>
      <trkpt lat="46.19096" lon="10.3515">
        <ele>1086.6488986914</ele>
        <time>2018-09-22T20:31:45.990Z</time>
      </trkpt>
      <trkpt lat="46.19091" lon="10.3514">
        <ele>1083.72099712</ele>
        <time>2018-09-22T20:31:51.990Z</time>
      </trkpt>
      <trkpt lat="46.19085" lon="10.35129">
        <ele>1082.5206976</ele>
        <time>2018-09-22T20:31:55.991Z</time>
      </trkpt>
      <trkpt lat="46.19081" lon="10.35117">
        <ele>1080.1238320163</ele>
        <time>2018-09-22T20:32:04.001Z</time>
      </trkpt>
      <trkpt lat="46.19075" lon="10.35106">
        <ele>1078.0417061238</ele>
        <time>2018-09-22T20:32:10.990Z</time>
      </trkpt>
      <trkpt lat="46.19069" lon="10.35095">
        <ele>1076.5286994654</ele>
        <time>2018-09-22T20:32:16.000Z</time>
      </trkpt>
      <trkpt lat="46.19061" lon="10.35079">
        <ele>1074.1232590866</ele>
        <time>2018-09-22T20:32:24.000Z</time>
      </trkpt>
      <trkpt lat="46.19053" lon="10.3507">
        <ele>1071.4325952081</ele>
        <time>2018-09-22T20:32:33.000Z</time>
      </trkpt>
      <trkpt lat="46.19047" lon="10.35059">
        <ele>1069.0223330526</ele>
        <time>2018-09-22T20:32:40.986Z</time>
      </trkpt>
      <trkpt lat="46.19041" lon="10.35049">
        <ele>1066.2542020956</ele>
        <time>2018-09-22T20:32:48.000Z</time>
      </trkpt>
      <trkpt lat="46.19034" lon="10.3504">
        <ele>1063.8521479939</ele>
        <time>2018-09-22T20:32:55.000Z</time>
      </trkpt>
      <trkpt lat="46.19027" lon="10.3503">
        <ele>1062.0539479203</ele>
        <time>2018-09-22T20:33:01.000Z</time>
      </trkpt>
      <trkpt lat="46.1902" lon="10.35021">
        <ele>1061.4168339346</ele>
        <time>2018-09-22T20:33:07.000Z</time>
      </trkpt>
      <trkpt lat="46.19011" lon="10.35017">
        <ele>1060.1799810033</ele>
        <time>2018-09-22T20:33:14.000Z</time>
      </trkpt>
      <trkpt lat="46.19003" lon="10.35008">
        <ele>1058.4475465032</ele>
        <time>2018-09-22T20:33:20.000Z</time>
      </trkpt>
      <trkpt lat="46.18991" lon="10.35001">
        <ele>1055.96529864</ele>
        <time>2018-09-22T20:33:28.000Z</time>
      </trkpt>
      <trkpt lat="46.18982" lon="10.34993">
        <ele>1054.6110560053</ele>
        <time>2018-09-22T20:33:35.000Z</time>
      </trkpt>
      <trkpt lat="46.18972" lon="10.34987">
        <ele>1053.6339742395</ele>
        <time>2018-09-22T20:33:43.000Z</time>
      </trkpt>
      <trkpt lat="46.18963" lon="10.3498">
        <ele>1052.2184024974</ele>
        <time>2018-09-22T20:33:50.000Z</time>
      </trkpt>
      <trkpt lat="46.18954" lon="10.34977">
        <ele>1050.2862626817</ele>
        <time>2018-09-22T20:34:00.000Z</time>
      </trkpt>
      <trkpt lat="46.18945" lon="10.34973">
        <ele>1049.0574702804</ele>
        <time>2018-09-22T20:34:06.000Z</time>
      </trkpt>
      <trkpt lat="46.18935" lon="10.34968">
        <ele>1047.72249856</ele>
        <time>2018-09-22T20:34:11.985Z</time>
      </trkpt>
      <trkpt lat="46.18927" lon="10.34963">
        <ele>1045.91799808</ele>
        <time>2018-09-22T20:34:18.000Z</time>
      </trkpt>
      <trkpt lat="46.18919" lon="10.34954">
        <ele>1044.21199872</ele>
        <time>2018-09-22T20:34:25.000Z</time>
      </trkpt>
      <trkpt lat="46.18911" lon="10.34945">
        <ele>1042.7270071075</ele>
        <time>2018-09-22T20:34:32.000Z</time>
      </trkpt>
      <trkpt lat="46.18905" lon="10.34933">
        <ele>1040.9842211957</ele>
        <time>2018-09-22T20:34:38.001Z</time>
      </trkpt>
      <trkpt lat="46.18897" lon="10.34925">
        <ele>1039.4601862686</ele>
        <time>2018-09-22T20:34:44.000Z</time>
      </trkpt>
      <trkpt lat="46.18889" lon="10.3492">
        <ele>1038.0124082026</ele>
        <time>2018-09-22T20:34:51.000Z</time>
      </trkpt>
      <trkpt lat="46.18881" lon="10.34912">
        <ele>1037.1269525</ele>
        <time>2018-09-22T20:35:00.000Z</time>
      </trkpt>
      <trkpt lat="46.18873" lon="10.34902">
        <ele>1036.4159829508</ele>
        <time>2018-09-22T20:35:07.000Z</time>
      </trkpt>
      <trkpt lat="46.18866" lon="10.34893">
        <ele>1034.8321726055</ele>
        <time>2018-09-22T20:35:14.000Z</time>
      </trkpt>
      <trkpt lat="46.1886" lon="10.34881">
        <ele>1031.6531701601</ele>
        <time>2018-09-22T20:35:21.991Z</time>
      </trkpt>
      <trkpt lat="46.18853" lon="10.34872">
        <ele>1027.8229375118</ele>
        <time>2018-09-22T20:35:42.000Z</time>
      </trkpt>
      <trkpt lat="46.18846" lon="10.34857">
        <ele>1025.22399744</ele>
        <time>2018-09-22T20:35:53.000Z</time>
      </trkpt>
      <trkpt lat="46.18842" lon="10.34846">
        <ele>1021.90599936</ele>
        <time>2018-09-22T20:36:02.000Z</time>
      </trkpt>
      <trkpt lat="46.18835" lon="10.34835">
        <ele>1020.89559936</ele>
        <time>2018-09-22T20:36:12.104Z</time>
      </trkpt>
      <trkpt lat="46.18828" lon="10.34825">
        <ele>1020.20599936</ele>
        <time>2018-09-22T20:36:19.000Z</time>
      </trkpt>
      <trkpt lat="46.18821" lon="10.34813">
        <ele>1018.61199872</ele>
        <time>2018-09-22T20:36:28.000Z</time>
      </trkpt>
      <trkpt lat="46.18812" lon="10.34806">
        <ele>1014.02399744</ele>
        <time>2018-09-22T20:36:41.000Z</time>
      </trkpt>
      <trkpt lat="46.18805" lon="10.34794">
        <ele>1011.435946196</ele>
        <time>2018-09-22T20:36:50.000Z</time>
      </trkpt>
      <trkpt lat="46.18796" lon="10.34789">
        <ele>1008.0497925311</ele>
        <time>2018-09-22T20:37:01.000Z</time>
      </trkpt>
      <trkpt lat="46.18796" lon="10.34775">
        <ele>1007.1070701298</ele>
        <time>2018-09-22T20:37:10.000Z</time>
      </trkpt>
      <trkpt lat="46.18795" lon="10.34761">
        <ele>1005.81199872</ele>
        <time>2018-09-22T20:37:17.000Z</time>
      </trkpt>
      <trkpt lat="46.18788" lon="10.34752">
        <ele>1004.01199872</ele>
        <time>2018-09-22T20:37:26.000Z</time>
      </trkpt>
      <trkpt lat="46.18779" lon="10.34744">
        <ele>1002.21199872</ele>
        <time>2018-09-22T20:37:35.000Z</time>
      </trkpt>
      <trkpt lat="46.18771" lon="10.34739">
        <ele>1000.6254107855</ele>
        <time>2018-09-22T20:37:42.991Z</time>
      </trkpt>
      <trkpt lat="46.18762" lon="10.34734">
        <ele>998.18575725433</ele>
        <time>2018-09-22T20:37:54.000Z</time>
      </trkpt>
      <trkpt lat="46.18752" lon="10.34729">
        <ele>995.12099712</ele>
        <time>2018-09-22T20:38:03.990Z</time>
      </trkpt>
      <trkpt lat="46.18743" lon="10.34723">
        <ele>992.61199872</ele>
        <time>2018-09-22T20:38:13.000Z</time>
      </trkpt>
      <trkpt lat="46.18734" lon="10.34716">
        <ele>991.41199872</ele>
        <time>2018-09-22T20:38:19.000Z</time>
      </trkpt>
      <trkpt lat="46.18725" lon="10.34718">
        <ele>989.82204446569</ele>
        <time>2018-09-22T20:38:26.991Z</time>
      </trkpt>
      <trkpt lat="46.18716" lon="10.34722">
        <ele>988.01913297696</ele>
        <time>2018-09-22T20:38:36.000Z</time>
      </trkpt>
      <trkpt lat="46.18707" lon="10.34723">
        <ele>987.01208330702</ele>
        <time>2018-09-22T20:38:41.000Z</time>
      </trkpt>
      <trkpt lat="46.18697" lon="10.34719">
        <ele>983.30599936</ele>
        <time>2018-09-22T20:38:58.000Z</time>
      </trkpt>
      <trkpt lat="46.1869" lon="10.34711">
        <ele>981.81439744</ele>
        <time>2018-09-22T20:39:06.988Z</time>
      </trkpt>
      <trkpt lat="46.18683" lon="10.34702">
        <ele>979.82099712</ele>
        <time>2018-09-22T20:39:14.990Z</time>
      </trkpt>
      <trkpt lat="46.18679" lon="10.34687">
        <ele>976.53146674305</ele>
        <time>2018-09-22T20:39:24.000Z</time>
      </trkpt>
      <trkpt lat="46.18679" lon="10.34674">
        <ele>973.03446789901</ele>
        <time>2018-09-22T20:39:31.001Z</time>
      </trkpt>
      <trkpt lat="46.18686" lon="10.34665">
        <ele>971.21501458099</ele>
        <time>2018-09-22T20:39:39.986Z</time>
      </trkpt>
      <trkpt lat="46.18691" lon="10.34652">
        <ele>968.93452190476</ele>
        <time>2018-09-22T20:39:48.000Z</time>
      </trkpt>
      <trkpt lat="46.18696" lon="10.34639">
        <ele>967.44082322581</ele>
        <time>2018-09-22T20:39:52.989Z</time>
      </trkpt>
      <trkpt lat="46.187" lon="10.34627">
        <ele>965.92540129032</ele>
        <time>2018-09-22T20:39:58.000Z</time>
      </trkpt>
      <trkpt lat="46.18704" lon="10.34613">
        <ele>964.80599936</ele>
        <time>2018-09-22T20:40:03.000Z</time>
      </trkpt>
      <trkpt lat="46.18712" lon="10.34607">
        <ele>964.00589952</ele>
        <time>2018-09-22T20:40:11.001Z</time>
      </trkpt>
      <trkpt lat="46.18722" lon="10.34605">
        <ele>961.62482484552</ele>
        <time>2018-09-22T20:40:19.001Z</time>
      </trkpt>
      <trkpt lat="46.18729" lon="10.34598">
        <ele>959.41323856794</ele>
        <time>2018-09-22T20:40:29.000Z</time>
      </trkpt>
      <trkpt lat="46.18739" lon="10.34595">
        <ele>956.5299968</ele>
        <time>2018-09-22T20:40:36.000Z</time>
      </trkpt>
      <trkpt lat="46.18742" lon="10.34582">
        <ele>947.30485355815</ele>
        <time>2018-09-22T20:40:58.000Z</time>
      </trkpt>
      <trkpt lat="46.18735" lon="10.34569">
        <ele>945.13426909225</ele>
        <time>2018-09-22T20:41:10.000Z</time>
      </trkpt>
      <trkpt lat="46.18727" lon="10.34563">
        <ele>944.52057615878</ele>
        <time>2018-09-22T20:41:16.000Z</time>
      </trkpt>
      <trkpt lat="46.18723" lon="10.34551">
        <ele>943.60599936</ele>
        <time>2018-09-22T20:41:25.000Z</time>
      </trkpt>
      <trkpt lat="46.18714" lon="10.34546">
        <ele>943</ele>
        <time>2018-09-22T20:41:39.000Z</time>
      </trkpt>
      <trkpt lat="46.18704" lon="10.34542">
        <ele>942.50599936</ele>
        <time>2018-09-22T20:41:46.000Z</time>
      </trkpt>
      <trkpt lat="46.18694" lon="10.3454">
        <ele>940.51799808</ele>
        <time>2018-09-22T20:41:56.000Z</time>
      </trkpt>
      <trkpt lat="46.18686" lon="10.34532">
        <ele>938.41799808</ele>
        <time>2018-09-22T20:42:03.000Z</time>
      </trkpt>
      <trkpt lat="46.18677" lon="10.34531">
        <ele>935.41799808</ele>
        <time>2018-09-22T20:42:13.000Z</time>
      </trkpt>
      <trkpt lat="46.18666" lon="10.34527">
        <ele>933.31799808</ele>
        <time>2018-09-22T20:42:20.000Z</time>
      </trkpt>
      <trkpt lat="46.18656" lon="10.34523">
        <ele>930.61799808</ele>
        <time>2018-09-22T20:42:29.000Z</time>
      </trkpt>
      <trkpt lat="46.18647" lon="10.34518">
        <ele>928.82492492188</ele>
        <time>2018-09-22T20:42:37.000Z</time>
      </trkpt>
      <trkpt lat="46.18639" lon="10.34513">
        <ele>927.83725427451</ele>
        <time>2018-09-22T20:42:42.000Z</time>
      </trkpt>
      <trkpt lat="46.18628" lon="10.34507">
        <ele>926.26862682353</ele>
        <time>2018-09-22T20:42:50.000Z</time>
      </trkpt>
      <trkpt lat="46.18616" lon="10.34508">
        <ele>921.27553825405</ele>
        <time>2018-09-22T20:42:59.000Z</time>
      </trkpt>
      <trkpt lat="46.18607" lon="10.3451">
        <ele>918.82142730159</ele>
        <time>2018-09-22T20:43:07.000Z</time>
      </trkpt>
      <trkpt lat="46.18599" lon="10.34518">
        <ele>917.4167489797</ele>
        <time>2018-09-22T20:43:16.990Z</time>
      </trkpt>
      <trkpt lat="46.1859" lon="10.34523">
        <ele>916.61375049181</ele>
        <time>2018-09-22T20:43:24.990Z</time>
      </trkpt>
      <trkpt lat="46.1858" lon="10.3452">
        <ele>915.9068992</ele>
        <time>2018-09-22T20:43:31.991Z</time>
      </trkpt>
      <trkpt lat="46.1857" lon="10.34519">
        <ele>914.71799808</ele>
        <time>2018-09-22T20:43:42.000Z</time>
      </trkpt>
      <trkpt lat="46.1856" lon="10.34519">
        <ele>912.91799808</ele>
        <time>2018-09-22T20:43:48.000Z</time>
      </trkpt>
      <trkpt lat="46.18551" lon="10.34518">
        <ele>910.42399744</ele>
        <time>2018-09-22T20:43:55.000Z</time>
      </trkpt>
      <trkpt lat="46.18541" lon="10.34525">
        <ele>907.61354503452</ele>
        <time>2018-09-22T20:44:03.000Z</time>
      </trkpt>
      <trkpt lat="46.18533" lon="10.3453">
        <ele>906.4183274348</ele>
        <time>2018-09-22T20:44:09.000Z</time>
      </trkpt>
      <trkpt lat="46.18525" lon="10.34538">
        <ele>904.52557818273</ele>
        <time>2018-09-22T20:44:16.000Z</time>
      </trkpt>
      <trkpt lat="46.18518" lon="10.34545">
        <ele>903.02106415922</ele>
        <time>2018-09-22T20:44:21.000Z</time>
      </trkpt>
      <trkpt lat="46.18507" lon="10.34543">
        <ele>901.0260254104</ele>
        <time>2018-09-22T20:44:26.000Z</time>
      </trkpt>
      <trkpt lat="46.18498" lon="10.34544">
        <ele>897.82399744</ele>
        <time>2018-09-22T20:44:34.000Z</time>
      </trkpt>
      <trkpt lat="46.18491" lon="10.34536">
        <ele>895.02399744</ele>
        <time>2018-09-22T20:44:41.000Z</time>
      </trkpt>
      <trkpt lat="46.18485" lon="10.34526">
        <ele>894.21618964705</ele>
        <time>2018-09-22T20:44:49.000Z</time>
      </trkpt>
      <trkpt lat="46.18481" lon="10.34514">
        <ele>892.88888888889</ele>
        <time>2018-09-22T20:44:53.990Z</time>
      </trkpt>
      <trkpt lat="46.18476" lon="10.34503">
        <ele>890.10714412698</ele>
        <time>2018-09-22T20:45:01.000Z</time>
      </trkpt>
      <trkpt lat="46.1847" lon="10.34489">
        <ele>887.21199872</ele>
        <time>2018-09-22T20:45:25.000Z</time>
      </trkpt>
      <trkpt lat="46.18466" lon="10.34477">
        <ele>885.81199872</ele>
        <time>2018-09-22T20:45:32.000Z</time>
      </trkpt>
      <trkpt lat="46.18465" lon="10.34462">
        <ele>883.98829952</ele>
        <time>2018-09-22T20:45:41.099Z</time>
      </trkpt>
      <trkpt lat="46.18463" lon="10.34448">
        <ele>882.52219904</ele>
        <time>2018-09-22T20:45:45.986Z</time>
      </trkpt>
      <trkpt lat="46.18458" lon="10.34436">
        <ele>879.22832971558</ele>
        <time>2018-09-22T20:45:57.001Z</time>
      </trkpt>
      <trkpt lat="46.18447" lon="10.34434">
        <ele>878</ele>
        <time>2018-09-22T20:46:04.000Z</time>
      </trkpt>
      <trkpt lat="46.18437" lon="10.34437">
        <ele>878</ele>
        <time>2018-09-22T20:46:09.986Z</time>
      </trkpt>
      <trkpt lat="46.18428" lon="10.34442">
        <ele>878</ele>
        <time>2018-09-22T20:46:18.001Z</time>
      </trkpt>
      <trkpt lat="46.18419" lon="10.34445">
        <ele>878.39400064</ele>
        <time>2018-09-22T20:46:25.000Z</time>
      </trkpt>
      <trkpt lat="46.1841" lon="10.3445">
        <ele>879</ele>
        <time>2018-09-22T20:46:32.990Z</time>
      </trkpt>
      <trkpt lat="46.184" lon="10.3445">
        <ele>879</ele>
        <time>2018-09-22T20:46:39.986Z</time>
      </trkpt>
      <trkpt lat="46.18391" lon="10.34445">
        <ele>878.02551896324</ele>
        <time>2018-09-22T20:46:45.986Z</time>
      </trkpt>
      <trkpt lat="46.18382" lon="10.3444">
        <ele>876.14458827732</ele>
        <time>2018-09-22T20:46:53.990Z</time>
      </trkpt>
      <trkpt lat="46.18373" lon="10.34442">
        <ele>874.02244595266</ele>
        <time>2018-09-22T20:47:00.986Z</time>
      </trkpt>
      <trkpt lat="46.18363" lon="10.34448">
        <ele>873.30599936</ele>
        <time>2018-09-22T20:47:08.000Z</time>
      </trkpt>
      <trkpt lat="46.18353" lon="10.34446">
        <ele>872.72368360902</ele>
        <time>2018-09-22T20:47:14.000Z</time>
      </trkpt>
      <trkpt lat="46.18345" lon="10.34438">
        <ele>872.16108992481</ele>
        <time>2018-09-22T20:47:19.986Z</time>
      </trkpt>
      <trkpt lat="46.18336" lon="10.34434">
        <ele>871.08418735043</ele>
        <time>2018-09-22T20:47:25.986Z</time>
      </trkpt>
      <trkpt lat="46.1833" lon="10.34426">
        <ele>869.41479936</ele>
        <time>2018-09-22T20:47:33.986Z</time>
      </trkpt>
      <trkpt lat="46.18328" lon="10.34412">
        <ele>867.12189952</ele>
        <time>2018-09-22T20:47:43.987Z</time>
      </trkpt>
      <trkpt lat="46.18323" lon="10.34401">
        <ele>865.02129664</ele>
        <time>2018-09-22T20:47:50.989Z</time>
      </trkpt>
      <trkpt lat="46.18317" lon="10.34391">
        <ele>864.20739968</ele>
        <time>2018-09-22T20:47:58.986Z</time>
      </trkpt>
      <trkpt lat="46.18309" lon="10.34382">
        <ele>861.13291238343</ele>
        <time>2018-09-22T20:48:29.991Z</time>
      </trkpt>
      <trkpt lat="46.18301" lon="10.34375">
        <ele>861</ele>
        <time>2018-09-22T20:48:37.996Z</time>
      </trkpt>
      <trkpt lat="46.18291" lon="10.3437">
        <ele>860.51554861789</ele>
        <time>2018-09-22T20:48:45.987Z</time>
      </trkpt>
      <trkpt lat="46.18281" lon="10.34366">
        <ele>857.06143232672</ele>
        <time>2018-09-22T20:48:55.987Z</time>
      </trkpt>
      <trkpt lat="46.18273" lon="10.3436">
        <ele>854</ele>
        <time>2018-09-22T20:49:02.001Z</time>
      </trkpt>
      <trkpt lat="46.18265" lon="10.3435">
        <ele>854</ele>
        <time>2018-09-22T20:49:08.986Z</time>
      </trkpt>
      <trkpt lat="46.18257" lon="10.34343">
        <ele>852.21799808</ele>
        <time>2018-09-22T20:49:17.000Z</time>
      </trkpt>
      <trkpt lat="46.1825" lon="10.34336">
        <ele>849.0275968</ele>
        <time>2018-09-22T20:49:25.991Z</time>
      </trkpt>
      <trkpt lat="46.18242" lon="10.34327">
        <ele>846.6155684691</ele>
        <time>2018-09-22T20:49:32.986Z</time>
      </trkpt>
      <trkpt lat="46.18236" lon="10.34317">
        <ele>845.21556872459</ele>
        <time>2018-09-22T20:49:40.000Z</time>
      </trkpt>
      <trkpt lat="46.18227" lon="10.3431">
        <ele>843.22043974056</ele>
        <time>2018-09-22T20:49:47.000Z</time>
      </trkpt>
      <trkpt lat="46.18219" lon="10.34302">
        <ele>840.02959872</ele>
        <time>2018-09-22T20:49:55.986Z</time>
      </trkpt>
      <trkpt lat="46.18212" lon="10.34293">
        <ele>837.61179904</ele>
        <time>2018-09-22T20:50:03.001Z</time>
      </trkpt>
      <trkpt lat="46.18206" lon="10.34283">
        <ele>836.41159936</ele>
        <time>2018-09-22T20:50:09.002Z</time>
      </trkpt>
      <trkpt lat="46.18201" lon="10.34272">
        <ele>835.41500517433</ele>
        <time>2018-09-22T20:50:16.986Z</time>
      </trkpt>
      <trkpt lat="46.18192" lon="10.34267">
        <ele>834.25495639329</ele>
        <time>2018-09-22T20:50:24.986Z</time>
      </trkpt>
      <trkpt lat="46.18183" lon="10.34265">
        <ele>833.27085277725</ele>
        <time>2018-09-22T20:50:30.000Z</time>
      </trkpt>
      <trkpt lat="46.18175" lon="10.34258">
        <ele>832.41942082645</ele>
        <time>2018-09-22T20:50:37.000Z</time>
      </trkpt>
      <trkpt lat="46.1817" lon="10.34247">
        <ele>831.90599936</ele>
        <time>2018-09-22T20:50:42.000Z</time>
      </trkpt>
      <trkpt lat="46.1817" lon="10.34233">
        <ele>831.20719872</ele>
        <time>2018-09-22T20:50:48.988Z</time>
      </trkpt>
      <trkpt lat="46.18168" lon="10.3422">
        <ele>831</ele>
        <time>2018-09-22T20:50:56.000Z</time>
      </trkpt>
      <trkpt lat="46.18164" lon="10.34207">
        <ele>831</ele>
        <time>2018-09-22T20:51:03.991Z</time>
      </trkpt>
      <trkpt lat="46.1816" lon="10.34194">
        <ele>830.41199872</ele>
        <time>2018-09-22T20:51:14.000Z</time>
      </trkpt>
      <trkpt lat="46.18157" lon="10.34179">
        <ele>829</ele>
        <time>2018-09-22T20:51:22.000Z</time>
      </trkpt>
      <trkpt lat="46.18152" lon="10.34168">
        <ele>829</ele>
        <time>2018-09-22T20:51:29.000Z</time>
      </trkpt>
      <trkpt lat="46.18144" lon="10.34158">
        <ele>829</ele>
        <time>2018-09-22T20:51:37.000Z</time>
      </trkpt>
      <trkpt lat="46.18144" lon="10.34143">
        <ele>829</ele>
        <time>2018-09-22T20:51:44.000Z</time>
      </trkpt>
      <trkpt lat="46.18139" lon="10.3413">
        <ele>829</ele>
        <time>2018-09-22T20:51:51.000Z</time>
      </trkpt>
      <trkpt lat="46.18133" lon="10.34121">
        <ele>827.41199872</ele>
        <time>2018-09-22T20:51:59.000Z</time>
      </trkpt>
      <trkpt lat="46.18132" lon="10.34105">
        <ele>827</ele>
        <time>2018-09-22T20:52:08.000Z</time>
      </trkpt>
      <trkpt lat="46.18132" lon="10.34091">
        <ele>826.80599936</ele>
        <time>2018-09-22T20:52:13.000Z</time>
      </trkpt>
      <trkpt lat="46.18133" lon="10.34077">
        <ele>826.10599936</ele>
        <time>2018-09-22T20:52:20.000Z</time>
      </trkpt>
      <trkpt lat="46.18131" lon="10.34062">
        <ele>825.50729984</ele>
        <time>2018-09-22T20:52:25.987Z</time>
      </trkpt>
      <trkpt lat="46.18128" lon="10.34049">
        <ele>825.00729984</ele>
        <time>2018-09-22T20:52:30.987Z</time>
      </trkpt>
      <trkpt lat="46.1812" lon="10.34039">
        <ele>823.21459968</ele>
        <time>2018-09-22T20:52:39.987Z</time>
      </trkpt>
      <trkpt lat="46.18115" lon="10.34028">
        <ele>822.0121984</ele>
        <time>2018-09-22T20:52:45.999Z</time>
      </trkpt>
      <trkpt lat="46.1811" lon="10.34017">
        <ele>820.42189952</ele>
        <time>2018-09-22T20:52:52.987Z</time>
      </trkpt>
      <trkpt lat="46.18103" lon="10.34005">
        <ele>818.02189952</ele>
        <time>2018-09-22T20:53:00.987Z</time>
      </trkpt>
      <trkpt lat="46.18093" lon="10.33994">
        <ele>818.79400064</ele>
        <time>2018-09-22T20:53:09.000Z</time>
      </trkpt>
      <trkpt lat="46.18084" lon="10.33997">
        <ele>818.10599936</ele>
        <time>2018-09-22T20:53:20.000Z</time>
      </trkpt>
      <trkpt lat="46.18073" lon="10.33998">
        <ele>816.7201561048</ele>
        <time>2018-09-22T20:53:34.000Z</time>
      </trkpt>
      <trkpt lat="46.18065" lon="10.33994">
        <ele>816.13287694223</ele>
        <time>2018-09-22T20:53:40.002Z</time>
      </trkpt>
      <trkpt lat="46.18057" lon="10.33986">
        <ele>813.22399744</ele>
        <time>2018-09-22T20:53:53.000Z</time>
      </trkpt>
      <trkpt lat="46.18047" lon="10.33979">
        <ele>811.22399744</ele>
        <time>2018-09-22T20:53:58.000Z</time>
      </trkpt>
      <trkpt lat="46.18039" lon="10.33974">
        <ele>810</ele>
        <time>2018-09-22T20:54:06.987Z</time>
      </trkpt>
      <trkpt lat="46.18029" lon="10.33967">
        <ele>809.70599936</ele>
        <time>2018-09-22T20:54:14.000Z</time>
      </trkpt>
      <trkpt lat="46.1802" lon="10.33961">
        <ele>808.90579968</ele>
        <time>2018-09-22T20:54:22.002Z</time>
      </trkpt>
      <trkpt lat="46.18025" lon="10.33947">
        <ele>806.02385684367</ele>
        <time>2018-09-22T20:54:41.000Z</time>
      </trkpt>
      <trkpt lat="46.18035" lon="10.33941">
        <ele>805.20883534136</ele>
        <time>2018-09-22T20:54:49.000Z</time>
      </trkpt>
      <trkpt lat="46.18045" lon="10.33935">
        <ele>804.42005976721</ele>
        <time>2018-09-22T20:54:54.000Z</time>
      </trkpt>
      <trkpt lat="46.18054" lon="10.33937">
        <ele>803.02979208586</ele>
        <time>2018-09-22T20:55:01.000Z</time>
      </trkpt>
      <trkpt lat="46.18062" lon="10.33943">
        <ele>803</ele>
        <time>2018-09-22T20:55:11.000Z</time>
      </trkpt>
      <trkpt lat="46.18071" lon="10.33942">
        <ele>803</ele>
        <time>2018-09-22T20:55:17.988Z</time>
      </trkpt>
      <trkpt lat="46.18081" lon="10.33942">
        <ele>803.39290112</ele>
        <time>2018-09-22T20:55:24.989Z</time>
      </trkpt>
      <trkpt lat="46.1809" lon="10.33945">
        <ele>803.99400064</ele>
        <time>2018-09-22T20:55:31.000Z</time>
      </trkpt>
      <trkpt lat="46.181" lon="10.33944">
        <ele>804</ele>
        <time>2018-09-22T20:55:38.000Z</time>
      </trkpt>
      <trkpt lat="46.18106" lon="10.33931">
        <ele>803.01969915468</ele>
        <time>2018-09-22T20:55:45.987Z</time>
      </trkpt>
      <trkpt lat="46.18114" lon="10.33921">
        <ele>801.98859904</ele>
        <time>2018-09-22T20:55:51.098Z</time>
      </trkpt>
      <trkpt lat="46.1812" lon="10.33909">
        <ele>799.01799808</ele>
        <time>2018-09-22T20:56:01.000Z</time>
      </trkpt>
      <trkpt lat="46.18129" lon="10.33902">
        <ele>800</ele>
        <time>2018-09-22T20:56:13.000Z</time>
      </trkpt>
      <trkpt lat="46.18135" lon="10.33893">
        <ele>800</ele>
        <time>2018-09-22T20:56:17.997Z</time>
      </trkpt>
      <trkpt lat="46.18142" lon="10.33882">
        <ele>799.50905400985</ele>
        <time>2018-09-22T20:56:26.000Z</time>
      </trkpt>
      <trkpt lat="46.18151" lon="10.33878">
        <ele>799.00714173498</ele>
        <time>2018-09-22T20:56:30.989Z</time>
      </trkpt>
      <trkpt lat="46.1816" lon="10.3387">
        <ele>798</ele>
        <time>2018-09-22T20:56:44.000Z</time>
      </trkpt>
      <trkpt lat="46.18169" lon="10.33865">
        <ele>797.80206172507</ele>
        <time>2018-09-22T20:56:52.000Z</time>
      </trkpt>
      <trkpt lat="46.18178" lon="10.33861">
        <ele>795.95041250336</ele>
        <time>2018-09-22T20:56:57.987Z</time>
      </trkpt>
      <trkpt lat="46.18187" lon="10.33866">
        <ele>795</ele>
        <time>2018-09-22T20:57:08.987Z</time>
      </trkpt>
      <trkpt lat="46.18195" lon="10.33873">
        <ele>792.81530604195</ele>
        <time>2018-09-22T20:57:21.989Z</time>
      </trkpt>
      <trkpt lat="46.18204" lon="10.33878">
        <ele>791.02345986579</ele>
        <time>2018-09-22T20:57:31.002Z</time>
      </trkpt>
      <trkpt lat="46.18215" lon="10.33882">
        <ele>790.3089527945</ele>
        <time>2018-09-22T20:57:37.989Z</time>
      </trkpt>
      <trkpt lat="46.18229" lon="10.33886">
        <ele>789.50599936</ele>
        <time>2018-09-22T20:57:46.000Z</time>
      </trkpt>
      <trkpt lat="46.18239" lon="10.33879">
        <ele>788.42546755336</ele>
        <time>2018-09-22T20:57:53.000Z</time>
      </trkpt>
      <trkpt lat="46.18246" lon="10.33867">
        <ele>786.94412735798</ele>
        <time>2018-09-22T20:57:58.002Z</time>
      </trkpt>
      <trkpt lat="46.18255" lon="10.33859">
        <ele>785.44984846186</ele>
        <time>2018-09-22T20:58:03.000Z</time>
      </trkpt>
      <trkpt lat="46.18254" lon="10.33843">
        <ele>782.61439744</ele>
        <time>2018-09-22T20:58:12.988Z</time>
      </trkpt>
      <trkpt lat="46.18251" lon="10.3383">
        <ele>780.7072</ele>
        <time>2018-09-22T20:58:23.988Z</time>
      </trkpt>
      <trkpt lat="46.18245" lon="10.33819">
        <ele>779.8144</ele>
        <time>2018-09-22T20:58:31.988Z</time>
      </trkpt>
      <trkpt lat="46.18241" lon="10.33808">
        <ele>779.0144</ele>
        <time>2018-09-22T20:58:35.988Z</time>
      </trkpt>
      <trkpt lat="46.18236" lon="10.33795">
        <ele>778.21139968</ele>
        <time>2018-09-22T20:58:40.003Z</time>
      </trkpt>
      <trkpt lat="46.18235" lon="10.33782">
        <ele>776.4257689507</ele>
        <time>2018-09-22T20:58:49.002Z</time>
      </trkpt>
      <trkpt lat="46.18227" lon="10.33775">
        <ele>774.41614377346</ele>
        <time>2018-09-22T20:58:58.998Z</time>
      </trkpt>
      <trkpt lat="46.18219" lon="10.33767">
        <ele>773.60719872</ele>
        <time>2018-09-22T20:59:04.988Z</time>
      </trkpt>
      <trkpt lat="46.18214" lon="10.33755">
        <ele>772.41139968</ele>
        <time>2018-09-22T20:59:14.003Z</time>
      </trkpt>
      <trkpt lat="46.18205" lon="10.33748">
        <ele>771.21199872</ele>
        <time>2018-09-22T20:59:20.000Z</time>
      </trkpt>
      <trkpt lat="46.18199" lon="10.33736">
        <ele>769.51799808</ele>
        <time>2018-09-22T20:59:26.000Z</time>
      </trkpt>
      <trkpt lat="46.18201" lon="10.33722">
        <ele>768.02159616</ele>
        <time>2018-09-22T20:59:30.988Z</time>
      </trkpt>
      <trkpt lat="46.18198" lon="10.33705">
        <ele>767.11133193712</ele>
        <time>2018-09-22T20:59:40.000Z</time>
      </trkpt>
      <trkpt lat="46.18192" lon="10.33693">
        <ele>766.02249124498</ele>
        <time>2018-09-22T20:59:45.988Z</time>
      </trkpt>
      <trkpt lat="46.18186" lon="10.3368">
        <ele>765.2194788755</ele>
        <time>2018-09-22T20:59:49.987Z</time>
      </trkpt>
      <trkpt lat="46.18186" lon="10.33666">
        <ele>764.32801618677</ele>
        <time>2018-09-22T20:59:57.988Z</time>
      </trkpt>
      <trkpt lat="46.18186" lon="10.33653">
        <ele>762.27440128</ele>
        <time>2018-09-22T21:00:09.988Z</time>
      </trkpt>
      <trkpt lat="46.18183" lon="10.33641">
        <ele>761.62597847487</ele>
        <time>2018-09-22T21:00:14.988Z</time>
      </trkpt>
      <trkpt lat="46.18176" lon="10.33629">
        <ele>761.21360706877</ele>
        <time>2018-09-22T21:00:18.988Z</time>
      </trkpt>
      <trkpt lat="46.18173" lon="10.33615">
        <ele>759.23426026319</ele>
        <time>2018-09-22T21:00:26.987Z</time>
      </trkpt>
      <trkpt lat="46.18167" lon="10.33604">
        <ele>756.41490317499</ele>
        <time>2018-09-22T21:00:39.000Z</time>
      </trkpt>
      <trkpt lat="46.18159" lon="10.33594">
        <ele>754.81918003355</ele>
        <time>2018-09-22T21:00:45.000Z</time>
      </trkpt>
      <trkpt lat="46.18153" lon="10.33585">
        <ele>753.0209799599</ele>
        <time>2018-09-22T21:00:51.000Z</time>
      </trkpt>
      <trkpt lat="46.18149" lon="10.33572">
        <ele>750.63518831662</ele>
        <time>2018-09-22T21:00:59.000Z</time>
      </trkpt>
      <trkpt lat="46.18144" lon="10.3356">
        <ele>750</ele>
        <time>2018-09-22T21:01:08.000Z</time>
      </trkpt>
      <trkpt lat="46.18144" lon="10.33546">
        <ele>749.6095141079</ele>
        <time>2018-09-22T21:01:15.000Z</time>
      </trkpt>
      <trkpt lat="46.18149" lon="10.33534">
        <ele>749.01486650716</ele>
        <time>2018-09-22T21:01:21.000Z</time>
      </trkpt>
      <trkpt lat="46.18157" lon="10.33529">
        <ele>749</ele>
        <time>2018-09-22T21:01:31.000Z</time>
      </trkpt>
      <trkpt lat="46.18166" lon="10.3352">
        <ele>747.22970282474</ele>
        <time>2018-09-22T21:01:40.000Z</time>
      </trkpt>
      <trkpt lat="46.18172" lon="10.33481">
        <ele>744.01817989054</ele>
        <time>2018-09-22T21:01:51.000Z</time>
      </trkpt>
      <trkpt lat="46.18181" lon="10.33488">
        <ele>742.41199872</ele>
        <time>2018-09-22T21:01:59.000Z</time>
      </trkpt>
      <trkpt lat="46.18185" lon="10.33501">
        <ele>742.01199872</ele>
        <time>2018-09-22T21:02:01.000Z</time>
      </trkpt>
      <trkpt lat="46.18195" lon="10.335">
        <ele>741.40599936</ele>
        <time>2018-09-22T21:02:17.000Z</time>
      </trkpt>
      <trkpt lat="46.18203" lon="10.33494">
        <ele>740.21513916795</ele>
        <time>2018-09-22T21:02:25.000Z</time>
      </trkpt>
      <trkpt lat="46.18206" lon="10.3348">
        <ele>736.41199872</ele>
        <time>2018-09-22T21:02:44.000Z</time>
      </trkpt>
      <trkpt lat="46.18207" lon="10.33467">
        <ele>735.01199872</ele>
        <time>2018-09-22T21:02:51.000Z</time>
      </trkpt>
      <trkpt lat="46.18203" lon="10.33454">
        <ele>732.64158375187</ele>
        <time>2018-09-22T21:02:59.000Z</time>
      </trkpt>
      <trkpt lat="46.18194" lon="10.33452">
        <ele>732</ele>
        <time>2018-09-22T21:03:07.000Z</time>
      </trkpt>
      <trkpt lat="46.18186" lon="10.33443">
        <ele>731.62932814382</ele>
        <time>2018-09-22T21:03:15.000Z</time>
      </trkpt>
      <trkpt lat="46.18185" lon="10.3343">
        <ele>730.81578988281</ele>
        <time>2018-09-22T21:03:23.000Z</time>
      </trkpt>
      <trkpt lat="46.18185" lon="10.33416">
        <ele>730.30971635267</ele>
        <time>2018-09-22T21:03:28.000Z</time>
      </trkpt>
      <trkpt lat="46.18192" lon="10.33403">
        <ele>730.09334717987</ele>
        <time>2018-09-22T21:03:32.000Z</time>
      </trkpt>
      <trkpt lat="46.18197" lon="10.33388">
        <ele>730.89771570281</ele>
        <time>2018-09-22T21:03:40.100Z</time>
      </trkpt>
      <trkpt lat="46.18199" lon="10.33375">
        <ele>731</ele>
        <time>2018-09-22T21:03:47.988Z</time>
      </trkpt>
      <trkpt lat="46.18198" lon="10.33361">
        <ele>731</ele>
        <time>2018-09-22T21:04:01.099Z</time>
      </trkpt>
      <trkpt lat="46.18188" lon="10.3336">
        <ele>731</ele>
        <time>2018-09-22T21:04:07.000Z</time>
      </trkpt>
      <trkpt lat="46.18185" lon="10.33347">
        <ele>730.01593623466</ele>
        <time>2018-09-22T21:04:16.000Z</time>
      </trkpt>
      <trkpt lat="46.18181" lon="10.33335">
        <ele>728.41883858523</ele>
        <time>2018-09-22T21:04:24.000Z</time>
      </trkpt>
      <trkpt lat="46.18173" lon="10.33328">
        <ele>727.21643300453</ele>
        <time>2018-09-22T21:04:30.000Z</time>
      </trkpt>
      <trkpt lat="46.18164" lon="10.33322">
        <ele>726.41386175755</ele>
        <time>2018-09-22T21:04:37.000Z</time>
      </trkpt>
      <trkpt lat="46.18158" lon="10.33332">
        <ele>725.41212147854</ele>
        <time>2018-09-22T21:04:47.000Z</time>
      </trkpt>
      <trkpt lat="46.18152" lon="10.33351">
        <ele>725</ele>
        <time>2018-09-22T21:04:53.000Z</time>
      </trkpt>
      <trkpt lat="46.18143" lon="10.33351">
        <ele>725</ele>
        <time>2018-09-22T21:04:57.000Z</time>
      </trkpt>
      <trkpt lat="46.18132" lon="10.3335">
        <ele>725</ele>
        <time>2018-09-22T21:05:02.000Z</time>
      </trkpt>
      <trkpt lat="46.18124" lon="10.33341">
        <ele>725</ele>
        <time>2018-09-22T21:05:08.000Z</time>
      </trkpt>
      <trkpt lat="46.18114" lon="10.33339">
        <ele>724.70954778007</ele>
        <time>2018-09-22T21:05:14.000Z</time>
      </trkpt>
      <trkpt lat="46.18105" lon="10.33334">
        <ele>724</ele>
        <time>2018-09-22T21:05:22.000Z</time>
      </trkpt>
      <trkpt lat="46.18098" lon="10.33325">
        <ele>724</ele>
        <time>2018-09-22T21:05:28.988Z</time>
      </trkpt>
      <trkpt lat="46.18093" lon="10.33313">
        <ele>724</ele>
        <time>2018-09-22T21:05:37.988Z</time>
      </trkpt>
      <trkpt lat="46.18085" lon="10.33305">
        <ele>723.21192765842</ele>
        <time>2018-09-22T21:05:48.988Z</time>
      </trkpt>
      <trkpt lat="46.18074" lon="10.33305">
        <ele>723</ele>
        <time>2018-09-22T21:05:54.000Z</time>
      </trkpt>
      <trkpt lat="46.18065" lon="10.33309">
        <ele>723</ele>
        <time>2018-09-22T21:05:56.000Z</time>
      </trkpt>
      <trkpt lat="46.18057" lon="10.33302">
        <ele>723</ele>
        <time>2018-09-22T21:06:00.000Z</time>
      </trkpt>
      <trkpt lat="46.18056" lon="10.33284">
        <ele>723</ele>
        <time>2018-09-22T21:06:06.000Z</time>
      </trkpt>
      <trkpt lat="46.18059" lon="10.33268">
        <ele>723</ele>
        <time>2018-09-22T21:06:13.000Z</time>
      </trkpt>
      <trkpt lat="46.18057" lon="10.33253">
        <ele>723</ele>
        <time>2018-09-22T21:06:17.998Z</time>
      </trkpt>
      <trkpt lat="46.18053" lon="10.3324">
        <ele>723.09400064</ele>
        <time>2018-09-22T21:06:32.000Z</time>
      </trkpt>
      <trkpt lat="46.18043" lon="10.33237">
        <ele>723.59400064</ele>
        <time>2018-09-22T21:06:37.000Z</time>
      </trkpt>
      <trkpt lat="46.18035" lon="10.33232">
        <ele>723.99400064</ele>
        <time>2018-09-22T21:06:41.000Z</time>
      </trkpt>
      <trkpt lat="46.18028" lon="10.33223">
        <ele>724</ele>
        <time>2018-09-22T21:06:47.000Z</time>
      </trkpt>
      <trkpt lat="46.18037" lon="10.33226">
        <ele>723</ele>
        <time>2018-09-22T21:07:02.000Z</time>
      </trkpt>
      <trkpt lat="46.18025" lon="10.33232">
        <ele>723</ele>
        <time>2018-09-22T21:07:13.000Z</time>
      </trkpt>
      <trkpt lat="46.18017" lon="10.3324">
        <ele>723</ele>
        <time>2018-09-22T21:07:17.000Z</time>
      </trkpt>
      <trkpt lat="46.1801" lon="10.33247">
        <ele>723</ele>
        <time>2018-09-22T21:07:22.003Z</time>
      </trkpt>
      <trkpt lat="46.18" lon="10.33247">
        <ele>722.01809050853</ele>
        <time>2018-09-22T21:07:40.988Z</time>
      </trkpt>
      <trkpt lat="46.17995" lon="10.33236">
        <ele>722</ele>
        <time>2018-09-22T21:14:02.989Z</time>
      </trkpt>
      <trkpt lat="46.18002" lon="10.33245">
        <ele>722</ele>
        <time>2018-09-22T21:14:08.000Z</time>
      </trkpt>
      <trkpt lat="46.17994" lon="10.33252">
        <ele>722</ele>
        <time>2018-09-22T21:14:28.000Z</time>
      </trkpt>
      <trkpt lat="46.18003" lon="10.33253">
        <ele>722</ele>
        <time>2018-09-22T21:15:45.989Z</time>
      </trkpt>
      <trkpt lat="46.18013" lon="10.33251">
        <ele>722</ele>
        <time>2018-09-22T21:16:05.000Z</time>
      </trkpt>
      <trkpt lat="46.1801" lon="10.33238">
        <ele>722</ele>
        <time>2018-09-22T21:16:38.000Z</time>
      </trkpt>
      <trkpt lat="46.18" lon="10.33241">
        <ele>721.59400064</ele>
        <time>2018-09-22T21:17:07.000Z</time>
      </trkpt>
      <trkpt lat="46.18008" lon="10.33249">
        <ele>722</ele>
        <time>2018-09-22T21:17:40.000Z</time>
      </trkpt>
      <trkpt lat="46.17999" lon="10.33246">
        <ele>722.20599936</ele>
        <time>2018-09-22T21:18:39.000Z</time>
      </trkpt>
      <trkpt lat="46.17995" lon="10.33259">
        <ele>722</ele>
        <time>2018-09-22T21:19:06.000Z</time>
      </trkpt>
      <trkpt lat="46.18001" lon="10.33249">
        <ele>722</ele>
        <time>2018-09-22T21:20:06.000Z</time>
      </trkpt>
      <trkpt lat="46.17999" lon="10.33236">
        <ele>722</ele>
        <time>2018-09-22T21:24:20.000Z</time>
      </trkpt>
      <trkpt lat="46.17991" lon="10.33242">
        <ele>722</ele>
        <time>2018-09-22T21:25:12.000Z</time>
      </trkpt>
      <trkpt lat="46.17997" lon="10.33255">
        <ele>721</ele>
        <time>2018-09-22T21:25:45.000Z</time>
      </trkpt>
      <trkpt lat="46.17993" lon="10.33242">
        <ele>721</ele>
        <time>2018-09-22T21:26:04.000Z</time>
      </trkpt>
      <trkpt lat="46.18001" lon="10.3325">
        <ele>720</ele>
        <time>2018-09-22T21:27:41.000Z</time>
      </trkpt>
      <trkpt lat="46.18007" lon="10.33262">
        <ele>720</ele>
        <time>2018-09-22T21:28:03.000Z</time>
      </trkpt>
      <trkpt lat="46.17999" lon="10.33255">
        <ele>720</ele>
        <time>2018-09-22T21:28:21.000Z</time>
      </trkpt>
      <trkpt lat="46.1799" lon="10.33254">
        <ele>719</ele>
        <time>2018-09-22T21:28:53.000Z</time>
      </trkpt>
      <trkpt lat="46.17999" lon="10.33255">
        <ele>719</ele>
        <time>2018-09-22T21:29:27.000Z</time>
      </trkpt>
      <trkpt lat="46.17997" lon="10.33242">
        <ele>718</ele>
        <time>2018-09-22T21:31:04.000Z</time>
      </trkpt>
      <trkpt lat="46.17994" lon="10.33255">
        <ele>718.89072223718</ele>
        <time>2018-09-22T21:31:50.000Z</time>
      </trkpt>
      <trkpt lat="46.18002" lon="10.33246">
        <ele>716</ele>
        <time>2018-09-22T21:33:08.000Z</time>
      </trkpt>
      <trkpt lat="46.1801" lon="10.33252">
        <ele>715</ele>
        <time>2018-09-22T21:34:56.990Z</time>
      </trkpt>
      <trkpt lat="46.18001" lon="10.33251">
        <ele>715.59260032</ele>
        <time>2018-09-22T21:35:16.986Z</time>
      </trkpt>
      <trkpt lat="46.1801" lon="10.33254">
        <ele>713.79260032</ele>
        <time>2018-09-22T21:37:08.986Z</time>
      </trkpt>
      <trkpt lat="46.18001" lon="10.33253">
        <ele>715</ele>
        <time>2018-09-22T21:37:31.985Z</time>
      </trkpt>
      <trkpt lat="46.17993" lon="10.33243">
        <ele>712</ele>
        <time>2018-09-22T21:38:19.000Z</time>
      </trkpt>
      <trkpt lat="46.17985" lon="10.33235">
        <ele>712</ele>
        <time>2018-09-22T21:38:28.988Z</time>
      </trkpt>
      <trkpt lat="46.17982" lon="10.33221">
        <ele>712</ele>
        <time>2018-09-22T21:38:38.986Z</time>
      </trkpt>
      <trkpt lat="46.17977" lon="10.33209">
        <ele>711.51040617444</ele>
        <time>2018-09-22T21:38:46.000Z</time>
      </trkpt>
      <trkpt lat="46.17978" lon="10.33195">
        <ele>711.28758825034</ele>
        <time>2018-09-22T21:38:54.000Z</time>
      </trkpt>
      <trkpt lat="46.17973" lon="10.33184">
        <ele>712</ele>
        <time>2018-09-22T21:39:03.000Z</time>
      </trkpt>
      <trkpt lat="46.17965" lon="10.33177">
        <ele>712</ele>
        <time>2018-09-22T21:39:10.000Z</time>
      </trkpt>
      <trkpt lat="46.17973" lon="10.33181">
        <ele>712</ele>
        <time>2018-09-22T21:39:24.000Z</time>
      </trkpt>
      <trkpt lat="46.17982" lon="10.33186">
        <ele>712</ele>
        <time>2018-09-22T21:39:35.000Z</time>
      </trkpt>
      <trkpt lat="46.17992" lon="10.33183">
        <ele>712.48608349015</ele>
        <time>2018-09-22T21:39:46.000Z</time>
      </trkpt>
      <trkpt lat="46.18001" lon="10.33186">
        <ele>713</ele>
        <time>2018-09-22T21:40:01.989Z</time>
      </trkpt>
      <trkpt lat="46.17995" lon="10.33175">
        <ele>713</ele>
        <time>2018-09-22T21:40:15.000Z</time>
      </trkpt>
      <trkpt lat="46.17985" lon="10.33174">
        <ele>712.80599936</ele>
        <time>2018-09-22T21:40:23.000Z</time>
      </trkpt>
      <trkpt lat="46.17976" lon="10.33179">
        <ele>712.10599936</ele>
        <time>2018-09-22T21:40:30.000Z</time>
      </trkpt>
      <trkpt lat="46.17967" lon="10.33178">
        <ele>711.50599936</ele>
        <time>2018-09-22T21:40:36.000Z</time>
      </trkpt>
      <trkpt lat="46.1796" lon="10.3317">
        <ele>710.40599936</ele>
        <time>2018-09-22T21:40:47.000Z</time>
      </trkpt>
      <trkpt lat="46.17961" lon="10.33157">
        <ele>709.80599936</ele>
        <time>2018-09-22T21:40:53.000Z</time>
      </trkpt>
      <trkpt lat="46.17967" lon="10.33145">
        <ele>709</ele>
        <time>2018-09-22T21:41:04.986Z</time>
      </trkpt>
      <trkpt lat="46.17964" lon="10.33132">
        <ele>709</ele>
        <time>2018-09-22T21:41:13.998Z</time>
      </trkpt>
      <trkpt lat="46.17957" lon="10.33124">
        <ele>709</ele>
        <time>2018-09-22T21:41:21.985Z</time>
      </trkpt>
      <trkpt lat="46.17954" lon="10.33111">
        <ele>709</ele>
        <time>2018-09-22T21:41:30.509Z</time>
      </trkpt>
      <trkpt lat="46.17949" lon="10.33096">
        <ele>709</ele>
        <time>2018-09-22T21:41:37.000Z</time>
      </trkpt>
      <trkpt lat="46.17951" lon="10.33083">
        <ele>709</ele>
        <time>2018-09-22T21:41:43.000Z</time>
      </trkpt>
      <trkpt lat="46.1796" lon="10.33077">
        <ele>709.18843455723</ele>
        <time>2018-09-22T21:41:53.000Z</time>
      </trkpt>
      <trkpt lat="46.1797" lon="10.33079">
        <ele>710</ele>
        <time>2018-09-22T21:42:02.000Z</time>
      </trkpt>
      <trkpt lat="46.17981" lon="10.33081">
        <ele>710</ele>
        <time>2018-09-22T21:42:07.000Z</time>
      </trkpt>
      <trkpt lat="46.17992" lon="10.33084">
        <ele>710</ele>
        <time>2018-09-22T21:42:16.991Z</time>
      </trkpt>
      <trkpt lat="46.17999" lon="10.33092">
        <ele>710.49094599015</ele>
        <time>2018-09-22T21:42:26.000Z</time>
      </trkpt>
      <trkpt lat="46.18008" lon="10.33096">
        <ele>711.29137795865</ele>
        <time>2018-09-22T21:42:34.000Z</time>
      </trkpt>
      <trkpt lat="46.18018" lon="10.33099">
        <ele>711.98513349284</ele>
        <time>2018-09-22T21:42:41.000Z</time>
      </trkpt>
      <trkpt lat="46.18026" lon="10.33104">
        <ele>712</ele>
        <time>2018-09-22T21:42:50.000Z</time>
      </trkpt>
      <trkpt lat="46.18036" lon="10.33107">
        <ele>712.57664257933</ele>
        <time>2018-09-22T21:42:57.000Z</time>
      </trkpt>
      <trkpt lat="46.18045" lon="10.33102">
        <ele>713</ele>
        <time>2018-09-22T21:43:03.989Z</time>
      </trkpt>
      <trkpt lat="46.18054" lon="10.33101">
        <ele>713.39400064</ele>
        <time>2018-09-22T21:43:15.000Z</time>
      </trkpt>
      <trkpt lat="46.1806" lon="10.33091">
        <ele>714.18635971287</ele>
        <time>2018-09-22T21:43:23.000Z</time>
      </trkpt>
      <trkpt lat="46.1807" lon="10.33096">
        <ele>714.85878944819</ele>
        <time>2018-09-22T21:43:30.000Z</time>
      </trkpt>
      <trkpt lat="46.18079" lon="10.33097">
        <ele>715</ele>
        <time>2018-09-22T21:43:38.000Z</time>
      </trkpt>
      <trkpt lat="46.18084" lon="10.33086">
        <ele>715</ele>
        <time>2018-09-22T21:43:48.000Z</time>
      </trkpt>
      <trkpt lat="46.18084" lon="10.33073">
        <ele>715</ele>
        <time>2018-09-22T21:43:55.000Z</time>
      </trkpt>
      <trkpt lat="46.18082" lon="10.33058">
        <ele>715</ele>
        <time>2018-09-22T21:44:04.000Z</time>
      </trkpt>
      <trkpt lat="46.18084" lon="10.33045">
        <ele>715</ele>
        <time>2018-09-22T21:44:12.000Z</time>
      </trkpt>
      <trkpt lat="46.18084" lon="10.33029">
        <ele>715</ele>
        <time>2018-09-22T21:44:21.000Z</time>
      </trkpt>
      <trkpt lat="46.1808" lon="10.33016">
        <ele>715.88715225934</ele>
        <time>2018-09-22T21:44:30.002Z</time>
      </trkpt>
      <trkpt lat="46.18079" lon="10.33002">
        <ele>716.79176712195</ele>
        <time>2018-09-22T21:44:38.986Z</time>
      </trkpt>
      <trkpt lat="46.18076" lon="10.32989">
        <ele>717.08649145547</ele>
        <time>2018-09-22T21:44:52.000Z</time>
      </trkpt>
      <trkpt lat="46.18082" lon="10.32976">
        <ele>717.86394553592</ele>
        <time>2018-09-22T21:45:00.000Z</time>
      </trkpt>
      <trkpt lat="46.18088" lon="10.32965">
        <ele>718.579710529</ele>
        <time>2018-09-22T21:45:07.000Z</time>
      </trkpt>
      <trkpt lat="46.18091" lon="10.32952">
        <ele>719</ele>
        <time>2018-09-22T21:45:19.000Z</time>
      </trkpt>
      <trkpt lat="46.18092" lon="10.32939">
        <ele>719</ele>
        <time>2018-09-22T21:45:28.000Z</time>
      </trkpt>
      <trkpt lat="46.18088" lon="10.32926">
        <ele>719.68577051602</ele>
        <time>2018-09-22T21:45:38.000Z</time>
      </trkpt>
      <trkpt lat="46.18091" lon="10.32913">
        <ele>720.99392776541</ele>
        <time>2018-09-22T21:45:51.000Z</time>
      </trkpt>
      <trkpt lat="46.18086" lon="10.32902">
        <ele>721</ele>
        <time>2018-09-22T21:45:59.000Z</time>
      </trkpt>
      <trkpt lat="46.18082" lon="10.32891">
        <ele>721</ele>
        <time>2018-09-22T21:46:07.000Z</time>
      </trkpt>
      <trkpt lat="46.18072" lon="10.32886">
        <ele>720.81736506675</ele>
        <time>2018-09-22T21:46:13.000Z</time>
      </trkpt>
      <trkpt lat="46.18072" lon="10.32872">
        <ele>720.11876271855</ele>
        <time>2018-09-22T21:46:20.000Z</time>
      </trkpt>
      <trkpt lat="46.18068" lon="10.32859">
        <ele>720</ele>
        <time>2018-09-22T21:46:29.000Z</time>
      </trkpt>
      <trkpt lat="46.18061" lon="10.32849">
        <ele>720</ele>
        <time>2018-09-22T21:46:38.000Z</time>
      </trkpt>
      <trkpt lat="46.18061" lon="10.32833">
        <ele>719.00599936</ele>
        <time>2018-09-22T21:46:51.000Z</time>
      </trkpt>
      <trkpt lat="46.18066" lon="10.32822">
        <ele>719.39400064</ele>
        <time>2018-09-22T21:46:55.000Z</time>
      </trkpt>
      <trkpt lat="46.18072" lon="10.32811">
        <ele>720.76953125</ele>
        <time>2018-09-22T21:47:29.000Z</time>
      </trkpt>
      <trkpt lat="46.18079" lon="10.32802">
        <ele>721</ele>
        <time>2018-09-22T21:47:37.000Z</time>
      </trkpt>
      <trkpt lat="46.18088" lon="10.32802">
        <ele>722.98786782216</ele>
        <time>2018-09-22T21:47:51.000Z</time>
      </trkpt>
      <trkpt lat="46.18098" lon="10.32799">
        <ele>724.19400064</ele>
        <time>2018-09-22T21:48:03.000Z</time>
      </trkpt>
      <trkpt lat="46.18107" lon="10.32805">
        <ele>725.6928</ele>
        <time>2018-09-22T21:48:17.988Z</time>
      </trkpt>
      <trkpt lat="46.18115" lon="10.32811">
        <ele>726.59420032</ele>
        <time>2018-09-22T21:48:27.002Z</time>
      </trkpt>
      <trkpt lat="46.18125" lon="10.32809">
        <ele>728.3838492893</ele>
        <time>2018-09-22T21:48:38.000Z</time>
      </trkpt>
      <trkpt lat="46.18134" lon="10.32803">
        <ele>730.70526429252</ele>
        <time>2018-09-22T21:48:50.000Z</time>
      </trkpt>
      <trkpt lat="46.18138" lon="10.32791">
        <ele>731.65766828128</ele>
        <time>2018-09-22T21:48:57.972Z</time>
      </trkpt>
      <trkpt lat="46.18135" lon="10.32778">
        <ele>732.37802866729</ele>
        <time>2018-09-22T21:49:05.002Z</time>
      </trkpt>
      <trkpt lat="46.18134" lon="10.32764">
        <ele>733</ele>
        <time>2018-09-22T21:49:13.987Z</time>
      </trkpt>
      <trkpt lat="46.18137" lon="10.32751">
        <ele>733.5862512091</ele>
        <time>2018-09-22T21:49:26.987Z</time>
      </trkpt>
      <trkpt lat="46.18143" lon="10.3274">
        <ele>734.79170937649</ele>
        <time>2018-09-22T21:49:39.000Z</time>
      </trkpt>
      <trkpt lat="46.18143" lon="10.32727">
        <ele>735</ele>
        <time>2018-09-22T21:49:48.987Z</time>
      </trkpt>
      <trkpt lat="46.18141" lon="10.32714">
        <ele>735</ele>
        <time>2018-09-22T21:50:00.002Z</time>
      </trkpt>
      <trkpt lat="46.18142" lon="10.32699">
        <ele>735.14822274866</ele>
        <time>2018-09-22T21:50:12.000Z</time>
      </trkpt>
      <trkpt lat="46.1814" lon="10.32686">
        <ele>737.68669952</ele>
        <time>2018-09-22T21:50:27.987Z</time>
      </trkpt>
      <trkpt lat="46.18142" lon="10.32672">
        <ele>740.1690722765</ele>
        <time>2018-09-22T21:50:43.000Z</time>
      </trkpt>
      <trkpt lat="46.18141" lon="10.32659">
        <ele>741.79400064</ele>
        <time>2018-09-22T21:50:59.000Z</time>
      </trkpt>
      <trkpt lat="46.18148" lon="10.3265">
        <ele>742.69054724087</ele>
        <time>2018-09-22T21:51:08.000Z</time>
      </trkpt>
      <trkpt lat="46.18147" lon="10.32637">
        <ele>743</ele>
        <time>2018-09-22T21:51:18.987Z</time>
      </trkpt>
      <trkpt lat="46.18148" lon="10.32623">
        <ele>745.39400064</ele>
        <time>2018-09-22T21:51:35.000Z</time>
      </trkpt>
      <trkpt lat="46.18151" lon="10.3261">
        <ele>746.59270016</ele>
        <time>2018-09-22T21:51:46.987Z</time>
      </trkpt>
      <trkpt lat="46.18153" lon="10.32597">
        <ele>747.86363675752</ele>
        <time>2018-09-22T21:51:59.990Z</time>
      </trkpt>
      <trkpt lat="46.18155" lon="10.32584">
        <ele>749.58580224</ele>
        <time>2018-09-22T21:52:13.989Z</time>
      </trkpt>
      <trkpt lat="46.18159" lon="10.32571">
        <ele>752.09290112</ele>
        <time>2018-09-22T21:52:31.989Z</time>
      </trkpt>
      <trkpt lat="46.18161" lon="10.32557">
        <ele>752.99290112</ele>
        <time>2018-09-22T21:52:40.989Z</time>
      </trkpt>
      <trkpt lat="46.18161" lon="10.32544">
        <ele>753</ele>
        <time>2018-09-22T21:52:49.989Z</time>
      </trkpt>
      <trkpt lat="46.18162" lon="10.3253">
        <ele>752.08844229639</ele>
        <time>2018-09-22T21:53:01.990Z</time>
      </trkpt>
      <trkpt lat="46.1816" lon="10.32517">
        <ele>753.29134300528</ele>
        <time>2018-09-22T21:53:13.988Z</time>
      </trkpt>
      <trkpt lat="46.18159" lon="10.32504">
        <ele>754.38984978317</ele>
        <time>2018-09-22T21:53:24.989Z</time>
      </trkpt>
      <trkpt lat="46.18158" lon="10.3249">
        <ele>755.60099572442</ele>
        <time>2018-09-22T21:53:37.100Z</time>
      </trkpt>
      <trkpt lat="46.18157" lon="10.32476">
        <ele>756.58958908041</ele>
        <time>2018-09-22T21:53:47.000Z</time>
      </trkpt>
      <trkpt lat="46.18156" lon="10.32463">
        <ele>757</ele>
        <time>2018-09-22T21:53:58.991Z</time>
      </trkpt>
      <trkpt lat="46.18155" lon="10.3245">
        <ele>758.9862016</ele>
        <time>2018-09-22T21:54:10.991Z</time>
      </trkpt>
      <trkpt lat="46.18156" lon="10.32437">
        <ele>759.38548842275</ele>
        <time>2018-09-22T21:54:22.999Z</time>
      </trkpt>
      <trkpt lat="46.18159" lon="10.32424">
        <ele>761.38923614599</ele>
        <time>2018-09-22T21:54:34.989Z</time>
      </trkpt>
      <trkpt lat="46.18156" lon="10.3241">
        <ele>762</ele>
        <time>2018-09-22T21:54:46.987Z</time>
      </trkpt>
      <trkpt lat="46.18152" lon="10.32398">
        <ele>762</ele>
        <time>2018-09-22T21:54:59.000Z</time>
      </trkpt>
      <trkpt lat="46.18145" lon="10.32388">
        <ele>764.28942761812</ele>
        <time>2018-09-22T21:55:13.989Z</time>
      </trkpt>
      <trkpt lat="46.1814" lon="10.32377">
        <ele>765.5886527306</ele>
        <time>2018-09-22T21:55:26.990Z</time>
      </trkpt>
      <trkpt lat="46.18138" lon="10.32363">
        <ele>766</ele>
        <time>2018-09-22T21:55:40.990Z</time>
      </trkpt>
      <trkpt lat="46.18134" lon="10.32351">
        <ele>770.37200384</ele>
        <time>2018-09-22T21:55:56.990Z</time>
      </trkpt>
      <trkpt lat="46.18132" lon="10.32337">
        <ele>772.60440064</ele>
        <time>2018-09-22T21:56:07.104Z</time>
      </trkpt>
      <trkpt lat="46.18129" lon="10.32325">
        <ele>774.98800128</ele>
        <time>2018-09-22T21:56:21.000Z</time>
      </trkpt>
      <trkpt lat="46.18133" lon="10.32312">
        <ele>777.3856</ele>
        <time>2018-09-22T21:56:37.988Z</time>
      </trkpt>
      <trkpt lat="46.18133" lon="10.32299">
        <ele>780.3680620383</ele>
        <time>2018-09-22T21:56:53.000Z</time>
      </trkpt>
      <trkpt lat="46.18131" lon="10.32286">
        <ele>782.58057917355</ele>
        <time>2018-09-22T21:57:07.000Z</time>
      </trkpt>
      <trkpt lat="46.18128" lon="10.32273">
        <ele>785.18800128</ele>
        <time>2018-09-22T21:57:22.000Z</time>
      </trkpt>
      <trkpt lat="46.18119" lon="10.32267">
        <ele>788.86864357176</ele>
        <time>2018-09-22T21:57:43.991Z</time>
      </trkpt>
      <trkpt lat="46.18126" lon="10.32258">
        <ele>792.98760192</ele>
        <time>2018-09-22T21:58:05.998Z</time>
      </trkpt>
      <trkpt lat="46.18132" lon="10.32248">
        <ele>795.0826085606</ele>
        <time>2018-09-22T21:58:21.987Z</time>
      </trkpt>
      <trkpt lat="46.18136" lon="10.32236">
        <ele>797.18800128</ele>
        <time>2018-09-22T21:58:37.000Z</time>
      </trkpt>
      <trkpt lat="46.18141" lon="10.32224">
        <ele>800</ele>
        <time>2018-09-22T21:58:56.000Z</time>
      </trkpt>
      <trkpt lat="46.18149" lon="10.32218">
        <ele>800.7769930433</ele>
        <time>2018-09-22T21:59:05.000Z</time>
      </trkpt>
      <trkpt lat="46.18153" lon="10.32205">
        <ele>803.73088055988</ele>
        <time>2018-09-22T21:59:20.000Z</time>
      </trkpt>
      <trkpt lat="46.18158" lon="10.32194">
        <ele>807.18498644403</ele>
        <time>2018-09-22T21:59:36.989Z</time>
      </trkpt>
      <trkpt lat="46.18164" lon="10.32182">
        <ele>809</ele>
        <time>2018-09-22T22:00:03.000Z</time>
      </trkpt>
      <trkpt lat="46.18171" lon="10.32171">
        <ele>812.9806710948</ele>
        <time>2018-09-22T22:00:23.000Z</time>
      </trkpt>
      <trkpt lat="46.18179" lon="10.32166">
        <ele>815.49260032</ele>
        <time>2018-09-22T22:00:37.986Z</time>
      </trkpt>
      <trkpt lat="46.18185" lon="10.32155">
        <ele>818.08752552919</ele>
        <time>2018-09-22T22:00:53.990Z</time>
      </trkpt>
      <trkpt lat="46.18193" lon="10.32148">
        <ele>820.18800128</ele>
        <time>2018-09-22T22:01:09.000Z</time>
      </trkpt>
      <trkpt lat="46.18198" lon="10.32138">
        <ele>821.78458462029</ele>
        <time>2018-09-22T22:01:21.000Z</time>
      </trkpt>
      <trkpt lat="46.182" lon="10.32125">
        <ele>823.97477328766</ele>
        <time>2018-09-22T22:01:38.000Z</time>
      </trkpt>
      <trkpt lat="46.18203" lon="10.32111">
        <ele>825.79358768326</ele>
        <time>2018-09-22T22:01:51.000Z</time>
      </trkpt>
      <trkpt lat="46.18208" lon="10.32099">
        <ele>827.38607055659</ele>
        <time>2018-09-22T22:02:05.000Z</time>
      </trkpt>
      <trkpt lat="46.18215" lon="10.32089">
        <ele>831.79338071603</ele>
        <time>2018-09-22T22:02:31.000Z</time>
      </trkpt>
      <trkpt lat="46.18215" lon="10.32075">
        <ele>837.58600192</ele>
        <time>2018-09-22T22:03:00.990Z</time>
      </trkpt>
      <trkpt lat="46.18221" lon="10.32065">
        <ele>839.98800128</ele>
        <time>2018-09-22T22:03:13.000Z</time>
      </trkpt>
      <trkpt lat="46.18223" lon="10.32051">
        <ele>841.27216512803</ele>
        <time>2018-09-22T22:03:26.000Z</time>
      </trkpt>
      <trkpt lat="46.18226" lon="10.32038">
        <ele>843.98520064</ele>
        <time>2018-09-22T22:03:42.986Z</time>
      </trkpt>
      <trkpt lat="46.18224" lon="10.32025">
        <ele>845.59280128</ele>
        <time>2018-09-22T22:03:58.988Z</time>
      </trkpt>
      <trkpt lat="46.18214" lon="10.32025">
        <ele>846.69290112</ele>
        <time>2018-09-22T22:04:09.989Z</time>
      </trkpt>
      <trkpt lat="46.18206" lon="10.32017">
        <ele>847</ele>
        <time>2018-09-22T22:04:19.989Z</time>
      </trkpt>
      <trkpt lat="46.18201" lon="10.32006">
        <ele>847</ele>
        <time>2018-09-22T22:04:27.988Z</time>
      </trkpt>
      <trkpt lat="46.18196" lon="10.31994">
        <ele>846.21980120726</ele>
        <time>2018-09-22T22:04:37.000Z</time>
      </trkpt>
      <trkpt lat="46.18189" lon="10.31984">
        <ele>844.81414129399</ele>
        <time>2018-09-22T22:04:45.000Z</time>
      </trkpt>
      <trkpt lat="46.18181" lon="10.31976">
        <ele>843.70599936</ele>
        <time>2018-09-22T22:04:56.000Z</time>
      </trkpt>
      <trkpt lat="46.18172" lon="10.31971">
        <ele>843.29400064</ele>
        <time>2018-09-22T22:05:06.000Z</time>
      </trkpt>
      <trkpt lat="46.18163" lon="10.31964">
        <ele>844</ele>
        <time>2018-09-22T22:05:16.000Z</time>
      </trkpt>
      <trkpt lat="46.18156" lon="10.31954">
        <ele>845.17730546121</ele>
        <time>2018-09-22T22:05:29.000Z</time>
      </trkpt>
      <trkpt lat="46.18154" lon="10.31941">
        <ele>846.49400064</ele>
        <time>2018-09-22T22:05:38.000Z</time>
      </trkpt>
      <trkpt lat="46.18151" lon="10.31929">
        <ele>848.98560256</ele>
        <time>2018-09-22T22:05:52.988Z</time>
      </trkpt>
      <trkpt lat="46.18144" lon="10.31919">
        <ele>850</ele>
        <time>2018-09-22T22:06:07.000Z</time>
      </trkpt>
      <trkpt lat="46.18138" lon="10.31908">
        <ele>850.39300096</ele>
        <time>2018-09-22T22:06:16.990Z</time>
      </trkpt>
      <trkpt lat="46.18132" lon="10.31898">
        <ele>853.6939008</ele>
        <time>2018-09-22T22:06:49.999Z</time>
      </trkpt>
      <trkpt lat="46.18129" lon="10.31885">
        <ele>857.29300096</ele>
        <time>2018-09-22T22:07:05.990Z</time>
      </trkpt>
      <trkpt lat="46.18128" lon="10.31871">
        <ele>857.50709888</ele>
        <time>2018-09-22T22:07:17.989Z</time>
      </trkpt>
      <trkpt lat="46.18121" lon="10.31861">
        <ele>859.78760192</ele>
        <time>2018-09-22T22:07:36.998Z</time>
      </trkpt>
      <trkpt lat="46.18119" lon="10.31848">
        <ele>861.39077460318</ele>
        <time>2018-09-22T22:07:46.999Z</time>
      </trkpt>
      <trkpt lat="46.18116" lon="10.31835">
        <ele>862</ele>
        <time>2018-09-22T22:07:58.989Z</time>
      </trkpt>
      <trkpt lat="46.18112" lon="10.31822">
        <ele>862.68935257534</ele>
        <time>2018-09-22T22:08:09.988Z</time>
      </trkpt>
      <trkpt lat="46.18107" lon="10.31809">
        <ele>864.18282375567</ele>
        <time>2018-09-22T22:08:23.986Z</time>
      </trkpt>
      <trkpt lat="46.18105" lon="10.31796">
        <ele>866.38490428522</ele>
        <time>2018-09-22T22:08:36.989Z</time>
      </trkpt>
      <trkpt lat="46.18097" lon="10.31788">
        <ele>867.39260032</ele>
        <time>2018-09-22T22:08:46.986Z</time>
      </trkpt>
      <trkpt lat="46.18092" lon="10.31776">
        <ele>868.49301429588</ele>
        <time>2018-09-22T22:08:58.000Z</time>
      </trkpt>
      <trkpt lat="46.1809" lon="10.31763">
        <ele>869</ele>
        <time>2018-09-22T22:09:08.999Z</time>
      </trkpt>
      <trkpt lat="46.18087" lon="10.3175">
        <ele>869.79206913037</ele>
        <time>2018-09-22T22:09:20.989Z</time>
      </trkpt>
      <trkpt lat="46.18086" lon="10.31737">
        <ele>871.3683575</ele>
        <time>2018-09-22T22:09:34.996Z</time>
      </trkpt>
      <trkpt lat="46.18083" lon="10.31724">
        <ele>873.47240372947</ele>
        <time>2018-09-22T22:09:47.989Z</time>
      </trkpt>
      <trkpt lat="46.18082" lon="10.31711">
        <ele>876.3878016</ele>
        <time>2018-09-22T22:10:04.999Z</time>
      </trkpt>
      <trkpt lat="46.18079" lon="10.31698">
        <ele>880.99289400718</ele>
        <time>2018-09-22T22:10:42.989Z</time>
      </trkpt>
      <trkpt lat="46.18077" lon="10.31684">
        <ele>885.48785423528</ele>
        <time>2018-09-22T22:11:08.000Z</time>
      </trkpt>
      <trkpt lat="46.18083" lon="10.31674">
        <ele>888.98800128</ele>
        <time>2018-09-22T22:11:33.000Z</time>
      </trkpt>
      <trkpt lat="46.18092" lon="10.31669">
        <ele>893.77205111876</ele>
        <time>2018-09-22T22:11:52.000Z</time>
      </trkpt>
      <trkpt lat="46.18101" lon="10.31661">
        <ele>896.68577051602</ele>
        <time>2018-09-22T22:12:20.000Z</time>
      </trkpt>
      <trkpt lat="46.18109" lon="10.31653">
        <ele>904.08853124412</ele>
        <time>2018-09-22T22:12:54.000Z</time>
      </trkpt>
      <trkpt lat="46.18116" lon="10.31645">
        <ele>907.18580224</ele>
        <time>2018-09-22T22:13:18.989Z</time>
      </trkpt>
      <trkpt lat="46.18114" lon="10.31631">
        <ele>909</ele>
        <time>2018-09-22T22:13:57.988Z</time>
      </trkpt>
      <trkpt lat="46.18105" lon="10.31634">
        <ele>909</ele>
        <time>2018-09-22T22:14:18.000Z</time>
      </trkpt>
      <trkpt lat="46.18113" lon="10.31643">
        <ele>909.00619904</ele>
        <time>2018-09-22T22:14:52.998Z</time>
      </trkpt>
      <trkpt lat="46.18118" lon="10.31632">
        <ele>911.76291432207</ele>
        <time>2018-09-22T22:15:56.989Z</time>
      </trkpt>
      <trkpt lat="46.18124" lon="10.31621">
        <ele>914.78560256</ele>
        <time>2018-09-22T22:16:16.988Z</time>
      </trkpt>
      <trkpt lat="46.18122" lon="10.31608">
        <ele>919.86673031893</ele>
        <time>2018-09-22T22:16:42.100Z</time>
      </trkpt>
      <trkpt lat="46.18122" lon="10.31594">
        <ele>922.76399872</ele>
        <time>2018-09-22T22:17:02.000Z</time>
      </trkpt>
      <trkpt lat="46.1812" lon="10.31582">
        <ele>924.77859446239</ele>
        <time>2018-09-22T22:17:16.988Z</time>
      </trkpt>
      <trkpt lat="46.18119" lon="10.31568">
        <ele>926.38718422977</ele>
        <time>2018-09-22T22:17:26.987Z</time>
      </trkpt>
      <trkpt lat="46.18122" lon="10.31556">
        <ele>927.78540032</ele>
        <time>2018-09-22T22:17:36.987Z</time>
      </trkpt>
      <trkpt lat="46.18123" lon="10.31542">
        <ele>929</ele>
        <time>2018-09-22T22:17:45.988Z</time>
      </trkpt>
      <trkpt lat="46.18128" lon="10.31528">
        <ele>929</ele>
        <time>2018-09-22T22:17:56.000Z</time>
      </trkpt>
      <trkpt lat="46.18133" lon="10.31518">
        <ele>929</ele>
        <time>2018-09-22T22:18:03.000Z</time>
      </trkpt>
      <trkpt lat="46.18139" lon="10.31506">
        <ele>931.38200357105</ele>
        <time>2018-09-22T22:18:16.987Z</time>
      </trkpt>
      <trkpt lat="46.18144" lon="10.31494">
        <ele>932.3765430473</ele>
        <time>2018-09-22T22:18:27.000Z</time>
      </trkpt>
      <trkpt lat="46.18148" lon="10.31482">
        <ele>933.48715448265</ele>
        <time>2018-09-22T22:18:37.990Z</time>
      </trkpt>
      <trkpt lat="46.18145" lon="10.31469">
        <ele>935.98583188448</ele>
        <time>2018-09-22T22:18:52.990Z</time>
      </trkpt>
      <trkpt lat="46.1814" lon="10.31458">
        <ele>937</ele>
        <time>2018-09-22T22:19:03.989Z</time>
      </trkpt>
      <trkpt lat="46.18138" lon="10.31445">
        <ele>937.2676162818</ele>
        <time>2018-09-22T22:19:15.988Z</time>
      </trkpt>
      <trkpt lat="46.18141" lon="10.31431">
        <ele>938.97327802206</ele>
        <time>2018-09-22T22:19:27.988Z</time>
      </trkpt>
      <trkpt lat="46.18143" lon="10.31418">
        <ele>941.37795578853</ele>
        <time>2018-09-22T22:19:39.998Z</time>
      </trkpt>
      <trkpt lat="46.18141" lon="10.31404">
        <ele>942.89035227647</ele>
        <time>2018-09-22T22:19:51.989Z</time>
      </trkpt>
      <trkpt lat="46.18143" lon="10.3139">
        <ele>943</ele>
        <time>2018-09-22T22:20:02.987Z</time>
      </trkpt>
      <trkpt lat="46.18143" lon="10.31376">
        <ele>944.98600192</ele>
        <time>2018-09-22T22:20:12.990Z</time>
      </trkpt>
      <trkpt lat="46.18142" lon="10.31362">
        <ele>945.89131759437</ele>
        <time>2018-09-22T22:20:21.991Z</time>
      </trkpt>
      <trkpt lat="46.18141" lon="10.31348">
        <ele>946.86673182879</ele>
        <time>2018-09-22T22:20:31.990Z</time>
      </trkpt>
      <trkpt lat="46.1814" lon="10.31334">
        <ele>947</ele>
        <time>2018-09-22T22:20:40.991Z</time>
      </trkpt>
      <trkpt lat="46.18138" lon="10.31321">
        <ele>947.79300096</ele>
        <time>2018-09-22T22:20:50.990Z</time>
      </trkpt>
      <trkpt lat="46.18136" lon="10.31307">
        <ele>948.89300096</ele>
        <time>2018-09-22T22:21:01.990Z</time>
      </trkpt>
      <trkpt lat="46.18136" lon="10.31294">
        <ele>951.18600192</ele>
        <time>2018-09-22T22:21:13.990Z</time>
      </trkpt>
      <trkpt lat="46.1814" lon="10.31282">
        <ele>953</ele>
        <time>2018-09-22T22:21:24.998Z</time>
      </trkpt>
      <trkpt lat="46.18137" lon="10.31267">
        <ele>953</ele>
        <time>2018-09-22T22:21:33.000Z</time>
      </trkpt>
      <trkpt lat="46.18135" lon="10.31254">
        <ele>953.59280128</ele>
        <time>2018-09-22T22:21:38.988Z</time>
      </trkpt>
      <trkpt lat="46.18136" lon="10.31241">
        <ele>954</ele>
        <time>2018-09-22T22:21:47.988Z</time>
      </trkpt>
      <trkpt lat="46.18131" lon="10.31229">
        <ele>955.5875755271</ele>
        <time>2018-09-22T22:22:01.002Z</time>
      </trkpt>
      <trkpt lat="46.18127" lon="10.31216">
        <ele>957.98540032</ele>
        <time>2018-09-22T22:22:12.987Z</time>
      </trkpt>
      <trkpt lat="46.18124" lon="10.31203">
        <ele>959.37412445303</ele>
        <time>2018-09-22T22:22:26.989Z</time>
      </trkpt>
      <trkpt lat="46.18133" lon="10.31207">
        <ele>961.76505388504</ele>
        <time>2018-09-22T22:22:42.000Z</time>
      </trkpt>
      <trkpt lat="46.18141" lon="10.31212">
        <ele>965.38800128</ele>
        <time>2018-09-22T22:23:00.000Z</time>
      </trkpt>
      <trkpt lat="46.1815" lon="10.31216">
        <ele>967.39300096</ele>
        <time>2018-09-22T22:23:16.990Z</time>
      </trkpt>
      <trkpt lat="46.18159" lon="10.31218">
        <ele>969.38800128</ele>
        <time>2018-09-22T22:23:30.000Z</time>
      </trkpt>
      <trkpt lat="46.18168" lon="10.31224">
        <ele>973</ele>
        <time>2018-09-22T22:23:47.000Z</time>
      </trkpt>
      <trkpt lat="46.18174" lon="10.31235">
        <ele>973.58517071594</ele>
        <time>2018-09-22T22:23:56.000Z</time>
      </trkpt>
      <trkpt lat="46.18178" lon="10.31248">
        <ele>975</ele>
        <time>2018-09-22T22:24:05.988Z</time>
      </trkpt>
      <trkpt lat="46.18182" lon="10.31259">
        <ele>976.18560256</ele>
        <time>2018-09-22T22:24:18.988Z</time>
      </trkpt>
      <trkpt lat="46.18189" lon="10.31269">
        <ele>977.99400064</ele>
        <time>2018-09-22T22:24:33.000Z</time>
      </trkpt>
      <trkpt lat="46.18196" lon="10.31278">
        <ele>978.58800128</ele>
        <time>2018-09-22T22:24:46.000Z</time>
      </trkpt>
      <trkpt lat="46.18205" lon="10.31283">
        <ele>980.39243041603</ele>
        <time>2018-09-22T22:24:57.000Z</time>
      </trkpt>
      <trkpt lat="46.18214" lon="10.31289">
        <ele>981.78313225142</ele>
        <time>2018-09-22T22:25:07.000Z</time>
      </trkpt>
      <trkpt lat="46.18212" lon="10.31276">
        <ele>989.89270016</ele>
        <time>2018-09-22T22:26:01.987Z</time>
      </trkpt>
      <trkpt lat="46.18208" lon="10.31263">
        <ele>992.59154967665</ele>
        <time>2018-09-22T22:26:19.000Z</time>
      </trkpt>
      <trkpt lat="46.18207" lon="10.3125">
        <ele>994.08761364354</ele>
        <time>2018-09-22T22:26:34.000Z</time>
      </trkpt>
      <trkpt lat="46.18211" lon="10.31238">
        <ele>995.09400064</ele>
        <time>2018-09-22T22:26:44.000Z</time>
      </trkpt>
      <trkpt lat="46.18219" lon="10.31242">
        <ele>998.67932002783</ele>
        <time>2018-09-22T22:27:02.000Z</time>
      </trkpt>
      <trkpt lat="46.18229" lon="10.31239">
        <ele>1001.7615770604</ele>
        <time>2018-09-22T22:27:32.000Z</time>
      </trkpt>
      <trkpt lat="46.18238" lon="10.31239">
        <ele>1003.8840438879</ele>
        <time>2018-09-22T22:27:52.000Z</time>
      </trkpt>
      <trkpt lat="46.18247" lon="10.31242">
        <ele>1008</ele>
        <time>2018-09-22T22:28:18.000Z</time>
      </trkpt>
      <trkpt lat="46.18256" lon="10.31253">
        <ele>1011</ele>
        <time>2018-09-22T22:28:42.000Z</time>
      </trkpt>
      <trkpt lat="46.18264" lon="10.31258">
        <ele>1011.9934433155</ele>
        <time>2018-09-22T22:28:53.000Z</time>
      </trkpt>
      <trkpt lat="46.18271" lon="10.31267">
        <ele>1016.99400064</ele>
        <time>2018-09-22T22:29:23.000Z</time>
      </trkpt>
      <trkpt lat="46.18281" lon="10.31269">
        <ele>1017.9880715782</ele>
        <time>2018-09-22T22:29:33.000Z</time>
      </trkpt>
      <trkpt lat="46.18279" lon="10.31255">
        <ele>1022.5874375724</ele>
        <time>2018-09-22T22:30:08.988Z</time>
      </trkpt>
      <trkpt lat="46.18274" lon="10.31244">
        <ele>1023.59290112</ele>
        <time>2018-09-22T22:30:18.989Z</time>
      </trkpt>
      <trkpt lat="46.18268" lon="10.31234">
        <ele>1024</ele>
        <time>2018-09-22T22:30:31.988Z</time>
      </trkpt>
      <trkpt lat="46.18267" lon="10.31219">
        <ele>1024.7919197039</ele>
        <time>2018-09-22T22:30:41.000Z</time>
      </trkpt>
      <trkpt lat="46.18263" lon="10.31205">
        <ele>1025</ele>
        <time>2018-09-22T22:30:47.000Z</time>
      </trkpt>
      <trkpt lat="46.18254" lon="10.31212">
        <ele>1024</ele>
        <time>2018-09-22T22:31:21.000Z</time>
      </trkpt>
      <trkpt lat="46.18251" lon="10.31199">
        <ele>1028.3730652066</ele>
        <time>2018-09-22T22:33:19.991Z</time>
      </trkpt>
      <trkpt lat="46.18246" lon="10.31188">
        <ele>1029.491457439</ele>
        <time>2018-09-22T22:33:28.000Z</time>
      </trkpt>
      <trkpt lat="46.18242" lon="10.31176">
        <ele>1030.99270016</ele>
        <time>2018-09-22T22:33:42.987Z</time>
      </trkpt>
      <trkpt lat="46.1824" lon="10.31162">
        <ele>1034.9848033895</ele>
        <time>2018-09-22T22:34:02.985Z</time>
      </trkpt>
      <trkpt lat="46.18242" lon="10.31149">
        <ele>1037</ele>
        <time>2018-09-22T22:34:31.987Z</time>
      </trkpt>
      <trkpt lat="46.1824" lon="10.31135">
        <ele>1039.4921918644</ele>
        <time>2018-09-22T22:34:47.987Z</time>
      </trkpt>
      <trkpt lat="46.18234" lon="10.31124">
        <ele>1040.7706513316</ele>
        <time>2018-09-22T22:35:00.990Z</time>
      </trkpt>
      <trkpt lat="46.18228" lon="10.31114">
        <ele>1041.8785341596</ele>
        <time>2018-09-22T22:35:11.986Z</time>
      </trkpt>
      <trkpt lat="46.1822" lon="10.31107">
        <ele>1043.0894470009</ele>
        <time>2018-09-22T22:35:24.000Z</time>
      </trkpt>
      <trkpt lat="46.18215" lon="10.31096">
        <ele>1044.687326614</ele>
        <time>2018-09-22T22:35:40.002Z</time>
      </trkpt>
      <trkpt lat="46.18211" lon="10.31084">
        <ele>1048.649853642</ele>
        <time>2018-09-22T22:36:01.990Z</time>
      </trkpt>
      <trkpt lat="46.18207" lon="10.31072">
        <ele>1049.98540032</ele>
        <time>2018-09-22T22:36:17.987Z</time>
      </trkpt>
      <trkpt lat="46.18202" lon="10.3106">
        <ele>1053.4907365855</ele>
        <time>2018-09-22T22:36:37.987Z</time>
      </trkpt>
      <trkpt lat="46.18199" lon="10.31048">
        <ele>1054.8922690985</ele>
        <time>2018-09-22T22:36:51.987Z</time>
      </trkpt>
      <trkpt lat="46.18197" lon="10.31035">
        <ele>1057</ele>
        <time>2018-09-22T22:37:05.987Z</time>
      </trkpt>
      <trkpt lat="46.18195" lon="10.31022">
        <ele>1057</ele>
        <time>2018-09-22T22:37:16.987Z</time>
      </trkpt>
      <trkpt lat="46.18189" lon="10.3101">
        <ele>1057.9926928458</ele>
        <time>2018-09-22T22:37:32.987Z</time>
      </trkpt>
      <trkpt lat="46.18184" lon="10.30999">
        <ele>1059.1827027256</ele>
        <time>2018-09-22T22:38:04.000Z</time>
      </trkpt>
      <trkpt lat="46.18184" lon="10.30986">
        <ele>1062.0826085606</ele>
        <time>2018-09-22T22:38:23.987Z</time>
      </trkpt>
      <trkpt lat="46.18183" lon="10.30972">
        <ele>1066.38520064</ele>
        <time>2018-09-22T22:38:49.986Z</time>
      </trkpt>
      <trkpt lat="46.18181" lon="10.30959">
        <ele>1069</ele>
        <time>2018-09-22T22:39:06.987Z</time>
      </trkpt>
      <trkpt lat="46.18182" lon="10.30945">
        <ele>1071.18540032</ele>
        <time>2018-09-22T22:39:23.987Z</time>
      </trkpt>
      <trkpt lat="46.18184" lon="10.30931">
        <ele>1073.59270016</ele>
        <time>2018-09-22T22:39:38.987Z</time>
      </trkpt>
      <trkpt lat="46.18184" lon="10.30917">
        <ele>1074.0908813409</ele>
        <time>2018-09-22T22:39:53.987Z</time>
      </trkpt>
      <trkpt lat="46.18183" lon="10.30904">
        <ele>1075.8747306173</ele>
        <time>2018-09-22T22:40:11.991Z</time>
      </trkpt>
      <trkpt lat="46.18187" lon="10.30891">
        <ele>1080.98600192</ele>
        <time>2018-09-22T22:40:42.990Z</time>
      </trkpt>
      <trkpt lat="46.18188" lon="10.30878">
        <ele>1083.39290112</ele>
        <time>2018-09-22T22:40:56.989Z</time>
      </trkpt>
      <trkpt lat="46.18191" lon="10.30865">
        <ele>1084.8608345606</ele>
        <time>2018-09-22T22:41:11.986Z</time>
      </trkpt>
      <trkpt lat="46.18195" lon="10.30852">
        <ele>1086.578838279</ele>
        <time>2018-09-22T22:41:29.000Z</time>
      </trkpt>
      <trkpt lat="46.18199" lon="10.30841">
        <ele>1089.29270016</ele>
        <time>2018-09-22T22:41:45.987Z</time>
      </trkpt>
      <trkpt lat="46.18198" lon="10.30828">
        <ele>1090.49400064</ele>
        <time>2018-09-22T22:41:58.000Z</time>
      </trkpt>
      <trkpt lat="46.18196" lon="10.30815">
        <ele>1091.7939008</ele>
        <time>2018-09-22T22:42:10.999Z</time>
      </trkpt>
      <trkpt lat="46.18197" lon="10.30801">
        <ele>1093.58800128</ele>
        <time>2018-09-22T22:42:26.000Z</time>
      </trkpt>
      <trkpt lat="46.18193" lon="10.30789">
        <ele>1095.99400064</ele>
        <time>2018-09-22T22:42:43.000Z</time>
      </trkpt>
      <trkpt lat="46.18191" lon="10.30775">
        <ele>1097.18800128</ele>
        <time>2018-09-22T22:43:04.000Z</time>
      </trkpt>
      <trkpt lat="46.18189" lon="10.30762">
        <ele>1099.1925074677</ele>
        <time>2018-09-22T22:43:14.987Z</time>
      </trkpt>
      <trkpt lat="46.18186" lon="10.30749">
        <ele>1100.5935938437</ele>
        <time>2018-09-22T22:43:29.000Z</time>
      </trkpt>
      <trkpt lat="46.1818" lon="10.30739">
        <ele>1102.18600192</ele>
        <time>2018-09-22T22:43:43.990Z</time>
      </trkpt>
      <trkpt lat="46.18184" lon="10.30726">
        <ele>1104.99400064</ele>
        <time>2018-09-22T22:44:03.000Z</time>
      </trkpt>
      <trkpt lat="46.18193" lon="10.30722">
        <ele>1108.3673466837</ele>
        <time>2018-09-22T22:44:25.000Z</time>
      </trkpt>
      <trkpt lat="46.18195" lon="10.3071">
        <ele>1115.69369404</ele>
        <time>2018-09-22T22:45:30.000Z</time>
      </trkpt>
      <trkpt lat="46.18191" lon="10.30698">
        <ele>1117.39260032</ele>
        <time>2018-09-22T22:45:46.986Z</time>
      </trkpt>
      <trkpt lat="46.18186" lon="10.30686">
        <ele>1119.78520064</ele>
        <time>2018-09-22T22:46:01.986Z</time>
      </trkpt>
      <trkpt lat="46.18186" lon="10.30673">
        <ele>1124.49300096</ele>
        <time>2018-09-22T22:46:27.990Z</time>
      </trkpt>
      <trkpt lat="46.18185" lon="10.3066">
        <ele>1126</ele>
        <time>2018-09-22T22:47:02.986Z</time>
      </trkpt>
      <trkpt lat="46.18184" lon="10.30646">
        <ele>1129.18720256</ele>
        <time>2018-09-22T22:47:23.996Z</time>
      </trkpt>
      <trkpt lat="46.18183" lon="10.30633">
        <ele>1131.7695143956</ele>
        <time>2018-09-22T22:47:40.986Z</time>
      </trkpt>
      <trkpt lat="46.18181" lon="10.3062">
        <ele>1134.09410048</ele>
        <time>2018-09-22T22:48:04.001Z</time>
      </trkpt>
      <trkpt lat="46.18176" lon="10.30609">
        <ele>1135.4881194531</ele>
        <time>2018-09-22T22:48:17.990Z</time>
      </trkpt>
      <trkpt lat="46.18179" lon="10.30597">
        <ele>1138.59400064</ele>
        <time>2018-09-22T22:48:39.000Z</time>
      </trkpt>
      <trkpt lat="46.18184" lon="10.30585">
        <ele>1141.58800128</ele>
        <time>2018-09-22T22:49:01.000Z</time>
      </trkpt>
      <trkpt lat="46.18191" lon="10.30577">
        <ele>1143.7856440963</ele>
        <time>2018-09-22T22:49:37.000Z</time>
      </trkpt>
      <trkpt lat="46.18198" lon="10.30568">
        <ele>1148.0911827438</ele>
        <time>2018-09-22T22:50:03.990Z</time>
      </trkpt>
      <trkpt lat="46.18202" lon="10.30555">
        <ele>1150.69400064</ele>
        <time>2018-09-22T22:50:40.000Z</time>
      </trkpt>
      <trkpt lat="46.18208" lon="10.30566">
        <ele>1154.0839235054</ele>
        <time>2018-09-22T22:51:04.000Z</time>
      </trkpt>
      <trkpt lat="46.18214" lon="10.30576">
        <ele>1156.6724812403</ele>
        <time>2018-09-22T22:51:30.000Z</time>
      </trkpt>
      <trkpt lat="46.18222" lon="10.30583">
        <ele>1159.49400064</ele>
        <time>2018-09-22T22:51:48.000Z</time>
      </trkpt>
      <trkpt lat="46.18228" lon="10.30573">
        <ele>1166.5916760174</ele>
        <time>2018-09-22T22:52:38.989Z</time>
      </trkpt>
      <trkpt lat="46.18231" lon="10.30561">
        <ele>1168.4873355095</ele>
        <time>2018-09-22T22:52:58.000Z</time>
      </trkpt>
      <trkpt lat="46.18228" lon="10.30548">
        <ele>1170</ele>
        <time>2018-09-22T22:53:14.000Z</time>
      </trkpt>
      <trkpt lat="46.18233" lon="10.30535">
        <ele>1171.58800128</ele>
        <time>2018-09-22T22:53:31.000Z</time>
      </trkpt>
      <trkpt lat="46.18233" lon="10.30522">
        <ele>1175</ele>
        <time>2018-09-22T22:53:50.000Z</time>
      </trkpt>
      <trkpt lat="46.18235" lon="10.30509">
        <ele>1177.0648458985</ele>
        <time>2018-09-22T22:54:03.989Z</time>
      </trkpt>
      <trkpt lat="46.18241" lon="10.30498">
        <ele>1178.4931008</ele>
        <time>2018-09-22T22:54:17.991Z</time>
      </trkpt>
      <trkpt lat="46.18237" lon="10.30486">
        <ele>1179.18800128</ele>
        <time>2018-09-22T22:54:34.000Z</time>
      </trkpt>
      <trkpt lat="46.18234" lon="10.30473">
        <ele>1181</ele>
        <time>2018-09-22T22:54:51.989Z</time>
      </trkpt>
      <trkpt lat="46.18229" lon="10.30458">
        <ele>1182</ele>
        <time>2018-09-22T22:55:13.000Z</time>
      </trkpt>
      <trkpt lat="46.18234" lon="10.30447">
        <ele>1186.49260032</ele>
        <time>2018-09-22T22:55:47.986Z</time>
      </trkpt>
      <trkpt lat="46.1824" lon="10.30436">
        <ele>1188.58580224</ele>
        <time>2018-09-22T22:56:00.989Z</time>
      </trkpt>
      <trkpt lat="46.18233" lon="10.30425">
        <ele>1190</ele>
        <time>2018-09-22T22:56:43.000Z</time>
      </trkpt>
      <trkpt lat="46.18225" lon="10.30419">
        <ele>1190</ele>
        <time>2018-09-22T22:56:47.000Z</time>
      </trkpt>
      <trkpt lat="46.18217" lon="10.30413">
        <ele>1190</ele>
        <time>2018-09-22T22:56:51.000Z</time>
      </trkpt>
      <trkpt lat="46.18225" lon="10.30421">
        <ele>1189.70599936</ele>
        <time>2018-09-22T22:56:56.000Z</time>
      </trkpt>
      <trkpt lat="46.18232" lon="10.30434">
        <ele>1189.00599936</ele>
        <time>2018-09-22T22:57:03.000Z</time>
      </trkpt>
      <trkpt lat="46.1824" lon="10.3044">
        <ele>1190</ele>
        <time>2018-09-22T22:57:14.991Z</time>
      </trkpt>
      <trkpt lat="46.1824" lon="10.30427">
        <ele>1190.56980224</ele>
        <time>2018-09-22T22:57:45.989Z</time>
      </trkpt>
      <trkpt lat="46.18239" lon="10.30414">
        <ele>1193.7834683871</ele>
        <time>2018-09-22T22:58:01.986Z</time>
      </trkpt>
      <trkpt lat="46.18239" lon="10.30401">
        <ele>1196.58520064</ele>
        <time>2018-09-22T22:58:20.986Z</time>
      </trkpt>
      <trkpt lat="46.18237" lon="10.30387">
        <ele>1201.9746036605</ele>
        <time>2018-09-22T22:58:47.991Z</time>
      </trkpt>
      <trkpt lat="46.18236" lon="10.30374">
        <ele>1204.9823109821</ele>
        <time>2018-09-22T22:59:13.000Z</time>
      </trkpt>
      <trkpt lat="46.18236" lon="10.30361">
        <ele>1209.3872</ele>
        <time>2018-09-22T22:59:34.996Z</time>
      </trkpt>
      <trkpt lat="46.18236" lon="10.30348">
        <ele>1214.98540032</ele>
        <time>2018-09-22T23:00:02.987Z</time>
      </trkpt>
      <trkpt lat="46.18237" lon="10.30335">
        <ele>1220.29300096</ele>
        <time>2018-09-22T23:00:45.990Z</time>
      </trkpt>
      <trkpt lat="46.18241" lon="10.30323">
        <ele>1223.8920632468</ele>
        <time>2018-09-22T23:01:11.987Z</time>
      </trkpt>
      <trkpt lat="46.18243" lon="10.3031">
        <ele>1226.98820096</ele>
        <time>2018-09-22T23:01:28.001Z</time>
      </trkpt>
      <trkpt lat="46.18237" lon="10.30298">
        <ele>1228.69400064</ele>
        <time>2018-09-22T23:01:40.000Z</time>
      </trkpt>
      <trkpt lat="46.1823" lon="10.30287">
        <ele>1228.50569984</ele>
        <time>2018-09-22T23:01:48.003Z</time>
      </trkpt>
      <trkpt lat="46.18239" lon="10.30294">
        <ele>1228</ele>
        <time>2018-09-22T23:02:39.988Z</time>
      </trkpt>
      <trkpt lat="46.18247" lon="10.30301">
        <ele>1228</ele>
        <time>2018-09-22T23:02:58.000Z</time>
      </trkpt>
      <trkpt lat="46.18238" lon="10.30302">
        <ele>1227</ele>
        <time>2018-09-22T23:03:53.989Z</time>
      </trkpt>
      <trkpt lat="46.18239" lon="10.30289">
        <ele>1230.6878847467</ele>
        <time>2018-09-22T23:05:39.987Z</time>
      </trkpt>
      <trkpt lat="46.18231" lon="10.30283">
        <ele>1234.38740224</ele>
        <time>2018-09-22T23:06:04.997Z</time>
      </trkpt>
      <trkpt lat="46.18228" lon="10.3027">
        <ele>1237.3847697858</ele>
        <time>2018-09-22T23:06:25.000Z</time>
      </trkpt>
      <trkpt lat="46.18225" lon="10.30257">
        <ele>1239.8703997288</ele>
        <time>2018-09-22T23:06:41.999Z</time>
      </trkpt>
      <trkpt lat="46.18225" lon="10.30243">
        <ele>1241.4864369055</ele>
        <time>2018-09-22T23:06:57.986Z</time>
      </trkpt>
      <trkpt lat="46.18231" lon="10.30232">
        <ele>1243.3838643712</ele>
        <time>2018-09-22T23:07:14.987Z</time>
      </trkpt>
      <trkpt lat="46.18227" lon="10.3022">
        <ele>1245.6872250298</ele>
        <time>2018-09-22T23:07:29.986Z</time>
      </trkpt>
      <trkpt lat="46.18227" lon="10.30207">
        <ele>1249.59270016</ele>
        <time>2018-09-22T23:07:48.987Z</time>
      </trkpt>
      <trkpt lat="46.18223" lon="10.30195">
        <ele>1252.3785643288</ele>
        <time>2018-09-22T23:08:09.987Z</time>
      </trkpt>
      <trkpt lat="46.18221" lon="10.30182">
        <ele>1255.18820096</ele>
        <time>2018-09-22T23:08:29.001Z</time>
      </trkpt>
      <trkpt lat="46.18223" lon="10.30168">
        <ele>1257.1818554839</ele>
        <time>2018-09-22T23:08:49.002Z</time>
      </trkpt>
      <trkpt lat="46.18223" lon="10.30155">
        <ele>1261.18820096</ele>
        <time>2018-09-22T23:09:09.001Z</time>
      </trkpt>
      <trkpt lat="46.18219" lon="10.30142">
        <ele>1263.90380032</ele>
        <time>2018-09-22T23:09:32.098Z</time>
      </trkpt>
      <trkpt lat="46.18214" lon="10.30131">
        <ele>1268.7774386992</ele>
        <time>2018-09-22T23:10:00.990Z</time>
      </trkpt>
      <trkpt lat="46.18215" lon="10.30118">
        <ele>1273.1866930886</ele>
        <time>2018-09-22T23:10:34.990Z</time>
      </trkpt>
      <trkpt lat="46.18208" lon="10.30108">
        <ele>1278.00400128</ele>
        <time>2018-09-22T23:11:03.100Z</time>
      </trkpt>
      <trkpt lat="46.18207" lon="10.30093">
        <ele>1282.98800128</ele>
        <time>2018-09-22T23:11:33.000Z</time>
      </trkpt>
      <trkpt lat="46.18207" lon="10.3008">
        <ele>1284.29400064</ele>
        <time>2018-09-22T23:11:46.000Z</time>
      </trkpt>
      <trkpt lat="46.18202" lon="10.30069">
        <ele>1288.7921296069</ele>
        <time>2018-09-22T23:12:21.000Z</time>
      </trkpt>
      <trkpt lat="46.18194" lon="10.30063">
        <ele>1290.98800128</ele>
        <time>2018-09-22T23:12:33.000Z</time>
      </trkpt>
      <trkpt lat="46.18191" lon="10.3005">
        <ele>1293.5864133437</ele>
        <time>2018-09-22T23:12:51.000Z</time>
      </trkpt>
      <trkpt lat="46.18199" lon="10.30042">
        <ele>1296.38800128</ele>
        <time>2018-09-22T23:13:15.000Z</time>
      </trkpt>
      <trkpt lat="46.18198" lon="10.30028">
        <ele>1303.6946951128</ele>
        <time>2018-09-22T23:14:10.000Z</time>
      </trkpt>
      <trkpt lat="46.18207" lon="10.30022">
        <ele>1306.78800128</ele>
        <time>2018-09-22T23:14:37.000Z</time>
      </trkpt>
      <trkpt lat="46.18216" lon="10.3002">
        <ele>1309.7495109201</ele>
        <time>2018-09-22T23:14:52.000Z</time>
      </trkpt>
      <trkpt lat="46.18225" lon="10.30024">
        <ele>1311.3742340281</ele>
        <time>2018-09-22T23:15:00.000Z</time>
      </trkpt>
      <trkpt lat="46.18235" lon="10.3003">
        <ele>1312.7884810205</ele>
        <time>2018-09-22T23:15:11.000Z</time>
      </trkpt>
      <trkpt lat="46.18244" lon="10.30033">
        <ele>1319.0945275913</ele>
        <time>2018-09-22T23:16:04.000Z</time>
      </trkpt>
      <trkpt lat="46.18253" lon="10.3004">
        <ele>1321.1847391932</ele>
        <time>2018-09-22T23:16:19.000Z</time>
      </trkpt>
      <trkpt lat="46.18259" lon="10.3005">
        <ele>1323</ele>
        <time>2018-09-22T23:16:42.000Z</time>
      </trkpt>
      <trkpt lat="46.18266" lon="10.30061">
        <ele>1325.9862016</ele>
        <time>2018-09-22T23:16:57.991Z</time>
      </trkpt>
      <trkpt lat="46.18271" lon="10.30073">
        <ele>1330.851428662</ele>
        <time>2018-09-22T23:17:32.000Z</time>
      </trkpt>
      <trkpt lat="46.18261" lon="10.30075">
        <ele>1331</ele>
        <time>2018-09-22T23:18:49.990Z</time>
      </trkpt>
      <trkpt lat="46.18271" lon="10.30075">
        <ele>1331</ele>
        <time>2018-09-22T23:19:09.989Z</time>
      </trkpt>
      <trkpt lat="46.18278" lon="10.30083">
        <ele>1335.1868148449</ele>
        <time>2018-09-22T23:21:48.990Z</time>
      </trkpt>
      <trkpt lat="46.18288" lon="10.30087">
        <ele>1338.5801233786</ele>
        <time>2018-09-22T23:22:10.990Z</time>
      </trkpt>
      <trkpt lat="46.18296" lon="10.30092">
        <ele>1341.3774514479</ele>
        <time>2018-09-22T23:22:26.990Z</time>
      </trkpt>
      <trkpt lat="46.18305" lon="10.30095">
        <ele>1342.5812761564</ele>
        <time>2018-09-22T23:22:38.990Z</time>
      </trkpt>
      <trkpt lat="46.18314" lon="10.301">
        <ele>1344.7628830677</ele>
        <time>2018-09-22T23:22:51.989Z</time>
      </trkpt>
      <trkpt lat="46.18323" lon="10.30097">
        <ele>1345</ele>
        <time>2018-09-22T23:23:05.000Z</time>
      </trkpt>
      <trkpt lat="46.18331" lon="10.30092">
        <ele>1345.6914579536</ele>
        <time>2018-09-22T23:23:19.990Z</time>
      </trkpt>
      <trkpt lat="46.1834" lon="10.30094">
        <ele>1347.59400064</ele>
        <time>2018-09-22T23:23:39.000Z</time>
      </trkpt>
      <trkpt lat="46.18348" lon="10.30102">
        <ele>1348</ele>
        <time>2018-09-22T23:23:48.100Z</time>
      </trkpt>
      <trkpt lat="46.18346" lon="10.30116">
        <ele>1348.8555022189</ele>
        <time>2018-09-22T23:24:02.000Z</time>
      </trkpt>
      <trkpt lat="46.18343" lon="10.30103">
        <ele>1353</ele>
        <time>2018-09-22T23:24:33.990Z</time>
      </trkpt>
      <trkpt lat="46.18345" lon="10.30089">
        <ele>1353.78600192</ele>
        <time>2018-09-22T23:24:46.990Z</time>
      </trkpt>
      <trkpt lat="46.18342" lon="10.30075">
        <ele>1355.69300096</ele>
        <time>2018-09-22T23:24:59.990Z</time>
      </trkpt>
      <trkpt lat="46.18334" lon="10.30068">
        <ele>1356</ele>
        <time>2018-09-22T23:25:11.001Z</time>
      </trkpt>
      <trkpt lat="46.18327" lon="10.30059">
        <ele>1356.9890435199</ele>
        <time>2018-09-22T23:25:22.990Z</time>
      </trkpt>
      <trkpt lat="46.18327" lon="10.30045">
        <ele>1361.1222804965</ele>
        <time>2018-09-22T23:25:44.000Z</time>
      </trkpt>
      <trkpt lat="46.18334" lon="10.30034">
        <ele>1366.1891900896</ele>
        <time>2018-09-22T23:26:09.000Z</time>
      </trkpt>
      <trkpt lat="46.18343" lon="10.30034">
        <ele>1369.49290112</ele>
        <time>2018-09-22T23:26:27.989Z</time>
      </trkpt>
      <trkpt lat="46.18352" lon="10.30036">
        <ele>1373.19300096</ele>
        <time>2018-09-22T23:26:54.990Z</time>
      </trkpt>
      <trkpt lat="46.18357" lon="10.30024">
        <ele>1377.1871887288</ele>
        <time>2018-09-22T23:27:18.990Z</time>
      </trkpt>
      <trkpt lat="46.18354" lon="10.30011">
        <ele>1381.59000064</ele>
        <time>2018-09-22T23:27:41.000Z</time>
      </trkpt>
      <trkpt lat="46.18351" lon="10.29997">
        <ele>1384.7603965214</ele>
        <time>2018-09-22T23:28:02.000Z</time>
      </trkpt>
      <trkpt lat="46.1835" lon="10.29984">
        <ele>1389.0930940242</ele>
        <time>2018-09-22T23:28:23.990Z</time>
      </trkpt>
      <trkpt lat="46.18348" lon="10.29971">
        <ele>1392.3752427852</ele>
        <time>2018-09-22T23:28:45.000Z</time>
      </trkpt>
      <trkpt lat="46.18346" lon="10.29957">
        <ele>1395.1573513258</ele>
        <time>2018-09-22T23:28:58.990Z</time>
      </trkpt>
      <trkpt lat="46.18338" lon="10.29964">
        <ele>1401.3843067263</ele>
        <time>2018-09-22T23:29:39.990Z</time>
      </trkpt>
      <trkpt lat="46.18329" lon="10.29963">
        <ele>1404.2901288465</ele>
        <time>2018-09-22T23:29:55.999Z</time>
      </trkpt>
      <trkpt lat="46.18325" lon="10.29951">
        <ele>1405.8772691946</ele>
        <time>2018-09-22T23:30:11.989Z</time>
      </trkpt>
      <trkpt lat="46.18332" lon="10.29944">
        <ele>1408.58800128</ele>
        <time>2018-09-22T23:30:25.990Z</time>
      </trkpt>
      <trkpt lat="46.18338" lon="10.29933">
        <ele>1412.8753921564</ele>
        <time>2018-09-22T23:30:51.989Z</time>
      </trkpt>
      <trkpt lat="46.18331" lon="10.29925">
        <ele>1416.8488591953</ele>
        <time>2018-09-22T23:31:11.990Z</time>
      </trkpt>
      <trkpt lat="46.18331" lon="10.29912">
        <ele>1420.58600192</ele>
        <time>2018-09-22T23:31:35.990Z</time>
      </trkpt>
      <trkpt lat="46.18335" lon="10.29899">
        <ele>1424.7204249893</ele>
        <time>2018-09-22T23:32:01.989Z</time>
      </trkpt>
      <trkpt lat="46.18342" lon="10.2989">
        <ele>1427.38580224</ele>
        <time>2018-09-22T23:32:19.989Z</time>
      </trkpt>
      <trkpt lat="46.18341" lon="10.29877">
        <ele>1433.6777364663</ele>
        <time>2018-09-22T23:32:51.989Z</time>
      </trkpt>
      <trkpt lat="46.18348" lon="10.29869">
        <ele>1435.60749952</ele>
        <time>2018-09-22T23:33:46.985Z</time>
      </trkpt>
      <trkpt lat="46.18339" lon="10.29872">
        <ele>1436</ele>
        <time>2018-09-22T23:34:37.989Z</time>
      </trkpt>
      <trkpt lat="46.18346" lon="10.29864">
        <ele>1438.59410048</ele>
        <time>2018-09-22T23:37:29.001Z</time>
      </trkpt>
      <trkpt lat="46.18352" lon="10.29853">
        <ele>1442</ele>
        <time>2018-09-22T23:38:20.990Z</time>
      </trkpt>
      <trkpt lat="46.1836" lon="10.29846">
        <ele>1443.19380096</ele>
        <time>2018-09-22T23:38:44.998Z</time>
      </trkpt>
      <trkpt lat="46.18365" lon="10.29835">
        <ele>1445.4899402752</ele>
        <time>2018-09-22T23:39:07.990Z</time>
      </trkpt>
      <trkpt lat="46.18366" lon="10.29822">
        <ele>1447.2936</ele>
        <time>2018-09-22T23:39:25.986Z</time>
      </trkpt>
      <trkpt lat="46.18369" lon="10.2981">
        <ele>1451.3884129913</ele>
        <time>2018-09-22T23:39:49.999Z</time>
      </trkpt>
      <trkpt lat="46.18367" lon="10.29796">
        <ele>1455</ele>
        <time>2018-09-22T23:40:16.991Z</time>
      </trkpt>
      <trkpt lat="46.18372" lon="10.29785">
        <ele>1457.49400064</ele>
        <time>2018-09-22T23:40:38.000Z</time>
      </trkpt>
      <trkpt lat="46.18377" lon="10.29774">
        <ele>1461.9813842702</ele>
        <time>2018-09-22T23:41:02.988Z</time>
      </trkpt>
      <trkpt lat="46.18374" lon="10.29761">
        <ele>1463.1758899605</ele>
        <time>2018-09-22T23:41:19.000Z</time>
      </trkpt>
      <trkpt lat="46.18374" lon="10.29747">
        <ele>1466.5814436826</ele>
        <time>2018-09-22T23:41:39.000Z</time>
      </trkpt>
      <trkpt lat="46.18371" lon="10.29734">
        <ele>1468.9707910561</ele>
        <time>2018-09-22T23:41:57.986Z</time>
      </trkpt>
      <trkpt lat="46.18372" lon="10.29719">
        <ele>1470</ele>
        <time>2018-09-22T23:42:13.000Z</time>
      </trkpt>
      <trkpt lat="46.18371" lon="10.29706">
        <ele>1472.99400064</ele>
        <time>2018-09-22T23:42:33.000Z</time>
      </trkpt>
      <trkpt lat="46.18371" lon="10.29692">
        <ele>1475.1881894092</ele>
        <time>2018-09-22T23:42:44.000Z</time>
      </trkpt>
      <trkpt lat="46.18371" lon="10.29678">
        <ele>1477</ele>
        <time>2018-09-22T23:42:55.000Z</time>
      </trkpt>
      <trkpt lat="46.18381" lon="10.29685">
        <ele>1477</ele>
        <time>2018-09-22T23:43:02.000Z</time>
      </trkpt>
      <trkpt lat="46.18389" lon="10.29693">
        <ele>1477</ele>
        <time>2018-09-22T23:43:08.000Z</time>
      </trkpt>
      <trkpt lat="46.18396" lon="10.29703">
        <ele>1477</ele>
        <time>2018-09-22T23:43:16.990Z</time>
      </trkpt>
      <trkpt lat="46.18402" lon="10.29714">
        <ele>1477.2907029743</ele>
        <time>2018-09-22T23:43:25.999Z</time>
      </trkpt>
      <trkpt lat="46.18403" lon="10.29728">
        <ele>1478.5925172392</ele>
        <time>2018-09-22T23:43:36.100Z</time>
      </trkpt>
      <trkpt lat="46.18404" lon="10.29742">
        <ele>1479</ele>
        <time>2018-09-22T23:44:08.000Z</time>
      </trkpt>
      <trkpt lat="46.18413" lon="10.29742">
        <ele>1480.58840064</ele>
        <time>2018-09-22T23:44:21.002Z</time>
      </trkpt>
      <trkpt lat="46.18423" lon="10.29745">
        <ele>1481.0861056212</ele>
        <time>2018-09-22T23:44:34.000Z</time>
      </trkpt>
      <trkpt lat="46.18429" lon="10.29733">
        <ele>1483.28200192</ele>
        <time>2018-09-22T23:44:54.000Z</time>
      </trkpt>
      <trkpt lat="46.18437" lon="10.29728">
        <ele>1486.18800128</ele>
        <time>2018-09-22T23:45:04.000Z</time>
      </trkpt>
      <trkpt lat="46.18443" lon="10.29738">
        <ele>1488.6946951128</ele>
        <time>2018-09-22T23:45:20.000Z</time>
      </trkpt>
      <trkpt lat="46.18444" lon="10.29751">
        <ele>1491.1939008</ele>
        <time>2018-09-22T23:45:34.989Z</time>
      </trkpt>
      <trkpt lat="46.18444" lon="10.29766">
        <ele>1492.5920395539</ele>
        <time>2018-09-22T23:45:49.000Z</time>
      </trkpt>
      <trkpt lat="46.18449" lon="10.29776">
        <ele>1494.3758724236</ele>
        <time>2018-09-22T23:46:00.000Z</time>
      </trkpt>
      <trkpt lat="46.18455" lon="10.2979">
        <ele>1495.851247385</ele>
        <time>2018-09-22T23:46:12.000Z</time>
      </trkpt>
      <trkpt lat="46.18461" lon="10.29801">
        <ele>1497.7866133184</ele>
        <time>2018-09-22T23:46:26.987Z</time>
      </trkpt>
      <trkpt lat="46.18466" lon="10.29812">
        <ele>1501.3817024</ele>
        <time>2018-09-22T23:46:40.999Z</time>
      </trkpt>
      <trkpt lat="46.18469" lon="10.29825">
        <ele>1504.1822580645</ele>
        <time>2018-09-22T23:46:54.988Z</time>
      </trkpt>
      <trkpt lat="46.1847" lon="10.29838">
        <ele>1505.3906626707</ele>
        <time>2018-09-22T23:47:06.991Z</time>
      </trkpt>
      <trkpt lat="46.18472" lon="10.29851">
        <ele>1506</ele>
        <time>2018-09-22T23:47:20.999Z</time>
      </trkpt>
      <trkpt lat="46.18475" lon="10.29864">
        <ele>1508.0743968828</ele>
        <time>2018-09-22T23:47:29.987Z</time>
      </trkpt>
      <trkpt lat="46.18478" lon="10.29876">
        <ele>1509.69290112</ele>
        <time>2018-09-22T23:47:39.989Z</time>
      </trkpt>
      <trkpt lat="46.18482" lon="10.29889">
        <ele>1510.5767513441</ele>
        <time>2018-09-22T23:47:48.989Z</time>
      </trkpt>
      <trkpt lat="46.18486" lon="10.29901">
        <ele>1511.7787381766</ele>
        <time>2018-09-22T23:48:00.995Z</time>
      </trkpt>
      <trkpt lat="46.1849" lon="10.29914">
        <ele>1513.985644323</ele>
        <time>2018-09-22T23:48:12.989Z</time>
      </trkpt>
      <trkpt lat="46.18496" lon="10.29924">
        <ele>1514</ele>
        <time>2018-09-22T23:48:21.001Z</time>
      </trkpt>
      <trkpt lat="46.18504" lon="10.29932">
        <ele>1514.8775270257</ele>
        <time>2018-09-22T23:48:32.002Z</time>
      </trkpt>
      <trkpt lat="46.18512" lon="10.29941">
        <ele>1516.9855272532</ele>
        <time>2018-09-22T23:48:42.989Z</time>
      </trkpt>
      <trkpt lat="46.18519" lon="10.2995">
        <ele>1517</ele>
        <time>2018-09-22T23:48:52.989Z</time>
      </trkpt>
      <trkpt lat="46.18525" lon="10.2996">
        <ele>1518.0922553033</ele>
        <time>2018-09-22T23:49:03.989Z</time>
      </trkpt>
      <trkpt lat="46.18532" lon="10.29969">
        <ele>1519.5700911441</ele>
        <time>2018-09-22T23:49:15.989Z</time>
      </trkpt>
      <trkpt lat="46.18539" lon="10.29978">
        <ele>1522.1783613924</ele>
        <time>2018-09-22T23:49:28.987Z</time>
      </trkpt>
      <trkpt lat="46.18544" lon="10.2999">
        <ele>1523</ele>
        <time>2018-09-22T23:49:40.989Z</time>
      </trkpt>
      <trkpt lat="46.18549" lon="10.30001">
        <ele>1523.8767628594</ele>
        <time>2018-09-22T23:49:51.989Z</time>
      </trkpt>
      <trkpt lat="46.18553" lon="10.30012">
        <ele>1525</ele>
        <time>2018-09-22T23:50:05.000Z</time>
      </trkpt>
      <trkpt lat="46.18555" lon="10.30026">
        <ele>1525.78600192</ele>
        <time>2018-09-22T23:50:16.990Z</time>
      </trkpt>
      <trkpt lat="46.18558" lon="10.3004">
        <ele>1527</ele>
        <time>2018-09-22T23:50:28.989Z</time>
      </trkpt>
      <trkpt lat="46.18563" lon="10.30052">
        <ele>1527.4931008</ele>
        <time>2018-09-22T23:50:37.991Z</time>
      </trkpt>
      <trkpt lat="46.18565" lon="10.30065">
        <ele>1527.7060992</ele>
        <time>2018-09-22T23:50:45.999Z</time>
      </trkpt>
      <trkpt lat="46.18567" lon="10.30079">
        <ele>1526.2370856779</ele>
        <time>2018-09-22T23:50:56.989Z</time>
      </trkpt>
      <trkpt lat="46.18571" lon="10.30092">
        <ele>1525.272165128</ele>
        <time>2018-09-22T23:51:06.000Z</time>
      </trkpt>
      <trkpt lat="46.18575" lon="10.30106">
        <ele>1526.20599936</ele>
        <time>2018-09-22T23:51:31.000Z</time>
      </trkpt>
      <trkpt lat="46.18567" lon="10.30098">
        <ele>1525.253034049</ele>
        <time>2018-09-22T23:52:01.987Z</time>
      </trkpt>
      <trkpt lat="46.18573" lon="10.30108">
        <ele>1526</ele>
        <time>2018-09-22T23:53:05.987Z</time>
      </trkpt>
      <trkpt lat="46.18578" lon="10.30119">
        <ele>1526.58580224</ele>
        <time>2018-09-22T23:53:15.989Z</time>
      </trkpt>
      <trkpt lat="46.18585" lon="10.30132">
        <ele>1528</ele>
        <time>2018-09-22T23:53:27.000Z</time>
      </trkpt>
      <trkpt lat="46.18591" lon="10.30146">
        <ele>1528</ele>
        <time>2018-09-22T23:53:42.101Z</time>
      </trkpt>
      <trkpt lat="46.18599" lon="10.30152">
        <ele>1530.191071746</ele>
        <time>2018-09-22T23:53:54.986Z</time>
      </trkpt>
      <trkpt lat="46.18605" lon="10.30162">
        <ele>1531.9666660811</ele>
        <time>2018-09-22T23:54:13.000Z</time>
      </trkpt>
      <trkpt lat="46.18609" lon="10.30174">
        <ele>1534.49400064</ele>
        <time>2018-09-22T23:54:28.000Z</time>
      </trkpt>
      <trkpt lat="46.18617" lon="10.30185">
        <ele>1536.78800128</ele>
        <time>2018-09-22T23:54:47.000Z</time>
      </trkpt>
      <trkpt lat="46.18625" lon="10.30191">
        <ele>1538.59300096</ele>
        <time>2018-09-22T23:54:58.990Z</time>
      </trkpt>
      <trkpt lat="46.18635" lon="10.30193">
        <ele>1539</ele>
        <time>2018-09-22T23:55:11.001Z</time>
      </trkpt>
      <trkpt lat="46.18644" lon="10.30194">
        <ele>1539</ele>
        <time>2018-09-22T23:55:22.000Z</time>
      </trkpt>
      <trkpt lat="46.18653" lon="10.30193">
        <ele>1539</ele>
        <time>2018-09-22T23:55:32.000Z</time>
      </trkpt>
      <trkpt lat="46.18661" lon="10.30186">
        <ele>1538.5216491689</ele>
        <time>2018-09-22T23:55:38.000Z</time>
      </trkpt>
      <trkpt lat="46.18666" lon="10.30175">
        <ele>1538.8727269997</ele>
        <time>2018-09-22T23:55:51.988Z</time>
      </trkpt>
      <trkpt lat="46.18675" lon="10.3017">
        <ele>1542.59000064</ele>
        <time>2018-09-22T23:56:06.000Z</time>
      </trkpt>
      <trkpt lat="46.18675" lon="10.30157">
        <ele>1545.4944949767</ele>
        <time>2018-09-22T23:56:38.000Z</time>
      </trkpt>
      <trkpt lat="46.18675" lon="10.30143">
        <ele>1548.19500032</ele>
        <time>2018-09-22T23:56:55.000Z</time>
      </trkpt>
      <trkpt lat="46.18679" lon="10.30132">
        <ele>1549</ele>
        <time>2018-09-22T23:57:09.000Z</time>
      </trkpt>
      <trkpt lat="46.18683" lon="10.3012">
        <ele>1550.9338545448</ele>
        <time>2018-09-22T23:57:23.003Z</time>
      </trkpt>
      <trkpt lat="46.18687" lon="10.30108">
        <ele>1552.18800128</ele>
        <time>2018-09-22T23:57:34.000Z</time>
      </trkpt>
      <trkpt lat="46.18694" lon="10.30098">
        <ele>1554.292637014</ele>
        <time>2018-09-22T23:57:46.001Z</time>
      </trkpt>
      <trkpt lat="46.187" lon="10.30087">
        <ele>1555.2892992</ele>
        <time>2018-09-22T23:57:56.003Z</time>
      </trkpt>
      <trkpt lat="46.18704" lon="10.30074">
        <ele>1556</ele>
        <time>2018-09-22T23:58:06.986Z</time>
      </trkpt>
      <trkpt lat="46.1871" lon="10.30063">
        <ele>1556.9785501558</ele>
        <time>2018-09-22T23:58:17.987Z</time>
      </trkpt>
      <trkpt lat="46.18717" lon="10.30055">
        <ele>1558.6919439893</ele>
        <time>2018-09-22T23:58:30.001Z</time>
      </trkpt>
      <trkpt lat="46.18724" lon="10.30045">
        <ele>1559.9852190476</ele>
        <time>2018-09-22T23:58:42.991Z</time>
      </trkpt>
      <trkpt lat="46.18728" lon="10.30033">
        <ele>1560.09320064</ele>
        <time>2018-09-22T23:58:53.992Z</time>
      </trkpt>
      <trkpt lat="46.18734" lon="10.30022">
        <ele>1561.49270016</ele>
        <time>2018-09-22T23:59:07.987Z</time>
      </trkpt>
      <trkpt lat="46.18738" lon="10.30009">
        <ele>1562</ele>
        <time>2018-09-22T23:59:17.987Z</time>
      </trkpt>
      <trkpt lat="46.18743" lon="10.29999">
        <ele>1562</ele>
        <time>2018-09-22T23:59:28.000Z</time>
      </trkpt>
      <trkpt lat="46.18749" lon="10.29987">
        <ele>1562</ele>
        <time>2018-09-22T23:59:39.000Z</time>
      </trkpt>
      <trkpt lat="46.18754" lon="10.29975">
        <ele>1562.3865654216</ele>
        <time>2018-09-22T23:59:46.987Z</time>
      </trkpt>
      <trkpt lat="46.1876" lon="10.29964">
        <ele>1562.70729984</ele>
        <time>2018-09-22T23:59:55.987Z</time>
      </trkpt>
      <trkpt lat="46.18766" lon="10.29953">
        <ele>1562.39290112</ele>
        <time>2018-09-23T00:00:06.989Z</time>
      </trkpt>
      <trkpt lat="46.1877" lon="10.29942">
        <ele>1563</ele>
        <time>2018-09-23T00:00:14.987Z</time>
      </trkpt>
      <trkpt lat="46.18779" lon="10.29934">
        <ele>1562.815992098</ele>
        <time>2018-09-23T00:00:25.000Z</time>
      </trkpt>
      <trkpt lat="46.18788" lon="10.29925">
        <ele>1562</ele>
        <time>2018-09-23T00:00:34.027Z</time>
      </trkpt>
      <trkpt lat="46.18795" lon="10.29917">
        <ele>1562.39410048</ele>
        <time>2018-09-23T00:00:47.001Z</time>
      </trkpt>
      <trkpt lat="46.18805" lon="10.29912">
        <ele>1563.09270016</ele>
        <time>2018-09-23T00:00:53.987Z</time>
      </trkpt>
      <trkpt lat="46.18813" lon="10.29905">
        <ele>1563.89360128</ele>
        <time>2018-09-23T00:01:01.996Z</time>
      </trkpt>
      <trkpt lat="46.18823" lon="10.29904">
        <ele>1564</ele>
        <time>2018-09-23T00:01:12.001Z</time>
      </trkpt>
      <trkpt lat="46.18833" lon="10.29903">
        <ele>1563.1247530299</ele>
        <time>2018-09-23T00:01:22.000Z</time>
      </trkpt>
      <trkpt lat="46.18843" lon="10.29905">
        <ele>1563</ele>
        <time>2018-09-23T00:01:29.989Z</time>
      </trkpt>
      <trkpt lat="46.18852" lon="10.29903">
        <ele>1563</ele>
        <time>2018-09-23T00:01:38.002Z</time>
      </trkpt>
      <trkpt lat="46.18862" lon="10.29905">
        <ele>1563.1916093742</ele>
        <time>2018-09-23T00:01:45.001Z</time>
      </trkpt>
      <trkpt lat="46.18871" lon="10.29904">
        <ele>1564</ele>
        <time>2018-09-23T00:01:57.000Z</time>
      </trkpt>
      <trkpt lat="46.1888" lon="10.29904">
        <ele>1564.1836326172</ele>
        <time>2018-09-23T00:02:05.000Z</time>
      </trkpt>
      <trkpt lat="46.18889" lon="10.29908">
        <ele>1564.9821349415</ele>
        <time>2018-09-23T00:02:13.001Z</time>
      </trkpt>
      <trkpt lat="46.18898" lon="10.29906">
        <ele>1565</ele>
        <time>2018-09-23T00:02:25.000Z</time>
      </trkpt>
      <trkpt lat="46.18909" lon="10.29906">
        <ele>1565.1915108155</ele>
        <time>2018-09-23T00:02:35.000Z</time>
      </trkpt>
      <trkpt lat="46.18918" lon="10.29905">
        <ele>1565.9812435321</ele>
        <time>2018-09-23T00:02:43.000Z</time>
      </trkpt>
      <trkpt lat="46.18927" lon="10.2991">
        <ele>1566</ele>
        <time>2018-09-23T00:02:49.001Z</time>
      </trkpt>
      <trkpt lat="46.18937" lon="10.2991">
        <ele>1566.59400064</ele>
        <time>2018-09-23T00:02:59.000Z</time>
      </trkpt>
      <trkpt lat="46.18946" lon="10.29909">
        <ele>1567.4901491039</ele>
        <time>2018-09-23T00:03:07.986Z</time>
      </trkpt>
      <trkpt lat="46.18955" lon="10.29907">
        <ele>1568</ele>
        <time>2018-09-23T00:03:17.987Z</time>
      </trkpt>
      <trkpt lat="46.18966" lon="10.29902">
        <ele>1568.6918434455</ele>
        <time>2018-09-23T00:03:30.000Z</time>
      </trkpt>
      <trkpt lat="46.18975" lon="10.29904">
        <ele>1569</ele>
        <time>2018-09-23T00:03:41.000Z</time>
      </trkpt>
      <trkpt lat="46.18984" lon="10.29899">
        <ele>1569</ele>
        <time>2018-09-23T00:03:50.000Z</time>
      </trkpt>
      <trkpt lat="46.18993" lon="10.29901">
        <ele>1569</ele>
        <time>2018-09-23T00:03:57.000Z</time>
      </trkpt>
      <trkpt lat="46.19002" lon="10.29903">
        <ele>1569</ele>
        <time>2018-09-23T00:04:05.000Z</time>
      </trkpt>
      <trkpt lat="46.19012" lon="10.29908">
        <ele>1569</ele>
        <time>2018-09-23T00:04:11.000Z</time>
      </trkpt>
      <trkpt lat="46.19022" lon="10.29907">
        <ele>1568.5074770864</ele>
        <time>2018-09-23T00:04:18.000Z</time>
      </trkpt>
      <trkpt lat="46.19031" lon="10.29908">
        <ele>1567.6087255715</ele>
        <time>2018-09-23T00:04:26.991Z</time>
      </trkpt>
      <trkpt lat="46.1904" lon="10.29915">
        <ele>1567.0060174142</ele>
        <time>2018-09-23T00:04:33.000Z</time>
      </trkpt>
      <trkpt lat="46.19046" lon="10.29927">
        <ele>1566.60589952</ele>
        <time>2018-09-23T00:04:37.001Z</time>
      </trkpt>
      <trkpt lat="46.19054" lon="10.29938">
        <ele>1566.19400064</ele>
        <time>2018-09-23T00:04:45.000Z</time>
      </trkpt>
      <trkpt lat="46.19063" lon="10.29942">
        <ele>1566.79400064</ele>
        <time>2018-09-23T00:04:51.000Z</time>
      </trkpt>
      <trkpt lat="46.19068" lon="10.29953">
        <ele>1567.7801569948</ele>
        <time>2018-09-23T00:05:01.002Z</time>
      </trkpt>
      <trkpt lat="46.19079" lon="10.29962">
        <ele>1568</ele>
        <time>2018-09-23T00:05:13.000Z</time>
      </trkpt>
      <trkpt lat="46.19084" lon="10.29975">
        <ele>1569.4888892049</ele>
        <time>2018-09-23T00:05:28.000Z</time>
      </trkpt>
      <trkpt lat="46.19091" lon="10.29985">
        <ele>1570.8696493452</ele>
        <time>2018-09-23T00:05:42.000Z</time>
      </trkpt>
      <trkpt lat="46.19095" lon="10.29999">
        <ele>1574.18800128</ele>
        <time>2018-09-23T00:06:04.000Z</time>
      </trkpt>
      <trkpt lat="46.19101" lon="10.3001">
        <ele>1575.78800128</ele>
        <time>2018-09-23T00:06:12.000Z</time>
      </trkpt>
      <trkpt lat="46.19113" lon="10.30009">
        <ele>1576</ele>
        <time>2018-09-23T00:06:20.000Z</time>
      </trkpt>
      <trkpt lat="46.19125" lon="10.30008">
        <ele>1576.09400064</ele>
        <time>2018-09-23T00:06:24.000Z</time>
      </trkpt>
      <trkpt lat="46.19133" lon="10.30014">
        <ele>1576.79400064</ele>
        <time>2018-09-23T00:06:31.000Z</time>
      </trkpt>
      <trkpt lat="46.19142" lon="10.30012">
        <ele>1577.8738749909</ele>
        <time>2018-09-23T00:06:41.991Z</time>
      </trkpt>
      <trkpt lat="46.19151" lon="10.30016">
        <ele>1578</ele>
        <time>2018-09-23T00:06:49.000Z</time>
      </trkpt>
      <trkpt lat="46.1916" lon="10.30014">
        <ele>1577.7318835491</ele>
        <time>2018-09-23T00:06:55.990Z</time>
      </trkpt>
      <trkpt lat="46.19169" lon="10.30016">
        <ele>1577</ele>
        <time>2018-09-23T00:07:05.990Z</time>
      </trkpt>
      <trkpt lat="46.19176" lon="10.30024">
        <ele>1577</ele>
        <time>2018-09-23T00:07:12.986Z</time>
      </trkpt>
      <trkpt lat="46.19184" lon="10.30032">
        <ele>1577</ele>
        <time>2018-09-23T00:07:18.988Z</time>
      </trkpt>
      <trkpt lat="46.19193" lon="10.3004">
        <ele>1577.79400064</ele>
        <time>2018-09-23T00:07:31.000Z</time>
      </trkpt>
      <trkpt lat="46.19185" lon="10.30028">
        <ele>1577.00719872</ele>
        <time>2018-09-23T00:07:42.988Z</time>
      </trkpt>
      <trkpt lat="46.19183" lon="10.30013">
        <ele>1578.69430016</ele>
        <time>2018-09-23T00:08:00.003Z</time>
      </trkpt>
      <trkpt lat="46.19188" lon="10.30001">
        <ele>1579.9849219048</ele>
        <time>2018-09-23T00:08:12.988Z</time>
      </trkpt>
      <trkpt lat="46.1919" lon="10.29988">
        <ele>1582.093807023</ele>
        <time>2018-09-23T00:08:23.989Z</time>
      </trkpt>
      <trkpt lat="46.19195" lon="10.29976">
        <ele>1584.98560256</ele>
        <time>2018-09-23T00:08:42.988Z</time>
      </trkpt>
      <trkpt lat="46.19199" lon="10.29965">
        <ele>1586.7733351262</ele>
        <time>2018-09-23T00:08:56.988Z</time>
      </trkpt>
      <trkpt lat="46.19202" lon="10.29953">
        <ele>1588.69380096</ele>
        <time>2018-09-23T00:09:09.998Z</time>
      </trkpt>
      <trkpt lat="46.19207" lon="10.29941">
        <ele>1589.8875751013</ele>
        <time>2018-09-23T00:09:21.989Z</time>
      </trkpt>
      <trkpt lat="46.19213" lon="10.29931">
        <ele>1590</ele>
        <time>2018-09-23T00:09:31.988Z</time>
      </trkpt>
      <trkpt lat="46.1922" lon="10.29923">
        <ele>1590.7877062295</ele>
        <time>2018-09-23T00:09:40.988Z</time>
      </trkpt>
      <trkpt lat="46.19227" lon="10.29914">
        <ele>1591</ele>
        <time>2018-09-23T00:09:50.002Z</time>
      </trkpt>
      <trkpt lat="46.19234" lon="10.29905">
        <ele>1591.7723732017</ele>
        <time>2018-09-23T00:10:01.000Z</time>
      </trkpt>
      <trkpt lat="46.19241" lon="10.29895">
        <ele>1592.4750249868</ele>
        <time>2018-09-23T00:10:08.000Z</time>
      </trkpt>
      <trkpt lat="46.1925" lon="10.29891">
        <ele>1594.1870657716</ele>
        <time>2018-09-23T00:10:24.000Z</time>
      </trkpt>
      <trkpt lat="46.1926" lon="10.29885">
        <ele>1596.08899968</ele>
        <time>2018-09-23T00:10:34.000Z</time>
      </trkpt>
      <trkpt lat="46.19267" lon="10.29877">
        <ele>1597.0894470009</ele>
        <time>2018-09-23T00:10:44.000Z</time>
      </trkpt>
      <trkpt lat="46.19273" lon="10.29867">
        <ele>1598.19280128</ele>
        <time>2018-09-23T00:10:54.988Z</time>
      </trkpt>
      <trkpt lat="46.19282" lon="10.2986">
        <ele>1599.5856</ele>
        <time>2018-09-23T00:11:05.988Z</time>
      </trkpt>
      <trkpt lat="46.19289" lon="10.29852">
        <ele>1601.5741935484</ele>
        <time>2018-09-23T00:11:25.988Z</time>
      </trkpt>
      <trkpt lat="46.19297" lon="10.29846">
        <ele>1603.78600192</ele>
        <time>2018-09-23T00:11:36.990Z</time>
      </trkpt>
      <trkpt lat="46.19305" lon="10.29836">
        <ele>1605.6928</ele>
        <time>2018-09-23T00:11:49.988Z</time>
      </trkpt>
      <trkpt lat="46.19311" lon="10.29826">
        <ele>1606.878192611</ele>
        <time>2018-09-23T00:12:02.000Z</time>
      </trkpt>
      <trkpt lat="46.1932" lon="10.29823">
        <ele>1608.5780064052</ele>
        <time>2018-09-23T00:12:10.988Z</time>
      </trkpt>
      <trkpt lat="46.1932" lon="10.29808">
        <ele>1609.59400064</ele>
        <time>2018-09-23T00:12:29.000Z</time>
      </trkpt>
      <trkpt lat="46.19329" lon="10.29805">
        <ele>1610.9695789693</ele>
        <time>2018-09-23T00:12:38.000Z</time>
      </trkpt>
      <trkpt lat="46.19338" lon="10.29797">
        <ele>1612.6880739451</ele>
        <time>2018-09-23T00:12:50.000Z</time>
      </trkpt>
      <trkpt lat="46.19345" lon="10.2979">
        <ele>1613.2862712253</ele>
        <time>2018-09-23T00:13:06.000Z</time>
      </trkpt>
      <trkpt lat="46.19352" lon="10.2978">
        <ele>1614.2744094633</ele>
        <time>2018-09-23T00:13:16.000Z</time>
      </trkpt>
      <trkpt lat="46.19344" lon="10.29789">
        <ele>1615</ele>
        <time>2018-09-23T00:13:50.000Z</time>
      </trkpt>
      <trkpt lat="46.19352" lon="10.29781">
        <ele>1613.58800128</ele>
        <time>2018-09-23T00:14:06.000Z</time>
      </trkpt>
      <trkpt lat="46.19358" lon="10.2977">
        <ele>1615.58800128</ele>
        <time>2018-09-23T00:14:16.000Z</time>
      </trkpt>
      <trkpt lat="46.19368" lon="10.2977">
        <ele>1617.49008</ele>
        <time>2018-09-23T00:14:28.000Z</time>
      </trkpt>
      <trkpt lat="46.19378" lon="10.29769">
        <ele>1618.5913223519</ele>
        <time>2018-09-23T00:14:39.000Z</time>
      </trkpt>
      <trkpt lat="46.19387" lon="10.29764">
        <ele>1620.1805180561</ele>
        <time>2018-09-23T00:14:48.988Z</time>
      </trkpt>
      <trkpt lat="46.19395" lon="10.29759">
        <ele>1622.280641053</ele>
        <time>2018-09-23T00:15:05.988Z</time>
      </trkpt>
      <trkpt lat="46.19403" lon="10.29749">
        <ele>1624.987880073</ele>
        <time>2018-09-23T00:15:23.000Z</time>
      </trkpt>
      <trkpt lat="46.19402" lon="10.29736">
        <ele>1626.09400064</ele>
        <time>2018-09-23T00:15:34.000Z</time>
      </trkpt>
      <trkpt lat="46.19411" lon="10.29734">
        <ele>1627.7834516344</ele>
        <time>2018-09-23T00:15:46.989Z</time>
      </trkpt>
      <trkpt lat="46.1942" lon="10.29734">
        <ele>1629.2909635341</ele>
        <time>2018-09-23T00:15:55.988Z</time>
      </trkpt>
      <trkpt lat="46.19425" lon="10.29721">
        <ele>1631.39000064</ele>
        <time>2018-09-23T00:16:10.000Z</time>
      </trkpt>
      <trkpt lat="46.19433" lon="10.29716">
        <ele>1633.0659194133</ele>
        <time>2018-09-23T00:16:23.988Z</time>
      </trkpt>
      <trkpt lat="46.19442" lon="10.2972">
        <ele>1634.1656235116</ele>
        <time>2018-09-23T00:16:33.989Z</time>
      </trkpt>
      <trkpt lat="46.19451" lon="10.29714">
        <ele>1637.0926232207</ele>
        <time>2018-09-23T00:16:53.989Z</time>
      </trkpt>
      <trkpt lat="46.19459" lon="10.29708">
        <ele>1638.1905724182</ele>
        <time>2018-09-23T00:17:04.990Z</time>
      </trkpt>
      <trkpt lat="46.19467" lon="10.297">
        <ele>1639.49290112</ele>
        <time>2018-09-23T00:17:17.989Z</time>
      </trkpt>
      <trkpt lat="46.19474" lon="10.2969">
        <ele>1640</ele>
        <time>2018-09-23T00:17:29.990Z</time>
      </trkpt>
      <trkpt lat="46.19482" lon="10.29682">
        <ele>1640.69290112</ele>
        <time>2018-09-23T00:17:39.989Z</time>
      </trkpt>
      <trkpt lat="46.19477" lon="10.29693">
        <ele>1646.6155502362</ele>
        <time>2018-09-23T00:18:41.988Z</time>
      </trkpt>
      <trkpt lat="46.19471" lon="10.29704">
        <ele>1648</ele>
        <time>2018-09-23T00:19:13.987Z</time>
      </trkpt>
      <trkpt lat="46.19473" lon="10.29718">
        <ele>1649.1729617005</ele>
        <time>2018-09-23T00:20:29.000Z</time>
      </trkpt>
      <trkpt lat="46.19474" lon="10.29732">
        <ele>1650.5881940381</ele>
        <time>2018-09-23T00:20:38.989Z</time>
      </trkpt>
      <trkpt lat="46.19468" lon="10.29742">
        <ele>1651.4939879721</ele>
        <time>2018-09-23T00:20:48.000Z</time>
      </trkpt>
      <trkpt lat="46.19463" lon="10.29754">
        <ele>1652.6443568094</ele>
        <time>2018-09-23T00:20:59.500Z</time>
      </trkpt>
      <trkpt lat="46.1946" lon="10.29766">
        <ele>1653</ele>
        <time>2018-09-23T00:21:10.000Z</time>
      </trkpt>
      <trkpt lat="46.19453" lon="10.29778">
        <ele>1654.0929778539</ele>
        <time>2018-09-23T00:21:24.000Z</time>
      </trkpt>
      <trkpt lat="46.1945" lon="10.2979">
        <ele>1655.1824652938</ele>
        <time>2018-09-23T00:21:34.991Z</time>
      </trkpt>
      <trkpt lat="46.19447" lon="10.29804">
        <ele>1656.1864916129</ele>
        <time>2018-09-23T00:21:45.000Z</time>
      </trkpt>
      <trkpt lat="46.19442" lon="10.29816">
        <ele>1656.9929432258</ele>
        <time>2018-09-23T00:21:53.000Z</time>
      </trkpt>
      <trkpt lat="46.19442" lon="10.2983">
        <ele>1658</ele>
        <time>2018-09-23T00:22:05.000Z</time>
      </trkpt>
      <trkpt lat="46.19437" lon="10.29844">
        <ele>1658.29400064</ele>
        <time>2018-09-23T00:22:16.000Z</time>
      </trkpt>
      <trkpt lat="46.19429" lon="10.29852">
        <ele>1659.1914609918</ele>
        <time>2018-09-23T00:22:24.988Z</time>
      </trkpt>
      <trkpt lat="46.19422" lon="10.29862">
        <ele>1659.9858996668</ele>
        <time>2018-09-23T00:22:32.988Z</time>
      </trkpt>
      <trkpt lat="46.1942" lon="10.29875">
        <ele>1660.1329292674</ele>
        <time>2018-09-23T00:22:44.000Z</time>
      </trkpt>
      <trkpt lat="46.19412" lon="10.29883">
        <ele>1661.7442087393</ele>
        <time>2018-09-23T00:22:52.000Z</time>
      </trkpt>
      <trkpt lat="46.19405" lon="10.29892">
        <ele>1662</ele>
        <time>2018-09-23T00:22:58.000Z</time>
      </trkpt>
      <trkpt lat="46.19395" lon="10.29901">
        <ele>1662.4945059723</ele>
        <time>2018-09-23T00:23:08.000Z</time>
      </trkpt>
      <trkpt lat="46.19386" lon="10.29907">
        <ele>1663.3893282032</ele>
        <time>2018-09-23T00:23:17.000Z</time>
      </trkpt>
      <trkpt lat="46.19382" lon="10.29919">
        <ele>1664.3866395293</ele>
        <time>2018-09-23T00:23:27.000Z</time>
      </trkpt>
      <trkpt lat="46.19381" lon="10.29932">
        <ele>1665</ele>
        <time>2018-09-23T00:23:37.000Z</time>
      </trkpt>
      <trkpt lat="46.19381" lon="10.29946">
        <ele>1665</ele>
        <time>2018-09-23T00:23:46.002Z</time>
      </trkpt>
      <trkpt lat="46.1939" lon="10.2995">
        <ele>1665.382558526</ele>
        <time>2018-09-23T00:23:54.990Z</time>
      </trkpt>
      <trkpt lat="46.19399" lon="10.29958">
        <ele>1667.2874875035</ele>
        <time>2018-09-23T00:24:05.999Z</time>
      </trkpt>
      <trkpt lat="46.19408" lon="10.29958">
        <ele>1668.49300096</ele>
        <time>2018-09-23T00:24:17.990Z</time>
      </trkpt>
      <trkpt lat="46.19417" lon="10.29957">
        <ele>1669</ele>
        <time>2018-09-23T00:24:29.989Z</time>
      </trkpt>
      <trkpt lat="46.19426" lon="10.29955">
        <ele>1670.0838225549</ele>
        <time>2018-09-23T00:24:43.989Z</time>
      </trkpt>
      <trkpt lat="46.19436" lon="10.29954">
        <ele>1671.1929359351</ele>
        <time>2018-09-23T00:24:54.989Z</time>
      </trkpt>
      <trkpt lat="46.19445" lon="10.29958">
        <ele>1673.4728924953</ele>
        <time>2018-09-23T00:25:07.990Z</time>
      </trkpt>
      <trkpt lat="46.19455" lon="10.29959">
        <ele>1675</ele>
        <time>2018-09-23T00:25:19.989Z</time>
      </trkpt>
      <trkpt lat="46.19465" lon="10.29962">
        <ele>1675.5933076822</ele>
        <time>2018-09-23T00:25:28.989Z</time>
      </trkpt>
      <trkpt lat="46.19475" lon="10.29967">
        <ele>1676</ele>
        <time>2018-09-23T00:25:39.000Z</time>
      </trkpt>
      <trkpt lat="46.19483" lon="10.29973">
        <ele>1676</ele>
        <time>2018-09-23T00:25:48.000Z</time>
      </trkpt>
      <trkpt lat="46.19492" lon="10.29973">
        <ele>1676.4761907917</ele>
        <time>2018-09-23T00:25:58.000Z</time>
      </trkpt>
      <trkpt lat="46.19499" lon="10.29966">
        <ele>1677.8661500318</ele>
        <time>2018-09-23T00:26:11.990Z</time>
      </trkpt>
      <trkpt lat="46.19499" lon="10.29952">
        <ele>1680.1812753067</ele>
        <time>2018-09-23T00:26:28.990Z</time>
      </trkpt>
      <trkpt lat="46.19502" lon="10.2994">
        <ele>1681</ele>
        <time>2018-09-23T00:26:42.989Z</time>
      </trkpt>
      <trkpt lat="46.19502" lon="10.29927">
        <ele>1682.783568278</ele>
        <time>2018-09-23T00:26:56.990Z</time>
      </trkpt>
      <trkpt lat="46.19502" lon="10.29914">
        <ele>1685.7774436342</ele>
        <time>2018-09-23T00:27:16.990Z</time>
      </trkpt>
      <trkpt lat="46.19502" lon="10.299">
        <ele>1687.38800128</ele>
        <time>2018-09-23T00:27:35.000Z</time>
      </trkpt>
      <trkpt lat="46.19504" lon="10.29887">
        <ele>1690.3718912427</ele>
        <time>2018-09-23T00:27:54.999Z</time>
      </trkpt>
      <trkpt lat="46.19513" lon="10.29883">
        <ele>1694.98560256</ele>
        <time>2018-09-23T00:28:32.988Z</time>
      </trkpt>
      <trkpt lat="46.19521" lon="10.29888">
        <ele>1695.49290112</ele>
        <time>2018-09-23T00:28:47.989Z</time>
      </trkpt>
      <trkpt lat="46.1953" lon="10.29886">
        <ele>1697.1223245249</ele>
        <time>2018-09-23T00:29:04.019Z</time>
      </trkpt>
      <trkpt lat="46.19539" lon="10.29885">
        <ele>1701</ele>
        <time>2018-09-23T00:29:25.989Z</time>
      </trkpt>
      <trkpt lat="46.19548" lon="10.2989">
        <ele>1702.2904522199</ele>
        <time>2018-09-23T00:29:45.990Z</time>
      </trkpt>
      <trkpt lat="46.19556" lon="10.29882">
        <ele>1706</ele>
        <time>2018-09-23T00:30:04.999Z</time>
      </trkpt>
      <trkpt lat="46.19562" lon="10.29873">
        <ele>1706</ele>
        <time>2018-09-23T00:30:21.000Z</time>
      </trkpt>
      <trkpt lat="46.19557" lon="10.29862">
        <ele>1706</ele>
        <time>2018-09-23T00:30:30.000Z</time>
      </trkpt>
      <trkpt lat="46.19568" lon="10.2988">
        <ele>1707</ele>
        <time>2018-09-23T00:32:35.000Z</time>
      </trkpt>
      <trkpt lat="46.19569" lon="10.29866">
        <ele>1707</ele>
        <time>2018-09-23T00:37:05.000Z</time>
      </trkpt>
      <trkpt lat="46.19557" lon="10.29848">
        <ele>1707</ele>
        <time>2018-09-23T00:38:06.000Z</time>
      </trkpt>
      <trkpt lat="46.19582" lon="10.29884">
        <ele>1709</ele>
        <time>2018-09-23T00:40:18.000Z</time>
      </trkpt>
      <trkpt lat="46.19566" lon="10.29887">
        <ele>1707.5910448484</ele>
        <time>2018-09-23T00:41:19.000Z</time>
      </trkpt>
      <trkpt lat="46.19557" lon="10.2989">
        <ele>1708</ele>
        <time>2018-09-23T00:41:24.000Z</time>
      </trkpt>
      <trkpt lat="46.1956" lon="10.29871">
        <ele>1708</ele>
        <time>2018-09-23T00:41:34.000Z</time>
      </trkpt>
      <trkpt lat="46.19567" lon="10.29861">
        <ele>1708</ele>
        <time>2018-09-23T00:41:40.000Z</time>
      </trkpt>
      <trkpt lat="46.19573" lon="10.29872">
        <ele>1708</ele>
        <time>2018-09-23T00:41:54.000Z</time>
      </trkpt>
      <trkpt lat="46.1958" lon="10.29883">
        <ele>1708</ele>
        <time>2018-09-23T00:41:58.000Z</time>
      </trkpt>
      <trkpt lat="46.19574" lon="10.29872">
        <ele>1708</ele>
        <time>2018-09-23T00:42:11.000Z</time>
      </trkpt>
      <trkpt lat="46.19557" lon="10.29857">
        <ele>1708</ele>
        <time>2018-09-23T00:42:29.000Z</time>
      </trkpt>
      <trkpt lat="46.19563" lon="10.29867">
        <ele>1710</ele>
        <time>2018-09-23T00:48:44.000Z</time>
      </trkpt>
      <trkpt lat="46.19563" lon="10.2988">
        <ele>1709.1371974069</ele>
        <time>2018-09-23T00:49:01.990Z</time>
      </trkpt>
      <trkpt lat="46.19571" lon="10.29886">
        <ele>1709</ele>
        <time>2018-09-23T00:49:11.990Z</time>
      </trkpt>
      <trkpt lat="46.19577" lon="10.29875">
        <ele>1708</ele>
        <time>2018-09-23T00:49:29.000Z</time>
      </trkpt>
      <trkpt lat="46.19586" lon="10.29873">
        <ele>1707.4137487909</ele>
        <time>2018-09-23T00:49:38.987Z</time>
      </trkpt>
      <trkpt lat="46.19595" lon="10.29868">
        <ele>1707</ele>
        <time>2018-09-23T00:49:46.000Z</time>
      </trkpt>
      <trkpt lat="46.19605" lon="10.29866">
        <ele>1707</ele>
        <time>2018-09-23T00:49:52.988Z</time>
      </trkpt>
      <trkpt lat="46.19615" lon="10.29867">
        <ele>1706</ele>
        <time>2018-09-23T00:50:43.988Z</time>
      </trkpt>
      <trkpt lat="46.19624" lon="10.29871">
        <ele>1706</ele>
        <time>2018-09-23T00:50:52.988Z</time>
      </trkpt>
      <trkpt lat="46.19632" lon="10.29876">
        <ele>1703.92099712</ele>
        <time>2018-09-23T00:50:59.990Z</time>
      </trkpt>
      <trkpt lat="46.19641" lon="10.29883">
        <ele>1703.4769600214</ele>
        <time>2018-09-23T00:51:07.987Z</time>
      </trkpt>
      <trkpt lat="46.1965" lon="10.29887">
        <ele>1704</ele>
        <time>2018-09-23T00:51:16.000Z</time>
      </trkpt>
      <trkpt lat="46.19659" lon="10.29893">
        <ele>1703.9093840362</ele>
        <time>2018-09-23T00:51:23.987Z</time>
      </trkpt>
      <trkpt lat="46.19668" lon="10.29899">
        <ele>1703.1273705955</ele>
        <time>2018-09-23T00:51:31.987Z</time>
      </trkpt>
      <trkpt lat="46.19677" lon="10.29906">
        <ele>1702.4168884068</ele>
        <time>2018-09-23T00:51:38.987Z</time>
      </trkpt>
      <trkpt lat="46.19686" lon="10.29912">
        <ele>1701.5072</ele>
        <time>2018-09-23T00:51:47.988Z</time>
      </trkpt>
      <trkpt lat="46.19694" lon="10.29919">
        <ele>1701</ele>
        <time>2018-09-23T00:51:55.998Z</time>
      </trkpt>
      <trkpt lat="46.19699" lon="10.29932">
        <ele>1701.0928</ele>
        <time>2018-09-23T00:52:03.988Z</time>
      </trkpt>
      <trkpt lat="46.19704" lon="10.29944">
        <ele>1701.79400064</ele>
        <time>2018-09-23T00:52:11.000Z</time>
      </trkpt>
      <trkpt lat="46.19711" lon="10.29953">
        <ele>1702</ele>
        <time>2018-09-23T00:52:20.003Z</time>
      </trkpt>
      <trkpt lat="46.19718" lon="10.29963">
        <ele>1702.4864753534</ele>
        <time>2018-09-23T00:52:27.988Z</time>
      </trkpt>
      <trkpt lat="46.19723" lon="10.29976">
        <ele>1703</ele>
        <time>2018-09-23T00:52:35.988Z</time>
      </trkpt>
      <trkpt lat="46.19728" lon="10.29988">
        <ele>1703</ele>
        <time>2018-09-23T00:52:42.990Z</time>
      </trkpt>
      <trkpt lat="46.19731" lon="10.30001">
        <ele>1703</ele>
        <time>2018-09-23T00:52:50.000Z</time>
      </trkpt>
      <trkpt lat="46.19734" lon="10.30015">
        <ele>1702.5080153959</ele>
        <time>2018-09-23T00:52:57.990Z</time>
      </trkpt>
      <trkpt lat="46.19736" lon="10.30029">
        <ele>1702.19400064</ele>
        <time>2018-09-23T00:53:05.000Z</time>
      </trkpt>
      <trkpt lat="46.19737" lon="10.30044">
        <ele>1702.79270016</ele>
        <time>2018-09-23T00:53:10.987Z</time>
      </trkpt>
      <trkpt lat="46.19739" lon="10.30058">
        <ele>1703</ele>
        <time>2018-09-23T00:53:18.988Z</time>
      </trkpt>
      <trkpt lat="46.19745" lon="10.30069">
        <ele>1703</ele>
        <time>2018-09-23T00:53:25.000Z</time>
      </trkpt>
      <trkpt lat="46.1975" lon="10.30081">
        <ele>1703</ele>
        <time>2018-09-23T00:53:33.990Z</time>
      </trkpt>
      <trkpt lat="46.19757" lon="10.30089">
        <ele>1703</ele>
        <time>2018-09-23T00:53:40.003Z</time>
      </trkpt>
      <trkpt lat="46.19761" lon="10.30102">
        <ele>1703</ele>
        <time>2018-09-23T00:53:47.988Z</time>
      </trkpt>
      <trkpt lat="46.19761" lon="10.30117">
        <ele>1702.7096128035</ele>
        <time>2018-09-23T00:53:55.990Z</time>
      </trkpt>
      <trkpt lat="46.19761" lon="10.30131">
        <ele>1702.0845070967</ele>
        <time>2018-09-23T00:54:03.990Z</time>
      </trkpt>
      <trkpt lat="46.19763" lon="10.30145">
        <ele>1702.7887329022</ele>
        <time>2018-09-23T00:54:10.990Z</time>
      </trkpt>
      <trkpt lat="46.19765" lon="10.30159">
        <ele>1702.5219510429</ele>
        <time>2018-09-23T00:54:17.990Z</time>
      </trkpt>
      <trkpt lat="46.19769" lon="10.30173">
        <ele>1701.8319634391</ele>
        <time>2018-09-23T00:54:24.975Z</time>
      </trkpt>
      <trkpt lat="46.19773" lon="10.30185">
        <ele>1701.0082219965</ele>
        <time>2018-09-23T00:54:32.990Z</time>
      </trkpt>
      <trkpt lat="46.19776" lon="10.30199">
        <ele>1700.3111330806</ele>
        <time>2018-09-23T00:54:40.000Z</time>
      </trkpt>
      <trkpt lat="46.19778" lon="10.30212">
        <ele>1700</ele>
        <time>2018-09-23T00:54:46.991Z</time>
      </trkpt>
      <trkpt lat="46.19776" lon="10.30226">
        <ele>1699.9073624765</ele>
        <time>2018-09-23T00:54:53.991Z</time>
      </trkpt>
      <trkpt lat="46.19772" lon="10.3024">
        <ele>1699.0118409439</ele>
        <time>2018-09-23T00:55:02.991Z</time>
      </trkpt>
      <trkpt lat="46.19768" lon="10.30254">
        <ele>1699</ele>
        <time>2018-09-23T00:55:09.996Z</time>
      </trkpt>
      <trkpt lat="46.19766" lon="10.30268">
        <ele>1699</ele>
        <time>2018-09-23T00:55:16.989Z</time>
      </trkpt>
      <trkpt lat="46.19766" lon="10.30282">
        <ele>1699</ele>
        <time>2018-09-23T00:55:22.990Z</time>
      </trkpt>
      <trkpt lat="46.19763" lon="10.30295">
        <ele>1698.4068992</ele>
        <time>2018-09-23T00:55:28.991Z</time>
      </trkpt>
      <trkpt lat="46.19761" lon="10.30309">
        <ele>1698.1881673907</ele>
        <time>2018-09-23T00:55:35.000Z</time>
      </trkpt>
      <trkpt lat="46.19762" lon="10.30323">
        <ele>1698.8662468698</ele>
        <time>2018-09-23T00:55:41.991Z</time>
      </trkpt>
      <trkpt lat="46.19762" lon="10.30338">
        <ele>1698.1361724177</ele>
        <time>2018-09-23T00:55:51.991Z</time>
      </trkpt>
      <trkpt lat="46.19762" lon="10.30352">
        <ele>1697.4244897959</ele>
        <time>2018-09-23T00:55:58.990Z</time>
      </trkpt>
      <trkpt lat="46.19762" lon="10.30366">
        <ele>1697</ele>
        <time>2018-09-23T00:56:05.990Z</time>
      </trkpt>
      <trkpt lat="46.19764" lon="10.30378">
        <ele>1697</ele>
        <time>2018-09-23T00:56:12.990Z</time>
      </trkpt>
      <trkpt lat="46.19772" lon="10.30387">
        <ele>1697</ele>
        <time>2018-09-23T00:56:23.989Z</time>
      </trkpt>
      <trkpt lat="46.19781" lon="10.3039">
        <ele>1697</ele>
        <time>2018-09-23T00:56:30.000Z</time>
      </trkpt>
      <trkpt lat="46.19791" lon="10.30392">
        <ele>1696.7101413142</ele>
        <time>2018-09-23T00:56:35.987Z</time>
      </trkpt>
      <trkpt lat="46.198" lon="10.30391">
        <ele>1695.90599936</ele>
        <time>2018-09-23T00:56:44.000Z</time>
      </trkpt>
      <trkpt lat="46.1981" lon="10.30391">
        <ele>1695.10709888</ele>
        <time>2018-09-23T00:56:51.989Z</time>
      </trkpt>
      <trkpt lat="46.19819" lon="10.30393">
        <ele>1693.61479936</ele>
        <time>2018-09-23T00:56:59.986Z</time>
      </trkpt>
      <trkpt lat="46.19829" lon="10.30396">
        <ele>1692.5104061744</ele>
        <time>2018-09-23T00:57:08.000Z</time>
      </trkpt>
      <trkpt lat="46.19839" lon="10.30402">
        <ele>1691.4274480831</ele>
        <time>2018-09-23T00:57:15.987Z</time>
      </trkpt>
      <trkpt lat="46.19847" lon="10.30406">
        <ele>1690.216750321</ele>
        <time>2018-09-23T00:57:21.986Z</time>
      </trkpt>
      <trkpt lat="46.19856" lon="10.30411">
        <ele>1688.847082525</ele>
        <time>2018-09-23T00:57:28.986Z</time>
      </trkpt>
      <trkpt lat="46.19865" lon="10.30415">
        <ele>1687.2497952261</ele>
        <time>2018-09-23T00:57:36.986Z</time>
      </trkpt>
      <trkpt lat="46.19875" lon="10.30417">
        <ele>1685.6296147692</ele>
        <time>2018-09-23T00:57:44.986Z</time>
      </trkpt>
      <trkpt lat="46.19884" lon="10.30423">
        <ele>1684.2834609231</ele>
        <time>2018-09-23T00:57:51.986Z</time>
      </trkpt>
      <trkpt lat="46.19894" lon="10.30427">
        <ele>1681.960624</ele>
        <time>2018-09-23T00:57:59.986Z</time>
      </trkpt>
      <trkpt lat="46.19902" lon="10.30434">
        <ele>1680.017746435</ele>
        <time>2018-09-23T00:58:07.986Z</time>
      </trkpt>
      <trkpt lat="46.19912" lon="10.30437">
        <ele>1678.4190569851</ele>
        <time>2018-09-23T00:58:15.986Z</time>
      </trkpt>
      <trkpt lat="46.19921" lon="10.30444">
        <ele>1676.81179904</ele>
        <time>2018-09-23T00:58:24.001Z</time>
      </trkpt>
      <trkpt lat="46.19919" lon="10.30431">
        <ele>1672.9072127656</ele>
        <time>2018-09-23T00:58:43.999Z</time>
      </trkpt>
      <trkpt lat="46.19915" lon="10.30419">
        <ele>1672.1176877563</ele>
        <time>2018-09-23T00:58:51.989Z</time>
      </trkpt>
      <trkpt lat="46.19917" lon="10.30404">
        <ele>1670.2370451654</ele>
        <time>2018-09-23T00:58:58.986Z</time>
      </trkpt>
      <trkpt lat="46.19922" lon="10.30391">
        <ele>1669</ele>
        <time>2018-09-23T00:59:06.986Z</time>
      </trkpt>
      <trkpt lat="46.19929" lon="10.30382">
        <ele>1668.80709888</ele>
        <time>2018-09-23T00:59:14.989Z</time>
      </trkpt>
      <trkpt lat="46.19938" lon="10.30375">
        <ele>1668.10709888</ele>
        <time>2018-09-23T00:59:21.989Z</time>
      </trkpt>
      <trkpt lat="46.19945" lon="10.30364">
        <ele>1666.81439744</ele>
        <time>2018-09-23T00:59:28.988Z</time>
      </trkpt>
      <trkpt lat="46.19951" lon="10.30351">
        <ele>1665.60599936</ele>
        <time>2018-09-23T00:59:37.000Z</time>
      </trkpt>
      <trkpt lat="46.19959" lon="10.30344">
        <ele>1665</ele>
        <time>2018-09-23T00:59:43.988Z</time>
      </trkpt>
      <trkpt lat="46.19963" lon="10.30332">
        <ele>1665</ele>
        <time>2018-09-23T00:59:49.986Z</time>
      </trkpt>
      <trkpt lat="46.19973" lon="10.30328">
        <ele>1664.40739968</ele>
        <time>2018-09-23T00:59:58.986Z</time>
      </trkpt>
      <trkpt lat="46.1998" lon="10.30321">
        <ele>1664</ele>
        <time>2018-09-23T01:00:06.001Z</time>
      </trkpt>
      <trkpt lat="46.19988" lon="10.30313">
        <ele>1664</ele>
        <time>2018-09-23T01:00:13.989Z</time>
      </trkpt>
      <trkpt lat="46.19996" lon="10.30305">
        <ele>1664</ele>
        <time>2018-09-23T01:00:23.987Z</time>
      </trkpt>
      <trkpt lat="46.20005" lon="10.30301">
        <ele>1664</ele>
        <time>2018-09-23T01:00:32.000Z</time>
      </trkpt>
      <trkpt lat="46.20014" lon="10.30296">
        <ele>1664</ele>
        <time>2018-09-23T01:00:37.987Z</time>
      </trkpt>
      <trkpt lat="46.20022" lon="10.30288">
        <ele>1664</ele>
        <time>2018-09-23T01:00:51.000Z</time>
      </trkpt>
      <trkpt lat="46.20032" lon="10.30284">
        <ele>1663.2289466934</ele>
        <time>2018-09-23T01:00:56.989Z</time>
      </trkpt>
      <trkpt lat="46.2004" lon="10.30275">
        <ele>1662.19400064</ele>
        <time>2018-09-23T01:01:05.000Z</time>
      </trkpt>
      <trkpt lat="46.20047" lon="10.30266">
        <ele>1663.3919407201</ele>
        <time>2018-09-23T01:01:16.999Z</time>
      </trkpt>
      <trkpt lat="46.20055" lon="10.30261">
        <ele>1665.1674923029</ele>
        <time>2018-09-23T01:01:29.000Z</time>
      </trkpt>
      <trkpt lat="46.20064" lon="10.30257">
        <ele>1668.59400064</ele>
        <time>2018-09-23T01:01:49.000Z</time>
      </trkpt>
      <trkpt lat="46.2007" lon="10.30245">
        <ele>1670</ele>
        <time>2018-09-23T01:02:05.000Z</time>
      </trkpt>
      <trkpt lat="46.20073" lon="10.30232">
        <ele>1671.7243966293</ele>
        <time>2018-09-23T01:02:21.991Z</time>
      </trkpt>
      <trkpt lat="46.2008" lon="10.30222">
        <ele>1674.29400064</ele>
        <time>2018-09-23T01:02:36.000Z</time>
      </trkpt>
      <trkpt lat="46.20088" lon="10.30216">
        <ele>1676.3937063957</ele>
        <time>2018-09-23T01:02:57.001Z</time>
      </trkpt>
      <trkpt lat="46.20094" lon="10.30206">
        <ele>1680.3843067263</ele>
        <time>2018-09-23T01:03:20.000Z</time>
      </trkpt>
      <trkpt lat="46.20103" lon="10.302">
        <ele>1681.99270016</ele>
        <time>2018-09-23T01:03:32.987Z</time>
      </trkpt>
      <trkpt lat="46.20108" lon="10.30189">
        <ele>1687.98860032</ele>
        <time>2018-09-23T01:04:08.003Z</time>
      </trkpt>
      <trkpt lat="46.20112" lon="10.30178">
        <ele>1691.5722774988</ele>
        <time>2018-09-23T01:04:31.000Z</time>
      </trkpt>
      <trkpt lat="46.20114" lon="10.30165">
        <ele>1694.38800128</ele>
        <time>2018-09-23T01:04:45.000Z</time>
      </trkpt>
      <trkpt lat="46.20114" lon="10.3015">
        <ele>1696.99400064</ele>
        <time>2018-09-23T01:05:03.000Z</time>
      </trkpt>
      <trkpt lat="46.20109" lon="10.30138">
        <ele>1698.3846481724</ele>
        <time>2018-09-23T01:05:14.989Z</time>
      </trkpt>
      <trkpt lat="46.20112" lon="10.30125">
        <ele>1702.4899809524</ele>
        <time>2018-09-23T01:05:37.999Z</time>
      </trkpt>
      <trkpt lat="46.20112" lon="10.30112">
        <ele>1705.9767451492</ele>
        <time>2018-09-23T01:05:58.000Z</time>
      </trkpt>
      <trkpt lat="46.20117" lon="10.301">
        <ele>1709.9702374603</ele>
        <time>2018-09-23T01:06:23.000Z</time>
      </trkpt>
      <trkpt lat="46.2012" lon="10.30088">
        <ele>1712.9829709415</ele>
        <time>2018-09-23T01:06:42.988Z</time>
      </trkpt>
      <trkpt lat="46.20118" lon="10.30075">
        <ele>1713.9939400365</ele>
        <time>2018-09-23T01:06:53.000Z</time>
      </trkpt>
      <trkpt lat="46.20126" lon="10.30067">
        <ele>1714.8441929838</ele>
        <time>2018-09-23T01:07:02.000Z</time>
      </trkpt>
      <trkpt lat="46.20131" lon="10.30055">
        <ele>1719</ele>
        <time>2018-09-23T01:07:27.000Z</time>
      </trkpt>
      <trkpt lat="46.20139" lon="10.30049">
        <ele>1719.9840637653</ele>
        <time>2018-09-23T01:07:38.000Z</time>
      </trkpt>
      <trkpt lat="46.20146" lon="10.3004">
        <ele>1722.1706336508</ele>
        <time>2018-09-23T01:07:49.000Z</time>
      </trkpt>
      <trkpt lat="46.20155" lon="10.30034">
        <ele>1725.4909459902</ele>
        <time>2018-09-23T01:08:08.000Z</time>
      </trkpt>
      <trkpt lat="46.20159" lon="10.30021">
        <ele>1728.1803195672</ele>
        <time>2018-09-23T01:08:28.997Z</time>
      </trkpt>
      <trkpt lat="46.20162" lon="10.30007">
        <ele>1729</ele>
        <time>2018-09-23T01:08:40.000Z</time>
      </trkpt>
      <trkpt lat="46.20171" lon="10.30002">
        <ele>1729.2902274051</ele>
        <time>2018-09-23T01:08:56.000Z</time>
      </trkpt>
      <trkpt lat="46.2018" lon="10.30007">
        <ele>1730</ele>
        <time>2018-09-23T01:09:10.000Z</time>
      </trkpt>
      <trkpt lat="46.20189" lon="10.30004">
        <ele>1731.8679612471</ele>
        <time>2018-09-23T01:09:32.000Z</time>
      </trkpt>
      <trkpt lat="46.20195" lon="10.30013">
        <ele>1734.2937066514</ele>
        <time>2018-09-23T01:09:46.000Z</time>
      </trkpt>
      <trkpt lat="46.20204" lon="10.30016">
        <ele>1736.5722013008</ele>
        <time>2018-09-23T01:10:08.988Z</time>
      </trkpt>
      <trkpt lat="46.20213" lon="10.30023">
        <ele>1738.5661143802</ele>
        <time>2018-09-23T01:10:21.000Z</time>
      </trkpt>
      <trkpt lat="46.20218" lon="10.30035">
        <ele>1739</ele>
        <time>2018-09-23T01:10:32.000Z</time>
      </trkpt>
      <trkpt lat="46.20226" lon="10.3004">
        <ele>1741.78179968</ele>
        <time>2018-09-23T01:10:50.998Z</time>
      </trkpt>
      <trkpt lat="46.20236" lon="10.30043">
        <ele>1743.7898405867</ele>
        <time>2018-09-23T01:11:20.990Z</time>
      </trkpt>
      <trkpt lat="46.20244" lon="10.30048">
        <ele>1746.0856864516</ele>
        <time>2018-09-23T01:11:33.990Z</time>
      </trkpt>
      <trkpt lat="46.20253" lon="10.30054">
        <ele>1746.9939522581</ele>
        <time>2018-09-23T01:11:43.000Z</time>
      </trkpt>
      <trkpt lat="46.20263" lon="10.30056">
        <ele>1750.3897285445</ele>
        <time>2018-09-23T01:12:07.000Z</time>
      </trkpt>
      <trkpt lat="46.20271" lon="10.30063">
        <ele>1752.98800128</ele>
        <time>2018-09-23T01:12:23.000Z</time>
      </trkpt>
      <trkpt lat="46.20281" lon="10.30061">
        <ele>1753.6905472409</ele>
        <time>2018-09-23T01:12:30.000Z</time>
      </trkpt>
      <trkpt lat="46.2029" lon="10.3006">
        <ele>1754.7928649258</ele>
        <time>2018-09-23T01:12:40.999Z</time>
      </trkpt>
      <trkpt lat="46.203" lon="10.30058">
        <ele>1757.38800128</ele>
        <time>2018-09-23T01:13:00.000Z</time>
      </trkpt>
      <trkpt lat="46.20309" lon="10.30055">
        <ele>1759.6750970583</ele>
        <time>2018-09-23T01:13:20.000Z</time>
      </trkpt>
      <trkpt lat="46.2032" lon="10.30053">
        <ele>1760.7791457457</ele>
        <time>2018-09-23T01:13:30.999Z</time>
      </trkpt>
      <trkpt lat="46.2033" lon="10.30049">
        <ele>1765.0829954112</ele>
        <time>2018-09-23T01:14:04.000Z</time>
      </trkpt>
      <trkpt lat="46.20339" lon="10.30048">
        <ele>1766.19400064</ele>
        <time>2018-09-23T01:14:15.000Z</time>
      </trkpt>
      <trkpt lat="46.20348" lon="10.30044">
        <ele>1769</ele>
        <time>2018-09-23T01:14:38.000Z</time>
      </trkpt>
      <trkpt lat="46.2036" lon="10.30044">
        <ele>1770.9782184692</ele>
        <time>2018-09-23T01:14:58.000Z</time>
      </trkpt>
      <trkpt lat="46.20369" lon="10.30045">
        <ele>1772.6895959205</ele>
        <time>2018-09-23T01:15:09.987Z</time>
      </trkpt>
      <trkpt lat="46.20378" lon="10.30044">
        <ele>1774.2932605337</ele>
        <time>2018-09-23T01:15:26.099Z</time>
      </trkpt>
      <trkpt lat="46.20388" lon="10.30046">
        <ele>1775.7670397725</ele>
        <time>2018-09-23T01:15:37.000Z</time>
      </trkpt>
      <trkpt lat="46.20397" lon="10.3005">
        <ele>1777</ele>
        <time>2018-09-23T01:15:47.987Z</time>
      </trkpt>
      <trkpt lat="46.20407" lon="10.30051">
        <ele>1777</ele>
        <time>2018-09-23T01:16:00.000Z</time>
      </trkpt>
      <trkpt lat="46.20417" lon="10.30051">
        <ele>1778.18580224</ele>
        <time>2018-09-23T01:16:08.989Z</time>
      </trkpt>
      <trkpt lat="46.20426" lon="10.30051">
        <ele>1780</ele>
        <time>2018-09-23T01:18:13.990Z</time>
      </trkpt>
      <trkpt lat="46.20435" lon="10.30047">
        <ele>1780</ele>
        <time>2018-09-23T01:18:24.000Z</time>
      </trkpt>
      <trkpt lat="46.20444" lon="10.30043">
        <ele>1780</ele>
        <time>2018-09-23T01:18:32.098Z</time>
      </trkpt>
      <trkpt lat="46.20449" lon="10.3003">
        <ele>1779.00599936</ele>
        <time>2018-09-23T01:18:43.000Z</time>
      </trkpt>
      <trkpt lat="46.20454" lon="10.30018">
        <ele>1778.20599936</ele>
        <time>2018-09-23T01:18:51.000Z</time>
      </trkpt>
      <trkpt lat="46.20461" lon="10.30007">
        <ele>1777.30599936</ele>
        <time>2018-09-23T01:19:00.000Z</time>
      </trkpt>
      <trkpt lat="46.20468" lon="10.29999">
        <ele>1777</ele>
        <time>2018-09-23T01:19:10.000Z</time>
      </trkpt>
      <trkpt lat="46.20476" lon="10.29991">
        <ele>1776.0204812851</ele>
        <time>2018-09-23T01:19:17.998Z</time>
      </trkpt>
      <trkpt lat="46.20482" lon="10.2998">
        <ele>1773.8255517919</ele>
        <time>2018-09-23T01:19:26.987Z</time>
      </trkpt>
      <trkpt lat="46.20488" lon="10.2997">
        <ele>1771.6167313722</ele>
        <time>2018-09-23T01:19:37.000Z</time>
      </trkpt>
      <trkpt lat="46.20495" lon="10.29958">
        <ele>1769.5778235551</ele>
        <time>2018-09-23T01:19:48.000Z</time>
      </trkpt>
      <trkpt lat="46.205" lon="10.29946">
        <ele>1767.0258847404</ele>
        <time>2018-09-23T01:19:57.987Z</time>
      </trkpt>
      <trkpt lat="46.20509" lon="10.29943">
        <ele>1765.4163508143</ele>
        <time>2018-09-23T01:20:05.987Z</time>
      </trkpt>
      <trkpt lat="46.20518" lon="10.29947">
        <ele>1764.2907008</ele>
        <time>2018-09-23T01:20:15.997Z</time>
      </trkpt>
      <trkpt lat="46.20526" lon="10.29953">
        <ele>1765</ele>
        <time>2018-09-23T01:20:28.000Z</time>
      </trkpt>
      <trkpt lat="46.20536" lon="10.29952">
        <ele>1763.41199872</ele>
        <time>2018-09-23T01:20:41.000Z</time>
      </trkpt>
      <trkpt lat="46.20546" lon="10.29949">
        <ele>1762.20599936</ele>
        <time>2018-09-23T01:20:51.000Z</time>
      </trkpt>
      <trkpt lat="46.20555" lon="10.29947">
        <ele>1761.5934066637</ele>
        <time>2018-09-23T01:21:09.000Z</time>
      </trkpt>
      <trkpt lat="46.20562" lon="10.29938">
        <ele>1765.2792096449</ele>
        <time>2018-09-23T01:21:34.000Z</time>
      </trkpt>
      <trkpt lat="46.20571" lon="10.29934">
        <ele>1769.5838394077</ele>
        <time>2018-09-23T01:21:51.000Z</time>
      </trkpt>
      <trkpt lat="46.20579" lon="10.29926">
        <ele>1771.1938066473</ele>
        <time>2018-09-23T01:22:05.000Z</time>
      </trkpt>
      <trkpt lat="46.20587" lon="10.29919">
        <ele>1772</ele>
        <time>2018-09-23T01:22:20.000Z</time>
      </trkpt>
      <trkpt lat="46.20596" lon="10.29913">
        <ele>1772</ele>
        <time>2018-09-23T01:22:30.000Z</time>
      </trkpt>
      <trkpt lat="46.20602" lon="10.29902">
        <ele>1772</ele>
        <time>2018-09-23T01:22:40.000Z</time>
      </trkpt>
      <trkpt lat="46.2061" lon="10.29895">
        <ele>1772</ele>
        <time>2018-09-23T01:22:48.000Z</time>
      </trkpt>
      <trkpt lat="46.20618" lon="10.29889">
        <ele>1773.1646092703</ele>
        <time>2018-09-23T01:22:59.000Z</time>
      </trkpt>
      <trkpt lat="46.20626" lon="10.29883">
        <ele>1774.99400064</ele>
        <time>2018-09-23T01:23:13.000Z</time>
      </trkpt>
      <trkpt lat="46.20633" lon="10.29873">
        <ele>1777</ele>
        <time>2018-09-23T01:23:24.002Z</time>
      </trkpt>
      <trkpt lat="46.20637" lon="10.29862">
        <ele>1777.09400064</ele>
        <time>2018-09-23T01:23:34.000Z</time>
      </trkpt>
      <trkpt lat="46.20645" lon="10.29855">
        <ele>1778</ele>
        <time>2018-09-23T01:23:44.000Z</time>
      </trkpt>
      <trkpt lat="46.20652" lon="10.29845">
        <ele>1778.49400064</ele>
        <time>2018-09-23T01:23:58.000Z</time>
      </trkpt>
      <trkpt lat="46.20656" lon="10.29833">
        <ele>1779</ele>
        <time>2018-09-23T01:24:10.000Z</time>
      </trkpt>
      <trkpt lat="46.20661" lon="10.29821">
        <ele>1776.41199872</ele>
        <time>2018-09-23T01:24:26.000Z</time>
      </trkpt>
      <trkpt lat="46.20667" lon="10.29832">
        <ele>1772.00699332</ele>
        <time>2018-09-23T01:24:53.000Z</time>
      </trkpt>
      <trkpt lat="46.20675" lon="10.29842">
        <ele>1772.38860032</ele>
        <time>2018-09-23T01:25:10.003Z</time>
      </trkpt>
      <trkpt lat="46.20682" lon="10.29851">
        <ele>1774.9778881557</ele>
        <time>2018-09-23T01:25:22.989Z</time>
      </trkpt>
      <trkpt lat="46.2069" lon="10.29846">
        <ele>1773.2002951499</ele>
        <time>2018-09-23T01:25:39.101Z</time>
      </trkpt>
      <trkpt lat="46.20699" lon="10.29847">
        <ele>1772.86503875</ele>
        <time>2018-09-23T01:25:51.988Z</time>
      </trkpt>
      <trkpt lat="46.20708" lon="10.29843">
        <ele>1772.1378615426</ele>
        <time>2018-09-23T01:26:02.000Z</time>
      </trkpt>
      <trkpt lat="46.20718" lon="10.2984">
        <ele>1771.1104233374</ele>
        <time>2018-09-23T01:26:12.000Z</time>
      </trkpt>
      <trkpt lat="46.20726" lon="10.29845">
        <ele>1769.90599936</ele>
        <time>2018-09-23T01:26:24.000Z</time>
      </trkpt>
      <trkpt lat="46.20736" lon="10.2985">
        <ele>1768.61199872</ele>
        <time>2018-09-23T01:26:35.000Z</time>
      </trkpt>
      <trkpt lat="46.20745" lon="10.29849">
        <ele>1766.80599936</ele>
        <time>2018-09-23T01:26:45.000Z</time>
      </trkpt>
      <trkpt lat="46.20755" lon="10.29851">
        <ele>1765.4118809271</ele>
        <time>2018-09-23T01:26:59.000Z</time>
      </trkpt>
      <trkpt lat="46.20763" lon="10.29848">
        <ele>1765</ele>
        <time>2018-09-23T01:27:12.000Z</time>
      </trkpt>
      <trkpt lat="46.20772" lon="10.29843">
        <ele>1764.8135083871</ele>
        <time>2018-09-23T01:27:25.000Z</time>
      </trkpt>
      <trkpt lat="46.20781" lon="10.29836">
        <ele>1763.5099403642</ele>
        <time>2018-09-23T01:27:38.000Z</time>
      </trkpt>
      <trkpt lat="46.2079" lon="10.29833">
        <ele>1763</ele>
        <time>2018-09-23T01:27:53.000Z</time>
      </trkpt>
      <trkpt lat="46.20799" lon="10.29824">
        <ele>1764</ele>
        <time>2018-09-23T01:28:06.000Z</time>
      </trkpt>
      <trkpt lat="46.2081" lon="10.29828">
        <ele>1764</ele>
        <time>2018-09-23T01:28:13.000Z</time>
      </trkpt>
      <trkpt lat="46.20818" lon="10.2982">
        <ele>1765.691234816</ele>
        <time>2018-09-23T01:28:50.000Z</time>
      </trkpt>
      <trkpt lat="46.20827" lon="10.2982">
        <ele>1766</ele>
        <time>2018-09-23T01:28:59.988Z</time>
      </trkpt>
      <trkpt lat="46.20835" lon="10.29829">
        <ele>1766</ele>
        <time>2018-09-23T01:29:09.988Z</time>
      </trkpt>
      <trkpt lat="46.20844" lon="10.29834">
        <ele>1767</ele>
        <time>2018-09-23T01:29:25.000Z</time>
      </trkpt>
      <trkpt lat="46.20852" lon="10.29827">
        <ele>1769.4894261532</ele>
        <time>2018-09-23T01:31:28.000Z</time>
      </trkpt>
      <trkpt lat="46.2086" lon="10.29819">
        <ele>1770.69369404</ele>
        <time>2018-09-23T01:31:40.000Z</time>
      </trkpt>
      <trkpt lat="46.20869" lon="10.29815">
        <ele>1771</ele>
        <time>2018-09-23T01:31:49.000Z</time>
      </trkpt>
      <trkpt lat="46.20879" lon="10.29816">
        <ele>1771</ele>
        <time>2018-09-23T01:32:00.003Z</time>
      </trkpt>
      <trkpt lat="46.20889" lon="10.29818">
        <ele>1772.7238189635</ele>
        <time>2018-09-23T01:32:11.998Z</time>
      </trkpt>
      <trkpt lat="46.20898" lon="10.29819">
        <ele>1775.1580808256</ele>
        <time>2018-09-23T01:32:24.986Z</time>
      </trkpt>
      <trkpt lat="46.20907" lon="10.29823">
        <ele>1776.99400064</ele>
        <time>2018-09-23T01:32:43.000Z</time>
      </trkpt>
      <trkpt lat="46.20917" lon="10.29824">
        <ele>1782</ele>
        <time>2018-09-23T01:33:05.002Z</time>
      </trkpt>
      <trkpt lat="46.20926" lon="10.2982">
        <ele>1784.9856</ele>
        <time>2018-09-23T01:33:27.988Z</time>
      </trkpt>
      <trkpt lat="46.2092" lon="10.29809">
        <ele>1787.7774436342</ele>
        <time>2018-09-23T01:33:46.990Z</time>
      </trkpt>
      <trkpt lat="46.20917" lon="10.29796">
        <ele>1789.8312844208</ele>
        <time>2018-09-23T01:34:01.988Z</time>
      </trkpt>
      <trkpt lat="46.20918" lon="10.29783">
        <ele>1792.2932932548</ele>
        <time>2018-09-23T01:34:16.000Z</time>
      </trkpt>
      <trkpt lat="46.20925" lon="10.29775">
        <ele>1794.18800128</ele>
        <time>2018-09-23T01:34:29.000Z</time>
      </trkpt>
      <trkpt lat="46.20929" lon="10.29763">
        <ele>1797.38560256</ele>
        <time>2018-09-23T01:34:44.988Z</time>
      </trkpt>
      <trkpt lat="46.20937" lon="10.29755">
        <ele>1800.0928</ele>
        <time>2018-09-23T01:35:03.988Z</time>
      </trkpt>
      <trkpt lat="46.20944" lon="10.29746">
        <ele>1801.7872899981</ele>
        <time>2018-09-23T01:35:20.988Z</time>
      </trkpt>
      <trkpt lat="46.20951" lon="10.29737">
        <ele>1804</ele>
        <time>2018-09-23T01:35:37.000Z</time>
      </trkpt>
      <trkpt lat="46.20959" lon="10.2973">
        <ele>1805.7212471135</ele>
        <time>2018-09-23T01:35:51.990Z</time>
      </trkpt>
      <trkpt lat="46.20966" lon="10.29722">
        <ele>1809.9790533669</ele>
        <time>2018-09-23T01:36:12.986Z</time>
      </trkpt>
      <trkpt lat="46.20974" lon="10.29715">
        <ele>1812.3856</ele>
        <time>2018-09-23T01:36:29.988Z</time>
      </trkpt>
      <trkpt lat="46.20982" lon="10.29707">
        <ele>1813</ele>
        <time>2018-09-23T01:36:42.988Z</time>
      </trkpt>
      <trkpt lat="46.20988" lon="10.29697">
        <ele>1814.1871107954</ele>
        <time>2018-09-23T01:36:54.988Z</time>
      </trkpt>
      <trkpt lat="46.20995" lon="10.29688">
        <ele>1816.1766335514</ele>
        <time>2018-09-23T01:37:09.002Z</time>
      </trkpt>
      <trkpt lat="46.21003" lon="10.29681">
        <ele>1817.992728561</ele>
        <time>2018-09-23T01:37:22.988Z</time>
      </trkpt>
      <trkpt lat="46.21009" lon="10.29671">
        <ele>1819.489738102</ele>
        <time>2018-09-23T01:37:37.988Z</time>
      </trkpt>
      <trkpt lat="46.21013" lon="10.29659">
        <ele>1820.9908190079</ele>
        <time>2018-09-23T01:37:52.988Z</time>
      </trkpt>
      <trkpt lat="46.21021" lon="10.29653">
        <ele>1823</ele>
        <time>2018-09-23T01:38:04.991Z</time>
      </trkpt>
      <trkpt lat="46.21028" lon="10.29643">
        <ele>1823.9856</ele>
        <time>2018-09-23T01:38:17.988Z</time>
      </trkpt>
      <trkpt lat="46.21037" lon="10.29639">
        <ele>1825.99270016</ele>
        <time>2018-09-23T01:38:32.987Z</time>
      </trkpt>
      <trkpt lat="46.21045" lon="10.29633">
        <ele>1826.3408037298</ele>
        <time>2018-09-23T01:38:44.988Z</time>
      </trkpt>
      <trkpt lat="46.21053" lon="10.29626">
        <ele>1828</ele>
        <time>2018-09-23T01:38:59.003Z</time>
      </trkpt>
      <trkpt lat="46.21061" lon="10.29621">
        <ele>1828</ele>
        <time>2018-09-23T01:39:12.990Z</time>
      </trkpt>
      <trkpt lat="46.21066" lon="10.29609">
        <ele>1830.7813253415</ele>
        <time>2018-09-23T01:39:26.991Z</time>
      </trkpt>
      <trkpt lat="46.21073" lon="10.296">
        <ele>1833.38540032</ele>
        <time>2018-09-23T01:39:39.987Z</time>
      </trkpt>
      <trkpt lat="46.21081" lon="10.29595">
        <ele>1834.79420032</ele>
        <time>2018-09-23T01:39:51.002Z</time>
      </trkpt>
      <trkpt lat="46.2109" lon="10.29591">
        <ele>1835.981998977</ele>
        <time>2018-09-23T01:40:02.988Z</time>
      </trkpt>
      <trkpt lat="46.21098" lon="10.29582">
        <ele>1838.7216959182</ele>
        <time>2018-09-23T01:40:21.987Z</time>
      </trkpt>
      <trkpt lat="46.21106" lon="10.29578">
        <ele>1841.4888892049</ele>
        <time>2018-09-23T01:40:48.000Z</time>
      </trkpt>
      <trkpt lat="46.21115" lon="10.29575">
        <ele>1842.99300668</ele>
        <time>2018-09-23T01:41:03.000Z</time>
      </trkpt>
      <trkpt lat="46.21119" lon="10.29563">
        <ele>1845.1938066473</ele>
        <time>2018-09-23T01:41:25.000Z</time>
      </trkpt>
      <trkpt lat="46.21125" lon="10.29552">
        <ele>1847.9812742868</ele>
        <time>2018-09-23T01:41:47.986Z</time>
      </trkpt>
      <trkpt lat="46.21133" lon="10.29548">
        <ele>1850.1828938402</ele>
        <time>2018-09-23T01:42:04.987Z</time>
      </trkpt>
      <trkpt lat="46.21141" lon="10.29541">
        <ele>1851.99270016</ele>
        <time>2018-09-23T01:42:22.987Z</time>
      </trkpt>
      <trkpt lat="46.21149" lon="10.29534">
        <ele>1853.8922771169</ele>
        <time>2018-09-23T01:42:41.986Z</time>
      </trkpt>
      <trkpt lat="46.21145" lon="10.29523">
        <ele>1856.981998977</ele>
        <time>2018-09-23T01:43:12.988Z</time>
      </trkpt>
      <trkpt lat="46.21137" lon="10.29515">
        <ele>1858.19290112</ele>
        <time>2018-09-23T01:43:24.989Z</time>
      </trkpt>
      <trkpt lat="46.21142" lon="10.29504">
        <ele>1860.58600192</ele>
        <time>2018-09-23T01:43:40.990Z</time>
      </trkpt>
      <trkpt lat="46.21149" lon="10.29494">
        <ele>1864.58740224</ele>
        <time>2018-09-23T01:44:05.997Z</time>
      </trkpt>
      <trkpt lat="46.21154" lon="10.29483">
        <ele>1867.78840064</ele>
        <time>2018-09-23T01:44:27.002Z</time>
      </trkpt>
      <trkpt lat="46.2116" lon="10.29472">
        <ele>1871.5874128802</ele>
        <time>2018-09-23T01:44:48.987Z</time>
      </trkpt>
      <trkpt lat="46.21164" lon="10.29459">
        <ele>1874.7694575702</ele>
        <time>2018-09-23T01:45:11.000Z</time>
      </trkpt>
      <trkpt lat="46.21166" lon="10.29446">
        <ele>1876.58800128</ele>
        <time>2018-09-23T01:45:26.000Z</time>
      </trkpt>
      <trkpt lat="46.21172" lon="10.29436">
        <ele>1879.9800611031</ele>
        <time>2018-09-23T01:45:42.990Z</time>
      </trkpt>
      <trkpt lat="46.21181" lon="10.29432">
        <ele>1884</ele>
        <time>2018-09-23T01:46:22.987Z</time>
      </trkpt>
      <trkpt lat="46.21188" lon="10.29439">
        <ele>1886</ele>
        <time>2018-09-23T01:46:42.987Z</time>
      </trkpt>
      <trkpt lat="46.21195" lon="10.29449">
        <ele>1890.38200192</ele>
        <time>2018-09-23T01:47:01.000Z</time>
      </trkpt>
      <trkpt lat="46.21204" lon="10.29449">
        <ele>1893</ele>
        <time>2018-09-23T01:47:16.987Z</time>
      </trkpt>
      <trkpt lat="46.21212" lon="10.29441">
        <ele>1893.69270016</ele>
        <time>2018-09-23T01:47:29.987Z</time>
      </trkpt>
      <trkpt lat="46.21203" lon="10.29433">
        <ele>1895.38820096</ele>
        <time>2018-09-23T01:47:45.001Z</time>
      </trkpt>
      <trkpt lat="46.21199" lon="10.29421">
        <ele>1897.69270016</ele>
        <time>2018-09-23T01:47:59.987Z</time>
      </trkpt>
      <trkpt lat="46.21201" lon="10.29408">
        <ele>1901.9783940741</ele>
        <time>2018-09-23T01:51:33.000Z</time>
      </trkpt>
      <trkpt lat="46.21202" lon="10.29395">
        <ele>1904.58800128</ele>
        <time>2018-09-23T01:51:51.000Z</time>
      </trkpt>
      <trkpt lat="46.21208" lon="10.29385">
        <ele>1905.1899496104</ele>
        <time>2018-09-23T01:52:05.000Z</time>
      </trkpt>
      <trkpt lat="46.21217" lon="10.29379">
        <ele>1907.58520064</ele>
        <time>2018-09-23T01:52:20.986Z</time>
      </trkpt>
      <trkpt lat="46.21225" lon="10.29374">
        <ele>1909.98540032</ele>
        <time>2018-09-23T01:52:32.987Z</time>
      </trkpt>
      <trkpt lat="46.21234" lon="10.29368">
        <ele>1911.7906060869</ele>
        <time>2018-09-23T01:52:50.987Z</time>
      </trkpt>
      <trkpt lat="46.21243" lon="10.29366">
        <ele>1914.18540032</ele>
        <time>2018-09-23T01:53:03.987Z</time>
      </trkpt>
      <trkpt lat="46.21253" lon="10.29361">
        <ele>1917.1633582683</ele>
        <time>2018-09-23T01:53:23.987Z</time>
      </trkpt>
      <trkpt lat="46.2126" lon="10.29354">
        <ele>1921.3931008</ele>
        <time>2018-09-23T01:53:46.991Z</time>
      </trkpt>
      <trkpt lat="46.21269" lon="10.29348">
        <ele>1924.39270016</ele>
        <time>2018-09-23T01:54:06.987Z</time>
      </trkpt>
      <trkpt lat="46.21276" lon="10.2934">
        <ele>1927.2846303071</ele>
        <time>2018-09-23T01:54:25.986Z</time>
      </trkpt>
      <trkpt lat="46.21282" lon="10.29329">
        <ele>1928</ele>
        <time>2018-09-23T01:54:39.987Z</time>
      </trkpt>
      <trkpt lat="46.21288" lon="10.2932">
        <ele>1929.59260032</ele>
        <time>2018-09-23T01:54:58.986Z</time>
      </trkpt>
      <trkpt lat="46.21295" lon="10.29311">
        <ele>1932.4915577808</ele>
        <time>2018-09-23T01:55:18.001Z</time>
      </trkpt>
      <trkpt lat="46.21301" lon="10.29301">
        <ele>1934.38540032</ele>
        <time>2018-09-23T01:55:34.987Z</time>
      </trkpt>
      <trkpt lat="46.21299" lon="10.29288">
        <ele>1939</ele>
        <time>2018-09-23T01:55:58.000Z</time>
      </trkpt>
      <trkpt lat="46.2129" lon="10.29284">
        <ele>1940.98840064</ele>
        <time>2018-09-23T01:56:13.002Z</time>
      </trkpt>
      <trkpt lat="46.21281" lon="10.29288">
        <ele>1942.38580224</ele>
        <time>2018-09-23T01:56:24.989Z</time>
      </trkpt>
      <trkpt lat="46.21278" lon="10.29275">
        <ele>1945.3879444896</ele>
        <time>2018-09-23T01:56:46.986Z</time>
      </trkpt>
      <trkpt lat="46.21285" lon="10.29267">
        <ele>1946.9926114884</ele>
        <time>2018-09-23T01:57:02.987Z</time>
      </trkpt>
      <trkpt lat="46.21287" lon="10.29254">
        <ele>1949.69270016</ele>
        <time>2018-09-23T01:57:19.987Z</time>
      </trkpt>
      <trkpt lat="46.21287" lon="10.29241">
        <ele>1951.98800128</ele>
        <time>2018-09-23T01:57:33.000Z</time>
      </trkpt>
      <trkpt lat="46.21295" lon="10.29233">
        <ele>1953.1698556969</ele>
        <time>2018-09-23T01:57:44.991Z</time>
      </trkpt>
      <trkpt lat="46.21303" lon="10.29227">
        <ele>1954</ele>
        <time>2018-09-23T01:57:57.987Z</time>
      </trkpt>
      <trkpt lat="46.21312" lon="10.29221">
        <ele>1954</ele>
        <time>2018-09-23T01:58:11.986Z</time>
      </trkpt>
      <trkpt lat="46.21321" lon="10.29217">
        <ele>1954</ele>
        <time>2018-09-23T01:58:22.987Z</time>
      </trkpt>
      <trkpt lat="46.2133" lon="10.29211">
        <ele>1955.09420032</ele>
        <time>2018-09-23T01:58:34.002Z</time>
      </trkpt>
      <trkpt lat="46.21336" lon="10.29202">
        <ele>1956.58520064</ele>
        <time>2018-09-23T01:58:45.986Z</time>
      </trkpt>
      <trkpt lat="46.21343" lon="10.29191">
        <ele>1958.3931008</ele>
        <time>2018-09-23T01:58:56.991Z</time>
      </trkpt>
      <trkpt lat="46.2135" lon="10.29183">
        <ele>1959</ele>
        <time>2018-09-23T01:59:07.986Z</time>
      </trkpt>
      <trkpt lat="46.21357" lon="10.29173">
        <ele>1959.99400064</ele>
        <time>2018-09-23T01:59:23.000Z</time>
      </trkpt>
      <trkpt lat="46.21366" lon="10.29167">
        <ele>1960.79260032</ele>
        <time>2018-09-23T01:59:40.986Z</time>
      </trkpt>
      <trkpt lat="46.21376" lon="10.29167">
        <ele>1962</ele>
        <time>2018-09-23T02:01:31.986Z</time>
      </trkpt>
      <trkpt lat="46.21385" lon="10.29162">
        <ele>1964</ele>
        <time>2018-09-23T02:01:44.000Z</time>
      </trkpt>
      <trkpt lat="46.21392" lon="10.29155">
        <ele>1964</ele>
        <time>2018-09-23T02:01:54.000Z</time>
      </trkpt>
      <trkpt lat="46.214" lon="10.29149">
        <ele>1964.1865092063</ele>
        <time>2018-09-23T02:02:04.000Z</time>
      </trkpt>
      <trkpt lat="46.21407" lon="10.29139">
        <ele>1966</ele>
        <time>2018-09-23T02:02:15.000Z</time>
      </trkpt>
      <trkpt lat="46.21415" lon="10.29132">
        <ele>1966.1938066473</ele>
        <time>2018-09-23T02:02:25.000Z</time>
      </trkpt>
      <trkpt lat="46.21424" lon="10.29127">
        <ele>1967</ele>
        <time>2018-09-23T02:02:35.000Z</time>
      </trkpt>
      <trkpt lat="46.21433" lon="10.29123">
        <ele>1967.1907121699</ele>
        <time>2018-09-23T02:02:44.990Z</time>
      </trkpt>
      <trkpt lat="46.2144" lon="10.29116">
        <ele>1968</ele>
        <time>2018-09-23T02:02:54.991Z</time>
      </trkpt>
      <trkpt lat="46.2145" lon="10.29112">
        <ele>1968.3931008</ele>
        <time>2018-09-23T02:03:06.991Z</time>
      </trkpt>
      <trkpt lat="46.21459" lon="10.29112">
        <ele>1969.9931008</ele>
        <time>2018-09-23T02:03:22.991Z</time>
      </trkpt>
      <trkpt lat="46.21468" lon="10.29111">
        <ele>1970.8354536931</ele>
        <time>2018-09-23T02:03:31.991Z</time>
      </trkpt>
      <trkpt lat="46.21475" lon="10.29121">
        <ele>1972.2911540096</ele>
        <time>2018-09-23T02:03:45.989Z</time>
      </trkpt>
      <trkpt lat="46.21479" lon="10.29134">
        <ele>1972.8275933761</ele>
        <time>2018-09-23T02:03:54.001Z</time>
      </trkpt>
      <trkpt lat="46.21484" lon="10.29145">
        <ele>1971.0692777648</ele>
        <time>2018-09-23T02:04:02.986Z</time>
      </trkpt>
      <trkpt lat="46.21489" lon="10.29157">
        <ele>1971.879552273</ele>
        <time>2018-09-23T02:04:11.986Z</time>
      </trkpt>
      <trkpt lat="46.21485" lon="10.29168">
        <ele>1972.49260032</ele>
        <time>2018-09-23T02:04:27.986Z</time>
      </trkpt>
      <trkpt lat="46.21486" lon="10.29182">
        <ele>1973</ele>
        <time>2018-09-23T02:04:37.990Z</time>
      </trkpt>
      <trkpt lat="46.21489" lon="10.29196">
        <ele>1972.6111776391</ele>
        <time>2018-09-23T02:04:46.991Z</time>
      </trkpt>
      <trkpt lat="46.21488" lon="10.2921">
        <ele>1972.39280128</ele>
        <time>2018-09-23T02:04:56.988Z</time>
      </trkpt>
      <trkpt lat="46.21487" lon="10.29223">
        <ele>1973</ele>
        <time>2018-09-23T02:05:05.990Z</time>
      </trkpt>
      <trkpt lat="46.21484" lon="10.29235">
        <ele>1972.8087288889</ele>
        <time>2018-09-23T02:05:14.988Z</time>
      </trkpt>
      <trkpt lat="46.21479" lon="10.29248">
        <ele>1971.9132051613</ele>
        <time>2018-09-23T02:05:24.001Z</time>
      </trkpt>
      <trkpt lat="46.21475" lon="10.29261">
        <ele>1971</ele>
        <time>2018-09-23T02:05:33.998Z</time>
      </trkpt>
      <trkpt lat="46.21472" lon="10.29275">
        <ele>1971</ele>
        <time>2018-09-23T02:05:42.990Z</time>
      </trkpt>
      <trkpt lat="46.21469" lon="10.29289">
        <ele>1972</ele>
        <time>2018-09-23T02:05:54.988Z</time>
      </trkpt>
      <trkpt lat="46.21467" lon="10.29302">
        <ele>1972.0848485397</ele>
        <time>2018-09-23T02:06:04.000Z</time>
      </trkpt>
      <trkpt lat="46.21462" lon="10.29313">
        <ele>1974</ele>
        <time>2018-09-23T02:06:25.001Z</time>
      </trkpt>
      <trkpt lat="46.21459" lon="10.29327">
        <ele>1973.9109405537</ele>
        <time>2018-09-23T02:06:33.988Z</time>
      </trkpt>
      <trkpt lat="46.21455" lon="10.29339">
        <ele>1973.1428980312</ele>
        <time>2018-09-23T02:06:41.991Z</time>
      </trkpt>
      <trkpt lat="46.21451" lon="10.29352">
        <ele>1973</ele>
        <time>2018-09-23T02:06:50.991Z</time>
      </trkpt>
      <trkpt lat="46.21445" lon="10.29362">
        <ele>1973</ele>
        <time>2018-09-23T02:06:59.996Z</time>
      </trkpt>
      <trkpt lat="46.2144" lon="10.29374">
        <ele>1973.5900300411</ele>
        <time>2018-09-23T02:07:08.988Z</time>
      </trkpt>
      <trkpt lat="46.21436" lon="10.29387">
        <ele>1974.3914658846</ele>
        <time>2018-09-23T02:07:16.999Z</time>
      </trkpt>
      <trkpt lat="46.21436" lon="10.294">
        <ele>1975.29410048</ele>
        <time>2018-09-23T02:07:26.001Z</time>
      </trkpt>
      <trkpt lat="46.21434" lon="10.29413">
        <ele>1976.19280128</ele>
        <time>2018-09-23T02:07:34.988Z</time>
      </trkpt>
      <trkpt lat="46.2143" lon="10.29426">
        <ele>1977</ele>
        <time>2018-09-23T02:07:44.988Z</time>
      </trkpt>
      <trkpt lat="46.21429" lon="10.2944">
        <ele>1977</ele>
        <time>2018-09-23T02:07:52.989Z</time>
      </trkpt>
      <trkpt lat="46.21423" lon="10.29451">
        <ele>1977</ele>
        <time>2018-09-23T02:08:01.991Z</time>
      </trkpt>
      <trkpt lat="46.21422" lon="10.29464">
        <ele>1977</ele>
        <time>2018-09-23T02:08:09.990Z</time>
      </trkpt>
      <trkpt lat="46.2142" lon="10.29477">
        <ele>1978.5740331506</ele>
        <time>2018-09-23T02:08:21.001Z</time>
      </trkpt>
      <trkpt lat="46.21419" lon="10.2949">
        <ele>1979.6898082969</ele>
        <time>2018-09-23T02:08:29.986Z</time>
      </trkpt>
      <trkpt lat="46.21415" lon="10.29504">
        <ele>1980.7936</ele>
        <time>2018-09-23T02:08:40.996Z</time>
      </trkpt>
      <trkpt lat="46.21411" lon="10.29516">
        <ele>1981</ele>
        <time>2018-09-23T02:08:51.000Z</time>
      </trkpt>
      <trkpt lat="46.21411" lon="10.2953">
        <ele>1981</ele>
        <time>2018-09-23T02:08:58.989Z</time>
      </trkpt>
      <trkpt lat="46.21408" lon="10.29544">
        <ele>1981</ele>
        <time>2018-09-23T02:09:08.989Z</time>
      </trkpt>
      <trkpt lat="46.21406" lon="10.29557">
        <ele>1981</ele>
        <time>2018-09-23T02:09:16.989Z</time>
      </trkpt>
      <trkpt lat="46.21404" lon="10.29571">
        <ele>1981</ele>
        <time>2018-09-23T02:09:25.999Z</time>
      </trkpt>
      <trkpt lat="46.214" lon="10.29584">
        <ele>1980.90709888</ele>
        <time>2018-09-23T02:09:33.989Z</time>
      </trkpt>
      <trkpt lat="46.21397" lon="10.29596">
        <ele>1980.2924383276</ele>
        <time>2018-09-23T02:09:45.999Z</time>
      </trkpt>
      <trkpt lat="46.21388" lon="10.29601">
        <ele>1981</ele>
        <time>2018-09-23T02:09:54.004Z</time>
      </trkpt>
      <trkpt lat="46.21385" lon="10.29614">
        <ele>1981</ele>
        <time>2018-09-23T02:10:01.989Z</time>
      </trkpt>
      <trkpt lat="46.21382" lon="10.29627">
        <ele>1981</ele>
        <time>2018-09-23T02:10:12.989Z</time>
      </trkpt>
      <trkpt lat="46.21383" lon="10.2964">
        <ele>1983.3393005291</ele>
        <time>2018-09-23T02:10:24.989Z</time>
      </trkpt>
      <trkpt lat="46.21378" lon="10.29651">
        <ele>1985.39280128</ele>
        <time>2018-09-23T02:10:36.988Z</time>
      </trkpt>
      <trkpt lat="46.21374" lon="10.29663">
        <ele>1986.78580224</ele>
        <time>2018-09-23T02:10:46.989Z</time>
      </trkpt>
      <trkpt lat="46.21371" lon="10.29676">
        <ele>1988.4905477503</ele>
        <time>2018-09-23T02:10:57.990Z</time>
      </trkpt>
      <trkpt lat="46.21365" lon="10.29686">
        <ele>1990.1835187298</ele>
        <time>2018-09-23T02:11:08.998Z</time>
      </trkpt>
      <trkpt lat="46.21361" lon="10.29699">
        <ele>1991</ele>
        <time>2018-09-23T02:11:16.988Z</time>
      </trkpt>
      <trkpt lat="46.21362" lon="10.29713">
        <ele>1991</ele>
        <time>2018-09-23T02:11:24.988Z</time>
      </trkpt>
      <trkpt lat="46.21362" lon="10.29727">
        <ele>1991</ele>
        <time>2018-09-23T02:11:36.991Z</time>
      </trkpt>
      <trkpt lat="46.21364" lon="10.29742">
        <ele>1991</ele>
        <time>2018-09-23T02:11:45.996Z</time>
      </trkpt>
      <trkpt lat="46.21366" lon="10.29755">
        <ele>1991.18600192</ele>
        <time>2018-09-23T02:11:53.990Z</time>
      </trkpt>
      <trkpt lat="46.21367" lon="10.29769">
        <ele>1993.1928079669</ele>
        <time>2018-09-23T02:12:04.990Z</time>
      </trkpt>
      <trkpt lat="46.21367" lon="10.29783">
        <ele>1994.3933934511</ele>
        <time>2018-09-23T02:12:17.000Z</time>
      </trkpt>
      <trkpt lat="46.21368" lon="10.29796">
        <ele>1995.3920400633</ele>
        <time>2018-09-23T02:12:27.000Z</time>
      </trkpt>
      <trkpt lat="46.21368" lon="10.2981">
        <ele>1996</ele>
        <time>2018-09-23T02:12:37.000Z</time>
      </trkpt>
      <trkpt lat="46.21368" lon="10.29824">
        <ele>1996.9821080034</ele>
        <time>2018-09-23T02:12:48.000Z</time>
      </trkpt>
      <trkpt lat="46.21367" lon="10.29838">
        <ele>1998.5909545838</ele>
        <time>2018-09-23T02:12:59.000Z</time>
      </trkpt>
      <trkpt lat="46.21364" lon="10.2985">
        <ele>1999.4900596358</ele>
        <time>2018-09-23T02:13:08.000Z</time>
      </trkpt>
      <trkpt lat="46.21361" lon="10.29863">
        <ele>2000.4883423555</ele>
        <time>2018-09-23T02:13:17.989Z</time>
      </trkpt>
      <trkpt lat="46.2136" lon="10.29876">
        <ele>2001.5763388272</ele>
        <time>2018-09-23T02:13:28.999Z</time>
      </trkpt>
      <trkpt lat="46.21361" lon="10.2989">
        <ele>2003.1511196097</ele>
        <time>2018-09-23T02:13:39.002Z</time>
      </trkpt>
      <trkpt lat="46.21361" lon="10.29903">
        <ele>2004.5895857924</ele>
        <time>2018-09-23T02:13:49.001Z</time>
      </trkpt>
      <trkpt lat="46.21362" lon="10.29916">
        <ele>2004.5116828441</ele>
        <time>2018-09-23T02:13:57.992Z</time>
      </trkpt>
      <trkpt lat="46.2136" lon="10.29929">
        <ele>2005</ele>
        <time>2018-09-23T02:14:15.989Z</time>
      </trkpt>
      <trkpt lat="46.21362" lon="10.29916">
        <ele>2005</ele>
        <time>2018-09-23T02:14:27.000Z</time>
      </trkpt>
      <trkpt lat="46.21364" lon="10.29929">
        <ele>2005.1678468582</ele>
        <time>2018-09-23T02:15:11.989Z</time>
      </trkpt>
      <trkpt lat="46.21366" lon="10.29943">
        <ele>2004.0075502128</ele>
        <time>2018-09-23T02:15:22.990Z</time>
      </trkpt>
      <trkpt lat="46.21367" lon="10.29956">
        <ele>2004.9931008</ele>
        <time>2018-09-23T02:15:32.991Z</time>
      </trkpt>
      <trkpt lat="46.21367" lon="10.2997">
        <ele>2005</ele>
        <time>2018-09-23T02:15:41.000Z</time>
      </trkpt>
      <trkpt lat="46.21368" lon="10.29983">
        <ele>2004.0157674949</ele>
        <time>2018-09-23T02:15:47.991Z</time>
      </trkpt>
      <trkpt lat="46.21366" lon="10.29998">
        <ele>2002.7073146019</ele>
        <time>2018-09-23T02:15:56.001Z</time>
      </trkpt>
      <trkpt lat="46.21368" lon="10.30012">
        <ele>2002.1838118692</ele>
        <time>2018-09-23T02:16:03.991Z</time>
      </trkpt>
      <trkpt lat="46.21368" lon="10.30026">
        <ele>2003.9607104815</ele>
        <time>2018-09-23T02:16:12.991Z</time>
      </trkpt>
      <trkpt lat="46.21372" lon="10.30039">
        <ele>2004</ele>
        <time>2018-09-23T02:16:22.991Z</time>
      </trkpt>
      <trkpt lat="46.21381" lon="10.30043">
        <ele>2004</ele>
        <time>2018-09-23T02:16:29.992Z</time>
      </trkpt>
      <trkpt lat="46.21389" lon="10.30051">
        <ele>2003.2381767442</ele>
        <time>2018-09-23T02:16:36.991Z</time>
      </trkpt>
      <trkpt lat="46.21395" lon="10.30062">
        <ele>2001.6673533884</ele>
        <time>2018-09-23T02:16:44.990Z</time>
      </trkpt>
      <trkpt lat="46.21401" lon="10.30072">
        <ele>2000</ele>
        <time>2018-09-23T02:16:55.995Z</time>
      </trkpt>
      <trkpt lat="46.21405" lon="10.30084">
        <ele>2000</ele>
        <time>2018-09-23T02:17:04.990Z</time>
      </trkpt>
      <trkpt lat="46.21408" lon="10.30098">
        <ele>2000</ele>
        <time>2018-09-23T02:17:11.990Z</time>
      </trkpt>
      <trkpt lat="46.21409" lon="10.30112">
        <ele>1998.4151693955</ele>
        <time>2018-09-23T02:17:21.000Z</time>
      </trkpt>
      <trkpt lat="46.21415" lon="10.30123">
        <ele>1996.6150288513</ele>
        <time>2018-09-23T02:17:29.991Z</time>
      </trkpt>
      <trkpt lat="46.21421" lon="10.30133">
        <ele>1996</ele>
        <time>2018-09-23T02:17:37.991Z</time>
      </trkpt>
      <trkpt lat="46.21428" lon="10.30141">
        <ele>1995.60699904</ele>
        <time>2018-09-23T02:17:46.990Z</time>
      </trkpt>
      <trkpt lat="46.21434" lon="10.30153">
        <ele>1994.41799808</ele>
        <time>2018-09-23T02:17:55.000Z</time>
      </trkpt>
      <trkpt lat="46.21441" lon="10.30162">
        <ele>1992.91889664</ele>
        <time>2018-09-23T02:17:59.997Z</time>
      </trkpt>
      <trkpt lat="46.21445" lon="10.30174">
        <ele>1992</ele>
        <time>2018-09-23T02:18:06.000Z</time>
      </trkpt>
      <trkpt lat="46.21448" lon="10.30186">
        <ele>1993.719232</ele>
        <time>2018-09-23T02:18:22.000Z</time>
      </trkpt>
      <trkpt lat="46.2145" lon="10.30199">
        <ele>1997.39400064</ele>
        <time>2018-09-23T02:18:37.000Z</time>
      </trkpt>
      <trkpt lat="46.2146" lon="10.30206">
        <ele>1997.4203741498</ele>
        <time>2018-09-23T02:18:45.990Z</time>
      </trkpt>
      <trkpt lat="46.21468" lon="10.30214">
        <ele>1996.7727009174</ele>
        <time>2018-09-23T02:18:56.991Z</time>
      </trkpt>
      <trkpt lat="46.21476" lon="10.30221">
        <ele>1998</ele>
        <time>2018-09-23T02:19:07.000Z</time>
      </trkpt>
      <trkpt lat="46.21485" lon="10.3022">
        <ele>1998</ele>
        <time>2018-09-23T02:19:09.000Z</time>
      </trkpt>
      <trkpt lat="46.21495" lon="10.30221">
        <ele>1997.0931008</ele>
        <time>2018-09-23T02:19:23.991Z</time>
      </trkpt>
      <trkpt lat="46.21504" lon="10.30223">
        <ele>1997.99260032</ele>
        <time>2018-09-23T02:19:32.986Z</time>
      </trkpt>
      <trkpt lat="46.21513" lon="10.30223">
        <ele>1998</ele>
        <time>2018-09-23T02:19:40.990Z</time>
      </trkpt>
      <trkpt lat="46.21523" lon="10.30226">
        <ele>1997.4221790852</ele>
        <time>2018-09-23T02:19:49.000Z</time>
      </trkpt>
      <trkpt lat="46.21532" lon="10.30222">
        <ele>1997</ele>
        <time>2018-09-23T02:19:56.000Z</time>
      </trkpt>
      <trkpt lat="46.21542" lon="10.3022">
        <ele>1997.29300096</ele>
        <time>2018-09-23T02:20:05.990Z</time>
      </trkpt>
      <trkpt lat="46.21552" lon="10.30221">
        <ele>1997.99260032</ele>
        <time>2018-09-23T02:20:12.986Z</time>
      </trkpt>
      <trkpt lat="46.21561" lon="10.3022">
        <ele>1998</ele>
        <time>2018-09-23T02:20:19.991Z</time>
      </trkpt>
      <trkpt lat="46.2157" lon="10.3022">
        <ele>1998</ele>
        <time>2018-09-23T02:20:30.000Z</time>
      </trkpt>
      <trkpt lat="46.21579" lon="10.30225">
        <ele>1998</ele>
        <time>2018-09-23T02:20:36.990Z</time>
      </trkpt>
      <trkpt lat="46.21586" lon="10.30235">
        <ele>1998.09300096</ele>
        <time>2018-09-23T02:20:43.990Z</time>
      </trkpt>
      <trkpt lat="46.21591" lon="10.30247">
        <ele>1998.61199872</ele>
        <time>2018-09-23T02:20:55.000Z</time>
      </trkpt>
      <trkpt lat="46.21602" lon="10.30249">
        <ele>1997.41399808</ele>
        <time>2018-09-23T02:21:00.990Z</time>
      </trkpt>
      <trkpt lat="46.2161" lon="10.30256">
        <ele>1997</ele>
        <time>2018-09-23T02:21:08.986Z</time>
      </trkpt>
      <trkpt lat="46.21616" lon="10.30265">
        <ele>1997</ele>
        <time>2018-09-23T02:21:17.990Z</time>
      </trkpt>
      <trkpt lat="46.21623" lon="10.30275">
        <ele>1997</ele>
        <time>2018-09-23T02:21:25.990Z</time>
      </trkpt>
      <trkpt lat="46.21634" lon="10.30276">
        <ele>1998.5934066637</ele>
        <time>2018-09-23T02:22:49.000Z</time>
      </trkpt>
      <trkpt lat="46.21641" lon="10.30285">
        <ele>1999.7616272868</ele>
        <time>2018-09-23T02:22:57.000Z</time>
      </trkpt>
      <trkpt lat="46.21653" lon="10.30289">
        <ele>2000.5368210853</ele>
        <time>2018-09-23T02:23:01.000Z</time>
      </trkpt>
      <trkpt lat="46.21662" lon="10.30294">
        <ele>2001.1664941467</ele>
        <time>2018-09-23T02:23:05.000Z</time>
      </trkpt>
      <trkpt lat="46.21671" lon="10.30297">
        <ele>2001.9927621024</ele>
        <time>2018-09-23T02:23:12.990Z</time>
      </trkpt>
      <trkpt lat="46.2168" lon="10.30299">
        <ele>2002</ele>
        <time>2018-09-23T02:23:22.990Z</time>
      </trkpt>
      <trkpt lat="46.2169" lon="10.30299">
        <ele>2003.98600192</ele>
        <time>2018-09-23T02:23:32.990Z</time>
      </trkpt>
      <trkpt lat="46.217" lon="10.30304">
        <ele>2004.8561847421</ele>
        <time>2018-09-23T02:23:41.990Z</time>
      </trkpt>
      <trkpt lat="46.21709" lon="10.30308">
        <ele>2005.1840249736</ele>
        <time>2018-09-23T02:23:54.990Z</time>
      </trkpt>
      <trkpt lat="46.21718" lon="10.30315">
        <ele>2006.19300096</ele>
        <time>2018-09-23T02:24:04.990Z</time>
      </trkpt>
      <trkpt lat="46.21726" lon="10.30321">
        <ele>2007.59300096</ele>
        <time>2018-09-23T02:24:18.990Z</time>
      </trkpt>
      <trkpt lat="46.21735" lon="10.30325">
        <ele>2008</ele>
        <time>2018-09-23T02:24:29.990Z</time>
      </trkpt>
      <trkpt lat="46.21744" lon="10.3033">
        <ele>2008.6926933583</ele>
        <time>2018-09-23T02:24:39.990Z</time>
      </trkpt>
      <trkpt lat="46.21753" lon="10.30334">
        <ele>2009.69300096</ele>
        <time>2018-09-23T02:24:49.990Z</time>
      </trkpt>
      <trkpt lat="46.21761" lon="10.30339">
        <ele>2010</ele>
        <time>2018-09-23T02:24:58.991Z</time>
      </trkpt>
      <trkpt lat="46.2177" lon="10.30341">
        <ele>2010.4931008</ele>
        <time>2018-09-23T02:25:07.991Z</time>
      </trkpt>
      <trkpt lat="46.2178" lon="10.30344">
        <ele>2011.4920166119</ele>
        <time>2018-09-23T02:25:17.990Z</time>
      </trkpt>
      <trkpt lat="46.21789" lon="10.30344">
        <ele>2012</ele>
        <time>2018-09-23T02:25:24.990Z</time>
      </trkpt>
      <trkpt lat="46.21799" lon="10.30344">
        <ele>2012</ele>
        <time>2018-09-23T02:25:34.991Z</time>
      </trkpt>
      <trkpt lat="46.21808" lon="10.30342">
        <ele>2012.5856578988</ele>
        <time>2018-09-23T02:25:46.000Z</time>
      </trkpt>
      <trkpt lat="46.21818" lon="10.30341">
        <ele>2014</ele>
        <time>2018-09-23T02:25:56.000Z</time>
      </trkpt>
      <trkpt lat="46.21827" lon="10.30343">
        <ele>2014.0918243376</ele>
        <time>2018-09-23T02:26:03.991Z</time>
      </trkpt>
      <trkpt lat="46.21837" lon="10.30347">
        <ele>2015</ele>
        <time>2018-09-23T02:26:14.986Z</time>
      </trkpt>
      <trkpt lat="46.21846" lon="10.30349">
        <ele>2014.910576</ele>
        <time>2018-09-23T02:26:23.990Z</time>
      </trkpt>
      <trkpt lat="46.21855" lon="10.30351">
        <ele>2014.1413452308</ele>
        <time>2018-09-23T02:26:31.990Z</time>
      </trkpt>
      <trkpt lat="46.21864" lon="10.30354">
        <ele>2014</ele>
        <time>2018-09-23T02:26:41.000Z</time>
      </trkpt>
      <trkpt lat="46.21873" lon="10.30361">
        <ele>2014</ele>
        <time>2018-09-23T02:26:49.000Z</time>
      </trkpt>
      <trkpt lat="46.21883" lon="10.30368">
        <ele>2013.6068992</ele>
        <time>2018-09-23T02:26:56.991Z</time>
      </trkpt>
      <trkpt lat="46.21892" lon="10.30368">
        <ele>2013</ele>
        <time>2018-09-23T02:27:03.990Z</time>
      </trkpt>
      <trkpt lat="46.21901" lon="10.30371">
        <ele>2013</ele>
        <time>2018-09-23T02:27:12.990Z</time>
      </trkpt>
      <trkpt lat="46.21909" lon="10.30379">
        <ele>2010.02099712</ele>
        <time>2018-09-23T02:27:22.990Z</time>
      </trkpt>
      <trkpt lat="46.21916" lon="10.30387">
        <ele>2007.4957972748</ele>
        <time>2018-09-23T02:27:32.000Z</time>
      </trkpt>
      <trkpt lat="46.21924" lon="10.30394">
        <ele>2005.6609238875</ele>
        <time>2018-09-23T02:27:39.990Z</time>
      </trkpt>
      <trkpt lat="46.21933" lon="10.30398">
        <ele>2003.8187246933</ele>
        <time>2018-09-23T02:27:48.990Z</time>
      </trkpt>
      <trkpt lat="46.21943" lon="10.30398">
        <ele>2002.0180716698</ele>
        <time>2018-09-23T02:27:57.990Z</time>
      </trkpt>
      <trkpt lat="46.21952" lon="10.304">
        <ele>2000.60619904</ele>
        <time>2018-09-23T02:28:06.998Z</time>
      </trkpt>
      <trkpt lat="46.21962" lon="10.30399">
        <ele>1999.7068992</ele>
        <time>2018-09-23T02:28:15.991Z</time>
      </trkpt>
      <trkpt lat="46.21972" lon="10.304">
        <ele>1998.61399808</ele>
        <time>2018-09-23T02:28:24.990Z</time>
      </trkpt>
      <trkpt lat="46.21982" lon="10.304">
        <ele>1997.01479936</ele>
        <time>2018-09-23T02:28:32.986Z</time>
      </trkpt>
      <trkpt lat="46.2199" lon="10.30396">
        <ele>1992.6296273518</ele>
        <time>2018-09-23T02:28:48.990Z</time>
      </trkpt>
      <trkpt lat="46.21996" lon="10.30386">
        <ele>1989.6152302142</ele>
        <time>2018-09-23T02:29:05.000Z</time>
      </trkpt>
      <trkpt lat="46.22003" lon="10.30378">
        <ele>1987.4302313178</ele>
        <time>2018-09-23T02:29:16.000Z</time>
      </trkpt>
      <trkpt lat="46.22012" lon="10.30375">
        <ele>1984.4256185124</ele>
        <time>2018-09-23T02:29:31.000Z</time>
      </trkpt>
      <trkpt lat="46.22021" lon="10.30381">
        <ele>1981.90599936</ele>
        <time>2018-09-23T02:29:44.000Z</time>
      </trkpt>
      <trkpt lat="46.22031" lon="10.30378">
        <ele>1980.5354944</ele>
        <time>2018-09-23T02:29:53.989Z</time>
      </trkpt>
      <trkpt lat="46.2204" lon="10.30379">
        <ele>1975.30709888</ele>
        <time>2018-09-23T02:30:19.989Z</time>
      </trkpt>
      <trkpt lat="46.2205" lon="10.3038">
        <ele>1971.9133273926</ele>
        <time>2018-09-23T02:31:04.000Z</time>
      </trkpt>
      <trkpt lat="46.22059" lon="10.30379">
        <ele>1971.1677540109</ele>
        <time>2018-09-23T02:31:12.000Z</time>
      </trkpt>
      <trkpt lat="46.22068" lon="10.30376">
        <ele>1969.4687960916</ele>
        <time>2018-09-23T02:31:20.989Z</time>
      </trkpt>
      <trkpt lat="46.22077" lon="10.30374">
        <ele>1968</ele>
        <time>2018-09-23T02:31:42.991Z</time>
      </trkpt>
      <trkpt lat="46.22084" lon="10.30365">
        <ele>1967.11799808</ele>
        <time>2018-09-23T02:31:56.000Z</time>
      </trkpt>
      <trkpt lat="46.22093" lon="10.30364">
        <ele>1965.59290112</ele>
        <time>2018-09-23T02:32:08.989Z</time>
      </trkpt>
      <trkpt lat="46.22102" lon="10.30368">
        <ele>1968.1850617561</ele>
        <time>2018-09-23T02:32:23.989Z</time>
      </trkpt>
      <trkpt lat="46.221" lon="10.30381">
        <ele>1971.38600192</ele>
        <time>2018-09-23T02:32:49.990Z</time>
      </trkpt>
      <trkpt lat="46.22106" lon="10.30392">
        <ele>1973.8025849367</ele>
        <time>2018-09-23T02:33:07.097Z</time>
      </trkpt>
      <trkpt lat="46.22115" lon="10.30394">
        <ele>1975</ele>
        <time>2018-09-23T02:33:18.000Z</time>
      </trkpt>
      <trkpt lat="46.22124" lon="10.30396">
        <ele>1975</ele>
        <time>2018-09-23T02:33:28.000Z</time>
      </trkpt>
      <trkpt lat="46.22133" lon="10.30399">
        <ele>1975</ele>
        <time>2018-09-23T02:33:38.000Z</time>
      </trkpt>
      <trkpt lat="46.22143" lon="10.30401">
        <ele>1975</ele>
        <time>2018-09-23T02:33:48.000Z</time>
      </trkpt>
      <trkpt lat="46.22152" lon="10.30405">
        <ele>1974.21400064</ele>
        <time>2018-09-23T02:33:57.000Z</time>
      </trkpt>
      <trkpt lat="46.2216" lon="10.30412">
        <ele>1972.7067067452</ele>
        <time>2018-09-23T02:34:06.000Z</time>
      </trkpt>
      <trkpt lat="46.2217" lon="10.30418">
        <ele>1971.80709888</ele>
        <time>2018-09-23T02:34:14.989Z</time>
      </trkpt>
      <trkpt lat="46.22178" lon="10.30423">
        <ele>1971.00709888</ele>
        <time>2018-09-23T02:34:22.989Z</time>
      </trkpt>
      <trkpt lat="46.22187" lon="10.30429">
        <ele>1971</ele>
        <time>2018-09-23T02:34:31.989Z</time>
      </trkpt>
      <trkpt lat="46.22195" lon="10.30438">
        <ele>1970.222687121</ele>
        <time>2018-09-23T02:34:40.989Z</time>
      </trkpt>
      <trkpt lat="46.22202" lon="10.30446">
        <ele>1970.99590016</ele>
        <time>2018-09-23T02:34:53.019Z</time>
      </trkpt>
      <trkpt lat="46.22211" lon="10.30454">
        <ele>1971</ele>
        <time>2018-09-23T02:35:19.989Z</time>
      </trkpt>
      <trkpt lat="46.2222" lon="10.30458">
        <ele>1971</ele>
        <time>2018-09-23T02:35:30.999Z</time>
      </trkpt>
      <trkpt lat="46.22229" lon="10.30462">
        <ele>1972.581473681</ele>
        <time>2018-09-23T02:35:40.999Z</time>
      </trkpt>
      <trkpt lat="46.22236" lon="10.3047">
        <ele>1973</ele>
        <time>2018-09-23T02:35:51.000Z</time>
      </trkpt>
      <trkpt lat="46.22244" lon="10.30478">
        <ele>1973</ele>
        <time>2018-09-23T02:35:58.989Z</time>
      </trkpt>
      <trkpt lat="46.22253" lon="10.30481">
        <ele>1973.29400064</ele>
        <time>2018-09-23T02:36:06.000Z</time>
      </trkpt>
      <trkpt lat="46.22261" lon="10.30489">
        <ele>1974</ele>
        <time>2018-09-23T02:36:14.990Z</time>
      </trkpt>
      <trkpt lat="46.2227" lon="10.30497">
        <ele>1973.9116580454</ele>
        <time>2018-09-23T02:36:23.989Z</time>
      </trkpt>
      <trkpt lat="46.22278" lon="10.30504">
        <ele>1973.0071345597</ele>
        <time>2018-09-23T02:36:32.989Z</time>
      </trkpt>
      <trkpt lat="46.22287" lon="10.30508">
        <ele>1974</ele>
        <time>2018-09-23T02:36:43.990Z</time>
      </trkpt>
      <trkpt lat="46.22297" lon="10.3051">
        <ele>1974</ele>
        <time>2018-09-23T02:36:52.989Z</time>
      </trkpt>
      <trkpt lat="46.22305" lon="10.30519">
        <ele>1974</ele>
        <time>2018-09-23T02:37:04.000Z</time>
      </trkpt>
      <trkpt lat="46.22309" lon="10.30531">
        <ele>1974</ele>
        <time>2018-09-23T02:37:11.989Z</time>
      </trkpt>
      <trkpt lat="46.2231" lon="10.30545">
        <ele>1973.00699904</ele>
        <time>2018-09-23T02:37:22.990Z</time>
      </trkpt>
      <trkpt lat="46.22317" lon="10.30553">
        <ele>1971.72129664</ele>
        <time>2018-09-23T02:37:33.989Z</time>
      </trkpt>
      <trkpt lat="46.22327" lon="10.30558">
        <ele>1969.02129664</ele>
        <time>2018-09-23T02:37:42.989Z</time>
      </trkpt>
      <trkpt lat="46.22335" lon="10.30565">
        <ele>1964.82399744</ele>
        <time>2018-09-23T02:37:56.000Z</time>
      </trkpt>
      <trkpt lat="46.22344" lon="10.30567">
        <ele>1961.40709888</ele>
        <time>2018-09-23T02:38:08.989Z</time>
      </trkpt>
      <trkpt lat="46.22354" lon="10.30569">
        <ele>1959.5197792418</ele>
        <time>2018-09-23T02:38:17.999Z</time>
      </trkpt>
      <trkpt lat="46.22362" lon="10.30576">
        <ele>1955.9198173404</ele>
        <time>2018-09-23T02:38:29.997Z</time>
      </trkpt>
      <trkpt lat="46.2237" lon="10.30582">
        <ele>1954.0065654992</ele>
        <time>2018-09-23T02:40:22.995Z</time>
      </trkpt>
      <trkpt lat="46.2238" lon="10.30579">
        <ele>1952.7062933486</ele>
        <time>2018-09-23T02:40:36.000Z</time>
      </trkpt>
      <trkpt lat="46.2239" lon="10.30579">
        <ele>1952.00699332</ele>
        <time>2018-09-23T02:40:43.000Z</time>
      </trkpt>
      <trkpt lat="46.22399" lon="10.30577">
        <ele>1950.4608349732</ele>
        <time>2018-09-23T02:40:50.989Z</time>
      </trkpt>
      <trkpt lat="46.22409" lon="10.30577">
        <ele>1948.0144310198</ele>
        <time>2018-09-23T02:41:02.990Z</time>
      </trkpt>
      <trkpt lat="46.22417" lon="10.30585">
        <ele>1946.4233858064</ele>
        <time>2018-09-23T02:41:16.000Z</time>
      </trkpt>
      <trkpt lat="46.22426" lon="10.30584">
        <ele>1942.61709952</ele>
        <time>2018-09-23T02:41:31.003Z</time>
      </trkpt>
      <trkpt lat="46.22435" lon="10.30584">
        <ele>1938.61439744</ele>
        <time>2018-09-23T02:41:44.988Z</time>
      </trkpt>
      <trkpt lat="46.22444" lon="10.30579">
        <ele>1936.9089226277</ele>
        <time>2018-09-23T02:41:53.999Z</time>
      </trkpt>
      <trkpt lat="46.22454" lon="10.30578">
        <ele>1936</ele>
        <time>2018-09-23T02:42:04.000Z</time>
      </trkpt>
      <trkpt lat="46.22463" lon="10.30576">
        <ele>1936</ele>
        <time>2018-09-23T02:42:11.301Z</time>
      </trkpt>
      <trkpt lat="46.22472" lon="10.30573">
        <ele>1934.0141994228</ele>
        <time>2018-09-23T02:42:23.000Z</time>
      </trkpt>
      <trkpt lat="46.22478" lon="10.30563">
        <ele>1932.7080431514</ele>
        <time>2018-09-23T02:42:36.000Z</time>
      </trkpt>
      <trkpt lat="46.22487" lon="10.30556">
        <ele>1931.4100693366</ele>
        <time>2018-09-23T02:42:48.988Z</time>
      </trkpt>
      <trkpt lat="46.22495" lon="10.30547">
        <ele>1930.707492788</ele>
        <time>2018-09-23T02:42:55.988Z</time>
      </trkpt>
      <trkpt lat="46.22502" lon="10.30539">
        <ele>1930.7878612658</ele>
        <time>2018-09-23T02:43:10.988Z</time>
      </trkpt>
      <trkpt lat="46.22508" lon="10.30528">
        <ele>1931</ele>
        <time>2018-09-23T02:43:23.988Z</time>
      </trkpt>
      <trkpt lat="46.22511" lon="10.30516">
        <ele>1931.39280128</ele>
        <time>2018-09-23T02:43:36.988Z</time>
      </trkpt>
      <trkpt lat="46.22517" lon="10.30505">
        <ele>1933.9698438095</ele>
        <time>2018-09-23T02:43:52.988Z</time>
      </trkpt>
      <trkpt lat="46.22524" lon="10.30497">
        <ele>1932.0362892008</ele>
        <time>2018-09-23T02:44:02.988Z</time>
      </trkpt>
      <trkpt lat="46.2253" lon="10.30488">
        <ele>1933</ele>
        <time>2018-09-23T02:44:15.000Z</time>
      </trkpt>
      <trkpt lat="46.22538" lon="10.30479">
        <ele>1932.1072</ele>
        <time>2018-09-23T02:44:31.988Z</time>
      </trkpt>
      <trkpt lat="46.22545" lon="10.30469">
        <ele>1931.80579968</ele>
        <time>2018-09-23T02:44:45.002Z</time>
      </trkpt>
      <trkpt lat="46.22553" lon="10.30462">
        <ele>1931.00719872</ele>
        <time>2018-09-23T02:44:52.988Z</time>
      </trkpt>
      <trkpt lat="46.22561" lon="10.30455">
        <ele>1930.00719872</ele>
        <time>2018-09-23T02:45:02.988Z</time>
      </trkpt>
      <trkpt lat="46.22569" lon="10.30448">
        <ele>1930.9879603697</ele>
        <time>2018-09-23T02:45:12.989Z</time>
      </trkpt>
      <trkpt lat="46.22578" lon="10.30449">
        <ele>1931.8923628308</ele>
        <time>2018-09-23T02:45:21.989Z</time>
      </trkpt>
      <trkpt lat="46.22588" lon="10.30452">
        <ele>1931.7240232783</ele>
        <time>2018-09-23T02:45:33.989Z</time>
      </trkpt>
      <trkpt lat="46.22597" lon="10.30455">
        <ele>1928.6247481838</ele>
        <time>2018-09-23T02:45:44.000Z</time>
      </trkpt>
      <trkpt lat="46.22603" lon="10.30465">
        <ele>1925.0319361074</ele>
        <time>2018-09-23T02:45:53.000Z</time>
      </trkpt>
      <trkpt lat="46.22611" lon="10.30473">
        <ele>1921.8144</ele>
        <time>2018-09-23T02:46:03.988Z</time>
      </trkpt>
      <trkpt lat="46.2262" lon="10.30475">
        <ele>1919.61439744</ele>
        <time>2018-09-23T02:46:14.988Z</time>
      </trkpt>
      <trkpt lat="46.2263" lon="10.30475">
        <ele>1917.4166503865</ele>
        <time>2018-09-23T02:46:26.003Z</time>
      </trkpt>
      <trkpt lat="46.22639" lon="10.30478">
        <ele>1915.4106956955</ele>
        <time>2018-09-23T02:46:38.990Z</time>
      </trkpt>
      <trkpt lat="46.22647" lon="10.30484">
        <ele>1915</ele>
        <time>2018-09-23T02:46:47.988Z</time>
      </trkpt>
      <trkpt lat="46.22638" lon="10.30486">
        <ele>1914</ele>
        <time>2018-09-23T02:47:43.002Z</time>
      </trkpt>
      <trkpt lat="46.22647" lon="10.30489">
        <ele>1914</ele>
        <time>2018-09-23T02:48:03.989Z</time>
      </trkpt>
      <trkpt lat="46.22658" lon="10.30491">
        <ele>1915</ele>
        <time>2018-09-23T02:49:13.987Z</time>
      </trkpt>
      <trkpt lat="46.22667" lon="10.30491">
        <ele>1915</ele>
        <time>2018-09-23T02:49:20.989Z</time>
      </trkpt>
      <trkpt lat="46.22677" lon="10.3049">
        <ele>1915</ele>
        <time>2018-09-23T02:49:30.989Z</time>
      </trkpt>
      <trkpt lat="46.22684" lon="10.30497">
        <ele>1915</ele>
        <time>2018-09-23T02:49:39.988Z</time>
      </trkpt>
      <trkpt lat="46.2269" lon="10.30508">
        <ele>1915</ele>
        <time>2018-09-23T02:49:52.000Z</time>
      </trkpt>
      <trkpt lat="46.22696" lon="10.30518">
        <ele>1915</ele>
        <time>2018-09-23T02:50:00.989Z</time>
      </trkpt>
      <trkpt lat="46.22704" lon="10.30526">
        <ele>1915.7901194667</ele>
        <time>2018-09-23T02:50:10.987Z</time>
      </trkpt>
      <trkpt lat="46.22711" lon="10.30534">
        <ele>1916</ele>
        <time>2018-09-23T02:50:20.989Z</time>
      </trkpt>
      <trkpt lat="46.22719" lon="10.30542">
        <ele>1916</ele>
        <time>2018-09-23T02:50:31.989Z</time>
      </trkpt>
      <trkpt lat="46.22727" lon="10.30548">
        <ele>1916</ele>
        <time>2018-09-23T02:50:39.989Z</time>
      </trkpt>
      <trkpt lat="46.22735" lon="10.30553">
        <ele>1916</ele>
        <time>2018-09-23T02:50:47.989Z</time>
      </trkpt>
      <trkpt lat="46.22743" lon="10.30561">
        <ele>1915.6079083319</ele>
        <time>2018-09-23T02:50:56.987Z</time>
      </trkpt>
      <trkpt lat="46.22753" lon="10.30563">
        <ele>1915</ele>
        <time>2018-09-23T02:51:06.987Z</time>
      </trkpt>
      <trkpt lat="46.22761" lon="10.3057">
        <ele>1915</ele>
        <time>2018-09-23T02:51:16.987Z</time>
      </trkpt>
      <trkpt lat="46.22769" lon="10.30577">
        <ele>1915.7516147312</ele>
        <time>2018-09-23T02:51:26.987Z</time>
      </trkpt>
      <trkpt lat="46.22775" lon="10.30588">
        <ele>1917</ele>
        <time>2018-09-23T02:51:51.987Z</time>
      </trkpt>
      <trkpt lat="46.22779" lon="10.30601">
        <ele>1917</ele>
        <time>2018-09-23T02:52:02.000Z</time>
      </trkpt>
      <trkpt lat="46.22784" lon="10.30612">
        <ele>1917</ele>
        <time>2018-09-23T02:52:10.989Z</time>
      </trkpt>
      <trkpt lat="46.22792" lon="10.3062">
        <ele>1917</ele>
        <time>2018-09-23T02:52:20.987Z</time>
      </trkpt>
      <trkpt lat="46.228" lon="10.30624">
        <ele>1918.5392226552</ele>
        <time>2018-09-23T02:52:30.987Z</time>
      </trkpt>
      <trkpt lat="46.22809" lon="10.3063">
        <ele>1919</ele>
        <time>2018-09-23T02:52:37.987Z</time>
      </trkpt>
      <trkpt lat="46.22816" lon="10.30638">
        <ele>1918.6111882068</ele>
        <time>2018-09-23T02:52:46.987Z</time>
      </trkpt>
      <trkpt lat="46.22823" lon="10.30649">
        <ele>1917.4262622554</ele>
        <time>2018-09-23T02:52:56.000Z</time>
      </trkpt>
      <trkpt lat="46.22832" lon="10.30655">
        <ele>1915.21199872</ele>
        <time>2018-09-23T02:53:07.000Z</time>
      </trkpt>
      <trkpt lat="46.2284" lon="10.30661">
        <ele>1913.8090909323</ele>
        <time>2018-09-23T02:53:14.971Z</time>
      </trkpt>
      <trkpt lat="46.2285" lon="10.3066">
        <ele>1913.0082924995</ele>
        <time>2018-09-23T02:53:22.987Z</time>
      </trkpt>
      <trkpt lat="46.22858" lon="10.30668">
        <ele>1913</ele>
        <time>2018-09-23T02:53:31.986Z</time>
      </trkpt>
      <trkpt lat="46.22868" lon="10.30674">
        <ele>1913</ele>
        <time>2018-09-23T02:53:39.986Z</time>
      </trkpt>
      <trkpt lat="46.22873" lon="10.30685">
        <ele>1913</ele>
        <time>2018-09-23T02:53:47.986Z</time>
      </trkpt>
      <trkpt lat="46.22875" lon="10.30698">
        <ele>1913.59159936</ele>
        <time>2018-09-23T02:53:58.986Z</time>
      </trkpt>
      <trkpt lat="46.22884" lon="10.307">
        <ele>1914</ele>
        <time>2018-09-23T02:54:07.000Z</time>
      </trkpt>
      <trkpt lat="46.22893" lon="10.30705">
        <ele>1914</ele>
        <time>2018-09-23T02:54:17.986Z</time>
      </trkpt>
      <trkpt lat="46.22902" lon="10.30703">
        <ele>1915</ele>
        <time>2018-09-23T02:54:37.000Z</time>
      </trkpt>
      <trkpt lat="46.22912" lon="10.307">
        <ele>1915</ele>
        <time>2018-09-23T02:54:49.000Z</time>
      </trkpt>
      <trkpt lat="46.22922" lon="10.30699">
        <ele>1912.3212103895</ele>
        <time>2018-09-23T02:55:02.000Z</time>
      </trkpt>
      <trkpt lat="46.22931" lon="10.30698">
        <ele>1911</ele>
        <time>2018-09-23T02:55:15.002Z</time>
      </trkpt>
      <trkpt lat="46.22939" lon="10.30693">
        <ele>1910.80599936</ele>
        <time>2018-09-23T02:55:25.000Z</time>
      </trkpt>
      <trkpt lat="46.22949" lon="10.30692">
        <ele>1910</ele>
        <time>2018-09-23T02:55:33.987Z</time>
      </trkpt>
      <trkpt lat="46.22959" lon="10.30696">
        <ele>1910</ele>
        <time>2018-09-23T02:55:41.988Z</time>
      </trkpt>
      <trkpt lat="46.22968" lon="10.30701">
        <ele>1909.4259414226</ele>
        <time>2018-09-23T02:55:48.998Z</time>
      </trkpt>
      <trkpt lat="46.22977" lon="10.30704">
        <ele>1909</ele>
        <time>2018-09-23T02:56:00.000Z</time>
      </trkpt>
      <trkpt lat="46.22986" lon="10.30706">
        <ele>1909</ele>
        <time>2018-09-23T02:56:12.000Z</time>
      </trkpt>
      <trkpt lat="46.22995" lon="10.307">
        <ele>1909</ele>
        <time>2018-09-23T02:56:22.000Z</time>
      </trkpt>
      <trkpt lat="46.23004" lon="10.30702">
        <ele>1906.41199872</ele>
        <time>2018-09-23T02:56:36.000Z</time>
      </trkpt>
      <trkpt lat="46.23013" lon="10.30705">
        <ele>1904.4147835383</ele>
        <time>2018-09-23T02:56:45.989Z</time>
      </trkpt>
      <trkpt lat="46.23023" lon="10.30712">
        <ele>1901.8198196467</ele>
        <time>2018-09-23T02:56:57.000Z</time>
      </trkpt>
      <trkpt lat="46.23031" lon="10.30709">
        <ele>1900.0219214625</ele>
        <time>2018-09-23T02:57:02.987Z</time>
      </trkpt>
      <trkpt lat="46.2304" lon="10.30712">
        <ele>1900.80739968</ele>
        <time>2018-09-23T02:57:14.986Z</time>
      </trkpt>
      <trkpt lat="46.2305" lon="10.30719">
        <ele>1900.00599936</ele>
        <time>2018-09-23T02:57:23.000Z</time>
      </trkpt>
      <trkpt lat="46.23057" lon="10.30726">
        <ele>1898.0179455177</ele>
        <time>2018-09-23T02:57:33.000Z</time>
      </trkpt>
      <trkpt lat="46.23067" lon="10.30731">
        <ele>1897.007120243</ele>
        <time>2018-09-23T02:57:42.989Z</time>
      </trkpt>
      <trkpt lat="46.23076" lon="10.30735">
        <ele>1896.1109349593</ele>
        <time>2018-09-23T02:57:52.004Z</time>
      </trkpt>
      <trkpt lat="46.23079" lon="10.30747">
        <ele>1895.41139968</ele>
        <time>2018-09-23T02:58:06.003Z</time>
      </trkpt>
      <trkpt lat="46.23088" lon="10.30755">
        <ele>1893.80709888</ele>
        <time>2018-09-23T02:58:14.989Z</time>
      </trkpt>
      <trkpt lat="46.23096" lon="10.30761">
        <ele>1893</ele>
        <time>2018-09-23T02:58:23.999Z</time>
      </trkpt>
      <trkpt lat="46.23105" lon="10.30768">
        <ele>1893</ele>
        <time>2018-09-23T02:58:31.987Z</time>
      </trkpt>
      <trkpt lat="46.23113" lon="10.30775">
        <ele>1893.9926781922</ele>
        <time>2018-09-23T02:58:42.987Z</time>
      </trkpt>
      <trkpt lat="46.23121" lon="10.30784">
        <ele>1893.79609984</ele>
        <time>2018-09-23T02:58:55.099Z</time>
      </trkpt>
      <trkpt lat="46.23129" lon="10.3078">
        <ele>1893</ele>
        <time>2018-09-23T02:59:05.999Z</time>
      </trkpt>
      <trkpt lat="46.23138" lon="10.30776">
        <ele>1891.72070144</ele>
        <time>2018-09-23T02:59:24.001Z</time>
      </trkpt>
      <trkpt lat="46.23147" lon="10.30775">
        <ele>1888.81400064</ele>
        <time>2018-09-23T02:59:34.000Z</time>
      </trkpt>
      <trkpt lat="46.23142" lon="10.30763">
        <ele>1884.8662796899</ele>
        <time>2018-09-23T03:00:12.000Z</time>
      </trkpt>
      <trkpt lat="46.23137" lon="10.30752">
        <ele>1885</ele>
        <time>2018-09-23T03:00:17.000Z</time>
      </trkpt>
      <trkpt lat="46.23145" lon="10.30761">
        <ele>1884</ele>
        <time>2018-09-23T03:00:35.000Z</time>
      </trkpt>
      <trkpt lat="46.23152" lon="10.30773">
        <ele>1884</ele>
        <time>2018-09-23T03:00:46.000Z</time>
      </trkpt>
      <trkpt lat="46.23161" lon="10.30769">
        <ele>1884.03019776</ele>
        <time>2018-09-23T03:02:27.989Z</time>
      </trkpt>
      <trkpt lat="46.2317" lon="10.30768">
        <ele>1879.8233767928</ele>
        <time>2018-09-23T03:02:46.986Z</time>
      </trkpt>
      <trkpt lat="46.2318" lon="10.30765">
        <ele>1876.2192184689</ele>
        <time>2018-09-23T03:02:59.000Z</time>
      </trkpt>
      <trkpt lat="46.23189" lon="10.30762">
        <ele>1873.81199872</ele>
        <time>2018-09-23T03:03:09.000Z</time>
      </trkpt>
      <trkpt lat="46.23199" lon="10.30762">
        <ele>1871.5382784449</ele>
        <time>2018-09-23T03:03:17.986Z</time>
      </trkpt>
      <trkpt lat="46.23208" lon="10.3076">
        <ele>1869.614155588</ele>
        <time>2018-09-23T03:03:26.986Z</time>
      </trkpt>
      <trkpt lat="46.23217" lon="10.30757">
        <ele>1868.3062943716</ele>
        <time>2018-09-23T03:03:40.004Z</time>
      </trkpt>
      <trkpt lat="46.23226" lon="10.30757">
        <ele>1868</ele>
        <time>2018-09-23T03:03:50.987Z</time>
      </trkpt>
      <trkpt lat="46.23233" lon="10.30749">
        <ele>1865.6304790438</ele>
        <time>2018-09-23T03:04:01.000Z</time>
      </trkpt>
      <trkpt lat="46.23242" lon="10.30743">
        <ele>1864.8295693336</ele>
        <time>2018-09-23T03:04:15.000Z</time>
      </trkpt>
      <trkpt lat="46.23249" lon="10.30733">
        <ele>1863.9079079374</ele>
        <time>2018-09-23T03:04:24.000Z</time>
      </trkpt>
      <trkpt lat="46.23258" lon="10.3073">
        <ele>1862.80710016</ele>
        <time>2018-09-23T03:04:34.999Z</time>
      </trkpt>
      <trkpt lat="46.23265" lon="10.3072">
        <ele>1861.1292558422</ele>
        <time>2018-09-23T03:04:45.987Z</time>
      </trkpt>
      <trkpt lat="46.23273" lon="10.30712">
        <ele>1857.6156932737</ele>
        <time>2018-09-23T03:05:00.000Z</time>
      </trkpt>
      <trkpt lat="46.23281" lon="10.30703">
        <ele>1856.01199872</ele>
        <time>2018-09-23T03:05:08.000Z</time>
      </trkpt>
      <trkpt lat="46.23291" lon="10.30705">
        <ele>1854.4155060577</ele>
        <time>2018-09-23T03:05:16.000Z</time>
      </trkpt>
      <trkpt lat="46.23298" lon="10.30698">
        <ele>1852.0190957929</ele>
        <time>2018-09-23T03:05:28.000Z</time>
      </trkpt>
      <trkpt lat="46.23306" lon="10.3069">
        <ele>1850.12370048</ele>
        <time>2018-09-23T03:05:35.991Z</time>
      </trkpt>
      <trkpt lat="46.23315" lon="10.30688">
        <ele>1847.61400064</ele>
        <time>2018-09-23T03:05:45.000Z</time>
      </trkpt>
      <trkpt lat="46.23323" lon="10.30679">
        <ele>1845.8092888538</ele>
        <time>2018-09-23T03:05:55.000Z</time>
      </trkpt>
      <trkpt lat="46.23332" lon="10.30671">
        <ele>1845</ele>
        <time>2018-09-23T03:06:08.990Z</time>
      </trkpt>
      <trkpt lat="46.23341" lon="10.30666">
        <ele>1845</ele>
        <time>2018-09-23T03:06:19.000Z</time>
      </trkpt>
      <trkpt lat="46.23351" lon="10.30662">
        <ele>1844.4229385419</ele>
        <time>2018-09-23T03:06:25.988Z</time>
      </trkpt>
      <trkpt lat="46.23363" lon="10.30662">
        <ele>1842.607569584</ele>
        <time>2018-09-23T03:06:37.000Z</time>
      </trkpt>
      <trkpt lat="46.2337" lon="10.30652">
        <ele>1841.9139282815</ele>
        <time>2018-09-23T03:06:43.959Z</time>
      </trkpt>
      <trkpt lat="46.2338" lon="10.30645">
        <ele>1841.1082165023</ele>
        <time>2018-09-23T03:06:52.000Z</time>
      </trkpt>
      <trkpt lat="46.23389" lon="10.30642">
        <ele>1840.3077145059</ele>
        <time>2018-09-23T03:06:59.989Z</time>
      </trkpt>
      <trkpt lat="46.23399" lon="10.30643">
        <ele>1840</ele>
        <time>2018-09-23T03:07:07.988Z</time>
      </trkpt>
      <trkpt lat="46.2341" lon="10.30646">
        <ele>1840</ele>
        <time>2018-09-23T03:07:21.099Z</time>
      </trkpt>
      <trkpt lat="46.23419" lon="10.30648">
        <ele>1838.2140151806</ele>
        <time>2018-09-23T03:07:46.996Z</time>
      </trkpt>
      <trkpt lat="46.23428" lon="10.30649">
        <ele>1835.2348190476</ele>
        <time>2018-09-23T03:07:58.991Z</time>
      </trkpt>
      <trkpt lat="46.23437" lon="10.30646">
        <ele>1833.232648373</ele>
        <time>2018-09-23T03:08:10.990Z</time>
      </trkpt>
      <trkpt lat="46.23447" lon="10.30642">
        <ele>1832.2357072154</ele>
        <time>2018-09-23T03:08:20.990Z</time>
      </trkpt>
      <trkpt lat="46.23456" lon="10.30635">
        <ele>1829.9472210005</ele>
        <time>2018-09-23T03:08:29.991Z</time>
      </trkpt>
      <trkpt lat="46.23462" lon="10.30626">
        <ele>1826.31799808</ele>
        <time>2018-09-23T03:08:42.000Z</time>
      </trkpt>
      <trkpt lat="46.23471" lon="10.3062">
        <ele>1826</ele>
        <time>2018-09-23T03:08:49.000Z</time>
      </trkpt>
      <trkpt lat="46.2348" lon="10.30619">
        <ele>1824</ele>
        <time>2018-09-23T03:09:09.987Z</time>
      </trkpt>
      <trkpt lat="46.23489" lon="10.30623">
        <ele>1824</ele>
        <time>2018-09-23T03:10:31.000Z</time>
      </trkpt>
      <trkpt lat="46.23499" lon="10.30621">
        <ele>1823.5311399895</ele>
        <time>2018-09-23T03:10:37.987Z</time>
      </trkpt>
      <trkpt lat="46.23509" lon="10.30619">
        <ele>1822.61480192</ele>
        <time>2018-09-23T03:10:44.996Z</time>
      </trkpt>
      <trkpt lat="46.23518" lon="10.30618">
        <ele>1821.01580032</ele>
        <time>2018-09-23T03:10:52.991Z</time>
      </trkpt>
      <trkpt lat="46.23527" lon="10.30615">
        <ele>1821</ele>
        <time>2018-09-23T03:10:59.996Z</time>
      </trkpt>
      <trkpt lat="46.23538" lon="10.30616">
        <ele>1820.402694389</ele>
        <time>2018-09-23T03:11:09.095Z</time>
      </trkpt>
      <trkpt lat="46.23547" lon="10.30609">
        <ele>1819.2098390361</ele>
        <time>2018-09-23T03:11:21.000Z</time>
      </trkpt>
      <trkpt lat="46.23554" lon="10.30619">
        <ele>1817.2963675433</ele>
        <time>2018-09-23T03:11:32.000Z</time>
      </trkpt>
      <trkpt lat="46.23561" lon="10.30611">
        <ele>1816.3271678419</ele>
        <time>2018-09-23T03:11:39.989Z</time>
      </trkpt>
      <trkpt lat="46.23569" lon="10.30602">
        <ele>1815.7130479681</ele>
        <time>2018-09-23T03:11:46.001Z</time>
      </trkpt>
      <trkpt lat="46.23574" lon="10.3059">
        <ele>1814.8151510724</ele>
        <time>2018-09-23T03:11:54.990Z</time>
      </trkpt>
      <trkpt lat="46.23582" lon="10.30582">
        <ele>1813.8161896739</ele>
        <time>2018-09-23T03:12:04.990Z</time>
      </trkpt>
      <trkpt lat="46.23591" lon="10.30581">
        <ele>1813.149428328</ele>
        <time>2018-09-23T03:12:11.991Z</time>
      </trkpt>
      <trkpt lat="46.23601" lon="10.30583">
        <ele>1812</ele>
        <time>2018-09-23T03:12:25.995Z</time>
      </trkpt>
      <trkpt lat="46.2361" lon="10.30587">
        <ele>1812</ele>
        <time>2018-09-23T03:12:32.986Z</time>
      </trkpt>
      <trkpt lat="46.23618" lon="10.30595">
        <ele>1812</ele>
        <time>2018-09-23T03:12:38.989Z</time>
      </trkpt>
      <trkpt lat="46.23627" lon="10.30602">
        <ele>1811.7109764225</ele>
        <time>2018-09-23T03:12:46.000Z</time>
      </trkpt>
      <trkpt lat="46.23637" lon="10.30606">
        <ele>1810.6141845858</ele>
        <time>2018-09-23T03:12:54.991Z</time>
      </trkpt>
      <trkpt lat="46.23647" lon="10.30606">
        <ele>1809.0167844794</ele>
        <time>2018-09-23T03:13:02.986Z</time>
      </trkpt>
      <trkpt lat="46.23657" lon="10.30605">
        <ele>1809</ele>
        <time>2018-09-23T03:13:10.995Z</time>
      </trkpt>
      <trkpt lat="46.23666" lon="10.30606">
        <ele>1809</ele>
        <time>2018-09-23T03:13:18.990Z</time>
      </trkpt>
      <trkpt lat="46.23676" lon="10.30605">
        <ele>1808.5137625259</ele>
        <time>2018-09-23T03:13:27.991Z</time>
      </trkpt>
      <trkpt lat="46.23686" lon="10.306">
        <ele>1807.723160485</ele>
        <time>2018-09-23T03:13:36.001Z</time>
      </trkpt>
      <trkpt lat="46.23694" lon="10.30591">
        <ele>1807.330613551</ele>
        <time>2018-09-23T03:13:44.990Z</time>
      </trkpt>
      <trkpt lat="46.23701" lon="10.30581">
        <ele>1809.1842268746</ele>
        <time>2018-09-23T03:13:54.992Z</time>
      </trkpt>
      <trkpt lat="46.23708" lon="10.30572">
        <ele>1809.9939339111</ele>
        <time>2018-09-23T03:14:03.000Z</time>
      </trkpt>
      <trkpt lat="46.23716" lon="10.30566">
        <ele>1810.79400064</ele>
        <time>2018-09-23T03:14:11.000Z</time>
      </trkpt>
      <trkpt lat="46.23725" lon="10.30563">
        <ele>1811</ele>
        <time>2018-09-23T03:14:17.991Z</time>
      </trkpt>
      <trkpt lat="46.23734" lon="10.30558">
        <ele>1811</ele>
        <time>2018-09-23T03:14:28.986Z</time>
      </trkpt>
      <trkpt lat="46.23743" lon="10.30552">
        <ele>1810.608</ele>
        <time>2018-09-23T03:14:36.990Z</time>
      </trkpt>
      <trkpt lat="46.23753" lon="10.30547">
        <ele>1810.00790016</ele>
        <time>2018-09-23T03:14:42.991Z</time>
      </trkpt>
      <trkpt lat="46.23762" lon="10.30541">
        <ele>1809.3073066417</ele>
        <time>2018-09-23T03:14:49.990Z</time>
      </trkpt>
      <trkpt lat="46.2377" lon="10.30536">
        <ele>1809</ele>
        <time>2018-09-23T03:14:57.986Z</time>
      </trkpt>
      <trkpt lat="46.23779" lon="10.30528">
        <ele>1808.918016412</ele>
        <time>2018-09-23T03:15:03.990Z</time>
      </trkpt>
      <trkpt lat="46.23786" lon="10.30519">
        <ele>1808.3107281758</ele>
        <time>2018-09-23T03:15:09.990Z</time>
      </trkpt>
      <trkpt lat="46.23794" lon="10.30513">
        <ele>1808</ele>
        <time>2018-09-23T03:15:16.990Z</time>
      </trkpt>
      <trkpt lat="46.23803" lon="10.30506">
        <ele>1808</ele>
        <time>2018-09-23T03:15:26.000Z</time>
      </trkpt>
      <trkpt lat="46.2381" lon="10.30498">
        <ele>1808</ele>
        <time>2018-09-23T03:15:32.990Z</time>
      </trkpt>
      <trkpt lat="46.23819" lon="10.3049">
        <ele>1807.3124</ele>
        <time>2018-09-23T03:15:39.991Z</time>
      </trkpt>
      <trkpt lat="46.23827" lon="10.30481">
        <ele>1807</ele>
        <time>2018-09-23T03:15:46.000Z</time>
      </trkpt>
      <trkpt lat="46.23834" lon="10.30473">
        <ele>1807</ele>
        <time>2018-09-23T03:15:53.990Z</time>
      </trkpt>
      <trkpt lat="46.23842" lon="10.30465">
        <ele>1807</ele>
        <time>2018-09-23T03:16:01.000Z</time>
      </trkpt>
      <trkpt lat="46.2385" lon="10.30456">
        <ele>1807</ele>
        <time>2018-09-23T03:16:07.095Z</time>
      </trkpt>
      <trkpt lat="46.23856" lon="10.30445">
        <ele>1807</ele>
        <time>2018-09-23T03:16:14.000Z</time>
      </trkpt>
      <trkpt lat="46.23864" lon="10.30437">
        <ele>1807</ele>
        <time>2018-09-23T03:16:20.990Z</time>
      </trkpt>
      <trkpt lat="46.23872" lon="10.3043">
        <ele>1806.5113975854</ele>
        <time>2018-09-23T03:16:28.000Z</time>
      </trkpt>
      <trkpt lat="46.23881" lon="10.30425">
        <ele>1806</ele>
        <time>2018-09-23T03:16:36.990Z</time>
      </trkpt>
      <trkpt lat="46.2389" lon="10.3042">
        <ele>1806</ele>
        <time>2018-09-23T03:16:43.000Z</time>
      </trkpt>
      <trkpt lat="46.239" lon="10.30418">
        <ele>1804.6640785</ele>
        <time>2018-09-23T03:16:50.000Z</time>
      </trkpt>
      <trkpt lat="46.23909" lon="10.30417">
        <ele>1802.5761673206</ele>
        <time>2018-09-23T03:16:58.000Z</time>
      </trkpt>
      <trkpt lat="46.23918" lon="10.30422">
        <ele>1800.016</ele>
        <time>2018-09-23T03:17:07.990Z</time>
      </trkpt>
      <trkpt lat="46.23926" lon="10.30427">
        <ele>1798.70700032</ele>
        <time>2018-09-23T03:17:16.000Z</time>
      </trkpt>
      <trkpt lat="46.23916" lon="10.30428">
        <ele>1798.4925079792</ele>
        <time>2018-09-23T03:17:37.990Z</time>
      </trkpt>
      <trkpt lat="46.23921" lon="10.30439">
        <ele>1798.6316182136</ele>
        <time>2018-09-23T03:17:45.004Z</time>
      </trkpt>
      <trkpt lat="46.23929" lon="10.30446">
        <ele>1797.3009513453</ele>
        <time>2018-09-23T03:17:51.990Z</time>
      </trkpt>
      <trkpt lat="46.23939" lon="10.3045">
        <ele>1794.7174732009</ele>
        <time>2018-09-23T03:17:58.991Z</time>
      </trkpt>
      <trkpt lat="46.23947" lon="10.30457">
        <ele>1792.9123693511</ele>
        <time>2018-09-23T03:18:03.991Z</time>
      </trkpt>
      <trkpt lat="46.23956" lon="10.30459">
        <ele>1792.1512847494</ele>
        <time>2018-09-23T03:18:11.990Z</time>
      </trkpt>
      <trkpt lat="46.23966" lon="10.30458">
        <ele>1791.0706009933</ele>
        <time>2018-09-23T03:18:17.990Z</time>
      </trkpt>
      <trkpt lat="46.23975" lon="10.30455">
        <ele>1789.80700032</ele>
        <time>2018-09-23T03:18:25.000Z</time>
      </trkpt>
      <trkpt lat="46.23985" lon="10.30453">
        <ele>1789.208</ele>
        <time>2018-09-23T03:18:30.990Z</time>
      </trkpt>
      <trkpt lat="46.23995" lon="10.30452">
        <ele>1788.408</ele>
        <time>2018-09-23T03:18:38.990Z</time>
      </trkpt>
      <trkpt lat="46.24005" lon="10.30452">
        <ele>1788</ele>
        <time>2018-09-23T03:18:46.990Z</time>
      </trkpt>
      <trkpt lat="46.24015" lon="10.30455">
        <ele>1788</ele>
        <time>2018-09-23T03:18:55.001Z</time>
      </trkpt>
      <trkpt lat="46.2402" lon="10.30466">
        <ele>1788</ele>
        <time>2018-09-23T03:19:02.988Z</time>
      </trkpt>
      <trkpt lat="46.24019" lon="10.3048">
        <ele>1788</ele>
        <time>2018-09-23T03:19:09.986Z</time>
      </trkpt>
      <trkpt lat="46.24026" lon="10.30489">
        <ele>1788.8657528825</ele>
        <time>2018-09-23T03:19:21.988Z</time>
      </trkpt>
      <trkpt lat="46.24032" lon="10.30499">
        <ele>1791.2901593894</ele>
        <time>2018-09-23T03:19:35.989Z</time>
      </trkpt>
      <trkpt lat="46.24032" lon="10.30504">
        <ele>1792</ele>
        <time>2018-09-23T03:19:57.000Z</time>
      </trkpt>
    </trkseg>
  </trk>
</gpx>